<?xml version="1.0" encoding="UTF-8"?>
<gpx version="1.1" creator="https://www.youtrack.es" xsi:schemaLocation="http://www.topografix.com/GPX/1/1 http://www.topografix.com/GPX/1/1/gpx.xsd http://www.garmin.com/xmlschemas/GpxExtensions/v3 http://www.garmin.com/xmlschemas/GpxExtensionsv3.xsd http://www.garmin.com/xmlschemas/TrackPointExtension/v1 http://www.garmin.com/xmlschemas/TrackPointExtensionv1.xsd" xmlns:gpxtpx="http://www.garmin.com/xmlschemas/TrackPointExtension/v1" xmlns:gpxx="http://www.garmin.com/xmlschemas/GpxExtensions/v3" xmlns:xsi="http://www.w3.org/2001/XMLSchema-instance">
  <metadata>
    <link href="https://www.youtrack.es">
      <text>YouTrack.es</text>
    </link>
    <time>2026-05-10T16:58:11Z</time>
  </metadata>
  <trk>
    <src>https://www.youtrack.es</src>
    <link href="https://www.youtrack.es/ruta/11241-imlil-cima-toubkal">
      <text>YouTrack.es</text>
    </link>
    <trkseg>
      <trkpt lat="31.133488" lon="-7.927323">
        <ele>1844.03960049688</ele>
        <time>2019-12-27T10:11:25.000Z</time>
      </trkpt>
      <trkpt lat="31.133466" lon="-7.927452">
        <ele>1851.80004882813</ele>
        <time>2019-12-27T10:11:49.000Z</time>
      </trkpt>
      <trkpt lat="31.133539" lon="-7.92739">
        <ele>1844.80004882813</ele>
        <time>2019-12-27T10:14:55.000Z</time>
      </trkpt>
      <trkpt lat="31.13351" lon="-7.927286">
        <ele>1850</ele>
        <time>2019-12-27T10:18:48.000Z</time>
      </trkpt>
      <trkpt lat="31.133498" lon="-7.927178">
        <ele>1851.2197574625</ele>
        <time>2019-12-27T10:18:57.000Z</time>
      </trkpt>
      <trkpt lat="31.133482" lon="-7.927074">
        <ele>1852.61978187656</ele>
        <time>2019-12-27T10:19:05.000Z</time>
      </trkpt>
      <trkpt lat="31.133482" lon="-7.926958">
        <ele>1854.41981862031</ele>
        <time>2019-12-27T10:19:14.000Z</time>
      </trkpt>
      <trkpt lat="31.133443" lon="-7.926858">
        <ele>1855.81984303438</ele>
        <time>2019-12-27T10:19:21.000Z</time>
      </trkpt>
      <trkpt lat="31.133395" lon="-7.926752">
        <ele>1857.81984303438</ele>
        <time>2019-12-27T10:19:31.000Z</time>
      </trkpt>
      <trkpt lat="31.133363" lon="-7.926643">
        <ele>1859.41981862031</ele>
        <time>2019-12-27T10:19:39.000Z</time>
      </trkpt>
      <trkpt lat="31.133363" lon="-7.926537">
        <ele>1861</ele>
        <time>2019-12-27T10:19:50.000Z</time>
      </trkpt>
      <trkpt lat="31.133331" lon="-7.926437">
        <ele>1861.59997558594</ele>
        <time>2019-12-27T10:19:59.000Z</time>
      </trkpt>
      <trkpt lat="31.133296" lon="-7.926337">
        <ele>1861.80004882813</ele>
        <time>2019-12-27T10:20:16.000Z</time>
      </trkpt>
      <trkpt lat="31.133312" lon="-7.926229">
        <ele>1861.80004882813</ele>
        <time>2019-12-27T10:20:25.000Z</time>
      </trkpt>
      <trkpt lat="31.133325" lon="-7.926123">
        <ele>1861.80004882813</ele>
        <time>2019-12-27T10:20:34.000Z</time>
      </trkpt>
      <trkpt lat="31.133315" lon="-7.926018">
        <ele>1862</ele>
        <time>2019-12-27T10:20:42.000Z</time>
      </trkpt>
      <trkpt lat="31.133328" lon="-7.925914">
        <ele>1862.40002441406</ele>
        <time>2019-12-27T10:20:50.000Z</time>
      </trkpt>
      <trkpt lat="31.133338" lon="-7.925793">
        <ele>1862.80004882813</ele>
        <time>2019-12-27T10:21:00.000Z</time>
      </trkpt>
      <trkpt lat="31.13335" lon="-7.925694">
        <ele>1863.2197574625</ele>
        <time>2019-12-27T10:21:07.000Z</time>
      </trkpt>
      <trkpt lat="31.133354" lon="-7.92567">
        <ele>1863.41981862031</ele>
        <time>2019-12-27T10:21:10.000Z</time>
      </trkpt>
      <trkpt lat="31.133354" lon="-7.925643">
        <ele>1863.59997558594</ele>
        <time>2019-12-27T10:21:12.000Z</time>
      </trkpt>
      <trkpt lat="31.133354" lon="-7.925618">
        <ele>1863.80004882813</ele>
        <time>2019-12-27T10:21:14.000Z</time>
      </trkpt>
      <trkpt lat="31.133354" lon="-7.925586">
        <ele>1863.81984303438</ele>
        <time>2019-12-27T10:21:17.000Z</time>
      </trkpt>
      <trkpt lat="31.133366" lon="-7.925554">
        <ele>1864</ele>
        <time>2019-12-27T10:21:19.000Z</time>
      </trkpt>
      <trkpt lat="31.133373" lon="-7.925534">
        <ele>1864.19995117188</ele>
        <time>2019-12-27T10:21:21.000Z</time>
      </trkpt>
      <trkpt lat="31.133373" lon="-7.92551">
        <ele>1864.2197574625</ele>
        <time>2019-12-27T10:21:23.000Z</time>
      </trkpt>
      <trkpt lat="31.133366" lon="-7.925478">
        <ele>1864.41981862031</ele>
        <time>2019-12-27T10:21:25.000Z</time>
      </trkpt>
      <trkpt lat="31.133363" lon="-7.925453">
        <ele>1864.61978187656</ele>
        <time>2019-12-27T10:21:28.000Z</time>
      </trkpt>
      <trkpt lat="31.133357" lon="-7.925428">
        <ele>1864.81984303438</ele>
        <time>2019-12-27T10:21:30.000Z</time>
      </trkpt>
      <trkpt lat="31.133357" lon="-7.925406">
        <ele>1865.01979420625</ele>
        <time>2019-12-27T10:21:32.000Z</time>
      </trkpt>
      <trkpt lat="31.133344" lon="-7.925373">
        <ele>1865.40002441406</ele>
        <time>2019-12-27T10:21:35.000Z</time>
      </trkpt>
      <trkpt lat="31.133338" lon="-7.92535">
        <ele>1865.59997558594</ele>
        <time>2019-12-27T10:21:37.000Z</time>
      </trkpt>
      <trkpt lat="31.133328" lon="-7.925327">
        <ele>1866</ele>
        <time>2019-12-27T10:21:40.000Z</time>
      </trkpt>
      <trkpt lat="31.133315" lon="-7.925298">
        <ele>1866.61978187656</ele>
        <time>2019-12-27T10:21:45.000Z</time>
      </trkpt>
      <trkpt lat="31.133306" lon="-7.925275">
        <ele>1867.19995117188</ele>
        <time>2019-12-27T10:21:48.000Z</time>
      </trkpt>
      <trkpt lat="31.133299" lon="-7.925251">
        <ele>1867.41981862031</ele>
        <time>2019-12-27T10:21:50.000Z</time>
      </trkpt>
      <trkpt lat="31.133296" lon="-7.925223">
        <ele>1868.01979420625</ele>
        <time>2019-12-27T10:21:53.000Z</time>
      </trkpt>
      <trkpt lat="31.133286" lon="-7.925192">
        <ele>1868.41981862031</ele>
        <time>2019-12-27T10:21:56.000Z</time>
      </trkpt>
      <trkpt lat="31.133277" lon="-7.925174">
        <ele>1868.81984303438</ele>
        <time>2019-12-27T10:21:58.000Z</time>
      </trkpt>
      <trkpt lat="31.133264" lon="-7.925149">
        <ele>1869.2197574625</ele>
        <time>2019-12-27T10:22:00.000Z</time>
      </trkpt>
      <trkpt lat="31.133258" lon="-7.925126">
        <ele>1869.41981862031</ele>
        <time>2019-12-27T10:22:02.000Z</time>
      </trkpt>
      <trkpt lat="31.133251" lon="-7.925105">
        <ele>1870.01979420625</ele>
        <time>2019-12-27T10:22:05.000Z</time>
      </trkpt>
      <trkpt lat="31.133245" lon="-7.925072">
        <ele>1870.2197574625</ele>
        <time>2019-12-27T10:22:07.000Z</time>
      </trkpt>
      <trkpt lat="31.133245" lon="-7.925048">
        <ele>1870.61978187656</ele>
        <time>2019-12-27T10:22:10.000Z</time>
      </trkpt>
      <trkpt lat="31.133232" lon="-7.925023">
        <ele>1871.01979420625</ele>
        <time>2019-12-27T10:22:12.000Z</time>
      </trkpt>
      <trkpt lat="31.133235" lon="-7.924998">
        <ele>1871.40002441406</ele>
        <time>2019-12-27T10:22:14.000Z</time>
      </trkpt>
      <trkpt lat="31.133238" lon="-7.924977">
        <ele>1871.61978187656</ele>
        <time>2019-12-27T10:22:16.000Z</time>
      </trkpt>
      <trkpt lat="31.133251" lon="-7.924946">
        <ele>1872</ele>
        <time>2019-12-27T10:22:18.000Z</time>
      </trkpt>
      <trkpt lat="31.133261" lon="-7.924928">
        <ele>1872.2197574625</ele>
        <time>2019-12-27T10:22:20.000Z</time>
      </trkpt>
      <trkpt lat="31.133264" lon="-7.924902">
        <ele>1872.59997558594</ele>
        <time>2019-12-27T10:22:22.000Z</time>
      </trkpt>
      <trkpt lat="31.13327" lon="-7.924878">
        <ele>1872.81984303438</ele>
        <time>2019-12-27T10:22:24.000Z</time>
      </trkpt>
      <trkpt lat="31.133274" lon="-7.924855">
        <ele>1873.19995117188</ele>
        <time>2019-12-27T10:22:26.000Z</time>
      </trkpt>
      <trkpt lat="31.133267" lon="-7.924825">
        <ele>1873.41981862031</ele>
        <time>2019-12-27T10:22:28.000Z</time>
      </trkpt>
      <trkpt lat="31.133274" lon="-7.924789">
        <ele>1873.80004882813</ele>
        <time>2019-12-27T10:22:30.000Z</time>
      </trkpt>
      <trkpt lat="31.133277" lon="-7.924765">
        <ele>1874.01979420625</ele>
        <time>2019-12-27T10:22:32.000Z</time>
      </trkpt>
      <trkpt lat="31.133274" lon="-7.924732">
        <ele>1874.41963857184</ele>
        <time>2019-12-27T10:22:35.000Z</time>
      </trkpt>
      <trkpt lat="31.133277" lon="-7.924702">
        <ele>1874.81984303438</ele>
        <time>2019-12-27T10:22:37.000Z</time>
      </trkpt>
      <trkpt lat="31.133286" lon="-7.924683">
        <ele>1875.01979420625</ele>
        <time>2019-12-27T10:22:39.000Z</time>
      </trkpt>
      <trkpt lat="31.13329" lon="-7.92466">
        <ele>1875.41981862031</ele>
        <time>2019-12-27T10:22:41.000Z</time>
      </trkpt>
      <trkpt lat="31.133286" lon="-7.924625">
        <ele>1875.61978187656</ele>
        <time>2019-12-27T10:22:43.000Z</time>
      </trkpt>
      <trkpt lat="31.133286" lon="-7.924603">
        <ele>1876.01979420625</ele>
        <time>2019-12-27T10:22:45.000Z</time>
      </trkpt>
      <trkpt lat="31.133296" lon="-7.924582">
        <ele>1876.2197574625</ele>
        <time>2019-12-27T10:22:47.000Z</time>
      </trkpt>
      <trkpt lat="31.133306" lon="-7.924555">
        <ele>1876.59997558594</ele>
        <time>2019-12-27T10:22:49.000Z</time>
      </trkpt>
      <trkpt lat="31.133315" lon="-7.924537">
        <ele>1876.80004882813</ele>
        <time>2019-12-27T10:22:51.000Z</time>
      </trkpt>
      <trkpt lat="31.133328" lon="-7.92451">
        <ele>1877.01979420625</ele>
        <time>2019-12-27T10:22:53.000Z</time>
      </trkpt>
      <trkpt lat="31.13335" lon="-7.924492">
        <ele>1877.2197574625</ele>
        <time>2019-12-27T10:22:55.000Z</time>
      </trkpt>
      <trkpt lat="31.133366" lon="-7.924472">
        <ele>1877.61978187656</ele>
        <time>2019-12-27T10:22:58.000Z</time>
      </trkpt>
      <trkpt lat="31.133392" lon="-7.924452">
        <ele>1877.81984303438</ele>
        <time>2019-12-27T10:23:00.000Z</time>
      </trkpt>
      <trkpt lat="31.133414" lon="-7.924429">
        <ele>1878.2197574625</ele>
        <time>2019-12-27T10:23:03.000Z</time>
      </trkpt>
      <trkpt lat="31.133434" lon="-7.9244">
        <ele>1878.41981862031</ele>
        <time>2019-12-27T10:23:05.000Z</time>
      </trkpt>
      <trkpt lat="31.133446" lon="-7.924378">
        <ele>1878.80004882813</ele>
        <time>2019-12-27T10:23:07.000Z</time>
      </trkpt>
      <trkpt lat="31.133459" lon="-7.924363">
        <ele>1879</ele>
        <time>2019-12-27T10:23:09.000Z</time>
      </trkpt>
      <trkpt lat="31.133466" lon="-7.924338">
        <ele>1879.19995117188</ele>
        <time>2019-12-27T10:23:11.000Z</time>
      </trkpt>
      <trkpt lat="31.133475" lon="-7.924314">
        <ele>1879.41981862031</ele>
        <time>2019-12-27T10:23:13.000Z</time>
      </trkpt>
      <trkpt lat="31.133488" lon="-7.924298">
        <ele>1879.61978187656</ele>
        <time>2019-12-27T10:23:15.000Z</time>
      </trkpt>
      <trkpt lat="31.133498" lon="-7.924271">
        <ele>1879.81984303438</ele>
        <time>2019-12-27T10:23:17.000Z</time>
      </trkpt>
      <trkpt lat="31.133504" lon="-7.924248">
        <ele>1880.19995117188</ele>
        <time>2019-12-27T10:23:19.000Z</time>
      </trkpt>
      <trkpt lat="31.13351" lon="-7.924217">
        <ele>1880.41981862031</ele>
        <time>2019-12-27T10:23:22.000Z</time>
      </trkpt>
      <trkpt lat="31.13352" lon="-7.924195">
        <ele>1880.81984303438</ele>
        <time>2019-12-27T10:23:24.000Z</time>
      </trkpt>
      <trkpt lat="31.13352" lon="-7.924166">
        <ele>1881.23955166875</ele>
        <time>2019-12-27T10:23:27.000Z</time>
      </trkpt>
      <trkpt lat="31.133523" lon="-7.924142">
        <ele>1881.81984303438</ele>
        <time>2019-12-27T10:23:29.000Z</time>
      </trkpt>
      <trkpt lat="31.133523" lon="-7.924114">
        <ele>1882.2197574625</ele>
        <time>2019-12-27T10:23:32.000Z</time>
      </trkpt>
      <trkpt lat="31.133533" lon="-7.924085">
        <ele>1882.41981862031</ele>
        <time>2019-12-27T10:23:34.000Z</time>
      </trkpt>
      <trkpt lat="31.133542" lon="-7.924065">
        <ele>1882.80004882813</ele>
        <time>2019-12-27T10:23:36.000Z</time>
      </trkpt>
      <trkpt lat="31.133549" lon="-7.924037">
        <ele>1883</ele>
        <time>2019-12-27T10:23:38.000Z</time>
      </trkpt>
      <trkpt lat="31.133552" lon="-7.92401">
        <ele>1883.19995117188</ele>
        <time>2019-12-27T10:23:40.000Z</time>
      </trkpt>
      <trkpt lat="31.133562" lon="-7.923975">
        <ele>1883.40002441406</ele>
        <time>2019-12-27T10:23:43.000Z</time>
      </trkpt>
      <trkpt lat="31.133565" lon="-7.92395">
        <ele>1883.59997558594</ele>
        <time>2019-12-27T10:23:45.000Z</time>
      </trkpt>
      <trkpt lat="31.133571" lon="-7.923923">
        <ele>1883.81984303438</ele>
        <time>2019-12-27T10:23:48.000Z</time>
      </trkpt>
      <trkpt lat="31.133578" lon="-7.923897">
        <ele>1884.01979420625</ele>
        <time>2019-12-27T10:23:51.000Z</time>
      </trkpt>
      <trkpt lat="31.133581" lon="-7.923863">
        <ele>1884.40002441406</ele>
        <time>2019-12-27T10:23:54.000Z</time>
      </trkpt>
      <trkpt lat="31.133584" lon="-7.923835">
        <ele>1884.61978187656</ele>
        <time>2019-12-27T10:23:57.000Z</time>
      </trkpt>
      <trkpt lat="31.133584" lon="-7.923806">
        <ele>1884.81984303438</ele>
        <time>2019-12-27T10:23:59.000Z</time>
      </trkpt>
      <trkpt lat="31.133581" lon="-7.923777">
        <ele>1885.40002441406</ele>
        <time>2019-12-27T10:24:02.000Z</time>
      </trkpt>
      <trkpt lat="31.133574" lon="-7.923752">
        <ele>1885.80004882813</ele>
        <time>2019-12-27T10:24:05.000Z</time>
      </trkpt>
      <trkpt lat="31.133571" lon="-7.923726">
        <ele>1886.19995117188</ele>
        <time>2019-12-27T10:24:08.000Z</time>
      </trkpt>
      <trkpt lat="31.133578" lon="-7.923705">
        <ele>1886.41981862031</ele>
        <time>2019-12-27T10:24:11.000Z</time>
      </trkpt>
      <trkpt lat="31.133574" lon="-7.923673">
        <ele>1886.61978187656</ele>
        <time>2019-12-27T10:24:13.000Z</time>
      </trkpt>
      <trkpt lat="31.133581" lon="-7.923648">
        <ele>1887</ele>
        <time>2019-12-27T10:24:15.000Z</time>
      </trkpt>
      <trkpt lat="31.133594" lon="-7.923632">
        <ele>1887.2197574625</ele>
        <time>2019-12-27T10:24:17.000Z</time>
      </trkpt>
      <trkpt lat="31.133587" lon="-7.923605">
        <ele>1887.41981862031</ele>
        <time>2019-12-27T10:24:19.000Z</time>
      </trkpt>
      <trkpt lat="31.13359" lon="-7.92358">
        <ele>1887.61978187656</ele>
        <time>2019-12-27T10:24:21.000Z</time>
      </trkpt>
      <trkpt lat="31.13359" lon="-7.923558">
        <ele>1888</ele>
        <time>2019-12-27T10:24:23.000Z</time>
      </trkpt>
      <trkpt lat="31.133594" lon="-7.923531">
        <ele>1888.2197574625</ele>
        <time>2019-12-27T10:24:25.000Z</time>
      </trkpt>
      <trkpt lat="31.133594" lon="-7.923503">
        <ele>1888.61978187656</ele>
        <time>2019-12-27T10:24:28.000Z</time>
      </trkpt>
      <trkpt lat="31.133594" lon="-7.923477">
        <ele>1888.81984303438</ele>
        <time>2019-12-27T10:24:30.000Z</time>
      </trkpt>
      <trkpt lat="31.133606" lon="-7.923449">
        <ele>1889.40002441406</ele>
        <time>2019-12-27T10:24:33.000Z</time>
      </trkpt>
      <trkpt lat="31.133613" lon="-7.923417">
        <ele>1889.61978187656</ele>
        <time>2019-12-27T10:24:35.000Z</time>
      </trkpt>
      <trkpt lat="31.133619" lon="-7.923394">
        <ele>1890</ele>
        <time>2019-12-27T10:24:37.000Z</time>
      </trkpt>
      <trkpt lat="31.133629" lon="-7.923362">
        <ele>1890.41981862031</ele>
        <time>2019-12-27T10:24:40.000Z</time>
      </trkpt>
      <trkpt lat="31.133642" lon="-7.923345">
        <ele>1890.81984303438</ele>
        <time>2019-12-27T10:24:42.000Z</time>
      </trkpt>
      <trkpt lat="31.133651" lon="-7.923312">
        <ele>1891.2197574625</ele>
        <time>2019-12-27T10:24:45.000Z</time>
      </trkpt>
      <trkpt lat="31.133654" lon="-7.92329">
        <ele>1891.61978187656</ele>
        <time>2019-12-27T10:24:47.000Z</time>
      </trkpt>
      <trkpt lat="31.133642" lon="-7.92327">
        <ele>1892.01979420625</ele>
        <time>2019-12-27T10:24:50.000Z</time>
      </trkpt>
      <trkpt lat="31.133645" lon="-7.92324">
        <ele>1892.61978187656</ele>
        <time>2019-12-27T10:24:53.000Z</time>
      </trkpt>
      <trkpt lat="31.133642" lon="-7.92321">
        <ele>1892.81984303438</ele>
        <time>2019-12-27T10:24:55.000Z</time>
      </trkpt>
      <trkpt lat="31.133651" lon="-7.923185">
        <ele>1893.19995117188</ele>
        <time>2019-12-27T10:24:57.000Z</time>
      </trkpt>
      <trkpt lat="31.133661" lon="-7.92316">
        <ele>1893.41981862031</ele>
        <time>2019-12-27T10:25:00.000Z</time>
      </trkpt>
      <trkpt lat="31.13367" lon="-7.923134">
        <ele>1893.61978187656</ele>
        <time>2019-12-27T10:25:02.000Z</time>
      </trkpt>
      <trkpt lat="31.13368" lon="-7.923106">
        <ele>1894</ele>
        <time>2019-12-27T10:25:05.000Z</time>
      </trkpt>
      <trkpt lat="31.133686" lon="-7.923078">
        <ele>1894.01979420625</ele>
        <time>2019-12-27T10:25:07.000Z</time>
      </trkpt>
      <trkpt lat="31.133693" lon="-7.923058">
        <ele>1894.19995117188</ele>
        <time>2019-12-27T10:25:09.000Z</time>
      </trkpt>
      <trkpt lat="31.133702" lon="-7.923037">
        <ele>1894.40002441406</ele>
        <time>2019-12-27T10:25:11.000Z</time>
      </trkpt>
      <trkpt lat="31.133706" lon="-7.923009">
        <ele>1894.40002441406</ele>
        <time>2019-12-27T10:25:13.000Z</time>
      </trkpt>
      <trkpt lat="31.133715" lon="-7.92299">
        <ele>1894.40002441406</ele>
        <time>2019-12-27T10:25:15.000Z</time>
      </trkpt>
      <trkpt lat="31.133722" lon="-7.922965">
        <ele>1894.59997558594</ele>
        <time>2019-12-27T10:25:17.000Z</time>
      </trkpt>
      <trkpt lat="31.133731" lon="-7.92294">
        <ele>1894.59997558594</ele>
        <time>2019-12-27T10:25:19.000Z</time>
      </trkpt>
      <trkpt lat="31.133741" lon="-7.922908">
        <ele>1894.59997558594</ele>
        <time>2019-12-27T10:25:22.000Z</time>
      </trkpt>
      <trkpt lat="31.13375" lon="-7.922883">
        <ele>1894.59997558594</ele>
        <time>2019-12-27T10:25:24.000Z</time>
      </trkpt>
      <trkpt lat="31.13376" lon="-7.922855">
        <ele>1894.80004882813</ele>
        <time>2019-12-27T10:25:27.000Z</time>
      </trkpt>
      <trkpt lat="31.133766" lon="-7.922825">
        <ele>1894.80004882813</ele>
        <time>2019-12-27T10:25:29.000Z</time>
      </trkpt>
      <trkpt lat="31.133773" lon="-7.922805">
        <ele>1894.80004882813</ele>
        <time>2019-12-27T10:25:31.000Z</time>
      </trkpt>
      <trkpt lat="31.133779" lon="-7.922777">
        <ele>1895</ele>
        <time>2019-12-27T10:25:33.000Z</time>
      </trkpt>
      <trkpt lat="31.133782" lon="-7.922746">
        <ele>1895</ele>
        <time>2019-12-27T10:25:35.000Z</time>
      </trkpt>
      <trkpt lat="31.133789" lon="-7.922714">
        <ele>1895.19995117188</ele>
        <time>2019-12-27T10:25:38.000Z</time>
      </trkpt>
      <trkpt lat="31.133792" lon="-7.922686">
        <ele>1895.19995117188</ele>
        <time>2019-12-27T10:25:40.000Z</time>
      </trkpt>
      <trkpt lat="31.133795" lon="-7.922655">
        <ele>1895.40002441406</ele>
        <time>2019-12-27T10:25:43.000Z</time>
      </trkpt>
      <trkpt lat="31.133802" lon="-7.922629">
        <ele>1895.40002441406</ele>
        <time>2019-12-27T10:25:45.000Z</time>
      </trkpt>
      <trkpt lat="31.133808" lon="-7.922605">
        <ele>1895.59997558594</ele>
        <time>2019-12-27T10:25:47.000Z</time>
      </trkpt>
      <trkpt lat="31.133811" lon="-7.92257">
        <ele>1895.59997558594</ele>
        <time>2019-12-27T10:25:49.000Z</time>
      </trkpt>
      <trkpt lat="31.133814" lon="-7.922545">
        <ele>1895.80004882813</ele>
        <time>2019-12-27T10:25:51.000Z</time>
      </trkpt>
      <trkpt lat="31.133805" lon="-7.922522">
        <ele>1895.80004882813</ele>
        <time>2019-12-27T10:25:53.000Z</time>
      </trkpt>
      <trkpt lat="31.133786" lon="-7.92252">
        <ele>1896</ele>
        <time>2019-12-27T10:25:55.000Z</time>
      </trkpt>
      <trkpt lat="31.133773" lon="-7.922503">
        <ele>1896.19995117188</ele>
        <time>2019-12-27T10:26:00.000Z</time>
      </trkpt>
      <trkpt lat="31.133766" lon="-7.922483">
        <ele>1896.40002441406</ele>
        <time>2019-12-27T10:26:04.000Z</time>
      </trkpt>
      <trkpt lat="31.133754" lon="-7.922463">
        <ele>1896.41981862031</ele>
        <time>2019-12-27T10:26:06.000Z</time>
      </trkpt>
      <trkpt lat="31.133734" lon="-7.922451">
        <ele>1896.59997558594</ele>
        <time>2019-12-27T10:26:08.000Z</time>
      </trkpt>
      <trkpt lat="31.133722" lon="-7.922423">
        <ele>1896.61978187656</ele>
        <time>2019-12-27T10:26:11.000Z</time>
      </trkpt>
      <trkpt lat="31.133712" lon="-7.922398">
        <ele>1896.80004882813</ele>
        <time>2019-12-27T10:26:13.000Z</time>
      </trkpt>
      <trkpt lat="31.133715" lon="-7.922366">
        <ele>1897.59997558594</ele>
        <time>2019-12-27T10:26:26.000Z</time>
      </trkpt>
      <trkpt lat="31.133725" lon="-7.922342">
        <ele>1897.61978187656</ele>
        <time>2019-12-27T10:26:28.000Z</time>
      </trkpt>
      <trkpt lat="31.133728" lon="-7.922317">
        <ele>1897.81984303438</ele>
        <time>2019-12-27T10:26:30.000Z</time>
      </trkpt>
      <trkpt lat="31.133731" lon="-7.922292">
        <ele>1898.19995117188</ele>
        <time>2019-12-27T10:26:32.000Z</time>
      </trkpt>
      <trkpt lat="31.133734" lon="-7.922262">
        <ele>1898.41981862031</ele>
        <time>2019-12-27T10:26:34.000Z</time>
      </trkpt>
      <trkpt lat="31.133728" lon="-7.922238">
        <ele>1898.61978187656</ele>
        <time>2019-12-27T10:26:36.000Z</time>
      </trkpt>
      <trkpt lat="31.133715" lon="-7.922214">
        <ele>1899</ele>
        <time>2019-12-27T10:26:38.000Z</time>
      </trkpt>
      <trkpt lat="31.133702" lon="-7.922192">
        <ele>1899.2197574625</ele>
        <time>2019-12-27T10:26:40.000Z</time>
      </trkpt>
      <trkpt lat="31.133693" lon="-7.922174">
        <ele>1899.41981862031</ele>
        <time>2019-12-27T10:26:42.000Z</time>
      </trkpt>
      <trkpt lat="31.13367" lon="-7.92217">
        <ele>1899.61978187656</ele>
        <time>2019-12-27T10:26:43.000Z</time>
      </trkpt>
      <trkpt lat="31.133645" lon="-7.922162">
        <ele>1900</ele>
        <time>2019-12-27T10:26:45.000Z</time>
      </trkpt>
      <trkpt lat="31.133632" lon="-7.922188">
        <ele>1900.40002441406</ele>
        <time>2019-12-27T10:26:48.000Z</time>
      </trkpt>
      <trkpt lat="31.133626" lon="-7.92221">
        <ele>1900.61978187656</ele>
        <time>2019-12-27T10:26:50.000Z</time>
      </trkpt>
      <trkpt lat="31.133613" lon="-7.922235">
        <ele>1900.81984303438</ele>
        <time>2019-12-27T10:26:52.000Z</time>
      </trkpt>
      <trkpt lat="31.133606" lon="-7.922266">
        <ele>1901.41981862031</ele>
        <time>2019-12-27T10:26:55.000Z</time>
      </trkpt>
      <trkpt lat="31.1336" lon="-7.922293">
        <ele>1901.80004882813</ele>
        <time>2019-12-27T10:26:58.000Z</time>
      </trkpt>
      <trkpt lat="31.133603" lon="-7.922317">
        <ele>1902.01979420625</ele>
        <time>2019-12-27T10:27:00.000Z</time>
      </trkpt>
      <trkpt lat="31.133606" lon="-7.922343">
        <ele>1902.40002441406</ele>
        <time>2019-12-27T10:27:03.000Z</time>
      </trkpt>
      <trkpt lat="31.133606" lon="-7.922372">
        <ele>1902.59997558594</ele>
        <time>2019-12-27T10:27:06.000Z</time>
      </trkpt>
      <trkpt lat="31.1336" lon="-7.922398">
        <ele>1902.80004882813</ele>
        <time>2019-12-27T10:27:08.000Z</time>
      </trkpt>
      <trkpt lat="31.1336" lon="-7.922425">
        <ele>1903.01979420625</ele>
        <time>2019-12-27T10:27:11.000Z</time>
      </trkpt>
      <trkpt lat="31.133594" lon="-7.922446">
        <ele>1903.61978187656</ele>
        <time>2019-12-27T10:27:19.000Z</time>
      </trkpt>
      <trkpt lat="31.133594" lon="-7.922471">
        <ele>1903.81984303438</ele>
        <time>2019-12-27T10:27:22.000Z</time>
      </trkpt>
      <trkpt lat="31.133594" lon="-7.922495">
        <ele>1904.19995117188</ele>
        <time>2019-12-27T10:27:26.000Z</time>
      </trkpt>
      <trkpt lat="31.133594" lon="-7.92252">
        <ele>1904.40002441406</ele>
        <time>2019-12-27T10:27:29.000Z</time>
      </trkpt>
      <trkpt lat="31.13359" lon="-7.922545">
        <ele>1904.59997558594</ele>
        <time>2019-12-27T10:27:32.000Z</time>
      </trkpt>
      <trkpt lat="31.133594" lon="-7.922577">
        <ele>1904.80004882813</ele>
        <time>2019-12-27T10:27:35.000Z</time>
      </trkpt>
      <trkpt lat="31.13359" lon="-7.922605">
        <ele>1905</ele>
        <time>2019-12-27T10:27:38.000Z</time>
      </trkpt>
      <trkpt lat="31.133574" lon="-7.922626">
        <ele>1905.19995117188</ele>
        <time>2019-12-27T10:27:41.000Z</time>
      </trkpt>
      <trkpt lat="31.133565" lon="-7.922652">
        <ele>1905.2197574625</ele>
        <time>2019-12-27T10:27:43.000Z</time>
      </trkpt>
      <trkpt lat="31.133552" lon="-7.922669">
        <ele>1905.40002441406</ele>
        <time>2019-12-27T10:27:45.000Z</time>
      </trkpt>
      <trkpt lat="31.133536" lon="-7.922689">
        <ele>1905.59997558594</ele>
        <time>2019-12-27T10:27:47.000Z</time>
      </trkpt>
      <trkpt lat="31.13352" lon="-7.922702">
        <ele>1905.61978187656</ele>
        <time>2019-12-27T10:27:49.000Z</time>
      </trkpt>
      <trkpt lat="31.133491" lon="-7.922718">
        <ele>1905.81984303438</ele>
        <time>2019-12-27T10:27:52.000Z</time>
      </trkpt>
      <trkpt lat="31.133475" lon="-7.922735">
        <ele>1906</ele>
        <time>2019-12-27T10:27:54.000Z</time>
      </trkpt>
      <trkpt lat="31.133469" lon="-7.922758">
        <ele>1906</ele>
        <time>2019-12-27T10:27:56.000Z</time>
      </trkpt>
      <trkpt lat="31.133456" lon="-7.922782">
        <ele>1906.19995117188</ele>
        <time>2019-12-27T10:27:58.000Z</time>
      </trkpt>
      <trkpt lat="31.13344" lon="-7.922797">
        <ele>1906.19995117188</ele>
        <time>2019-12-27T10:28:00.000Z</time>
      </trkpt>
      <trkpt lat="31.133427" lon="-7.922817">
        <ele>1906.40002441406</ele>
        <time>2019-12-27T10:28:02.000Z</time>
      </trkpt>
      <trkpt lat="31.133418" lon="-7.92284">
        <ele>1906.40002441406</ele>
        <time>2019-12-27T10:28:04.000Z</time>
      </trkpt>
      <trkpt lat="31.133405" lon="-7.922855">
        <ele>1906.41981862031</ele>
        <time>2019-12-27T10:28:06.000Z</time>
      </trkpt>
      <trkpt lat="31.133386" lon="-7.922874">
        <ele>1906.59997558594</ele>
        <time>2019-12-27T10:28:08.000Z</time>
      </trkpt>
      <trkpt lat="31.133366" lon="-7.92289">
        <ele>1906.59997558594</ele>
        <time>2019-12-27T10:28:11.000Z</time>
      </trkpt>
      <trkpt lat="31.133347" lon="-7.92291">
        <ele>1906.80004882813</ele>
        <time>2019-12-27T10:28:13.000Z</time>
      </trkpt>
      <trkpt lat="31.133334" lon="-7.92293">
        <ele>1906.80004882813</ele>
        <time>2019-12-27T10:28:15.000Z</time>
      </trkpt>
      <trkpt lat="31.133322" lon="-7.92296">
        <ele>1906.81984303438</ele>
        <time>2019-12-27T10:28:18.000Z</time>
      </trkpt>
      <trkpt lat="31.133306" lon="-7.922972">
        <ele>1907.01979420625</ele>
        <time>2019-12-27T10:28:20.000Z</time>
      </trkpt>
      <trkpt lat="31.133286" lon="-7.92299">
        <ele>1907.41981862031</ele>
        <time>2019-12-27T10:28:23.000Z</time>
      </trkpt>
      <trkpt lat="31.133267" lon="-7.923012">
        <ele>1907.80004882813</ele>
        <time>2019-12-27T10:28:26.000Z</time>
      </trkpt>
      <trkpt lat="31.133254" lon="-7.923032">
        <ele>1908</ele>
        <time>2019-12-27T10:28:28.000Z</time>
      </trkpt>
      <trkpt lat="31.133248" lon="-7.923052">
        <ele>1908.19995117188</ele>
        <time>2019-12-27T10:28:30.000Z</time>
      </trkpt>
      <trkpt lat="31.133229" lon="-7.923069">
        <ele>1908.40002441406</ele>
        <time>2019-12-27T10:28:32.000Z</time>
      </trkpt>
      <trkpt lat="31.133213" lon="-7.923082">
        <ele>1908.41981862031</ele>
        <time>2019-12-27T10:28:34.000Z</time>
      </trkpt>
      <trkpt lat="31.1332" lon="-7.923103">
        <ele>1908.59997558594</ele>
        <time>2019-12-27T10:28:36.000Z</time>
      </trkpt>
      <trkpt lat="31.133184" lon="-7.923123">
        <ele>1908.80004882813</ele>
        <time>2019-12-27T10:28:38.000Z</time>
      </trkpt>
      <trkpt lat="31.133174" lon="-7.923145">
        <ele>1908.81984303438</ele>
        <time>2019-12-27T10:28:40.000Z</time>
      </trkpt>
      <trkpt lat="31.133162" lon="-7.92316">
        <ele>1909</ele>
        <time>2019-12-27T10:28:42.000Z</time>
      </trkpt>
      <trkpt lat="31.133146" lon="-7.923188">
        <ele>1909.19995117188</ele>
        <time>2019-12-27T10:28:45.000Z</time>
      </trkpt>
      <trkpt lat="31.133126" lon="-7.923205">
        <ele>1909.40002441406</ele>
        <time>2019-12-27T10:28:48.000Z</time>
      </trkpt>
      <trkpt lat="31.133114" lon="-7.923223">
        <ele>1909.41981862031</ele>
        <time>2019-12-27T10:28:50.000Z</time>
      </trkpt>
      <trkpt lat="31.133101" lon="-7.92324">
        <ele>1909.80004882813</ele>
        <time>2019-12-27T10:28:53.000Z</time>
      </trkpt>
      <trkpt lat="31.133082" lon="-7.923258">
        <ele>1910.19995117188</ele>
        <time>2019-12-27T10:28:56.000Z</time>
      </trkpt>
      <trkpt lat="31.133075" lon="-7.923278">
        <ele>1910.40002441406</ele>
        <time>2019-12-27T10:28:58.000Z</time>
      </trkpt>
      <trkpt lat="31.133066" lon="-7.923303">
        <ele>1910.80004882813</ele>
        <time>2019-12-27T10:29:01.000Z</time>
      </trkpt>
      <trkpt lat="31.133056" lon="-7.923323">
        <ele>1911.19995117188</ele>
        <time>2019-12-27T10:29:04.000Z</time>
      </trkpt>
      <trkpt lat="31.133046" lon="-7.923345">
        <ele>1911.59997558594</ele>
        <time>2019-12-27T10:29:07.000Z</time>
      </trkpt>
      <trkpt lat="31.133034" lon="-7.92336">
        <ele>1911.81984303438</ele>
        <time>2019-12-27T10:29:09.000Z</time>
      </trkpt>
      <trkpt lat="31.133021" lon="-7.923377">
        <ele>1912.19995117188</ele>
        <time>2019-12-27T10:29:12.000Z</time>
      </trkpt>
      <trkpt lat="31.133011" lon="-7.9234">
        <ele>1912.40002441406</ele>
        <time>2019-12-27T10:29:15.000Z</time>
      </trkpt>
      <trkpt lat="31.133005" lon="-7.923429">
        <ele>1912.61978187656</ele>
        <time>2019-12-27T10:29:18.000Z</time>
      </trkpt>
      <trkpt lat="31.132992" lon="-7.923454">
        <ele>1913</ele>
        <time>2019-12-27T10:29:21.000Z</time>
      </trkpt>
      <trkpt lat="31.132982" lon="-7.923477">
        <ele>1913.2197574625</ele>
        <time>2019-12-27T10:29:24.000Z</time>
      </trkpt>
      <trkpt lat="31.132973" lon="-7.923495">
        <ele>1913.59997558594</ele>
        <time>2019-12-27T10:29:28.000Z</time>
      </trkpt>
      <trkpt lat="31.13296" lon="-7.923514">
        <ele>1913.80004882813</ele>
        <time>2019-12-27T10:29:30.000Z</time>
      </trkpt>
      <trkpt lat="31.132944" lon="-7.923531">
        <ele>1914.01979420625</ele>
        <time>2019-12-27T10:29:33.000Z</time>
      </trkpt>
      <trkpt lat="31.132931" lon="-7.92355">
        <ele>1914.41981862031</ele>
        <time>2019-12-27T10:29:35.000Z</time>
      </trkpt>
      <trkpt lat="31.132918" lon="-7.923568">
        <ele>1915.03960049688</ele>
        <time>2019-12-27T10:29:37.000Z</time>
      </trkpt>
      <trkpt lat="31.132902" lon="-7.923585">
        <ele>1915.61978187656</ele>
        <time>2019-12-27T10:29:39.000Z</time>
      </trkpt>
      <trkpt lat="31.13289" lon="-7.923603">
        <ele>1916.01979420625</ele>
        <time>2019-12-27T10:29:41.000Z</time>
      </trkpt>
      <trkpt lat="31.132877" lon="-7.923627">
        <ele>1916.40002441406</ele>
        <time>2019-12-27T10:29:43.000Z</time>
      </trkpt>
      <trkpt lat="31.132861" lon="-7.923647">
        <ele>1916.59997558594</ele>
        <time>2019-12-27T10:29:45.000Z</time>
      </trkpt>
      <trkpt lat="31.132842" lon="-7.92366">
        <ele>1916.80004882813</ele>
        <time>2019-12-27T10:29:47.000Z</time>
      </trkpt>
      <trkpt lat="31.132829" lon="-7.92368">
        <ele>1916.81984303438</ele>
        <time>2019-12-27T10:29:49.000Z</time>
      </trkpt>
      <trkpt lat="31.132806" lon="-7.923698">
        <ele>1917.01979420625</ele>
        <time>2019-12-27T10:29:52.000Z</time>
      </trkpt>
      <trkpt lat="31.132787" lon="-7.923715">
        <ele>1917.19995117188</ele>
        <time>2019-12-27T10:29:54.000Z</time>
      </trkpt>
      <trkpt lat="31.132771" lon="-7.923729">
        <ele>1917.2197574625</ele>
        <time>2019-12-27T10:29:56.000Z</time>
      </trkpt>
      <trkpt lat="31.132749" lon="-7.923745">
        <ele>1917.40002441406</ele>
        <time>2019-12-27T10:29:59.000Z</time>
      </trkpt>
      <trkpt lat="31.132733" lon="-7.92376">
        <ele>1917.59997558594</ele>
        <time>2019-12-27T10:30:02.000Z</time>
      </trkpt>
      <trkpt lat="31.132714" lon="-7.923774">
        <ele>1917.59997558594</ele>
        <time>2019-12-27T10:30:04.000Z</time>
      </trkpt>
      <trkpt lat="31.132694" lon="-7.92379">
        <ele>1917.80004882813</ele>
        <time>2019-12-27T10:30:07.000Z</time>
      </trkpt>
      <trkpt lat="31.132678" lon="-7.923802">
        <ele>1918</ele>
        <time>2019-12-27T10:30:09.000Z</time>
      </trkpt>
      <trkpt lat="31.132662" lon="-7.923826">
        <ele>1918.19995117188</ele>
        <time>2019-12-27T10:30:12.000Z</time>
      </trkpt>
      <trkpt lat="31.132646" lon="-7.923837">
        <ele>1918.40002441406</ele>
        <time>2019-12-27T10:30:15.000Z</time>
      </trkpt>
      <trkpt lat="31.13263" lon="-7.923854">
        <ele>1918.41981862031</ele>
        <time>2019-12-27T10:30:17.000Z</time>
      </trkpt>
      <trkpt lat="31.132611" lon="-7.923874">
        <ele>1918.80004882813</ele>
        <time>2019-12-27T10:30:20.000Z</time>
      </trkpt>
      <trkpt lat="31.132598" lon="-7.923897">
        <ele>1919</ele>
        <time>2019-12-27T10:30:23.000Z</time>
      </trkpt>
      <trkpt lat="31.132589" lon="-7.923915">
        <ele>1919.19995117188</ele>
        <time>2019-12-27T10:30:25.000Z</time>
      </trkpt>
      <trkpt lat="31.132576" lon="-7.92393">
        <ele>1919.40002441406</ele>
        <time>2019-12-27T10:30:27.000Z</time>
      </trkpt>
      <trkpt lat="31.13256" lon="-7.92394">
        <ele>1919.59997558594</ele>
        <time>2019-12-27T10:30:29.000Z</time>
      </trkpt>
      <trkpt lat="31.132538" lon="-7.923958">
        <ele>1919.81984303438</ele>
        <time>2019-12-27T10:30:32.000Z</time>
      </trkpt>
      <trkpt lat="31.132525" lon="-7.923982">
        <ele>1920.19995117188</ele>
        <time>2019-12-27T10:30:35.000Z</time>
      </trkpt>
      <trkpt lat="31.132509" lon="-7.923997">
        <ele>1920.40002441406</ele>
        <time>2019-12-27T10:30:37.000Z</time>
      </trkpt>
      <trkpt lat="31.132493" lon="-7.92401">
        <ele>1920.61978187656</ele>
        <time>2019-12-27T10:30:39.000Z</time>
      </trkpt>
      <trkpt lat="31.132483" lon="-7.924035">
        <ele>1921</ele>
        <time>2019-12-27T10:30:42.000Z</time>
      </trkpt>
      <trkpt lat="31.132467" lon="-7.92405">
        <ele>1921.2197574625</ele>
        <time>2019-12-27T10:30:44.000Z</time>
      </trkpt>
      <trkpt lat="31.132451" lon="-7.924072">
        <ele>1921.59997558594</ele>
        <time>2019-12-27T10:30:47.000Z</time>
      </trkpt>
      <trkpt lat="31.132442" lon="-7.924098">
        <ele>1922</ele>
        <time>2019-12-27T10:30:50.000Z</time>
      </trkpt>
      <trkpt lat="31.132426" lon="-7.924117">
        <ele>1922.2197574625</ele>
        <time>2019-12-27T10:30:52.000Z</time>
      </trkpt>
      <trkpt lat="31.13241" lon="-7.924135">
        <ele>1922.59997558594</ele>
        <time>2019-12-27T10:30:54.000Z</time>
      </trkpt>
      <trkpt lat="31.13239" lon="-7.924155">
        <ele>1923.19995117188</ele>
        <time>2019-12-27T10:30:58.000Z</time>
      </trkpt>
      <trkpt lat="31.132374" lon="-7.92418">
        <ele>1923.41981862031</ele>
        <time>2019-12-27T10:31:01.000Z</time>
      </trkpt>
      <trkpt lat="31.132352" lon="-7.924197">
        <ele>1924</ele>
        <time>2019-12-27T10:31:04.000Z</time>
      </trkpt>
      <trkpt lat="31.132336" lon="-7.924218">
        <ele>1924.40002441406</ele>
        <time>2019-12-27T10:31:07.000Z</time>
      </trkpt>
      <trkpt lat="31.132336" lon="-7.92424">
        <ele>1924.61978187656</ele>
        <time>2019-12-27T10:31:09.000Z</time>
      </trkpt>
      <trkpt lat="31.132326" lon="-7.924258">
        <ele>1925</ele>
        <time>2019-12-27T10:31:11.000Z</time>
      </trkpt>
      <trkpt lat="31.13231" lon="-7.924287">
        <ele>1925.40002441406</ele>
        <time>2019-12-27T10:31:14.000Z</time>
      </trkpt>
      <trkpt lat="31.132294" lon="-7.924303">
        <ele>1925.61978187656</ele>
        <time>2019-12-27T10:31:16.000Z</time>
      </trkpt>
      <trkpt lat="31.132282" lon="-7.92432">
        <ele>1926</ele>
        <time>2019-12-27T10:31:18.000Z</time>
      </trkpt>
      <trkpt lat="31.132262" lon="-7.924323">
        <ele>1926.40002441406</ele>
        <time>2019-12-27T10:31:20.000Z</time>
      </trkpt>
      <trkpt lat="31.132243" lon="-7.924308">
        <ele>1926.61978187656</ele>
        <time>2019-12-27T10:31:22.000Z</time>
      </trkpt>
      <trkpt lat="31.132234" lon="-7.924277">
        <ele>1927.2197574625</ele>
        <time>2019-12-27T10:31:25.000Z</time>
      </trkpt>
      <trkpt lat="31.132234" lon="-7.924246">
        <ele>1927.81984303438</ele>
        <time>2019-12-27T10:31:28.000Z</time>
      </trkpt>
      <trkpt lat="31.13223" lon="-7.924222">
        <ele>1928.2197574625</ele>
        <time>2019-12-27T10:31:30.000Z</time>
      </trkpt>
      <trkpt lat="31.132246" lon="-7.924208">
        <ele>1928.61978187656</ele>
        <time>2019-12-27T10:31:32.000Z</time>
      </trkpt>
      <trkpt lat="31.132262" lon="-7.924183">
        <ele>1929.01979420625</ele>
        <time>2019-12-27T10:31:34.000Z</time>
      </trkpt>
      <trkpt lat="31.132272" lon="-7.924157">
        <ele>1929.41981862031</ele>
        <time>2019-12-27T10:31:37.000Z</time>
      </trkpt>
      <trkpt lat="31.132278" lon="-7.924135">
        <ele>1929.81984303438</ele>
        <time>2019-12-27T10:31:39.000Z</time>
      </trkpt>
      <trkpt lat="31.132285" lon="-7.924114">
        <ele>1930.2197574625</ele>
        <time>2019-12-27T10:31:42.000Z</time>
      </trkpt>
      <trkpt lat="31.132298" lon="-7.924092">
        <ele>1930.41981862031</ele>
        <time>2019-12-27T10:31:44.000Z</time>
      </trkpt>
      <trkpt lat="31.13231" lon="-7.924075">
        <ele>1930.80004882813</ele>
        <time>2019-12-27T10:31:46.000Z</time>
      </trkpt>
      <trkpt lat="31.132317" lon="-7.924052">
        <ele>1931</ele>
        <time>2019-12-27T10:31:48.000Z</time>
      </trkpt>
      <trkpt lat="31.13233" lon="-7.924033">
        <ele>1931.2197574625</ele>
        <time>2019-12-27T10:31:50.000Z</time>
      </trkpt>
      <trkpt lat="31.132339" lon="-7.924012">
        <ele>1931.41981862031</ele>
        <time>2019-12-27T10:31:52.000Z</time>
      </trkpt>
      <trkpt lat="31.132355" lon="-7.923983">
        <ele>1931.81984303438</ele>
        <time>2019-12-27T10:31:55.000Z</time>
      </trkpt>
      <trkpt lat="31.132374" lon="-7.923963">
        <ele>1932.2197574625</ele>
        <time>2019-12-27T10:31:58.000Z</time>
      </trkpt>
      <trkpt lat="31.132384" lon="-7.923942">
        <ele>1932.41981862031</ele>
        <time>2019-12-27T10:32:00.000Z</time>
      </trkpt>
      <trkpt lat="31.1324" lon="-7.923928">
        <ele>1932.80004882813</ele>
        <time>2019-12-27T10:32:02.000Z</time>
      </trkpt>
      <trkpt lat="31.13241" lon="-7.923907">
        <ele>1933.01979420625</ele>
        <time>2019-12-27T10:32:05.000Z</time>
      </trkpt>
      <trkpt lat="31.132432" lon="-7.923885">
        <ele>1933.59997558594</ele>
        <time>2019-12-27T10:32:08.000Z</time>
      </trkpt>
      <trkpt lat="31.132438" lon="-7.92386">
        <ele>1933.81984303438</ele>
        <time>2019-12-27T10:32:10.000Z</time>
      </trkpt>
      <trkpt lat="31.132442" lon="-7.923831">
        <ele>1934.2197574625</ele>
        <time>2019-12-27T10:32:13.000Z</time>
      </trkpt>
      <trkpt lat="31.132451" lon="-7.923808">
        <ele>1934.61978187656</ele>
        <time>2019-12-27T10:32:16.000Z</time>
      </trkpt>
      <trkpt lat="31.132467" lon="-7.923783">
        <ele>1935</ele>
        <time>2019-12-27T10:32:18.000Z</time>
      </trkpt>
      <trkpt lat="31.132477" lon="-7.923765">
        <ele>1935.2197574625</ele>
        <time>2019-12-27T10:32:20.000Z</time>
      </trkpt>
      <trkpt lat="31.13249" lon="-7.923749">
        <ele>1935.41981862031</ele>
        <time>2019-12-27T10:32:22.000Z</time>
      </trkpt>
      <trkpt lat="31.132496" lon="-7.923729">
        <ele>1935.80004882813</ele>
        <time>2019-12-27T10:32:24.000Z</time>
      </trkpt>
      <trkpt lat="31.132506" lon="-7.92371">
        <ele>1936</ele>
        <time>2019-12-27T10:32:26.000Z</time>
      </trkpt>
      <trkpt lat="31.132509" lon="-7.923686">
        <ele>1936.2197574625</ele>
        <time>2019-12-27T10:32:29.000Z</time>
      </trkpt>
      <trkpt lat="31.132518" lon="-7.923663">
        <ele>1936.59997558594</ele>
        <time>2019-12-27T10:32:31.000Z</time>
      </trkpt>
      <trkpt lat="31.132531" lon="-7.923648">
        <ele>1936.80004882813</ele>
        <time>2019-12-27T10:32:33.000Z</time>
      </trkpt>
      <trkpt lat="31.132538" lon="-7.923625">
        <ele>1937</ele>
        <time>2019-12-27T10:32:35.000Z</time>
      </trkpt>
      <trkpt lat="31.13255" lon="-7.923602">
        <ele>1937.2197574625</ele>
        <time>2019-12-27T10:32:38.000Z</time>
      </trkpt>
      <trkpt lat="31.13256" lon="-7.923575">
        <ele>1937.59997558594</ele>
        <time>2019-12-27T10:32:40.000Z</time>
      </trkpt>
      <trkpt lat="31.132573" lon="-7.923558">
        <ele>1937.80004882813</ele>
        <time>2019-12-27T10:32:42.000Z</time>
      </trkpt>
      <trkpt lat="31.132582" lon="-7.923535">
        <ele>1938</ele>
        <time>2019-12-27T10:32:44.000Z</time>
      </trkpt>
      <trkpt lat="31.132589" lon="-7.923514">
        <ele>1938.19995117188</ele>
        <time>2019-12-27T10:32:46.000Z</time>
      </trkpt>
      <trkpt lat="31.132598" lon="-7.923485">
        <ele>1938.59997558594</ele>
        <time>2019-12-27T10:32:49.000Z</time>
      </trkpt>
      <trkpt lat="31.132605" lon="-7.923455">
        <ele>1938.81984303438</ele>
        <time>2019-12-27T10:32:52.000Z</time>
      </trkpt>
      <trkpt lat="31.132614" lon="-7.923429">
        <ele>1939.01979420625</ele>
        <time>2019-12-27T10:32:54.000Z</time>
      </trkpt>
      <trkpt lat="31.132621" lon="-7.9234">
        <ele>1939.41981862031</ele>
        <time>2019-12-27T10:32:57.000Z</time>
      </trkpt>
      <trkpt lat="31.13263" lon="-7.923374">
        <ele>1939.80004882813</ele>
        <time>2019-12-27T10:33:00.000Z</time>
      </trkpt>
      <trkpt lat="31.132634" lon="-7.923349">
        <ele>1940</ele>
        <time>2019-12-27T10:33:02.000Z</time>
      </trkpt>
      <trkpt lat="31.13264" lon="-7.92332">
        <ele>1940.2197574625</ele>
        <time>2019-12-27T10:33:05.000Z</time>
      </trkpt>
      <trkpt lat="31.13264" lon="-7.923297">
        <ele>1940.41981862031</ele>
        <time>2019-12-27T10:33:07.000Z</time>
      </trkpt>
      <trkpt lat="31.13265" lon="-7.923265">
        <ele>1940.61978187656</ele>
        <time>2019-12-27T10:33:10.000Z</time>
      </trkpt>
      <trkpt lat="31.13265" lon="-7.923238">
        <ele>1941.19995117188</ele>
        <time>2019-12-27T10:33:13.000Z</time>
      </trkpt>
      <trkpt lat="31.132653" lon="-7.92321">
        <ele>1941.41981862031</ele>
        <time>2019-12-27T10:33:15.000Z</time>
      </trkpt>
      <trkpt lat="31.132659" lon="-7.923186">
        <ele>1941.80004882813</ele>
        <time>2019-12-27T10:33:18.000Z</time>
      </trkpt>
      <trkpt lat="31.132662" lon="-7.923163">
        <ele>1942.2197574625</ele>
        <time>2019-12-27T10:33:21.000Z</time>
      </trkpt>
      <trkpt lat="31.132669" lon="-7.92314">
        <ele>1942.61978187656</ele>
        <time>2019-12-27T10:33:24.000Z</time>
      </trkpt>
      <trkpt lat="31.132682" lon="-7.923118">
        <ele>1943.01979420625</ele>
        <time>2019-12-27T10:33:26.000Z</time>
      </trkpt>
      <trkpt lat="31.132685" lon="-7.923086">
        <ele>1943.41981862031</ele>
        <time>2019-12-27T10:33:29.000Z</time>
      </trkpt>
      <trkpt lat="31.132691" lon="-7.923062">
        <ele>1943.81984303438</ele>
        <time>2019-12-27T10:33:31.000Z</time>
      </trkpt>
      <trkpt lat="31.132694" lon="-7.923035">
        <ele>1944.01979420625</ele>
        <time>2019-12-27T10:33:33.000Z</time>
      </trkpt>
      <trkpt lat="31.132701" lon="-7.923015">
        <ele>1944.41981862031</ele>
        <time>2019-12-27T10:33:35.000Z</time>
      </trkpt>
      <trkpt lat="31.132704" lon="-7.922983">
        <ele>1944.81984303438</ele>
        <time>2019-12-27T10:33:38.000Z</time>
      </trkpt>
      <trkpt lat="31.132707" lon="-7.92296">
        <ele>1945.2197574625</ele>
        <time>2019-12-27T10:33:41.000Z</time>
      </trkpt>
      <trkpt lat="31.13271" lon="-7.922935">
        <ele>1945.80004882813</ele>
        <time>2019-12-27T10:33:44.000Z</time>
      </trkpt>
      <trkpt lat="31.132717" lon="-7.922915">
        <ele>1946.01979420625</ele>
        <time>2019-12-27T10:33:46.000Z</time>
      </trkpt>
      <trkpt lat="31.132723" lon="-7.92289">
        <ele>1946.41981862031</ele>
        <time>2019-12-27T10:33:49.000Z</time>
      </trkpt>
      <trkpt lat="31.132733" lon="-7.922863">
        <ele>1946.81984303438</ele>
        <time>2019-12-27T10:33:51.000Z</time>
      </trkpt>
      <trkpt lat="31.132746" lon="-7.922846">
        <ele>1947.03960049688</ele>
        <time>2019-12-27T10:33:53.000Z</time>
      </trkpt>
      <trkpt lat="31.132749" lon="-7.922822">
        <ele>1947.41981862031</ele>
        <time>2019-12-27T10:33:55.000Z</time>
      </trkpt>
      <trkpt lat="31.132755" lon="-7.922794">
        <ele>1948</ele>
        <time>2019-12-27T10:33:58.000Z</time>
      </trkpt>
      <trkpt lat="31.132758" lon="-7.922766">
        <ele>1948.2197574625</ele>
        <time>2019-12-27T10:34:00.000Z</time>
      </trkpt>
      <trkpt lat="31.132762" lon="-7.922742">
        <ele>1948.61978187656</ele>
        <time>2019-12-27T10:34:03.000Z</time>
      </trkpt>
      <trkpt lat="31.132765" lon="-7.922718">
        <ele>1949.01979420625</ele>
        <time>2019-12-27T10:34:05.000Z</time>
      </trkpt>
      <trkpt lat="31.132771" lon="-7.922689">
        <ele>1949.41981862031</ele>
        <time>2019-12-27T10:34:08.000Z</time>
      </trkpt>
      <trkpt lat="31.132778" lon="-7.922666">
        <ele>1949.81984303438</ele>
        <time>2019-12-27T10:34:10.000Z</time>
      </trkpt>
      <trkpt lat="31.132784" lon="-7.922646">
        <ele>1950.01979420625</ele>
        <time>2019-12-27T10:34:12.000Z</time>
      </trkpt>
      <trkpt lat="31.13279" lon="-7.922622">
        <ele>1950.41981862031</ele>
        <time>2019-12-27T10:34:15.000Z</time>
      </trkpt>
      <trkpt lat="31.1328" lon="-7.922598">
        <ele>1950.81984303438</ele>
        <time>2019-12-27T10:34:18.000Z</time>
      </trkpt>
      <trkpt lat="31.132794" lon="-7.922568">
        <ele>1951.01979420625</ele>
        <time>2019-12-27T10:34:20.000Z</time>
      </trkpt>
      <trkpt lat="31.1328" lon="-7.922542">
        <ele>1951.40002441406</ele>
        <time>2019-12-27T10:34:22.000Z</time>
      </trkpt>
      <trkpt lat="31.132797" lon="-7.922503">
        <ele>1951.61978187656</ele>
        <time>2019-12-27T10:34:25.000Z</time>
      </trkpt>
      <trkpt lat="31.132806" lon="-7.92247">
        <ele>1952</ele>
        <time>2019-12-27T10:34:27.000Z</time>
      </trkpt>
      <trkpt lat="31.132813" lon="-7.922448">
        <ele>1952.19995117188</ele>
        <time>2019-12-27T10:34:29.000Z</time>
      </trkpt>
      <trkpt lat="31.132813" lon="-7.922423">
        <ele>1952.40002441406</ele>
        <time>2019-12-27T10:34:31.000Z</time>
      </trkpt>
      <trkpt lat="31.132822" lon="-7.922402">
        <ele>1952.80004882813</ele>
        <time>2019-12-27T10:34:34.000Z</time>
      </trkpt>
      <trkpt lat="31.132826" lon="-7.92238">
        <ele>1953</ele>
        <time>2019-12-27T10:34:36.000Z</time>
      </trkpt>
      <trkpt lat="31.132832" lon="-7.922352">
        <ele>1953.40002441406</ele>
        <time>2019-12-27T10:34:39.000Z</time>
      </trkpt>
      <trkpt lat="31.132838" lon="-7.922323">
        <ele>1953.61978187656</ele>
        <time>2019-12-27T10:34:41.000Z</time>
      </trkpt>
      <trkpt lat="31.132832" lon="-7.922293">
        <ele>1953.81984303438</ele>
        <time>2019-12-27T10:34:43.000Z</time>
      </trkpt>
      <trkpt lat="31.132822" lon="-7.92226">
        <ele>1954.40002441406</ele>
        <time>2019-12-27T10:34:46.000Z</time>
      </trkpt>
      <trkpt lat="31.132819" lon="-7.92223">
        <ele>1954.61978187656</ele>
        <time>2019-12-27T10:34:48.000Z</time>
      </trkpt>
      <trkpt lat="31.13281" lon="-7.922208">
        <ele>1955</ele>
        <time>2019-12-27T10:34:50.000Z</time>
      </trkpt>
      <trkpt lat="31.132797" lon="-7.922182">
        <ele>1955.2197574625</ele>
        <time>2019-12-27T10:34:52.000Z</time>
      </trkpt>
      <trkpt lat="31.132784" lon="-7.922157">
        <ele>1955.61978187656</ele>
        <time>2019-12-27T10:34:54.000Z</time>
      </trkpt>
      <trkpt lat="31.132774" lon="-7.922137">
        <ele>1956</ele>
        <time>2019-12-27T10:34:56.000Z</time>
      </trkpt>
      <trkpt lat="31.132758" lon="-7.922115">
        <ele>1956.2197574625</ele>
        <time>2019-12-27T10:34:58.000Z</time>
      </trkpt>
      <trkpt lat="31.132749" lon="-7.922095">
        <ele>1956.61978187656</ele>
        <time>2019-12-27T10:35:00.000Z</time>
      </trkpt>
      <trkpt lat="31.13273" lon="-7.922085">
        <ele>1957.2197574625</ele>
        <time>2019-12-27T10:35:03.000Z</time>
      </trkpt>
      <trkpt lat="31.132707" lon="-7.922077">
        <ele>1957.61978187656</ele>
        <time>2019-12-27T10:35:05.000Z</time>
      </trkpt>
      <trkpt lat="31.132682" lon="-7.922083">
        <ele>1958.41981862031</ele>
        <time>2019-12-27T10:35:09.000Z</time>
      </trkpt>
      <trkpt lat="31.132659" lon="-7.922065">
        <ele>1959.01979420625</ele>
        <time>2019-12-27T10:35:13.000Z</time>
      </trkpt>
      <trkpt lat="31.132611" lon="-7.92207">
        <ele>1959.41981862031</ele>
        <time>2019-12-27T10:35:16.000Z</time>
      </trkpt>
      <trkpt lat="31.132592" lon="-7.922066">
        <ele>1959.81984303438</ele>
        <time>2019-12-27T10:35:18.000Z</time>
      </trkpt>
      <trkpt lat="31.13257" lon="-7.922069">
        <ele>1960.2197574625</ele>
        <time>2019-12-27T10:35:21.000Z</time>
      </trkpt>
      <trkpt lat="31.132541" lon="-7.922078">
        <ele>1960.61978187656</ele>
        <time>2019-12-27T10:35:23.000Z</time>
      </trkpt>
      <trkpt lat="31.132522" lon="-7.92208">
        <ele>1960.80004882813</ele>
        <time>2019-12-27T10:35:24.000Z</time>
      </trkpt>
      <trkpt lat="31.132496" lon="-7.922085">
        <ele>1961</ele>
        <time>2019-12-27T10:35:26.000Z</time>
      </trkpt>
      <trkpt lat="31.13247" lon="-7.922091">
        <ele>1961.40002441406</ele>
        <time>2019-12-27T10:35:29.000Z</time>
      </trkpt>
      <trkpt lat="31.132445" lon="-7.92211">
        <ele>1961.59997558594</ele>
        <time>2019-12-27T10:35:31.000Z</time>
      </trkpt>
      <trkpt lat="31.132416" lon="-7.92212">
        <ele>1961.81984303438</ele>
        <time>2019-12-27T10:35:33.000Z</time>
      </trkpt>
      <trkpt lat="31.132387" lon="-7.922123">
        <ele>1962.19995117188</ele>
        <time>2019-12-27T10:35:36.000Z</time>
      </trkpt>
      <trkpt lat="31.132374" lon="-7.92214">
        <ele>1962.40002441406</ele>
        <time>2019-12-27T10:35:39.000Z</time>
      </trkpt>
      <trkpt lat="31.132355" lon="-7.922151">
        <ele>1962.61978187656</ele>
        <time>2019-12-27T10:35:41.000Z</time>
      </trkpt>
      <trkpt lat="31.132323" lon="-7.922168">
        <ele>1962.81984303438</ele>
        <time>2019-12-27T10:35:44.000Z</time>
      </trkpt>
      <trkpt lat="31.132307" lon="-7.922178">
        <ele>1963</ele>
        <time>2019-12-27T10:35:46.000Z</time>
      </trkpt>
      <trkpt lat="31.132285" lon="-7.922187">
        <ele>1963.2197574625</ele>
        <time>2019-12-27T10:35:48.000Z</time>
      </trkpt>
      <trkpt lat="31.132256" lon="-7.922192">
        <ele>1963.61978187656</ele>
        <time>2019-12-27T10:35:51.000Z</time>
      </trkpt>
      <trkpt lat="31.132237" lon="-7.922208">
        <ele>1963.81984303438</ele>
        <time>2019-12-27T10:35:53.000Z</time>
      </trkpt>
      <trkpt lat="31.132205" lon="-7.922214">
        <ele>1964.01979420625</ele>
        <time>2019-12-27T10:35:55.000Z</time>
      </trkpt>
      <trkpt lat="31.132186" lon="-7.922214">
        <ele>1964.19995117188</ele>
        <time>2019-12-27T10:35:56.000Z</time>
      </trkpt>
      <trkpt lat="31.132163" lon="-7.922214">
        <ele>1964.2197574625</ele>
        <time>2019-12-27T10:35:58.000Z</time>
      </trkpt>
      <trkpt lat="31.132144" lon="-7.922207">
        <ele>1964.41981862031</ele>
        <time>2019-12-27T10:36:00.000Z</time>
      </trkpt>
      <trkpt lat="31.132125" lon="-7.922208">
        <ele>1964.59997558594</ele>
        <time>2019-12-27T10:36:02.000Z</time>
      </trkpt>
      <trkpt lat="31.132096" lon="-7.92221">
        <ele>1964.80004882813</ele>
        <time>2019-12-27T10:36:04.000Z</time>
      </trkpt>
      <trkpt lat="31.13207" lon="-7.922207">
        <ele>1964.80004882813</ele>
        <time>2019-12-27T10:36:06.000Z</time>
      </trkpt>
      <trkpt lat="31.132051" lon="-7.922198">
        <ele>1965</ele>
        <time>2019-12-27T10:36:08.000Z</time>
      </trkpt>
      <trkpt lat="31.132019" lon="-7.922198">
        <ele>1965</ele>
        <time>2019-12-27T10:36:11.000Z</time>
      </trkpt>
      <trkpt lat="31.131987" lon="-7.922188">
        <ele>1965</ele>
        <time>2019-12-27T10:36:13.000Z</time>
      </trkpt>
      <trkpt lat="31.131962" lon="-7.922185">
        <ele>1965</ele>
        <time>2019-12-27T10:36:15.000Z</time>
      </trkpt>
      <trkpt lat="31.131942" lon="-7.92218">
        <ele>1965</ele>
        <time>2019-12-27T10:36:18.000Z</time>
      </trkpt>
      <trkpt lat="31.131917" lon="-7.922171">
        <ele>1965</ele>
        <time>2019-12-27T10:36:20.000Z</time>
      </trkpt>
      <trkpt lat="31.131894" lon="-7.92217">
        <ele>1964.98020579375</ele>
        <time>2019-12-27T10:36:22.000Z</time>
      </trkpt>
      <trkpt lat="31.131872" lon="-7.922162">
        <ele>1964.80004882813</ele>
        <time>2019-12-27T10:36:24.000Z</time>
      </trkpt>
      <trkpt lat="31.131856" lon="-7.922151">
        <ele>1964.80004882813</ele>
        <time>2019-12-27T10:36:26.000Z</time>
      </trkpt>
      <trkpt lat="31.131834" lon="-7.922145">
        <ele>1964.59997558594</ele>
        <time>2019-12-27T10:36:28.000Z</time>
      </trkpt>
      <trkpt lat="31.131808" lon="-7.922146">
        <ele>1964.59997558594</ele>
        <time>2019-12-27T10:36:30.000Z</time>
      </trkpt>
      <trkpt lat="31.131779" lon="-7.922143">
        <ele>1964.40002441406</ele>
        <time>2019-12-27T10:36:32.000Z</time>
      </trkpt>
      <trkpt lat="31.13176" lon="-7.92213">
        <ele>1964.19995117188</ele>
        <time>2019-12-27T10:36:35.000Z</time>
      </trkpt>
      <trkpt lat="31.131734" lon="-7.92212">
        <ele>1964.18015696563</ele>
        <time>2019-12-27T10:36:37.000Z</time>
      </trkpt>
      <trkpt lat="31.131709" lon="-7.922105">
        <ele>1964</ele>
        <time>2019-12-27T10:36:39.000Z</time>
      </trkpt>
      <trkpt lat="31.13169" lon="-7.922094">
        <ele>1964</ele>
        <time>2019-12-27T10:36:41.000Z</time>
      </trkpt>
      <trkpt lat="31.131667" lon="-7.922078">
        <ele>1963.80004882813</ele>
        <time>2019-12-27T10:36:43.000Z</time>
      </trkpt>
      <trkpt lat="31.131638" lon="-7.922062">
        <ele>1963.80004882813</ele>
        <time>2019-12-27T10:36:45.000Z</time>
      </trkpt>
      <trkpt lat="31.131619" lon="-7.922054">
        <ele>1963.59997558594</ele>
        <time>2019-12-27T10:36:48.000Z</time>
      </trkpt>
      <trkpt lat="31.131597" lon="-7.922049">
        <ele>1963.59997558594</ele>
        <time>2019-12-27T10:36:50.000Z</time>
      </trkpt>
      <trkpt lat="31.131568" lon="-7.92204">
        <ele>1963.40002441406</ele>
        <time>2019-12-27T10:36:52.000Z</time>
      </trkpt>
      <trkpt lat="31.131546" lon="-7.922029">
        <ele>1963.40002441406</ele>
        <time>2019-12-27T10:36:54.000Z</time>
      </trkpt>
      <trkpt lat="31.131523" lon="-7.922012">
        <ele>1963.40002441406</ele>
        <time>2019-12-27T10:36:57.000Z</time>
      </trkpt>
      <trkpt lat="31.131501" lon="-7.922002">
        <ele>1963.19995117188</ele>
        <time>2019-12-27T10:36:59.000Z</time>
      </trkpt>
      <trkpt lat="31.131482" lon="-7.921995">
        <ele>1963.19995117188</ele>
        <time>2019-12-27T10:37:01.000Z</time>
      </trkpt>
      <trkpt lat="31.131466" lon="-7.921982">
        <ele>1963.19995117188</ele>
        <time>2019-12-27T10:37:03.000Z</time>
      </trkpt>
      <trkpt lat="31.131446" lon="-7.921966">
        <ele>1963</ele>
        <time>2019-12-27T10:37:05.000Z</time>
      </trkpt>
      <trkpt lat="31.131418" lon="-7.921949">
        <ele>1963</ele>
        <time>2019-12-27T10:37:07.000Z</time>
      </trkpt>
      <trkpt lat="31.131392" lon="-7.921918">
        <ele>1962.80004882813</ele>
        <time>2019-12-27T10:37:09.000Z</time>
      </trkpt>
      <trkpt lat="31.131379" lon="-7.921878">
        <ele>1962.80004882813</ele>
        <time>2019-12-27T10:37:11.000Z</time>
      </trkpt>
      <trkpt lat="31.13136" lon="-7.921873">
        <ele>1962.59997558594</ele>
        <time>2019-12-27T10:37:15.000Z</time>
      </trkpt>
      <trkpt lat="31.131341" lon="-7.921873">
        <ele>1962.40002441406</ele>
        <time>2019-12-27T10:37:18.000Z</time>
      </trkpt>
      <trkpt lat="31.131322" lon="-7.921873">
        <ele>1962.19995117188</ele>
        <time>2019-12-27T10:37:22.000Z</time>
      </trkpt>
      <trkpt lat="31.131302" lon="-7.921865">
        <ele>1962.18015696563</ele>
        <time>2019-12-27T10:37:24.000Z</time>
      </trkpt>
      <trkpt lat="31.131283" lon="-7.921858">
        <ele>1962</ele>
        <time>2019-12-27T10:37:27.000Z</time>
      </trkpt>
      <trkpt lat="31.131267" lon="-7.921845">
        <ele>1961.98020579375</ele>
        <time>2019-12-27T10:37:29.000Z</time>
      </trkpt>
      <trkpt lat="31.131248" lon="-7.921847">
        <ele>1961.7802425375</ele>
        <time>2019-12-27T10:37:36.000Z</time>
      </trkpt>
      <trkpt lat="31.131226" lon="-7.921843">
        <ele>1961.59997558594</ele>
        <time>2019-12-27T10:37:41.000Z</time>
      </trkpt>
      <trkpt lat="31.131206" lon="-7.921827">
        <ele>1961.59997558594</ele>
        <time>2019-12-27T10:37:43.000Z</time>
      </trkpt>
      <trkpt lat="31.131187" lon="-7.92181">
        <ele>1961.59997558594</ele>
        <time>2019-12-27T10:37:45.000Z</time>
      </trkpt>
      <trkpt lat="31.131168" lon="-7.921783">
        <ele>1961.59997558594</ele>
        <time>2019-12-27T10:37:47.000Z</time>
      </trkpt>
      <trkpt lat="31.131149" lon="-7.921763">
        <ele>1961.59997558594</ele>
        <time>2019-12-27T10:37:49.000Z</time>
      </trkpt>
      <trkpt lat="31.131133" lon="-7.92174">
        <ele>1961.59997558594</ele>
        <time>2019-12-27T10:37:51.000Z</time>
      </trkpt>
      <trkpt lat="31.13112" lon="-7.921725">
        <ele>1961.59997558594</ele>
        <time>2019-12-27T10:37:53.000Z</time>
      </trkpt>
      <trkpt lat="31.131098" lon="-7.921714">
        <ele>1961.59997558594</ele>
        <time>2019-12-27T10:37:55.000Z</time>
      </trkpt>
      <trkpt lat="31.131078" lon="-7.921702">
        <ele>1961.59997558594</ele>
        <time>2019-12-27T10:37:57.000Z</time>
      </trkpt>
      <trkpt lat="31.131059" lon="-7.92168">
        <ele>1961.59997558594</ele>
        <time>2019-12-27T10:38:00.000Z</time>
      </trkpt>
      <trkpt lat="31.131043" lon="-7.921666">
        <ele>1961.58018137969</ele>
        <time>2019-12-27T10:38:02.000Z</time>
      </trkpt>
      <trkpt lat="31.131021" lon="-7.921646">
        <ele>1961.40002441406</ele>
        <time>2019-12-27T10:38:04.000Z</time>
      </trkpt>
      <trkpt lat="31.130995" lon="-7.921614">
        <ele>1961.40002441406</ele>
        <time>2019-12-27T10:38:08.000Z</time>
      </trkpt>
      <trkpt lat="31.13097" lon="-7.921586">
        <ele>1961.40002441406</ele>
        <time>2019-12-27T10:38:10.000Z</time>
      </trkpt>
      <trkpt lat="31.130954" lon="-7.92157">
        <ele>1961.38021812344</ele>
        <time>2019-12-27T10:38:11.000Z</time>
      </trkpt>
      <trkpt lat="31.130941" lon="-7.921552">
        <ele>1961.19995117188</ele>
        <time>2019-12-27T10:38:13.000Z</time>
      </trkpt>
      <trkpt lat="31.130922" lon="-7.921532">
        <ele>1961.19995117188</ele>
        <time>2019-12-27T10:38:16.000Z</time>
      </trkpt>
      <trkpt lat="31.130912" lon="-7.921512">
        <ele>1961</ele>
        <time>2019-12-27T10:38:18.000Z</time>
      </trkpt>
      <trkpt lat="31.130886" lon="-7.921502">
        <ele>1961</ele>
        <time>2019-12-27T10:38:21.000Z</time>
      </trkpt>
      <trkpt lat="31.13087" lon="-7.92149">
        <ele>1960.98020579375</ele>
        <time>2019-12-27T10:38:23.000Z</time>
      </trkpt>
      <trkpt lat="31.130851" lon="-7.921478">
        <ele>1960.80004882813</ele>
        <time>2019-12-27T10:38:26.000Z</time>
      </trkpt>
      <trkpt lat="31.130826" lon="-7.921474">
        <ele>1960.7802425375</ele>
        <time>2019-12-27T10:38:29.000Z</time>
      </trkpt>
      <trkpt lat="31.13081" lon="-7.921455">
        <ele>1960.59997558594</ele>
        <time>2019-12-27T10:38:31.000Z</time>
      </trkpt>
      <trkpt lat="31.130784" lon="-7.921442">
        <ele>1960.59997558594</ele>
        <time>2019-12-27T10:38:34.000Z</time>
      </trkpt>
      <trkpt lat="31.130765" lon="-7.921435">
        <ele>1960.59997558594</ele>
        <time>2019-12-27T10:38:36.000Z</time>
      </trkpt>
      <trkpt lat="31.130739" lon="-7.921422">
        <ele>1960.59997558594</ele>
        <time>2019-12-27T10:38:39.000Z</time>
      </trkpt>
      <trkpt lat="31.130714" lon="-7.921415">
        <ele>1960.59997558594</ele>
        <time>2019-12-27T10:38:41.000Z</time>
      </trkpt>
      <trkpt lat="31.130698" lon="-7.9214">
        <ele>1960.59997558594</ele>
        <time>2019-12-27T10:38:43.000Z</time>
      </trkpt>
      <trkpt lat="31.130675" lon="-7.921388">
        <ele>1960.40002441406</ele>
        <time>2019-12-27T10:38:46.000Z</time>
      </trkpt>
      <trkpt lat="31.130653" lon="-7.921382">
        <ele>1960.40002441406</ele>
        <time>2019-12-27T10:38:48.000Z</time>
      </trkpt>
      <trkpt lat="31.13063" lon="-7.921366">
        <ele>1960.40002441406</ele>
        <time>2019-12-27T10:38:50.000Z</time>
      </trkpt>
      <trkpt lat="31.130614" lon="-7.921357">
        <ele>1960.40002441406</ele>
        <time>2019-12-27T10:38:52.000Z</time>
      </trkpt>
      <trkpt lat="31.130592" lon="-7.921345">
        <ele>1960.40002441406</ele>
        <time>2019-12-27T10:38:54.000Z</time>
      </trkpt>
      <trkpt lat="31.13057" lon="-7.921335">
        <ele>1960.40002441406</ele>
        <time>2019-12-27T10:38:56.000Z</time>
      </trkpt>
      <trkpt lat="31.130547" lon="-7.921315">
        <ele>1960.40002441406</ele>
        <time>2019-12-27T10:38:59.000Z</time>
      </trkpt>
      <trkpt lat="31.130525" lon="-7.921305">
        <ele>1960.40002441406</ele>
        <time>2019-12-27T10:39:01.000Z</time>
      </trkpt>
      <trkpt lat="31.130499" lon="-7.921286">
        <ele>1960.40002441406</ele>
        <time>2019-12-27T10:39:03.000Z</time>
      </trkpt>
      <trkpt lat="31.13048" lon="-7.921272">
        <ele>1960.19995117188</ele>
        <time>2019-12-27T10:39:05.000Z</time>
      </trkpt>
      <trkpt lat="31.130458" lon="-7.921269">
        <ele>1960.19995117188</ele>
        <time>2019-12-27T10:39:07.000Z</time>
      </trkpt>
      <trkpt lat="31.130432" lon="-7.92126">
        <ele>1960.19995117188</ele>
        <time>2019-12-27T10:39:09.000Z</time>
      </trkpt>
      <trkpt lat="31.130406" lon="-7.921249">
        <ele>1960.19995117188</ele>
        <time>2019-12-27T10:39:11.000Z</time>
      </trkpt>
      <trkpt lat="31.130387" lon="-7.921246">
        <ele>1960.18015696563</ele>
        <time>2019-12-27T10:39:13.000Z</time>
      </trkpt>
      <trkpt lat="31.130365" lon="-7.921258">
        <ele>1960</ele>
        <time>2019-12-27T10:39:16.000Z</time>
      </trkpt>
      <trkpt lat="31.130339" lon="-7.92127">
        <ele>1960</ele>
        <time>2019-12-27T10:39:18.000Z</time>
      </trkpt>
      <trkpt lat="31.13031" lon="-7.921277">
        <ele>1960</ele>
        <time>2019-12-27T10:39:20.000Z</time>
      </trkpt>
      <trkpt lat="31.130298" lon="-7.9213">
        <ele>1959.80004882813</ele>
        <time>2019-12-27T10:39:23.000Z</time>
      </trkpt>
      <trkpt lat="31.130278" lon="-7.92132">
        <ele>1959.80004882813</ele>
        <time>2019-12-27T10:39:25.000Z</time>
      </trkpt>
      <trkpt lat="31.13025" lon="-7.92133">
        <ele>1959.80004882813</ele>
        <time>2019-12-27T10:39:27.000Z</time>
      </trkpt>
      <trkpt lat="31.130224" lon="-7.921331">
        <ele>1959.7802425375</ele>
        <time>2019-12-27T10:39:29.000Z</time>
      </trkpt>
      <trkpt lat="31.130195" lon="-7.921334">
        <ele>1959.59997558594</ele>
        <time>2019-12-27T10:39:32.000Z</time>
      </trkpt>
      <trkpt lat="31.130176" lon="-7.92135">
        <ele>1959.59997558594</ele>
        <time>2019-12-27T10:39:34.000Z</time>
      </trkpt>
      <trkpt lat="31.130147" lon="-7.92136">
        <ele>1959.59997558594</ele>
        <time>2019-12-27T10:39:36.000Z</time>
      </trkpt>
      <trkpt lat="31.130122" lon="-7.921365">
        <ele>1959.40002441406</ele>
        <time>2019-12-27T10:39:39.000Z</time>
      </trkpt>
      <trkpt lat="31.130102" lon="-7.921377">
        <ele>1959.38021812344</ele>
        <time>2019-12-27T10:39:41.000Z</time>
      </trkpt>
      <trkpt lat="31.13007" lon="-7.921374">
        <ele>1959.19995117188</ele>
        <time>2019-12-27T10:39:43.000Z</time>
      </trkpt>
      <trkpt lat="31.130051" lon="-7.921374">
        <ele>1959.19995117188</ele>
        <time>2019-12-27T10:39:44.000Z</time>
      </trkpt>
      <trkpt lat="31.130032" lon="-7.921363">
        <ele>1959</ele>
        <time>2019-12-27T10:39:47.000Z</time>
      </trkpt>
      <trkpt lat="31.13" lon="-7.921358">
        <ele>1958.98020579375</ele>
        <time>2019-12-27T10:39:51.000Z</time>
      </trkpt>
      <trkpt lat="31.129978" lon="-7.921355">
        <ele>1958.80004882813</ele>
        <time>2019-12-27T10:39:53.000Z</time>
      </trkpt>
      <trkpt lat="31.129955" lon="-7.921345">
        <ele>1958.59997558594</ele>
        <time>2019-12-27T10:39:56.000Z</time>
      </trkpt>
      <trkpt lat="31.129936" lon="-7.921343">
        <ele>1958.58018137969</ele>
        <time>2019-12-27T10:39:58.000Z</time>
      </trkpt>
      <trkpt lat="31.129923" lon="-7.921362">
        <ele>1958.40002441406</ele>
        <time>2019-12-27T10:40:00.000Z</time>
      </trkpt>
      <trkpt lat="31.129907" lon="-7.92135">
        <ele>1957.40002441406</ele>
        <time>2019-12-27T10:40:15.000Z</time>
      </trkpt>
      <trkpt lat="31.129901" lon="-7.921323">
        <ele>1956.59997558594</ele>
        <time>2019-12-27T10:40:25.000Z</time>
      </trkpt>
      <trkpt lat="31.129914" lon="-7.921343">
        <ele>1956.19995117188</ele>
        <time>2019-12-27T10:40:31.000Z</time>
      </trkpt>
      <trkpt lat="31.12993" lon="-7.921358">
        <ele>1956.19995117188</ele>
        <time>2019-12-27T10:40:33.000Z</time>
      </trkpt>
      <trkpt lat="31.129939" lon="-7.92134">
        <ele>1955.59997558594</ele>
        <time>2019-12-27T10:40:54.000Z</time>
      </trkpt>
      <trkpt lat="31.129923" lon="-7.92133">
        <ele>1955.80004882813</ele>
        <time>2019-12-27T10:41:15.000Z</time>
      </trkpt>
      <trkpt lat="31.12992" lon="-7.92135">
        <ele>1955.59997558594</ele>
        <time>2019-12-27T10:41:37.000Z</time>
      </trkpt>
      <trkpt lat="31.12992" lon="-7.921326">
        <ele>1955.38021812344</ele>
        <time>2019-12-27T10:41:44.000Z</time>
      </trkpt>
      <trkpt lat="31.129933" lon="-7.921345">
        <ele>1954.80004882813</ele>
        <time>2019-12-27T10:41:56.000Z</time>
      </trkpt>
      <trkpt lat="31.129946" lon="-7.921369">
        <ele>1954.58018137969</ele>
        <time>2019-12-27T10:42:00.000Z</time>
      </trkpt>
      <trkpt lat="31.129955" lon="-7.921394">
        <ele>1954.18015696563</ele>
        <time>2019-12-27T10:42:09.000Z</time>
      </trkpt>
      <trkpt lat="31.129914" lon="-7.921346">
        <ele>1953.80004882813</ele>
        <time>2019-12-27T10:42:16.000Z</time>
      </trkpt>
      <trkpt lat="31.129933" lon="-7.921343">
        <ele>1953.40002441406</ele>
        <time>2019-12-27T10:42:26.000Z</time>
      </trkpt>
      <trkpt lat="31.129952" lon="-7.921358">
        <ele>1952.80004882813</ele>
        <time>2019-12-27T10:42:44.000Z</time>
      </trkpt>
      <trkpt lat="31.129968" lon="-7.92139">
        <ele>1952.80004882813</ele>
        <time>2019-12-27T10:42:45.000Z</time>
      </trkpt>
      <trkpt lat="31.129946" lon="-7.921377">
        <ele>1952.59997558594</ele>
        <time>2019-12-27T10:42:52.000Z</time>
      </trkpt>
      <trkpt lat="31.129933" lon="-7.921358">
        <ele>1952.58020112251</ele>
        <time>2019-12-27T10:42:59.000Z</time>
      </trkpt>
      <trkpt lat="31.12992" lon="-7.921343">
        <ele>1952.40002441406</ele>
        <time>2019-12-27T10:43:00.000Z</time>
      </trkpt>
      <trkpt lat="31.129917" lon="-7.92132">
        <ele>1952.40002441406</ele>
        <time>2019-12-27T10:43:03.000Z</time>
      </trkpt>
      <trkpt lat="31.129933" lon="-7.92131">
        <ele>1952.19995117188</ele>
        <time>2019-12-27T10:43:16.000Z</time>
      </trkpt>
      <trkpt lat="31.129952" lon="-7.921312">
        <ele>1952.80004882813</ele>
        <time>2019-12-27T10:43:30.000Z</time>
      </trkpt>
      <trkpt lat="31.129936" lon="-7.92133">
        <ele>1953.19995117188</ele>
        <time>2019-12-27T10:43:35.000Z</time>
      </trkpt>
      <trkpt lat="31.12992" lon="-7.92135">
        <ele>1953.59997558594</ele>
        <time>2019-12-27T10:43:40.000Z</time>
      </trkpt>
      <trkpt lat="31.12992" lon="-7.921329">
        <ele>1954.19995117188</ele>
        <time>2019-12-27T10:43:51.000Z</time>
      </trkpt>
      <trkpt lat="31.12993" lon="-7.92131">
        <ele>1954</ele>
        <time>2019-12-27T10:44:08.000Z</time>
      </trkpt>
      <trkpt lat="31.12991" lon="-7.921303">
        <ele>1952.19995117188</ele>
        <time>2019-12-27T10:44:46.000Z</time>
      </trkpt>
      <trkpt lat="31.129891" lon="-7.921303">
        <ele>1952</ele>
        <time>2019-12-27T10:44:49.000Z</time>
      </trkpt>
      <trkpt lat="31.129869" lon="-7.9213">
        <ele>1952</ele>
        <time>2019-12-27T10:44:51.000Z</time>
      </trkpt>
      <trkpt lat="31.12984" lon="-7.921286">
        <ele>1951.80004882813</ele>
        <time>2019-12-27T10:44:54.000Z</time>
      </trkpt>
      <trkpt lat="31.129808" lon="-7.921277">
        <ele>1951.80004882813</ele>
        <time>2019-12-27T10:44:56.000Z</time>
      </trkpt>
      <trkpt lat="31.129789" lon="-7.921266">
        <ele>1951.80004882813</ele>
        <time>2019-12-27T10:44:58.000Z</time>
      </trkpt>
      <trkpt lat="31.129766" lon="-7.921254">
        <ele>1951.59997558594</ele>
        <time>2019-12-27T10:45:00.000Z</time>
      </trkpt>
      <trkpt lat="31.129744" lon="-7.921232">
        <ele>1951.59997558594</ele>
        <time>2019-12-27T10:45:02.000Z</time>
      </trkpt>
      <trkpt lat="31.129722" lon="-7.921223">
        <ele>1951.59997558594</ele>
        <time>2019-12-27T10:45:04.000Z</time>
      </trkpt>
      <trkpt lat="31.129696" lon="-7.92121">
        <ele>1951.59997558594</ele>
        <time>2019-12-27T10:45:06.000Z</time>
      </trkpt>
      <trkpt lat="31.12967" lon="-7.921202">
        <ele>1951.59997558594</ele>
        <time>2019-12-27T10:45:08.000Z</time>
      </trkpt>
      <trkpt lat="31.129635" lon="-7.921195">
        <ele>1951.40002441406</ele>
        <time>2019-12-27T10:45:11.000Z</time>
      </trkpt>
      <trkpt lat="31.129603" lon="-7.921198">
        <ele>1951.40002441406</ele>
        <time>2019-12-27T10:45:14.000Z</time>
      </trkpt>
      <trkpt lat="31.129581" lon="-7.92119">
        <ele>1951.40002441406</ele>
        <time>2019-12-27T10:45:16.000Z</time>
      </trkpt>
      <trkpt lat="31.129555" lon="-7.921182">
        <ele>1951.40002441406</ele>
        <time>2019-12-27T10:45:18.000Z</time>
      </trkpt>
      <trkpt lat="31.129533" lon="-7.921175">
        <ele>1951.40002441406</ele>
        <time>2019-12-27T10:45:20.000Z</time>
      </trkpt>
      <trkpt lat="31.129504" lon="-7.92117">
        <ele>1951.40002441406</ele>
        <time>2019-12-27T10:45:22.000Z</time>
      </trkpt>
      <trkpt lat="31.129475" lon="-7.92116">
        <ele>1951.38021812344</ele>
        <time>2019-12-27T10:45:24.000Z</time>
      </trkpt>
      <trkpt lat="31.129456" lon="-7.921153">
        <ele>1951.19995117188</ele>
        <time>2019-12-27T10:45:26.000Z</time>
      </trkpt>
      <trkpt lat="31.129434" lon="-7.92114">
        <ele>1951.19995117188</ele>
        <time>2019-12-27T10:45:29.000Z</time>
      </trkpt>
      <trkpt lat="31.129418" lon="-7.921125">
        <ele>1951.18015696563</ele>
        <time>2019-12-27T10:45:31.000Z</time>
      </trkpt>
      <trkpt lat="31.129405" lon="-7.921105">
        <ele>1951</ele>
        <time>2019-12-27T10:45:33.000Z</time>
      </trkpt>
      <trkpt lat="31.129382" lon="-7.921078">
        <ele>1951</ele>
        <time>2019-12-27T10:45:35.000Z</time>
      </trkpt>
      <trkpt lat="31.12937" lon="-7.921055">
        <ele>1950.98020579375</ele>
        <time>2019-12-27T10:45:37.000Z</time>
      </trkpt>
      <trkpt lat="31.12936" lon="-7.921035">
        <ele>1950.80004882813</ele>
        <time>2019-12-27T10:45:39.000Z</time>
      </trkpt>
      <trkpt lat="31.12935" lon="-7.921012">
        <ele>1950.80004882813</ele>
        <time>2019-12-27T10:45:41.000Z</time>
      </trkpt>
      <trkpt lat="31.129338" lon="-7.92099">
        <ele>1950.7802425375</ele>
        <time>2019-12-27T10:45:43.000Z</time>
      </trkpt>
      <trkpt lat="31.129322" lon="-7.920966">
        <ele>1950.59997558594</ele>
        <time>2019-12-27T10:45:45.000Z</time>
      </trkpt>
      <trkpt lat="31.129302" lon="-7.920945">
        <ele>1950.59997558594</ele>
        <time>2019-12-27T10:45:47.000Z</time>
      </trkpt>
      <trkpt lat="31.129293" lon="-7.92092">
        <ele>1950.59997558594</ele>
        <time>2019-12-27T10:45:49.000Z</time>
      </trkpt>
      <trkpt lat="31.129277" lon="-7.920898">
        <ele>1950.40002441406</ele>
        <time>2019-12-27T10:45:51.000Z</time>
      </trkpt>
      <trkpt lat="31.129258" lon="-7.920868">
        <ele>1950.40002441406</ele>
        <time>2019-12-27T10:45:53.000Z</time>
      </trkpt>
      <trkpt lat="31.129235" lon="-7.92085">
        <ele>1950.40002441406</ele>
        <time>2019-12-27T10:45:55.000Z</time>
      </trkpt>
      <trkpt lat="31.129219" lon="-7.920832">
        <ele>1950.40002441406</ele>
        <time>2019-12-27T10:45:57.000Z</time>
      </trkpt>
      <trkpt lat="31.129197" lon="-7.92081">
        <ele>1950.40002441406</ele>
        <time>2019-12-27T10:45:59.000Z</time>
      </trkpt>
      <trkpt lat="31.129168" lon="-7.920783">
        <ele>1950.40002441406</ele>
        <time>2019-12-27T10:46:01.000Z</time>
      </trkpt>
      <trkpt lat="31.129146" lon="-7.920765">
        <ele>1950.40002441406</ele>
        <time>2019-12-27T10:46:03.000Z</time>
      </trkpt>
      <trkpt lat="31.129117" lon="-7.92075">
        <ele>1950.40002441406</ele>
        <time>2019-12-27T10:46:05.000Z</time>
      </trkpt>
      <trkpt lat="31.129098" lon="-7.920737">
        <ele>1950.40002441406</ele>
        <time>2019-12-27T10:46:07.000Z</time>
      </trkpt>
      <trkpt lat="31.129069" lon="-7.920726">
        <ele>1950.40002441406</ele>
        <time>2019-12-27T10:46:10.000Z</time>
      </trkpt>
      <trkpt lat="31.129046" lon="-7.92072">
        <ele>1950.40002441406</ele>
        <time>2019-12-27T10:46:12.000Z</time>
      </trkpt>
      <trkpt lat="31.129024" lon="-7.920715">
        <ele>1950.19995117188</ele>
        <time>2019-12-27T10:46:14.000Z</time>
      </trkpt>
      <trkpt lat="31.128998" lon="-7.92071">
        <ele>1950.19995117188</ele>
        <time>2019-12-27T10:46:16.000Z</time>
      </trkpt>
      <trkpt lat="31.128979" lon="-7.920703">
        <ele>1950.19995117188</ele>
        <time>2019-12-27T10:46:18.000Z</time>
      </trkpt>
      <trkpt lat="31.128957" lon="-7.920695">
        <ele>1950.19995117188</ele>
        <time>2019-12-27T10:46:20.000Z</time>
      </trkpt>
      <trkpt lat="31.128928" lon="-7.920695">
        <ele>1950.18015696563</ele>
        <time>2019-12-27T10:46:22.000Z</time>
      </trkpt>
      <trkpt lat="31.128906" lon="-7.920694">
        <ele>1950</ele>
        <time>2019-12-27T10:46:24.000Z</time>
      </trkpt>
      <trkpt lat="31.128886" lon="-7.920688">
        <ele>1950</ele>
        <time>2019-12-27T10:46:26.000Z</time>
      </trkpt>
      <trkpt lat="31.128864" lon="-7.920682">
        <ele>1949.80004882813</ele>
        <time>2019-12-27T10:46:28.000Z</time>
      </trkpt>
      <trkpt lat="31.128838" lon="-7.920675">
        <ele>1949.7802425375</ele>
        <time>2019-12-27T10:46:30.000Z</time>
      </trkpt>
      <trkpt lat="31.128816" lon="-7.920678">
        <ele>1949.59997558594</ele>
        <time>2019-12-27T10:46:32.000Z</time>
      </trkpt>
      <trkpt lat="31.12879" lon="-7.92068">
        <ele>1949.58018137969</ele>
        <time>2019-12-27T10:46:34.000Z</time>
      </trkpt>
      <trkpt lat="31.128762" lon="-7.920668">
        <ele>1949.40002441406</ele>
        <time>2019-12-27T10:46:36.000Z</time>
      </trkpt>
      <trkpt lat="31.128739" lon="-7.92066">
        <ele>1949.19995117188</ele>
        <time>2019-12-27T10:46:38.000Z</time>
      </trkpt>
      <trkpt lat="31.12871" lon="-7.920651">
        <ele>1949.19995117188</ele>
        <time>2019-12-27T10:46:40.000Z</time>
      </trkpt>
      <trkpt lat="31.128688" lon="-7.920642">
        <ele>1949</ele>
        <time>2019-12-27T10:46:42.000Z</time>
      </trkpt>
      <trkpt lat="31.128666" lon="-7.92063">
        <ele>1948.98020579375</ele>
        <time>2019-12-27T10:46:44.000Z</time>
      </trkpt>
      <trkpt lat="31.128646" lon="-7.92062">
        <ele>1948.7802425375</ele>
        <time>2019-12-27T10:46:46.000Z</time>
      </trkpt>
      <trkpt lat="31.128627" lon="-7.920609">
        <ele>1948.59997558594</ele>
        <time>2019-12-27T10:46:48.000Z</time>
      </trkpt>
      <trkpt lat="31.128605" lon="-7.920592">
        <ele>1948.40002441406</ele>
        <time>2019-12-27T10:46:50.000Z</time>
      </trkpt>
      <trkpt lat="31.128582" lon="-7.920572">
        <ele>1948.19995117188</ele>
        <time>2019-12-27T10:46:53.000Z</time>
      </trkpt>
      <trkpt lat="31.12856" lon="-7.920557">
        <ele>1948.19995117188</ele>
        <time>2019-12-27T10:46:55.000Z</time>
      </trkpt>
      <trkpt lat="31.128538" lon="-7.920542">
        <ele>1948</ele>
        <time>2019-12-27T10:46:57.000Z</time>
      </trkpt>
      <trkpt lat="31.128509" lon="-7.920522">
        <ele>1947.80004882813</ele>
        <time>2019-12-27T10:47:00.000Z</time>
      </trkpt>
      <trkpt lat="31.12849" lon="-7.920508">
        <ele>1947.7802425375</ele>
        <time>2019-12-27T10:47:02.000Z</time>
      </trkpt>
      <trkpt lat="31.128467" lon="-7.920492">
        <ele>1947.59997558594</ele>
        <time>2019-12-27T10:47:04.000Z</time>
      </trkpt>
      <trkpt lat="31.128442" lon="-7.920477">
        <ele>1947.58018137969</ele>
        <time>2019-12-27T10:47:06.000Z</time>
      </trkpt>
      <trkpt lat="31.128419" lon="-7.920468">
        <ele>1947.40002441406</ele>
        <time>2019-12-27T10:47:08.000Z</time>
      </trkpt>
      <trkpt lat="31.1284" lon="-7.920465">
        <ele>1947.19995117188</ele>
        <time>2019-12-27T10:47:10.000Z</time>
      </trkpt>
      <trkpt lat="31.128381" lon="-7.920453">
        <ele>1947.19995117188</ele>
        <time>2019-12-27T10:47:12.000Z</time>
      </trkpt>
      <trkpt lat="31.128349" lon="-7.920432">
        <ele>1947</ele>
        <time>2019-12-27T10:47:15.000Z</time>
      </trkpt>
      <trkpt lat="31.12833" lon="-7.920432">
        <ele>1946.98020579375</ele>
        <time>2019-12-27T10:47:17.000Z</time>
      </trkpt>
      <trkpt lat="31.12831" lon="-7.920437">
        <ele>1946.80004882813</ele>
        <time>2019-12-27T10:47:19.000Z</time>
      </trkpt>
      <trkpt lat="31.128282" lon="-7.920423">
        <ele>1946.59997558594</ele>
        <time>2019-12-27T10:47:22.000Z</time>
      </trkpt>
      <trkpt lat="31.128259" lon="-7.920414">
        <ele>1946.59997558594</ele>
        <time>2019-12-27T10:47:24.000Z</time>
      </trkpt>
      <trkpt lat="31.128234" lon="-7.920408">
        <ele>1946.58018137969</ele>
        <time>2019-12-27T10:47:26.000Z</time>
      </trkpt>
      <trkpt lat="31.128211" lon="-7.920405">
        <ele>1946.40002441406</ele>
        <time>2019-12-27T10:47:28.000Z</time>
      </trkpt>
      <trkpt lat="31.128182" lon="-7.9204">
        <ele>1946.40002441406</ele>
        <time>2019-12-27T10:47:31.000Z</time>
      </trkpt>
      <trkpt lat="31.12816" lon="-7.920398">
        <ele>1946.40002441406</ele>
        <time>2019-12-27T10:47:33.000Z</time>
      </trkpt>
      <trkpt lat="31.128138" lon="-7.920395">
        <ele>1946.40002441406</ele>
        <time>2019-12-27T10:47:35.000Z</time>
      </trkpt>
      <trkpt lat="31.128112" lon="-7.920391">
        <ele>1946.40002441406</ele>
        <time>2019-12-27T10:47:37.000Z</time>
      </trkpt>
      <trkpt lat="31.128086" lon="-7.920385">
        <ele>1946.19995117188</ele>
        <time>2019-12-27T10:47:39.000Z</time>
      </trkpt>
      <trkpt lat="31.128061" lon="-7.920377">
        <ele>1946.19995117188</ele>
        <time>2019-12-27T10:47:41.000Z</time>
      </trkpt>
      <trkpt lat="31.128042" lon="-7.920371">
        <ele>1946.19995117188</ele>
        <time>2019-12-27T10:47:43.000Z</time>
      </trkpt>
      <trkpt lat="31.128016" lon="-7.920366">
        <ele>1946.19995117188</ele>
        <time>2019-12-27T10:47:45.000Z</time>
      </trkpt>
      <trkpt lat="31.127997" lon="-7.920362">
        <ele>1946.19995117188</ele>
        <time>2019-12-27T10:47:47.000Z</time>
      </trkpt>
      <trkpt lat="31.127974" lon="-7.92036">
        <ele>1946.19995117188</ele>
        <time>2019-12-27T10:47:49.000Z</time>
      </trkpt>
      <trkpt lat="31.127942" lon="-7.92035">
        <ele>1946.19995117188</ele>
        <time>2019-12-27T10:47:51.000Z</time>
      </trkpt>
      <trkpt lat="31.127917" lon="-7.920343">
        <ele>1946.19995117188</ele>
        <time>2019-12-27T10:47:53.000Z</time>
      </trkpt>
      <trkpt lat="31.127894" lon="-7.920335">
        <ele>1946.19995117188</ele>
        <time>2019-12-27T10:47:55.000Z</time>
      </trkpt>
      <trkpt lat="31.127869" lon="-7.920328">
        <ele>1946.19995117188</ele>
        <time>2019-12-27T10:47:57.000Z</time>
      </trkpt>
      <trkpt lat="31.127846" lon="-7.920326">
        <ele>1946.19995117188</ele>
        <time>2019-12-27T10:47:59.000Z</time>
      </trkpt>
      <trkpt lat="31.127821" lon="-7.92033">
        <ele>1946.19995117188</ele>
        <time>2019-12-27T10:48:02.000Z</time>
      </trkpt>
      <trkpt lat="31.127802" lon="-7.920326">
        <ele>1946.19995117188</ele>
        <time>2019-12-27T10:48:04.000Z</time>
      </trkpt>
      <trkpt lat="31.127782" lon="-7.920317">
        <ele>1946.19995117188</ele>
        <time>2019-12-27T10:48:06.000Z</time>
      </trkpt>
      <trkpt lat="31.127763" lon="-7.920298">
        <ele>1946.19995117188</ele>
        <time>2019-12-27T10:48:08.000Z</time>
      </trkpt>
      <trkpt lat="31.127741" lon="-7.920274">
        <ele>1946.19995117188</ele>
        <time>2019-12-27T10:48:10.000Z</time>
      </trkpt>
      <trkpt lat="31.127728" lon="-7.920257">
        <ele>1946.19995117188</ele>
        <time>2019-12-27T10:48:12.000Z</time>
      </trkpt>
      <trkpt lat="31.127709" lon="-7.920235">
        <ele>1946.19995117188</ele>
        <time>2019-12-27T10:48:15.000Z</time>
      </trkpt>
      <trkpt lat="31.127696" lon="-7.92021">
        <ele>1946.19995117188</ele>
        <time>2019-12-27T10:48:17.000Z</time>
      </trkpt>
      <trkpt lat="31.127686" lon="-7.920186">
        <ele>1946.19995117188</ele>
        <time>2019-12-27T10:48:19.000Z</time>
      </trkpt>
      <trkpt lat="31.127677" lon="-7.920163">
        <ele>1946.40002441406</ele>
        <time>2019-12-27T10:48:21.000Z</time>
      </trkpt>
      <trkpt lat="31.12767" lon="-7.920142">
        <ele>1946.40002441406</ele>
        <time>2019-12-27T10:48:23.000Z</time>
      </trkpt>
      <trkpt lat="31.127661" lon="-7.920117">
        <ele>1946.40002441406</ele>
        <time>2019-12-27T10:48:25.000Z</time>
      </trkpt>
      <trkpt lat="31.127651" lon="-7.92009">
        <ele>1946.40002441406</ele>
        <time>2019-12-27T10:48:27.000Z</time>
      </trkpt>
      <trkpt lat="31.127638" lon="-7.920065">
        <ele>1946.40002441406</ele>
        <time>2019-12-27T10:48:29.000Z</time>
      </trkpt>
      <trkpt lat="31.127629" lon="-7.92004">
        <ele>1946.59997558594</ele>
        <time>2019-12-27T10:48:31.000Z</time>
      </trkpt>
      <trkpt lat="31.127613" lon="-7.92001">
        <ele>1946.59997558594</ele>
        <time>2019-12-27T10:48:33.000Z</time>
      </trkpt>
      <trkpt lat="31.127597" lon="-7.919988">
        <ele>1946.59997558594</ele>
        <time>2019-12-27T10:48:35.000Z</time>
      </trkpt>
      <trkpt lat="31.127574" lon="-7.919957">
        <ele>1946.61978187656</ele>
        <time>2019-12-27T10:48:38.000Z</time>
      </trkpt>
      <trkpt lat="31.127555" lon="-7.91994">
        <ele>1946.80004882813</ele>
        <time>2019-12-27T10:48:40.000Z</time>
      </trkpt>
      <trkpt lat="31.127536" lon="-7.919923">
        <ele>1946.80004882813</ele>
        <time>2019-12-27T10:48:42.000Z</time>
      </trkpt>
      <trkpt lat="31.127507" lon="-7.919903">
        <ele>1946.80004882813</ele>
        <time>2019-12-27T10:48:45.000Z</time>
      </trkpt>
      <trkpt lat="31.127485" lon="-7.919894">
        <ele>1946.80004882813</ele>
        <time>2019-12-27T10:48:47.000Z</time>
      </trkpt>
      <trkpt lat="31.127466" lon="-7.91988">
        <ele>1947</ele>
        <time>2019-12-27T10:48:49.000Z</time>
      </trkpt>
      <trkpt lat="31.12744" lon="-7.919865">
        <ele>1947</ele>
        <time>2019-12-27T10:48:51.000Z</time>
      </trkpt>
      <trkpt lat="31.127424" lon="-7.91985">
        <ele>1947</ele>
        <time>2019-12-27T10:48:53.000Z</time>
      </trkpt>
      <trkpt lat="31.127405" lon="-7.919835">
        <ele>1947.01979420625</ele>
        <time>2019-12-27T10:48:56.000Z</time>
      </trkpt>
      <trkpt lat="31.127389" lon="-7.919818">
        <ele>1947.19995117188</ele>
        <time>2019-12-27T10:48:58.000Z</time>
      </trkpt>
      <trkpt lat="31.127376" lon="-7.919802">
        <ele>1947.19995117188</ele>
        <time>2019-12-27T10:49:00.000Z</time>
      </trkpt>
      <trkpt lat="31.12736" lon="-7.919783">
        <ele>1947.19995117188</ele>
        <time>2019-12-27T10:49:02.000Z</time>
      </trkpt>
      <trkpt lat="31.127344" lon="-7.919765">
        <ele>1947.19995117188</ele>
        <time>2019-12-27T10:49:04.000Z</time>
      </trkpt>
      <trkpt lat="31.127325" lon="-7.919738">
        <ele>1947.40002441406</ele>
        <time>2019-12-27T10:49:07.000Z</time>
      </trkpt>
      <trkpt lat="31.127309" lon="-7.91972">
        <ele>1947.40002441406</ele>
        <time>2019-12-27T10:49:09.000Z</time>
      </trkpt>
      <trkpt lat="31.127293" lon="-7.919702">
        <ele>1947.40002441406</ele>
        <time>2019-12-27T10:49:11.000Z</time>
      </trkpt>
      <trkpt lat="31.127277" lon="-7.919685">
        <ele>1947.59997558594</ele>
        <time>2019-12-27T10:49:13.000Z</time>
      </trkpt>
      <trkpt lat="31.127254" lon="-7.919665">
        <ele>1947.59997558594</ele>
        <time>2019-12-27T10:49:15.000Z</time>
      </trkpt>
      <trkpt lat="31.127235" lon="-7.919654">
        <ele>1947.61978187656</ele>
        <time>2019-12-27T10:49:17.000Z</time>
      </trkpt>
      <trkpt lat="31.12721" lon="-7.919637">
        <ele>1947.80004882813</ele>
        <time>2019-12-27T10:49:19.000Z</time>
      </trkpt>
      <trkpt lat="31.127181" lon="-7.919626">
        <ele>1947.81984303438</ele>
        <time>2019-12-27T10:49:21.000Z</time>
      </trkpt>
      <trkpt lat="31.127158" lon="-7.919626">
        <ele>1948</ele>
        <time>2019-12-27T10:49:23.000Z</time>
      </trkpt>
      <trkpt lat="31.127133" lon="-7.919637">
        <ele>1948</ele>
        <time>2019-12-27T10:49:26.000Z</time>
      </trkpt>
      <trkpt lat="31.12711" lon="-7.919638">
        <ele>1948.01979420625</ele>
        <time>2019-12-27T10:49:28.000Z</time>
      </trkpt>
      <trkpt lat="31.127085" lon="-7.91964">
        <ele>1948.19995117188</ele>
        <time>2019-12-27T10:49:30.000Z</time>
      </trkpt>
      <trkpt lat="31.127059" lon="-7.919651">
        <ele>1948.19995117188</ele>
        <time>2019-12-27T10:49:32.000Z</time>
      </trkpt>
      <trkpt lat="31.12704" lon="-7.91967">
        <ele>1948.19995117188</ele>
        <time>2019-12-27T10:49:34.000Z</time>
      </trkpt>
      <trkpt lat="31.127018" lon="-7.919678">
        <ele>1948.19995117188</ele>
        <time>2019-12-27T10:49:36.000Z</time>
      </trkpt>
      <trkpt lat="31.127002" lon="-7.919691">
        <ele>1948.19995117188</ele>
        <time>2019-12-27T10:49:38.000Z</time>
      </trkpt>
      <trkpt lat="31.126986" lon="-7.91971">
        <ele>1948.19995117188</ele>
        <time>2019-12-27T10:49:40.000Z</time>
      </trkpt>
      <trkpt lat="31.126963" lon="-7.919725">
        <ele>1948.19995117188</ele>
        <time>2019-12-27T10:49:42.000Z</time>
      </trkpt>
      <trkpt lat="31.12695" lon="-7.919742">
        <ele>1948.19995117188</ele>
        <time>2019-12-27T10:49:44.000Z</time>
      </trkpt>
      <trkpt lat="31.126938" lon="-7.91976">
        <ele>1948.19995117188</ele>
        <time>2019-12-27T10:49:46.000Z</time>
      </trkpt>
      <trkpt lat="31.126922" lon="-7.919778">
        <ele>1948</ele>
        <time>2019-12-27T10:49:48.000Z</time>
      </trkpt>
      <trkpt lat="31.126902" lon="-7.9198">
        <ele>1948</ele>
        <time>2019-12-27T10:49:50.000Z</time>
      </trkpt>
      <trkpt lat="31.126883" lon="-7.919817">
        <ele>1948</ele>
        <time>2019-12-27T10:49:52.000Z</time>
      </trkpt>
      <trkpt lat="31.126861" lon="-7.91982">
        <ele>1947.98020579375</ele>
        <time>2019-12-27T10:49:54.000Z</time>
      </trkpt>
      <trkpt lat="31.126838" lon="-7.919823">
        <ele>1947.80004882813</ele>
        <time>2019-12-27T10:49:56.000Z</time>
      </trkpt>
      <trkpt lat="31.12681" lon="-7.919823">
        <ele>1947.7802425375</ele>
        <time>2019-12-27T10:49:58.000Z</time>
      </trkpt>
      <trkpt lat="31.126784" lon="-7.919823">
        <ele>1947.59997558594</ele>
        <time>2019-12-27T10:50:00.000Z</time>
      </trkpt>
      <trkpt lat="31.126758" lon="-7.919825">
        <ele>1947.58018137969</ele>
        <time>2019-12-27T10:50:02.000Z</time>
      </trkpt>
      <trkpt lat="31.12673" lon="-7.919817">
        <ele>1947.40002441406</ele>
        <time>2019-12-27T10:50:04.000Z</time>
      </trkpt>
      <trkpt lat="31.126704" lon="-7.919806">
        <ele>1947.19995117188</ele>
        <time>2019-12-27T10:50:06.000Z</time>
      </trkpt>
      <trkpt lat="31.126678" lon="-7.919805">
        <ele>1947.19995117188</ele>
        <time>2019-12-27T10:50:08.000Z</time>
      </trkpt>
      <trkpt lat="31.126653" lon="-7.919808">
        <ele>1947</ele>
        <time>2019-12-27T10:50:10.000Z</time>
      </trkpt>
      <trkpt lat="31.126621" lon="-7.919812">
        <ele>1946.98020579375</ele>
        <time>2019-12-27T10:50:12.000Z</time>
      </trkpt>
      <trkpt lat="31.126589" lon="-7.919812">
        <ele>1946.80004882813</ele>
        <time>2019-12-27T10:50:14.000Z</time>
      </trkpt>
      <trkpt lat="31.126563" lon="-7.919806">
        <ele>1946.59997558594</ele>
        <time>2019-12-27T10:50:16.000Z</time>
      </trkpt>
      <trkpt lat="31.126541" lon="-7.919805">
        <ele>1946.58018137969</ele>
        <time>2019-12-27T10:50:18.000Z</time>
      </trkpt>
      <trkpt lat="31.126515" lon="-7.919823">
        <ele>1946.19995117188</ele>
        <time>2019-12-27T10:50:21.000Z</time>
      </trkpt>
      <trkpt lat="31.126499" lon="-7.919835">
        <ele>1946.19995117188</ele>
        <time>2019-12-27T10:50:23.000Z</time>
      </trkpt>
      <trkpt lat="31.126467" lon="-7.919842">
        <ele>1945.98020579375</ele>
        <time>2019-12-27T10:50:26.000Z</time>
      </trkpt>
      <trkpt lat="31.126448" lon="-7.919852">
        <ele>1945.80004882813</ele>
        <time>2019-12-27T10:50:28.000Z</time>
      </trkpt>
      <trkpt lat="31.126426" lon="-7.919855">
        <ele>1945.59997558594</ele>
        <time>2019-12-27T10:50:30.000Z</time>
      </trkpt>
      <trkpt lat="31.126406" lon="-7.919865">
        <ele>1945.40002441406</ele>
        <time>2019-12-27T10:50:32.000Z</time>
      </trkpt>
      <trkpt lat="31.126381" lon="-7.919872">
        <ele>1945.38021812344</ele>
        <time>2019-12-27T10:50:34.000Z</time>
      </trkpt>
      <trkpt lat="31.126355" lon="-7.919878">
        <ele>1945.18015696563</ele>
        <time>2019-12-27T10:50:36.000Z</time>
      </trkpt>
      <trkpt lat="31.126326" lon="-7.919878">
        <ele>1944.98020579375</ele>
        <time>2019-12-27T10:50:38.000Z</time>
      </trkpt>
      <trkpt lat="31.126304" lon="-7.91987">
        <ele>1944.80004882813</ele>
        <time>2019-12-27T10:50:40.000Z</time>
      </trkpt>
      <trkpt lat="31.126285" lon="-7.919866">
        <ele>1944.59997558594</ele>
        <time>2019-12-27T10:50:42.000Z</time>
      </trkpt>
      <trkpt lat="31.126266" lon="-7.919869">
        <ele>1944.40002441406</ele>
        <time>2019-12-27T10:50:44.000Z</time>
      </trkpt>
      <trkpt lat="31.126243" lon="-7.919866">
        <ele>1944.18015696563</ele>
        <time>2019-12-27T10:50:47.000Z</time>
      </trkpt>
      <trkpt lat="31.126218" lon="-7.919852">
        <ele>1944</ele>
        <time>2019-12-27T10:50:48.000Z</time>
      </trkpt>
      <trkpt lat="31.126189" lon="-7.919838">
        <ele>1943.80004882813</ele>
        <time>2019-12-27T10:50:50.000Z</time>
      </trkpt>
      <trkpt lat="31.12617" lon="-7.919823">
        <ele>1943.7802425375</ele>
        <time>2019-12-27T10:50:51.000Z</time>
      </trkpt>
      <trkpt lat="31.126147" lon="-7.919806">
        <ele>1943.58018137969</ele>
        <time>2019-12-27T10:50:53.000Z</time>
      </trkpt>
      <trkpt lat="31.126125" lon="-7.91979">
        <ele>1943.38021812344</ele>
        <time>2019-12-27T10:50:55.000Z</time>
      </trkpt>
      <trkpt lat="31.126106" lon="-7.919795">
        <ele>1943</ele>
        <time>2019-12-27T10:50:57.000Z</time>
      </trkpt>
      <trkpt lat="31.126086" lon="-7.919792">
        <ele>1942.80004882813</ele>
        <time>2019-12-27T10:50:59.000Z</time>
      </trkpt>
      <trkpt lat="31.126061" lon="-7.919777">
        <ele>1942.59997558594</ele>
        <time>2019-12-27T10:51:01.000Z</time>
      </trkpt>
      <trkpt lat="31.126038" lon="-7.919762">
        <ele>1942.40002441406</ele>
        <time>2019-12-27T10:51:03.000Z</time>
      </trkpt>
      <trkpt lat="31.126016" lon="-7.91976">
        <ele>1942.38021812344</ele>
        <time>2019-12-27T10:51:05.000Z</time>
      </trkpt>
      <trkpt lat="31.125987" lon="-7.919748">
        <ele>1942</ele>
        <time>2019-12-27T10:51:08.000Z</time>
      </trkpt>
      <trkpt lat="31.125965" lon="-7.919732">
        <ele>1941.80004882813</ele>
        <time>2019-12-27T10:51:10.000Z</time>
      </trkpt>
      <trkpt lat="31.125942" lon="-7.919718">
        <ele>1941.7802425375</ele>
        <time>2019-12-27T10:51:12.000Z</time>
      </trkpt>
      <trkpt lat="31.12592" lon="-7.919714">
        <ele>1941.59997558594</ele>
        <time>2019-12-27T10:51:14.000Z</time>
      </trkpt>
      <trkpt lat="31.125904" lon="-7.919703">
        <ele>1941.58018137969</ele>
        <time>2019-12-27T10:51:16.000Z</time>
      </trkpt>
      <trkpt lat="31.125882" lon="-7.919682">
        <ele>1941.40002441406</ele>
        <time>2019-12-27T10:51:18.000Z</time>
      </trkpt>
      <trkpt lat="31.125866" lon="-7.919671">
        <ele>1941.38021812344</ele>
        <time>2019-12-27T10:51:20.000Z</time>
      </trkpt>
      <trkpt lat="31.125843" lon="-7.919657">
        <ele>1941.19995117188</ele>
        <time>2019-12-27T10:51:22.000Z</time>
      </trkpt>
      <trkpt lat="31.125827" lon="-7.919642">
        <ele>1941.18015696563</ele>
        <time>2019-12-27T10:51:24.000Z</time>
      </trkpt>
      <trkpt lat="31.125798" lon="-7.919617">
        <ele>1941</ele>
        <time>2019-12-27T10:51:26.000Z</time>
      </trkpt>
      <trkpt lat="31.125776" lon="-7.919592">
        <ele>1941</ele>
        <time>2019-12-27T10:51:28.000Z</time>
      </trkpt>
      <trkpt lat="31.125763" lon="-7.919574">
        <ele>1941</ele>
        <time>2019-12-27T10:51:29.000Z</time>
      </trkpt>
      <trkpt lat="31.125744" lon="-7.919557">
        <ele>1941</ele>
        <time>2019-12-27T10:51:31.000Z</time>
      </trkpt>
      <trkpt lat="31.125722" lon="-7.919545">
        <ele>1941</ele>
        <time>2019-12-27T10:51:34.000Z</time>
      </trkpt>
      <trkpt lat="31.125699" lon="-7.919532">
        <ele>1941</ele>
        <time>2019-12-27T10:51:36.000Z</time>
      </trkpt>
      <trkpt lat="31.12568" lon="-7.919517">
        <ele>1941</ele>
        <time>2019-12-27T10:51:38.000Z</time>
      </trkpt>
      <trkpt lat="31.125658" lon="-7.919502">
        <ele>1941</ele>
        <time>2019-12-27T10:51:41.000Z</time>
      </trkpt>
      <trkpt lat="31.125638" lon="-7.919495">
        <ele>1941</ele>
        <time>2019-12-27T10:51:44.000Z</time>
      </trkpt>
      <trkpt lat="31.125616" lon="-7.919483">
        <ele>1941</ele>
        <time>2019-12-27T10:51:46.000Z</time>
      </trkpt>
      <trkpt lat="31.125587" lon="-7.919472">
        <ele>1941</ele>
        <time>2019-12-27T10:51:48.000Z</time>
      </trkpt>
      <trkpt lat="31.125568" lon="-7.919465">
        <ele>1941</ele>
        <time>2019-12-27T10:51:50.000Z</time>
      </trkpt>
      <trkpt lat="31.125549" lon="-7.919457">
        <ele>1941</ele>
        <time>2019-12-27T10:51:52.000Z</time>
      </trkpt>
      <trkpt lat="31.12552" lon="-7.919448">
        <ele>1941</ele>
        <time>2019-12-27T10:51:54.000Z</time>
      </trkpt>
      <trkpt lat="31.125494" lon="-7.919445">
        <ele>1941</ele>
        <time>2019-12-27T10:51:56.000Z</time>
      </trkpt>
      <trkpt lat="31.125466" lon="-7.919448">
        <ele>1941</ele>
        <time>2019-12-27T10:51:59.000Z</time>
      </trkpt>
      <trkpt lat="31.12545" lon="-7.919465">
        <ele>1941</ele>
        <time>2019-12-27T10:52:00.000Z</time>
      </trkpt>
      <trkpt lat="31.125427" lon="-7.919452">
        <ele>1941</ele>
        <time>2019-12-27T10:52:04.000Z</time>
      </trkpt>
      <trkpt lat="31.125405" lon="-7.919448">
        <ele>1941</ele>
        <time>2019-12-27T10:52:07.000Z</time>
      </trkpt>
      <trkpt lat="31.125389" lon="-7.91943">
        <ele>1941</ele>
        <time>2019-12-27T10:52:11.000Z</time>
      </trkpt>
      <trkpt lat="31.12536" lon="-7.919428">
        <ele>1941</ele>
        <time>2019-12-27T10:52:14.000Z</time>
      </trkpt>
      <trkpt lat="31.125334" lon="-7.91942">
        <ele>1941</ele>
        <time>2019-12-27T10:52:16.000Z</time>
      </trkpt>
      <trkpt lat="31.125315" lon="-7.91942">
        <ele>1941</ele>
        <time>2019-12-27T10:52:18.000Z</time>
      </trkpt>
      <trkpt lat="31.125296" lon="-7.919422">
        <ele>1941</ele>
        <time>2019-12-27T10:52:20.000Z</time>
      </trkpt>
      <trkpt lat="31.12527" lon="-7.91943">
        <ele>1941</ele>
        <time>2019-12-27T10:52:23.000Z</time>
      </trkpt>
      <trkpt lat="31.125251" lon="-7.919442">
        <ele>1940.80004882813</ele>
        <time>2019-12-27T10:52:25.000Z</time>
      </trkpt>
      <trkpt lat="31.125222" lon="-7.91944">
        <ele>1940.80004882813</ele>
        <time>2019-12-27T10:52:27.000Z</time>
      </trkpt>
      <trkpt lat="31.125203" lon="-7.919448">
        <ele>1940.7802425375</ele>
        <time>2019-12-27T10:52:29.000Z</time>
      </trkpt>
      <trkpt lat="31.125181" lon="-7.919452">
        <ele>1940.59997558594</ele>
        <time>2019-12-27T10:52:31.000Z</time>
      </trkpt>
      <trkpt lat="31.125162" lon="-7.919469">
        <ele>1940.40002441406</ele>
        <time>2019-12-27T10:52:33.000Z</time>
      </trkpt>
      <trkpt lat="31.125142" lon="-7.919477">
        <ele>1940.38021812344</ele>
        <time>2019-12-27T10:52:35.000Z</time>
      </trkpt>
      <trkpt lat="31.125123" lon="-7.919483">
        <ele>1940.18015696563</ele>
        <time>2019-12-27T10:52:37.000Z</time>
      </trkpt>
      <trkpt lat="31.125101" lon="-7.919489">
        <ele>1939.98020579375</ele>
        <time>2019-12-27T10:52:39.000Z</time>
      </trkpt>
      <trkpt lat="31.125075" lon="-7.919493">
        <ele>1939.7802425375</ele>
        <time>2019-12-27T10:52:41.000Z</time>
      </trkpt>
      <trkpt lat="31.125059" lon="-7.91951">
        <ele>1939.58018137969</ele>
        <time>2019-12-27T10:52:43.000Z</time>
      </trkpt>
      <trkpt lat="31.12504" lon="-7.919525">
        <ele>1939.38021812344</ele>
        <time>2019-12-27T10:52:45.000Z</time>
      </trkpt>
      <trkpt lat="31.125005" lon="-7.919522">
        <ele>1939.18015696563</ele>
        <time>2019-12-27T10:52:47.000Z</time>
      </trkpt>
      <trkpt lat="31.124982" lon="-7.919515">
        <ele>1938.98020579375</ele>
        <time>2019-12-27T10:52:49.000Z</time>
      </trkpt>
      <trkpt lat="31.124957" lon="-7.919515">
        <ele>1938.7802425375</ele>
        <time>2019-12-27T10:52:51.000Z</time>
      </trkpt>
      <trkpt lat="31.124941" lon="-7.919526">
        <ele>1938.58018137969</ele>
        <time>2019-12-27T10:52:53.000Z</time>
      </trkpt>
      <trkpt lat="31.124918" lon="-7.919542">
        <ele>1938.38021812344</ele>
        <time>2019-12-27T10:52:55.000Z</time>
      </trkpt>
      <trkpt lat="31.124896" lon="-7.919566">
        <ele>1938.18015696563</ele>
        <time>2019-12-27T10:52:58.000Z</time>
      </trkpt>
      <trkpt lat="31.124874" lon="-7.919583">
        <ele>1938</ele>
        <time>2019-12-27T10:53:00.000Z</time>
      </trkpt>
      <trkpt lat="31.124858" lon="-7.919597">
        <ele>1937.80004882813</ele>
        <time>2019-12-27T10:53:02.000Z</time>
      </trkpt>
      <trkpt lat="31.124842" lon="-7.91961">
        <ele>1937.7802425375</ele>
        <time>2019-12-27T10:53:04.000Z</time>
      </trkpt>
      <trkpt lat="31.124835" lon="-7.91963">
        <ele>1937.59997558594</ele>
        <time>2019-12-27T10:53:05.000Z</time>
      </trkpt>
      <trkpt lat="31.124816" lon="-7.91965">
        <ele>1937.40002441406</ele>
        <time>2019-12-27T10:53:07.000Z</time>
      </trkpt>
      <trkpt lat="31.1248" lon="-7.919668">
        <ele>1937.40002441406</ele>
        <time>2019-12-27T10:53:09.000Z</time>
      </trkpt>
      <trkpt lat="31.124784" lon="-7.919686">
        <ele>1937.19995117188</ele>
        <time>2019-12-27T10:53:11.000Z</time>
      </trkpt>
      <trkpt lat="31.124768" lon="-7.919702">
        <ele>1937.19995117188</ele>
        <time>2019-12-27T10:53:13.000Z</time>
      </trkpt>
      <trkpt lat="31.124755" lon="-7.919718">
        <ele>1937.19995117188</ele>
        <time>2019-12-27T10:53:15.000Z</time>
      </trkpt>
      <trkpt lat="31.124739" lon="-7.919743">
        <ele>1937</ele>
        <time>2019-12-27T10:53:17.000Z</time>
      </trkpt>
      <trkpt lat="31.12473" lon="-7.919763">
        <ele>1937</ele>
        <time>2019-12-27T10:53:19.000Z</time>
      </trkpt>
      <trkpt lat="31.124717" lon="-7.919783">
        <ele>1937</ele>
        <time>2019-12-27T10:53:21.000Z</time>
      </trkpt>
      <trkpt lat="31.124704" lon="-7.919808">
        <ele>1937</ele>
        <time>2019-12-27T10:53:23.000Z</time>
      </trkpt>
      <trkpt lat="31.124698" lon="-7.91983">
        <ele>1937</ele>
        <time>2019-12-27T10:53:25.000Z</time>
      </trkpt>
      <trkpt lat="31.124701" lon="-7.919855">
        <ele>1937</ele>
        <time>2019-12-27T10:53:27.000Z</time>
      </trkpt>
      <trkpt lat="31.124694" lon="-7.91988">
        <ele>1937</ele>
        <time>2019-12-27T10:53:29.000Z</time>
      </trkpt>
      <trkpt lat="31.124675" lon="-7.919886">
        <ele>1937</ele>
        <time>2019-12-27T10:53:30.000Z</time>
      </trkpt>
      <trkpt lat="31.124662" lon="-7.919909">
        <ele>1937</ele>
        <time>2019-12-27T10:53:32.000Z</time>
      </trkpt>
      <trkpt lat="31.124659" lon="-7.919942">
        <ele>1937</ele>
        <time>2019-12-27T10:53:35.000Z</time>
      </trkpt>
      <trkpt lat="31.124662" lon="-7.919966">
        <ele>1937</ele>
        <time>2019-12-27T10:53:37.000Z</time>
      </trkpt>
      <trkpt lat="31.124675" lon="-7.91999">
        <ele>1937</ele>
        <time>2019-12-27T10:53:39.000Z</time>
      </trkpt>
      <trkpt lat="31.124704" lon="-7.920022">
        <ele>1937.01979420625</ele>
        <time>2019-12-27T10:53:41.000Z</time>
      </trkpt>
      <trkpt lat="31.124717" lon="-7.920037">
        <ele>1937.19995117188</ele>
        <time>2019-12-27T10:53:42.000Z</time>
      </trkpt>
      <trkpt lat="31.124714" lon="-7.920063">
        <ele>1937.19995117188</ele>
        <time>2019-12-27T10:53:44.000Z</time>
      </trkpt>
      <trkpt lat="31.124704" lon="-7.92009">
        <ele>1937.19995117188</ele>
        <time>2019-12-27T10:53:46.000Z</time>
      </trkpt>
      <trkpt lat="31.124678" lon="-7.920114">
        <ele>1937.19995117188</ele>
        <time>2019-12-27T10:53:48.000Z</time>
      </trkpt>
      <trkpt lat="31.124656" lon="-7.920134">
        <ele>1937.18015696563</ele>
        <time>2019-12-27T10:53:50.000Z</time>
      </trkpt>
      <trkpt lat="31.124634" lon="-7.920152">
        <ele>1937</ele>
        <time>2019-12-27T10:53:52.000Z</time>
      </trkpt>
      <trkpt lat="31.124614" lon="-7.920175">
        <ele>1937</ele>
        <time>2019-12-27T10:53:54.000Z</time>
      </trkpt>
      <trkpt lat="31.124605" lon="-7.920198">
        <ele>1937</ele>
        <time>2019-12-27T10:53:56.000Z</time>
      </trkpt>
      <trkpt lat="31.124586" lon="-7.92022">
        <ele>1936.80004882813</ele>
        <time>2019-12-27T10:53:58.000Z</time>
      </trkpt>
      <trkpt lat="31.12457" lon="-7.920238">
        <ele>1936.80004882813</ele>
        <time>2019-12-27T10:54:00.000Z</time>
      </trkpt>
      <trkpt lat="31.12457" lon="-7.920262">
        <ele>1936.80004882813</ele>
        <time>2019-12-27T10:54:02.000Z</time>
      </trkpt>
      <trkpt lat="31.12456" lon="-7.920286">
        <ele>1936.80004882813</ele>
        <time>2019-12-27T10:54:04.000Z</time>
      </trkpt>
      <trkpt lat="31.12455" lon="-7.920308">
        <ele>1936.80004882813</ele>
        <time>2019-12-27T10:54:06.000Z</time>
      </trkpt>
      <trkpt lat="31.124531" lon="-7.920322">
        <ele>1936.80004882813</ele>
        <time>2019-12-27T10:54:08.000Z</time>
      </trkpt>
      <trkpt lat="31.124509" lon="-7.92034">
        <ele>1936.80004882813</ele>
        <time>2019-12-27T10:54:10.000Z</time>
      </trkpt>
      <trkpt lat="31.124486" lon="-7.920357">
        <ele>1936.80004882813</ele>
        <time>2019-12-27T10:54:12.000Z</time>
      </trkpt>
      <trkpt lat="31.124467" lon="-7.920378">
        <ele>1937</ele>
        <time>2019-12-27T10:54:14.000Z</time>
      </trkpt>
      <trkpt lat="31.124451" lon="-7.920395">
        <ele>1937</ele>
        <time>2019-12-27T10:54:16.000Z</time>
      </trkpt>
      <trkpt lat="31.124438" lon="-7.920415">
        <ele>1937</ele>
        <time>2019-12-27T10:54:18.000Z</time>
      </trkpt>
      <trkpt lat="31.124419" lon="-7.920434">
        <ele>1937.19995117188</ele>
        <time>2019-12-27T10:54:20.000Z</time>
      </trkpt>
      <trkpt lat="31.1244" lon="-7.920448">
        <ele>1937.19995117188</ele>
        <time>2019-12-27T10:54:22.000Z</time>
      </trkpt>
      <trkpt lat="31.124378" lon="-7.920468">
        <ele>1937.2197574625</ele>
        <time>2019-12-27T10:54:25.000Z</time>
      </trkpt>
      <trkpt lat="31.124358" lon="-7.920483">
        <ele>1937.40002441406</ele>
        <time>2019-12-27T10:54:27.000Z</time>
      </trkpt>
      <trkpt lat="31.124333" lon="-7.920493">
        <ele>1937.40002441406</ele>
        <time>2019-12-27T10:54:29.000Z</time>
      </trkpt>
      <trkpt lat="31.124317" lon="-7.920505">
        <ele>1937.40002441406</ele>
        <time>2019-12-27T10:54:31.000Z</time>
      </trkpt>
      <trkpt lat="31.124291" lon="-7.920513">
        <ele>1937.41981862031</ele>
        <time>2019-12-27T10:54:33.000Z</time>
      </trkpt>
      <trkpt lat="31.124269" lon="-7.920525">
        <ele>1937.59997558594</ele>
        <time>2019-12-27T10:54:35.000Z</time>
      </trkpt>
      <trkpt lat="31.124243" lon="-7.920538">
        <ele>1937.59997558594</ele>
        <time>2019-12-27T10:54:37.000Z</time>
      </trkpt>
      <trkpt lat="31.124227" lon="-7.920557">
        <ele>1937.59997558594</ele>
        <time>2019-12-27T10:54:39.000Z</time>
      </trkpt>
      <trkpt lat="31.124205" lon="-7.920569">
        <ele>1937.59997558594</ele>
        <time>2019-12-27T10:54:41.000Z</time>
      </trkpt>
      <trkpt lat="31.124182" lon="-7.920577">
        <ele>1937.59997558594</ele>
        <time>2019-12-27T10:54:43.000Z</time>
      </trkpt>
      <trkpt lat="31.124157" lon="-7.920583">
        <ele>1937.59997558594</ele>
        <time>2019-12-27T10:54:45.000Z</time>
      </trkpt>
      <trkpt lat="31.124138" lon="-7.920598">
        <ele>1937.59997558594</ele>
        <time>2019-12-27T10:54:47.000Z</time>
      </trkpt>
      <trkpt lat="31.124122" lon="-7.920615">
        <ele>1937.58018137969</ele>
        <time>2019-12-27T10:54:49.000Z</time>
      </trkpt>
      <trkpt lat="31.124099" lon="-7.920618">
        <ele>1937.40002441406</ele>
        <time>2019-12-27T10:54:51.000Z</time>
      </trkpt>
      <trkpt lat="31.12407" lon="-7.920617">
        <ele>1937.40002441406</ele>
        <time>2019-12-27T10:54:53.000Z</time>
      </trkpt>
      <trkpt lat="31.124045" lon="-7.920618">
        <ele>1937.40002441406</ele>
        <time>2019-12-27T10:54:55.000Z</time>
      </trkpt>
      <trkpt lat="31.124026" lon="-7.920625">
        <ele>1937.40002441406</ele>
        <time>2019-12-27T10:54:57.000Z</time>
      </trkpt>
      <trkpt lat="31.124003" lon="-7.920635">
        <ele>1937.38021812344</ele>
        <time>2019-12-27T10:54:59.000Z</time>
      </trkpt>
      <trkpt lat="31.12399" lon="-7.92066">
        <ele>1937.19995117188</ele>
        <time>2019-12-27T10:55:01.000Z</time>
      </trkpt>
      <trkpt lat="31.123971" lon="-7.92068">
        <ele>1937.19995117188</ele>
        <time>2019-12-27T10:55:03.000Z</time>
      </trkpt>
      <trkpt lat="31.123952" lon="-7.920688">
        <ele>1937.19995117188</ele>
        <time>2019-12-27T10:55:05.000Z</time>
      </trkpt>
      <trkpt lat="31.123933" lon="-7.920708">
        <ele>1937.19995117188</ele>
        <time>2019-12-27T10:55:07.000Z</time>
      </trkpt>
      <trkpt lat="31.12391" lon="-7.920718">
        <ele>1937.19995117188</ele>
        <time>2019-12-27T10:55:09.000Z</time>
      </trkpt>
      <trkpt lat="31.123888" lon="-7.920728">
        <ele>1937.18015696563</ele>
        <time>2019-12-27T10:55:11.000Z</time>
      </trkpt>
      <trkpt lat="31.123872" lon="-7.920745">
        <ele>1937</ele>
        <time>2019-12-27T10:55:13.000Z</time>
      </trkpt>
      <trkpt lat="31.123856" lon="-7.920763">
        <ele>1937.01979420625</ele>
        <time>2019-12-27T10:55:15.000Z</time>
      </trkpt>
      <trkpt lat="31.123834" lon="-7.920782">
        <ele>1937.19995117188</ele>
        <time>2019-12-27T10:55:17.000Z</time>
      </trkpt>
      <trkpt lat="31.123818" lon="-7.920798">
        <ele>1937.19995117188</ele>
        <time>2019-12-27T10:55:19.000Z</time>
      </trkpt>
      <trkpt lat="31.123802" lon="-7.920812">
        <ele>1937.19995117188</ele>
        <time>2019-12-27T10:55:21.000Z</time>
      </trkpt>
      <trkpt lat="31.123786" lon="-7.920828">
        <ele>1937.19995117188</ele>
        <time>2019-12-27T10:55:23.000Z</time>
      </trkpt>
      <trkpt lat="31.123757" lon="-7.920846">
        <ele>1937.19995117188</ele>
        <time>2019-12-27T10:55:25.000Z</time>
      </trkpt>
      <trkpt lat="31.123741" lon="-7.92086">
        <ele>1937.19995117188</ele>
        <time>2019-12-27T10:55:27.000Z</time>
      </trkpt>
      <trkpt lat="31.123734" lon="-7.920882">
        <ele>1937.19995117188</ele>
        <time>2019-12-27T10:55:29.000Z</time>
      </trkpt>
      <trkpt lat="31.123718" lon="-7.920902">
        <ele>1937.19995117188</ele>
        <time>2019-12-27T10:55:31.000Z</time>
      </trkpt>
      <trkpt lat="31.123696" lon="-7.920917">
        <ele>1937.40002441406</ele>
        <time>2019-12-27T10:55:33.000Z</time>
      </trkpt>
      <trkpt lat="31.123683" lon="-7.920934">
        <ele>1937.40002441406</ele>
        <time>2019-12-27T10:55:35.000Z</time>
      </trkpt>
      <trkpt lat="31.123664" lon="-7.920958">
        <ele>1937.40002441406</ele>
        <time>2019-12-27T10:55:38.000Z</time>
      </trkpt>
      <trkpt lat="31.123645" lon="-7.920977">
        <ele>1937.40002441406</ele>
        <time>2019-12-27T10:55:40.000Z</time>
      </trkpt>
      <trkpt lat="31.123642" lon="-7.921">
        <ele>1937.38021812344</ele>
        <time>2019-12-27T10:55:42.000Z</time>
      </trkpt>
      <trkpt lat="31.123626" lon="-7.921014">
        <ele>1937.19995117188</ele>
        <time>2019-12-27T10:55:44.000Z</time>
      </trkpt>
      <trkpt lat="31.123603" lon="-7.921031">
        <ele>1937.19995117188</ele>
        <time>2019-12-27T10:55:46.000Z</time>
      </trkpt>
      <trkpt lat="31.123574" lon="-7.921048">
        <ele>1937.19995117188</ele>
        <time>2019-12-27T10:55:48.000Z</time>
      </trkpt>
      <trkpt lat="31.123562" lon="-7.921075">
        <ele>1937.19995117188</ele>
        <time>2019-12-27T10:55:50.000Z</time>
      </trkpt>
      <trkpt lat="31.123542" lon="-7.921095">
        <ele>1937.19995117188</ele>
        <time>2019-12-27T10:55:52.000Z</time>
      </trkpt>
      <trkpt lat="31.123526" lon="-7.921115">
        <ele>1937.19995117188</ele>
        <time>2019-12-27T10:55:54.000Z</time>
      </trkpt>
      <trkpt lat="31.123517" lon="-7.921138">
        <ele>1937.19995117188</ele>
        <time>2019-12-27T10:55:56.000Z</time>
      </trkpt>
      <trkpt lat="31.123494" lon="-7.921163">
        <ele>1937.19995117188</ele>
        <time>2019-12-27T10:55:59.000Z</time>
      </trkpt>
      <trkpt lat="31.123478" lon="-7.921178">
        <ele>1937.19995117188</ele>
        <time>2019-12-27T10:56:01.000Z</time>
      </trkpt>
      <trkpt lat="31.123459" lon="-7.921193">
        <ele>1937.19995117188</ele>
        <time>2019-12-27T10:56:03.000Z</time>
      </trkpt>
      <trkpt lat="31.123446" lon="-7.92121">
        <ele>1937</ele>
        <time>2019-12-27T10:56:05.000Z</time>
      </trkpt>
      <trkpt lat="31.123424" lon="-7.921213">
        <ele>1937</ele>
        <time>2019-12-27T10:56:07.000Z</time>
      </trkpt>
      <trkpt lat="31.123414" lon="-7.921237">
        <ele>1937</ele>
        <time>2019-12-27T10:56:09.000Z</time>
      </trkpt>
      <trkpt lat="31.123395" lon="-7.921246">
        <ele>1937</ele>
        <time>2019-12-27T10:56:11.000Z</time>
      </trkpt>
      <trkpt lat="31.123376" lon="-7.921269">
        <ele>1937</ele>
        <time>2019-12-27T10:56:14.000Z</time>
      </trkpt>
      <trkpt lat="31.123366" lon="-7.921295">
        <ele>1937.19995117188</ele>
        <time>2019-12-27T10:56:16.000Z</time>
      </trkpt>
      <trkpt lat="31.123354" lon="-7.921322">
        <ele>1937.19995117188</ele>
        <time>2019-12-27T10:56:18.000Z</time>
      </trkpt>
      <trkpt lat="31.123344" lon="-7.921342">
        <ele>1937.19995117188</ele>
        <time>2019-12-27T10:56:20.000Z</time>
      </trkpt>
      <trkpt lat="31.123338" lon="-7.921366">
        <ele>1937.19995117188</ele>
        <time>2019-12-27T10:56:22.000Z</time>
      </trkpt>
      <trkpt lat="31.123309" lon="-7.92138">
        <ele>1937.19995117188</ele>
        <time>2019-12-27T10:56:24.000Z</time>
      </trkpt>
      <trkpt lat="31.123283" lon="-7.921386">
        <ele>1937.19995117188</ele>
        <time>2019-12-27T10:56:26.000Z</time>
      </trkpt>
      <trkpt lat="31.123242" lon="-7.921377">
        <ele>1937.19995117188</ele>
        <time>2019-12-27T10:56:29.000Z</time>
      </trkpt>
      <trkpt lat="31.123219" lon="-7.921386">
        <ele>1937.19995117188</ele>
        <time>2019-12-27T10:56:31.000Z</time>
      </trkpt>
      <trkpt lat="31.1232" lon="-7.921403">
        <ele>1937.19995117188</ele>
        <time>2019-12-27T10:56:33.000Z</time>
      </trkpt>
      <trkpt lat="31.123187" lon="-7.921434">
        <ele>1937.40002441406</ele>
        <time>2019-12-27T10:56:35.000Z</time>
      </trkpt>
      <trkpt lat="31.123171" lon="-7.921443">
        <ele>1937.40002441406</ele>
        <time>2019-12-27T10:56:37.000Z</time>
      </trkpt>
      <trkpt lat="31.123146" lon="-7.921434">
        <ele>1937.40002441406</ele>
        <time>2019-12-27T10:56:39.000Z</time>
      </trkpt>
      <trkpt lat="31.123117" lon="-7.921431">
        <ele>1937.41981862031</ele>
        <time>2019-12-27T10:56:42.000Z</time>
      </trkpt>
      <trkpt lat="31.123091" lon="-7.921431">
        <ele>1937.59997558594</ele>
        <time>2019-12-27T10:56:45.000Z</time>
      </trkpt>
      <trkpt lat="31.123069" lon="-7.921426">
        <ele>1937.59997558594</ele>
        <time>2019-12-27T10:56:47.000Z</time>
      </trkpt>
      <trkpt lat="31.123046" lon="-7.921437">
        <ele>1937.59997558594</ele>
        <time>2019-12-27T10:56:51.000Z</time>
      </trkpt>
      <trkpt lat="31.123027" lon="-7.921438">
        <ele>1937.59997558594</ele>
        <time>2019-12-27T10:56:53.000Z</time>
      </trkpt>
      <trkpt lat="31.122998" lon="-7.921414">
        <ele>1937.59997558594</ele>
        <time>2019-12-27T10:56:55.000Z</time>
      </trkpt>
      <trkpt lat="31.122979" lon="-7.921394">
        <ele>1937.59997558594</ele>
        <time>2019-12-27T10:56:57.000Z</time>
      </trkpt>
      <trkpt lat="31.122963" lon="-7.921383">
        <ele>1937.59997558594</ele>
        <time>2019-12-27T10:56:59.000Z</time>
      </trkpt>
      <trkpt lat="31.122944" lon="-7.921386">
        <ele>1937.59997558594</ele>
        <time>2019-12-27T10:57:01.000Z</time>
      </trkpt>
      <trkpt lat="31.122925" lon="-7.92136">
        <ele>1937.58018137969</ele>
        <time>2019-12-27T10:57:03.000Z</time>
      </trkpt>
      <trkpt lat="31.122906" lon="-7.921338">
        <ele>1937.40002441406</ele>
        <time>2019-12-27T10:57:05.000Z</time>
      </trkpt>
      <trkpt lat="31.12288" lon="-7.92132">
        <ele>1937.38021812344</ele>
        <time>2019-12-27T10:57:07.000Z</time>
      </trkpt>
      <trkpt lat="31.122861" lon="-7.921302">
        <ele>1937.19995117188</ele>
        <time>2019-12-27T10:57:09.000Z</time>
      </trkpt>
      <trkpt lat="31.122835" lon="-7.921277">
        <ele>1937.18015696563</ele>
        <time>2019-12-27T10:57:11.000Z</time>
      </trkpt>
      <trkpt lat="31.122813" lon="-7.921257">
        <ele>1937</ele>
        <time>2019-12-27T10:57:13.000Z</time>
      </trkpt>
      <trkpt lat="31.122794" lon="-7.921238">
        <ele>1936.80004882813</ele>
        <time>2019-12-27T10:57:15.000Z</time>
      </trkpt>
      <trkpt lat="31.122774" lon="-7.921223">
        <ele>1936.7802425375</ele>
        <time>2019-12-27T10:57:17.000Z</time>
      </trkpt>
      <trkpt lat="31.122762" lon="-7.921205">
        <ele>1936.58018137969</ele>
        <time>2019-12-27T10:57:19.000Z</time>
      </trkpt>
      <trkpt lat="31.122742" lon="-7.921195">
        <ele>1936.40002441406</ele>
        <time>2019-12-27T10:57:21.000Z</time>
      </trkpt>
      <trkpt lat="31.12272" lon="-7.92118">
        <ele>1936.19995117188</ele>
        <time>2019-12-27T10:57:23.000Z</time>
      </trkpt>
      <trkpt lat="31.122691" lon="-7.921172">
        <ele>1936</ele>
        <time>2019-12-27T10:57:26.000Z</time>
      </trkpt>
      <trkpt lat="31.122672" lon="-7.921168">
        <ele>1935.80004882813</ele>
        <time>2019-12-27T10:57:28.000Z</time>
      </trkpt>
      <trkpt lat="31.122653" lon="-7.921166">
        <ele>1935.7802425375</ele>
        <time>2019-12-27T10:57:30.000Z</time>
      </trkpt>
      <trkpt lat="31.12263" lon="-7.921182">
        <ele>1935.40002441406</ele>
        <time>2019-12-27T10:57:33.000Z</time>
      </trkpt>
      <trkpt lat="31.122605" lon="-7.921186">
        <ele>1935.40002441406</ele>
        <time>2019-12-27T10:57:35.000Z</time>
      </trkpt>
      <trkpt lat="31.122576" lon="-7.921186">
        <ele>1935.18015696563</ele>
        <time>2019-12-27T10:57:38.000Z</time>
      </trkpt>
      <trkpt lat="31.122554" lon="-7.921193">
        <ele>1935</ele>
        <time>2019-12-27T10:57:40.000Z</time>
      </trkpt>
      <trkpt lat="31.122534" lon="-7.921195">
        <ele>1934.98020579375</ele>
        <time>2019-12-27T10:57:42.000Z</time>
      </trkpt>
      <trkpt lat="31.122506" lon="-7.92122">
        <ele>1934.80004882813</ele>
        <time>2019-12-27T10:57:46.000Z</time>
      </trkpt>
      <trkpt lat="31.12249" lon="-7.92124">
        <ele>1934.59997558594</ele>
        <time>2019-12-27T10:57:49.000Z</time>
      </trkpt>
      <trkpt lat="31.122474" lon="-7.921254">
        <ele>1934.59997558594</ele>
        <time>2019-12-27T10:57:52.000Z</time>
      </trkpt>
      <trkpt lat="31.122458" lon="-7.921265">
        <ele>1934.40002441406</ele>
        <time>2019-12-27T10:57:57.000Z</time>
      </trkpt>
      <trkpt lat="31.122435" lon="-7.92126">
        <ele>1933.18015696563</ele>
        <time>2019-12-27T10:59:40.000Z</time>
      </trkpt>
      <trkpt lat="31.122416" lon="-7.921255">
        <ele>1931.80004882813</ele>
        <time>2019-12-27T10:59:56.000Z</time>
      </trkpt>
      <trkpt lat="31.122445" lon="-7.921257">
        <ele>1928.80004882813</ele>
        <time>2019-12-27T11:00:39.000Z</time>
      </trkpt>
      <trkpt lat="31.122458" lon="-7.921272">
        <ele>1928.59997558594</ele>
        <time>2019-12-27T11:00:46.000Z</time>
      </trkpt>
      <trkpt lat="31.122477" lon="-7.921275">
        <ele>1928.59997558594</ele>
        <time>2019-12-27T11:00:58.000Z</time>
      </trkpt>
      <trkpt lat="31.122464" lon="-7.92126">
        <ele>1929.2197574625</ele>
        <time>2019-12-27T11:01:12.000Z</time>
      </trkpt>
      <trkpt lat="31.122451" lon="-7.921245">
        <ele>1930.59997558594</ele>
        <time>2019-12-27T11:01:30.000Z</time>
      </trkpt>
      <trkpt lat="31.122461" lon="-7.921269">
        <ele>1931.40002441406</ele>
        <time>2019-12-27T11:01:43.000Z</time>
      </trkpt>
      <trkpt lat="31.122464" lon="-7.921243">
        <ele>1931.61978187656</ele>
        <time>2019-12-27T11:03:19.000Z</time>
      </trkpt>
      <trkpt lat="31.122445" lon="-7.92124">
        <ele>1930.59997558594</ele>
        <time>2019-12-27T11:04:07.000Z</time>
      </trkpt>
      <trkpt lat="31.122429" lon="-7.921252">
        <ele>1931.01979420625</ele>
        <time>2019-12-27T11:04:40.000Z</time>
      </trkpt>
      <trkpt lat="31.122403" lon="-7.921255">
        <ele>1931.19995117188</ele>
        <time>2019-12-27T11:04:42.000Z</time>
      </trkpt>
      <trkpt lat="31.122384" lon="-7.921265">
        <ele>1931.19995117188</ele>
        <time>2019-12-27T11:04:44.000Z</time>
      </trkpt>
      <trkpt lat="31.122362" lon="-7.921278">
        <ele>1931.40002441406</ele>
        <time>2019-12-27T11:04:46.000Z</time>
      </trkpt>
      <trkpt lat="31.122339" lon="-7.921283">
        <ele>1931.40002441406</ele>
        <time>2019-12-27T11:04:48.000Z</time>
      </trkpt>
      <trkpt lat="31.12232" lon="-7.921292">
        <ele>1931.41981862031</ele>
        <time>2019-12-27T11:04:50.000Z</time>
      </trkpt>
      <trkpt lat="31.122294" lon="-7.921297">
        <ele>1931.59997558594</ele>
        <time>2019-12-27T11:04:52.000Z</time>
      </trkpt>
      <trkpt lat="31.122272" lon="-7.921298">
        <ele>1931.59997558594</ele>
        <time>2019-12-27T11:04:54.000Z</time>
      </trkpt>
      <trkpt lat="31.122246" lon="-7.921298">
        <ele>1931.80004882813</ele>
        <time>2019-12-27T11:04:56.000Z</time>
      </trkpt>
      <trkpt lat="31.122224" lon="-7.921295">
        <ele>1931.80004882813</ele>
        <time>2019-12-27T11:04:58.000Z</time>
      </trkpt>
      <trkpt lat="31.122205" lon="-7.921297">
        <ele>1931.80004882813</ele>
        <time>2019-12-27T11:05:00.000Z</time>
      </trkpt>
      <trkpt lat="31.122182" lon="-7.921297">
        <ele>1932</ele>
        <time>2019-12-27T11:05:02.000Z</time>
      </trkpt>
      <trkpt lat="31.122157" lon="-7.9213">
        <ele>1932</ele>
        <time>2019-12-27T11:05:04.000Z</time>
      </trkpt>
      <trkpt lat="31.122134" lon="-7.921302">
        <ele>1932.01979420625</ele>
        <time>2019-12-27T11:05:06.000Z</time>
      </trkpt>
      <trkpt lat="31.122115" lon="-7.921305">
        <ele>1932.19995117188</ele>
        <time>2019-12-27T11:05:08.000Z</time>
      </trkpt>
      <trkpt lat="31.122093" lon="-7.92131">
        <ele>1932.19995117188</ele>
        <time>2019-12-27T11:05:10.000Z</time>
      </trkpt>
      <trkpt lat="31.122074" lon="-7.921312">
        <ele>1932.19995117188</ele>
        <time>2019-12-27T11:05:12.000Z</time>
      </trkpt>
      <trkpt lat="31.122054" lon="-7.921315">
        <ele>1932.40002441406</ele>
        <time>2019-12-27T11:05:14.000Z</time>
      </trkpt>
      <trkpt lat="31.122035" lon="-7.921323">
        <ele>1932.40002441406</ele>
        <time>2019-12-27T11:05:16.000Z</time>
      </trkpt>
      <trkpt lat="31.122016" lon="-7.921326">
        <ele>1932.40002441406</ele>
        <time>2019-12-27T11:05:18.000Z</time>
      </trkpt>
      <trkpt lat="31.121997" lon="-7.921322">
        <ele>1932.41981862031</ele>
        <time>2019-12-27T11:05:20.000Z</time>
      </trkpt>
      <trkpt lat="31.121978" lon="-7.92133">
        <ele>1932.59997558594</ele>
        <time>2019-12-27T11:05:22.000Z</time>
      </trkpt>
      <trkpt lat="31.121958" lon="-7.921329">
        <ele>1932.59997558594</ele>
        <time>2019-12-27T11:05:24.000Z</time>
      </trkpt>
      <trkpt lat="31.121939" lon="-7.921329">
        <ele>1932.61978187656</ele>
        <time>2019-12-27T11:05:26.000Z</time>
      </trkpt>
      <trkpt lat="31.12192" lon="-7.921331">
        <ele>1932.80004882813</ele>
        <time>2019-12-27T11:05:28.000Z</time>
      </trkpt>
      <trkpt lat="31.121898" lon="-7.921331">
        <ele>1932.80004882813</ele>
        <time>2019-12-27T11:05:30.000Z</time>
      </trkpt>
      <trkpt lat="31.121872" lon="-7.921334">
        <ele>1933</ele>
        <time>2019-12-27T11:05:33.000Z</time>
      </trkpt>
      <trkpt lat="31.121846" lon="-7.92133">
        <ele>1933.01979420625</ele>
        <time>2019-12-27T11:05:35.000Z</time>
      </trkpt>
      <trkpt lat="31.121824" lon="-7.921326">
        <ele>1933.19995117188</ele>
        <time>2019-12-27T11:05:37.000Z</time>
      </trkpt>
      <trkpt lat="31.121802" lon="-7.921329">
        <ele>1933.2197574625</ele>
        <time>2019-12-27T11:05:39.000Z</time>
      </trkpt>
      <trkpt lat="31.121773" lon="-7.921326">
        <ele>1933.40002441406</ele>
        <time>2019-12-27T11:05:41.000Z</time>
      </trkpt>
      <trkpt lat="31.12175" lon="-7.921326">
        <ele>1933.59997558594</ele>
        <time>2019-12-27T11:05:43.000Z</time>
      </trkpt>
      <trkpt lat="31.121731" lon="-7.921329">
        <ele>1933.61978187656</ele>
        <time>2019-12-27T11:05:45.000Z</time>
      </trkpt>
      <trkpt lat="31.121709" lon="-7.921337">
        <ele>1933.80004882813</ele>
        <time>2019-12-27T11:05:47.000Z</time>
      </trkpt>
      <trkpt lat="31.121686" lon="-7.921337">
        <ele>1933.81984303438</ele>
        <time>2019-12-27T11:05:49.000Z</time>
      </trkpt>
      <trkpt lat="31.121664" lon="-7.92134">
        <ele>1934</ele>
        <time>2019-12-27T11:05:51.000Z</time>
      </trkpt>
      <trkpt lat="31.121638" lon="-7.921345">
        <ele>1934.19995117188</ele>
        <time>2019-12-27T11:05:53.000Z</time>
      </trkpt>
      <trkpt lat="31.121616" lon="-7.92136">
        <ele>1934.19995117188</ele>
        <time>2019-12-27T11:05:55.000Z</time>
      </trkpt>
      <trkpt lat="31.12159" lon="-7.921371">
        <ele>1934.40002441406</ele>
        <time>2019-12-27T11:05:57.000Z</time>
      </trkpt>
      <trkpt lat="31.121571" lon="-7.921385">
        <ele>1934.40002441406</ele>
        <time>2019-12-27T11:05:59.000Z</time>
      </trkpt>
      <trkpt lat="31.121558" lon="-7.9214">
        <ele>1934.41981862031</ele>
        <time>2019-12-27T11:06:01.000Z</time>
      </trkpt>
      <trkpt lat="31.121546" lon="-7.921426">
        <ele>1934.59997558594</ele>
        <time>2019-12-27T11:06:03.000Z</time>
      </trkpt>
      <trkpt lat="31.12153" lon="-7.921448">
        <ele>1934.59997558594</ele>
        <time>2019-12-27T11:06:05.000Z</time>
      </trkpt>
      <trkpt lat="31.121514" lon="-7.921467">
        <ele>1934.59997558594</ele>
        <time>2019-12-27T11:06:07.000Z</time>
      </trkpt>
      <trkpt lat="31.121498" lon="-7.921485">
        <ele>1934.59997558594</ele>
        <time>2019-12-27T11:06:09.000Z</time>
      </trkpt>
      <trkpt lat="31.121478" lon="-7.921503">
        <ele>1934.59997558594</ele>
        <time>2019-12-27T11:06:11.000Z</time>
      </trkpt>
      <trkpt lat="31.12145" lon="-7.921522">
        <ele>1934.59997558594</ele>
        <time>2019-12-27T11:06:13.000Z</time>
      </trkpt>
      <trkpt lat="31.12143" lon="-7.921538">
        <ele>1934.59997558594</ele>
        <time>2019-12-27T11:06:15.000Z</time>
      </trkpt>
      <trkpt lat="31.121411" lon="-7.921552">
        <ele>1934.59997558594</ele>
        <time>2019-12-27T11:06:17.000Z</time>
      </trkpt>
      <trkpt lat="31.121392" lon="-7.921565">
        <ele>1934.59997558594</ele>
        <time>2019-12-27T11:06:19.000Z</time>
      </trkpt>
      <trkpt lat="31.12137" lon="-7.92157">
        <ele>1934.59997558594</ele>
        <time>2019-12-27T11:06:21.000Z</time>
      </trkpt>
      <trkpt lat="31.121344" lon="-7.921578">
        <ele>1934.59997558594</ele>
        <time>2019-12-27T11:06:23.000Z</time>
      </trkpt>
      <trkpt lat="31.121318" lon="-7.921592">
        <ele>1934.40002441406</ele>
        <time>2019-12-27T11:06:26.000Z</time>
      </trkpt>
      <trkpt lat="31.121293" lon="-7.921598">
        <ele>1934.40002441406</ele>
        <time>2019-12-27T11:06:28.000Z</time>
      </trkpt>
      <trkpt lat="31.121267" lon="-7.921603">
        <ele>1934.40002441406</ele>
        <time>2019-12-27T11:06:30.000Z</time>
      </trkpt>
      <trkpt lat="31.121245" lon="-7.921612">
        <ele>1934.40002441406</ele>
        <time>2019-12-27T11:06:32.000Z</time>
      </trkpt>
      <trkpt lat="31.121226" lon="-7.921623">
        <ele>1934.40002441406</ele>
        <time>2019-12-27T11:06:34.000Z</time>
      </trkpt>
      <trkpt lat="31.121203" lon="-7.921634">
        <ele>1934.40002441406</ele>
        <time>2019-12-27T11:06:36.000Z</time>
      </trkpt>
      <trkpt lat="31.121174" lon="-7.92164">
        <ele>1934.40002441406</ele>
        <time>2019-12-27T11:06:38.000Z</time>
      </trkpt>
      <trkpt lat="31.121155" lon="-7.921649">
        <ele>1934.40002441406</ele>
        <time>2019-12-27T11:06:40.000Z</time>
      </trkpt>
      <trkpt lat="31.121133" lon="-7.921655">
        <ele>1934.40002441406</ele>
        <time>2019-12-27T11:06:42.000Z</time>
      </trkpt>
      <trkpt lat="31.12111" lon="-7.921665">
        <ele>1934.40002441406</ele>
        <time>2019-12-27T11:06:44.000Z</time>
      </trkpt>
      <trkpt lat="31.121085" lon="-7.921672">
        <ele>1934.40002441406</ele>
        <time>2019-12-27T11:06:46.000Z</time>
      </trkpt>
      <trkpt lat="31.121062" lon="-7.921675">
        <ele>1934.40002441406</ele>
        <time>2019-12-27T11:06:48.000Z</time>
      </trkpt>
      <trkpt lat="31.121043" lon="-7.921682">
        <ele>1934.40002441406</ele>
        <time>2019-12-27T11:06:50.000Z</time>
      </trkpt>
      <trkpt lat="31.121021" lon="-7.921682">
        <ele>1934.59997558594</ele>
        <time>2019-12-27T11:06:52.000Z</time>
      </trkpt>
      <trkpt lat="31.121002" lon="-7.921688">
        <ele>1934.59997558594</ele>
        <time>2019-12-27T11:06:54.000Z</time>
      </trkpt>
      <trkpt lat="31.120982" lon="-7.921697">
        <ele>1934.59997558594</ele>
        <time>2019-12-27T11:06:56.000Z</time>
      </trkpt>
      <trkpt lat="31.120957" lon="-7.921698">
        <ele>1934.59997558594</ele>
        <time>2019-12-27T11:06:58.000Z</time>
      </trkpt>
      <trkpt lat="31.120938" lon="-7.921703">
        <ele>1934.59997558594</ele>
        <time>2019-12-27T11:07:00.000Z</time>
      </trkpt>
      <trkpt lat="31.120918" lon="-7.921714">
        <ele>1934.59997558594</ele>
        <time>2019-12-27T11:07:02.000Z</time>
      </trkpt>
      <trkpt lat="31.120896" lon="-7.921717">
        <ele>1934.61978187656</ele>
        <time>2019-12-27T11:07:04.000Z</time>
      </trkpt>
      <trkpt lat="31.120867" lon="-7.921714">
        <ele>1934.80004882813</ele>
        <time>2019-12-27T11:07:06.000Z</time>
      </trkpt>
      <trkpt lat="31.120842" lon="-7.921718">
        <ele>1934.80004882813</ele>
        <time>2019-12-27T11:07:08.000Z</time>
      </trkpt>
      <trkpt lat="31.120813" lon="-7.921706">
        <ele>1934.80004882813</ele>
        <time>2019-12-27T11:07:10.000Z</time>
      </trkpt>
      <trkpt lat="31.120784" lon="-7.92171">
        <ele>1934.80004882813</ele>
        <time>2019-12-27T11:07:12.000Z</time>
      </trkpt>
      <trkpt lat="31.120762" lon="-7.921717">
        <ele>1935</ele>
        <time>2019-12-27T11:07:14.000Z</time>
      </trkpt>
      <trkpt lat="31.120742" lon="-7.921728">
        <ele>1935</ele>
        <time>2019-12-27T11:07:16.000Z</time>
      </trkpt>
      <trkpt lat="31.120726" lon="-7.921738">
        <ele>1935</ele>
        <time>2019-12-27T11:07:18.000Z</time>
      </trkpt>
      <trkpt lat="31.120704" lon="-7.921745">
        <ele>1935</ele>
        <time>2019-12-27T11:07:20.000Z</time>
      </trkpt>
      <trkpt lat="31.120685" lon="-7.921758">
        <ele>1935.01979420625</ele>
        <time>2019-12-27T11:07:22.000Z</time>
      </trkpt>
      <trkpt lat="31.120659" lon="-7.92177">
        <ele>1935.19995117188</ele>
        <time>2019-12-27T11:07:25.000Z</time>
      </trkpt>
      <trkpt lat="31.120637" lon="-7.921778">
        <ele>1935.19995117188</ele>
        <time>2019-12-27T11:07:27.000Z</time>
      </trkpt>
      <trkpt lat="31.120614" lon="-7.921785">
        <ele>1935.19995117188</ele>
        <time>2019-12-27T11:07:29.000Z</time>
      </trkpt>
      <trkpt lat="31.120595" lon="-7.921788">
        <ele>1935.2197574625</ele>
        <time>2019-12-27T11:07:31.000Z</time>
      </trkpt>
      <trkpt lat="31.120576" lon="-7.921794">
        <ele>1935.40002441406</ele>
        <time>2019-12-27T11:07:33.000Z</time>
      </trkpt>
      <trkpt lat="31.12055" lon="-7.921798">
        <ele>1935.40002441406</ele>
        <time>2019-12-27T11:07:35.000Z</time>
      </trkpt>
      <trkpt lat="31.120531" lon="-7.921808">
        <ele>1935.40002441406</ele>
        <time>2019-12-27T11:07:37.000Z</time>
      </trkpt>
      <trkpt lat="31.120506" lon="-7.921805">
        <ele>1935.40002441406</ele>
        <time>2019-12-27T11:07:39.000Z</time>
      </trkpt>
      <trkpt lat="31.120486" lon="-7.921808">
        <ele>1935.40002441406</ele>
        <time>2019-12-27T11:07:41.000Z</time>
      </trkpt>
      <trkpt lat="31.120467" lon="-7.921815">
        <ele>1935.40002441406</ele>
        <time>2019-12-27T11:07:43.000Z</time>
      </trkpt>
      <trkpt lat="31.120448" lon="-7.921815">
        <ele>1935.40002441406</ele>
        <time>2019-12-27T11:07:45.000Z</time>
      </trkpt>
      <trkpt lat="31.120422" lon="-7.921815">
        <ele>1935.40002441406</ele>
        <time>2019-12-27T11:07:47.000Z</time>
      </trkpt>
      <trkpt lat="31.120397" lon="-7.92181">
        <ele>1935.40002441406</ele>
        <time>2019-12-27T11:07:49.000Z</time>
      </trkpt>
      <trkpt lat="31.120378" lon="-7.92181">
        <ele>1935.40002441406</ele>
        <time>2019-12-27T11:07:51.000Z</time>
      </trkpt>
      <trkpt lat="31.120355" lon="-7.921815">
        <ele>1935.40002441406</ele>
        <time>2019-12-27T11:07:53.000Z</time>
      </trkpt>
      <trkpt lat="31.12033" lon="-7.921818">
        <ele>1935.40002441406</ele>
        <time>2019-12-27T11:07:55.000Z</time>
      </trkpt>
      <trkpt lat="31.12031" lon="-7.921822">
        <ele>1935.40002441406</ele>
        <time>2019-12-27T11:07:57.000Z</time>
      </trkpt>
      <trkpt lat="31.120291" lon="-7.921835">
        <ele>1935.40002441406</ele>
        <time>2019-12-27T11:07:59.000Z</time>
      </trkpt>
      <trkpt lat="31.120272" lon="-7.921837">
        <ele>1935.40002441406</ele>
        <time>2019-12-27T11:08:01.000Z</time>
      </trkpt>
      <trkpt lat="31.120253" lon="-7.921837">
        <ele>1935.40002441406</ele>
        <time>2019-12-27T11:08:03.000Z</time>
      </trkpt>
      <trkpt lat="31.120227" lon="-7.921834">
        <ele>1935.19995117188</ele>
        <time>2019-12-27T11:08:05.000Z</time>
      </trkpt>
      <trkpt lat="31.120202" lon="-7.921822">
        <ele>1935.19995117188</ele>
        <time>2019-12-27T11:08:07.000Z</time>
      </trkpt>
      <trkpt lat="31.120176" lon="-7.921815">
        <ele>1935.19995117188</ele>
        <time>2019-12-27T11:08:09.000Z</time>
      </trkpt>
      <trkpt lat="31.12015" lon="-7.921811">
        <ele>1935.40002441406</ele>
        <time>2019-12-27T11:08:11.000Z</time>
      </trkpt>
      <trkpt lat="31.120128" lon="-7.921803">
        <ele>1935.40002441406</ele>
        <time>2019-12-27T11:08:13.000Z</time>
      </trkpt>
      <trkpt lat="31.120102" lon="-7.921797">
        <ele>1935.40002441406</ele>
        <time>2019-12-27T11:08:15.000Z</time>
      </trkpt>
      <trkpt lat="31.12008" lon="-7.92179">
        <ele>1935.40002441406</ele>
        <time>2019-12-27T11:08:18.000Z</time>
      </trkpt>
      <trkpt lat="31.120064" lon="-7.921778">
        <ele>1935.40002441406</ele>
        <time>2019-12-27T11:08:20.000Z</time>
      </trkpt>
      <trkpt lat="31.120038" lon="-7.921763">
        <ele>1935.59997558594</ele>
        <time>2019-12-27T11:08:23.000Z</time>
      </trkpt>
      <trkpt lat="31.120019" lon="-7.92175">
        <ele>1935.59997558594</ele>
        <time>2019-12-27T11:08:25.000Z</time>
      </trkpt>
      <trkpt lat="31.12" lon="-7.921746">
        <ele>1935.80004882813</ele>
        <time>2019-12-27T11:08:29.000Z</time>
      </trkpt>
      <trkpt lat="31.119981" lon="-7.921728">
        <ele>1936.2197574625</ele>
        <time>2019-12-27T11:08:41.000Z</time>
      </trkpt>
      <trkpt lat="31.119962" lon="-7.921718">
        <ele>1936.40002441406</ele>
        <time>2019-12-27T11:08:43.000Z</time>
      </trkpt>
      <trkpt lat="31.119933" lon="-7.92171">
        <ele>1936.41963857184</ele>
        <time>2019-12-27T11:08:45.000Z</time>
      </trkpt>
      <trkpt lat="31.119898" lon="-7.921706">
        <ele>1936.59997558594</ele>
        <time>2019-12-27T11:08:47.000Z</time>
      </trkpt>
      <trkpt lat="31.119869" lon="-7.92169">
        <ele>1936.61978187656</ele>
        <time>2019-12-27T11:08:49.000Z</time>
      </trkpt>
      <trkpt lat="31.119843" lon="-7.921682">
        <ele>1936.80004882813</ele>
        <time>2019-12-27T11:08:51.000Z</time>
      </trkpt>
      <trkpt lat="31.119821" lon="-7.92168">
        <ele>1936.80004882813</ele>
        <time>2019-12-27T11:08:53.000Z</time>
      </trkpt>
      <trkpt lat="31.119795" lon="-7.921674">
        <ele>1937</ele>
        <time>2019-12-27T11:08:55.000Z</time>
      </trkpt>
      <trkpt lat="31.11977" lon="-7.921663">
        <ele>1937</ele>
        <time>2019-12-27T11:08:57.000Z</time>
      </trkpt>
      <trkpt lat="31.119744" lon="-7.921662">
        <ele>1937.01979420625</ele>
        <time>2019-12-27T11:08:59.000Z</time>
      </trkpt>
      <trkpt lat="31.119722" lon="-7.921662">
        <ele>1937.19995117188</ele>
        <time>2019-12-27T11:09:01.000Z</time>
      </trkpt>
      <trkpt lat="31.119699" lon="-7.921662">
        <ele>1937.19995117188</ele>
        <time>2019-12-27T11:09:03.000Z</time>
      </trkpt>
      <trkpt lat="31.119674" lon="-7.92165">
        <ele>1937.2197574625</ele>
        <time>2019-12-27T11:09:05.000Z</time>
      </trkpt>
      <trkpt lat="31.119651" lon="-7.921646">
        <ele>1937.40002441406</ele>
        <time>2019-12-27T11:09:07.000Z</time>
      </trkpt>
      <trkpt lat="31.119626" lon="-7.921635">
        <ele>1937.40002441406</ele>
        <time>2019-12-27T11:09:09.000Z</time>
      </trkpt>
      <trkpt lat="31.119603" lon="-7.92162">
        <ele>1937.59997558594</ele>
        <time>2019-12-27T11:09:11.000Z</time>
      </trkpt>
      <trkpt lat="31.119578" lon="-7.921612">
        <ele>1937.59997558594</ele>
        <time>2019-12-27T11:09:13.000Z</time>
      </trkpt>
      <trkpt lat="31.119552" lon="-7.921617">
        <ele>1937.80004882813</ele>
        <time>2019-12-27T11:09:15.000Z</time>
      </trkpt>
      <trkpt lat="31.119526" lon="-7.92161">
        <ele>1937.80004882813</ele>
        <time>2019-12-27T11:09:17.000Z</time>
      </trkpt>
      <trkpt lat="31.119504" lon="-7.921606">
        <ele>1937.81984303438</ele>
        <time>2019-12-27T11:09:19.000Z</time>
      </trkpt>
      <trkpt lat="31.119485" lon="-7.921602">
        <ele>1938</ele>
        <time>2019-12-27T11:09:21.000Z</time>
      </trkpt>
      <trkpt lat="31.119459" lon="-7.921603">
        <ele>1938.01979420625</ele>
        <time>2019-12-27T11:09:23.000Z</time>
      </trkpt>
      <trkpt lat="31.119434" lon="-7.921615">
        <ele>1938.19995117188</ele>
        <time>2019-12-27T11:09:25.000Z</time>
      </trkpt>
      <trkpt lat="31.119405" lon="-7.921615">
        <ele>1938.19995117188</ele>
        <time>2019-12-27T11:09:27.000Z</time>
      </trkpt>
      <trkpt lat="31.119382" lon="-7.921612">
        <ele>1938.40002441406</ele>
        <time>2019-12-27T11:09:29.000Z</time>
      </trkpt>
      <trkpt lat="31.119354" lon="-7.92161">
        <ele>1938.40002441406</ele>
        <time>2019-12-27T11:09:31.000Z</time>
      </trkpt>
      <trkpt lat="31.119334" lon="-7.92162">
        <ele>1938.40002441406</ele>
        <time>2019-12-27T11:09:33.000Z</time>
      </trkpt>
      <trkpt lat="31.119315" lon="-7.921617">
        <ele>1938.59997558594</ele>
        <time>2019-12-27T11:09:35.000Z</time>
      </trkpt>
      <trkpt lat="31.119293" lon="-7.92161">
        <ele>1938.59997558594</ele>
        <time>2019-12-27T11:09:37.000Z</time>
      </trkpt>
      <trkpt lat="31.119274" lon="-7.921622">
        <ele>1938.59997558594</ele>
        <time>2019-12-27T11:09:39.000Z</time>
      </trkpt>
      <trkpt lat="31.119254" lon="-7.921638">
        <ele>1938.80004882813</ele>
        <time>2019-12-27T11:09:42.000Z</time>
      </trkpt>
      <trkpt lat="31.119242" lon="-7.921657">
        <ele>1938.80004882813</ele>
        <time>2019-12-27T11:09:44.000Z</time>
      </trkpt>
      <trkpt lat="31.119226" lon="-7.921672">
        <ele>1938.80004882813</ele>
        <time>2019-12-27T11:09:46.000Z</time>
      </trkpt>
      <trkpt lat="31.11921" lon="-7.921686">
        <ele>1938.80004882813</ele>
        <time>2019-12-27T11:09:48.000Z</time>
      </trkpt>
      <trkpt lat="31.119187" lon="-7.921697">
        <ele>1938.80004882813</ele>
        <time>2019-12-27T11:09:50.000Z</time>
      </trkpt>
      <trkpt lat="31.119165" lon="-7.921706">
        <ele>1938.80004882813</ele>
        <time>2019-12-27T11:09:52.000Z</time>
      </trkpt>
      <trkpt lat="31.119146" lon="-7.921714">
        <ele>1938.81984303438</ele>
        <time>2019-12-27T11:09:54.000Z</time>
      </trkpt>
      <trkpt lat="31.119117" lon="-7.921708">
        <ele>1939</ele>
        <time>2019-12-27T11:09:57.000Z</time>
      </trkpt>
      <trkpt lat="31.119094" lon="-7.921694">
        <ele>1939</ele>
        <time>2019-12-27T11:09:59.000Z</time>
      </trkpt>
      <trkpt lat="31.119069" lon="-7.921678">
        <ele>1939</ele>
        <time>2019-12-27T11:10:01.000Z</time>
      </trkpt>
      <trkpt lat="31.11905" lon="-7.921665">
        <ele>1939</ele>
        <time>2019-12-27T11:10:03.000Z</time>
      </trkpt>
      <trkpt lat="31.119024" lon="-7.921646">
        <ele>1939</ele>
        <time>2019-12-27T11:10:05.000Z</time>
      </trkpt>
      <trkpt lat="31.119002" lon="-7.921629">
        <ele>1939</ele>
        <time>2019-12-27T11:10:07.000Z</time>
      </trkpt>
      <trkpt lat="31.118986" lon="-7.921614">
        <ele>1939</ele>
        <time>2019-12-27T11:10:09.000Z</time>
      </trkpt>
      <trkpt lat="31.11896" lon="-7.9216">
        <ele>1939</ele>
        <time>2019-12-27T11:10:11.000Z</time>
      </trkpt>
      <trkpt lat="31.118941" lon="-7.921593">
        <ele>1939</ele>
        <time>2019-12-27T11:10:13.000Z</time>
      </trkpt>
      <trkpt lat="31.118918" lon="-7.921589">
        <ele>1939</ele>
        <time>2019-12-27T11:10:15.000Z</time>
      </trkpt>
      <trkpt lat="31.118899" lon="-7.921583">
        <ele>1939</ele>
        <time>2019-12-27T11:10:17.000Z</time>
      </trkpt>
      <trkpt lat="31.118877" lon="-7.921575">
        <ele>1939</ele>
        <time>2019-12-27T11:10:19.000Z</time>
      </trkpt>
      <trkpt lat="31.118851" lon="-7.921572">
        <ele>1939.19995117188</ele>
        <time>2019-12-27T11:10:22.000Z</time>
      </trkpt>
      <trkpt lat="31.118832" lon="-7.921572">
        <ele>1939.19995117188</ele>
        <time>2019-12-27T11:10:24.000Z</time>
      </trkpt>
      <trkpt lat="31.118803" lon="-7.921568">
        <ele>1939.2197574625</ele>
        <time>2019-12-27T11:10:26.000Z</time>
      </trkpt>
      <trkpt lat="31.118778" lon="-7.921568">
        <ele>1939.40002441406</ele>
        <time>2019-12-27T11:10:29.000Z</time>
      </trkpt>
      <trkpt lat="31.118755" lon="-7.921566">
        <ele>1939.41981862031</ele>
        <time>2019-12-27T11:10:31.000Z</time>
      </trkpt>
      <trkpt lat="31.118739" lon="-7.921577">
        <ele>1939.59997558594</ele>
        <time>2019-12-27T11:10:33.000Z</time>
      </trkpt>
      <trkpt lat="31.11872" lon="-7.921572">
        <ele>1939.59997558594</ele>
        <time>2019-12-27T11:10:35.000Z</time>
      </trkpt>
      <trkpt lat="31.118698" lon="-7.921563">
        <ele>1939.80004882813</ele>
        <time>2019-12-27T11:10:37.000Z</time>
      </trkpt>
      <trkpt lat="31.118678" lon="-7.921557">
        <ele>1939.80004882813</ele>
        <time>2019-12-27T11:10:39.000Z</time>
      </trkpt>
      <trkpt lat="31.118653" lon="-7.921543">
        <ele>1939.80004882813</ele>
        <time>2019-12-27T11:10:41.000Z</time>
      </trkpt>
      <trkpt lat="31.11863" lon="-7.921528">
        <ele>1940</ele>
        <time>2019-12-27T11:10:43.000Z</time>
      </trkpt>
      <trkpt lat="31.118605" lon="-7.92152">
        <ele>1940</ele>
        <time>2019-12-27T11:10:45.000Z</time>
      </trkpt>
      <trkpt lat="31.118579" lon="-7.92151">
        <ele>1940.19995117188</ele>
        <time>2019-12-27T11:10:48.000Z</time>
      </trkpt>
      <trkpt lat="31.11856" lon="-7.921507">
        <ele>1940.19995117188</ele>
        <time>2019-12-27T11:10:50.000Z</time>
      </trkpt>
      <trkpt lat="31.118534" lon="-7.921507">
        <ele>1940.2197574625</ele>
        <time>2019-12-27T11:10:52.000Z</time>
      </trkpt>
      <trkpt lat="31.118515" lon="-7.921494">
        <ele>1940.40002441406</ele>
        <time>2019-12-27T11:10:54.000Z</time>
      </trkpt>
      <trkpt lat="31.118499" lon="-7.921483">
        <ele>1940.40002441406</ele>
        <time>2019-12-27T11:10:56.000Z</time>
      </trkpt>
      <trkpt lat="31.11848" lon="-7.921477">
        <ele>1940.59997558594</ele>
        <time>2019-12-27T11:10:59.000Z</time>
      </trkpt>
      <trkpt lat="31.118461" lon="-7.921462">
        <ele>1940.59997558594</ele>
        <time>2019-12-27T11:11:01.000Z</time>
      </trkpt>
      <trkpt lat="31.118445" lon="-7.921451">
        <ele>1940.61978187656</ele>
        <time>2019-12-27T11:11:03.000Z</time>
      </trkpt>
      <trkpt lat="31.118426" lon="-7.921438">
        <ele>1940.80004882813</ele>
        <time>2019-12-27T11:11:05.000Z</time>
      </trkpt>
      <trkpt lat="31.11841" lon="-7.921426">
        <ele>1940.81984303438</ele>
        <time>2019-12-27T11:11:07.000Z</time>
      </trkpt>
      <trkpt lat="31.11839" lon="-7.92141">
        <ele>1941</ele>
        <time>2019-12-27T11:11:09.000Z</time>
      </trkpt>
      <trkpt lat="31.118368" lon="-7.921408">
        <ele>1941</ele>
        <time>2019-12-27T11:11:11.000Z</time>
      </trkpt>
      <trkpt lat="31.118352" lon="-7.921397">
        <ele>1941.19995117188</ele>
        <time>2019-12-27T11:11:13.000Z</time>
      </trkpt>
      <trkpt lat="31.118333" lon="-7.921386">
        <ele>1941.19995117188</ele>
        <time>2019-12-27T11:11:15.000Z</time>
      </trkpt>
      <trkpt lat="31.11831" lon="-7.921383">
        <ele>1941.40002441406</ele>
        <time>2019-12-27T11:11:17.000Z</time>
      </trkpt>
      <trkpt lat="31.118291" lon="-7.921374">
        <ele>1941.41981862031</ele>
        <time>2019-12-27T11:11:19.000Z</time>
      </trkpt>
      <trkpt lat="31.118266" lon="-7.921362">
        <ele>1941.59997558594</ele>
        <time>2019-12-27T11:11:21.000Z</time>
      </trkpt>
      <trkpt lat="31.118246" lon="-7.921351">
        <ele>1941.61978187656</ele>
        <time>2019-12-27T11:11:23.000Z</time>
      </trkpt>
      <trkpt lat="31.118218" lon="-7.92134">
        <ele>1941.81984303438</ele>
        <time>2019-12-27T11:11:26.000Z</time>
      </trkpt>
      <trkpt lat="31.118195" lon="-7.92133">
        <ele>1942</ele>
        <time>2019-12-27T11:11:28.000Z</time>
      </trkpt>
      <trkpt lat="31.118176" lon="-7.92132">
        <ele>1942.01979420625</ele>
        <time>2019-12-27T11:11:30.000Z</time>
      </trkpt>
      <trkpt lat="31.118154" lon="-7.92131">
        <ele>1942.19995117188</ele>
        <time>2019-12-27T11:11:32.000Z</time>
      </trkpt>
      <trkpt lat="31.118128" lon="-7.92129">
        <ele>1942.2197574625</ele>
        <time>2019-12-27T11:11:34.000Z</time>
      </trkpt>
      <trkpt lat="31.118109" lon="-7.921282">
        <ele>1942.40002441406</ele>
        <time>2019-12-27T11:11:36.000Z</time>
      </trkpt>
      <trkpt lat="31.118086" lon="-7.921265">
        <ele>1942.41981862031</ele>
        <time>2019-12-27T11:11:38.000Z</time>
      </trkpt>
      <trkpt lat="31.11807" lon="-7.921249">
        <ele>1942.59997558594</ele>
        <time>2019-12-27T11:11:40.000Z</time>
      </trkpt>
      <trkpt lat="31.118051" lon="-7.921237">
        <ele>1942.80004882813</ele>
        <time>2019-12-27T11:11:42.000Z</time>
      </trkpt>
      <trkpt lat="31.118032" lon="-7.921223">
        <ele>1942.80004882813</ele>
        <time>2019-12-27T11:11:44.000Z</time>
      </trkpt>
      <trkpt lat="31.118016" lon="-7.921206">
        <ele>1942.81984303438</ele>
        <time>2019-12-27T11:11:46.000Z</time>
      </trkpt>
      <trkpt lat="31.117994" lon="-7.921185">
        <ele>1943</ele>
        <time>2019-12-27T11:11:48.000Z</time>
      </trkpt>
      <trkpt lat="31.117978" lon="-7.921172">
        <ele>1943</ele>
        <time>2019-12-27T11:11:50.000Z</time>
      </trkpt>
      <trkpt lat="31.117958" lon="-7.921155">
        <ele>1943.19995117188</ele>
        <time>2019-12-27T11:11:52.000Z</time>
      </trkpt>
      <trkpt lat="31.117942" lon="-7.921142">
        <ele>1943.19995117188</ele>
        <time>2019-12-27T11:11:54.000Z</time>
      </trkpt>
      <trkpt lat="31.117926" lon="-7.921127">
        <ele>1943.19995117188</ele>
        <time>2019-12-27T11:11:56.000Z</time>
      </trkpt>
      <trkpt lat="31.117907" lon="-7.92111">
        <ele>1943.19995117188</ele>
        <time>2019-12-27T11:11:58.000Z</time>
      </trkpt>
      <trkpt lat="31.117882" lon="-7.921107">
        <ele>1943.19995117188</ele>
        <time>2019-12-27T11:12:01.000Z</time>
      </trkpt>
      <trkpt lat="31.117856" lon="-7.921103">
        <ele>1943.40002441406</ele>
        <time>2019-12-27T11:12:04.000Z</time>
      </trkpt>
      <trkpt lat="31.117827" lon="-7.921083">
        <ele>1943.40002441406</ele>
        <time>2019-12-27T11:12:06.000Z</time>
      </trkpt>
      <trkpt lat="31.117805" lon="-7.921068">
        <ele>1943.40002441406</ele>
        <time>2019-12-27T11:12:08.000Z</time>
      </trkpt>
      <trkpt lat="31.117786" lon="-7.921054">
        <ele>1943.40002441406</ele>
        <time>2019-12-27T11:12:10.000Z</time>
      </trkpt>
      <trkpt lat="31.117763" lon="-7.921043">
        <ele>1943.40002441406</ele>
        <time>2019-12-27T11:12:13.000Z</time>
      </trkpt>
      <trkpt lat="31.117744" lon="-7.921026">
        <ele>1943.38021812344</ele>
        <time>2019-12-27T11:12:15.000Z</time>
      </trkpt>
      <trkpt lat="31.117718" lon="-7.921017">
        <ele>1943.19995117188</ele>
        <time>2019-12-27T11:12:17.000Z</time>
      </trkpt>
      <trkpt lat="31.117699" lon="-7.921025">
        <ele>1943.19995117188</ele>
        <time>2019-12-27T11:12:19.000Z</time>
      </trkpt>
      <trkpt lat="31.117677" lon="-7.921014">
        <ele>1943.19995117188</ele>
        <time>2019-12-27T11:12:21.000Z</time>
      </trkpt>
      <trkpt lat="31.117654" lon="-7.921018">
        <ele>1943</ele>
        <time>2019-12-27T11:12:24.000Z</time>
      </trkpt>
      <trkpt lat="31.117635" lon="-7.921014">
        <ele>1943</ele>
        <time>2019-12-27T11:12:26.000Z</time>
      </trkpt>
      <trkpt lat="31.117613" lon="-7.921018">
        <ele>1943</ele>
        <time>2019-12-27T11:12:29.000Z</time>
      </trkpt>
      <trkpt lat="31.117587" lon="-7.921006">
        <ele>1943</ele>
        <time>2019-12-27T11:12:32.000Z</time>
      </trkpt>
      <trkpt lat="31.117558" lon="-7.921006">
        <ele>1942.98020579375</ele>
        <time>2019-12-27T11:12:35.000Z</time>
      </trkpt>
      <trkpt lat="31.117539" lon="-7.921002">
        <ele>1942.80004882813</ele>
        <time>2019-12-27T11:12:37.000Z</time>
      </trkpt>
      <trkpt lat="31.117517" lon="-7.920997">
        <ele>1942.80004882813</ele>
        <time>2019-12-27T11:12:39.000Z</time>
      </trkpt>
      <trkpt lat="31.117485" lon="-7.920983">
        <ele>1942.80004882813</ele>
        <time>2019-12-27T11:12:41.000Z</time>
      </trkpt>
      <trkpt lat="31.117462" lon="-7.920972">
        <ele>1942.80004882813</ele>
        <time>2019-12-27T11:12:43.000Z</time>
      </trkpt>
      <trkpt lat="31.11744" lon="-7.920969">
        <ele>1942.80004882813</ele>
        <time>2019-12-27T11:12:45.000Z</time>
      </trkpt>
      <trkpt lat="31.117418" lon="-7.920969">
        <ele>1942.80004882813</ele>
        <time>2019-12-27T11:12:48.000Z</time>
      </trkpt>
      <trkpt lat="31.117398" lon="-7.920977">
        <ele>1943</ele>
        <time>2019-12-27T11:12:52.000Z</time>
      </trkpt>
      <trkpt lat="31.117379" lon="-7.920978">
        <ele>1943</ele>
        <time>2019-12-27T11:12:56.000Z</time>
      </trkpt>
      <trkpt lat="31.11736" lon="-7.920975">
        <ele>1943</ele>
        <time>2019-12-27T11:12:59.000Z</time>
      </trkpt>
      <trkpt lat="31.117338" lon="-7.920962">
        <ele>1942.7802425375</ele>
        <time>2019-12-27T11:13:02.000Z</time>
      </trkpt>
      <trkpt lat="31.117318" lon="-7.920937">
        <ele>1942.58018137969</ele>
        <time>2019-12-27T11:13:04.000Z</time>
      </trkpt>
      <trkpt lat="31.117293" lon="-7.920922">
        <ele>1942.18015696563</ele>
        <time>2019-12-27T11:13:07.000Z</time>
      </trkpt>
      <trkpt lat="31.117264" lon="-7.920903">
        <ele>1941.56037508906</ele>
        <time>2019-12-27T11:13:10.000Z</time>
      </trkpt>
      <trkpt lat="31.117242" lon="-7.920893">
        <ele>1940.98020579375</ele>
        <time>2019-12-27T11:13:12.000Z</time>
      </trkpt>
      <trkpt lat="31.117222" lon="-7.92089">
        <ele>1940.38021812344</ele>
        <time>2019-12-27T11:13:14.000Z</time>
      </trkpt>
      <trkpt lat="31.1172" lon="-7.920895">
        <ele>1939.7802425375</ele>
        <time>2019-12-27T11:13:16.000Z</time>
      </trkpt>
      <trkpt lat="31.117181" lon="-7.92089">
        <ele>1939.18015696563</ele>
        <time>2019-12-27T11:13:18.000Z</time>
      </trkpt>
      <trkpt lat="31.117155" lon="-7.920889">
        <ele>1938.58018137969</ele>
        <time>2019-12-27T11:13:20.000Z</time>
      </trkpt>
      <trkpt lat="31.117133" lon="-7.92091">
        <ele>1938.16036275937</ele>
        <time>2019-12-27T11:13:22.000Z</time>
      </trkpt>
      <trkpt lat="31.117107" lon="-7.9209">
        <ele>1937.58018137969</ele>
        <time>2019-12-27T11:13:24.000Z</time>
      </trkpt>
      <trkpt lat="31.117082" lon="-7.920886">
        <ele>1937.18015696563</ele>
        <time>2019-12-27T11:13:26.000Z</time>
      </trkpt>
      <trkpt lat="31.117062" lon="-7.92088">
        <ele>1936.80004882813</ele>
        <time>2019-12-27T11:13:28.000Z</time>
      </trkpt>
      <trkpt lat="31.117046" lon="-7.920893">
        <ele>1936.59997558594</ele>
        <time>2019-12-27T11:13:32.000Z</time>
      </trkpt>
      <trkpt lat="31.117024" lon="-7.92088">
        <ele>1936.80004882813</ele>
        <time>2019-12-27T11:13:37.000Z</time>
      </trkpt>
      <trkpt lat="31.117011" lon="-7.920863">
        <ele>1937.01979420625</ele>
        <time>2019-12-27T11:13:39.000Z</time>
      </trkpt>
      <trkpt lat="31.116989" lon="-7.920852">
        <ele>1937.40002441406</ele>
        <time>2019-12-27T11:13:41.000Z</time>
      </trkpt>
      <trkpt lat="31.116963" lon="-7.920842">
        <ele>1937.61978187656</ele>
        <time>2019-12-27T11:13:43.000Z</time>
      </trkpt>
      <trkpt lat="31.116941" lon="-7.920817">
        <ele>1938.01979420625</ele>
        <time>2019-12-27T11:13:45.000Z</time>
      </trkpt>
      <trkpt lat="31.116918" lon="-7.9208">
        <ele>1938.41981862031</ele>
        <time>2019-12-27T11:13:47.000Z</time>
      </trkpt>
      <trkpt lat="31.116896" lon="-7.920794">
        <ele>1938.81984303438</ele>
        <time>2019-12-27T11:13:49.000Z</time>
      </trkpt>
      <trkpt lat="31.116874" lon="-7.920777">
        <ele>1939.43962491094</ele>
        <time>2019-12-27T11:13:52.000Z</time>
      </trkpt>
      <trkpt lat="31.116858" lon="-7.920762">
        <ele>1940.01979420625</ele>
        <time>2019-12-27T11:13:54.000Z</time>
      </trkpt>
      <trkpt lat="31.116842" lon="-7.920748">
        <ele>1940.41981862031</ele>
        <time>2019-12-27T11:13:56.000Z</time>
      </trkpt>
      <trkpt lat="31.116816" lon="-7.920735">
        <ele>1940.81984303438</ele>
        <time>2019-12-27T11:13:58.000Z</time>
      </trkpt>
      <trkpt lat="31.116797" lon="-7.920734">
        <ele>1941.2197574625</ele>
        <time>2019-12-27T11:14:00.000Z</time>
      </trkpt>
      <trkpt lat="31.116781" lon="-7.920722">
        <ele>1941.61978187656</ele>
        <time>2019-12-27T11:14:02.000Z</time>
      </trkpt>
      <trkpt lat="31.116765" lon="-7.920711">
        <ele>1942.01979420625</ele>
        <time>2019-12-27T11:14:04.000Z</time>
      </trkpt>
      <trkpt lat="31.116746" lon="-7.920697">
        <ele>1942.41981862031</ele>
        <time>2019-12-27T11:14:06.000Z</time>
      </trkpt>
      <trkpt lat="31.116726" lon="-7.920678">
        <ele>1942.81984303438</ele>
        <time>2019-12-27T11:14:08.000Z</time>
      </trkpt>
      <trkpt lat="31.116704" lon="-7.920666">
        <ele>1943.19995117188</ele>
        <time>2019-12-27T11:14:10.000Z</time>
      </trkpt>
      <trkpt lat="31.116685" lon="-7.920658">
        <ele>1943.59997558594</ele>
        <time>2019-12-27T11:14:12.000Z</time>
      </trkpt>
      <trkpt lat="31.116662" lon="-7.92064">
        <ele>1944.01979420625</ele>
        <time>2019-12-27T11:14:15.000Z</time>
      </trkpt>
      <trkpt lat="31.11664" lon="-7.920629">
        <ele>1944.41981862031</ele>
        <time>2019-12-27T11:14:17.000Z</time>
      </trkpt>
      <trkpt lat="31.116618" lon="-7.92062">
        <ele>1944.80004882813</ele>
        <time>2019-12-27T11:14:19.000Z</time>
      </trkpt>
      <trkpt lat="31.116595" lon="-7.920615">
        <ele>1945.19995117188</ele>
        <time>2019-12-27T11:14:21.000Z</time>
      </trkpt>
      <trkpt lat="31.116579" lon="-7.920605">
        <ele>1945.41981862031</ele>
        <time>2019-12-27T11:14:23.000Z</time>
      </trkpt>
      <trkpt lat="31.11656" lon="-7.920618">
        <ele>1945.81984303438</ele>
        <time>2019-12-27T11:14:25.000Z</time>
      </trkpt>
      <trkpt lat="31.116534" lon="-7.920626">
        <ele>1946.41981862031</ele>
        <time>2019-12-27T11:14:28.000Z</time>
      </trkpt>
      <trkpt lat="31.116515" lon="-7.920637">
        <ele>1946.81984303438</ele>
        <time>2019-12-27T11:14:31.000Z</time>
      </trkpt>
      <trkpt lat="31.116496" lon="-7.92064">
        <ele>1947.19995117188</ele>
        <time>2019-12-27T11:14:33.000Z</time>
      </trkpt>
      <trkpt lat="31.116474" lon="-7.92064">
        <ele>1947.41981862031</ele>
        <time>2019-12-27T11:14:35.000Z</time>
      </trkpt>
      <trkpt lat="31.116448" lon="-7.92063">
        <ele>1948</ele>
        <time>2019-12-27T11:14:38.000Z</time>
      </trkpt>
      <trkpt lat="31.116426" lon="-7.920625">
        <ele>1948.2197574625</ele>
        <time>2019-12-27T11:14:40.000Z</time>
      </trkpt>
      <trkpt lat="31.116403" lon="-7.920623">
        <ele>1948.41981862031</ele>
        <time>2019-12-27T11:14:42.000Z</time>
      </trkpt>
      <trkpt lat="31.116374" lon="-7.920615">
        <ele>1948.61978187656</ele>
        <time>2019-12-27T11:14:44.000Z</time>
      </trkpt>
      <trkpt lat="31.116355" lon="-7.920605">
        <ele>1948.81984303438</ele>
        <time>2019-12-27T11:14:46.000Z</time>
      </trkpt>
      <trkpt lat="31.116336" lon="-7.9206">
        <ele>1949.01979420625</ele>
        <time>2019-12-27T11:14:48.000Z</time>
      </trkpt>
      <trkpt lat="31.116314" lon="-7.920609">
        <ele>1949.41981862031</ele>
        <time>2019-12-27T11:14:51.000Z</time>
      </trkpt>
      <trkpt lat="31.116288" lon="-7.920605">
        <ele>1949.80004882813</ele>
        <time>2019-12-27T11:14:54.000Z</time>
      </trkpt>
      <trkpt lat="31.116269" lon="-7.9206">
        <ele>1950</ele>
        <time>2019-12-27T11:14:56.000Z</time>
      </trkpt>
      <trkpt lat="31.11625" lon="-7.920594">
        <ele>1950.01979420625</ele>
        <time>2019-12-27T11:14:58.000Z</time>
      </trkpt>
      <trkpt lat="31.11623" lon="-7.920575">
        <ele>1950.40002441406</ele>
        <time>2019-12-27T11:15:00.000Z</time>
      </trkpt>
      <trkpt lat="31.116214" lon="-7.920554">
        <ele>1950.41981862031</ele>
        <time>2019-12-27T11:15:02.000Z</time>
      </trkpt>
      <trkpt lat="31.116198" lon="-7.920542">
        <ele>1950.61978187656</ele>
        <time>2019-12-27T11:15:04.000Z</time>
      </trkpt>
      <trkpt lat="31.116176" lon="-7.920529">
        <ele>1950.81984303438</ele>
        <time>2019-12-27T11:15:08.000Z</time>
      </trkpt>
      <trkpt lat="31.116157" lon="-7.920512">
        <ele>1951</ele>
        <time>2019-12-27T11:15:10.000Z</time>
      </trkpt>
      <trkpt lat="31.116138" lon="-7.92049">
        <ele>1951.01979420625</ele>
        <time>2019-12-27T11:15:12.000Z</time>
      </trkpt>
      <trkpt lat="31.116125" lon="-7.920462">
        <ele>1951.19995117188</ele>
        <time>2019-12-27T11:15:14.000Z</time>
      </trkpt>
      <trkpt lat="31.116122" lon="-7.920434">
        <ele>1951.19995117188</ele>
        <time>2019-12-27T11:15:16.000Z</time>
      </trkpt>
      <trkpt lat="31.116118" lon="-7.920411">
        <ele>1951.40002441406</ele>
        <time>2019-12-27T11:15:18.000Z</time>
      </trkpt>
      <trkpt lat="31.116093" lon="-7.920397">
        <ele>1951.40002441406</ele>
        <time>2019-12-27T11:15:21.000Z</time>
      </trkpt>
      <trkpt lat="31.116067" lon="-7.920403">
        <ele>1951.40002441406</ele>
        <time>2019-12-27T11:15:23.000Z</time>
      </trkpt>
      <trkpt lat="31.116048" lon="-7.920411">
        <ele>1951.59997558594</ele>
        <time>2019-12-27T11:15:25.000Z</time>
      </trkpt>
      <trkpt lat="31.116026" lon="-7.920397">
        <ele>1951.59997558594</ele>
        <time>2019-12-27T11:15:27.000Z</time>
      </trkpt>
      <trkpt lat="31.116006" lon="-7.92039">
        <ele>1951.59997558594</ele>
        <time>2019-12-27T11:15:29.000Z</time>
      </trkpt>
      <trkpt lat="31.115984" lon="-7.920391">
        <ele>1951.59997558594</ele>
        <time>2019-12-27T11:15:31.000Z</time>
      </trkpt>
      <trkpt lat="31.115958" lon="-7.920382">
        <ele>1951.59997558594</ele>
        <time>2019-12-27T11:15:34.000Z</time>
      </trkpt>
      <trkpt lat="31.115939" lon="-7.920368">
        <ele>1951.59997558594</ele>
        <time>2019-12-27T11:15:36.000Z</time>
      </trkpt>
      <trkpt lat="31.115923" lon="-7.920348">
        <ele>1951.61978187656</ele>
        <time>2019-12-27T11:15:38.000Z</time>
      </trkpt>
      <trkpt lat="31.115898" lon="-7.920338">
        <ele>1951.80004882813</ele>
        <time>2019-12-27T11:15:40.000Z</time>
      </trkpt>
      <trkpt lat="31.115869" lon="-7.920331">
        <ele>1951.80004882813</ele>
        <time>2019-12-27T11:15:42.000Z</time>
      </trkpt>
      <trkpt lat="31.11584" lon="-7.920342">
        <ele>1951.80004882813</ele>
        <time>2019-12-27T11:15:44.000Z</time>
      </trkpt>
      <trkpt lat="31.115821" lon="-7.920354">
        <ele>1952</ele>
        <time>2019-12-27T11:15:46.000Z</time>
      </trkpt>
      <trkpt lat="31.115798" lon="-7.920351">
        <ele>1952</ele>
        <time>2019-12-27T11:15:48.000Z</time>
      </trkpt>
      <trkpt lat="31.115773" lon="-7.920351">
        <ele>1952</ele>
        <time>2019-12-27T11:15:50.000Z</time>
      </trkpt>
      <trkpt lat="31.115747" lon="-7.920348">
        <ele>1952.19995117188</ele>
        <time>2019-12-27T11:15:52.000Z</time>
      </trkpt>
      <trkpt lat="31.115728" lon="-7.920334">
        <ele>1952.19995117188</ele>
        <time>2019-12-27T11:15:54.000Z</time>
      </trkpt>
      <trkpt lat="31.115709" lon="-7.920326">
        <ele>1952.19995117188</ele>
        <time>2019-12-27T11:15:56.000Z</time>
      </trkpt>
      <trkpt lat="31.11569" lon="-7.920317">
        <ele>1952.2197574625</ele>
        <time>2019-12-27T11:15:58.000Z</time>
      </trkpt>
      <trkpt lat="31.11567" lon="-7.920306">
        <ele>1952.40002441406</ele>
        <time>2019-12-27T11:16:00.000Z</time>
      </trkpt>
      <trkpt lat="31.115654" lon="-7.920294">
        <ele>1952.40002441406</ele>
        <time>2019-12-27T11:16:02.000Z</time>
      </trkpt>
      <trkpt lat="31.115635" lon="-7.920283">
        <ele>1952.40002441406</ele>
        <time>2019-12-27T11:16:05.000Z</time>
      </trkpt>
      <trkpt lat="31.115619" lon="-7.92027">
        <ele>1952.59997558594</ele>
        <time>2019-12-27T11:16:07.000Z</time>
      </trkpt>
      <trkpt lat="31.1156" lon="-7.920257">
        <ele>1952.59997558594</ele>
        <time>2019-12-27T11:16:09.000Z</time>
      </trkpt>
      <trkpt lat="31.115574" lon="-7.920257">
        <ele>1952.59997558594</ele>
        <time>2019-12-27T11:16:11.000Z</time>
      </trkpt>
      <trkpt lat="31.115549" lon="-7.920249">
        <ele>1952.80004882813</ele>
        <time>2019-12-27T11:16:13.000Z</time>
      </trkpt>
      <trkpt lat="31.115526" lon="-7.92026">
        <ele>1952.80004882813</ele>
        <time>2019-12-27T11:16:15.000Z</time>
      </trkpt>
      <trkpt lat="31.115501" lon="-7.920269">
        <ele>1952.81984303438</ele>
        <time>2019-12-27T11:16:17.000Z</time>
      </trkpt>
      <trkpt lat="31.115482" lon="-7.920265">
        <ele>1953</ele>
        <time>2019-12-27T11:16:19.000Z</time>
      </trkpt>
      <trkpt lat="31.115456" lon="-7.92026">
        <ele>1953</ele>
        <time>2019-12-27T11:16:21.000Z</time>
      </trkpt>
      <trkpt lat="31.115437" lon="-7.920252">
        <ele>1953.19995117188</ele>
        <time>2019-12-27T11:16:24.000Z</time>
      </trkpt>
      <trkpt lat="31.115418" lon="-7.920243">
        <ele>1953.19995117188</ele>
        <time>2019-12-27T11:16:26.000Z</time>
      </trkpt>
      <trkpt lat="31.115392" lon="-7.920223">
        <ele>1953.40002441406</ele>
        <time>2019-12-27T11:16:29.000Z</time>
      </trkpt>
      <trkpt lat="31.115373" lon="-7.920215">
        <ele>1953.59997558594</ele>
        <time>2019-12-27T11:16:32.000Z</time>
      </trkpt>
      <trkpt lat="31.115357" lon="-7.920205">
        <ele>1953.59997558594</ele>
        <time>2019-12-27T11:16:34.000Z</time>
      </trkpt>
      <trkpt lat="31.115331" lon="-7.920193">
        <ele>1953.80004882813</ele>
        <time>2019-12-27T11:16:37.000Z</time>
      </trkpt>
      <trkpt lat="31.115315" lon="-7.920177">
        <ele>1953.81984303438</ele>
        <time>2019-12-27T11:16:39.000Z</time>
      </trkpt>
      <trkpt lat="31.115302" lon="-7.920152">
        <ele>1954</ele>
        <time>2019-12-27T11:16:41.000Z</time>
      </trkpt>
      <trkpt lat="31.115296" lon="-7.920118">
        <ele>1954.19995117188</ele>
        <time>2019-12-27T11:16:45.000Z</time>
      </trkpt>
      <trkpt lat="31.115296" lon="-7.920095">
        <ele>1954.2197574625</ele>
        <time>2019-12-27T11:16:47.000Z</time>
      </trkpt>
      <trkpt lat="31.115286" lon="-7.920072">
        <ele>1954.40002441406</ele>
        <time>2019-12-27T11:16:49.000Z</time>
      </trkpt>
      <trkpt lat="31.115274" lon="-7.920043">
        <ele>1954.59997558594</ele>
        <time>2019-12-27T11:16:52.000Z</time>
      </trkpt>
      <trkpt lat="31.115264" lon="-7.920022">
        <ele>1954.61978187656</ele>
        <time>2019-12-27T11:16:54.000Z</time>
      </trkpt>
      <trkpt lat="31.115254" lon="-7.920002">
        <ele>1954.81984303438</ele>
        <time>2019-12-27T11:16:57.000Z</time>
      </trkpt>
      <trkpt lat="31.115245" lon="-7.919983">
        <ele>1955</ele>
        <time>2019-12-27T11:16:59.000Z</time>
      </trkpt>
      <trkpt lat="31.115222" lon="-7.919968">
        <ele>1955.19995117188</ele>
        <time>2019-12-27T11:17:01.000Z</time>
      </trkpt>
      <trkpt lat="31.115197" lon="-7.919965">
        <ele>1955.2197574625</ele>
        <time>2019-12-27T11:17:03.000Z</time>
      </trkpt>
      <trkpt lat="31.115174" lon="-7.91996">
        <ele>1955.40002441406</ele>
        <time>2019-12-27T11:17:05.000Z</time>
      </trkpt>
      <trkpt lat="31.115158" lon="-7.919949">
        <ele>1955.59997558594</ele>
        <time>2019-12-27T11:17:07.000Z</time>
      </trkpt>
      <trkpt lat="31.115158" lon="-7.919926">
        <ele>1955.61978187656</ele>
        <time>2019-12-27T11:17:09.000Z</time>
      </trkpt>
      <trkpt lat="31.115155" lon="-7.919903">
        <ele>1956</ele>
        <time>2019-12-27T11:17:12.000Z</time>
      </trkpt>
      <trkpt lat="31.115136" lon="-7.919892">
        <ele>1956</ele>
        <time>2019-12-27T11:17:14.000Z</time>
      </trkpt>
      <trkpt lat="31.115114" lon="-7.919898">
        <ele>1956.2197574625</ele>
        <time>2019-12-27T11:17:17.000Z</time>
      </trkpt>
      <trkpt lat="31.115088" lon="-7.919903">
        <ele>1956.41981862031</ele>
        <time>2019-12-27T11:17:20.000Z</time>
      </trkpt>
      <trkpt lat="31.115066" lon="-7.919886">
        <ele>1956.61978187656</ele>
        <time>2019-12-27T11:17:22.000Z</time>
      </trkpt>
      <trkpt lat="31.115046" lon="-7.91987">
        <ele>1956.81984303438</ele>
        <time>2019-12-27T11:17:24.000Z</time>
      </trkpt>
      <trkpt lat="31.115027" lon="-7.919866">
        <ele>1957.2197574625</ele>
        <time>2019-12-27T11:17:28.000Z</time>
      </trkpt>
      <trkpt lat="31.115008" lon="-7.919845">
        <ele>1957.59997558594</ele>
        <time>2019-12-27T11:17:31.000Z</time>
      </trkpt>
      <trkpt lat="31.114986" lon="-7.919837">
        <ele>1957.81984303438</ele>
        <time>2019-12-27T11:17:34.000Z</time>
      </trkpt>
      <trkpt lat="31.11496" lon="-7.919837">
        <ele>1958.19995117188</ele>
        <time>2019-12-27T11:17:37.000Z</time>
      </trkpt>
      <trkpt lat="31.114938" lon="-7.91983">
        <ele>1958.41981862031</ele>
        <time>2019-12-27T11:17:40.000Z</time>
      </trkpt>
      <trkpt lat="31.114915" lon="-7.919818">
        <ele>1958.61978187656</ele>
        <time>2019-12-27T11:17:42.000Z</time>
      </trkpt>
      <trkpt lat="31.11489" lon="-7.919815">
        <ele>1958.81984303438</ele>
        <time>2019-12-27T11:17:44.000Z</time>
      </trkpt>
      <trkpt lat="31.11487" lon="-7.91981">
        <ele>1959.01979420625</ele>
        <time>2019-12-27T11:17:46.000Z</time>
      </trkpt>
      <trkpt lat="31.114845" lon="-7.919805">
        <ele>1959.2197574625</ele>
        <time>2019-12-27T11:17:48.000Z</time>
      </trkpt>
      <trkpt lat="31.114826" lon="-7.919803">
        <ele>1959.40002441406</ele>
        <time>2019-12-27T11:17:50.000Z</time>
      </trkpt>
      <trkpt lat="31.114806" lon="-7.919795">
        <ele>1959.59997558594</ele>
        <time>2019-12-27T11:17:52.000Z</time>
      </trkpt>
      <trkpt lat="31.114787" lon="-7.919785">
        <ele>1959.80004882813</ele>
        <time>2019-12-27T11:17:54.000Z</time>
      </trkpt>
      <trkpt lat="31.114768" lon="-7.91979">
        <ele>1960.01979420625</ele>
        <time>2019-12-27T11:17:57.000Z</time>
      </trkpt>
      <trkpt lat="31.114746" lon="-7.919792">
        <ele>1960.40002441406</ele>
        <time>2019-12-27T11:18:01.000Z</time>
      </trkpt>
      <trkpt lat="31.114726" lon="-7.919795">
        <ele>1960.61978187656</ele>
        <time>2019-12-27T11:18:04.000Z</time>
      </trkpt>
      <trkpt lat="31.114707" lon="-7.919793">
        <ele>1961.01979420625</ele>
        <time>2019-12-27T11:18:07.000Z</time>
      </trkpt>
      <trkpt lat="31.114688" lon="-7.919795">
        <ele>1961.41981862031</ele>
        <time>2019-12-27T11:18:10.000Z</time>
      </trkpt>
      <trkpt lat="31.114666" lon="-7.919798">
        <ele>1961.81984303438</ele>
        <time>2019-12-27T11:18:13.000Z</time>
      </trkpt>
      <trkpt lat="31.11464" lon="-7.919808">
        <ele>1962.2197574625</ele>
        <time>2019-12-27T11:18:16.000Z</time>
      </trkpt>
      <trkpt lat="31.114614" lon="-7.919813">
        <ele>1963.01979420625</ele>
        <time>2019-12-27T11:18:21.000Z</time>
      </trkpt>
      <trkpt lat="31.114589" lon="-7.91982">
        <ele>1963.61978187656</ele>
        <time>2019-12-27T11:18:25.000Z</time>
      </trkpt>
      <trkpt lat="31.11457" lon="-7.919832">
        <ele>1964.19995117188</ele>
        <time>2019-12-27T11:18:28.000Z</time>
      </trkpt>
      <trkpt lat="31.11455" lon="-7.919826">
        <ele>1964.81984303438</ele>
        <time>2019-12-27T11:18:33.000Z</time>
      </trkpt>
      <trkpt lat="31.114531" lon="-7.919822">
        <ele>1965.41981862031</ele>
        <time>2019-12-27T11:18:36.000Z</time>
      </trkpt>
      <trkpt lat="31.114512" lon="-7.919825">
        <ele>1965.81984303438</ele>
        <time>2019-12-27T11:18:39.000Z</time>
      </trkpt>
      <trkpt lat="31.114493" lon="-7.919818">
        <ele>1966.2197574625</ele>
        <time>2019-12-27T11:18:42.000Z</time>
      </trkpt>
      <trkpt lat="31.114467" lon="-7.919822">
        <ele>1966.61978187656</ele>
        <time>2019-12-27T11:18:45.000Z</time>
      </trkpt>
      <trkpt lat="31.114448" lon="-7.919818">
        <ele>1967.01979420625</ele>
        <time>2019-12-27T11:18:48.000Z</time>
      </trkpt>
      <trkpt lat="31.114429" lon="-7.919818">
        <ele>1967.40002441406</ele>
        <time>2019-12-27T11:18:50.000Z</time>
      </trkpt>
      <trkpt lat="31.11441" lon="-7.919818">
        <ele>1967.81984303438</ele>
        <time>2019-12-27T11:18:54.000Z</time>
      </trkpt>
      <trkpt lat="31.11439" lon="-7.919823">
        <ele>1968.19995117188</ele>
        <time>2019-12-27T11:18:57.000Z</time>
      </trkpt>
      <trkpt lat="31.114371" lon="-7.919825">
        <ele>1968.61978187656</ele>
        <time>2019-12-27T11:19:00.000Z</time>
      </trkpt>
      <trkpt lat="31.114355" lon="-7.919842">
        <ele>1969.01979420625</ele>
        <time>2019-12-27T11:19:03.000Z</time>
      </trkpt>
      <trkpt lat="31.114333" lon="-7.919846">
        <ele>1969.41981862031</ele>
        <time>2019-12-27T11:19:06.000Z</time>
      </trkpt>
      <trkpt lat="31.114314" lon="-7.919857">
        <ele>1970</ele>
        <time>2019-12-27T11:19:09.000Z</time>
      </trkpt>
      <trkpt lat="31.114301" lon="-7.919872">
        <ele>1970.41981862031</ele>
        <time>2019-12-27T11:19:12.000Z</time>
      </trkpt>
      <trkpt lat="31.114282" lon="-7.919886">
        <ele>1971.40002441406</ele>
        <time>2019-12-27T11:19:16.000Z</time>
      </trkpt>
      <trkpt lat="31.114262" lon="-7.919872">
        <ele>1972.01979420625</ele>
        <time>2019-12-27T11:19:20.000Z</time>
      </trkpt>
      <trkpt lat="31.114243" lon="-7.919875">
        <ele>1972.61978187656</ele>
        <time>2019-12-27T11:19:23.000Z</time>
      </trkpt>
      <trkpt lat="31.114221" lon="-7.919882">
        <ele>1973.19995117188</ele>
        <time>2019-12-27T11:19:26.000Z</time>
      </trkpt>
      <trkpt lat="31.114202" lon="-7.919897">
        <ele>1973.61978187656</ele>
        <time>2019-12-27T11:19:29.000Z</time>
      </trkpt>
      <trkpt lat="31.114176" lon="-7.919889">
        <ele>1974.41981862031</ele>
        <time>2019-12-27T11:19:34.000Z</time>
      </trkpt>
      <trkpt lat="31.114157" lon="-7.919883">
        <ele>1975.01979420625</ele>
        <time>2019-12-27T11:19:38.000Z</time>
      </trkpt>
      <trkpt lat="31.114131" lon="-7.919889">
        <ele>1975.61978187656</ele>
        <time>2019-12-27T11:19:42.000Z</time>
      </trkpt>
      <trkpt lat="31.114118" lon="-7.919909">
        <ele>1976.19995117188</ele>
        <time>2019-12-27T11:19:46.000Z</time>
      </trkpt>
      <trkpt lat="31.114102" lon="-7.919926">
        <ele>1976.81984303438</ele>
        <time>2019-12-27T11:19:51.000Z</time>
      </trkpt>
      <trkpt lat="31.11409" lon="-7.919945">
        <ele>1977.19995117188</ele>
        <time>2019-12-27T11:19:53.000Z</time>
      </trkpt>
      <trkpt lat="31.11407" lon="-7.919958">
        <ele>1977.41981862031</ele>
        <time>2019-12-27T11:19:55.000Z</time>
      </trkpt>
      <trkpt lat="31.114054" lon="-7.919975">
        <ele>1977.61978187656</ele>
        <time>2019-12-27T11:19:57.000Z</time>
      </trkpt>
      <trkpt lat="31.114038" lon="-7.919986">
        <ele>1978.01979420625</ele>
        <time>2019-12-27T11:20:00.000Z</time>
      </trkpt>
      <trkpt lat="31.114019" lon="-7.919991">
        <ele>1978.41981862031</ele>
        <time>2019-12-27T11:20:03.000Z</time>
      </trkpt>
      <trkpt lat="31.114" lon="-7.919997">
        <ele>1979.01979420625</ele>
        <time>2019-12-27T11:20:07.000Z</time>
      </trkpt>
      <trkpt lat="31.113978" lon="-7.919997">
        <ele>1979.41981862031</ele>
        <time>2019-12-27T11:20:10.000Z</time>
      </trkpt>
      <trkpt lat="31.113958" lon="-7.92001">
        <ele>1979.81984303438</ele>
        <time>2019-12-27T11:20:12.000Z</time>
      </trkpt>
      <trkpt lat="31.113939" lon="-7.920023">
        <ele>1980.2197574625</ele>
        <time>2019-12-27T11:20:14.000Z</time>
      </trkpt>
      <trkpt lat="31.113914" lon="-7.920025">
        <ele>1980.41981862031</ele>
        <time>2019-12-27T11:20:16.000Z</time>
      </trkpt>
      <trkpt lat="31.113891" lon="-7.920018">
        <ele>1980.61978187656</ele>
        <time>2019-12-27T11:20:17.000Z</time>
      </trkpt>
      <trkpt lat="31.113872" lon="-7.920031">
        <ele>1980.83963724063</ele>
        <time>2019-12-27T11:20:19.000Z</time>
      </trkpt>
      <trkpt lat="31.113853" lon="-7.920047">
        <ele>1982.01979420625</ele>
        <time>2019-12-27T11:20:26.000Z</time>
      </trkpt>
      <trkpt lat="31.113837" lon="-7.920063">
        <ele>1982.41981862031</ele>
        <time>2019-12-27T11:20:29.000Z</time>
      </trkpt>
      <trkpt lat="31.113824" lon="-7.92008">
        <ele>1982.81984303438</ele>
        <time>2019-12-27T11:20:32.000Z</time>
      </trkpt>
      <trkpt lat="31.113814" lon="-7.920098">
        <ele>1983.01979420625</ele>
        <time>2019-12-27T11:20:34.000Z</time>
      </trkpt>
      <trkpt lat="31.113798" lon="-7.920115">
        <ele>1983.40002441406</ele>
        <time>2019-12-27T11:20:36.000Z</time>
      </trkpt>
      <trkpt lat="31.113782" lon="-7.920127">
        <ele>1983.61978187656</ele>
        <time>2019-12-27T11:20:38.000Z</time>
      </trkpt>
      <trkpt lat="31.113763" lon="-7.920138">
        <ele>1984</ele>
        <time>2019-12-27T11:20:40.000Z</time>
      </trkpt>
      <trkpt lat="31.113741" lon="-7.920142">
        <ele>1984.41981862031</ele>
        <time>2019-12-27T11:20:44.000Z</time>
      </trkpt>
      <trkpt lat="31.113722" lon="-7.920137">
        <ele>1984.81984303438</ele>
        <time>2019-12-27T11:20:47.000Z</time>
      </trkpt>
      <trkpt lat="31.113699" lon="-7.920134">
        <ele>1985.41981862031</ele>
        <time>2019-12-27T11:20:51.000Z</time>
      </trkpt>
      <trkpt lat="31.113677" lon="-7.920132">
        <ele>1987.2197574625</ele>
        <time>2019-12-27T11:21:00.000Z</time>
      </trkpt>
      <trkpt lat="31.113658" lon="-7.920127">
        <ele>1988.61978187656</ele>
        <time>2019-12-27T11:21:08.000Z</time>
      </trkpt>
      <trkpt lat="31.113654" lon="-7.920102">
        <ele>1992.40002441406</ele>
        <time>2019-12-27T11:21:38.000Z</time>
      </trkpt>
      <trkpt lat="31.113635" lon="-7.920097">
        <ele>1993</ele>
        <time>2019-12-27T11:21:51.000Z</time>
      </trkpt>
      <trkpt lat="31.113616" lon="-7.920114">
        <ele>1993</ele>
        <time>2019-12-27T11:21:55.000Z</time>
      </trkpt>
      <trkpt lat="31.113594" lon="-7.920114">
        <ele>1993.19995117188</ele>
        <time>2019-12-27T11:21:59.000Z</time>
      </trkpt>
      <trkpt lat="31.113568" lon="-7.920118">
        <ele>1993.19995117188</ele>
        <time>2019-12-27T11:22:02.000Z</time>
      </trkpt>
      <trkpt lat="31.113549" lon="-7.92013">
        <ele>1993.2197574625</ele>
        <time>2019-12-27T11:22:05.000Z</time>
      </trkpt>
      <trkpt lat="31.11353" lon="-7.920127">
        <ele>1993.41981862031</ele>
        <time>2019-12-27T11:22:09.000Z</time>
      </trkpt>
      <trkpt lat="31.113504" lon="-7.920118">
        <ele>1993.80004882813</ele>
        <time>2019-12-27T11:22:14.000Z</time>
      </trkpt>
      <trkpt lat="31.113485" lon="-7.920127">
        <ele>1994</ele>
        <time>2019-12-27T11:22:18.000Z</time>
      </trkpt>
      <trkpt lat="31.113462" lon="-7.920134">
        <ele>1994.2197574625</ele>
        <time>2019-12-27T11:22:21.000Z</time>
      </trkpt>
      <trkpt lat="31.11344" lon="-7.92013">
        <ele>1994.59997558594</ele>
        <time>2019-12-27T11:22:25.000Z</time>
      </trkpt>
      <trkpt lat="31.113421" lon="-7.920118">
        <ele>1994.81984303438</ele>
        <time>2019-12-27T11:22:27.000Z</time>
      </trkpt>
      <trkpt lat="31.113398" lon="-7.920108">
        <ele>1995.01979420625</ele>
        <time>2019-12-27T11:22:30.000Z</time>
      </trkpt>
      <trkpt lat="31.113376" lon="-7.920118">
        <ele>1995.59997558594</ele>
        <time>2019-12-27T11:22:34.000Z</time>
      </trkpt>
      <trkpt lat="31.11337" lon="-7.920143">
        <ele>1995.81984303438</ele>
        <time>2019-12-27T11:22:38.000Z</time>
      </trkpt>
      <trkpt lat="31.11337" lon="-7.92017">
        <ele>1996.40002441406</ele>
        <time>2019-12-27T11:22:43.000Z</time>
      </trkpt>
      <trkpt lat="31.113357" lon="-7.920148">
        <ele>1996.59997558594</ele>
        <time>2019-12-27T11:22:45.000Z</time>
      </trkpt>
      <trkpt lat="31.113347" lon="-7.920122">
        <ele>1997</ele>
        <time>2019-12-27T11:22:48.000Z</time>
      </trkpt>
      <trkpt lat="31.113338" lon="-7.9201">
        <ele>1997.2197574625</ele>
        <time>2019-12-27T11:22:51.000Z</time>
      </trkpt>
      <trkpt lat="31.113318" lon="-7.920114">
        <ele>1997.41981862031</ele>
        <time>2019-12-27T11:22:53.000Z</time>
      </trkpt>
      <trkpt lat="31.113309" lon="-7.920134">
        <ele>1997.80004882813</ele>
        <time>2019-12-27T11:22:55.000Z</time>
      </trkpt>
      <trkpt lat="31.113296" lon="-7.920155">
        <ele>1998.19995117188</ele>
        <time>2019-12-27T11:22:58.000Z</time>
      </trkpt>
      <trkpt lat="31.11328" lon="-7.92017">
        <ele>1998.41981862031</ele>
        <time>2019-12-27T11:23:00.000Z</time>
      </trkpt>
      <trkpt lat="31.113261" lon="-7.920158">
        <ele>1998.81984303438</ele>
        <time>2019-12-27T11:23:03.000Z</time>
      </trkpt>
      <trkpt lat="31.113264" lon="-7.920132">
        <ele>1999.41981862031</ele>
        <time>2019-12-27T11:23:06.000Z</time>
      </trkpt>
      <trkpt lat="31.113267" lon="-7.92011">
        <ele>1999.61978187656</ele>
        <time>2019-12-27T11:23:08.000Z</time>
      </trkpt>
      <trkpt lat="31.113277" lon="-7.920088">
        <ele>2000.01979420625</ele>
        <time>2019-12-27T11:23:10.000Z</time>
      </trkpt>
      <trkpt lat="31.11328" lon="-7.920065">
        <ele>2000.40002441406</ele>
        <time>2019-12-27T11:23:12.000Z</time>
      </trkpt>
      <trkpt lat="31.113286" lon="-7.920038">
        <ele>2000.80004882813</ele>
        <time>2019-12-27T11:23:15.000Z</time>
      </trkpt>
      <trkpt lat="31.113286" lon="-7.920011">
        <ele>2001.2197574625</ele>
        <time>2019-12-27T11:23:18.000Z</time>
      </trkpt>
      <trkpt lat="31.113293" lon="-7.919991">
        <ele>2001.61978187656</ele>
        <time>2019-12-27T11:23:20.000Z</time>
      </trkpt>
      <trkpt lat="31.113306" lon="-7.919966">
        <ele>2002.2197574625</ele>
        <time>2019-12-27T11:23:23.000Z</time>
      </trkpt>
      <trkpt lat="31.113318" lon="-7.919949">
        <ele>2002.61978187656</ele>
        <time>2019-12-27T11:23:26.000Z</time>
      </trkpt>
      <trkpt lat="31.113338" lon="-7.919937">
        <ele>2003.40002441406</ele>
        <time>2019-12-27T11:23:29.000Z</time>
      </trkpt>
      <trkpt lat="31.113357" lon="-7.919923">
        <ele>2003.81984303438</ele>
        <time>2019-12-27T11:23:32.000Z</time>
      </trkpt>
      <trkpt lat="31.113373" lon="-7.919906">
        <ele>2004.41909626064</ele>
        <time>2019-12-27T11:23:35.000Z</time>
      </trkpt>
      <trkpt lat="31.113392" lon="-7.919883">
        <ele>2004.81984303438</ele>
        <time>2019-12-27T11:23:38.000Z</time>
      </trkpt>
      <trkpt lat="31.113405" lon="-7.919866">
        <ele>2005.19995117188</ele>
        <time>2019-12-27T11:23:40.000Z</time>
      </trkpt>
      <trkpt lat="31.113421" lon="-7.919857">
        <ele>2005.41981862031</ele>
        <time>2019-12-27T11:23:42.000Z</time>
      </trkpt>
      <trkpt lat="31.113434" lon="-7.919838">
        <ele>2005.61978187656</ele>
        <time>2019-12-27T11:23:44.000Z</time>
      </trkpt>
      <trkpt lat="31.113446" lon="-7.919823">
        <ele>2006.01979420625</ele>
        <time>2019-12-27T11:23:46.000Z</time>
      </trkpt>
      <trkpt lat="31.113427" lon="-7.91982">
        <ele>2006.41981862031</ele>
        <time>2019-12-27T11:23:48.000Z</time>
      </trkpt>
      <trkpt lat="31.113405" lon="-7.919832">
        <ele>2006.81984303438</ele>
        <time>2019-12-27T11:23:51.000Z</time>
      </trkpt>
      <trkpt lat="31.113389" lon="-7.919842">
        <ele>2007.2197574625</ele>
        <time>2019-12-27T11:23:53.000Z</time>
      </trkpt>
      <trkpt lat="31.113366" lon="-7.91985">
        <ele>2007.80004882813</ele>
        <time>2019-12-27T11:23:56.000Z</time>
      </trkpt>
      <trkpt lat="31.113341" lon="-7.919857">
        <ele>2008.2197574625</ele>
        <time>2019-12-27T11:23:59.000Z</time>
      </trkpt>
      <trkpt lat="31.113318" lon="-7.919858">
        <ele>2008.80004882813</ele>
        <time>2019-12-27T11:24:02.000Z</time>
      </trkpt>
      <trkpt lat="31.113296" lon="-7.919862">
        <ele>2009.01979420625</ele>
        <time>2019-12-27T11:24:04.000Z</time>
      </trkpt>
      <trkpt lat="31.11327" lon="-7.919866">
        <ele>2009.41981862031</ele>
        <time>2019-12-27T11:24:07.000Z</time>
      </trkpt>
      <trkpt lat="31.113248" lon="-7.919869">
        <ele>2009.81984303438</ele>
        <time>2019-12-27T11:24:10.000Z</time>
      </trkpt>
      <trkpt lat="31.113229" lon="-7.919886">
        <ele>2010.41981862031</ele>
        <time>2019-12-27T11:24:13.000Z</time>
      </trkpt>
      <trkpt lat="31.113216" lon="-7.919903">
        <ele>2010.80004882813</ele>
        <time>2019-12-27T11:24:15.000Z</time>
      </trkpt>
      <trkpt lat="31.113197" lon="-7.919917">
        <ele>2011.2197574625</ele>
        <time>2019-12-27T11:24:18.000Z</time>
      </trkpt>
      <trkpt lat="31.113178" lon="-7.919931">
        <ele>2011.61978187656</ele>
        <time>2019-12-27T11:24:21.000Z</time>
      </trkpt>
      <trkpt lat="31.113162" lon="-7.919955">
        <ele>2012.01979420625</ele>
        <time>2019-12-27T11:24:24.000Z</time>
      </trkpt>
      <trkpt lat="31.113149" lon="-7.919978">
        <ele>2012.41981862031</ele>
        <time>2019-12-27T11:24:27.000Z</time>
      </trkpt>
      <trkpt lat="31.113133" lon="-7.919966">
        <ele>2013.2197574625</ele>
        <time>2019-12-27T11:24:32.000Z</time>
      </trkpt>
      <trkpt lat="31.11313" lon="-7.919937">
        <ele>2013.61978187656</ele>
        <time>2019-12-27T11:24:35.000Z</time>
      </trkpt>
      <trkpt lat="31.113136" lon="-7.919909">
        <ele>2014</ele>
        <time>2019-12-27T11:24:38.000Z</time>
      </trkpt>
      <trkpt lat="31.113146" lon="-7.919883">
        <ele>2014.2197574625</ele>
        <time>2019-12-27T11:24:41.000Z</time>
      </trkpt>
      <trkpt lat="31.113165" lon="-7.919865">
        <ele>2014.59997558594</ele>
        <time>2019-12-27T11:24:44.000Z</time>
      </trkpt>
      <trkpt lat="31.113187" lon="-7.91985">
        <ele>2014.80004882813</ele>
        <time>2019-12-27T11:24:46.000Z</time>
      </trkpt>
      <trkpt lat="31.113184" lon="-7.919823">
        <ele>2015.01979420625</ele>
        <time>2019-12-27T11:24:49.000Z</time>
      </trkpt>
      <trkpt lat="31.11319" lon="-7.919797">
        <ele>2015.59997558594</ele>
        <time>2019-12-27T11:24:53.000Z</time>
      </trkpt>
      <trkpt lat="31.113194" lon="-7.919772">
        <ele>2016</ele>
        <time>2019-12-27T11:24:56.000Z</time>
      </trkpt>
      <trkpt lat="31.113197" lon="-7.91974">
        <ele>2016.2197574625</ele>
        <time>2019-12-27T11:24:59.000Z</time>
      </trkpt>
      <trkpt lat="31.113194" lon="-7.919714">
        <ele>2016.59997558594</ele>
        <time>2019-12-27T11:25:02.000Z</time>
      </trkpt>
      <trkpt lat="31.113194" lon="-7.919685">
        <ele>2017</ele>
        <time>2019-12-27T11:25:06.000Z</time>
      </trkpt>
      <trkpt lat="31.113206" lon="-7.919665">
        <ele>2017.41981862031</ele>
        <time>2019-12-27T11:25:10.000Z</time>
      </trkpt>
      <trkpt lat="31.113197" lon="-7.919645">
        <ele>2017.81984303438</ele>
        <time>2019-12-27T11:25:14.000Z</time>
      </trkpt>
      <trkpt lat="31.113174" lon="-7.919648">
        <ele>2018.2197574625</ele>
        <time>2019-12-27T11:25:17.000Z</time>
      </trkpt>
      <trkpt lat="31.113158" lon="-7.91966">
        <ele>2018.61978187656</ele>
        <time>2019-12-27T11:25:19.000Z</time>
      </trkpt>
      <trkpt lat="31.113146" lon="-7.91968">
        <ele>2018.81984303438</ele>
        <time>2019-12-27T11:25:21.000Z</time>
      </trkpt>
      <trkpt lat="31.113133" lon="-7.919708">
        <ele>2019.40002441406</ele>
        <time>2019-12-27T11:25:24.000Z</time>
      </trkpt>
      <trkpt lat="31.11312" lon="-7.91973">
        <ele>2019.59997558594</ele>
        <time>2019-12-27T11:25:26.000Z</time>
      </trkpt>
      <trkpt lat="31.11311" lon="-7.91975">
        <ele>2019.81984303438</ele>
        <time>2019-12-27T11:25:28.000Z</time>
      </trkpt>
      <trkpt lat="31.113098" lon="-7.919768">
        <ele>2020.19995117188</ele>
        <time>2019-12-27T11:25:30.000Z</time>
      </trkpt>
      <trkpt lat="31.113082" lon="-7.919792">
        <ele>2020.41981862031</ele>
        <time>2019-12-27T11:25:32.000Z</time>
      </trkpt>
      <trkpt lat="31.113069" lon="-7.919818">
        <ele>2021.01979420625</ele>
        <time>2019-12-27T11:25:35.000Z</time>
      </trkpt>
      <trkpt lat="31.113056" lon="-7.919838">
        <ele>2021.2197574625</ele>
        <time>2019-12-27T11:25:37.000Z</time>
      </trkpt>
      <trkpt lat="31.113053" lon="-7.91986">
        <ele>2021.61978187656</ele>
        <time>2019-12-27T11:25:39.000Z</time>
      </trkpt>
      <trkpt lat="31.113043" lon="-7.919878">
        <ele>2022</ele>
        <time>2019-12-27T11:25:41.000Z</time>
      </trkpt>
      <trkpt lat="31.113018" lon="-7.919889">
        <ele>2022.59997558594</ele>
        <time>2019-12-27T11:25:45.000Z</time>
      </trkpt>
      <trkpt lat="31.113002" lon="-7.919902">
        <ele>2022.81984303438</ele>
        <time>2019-12-27T11:25:47.000Z</time>
      </trkpt>
      <trkpt lat="31.112989" lon="-7.919926">
        <ele>2023.41981862031</ele>
        <time>2019-12-27T11:25:50.000Z</time>
      </trkpt>
      <trkpt lat="31.112979" lon="-7.919946">
        <ele>2023.81984303438</ele>
        <time>2019-12-27T11:25:53.000Z</time>
      </trkpt>
      <trkpt lat="31.11296" lon="-7.919966">
        <ele>2024.40002441406</ele>
        <time>2019-12-27T11:25:56.000Z</time>
      </trkpt>
      <trkpt lat="31.112944" lon="-7.919982">
        <ele>2024.61978187656</ele>
        <time>2019-12-27T11:25:58.000Z</time>
      </trkpt>
      <trkpt lat="31.112931" lon="-7.920002">
        <ele>2025.01979420625</ele>
        <time>2019-12-27T11:26:00.000Z</time>
      </trkpt>
      <trkpt lat="31.112918" lon="-7.920022">
        <ele>2025.41981862031</ele>
        <time>2019-12-27T11:26:03.000Z</time>
      </trkpt>
      <trkpt lat="31.112906" lon="-7.92004">
        <ele>2025.81984303438</ele>
        <time>2019-12-27T11:26:06.000Z</time>
      </trkpt>
      <trkpt lat="31.112883" lon="-7.920058">
        <ele>2026.2197574625</ele>
        <time>2019-12-27T11:26:09.000Z</time>
      </trkpt>
      <trkpt lat="31.112874" lon="-7.920077">
        <ele>2026.61974240618</ele>
        <time>2019-12-27T11:26:12.000Z</time>
      </trkpt>
      <trkpt lat="31.112861" lon="-7.920102">
        <ele>2027</ele>
        <time>2019-12-27T11:26:15.000Z</time>
      </trkpt>
      <trkpt lat="31.112838" lon="-7.920108">
        <ele>2027.41981862031</ele>
        <time>2019-12-27T11:26:18.000Z</time>
      </trkpt>
      <trkpt lat="31.112816" lon="-7.920115">
        <ele>2027.81984303438</ele>
        <time>2019-12-27T11:26:21.000Z</time>
      </trkpt>
      <trkpt lat="31.1128" lon="-7.920132">
        <ele>2028.19995117188</ele>
        <time>2019-12-27T11:26:24.000Z</time>
      </trkpt>
      <trkpt lat="31.112781" lon="-7.92014">
        <ele>2028.40002441406</ele>
        <time>2019-12-27T11:26:26.000Z</time>
      </trkpt>
      <trkpt lat="31.112762" lon="-7.920143">
        <ele>2028.61978187656</ele>
        <time>2019-12-27T11:26:29.000Z</time>
      </trkpt>
      <trkpt lat="31.112742" lon="-7.920148">
        <ele>2028.81984303438</ele>
        <time>2019-12-27T11:26:32.000Z</time>
      </trkpt>
      <trkpt lat="31.112723" lon="-7.920155">
        <ele>2029.19995117188</ele>
        <time>2019-12-27T11:26:36.000Z</time>
      </trkpt>
      <trkpt lat="31.112707" lon="-7.920173">
        <ele>2029.40002441406</ele>
        <time>2019-12-27T11:26:39.000Z</time>
      </trkpt>
      <trkpt lat="31.112691" lon="-7.920193">
        <ele>2029.61978187656</ele>
        <time>2019-12-27T11:26:42.000Z</time>
      </trkpt>
      <trkpt lat="31.112672" lon="-7.920197">
        <ele>2029.81984303438</ele>
        <time>2019-12-27T11:26:45.000Z</time>
      </trkpt>
      <trkpt lat="31.112653" lon="-7.920205">
        <ele>2030.01979420625</ele>
        <time>2019-12-27T11:26:47.000Z</time>
      </trkpt>
      <trkpt lat="31.11264" lon="-7.920189">
        <ele>2030.59997558594</ele>
        <time>2019-12-27T11:26:54.000Z</time>
      </trkpt>
      <trkpt lat="31.112621" lon="-7.920183">
        <ele>2030.81984303438</ele>
        <time>2019-12-27T11:26:57.000Z</time>
      </trkpt>
      <trkpt lat="31.112598" lon="-7.920186">
        <ele>2031.19995117188</ele>
        <time>2019-12-27T11:27:01.000Z</time>
      </trkpt>
      <trkpt lat="31.112576" lon="-7.920189">
        <ele>2031.59997558594</ele>
        <time>2019-12-27T11:27:05.000Z</time>
      </trkpt>
      <trkpt lat="31.112554" lon="-7.920189">
        <ele>2031.81984303438</ele>
        <time>2019-12-27T11:27:09.000Z</time>
      </trkpt>
      <trkpt lat="31.112531" lon="-7.920178">
        <ele>2032.19995117188</ele>
        <time>2019-12-27T11:27:13.000Z</time>
      </trkpt>
      <trkpt lat="31.112506" lon="-7.920173">
        <ele>2032.40002441406</ele>
        <time>2019-12-27T11:27:15.000Z</time>
      </trkpt>
      <trkpt lat="31.112483" lon="-7.920165">
        <ele>2032.40002441406</ele>
        <time>2019-12-27T11:27:18.000Z</time>
      </trkpt>
      <trkpt lat="31.112461" lon="-7.92016">
        <ele>2032.59997558594</ele>
        <time>2019-12-27T11:27:21.000Z</time>
      </trkpt>
      <trkpt lat="31.112432" lon="-7.920152">
        <ele>2032.80004882813</ele>
        <time>2019-12-27T11:27:24.000Z</time>
      </trkpt>
      <trkpt lat="31.112413" lon="-7.92014">
        <ele>2033</ele>
        <time>2019-12-27T11:27:27.000Z</time>
      </trkpt>
      <trkpt lat="31.112394" lon="-7.920118">
        <ele>2033.2197574625</ele>
        <time>2019-12-27T11:27:31.000Z</time>
      </trkpt>
      <trkpt lat="31.112374" lon="-7.920115">
        <ele>2033.40002441406</ele>
        <time>2019-12-27T11:27:33.000Z</time>
      </trkpt>
      <trkpt lat="31.112355" lon="-7.92011">
        <ele>2033.59997558594</ele>
        <time>2019-12-27T11:27:36.000Z</time>
      </trkpt>
      <trkpt lat="31.112336" lon="-7.920095">
        <ele>2033.80004882813</ele>
        <time>2019-12-27T11:27:38.000Z</time>
      </trkpt>
      <trkpt lat="31.112317" lon="-7.920083">
        <ele>2034.01979420625</ele>
        <time>2019-12-27T11:27:41.000Z</time>
      </trkpt>
      <trkpt lat="31.112304" lon="-7.920062">
        <ele>2034.41981862031</ele>
        <time>2019-12-27T11:27:45.000Z</time>
      </trkpt>
      <trkpt lat="31.112278" lon="-7.920063">
        <ele>2035</ele>
        <time>2019-12-27T11:27:49.000Z</time>
      </trkpt>
      <trkpt lat="31.11225" lon="-7.920062">
        <ele>2035.41981862031</ele>
        <time>2019-12-27T11:27:53.000Z</time>
      </trkpt>
      <trkpt lat="31.11223" lon="-7.920057">
        <ele>2036</ele>
        <time>2019-12-27T11:27:57.000Z</time>
      </trkpt>
      <trkpt lat="31.112208" lon="-7.92006">
        <ele>2036.2197574625</ele>
        <time>2019-12-27T11:28:00.000Z</time>
      </trkpt>
      <trkpt lat="31.112189" lon="-7.92007">
        <ele>2036.61978187656</ele>
        <time>2019-12-27T11:28:03.000Z</time>
      </trkpt>
      <trkpt lat="31.11217" lon="-7.920072">
        <ele>2037.01979420625</ele>
        <time>2019-12-27T11:28:06.000Z</time>
      </trkpt>
      <trkpt lat="31.112147" lon="-7.920077">
        <ele>2037.41981862031</ele>
        <time>2019-12-27T11:28:09.000Z</time>
      </trkpt>
      <trkpt lat="31.112125" lon="-7.920085">
        <ele>2037.81984303438</ele>
        <time>2019-12-27T11:28:12.000Z</time>
      </trkpt>
      <trkpt lat="31.112102" lon="-7.920097">
        <ele>2038.2197574625</ele>
        <time>2019-12-27T11:28:15.000Z</time>
      </trkpt>
      <trkpt lat="31.112086" lon="-7.920107">
        <ele>2038.61978187656</ele>
        <time>2019-12-27T11:28:18.000Z</time>
      </trkpt>
      <trkpt lat="31.112067" lon="-7.920095">
        <ele>2039.59997558594</ele>
        <time>2019-12-27T11:28:25.000Z</time>
      </trkpt>
      <trkpt lat="31.112048" lon="-7.92008">
        <ele>2040.01979420625</ele>
        <time>2019-12-27T11:28:30.000Z</time>
      </trkpt>
      <trkpt lat="31.112045" lon="-7.920054">
        <ele>2040.81984303438</ele>
        <time>2019-12-27T11:28:35.000Z</time>
      </trkpt>
      <trkpt lat="31.112045" lon="-7.920025">
        <ele>2041.2197574625</ele>
        <time>2019-12-27T11:28:38.000Z</time>
      </trkpt>
      <trkpt lat="31.112035" lon="-7.92">
        <ele>2041.61978187656</ele>
        <time>2019-12-27T11:28:41.000Z</time>
      </trkpt>
      <trkpt lat="31.112022" lon="-7.919985">
        <ele>2042.19995117188</ele>
        <time>2019-12-27T11:28:44.000Z</time>
      </trkpt>
      <trkpt lat="31.112026" lon="-7.91996">
        <ele>2042.61978187656</ele>
        <time>2019-12-27T11:28:48.000Z</time>
      </trkpt>
      <trkpt lat="31.11201" lon="-7.919974">
        <ele>2043.41981862031</ele>
        <time>2019-12-27T11:28:53.000Z</time>
      </trkpt>
      <trkpt lat="31.11199" lon="-7.91999">
        <ele>2043.80004882813</ele>
        <time>2019-12-27T11:28:56.000Z</time>
      </trkpt>
      <trkpt lat="31.111971" lon="-7.919985">
        <ele>2044.2197574625</ele>
        <time>2019-12-27T11:28:59.000Z</time>
      </trkpt>
      <trkpt lat="31.111958" lon="-7.919966">
        <ele>2044.41981862031</ele>
        <time>2019-12-27T11:29:01.000Z</time>
      </trkpt>
      <trkpt lat="31.111942" lon="-7.919945">
        <ele>2044.81984303438</ele>
        <time>2019-12-27T11:29:04.000Z</time>
      </trkpt>
      <trkpt lat="31.111917" lon="-7.919937">
        <ele>2045.2197574625</ele>
        <time>2019-12-27T11:29:07.000Z</time>
      </trkpt>
      <trkpt lat="31.111904" lon="-7.919914">
        <ele>2045.81984303438</ele>
        <time>2019-12-27T11:29:11.000Z</time>
      </trkpt>
      <trkpt lat="31.111882" lon="-7.9199">
        <ele>2046.40002441406</ele>
        <time>2019-12-27T11:29:14.000Z</time>
      </trkpt>
      <trkpt lat="31.111862" lon="-7.919898">
        <ele>2046.80004882813</ele>
        <time>2019-12-27T11:29:17.000Z</time>
      </trkpt>
      <trkpt lat="31.11184" lon="-7.919892">
        <ele>2047.01979420625</ele>
        <time>2019-12-27T11:29:20.000Z</time>
      </trkpt>
      <trkpt lat="31.111827" lon="-7.919877">
        <ele>2047.59997558594</ele>
        <time>2019-12-27T11:29:23.000Z</time>
      </trkpt>
      <trkpt lat="31.111808" lon="-7.919875">
        <ele>2048.01979420625</ele>
        <time>2019-12-27T11:29:27.000Z</time>
      </trkpt>
      <trkpt lat="31.111786" lon="-7.919869">
        <ele>2048.39990234375</ele>
        <time>2019-12-27T11:29:30.000Z</time>
      </trkpt>
      <trkpt lat="31.111766" lon="-7.91987">
        <ele>2048.81984303438</ele>
        <time>2019-12-27T11:29:34.000Z</time>
      </trkpt>
      <trkpt lat="31.111747" lon="-7.919882">
        <ele>2049.19995117188</ele>
        <time>2019-12-27T11:29:37.000Z</time>
      </trkpt>
      <trkpt lat="31.111731" lon="-7.919892">
        <ele>2049.39990234375</ele>
        <time>2019-12-27T11:29:39.000Z</time>
      </trkpt>
      <trkpt lat="31.111712" lon="-7.919898">
        <ele>2049.60009765625</ele>
        <time>2019-12-27T11:29:41.000Z</time>
      </trkpt>
      <trkpt lat="31.111693" lon="-7.919902">
        <ele>2049.80004882813</ele>
        <time>2019-12-27T11:29:43.000Z</time>
      </trkpt>
      <trkpt lat="31.111664" lon="-7.9199">
        <ele>2050.19995117188</ele>
        <time>2019-12-27T11:29:46.000Z</time>
      </trkpt>
      <trkpt lat="31.111645" lon="-7.9199">
        <ele>2050.39990234375</ele>
        <time>2019-12-27T11:29:48.000Z</time>
      </trkpt>
      <trkpt lat="31.111619" lon="-7.919906">
        <ele>2050.6198918625</ele>
        <time>2019-12-27T11:29:51.000Z</time>
      </trkpt>
      <trkpt lat="31.1116" lon="-7.919917">
        <ele>2051.01979420625</ele>
        <time>2019-12-27T11:29:54.000Z</time>
      </trkpt>
      <trkpt lat="31.111581" lon="-7.919922">
        <ele>2051.41972071875</ele>
        <time>2019-12-27T11:29:57.000Z</time>
      </trkpt>
      <trkpt lat="31.111558" lon="-7.919917">
        <ele>2051.81984303438</ele>
        <time>2019-12-27T11:30:00.000Z</time>
      </trkpt>
      <trkpt lat="31.111539" lon="-7.919918">
        <ele>2052.01979420625</ele>
        <time>2019-12-27T11:30:02.000Z</time>
      </trkpt>
      <trkpt lat="31.11152" lon="-7.919926">
        <ele>2052.39990234375</ele>
        <time>2019-12-27T11:30:04.000Z</time>
      </trkpt>
      <trkpt lat="31.111504" lon="-7.919937">
        <ele>2052.81984303438</ele>
        <time>2019-12-27T11:30:08.000Z</time>
      </trkpt>
      <trkpt lat="31.111485" lon="-7.919934">
        <ele>2053.39990234375</ele>
        <time>2019-12-27T11:30:11.000Z</time>
      </trkpt>
      <trkpt lat="31.111462" lon="-7.919925">
        <ele>2053.81984303438</ele>
        <time>2019-12-27T11:30:14.000Z</time>
      </trkpt>
      <trkpt lat="31.11144" lon="-7.919925">
        <ele>2054.41972071875</ele>
        <time>2019-12-27T11:30:18.000Z</time>
      </trkpt>
      <trkpt lat="31.111418" lon="-7.919917">
        <ele>2055.19995117188</ele>
        <time>2019-12-27T11:30:23.000Z</time>
      </trkpt>
      <trkpt lat="31.111395" lon="-7.91991">
        <ele>2055.80004882813</ele>
        <time>2019-12-27T11:30:28.000Z</time>
      </trkpt>
      <trkpt lat="31.111376" lon="-7.919917">
        <ele>2056</ele>
        <time>2019-12-27T11:30:30.000Z</time>
      </trkpt>
      <trkpt lat="31.11135" lon="-7.919918">
        <ele>2056.39990234375</ele>
        <time>2019-12-27T11:30:33.000Z</time>
      </trkpt>
      <trkpt lat="31.111322" lon="-7.919922">
        <ele>2056.80004882813</ele>
        <time>2019-12-27T11:30:36.000Z</time>
      </trkpt>
      <trkpt lat="31.111299" lon="-7.919912">
        <ele>2057</ele>
        <time>2019-12-27T11:30:38.000Z</time>
      </trkpt>
      <trkpt lat="31.111274" lon="-7.919909">
        <ele>2057.19995117188</ele>
        <time>2019-12-27T11:30:40.000Z</time>
      </trkpt>
      <trkpt lat="31.111248" lon="-7.919902">
        <ele>2057.41972071875</ele>
        <time>2019-12-27T11:30:43.000Z</time>
      </trkpt>
      <trkpt lat="31.111229" lon="-7.919903">
        <ele>2057.6198918625</ele>
        <time>2019-12-27T11:30:45.000Z</time>
      </trkpt>
      <trkpt lat="31.11121" lon="-7.919903">
        <ele>2057.81984303438</ele>
        <time>2019-12-27T11:30:47.000Z</time>
      </trkpt>
      <trkpt lat="31.11119" lon="-7.919892">
        <ele>2058.21956532965</ele>
        <time>2019-12-27T11:30:50.000Z</time>
      </trkpt>
      <trkpt lat="31.111174" lon="-7.919874">
        <ele>2058.41972071875</ele>
        <time>2019-12-27T11:30:52.000Z</time>
      </trkpt>
      <trkpt lat="31.111155" lon="-7.91987">
        <ele>2058.80004882813</ele>
        <time>2019-12-27T11:30:54.000Z</time>
      </trkpt>
      <trkpt lat="31.111133" lon="-7.919874">
        <ele>2059.19995117188</ele>
        <time>2019-12-27T11:30:57.000Z</time>
      </trkpt>
      <trkpt lat="31.111114" lon="-7.919866">
        <ele>2059.41972071875</ele>
        <time>2019-12-27T11:30:59.000Z</time>
      </trkpt>
      <trkpt lat="31.111094" lon="-7.919863">
        <ele>2059.80004882813</ele>
        <time>2019-12-27T11:31:01.000Z</time>
      </trkpt>
      <trkpt lat="31.111072" lon="-7.919845">
        <ele>2060.01979420625</ele>
        <time>2019-12-27T11:31:03.000Z</time>
      </trkpt>
      <trkpt lat="31.111053" lon="-7.919829">
        <ele>2060.41972071875</ele>
        <time>2019-12-27T11:31:06.000Z</time>
      </trkpt>
      <trkpt lat="31.11103" lon="-7.91983">
        <ele>2060.6198918625</ele>
        <time>2019-12-27T11:31:08.000Z</time>
      </trkpt>
      <trkpt lat="31.111008" lon="-7.919835">
        <ele>2061.01979420625</ele>
        <time>2019-12-27T11:31:11.000Z</time>
      </trkpt>
      <trkpt lat="31.110986" lon="-7.919835">
        <ele>2061.60009765625</ele>
        <time>2019-12-27T11:31:15.000Z</time>
      </trkpt>
      <trkpt lat="31.110966" lon="-7.919837">
        <ele>2061.81984303438</ele>
        <time>2019-12-27T11:31:17.000Z</time>
      </trkpt>
      <trkpt lat="31.110947" lon="-7.919838">
        <ele>2062.01979420625</ele>
        <time>2019-12-27T11:31:19.000Z</time>
      </trkpt>
      <trkpt lat="31.110925" lon="-7.91983">
        <ele>2062.21974537813</ele>
        <time>2019-12-27T11:31:21.000Z</time>
      </trkpt>
      <trkpt lat="31.110906" lon="-7.919825">
        <ele>2062.41972071875</ele>
        <time>2019-12-27T11:31:23.000Z</time>
      </trkpt>
      <trkpt lat="31.110886" lon="-7.919825">
        <ele>2062.80004882813</ele>
        <time>2019-12-27T11:31:25.000Z</time>
      </trkpt>
      <trkpt lat="31.110867" lon="-7.919835">
        <ele>2063</ele>
        <time>2019-12-27T11:31:27.000Z</time>
      </trkpt>
      <trkpt lat="31.110845" lon="-7.919835">
        <ele>2063.21974537813</ele>
        <time>2019-12-27T11:31:30.000Z</time>
      </trkpt>
      <trkpt lat="31.110819" lon="-7.919837">
        <ele>2063.60009765625</ele>
        <time>2019-12-27T11:31:33.000Z</time>
      </trkpt>
      <trkpt lat="31.1108" lon="-7.91983">
        <ele>2063.81984303438</ele>
        <time>2019-12-27T11:31:36.000Z</time>
      </trkpt>
      <trkpt lat="31.110781" lon="-7.919815">
        <ele>2064.01979420625</ele>
        <time>2019-12-27T11:31:38.000Z</time>
      </trkpt>
      <trkpt lat="31.110762" lon="-7.919808">
        <ele>2064.21974537813</ele>
        <time>2019-12-27T11:31:40.000Z</time>
      </trkpt>
      <trkpt lat="31.110739" lon="-7.919817">
        <ele>2064.60009765625</ele>
        <time>2019-12-27T11:31:43.000Z</time>
      </trkpt>
      <trkpt lat="31.110717" lon="-7.919817">
        <ele>2065</ele>
        <time>2019-12-27T11:31:46.000Z</time>
      </trkpt>
      <trkpt lat="31.110694" lon="-7.91981">
        <ele>2065.21974537813</ele>
        <time>2019-12-27T11:31:49.000Z</time>
      </trkpt>
      <trkpt lat="31.110669" lon="-7.919818">
        <ele>2065.60009765625</ele>
        <time>2019-12-27T11:31:52.000Z</time>
      </trkpt>
      <trkpt lat="31.110646" lon="-7.919822">
        <ele>2065.81984303438</ele>
        <time>2019-12-27T11:31:55.000Z</time>
      </trkpt>
      <trkpt lat="31.110624" lon="-7.919812">
        <ele>2066.21974537813</ele>
        <time>2019-12-27T11:31:59.000Z</time>
      </trkpt>
      <trkpt lat="31.110602" lon="-7.919798">
        <ele>2066.60009765625</ele>
        <time>2019-12-27T11:32:02.000Z</time>
      </trkpt>
      <trkpt lat="31.110582" lon="-7.919793">
        <ele>2067</ele>
        <time>2019-12-27T11:32:05.000Z</time>
      </trkpt>
      <trkpt lat="31.110557" lon="-7.919802">
        <ele>2067.39990234375</ele>
        <time>2019-12-27T11:32:08.000Z</time>
      </trkpt>
      <trkpt lat="31.110538" lon="-7.9198">
        <ele>2067.60009765625</ele>
        <time>2019-12-27T11:32:10.000Z</time>
      </trkpt>
      <trkpt lat="31.110518" lon="-7.9198">
        <ele>2067.80004882813</ele>
        <time>2019-12-27T11:32:12.000Z</time>
      </trkpt>
      <trkpt lat="31.110493" lon="-7.919805">
        <ele>2068.19995117188</ele>
        <time>2019-12-27T11:32:15.000Z</time>
      </trkpt>
      <trkpt lat="31.110467" lon="-7.919817">
        <ele>2068.60009765625</ele>
        <time>2019-12-27T11:32:18.000Z</time>
      </trkpt>
      <trkpt lat="31.110438" lon="-7.919822">
        <ele>2069</ele>
        <time>2019-12-27T11:32:21.000Z</time>
      </trkpt>
      <trkpt lat="31.11041" lon="-7.919813">
        <ele>2069.21974537813</ele>
        <time>2019-12-27T11:32:23.000Z</time>
      </trkpt>
      <trkpt lat="31.110381" lon="-7.919822">
        <ele>2069.6198918625</ele>
        <time>2019-12-27T11:32:26.000Z</time>
      </trkpt>
      <trkpt lat="31.110362" lon="-7.919815">
        <ele>2070</ele>
        <time>2019-12-27T11:32:28.000Z</time>
      </trkpt>
      <trkpt lat="31.110333" lon="-7.91981">
        <ele>2070.41972071875</ele>
        <time>2019-12-27T11:32:31.000Z</time>
      </trkpt>
      <trkpt lat="31.110307" lon="-7.919798">
        <ele>2071.19995117188</ele>
        <time>2019-12-27T11:32:35.000Z</time>
      </trkpt>
      <trkpt lat="31.110291" lon="-7.919788">
        <ele>2071.41972071875</ele>
        <time>2019-12-27T11:32:37.000Z</time>
      </trkpt>
      <trkpt lat="31.110269" lon="-7.91978">
        <ele>2071.81984303438</ele>
        <time>2019-12-27T11:32:39.000Z</time>
      </trkpt>
      <trkpt lat="31.11025" lon="-7.91979">
        <ele>2072.21974537813</ele>
        <time>2019-12-27T11:32:42.000Z</time>
      </trkpt>
      <trkpt lat="31.11023" lon="-7.919782">
        <ele>2072.81984303438</ele>
        <time>2019-12-27T11:32:45.000Z</time>
      </trkpt>
      <trkpt lat="31.110214" lon="-7.919792">
        <ele>2073.21974537813</ele>
        <time>2019-12-27T11:32:48.000Z</time>
      </trkpt>
      <trkpt lat="31.110195" lon="-7.919803">
        <ele>2073.81984303438</ele>
        <time>2019-12-27T11:32:52.000Z</time>
      </trkpt>
      <trkpt lat="31.110173" lon="-7.919812">
        <ele>2074.41972071875</ele>
        <time>2019-12-27T11:32:56.000Z</time>
      </trkpt>
      <trkpt lat="31.110154" lon="-7.919817">
        <ele>2074.80004882813</ele>
        <time>2019-12-27T11:32:59.000Z</time>
      </trkpt>
      <trkpt lat="31.110128" lon="-7.919826">
        <ele>2075.01979420625</ele>
        <time>2019-12-27T11:33:01.000Z</time>
      </trkpt>
      <trkpt lat="31.110109" lon="-7.919833">
        <ele>2075.41972071875</ele>
        <time>2019-12-27T11:33:04.000Z</time>
      </trkpt>
      <trkpt lat="31.110093" lon="-7.919806">
        <ele>2075.81984303438</ele>
        <time>2019-12-27T11:33:08.000Z</time>
      </trkpt>
      <trkpt lat="31.110099" lon="-7.919783">
        <ele>2076.19995117188</ele>
        <time>2019-12-27T11:33:10.000Z</time>
      </trkpt>
      <trkpt lat="31.110109" lon="-7.919758">
        <ele>2076.41972071875</ele>
        <time>2019-12-27T11:33:13.000Z</time>
      </trkpt>
      <trkpt lat="31.110115" lon="-7.919734">
        <ele>2076.80004882813</ele>
        <time>2019-12-27T11:33:16.000Z</time>
      </trkpt>
      <trkpt lat="31.110131" lon="-7.919718">
        <ele>2077</ele>
        <time>2019-12-27T11:33:19.000Z</time>
      </trkpt>
      <trkpt lat="31.110147" lon="-7.919703">
        <ele>2077.21974537813</ele>
        <time>2019-12-27T11:33:23.000Z</time>
      </trkpt>
      <trkpt lat="31.110163" lon="-7.919688">
        <ele>2077.60009765625</ele>
        <time>2019-12-27T11:33:27.000Z</time>
      </trkpt>
      <trkpt lat="31.110179" lon="-7.919677">
        <ele>2077.80004882813</ele>
        <time>2019-12-27T11:33:29.000Z</time>
      </trkpt>
      <trkpt lat="31.11016" lon="-7.919655">
        <ele>2078.19995117188</ele>
        <time>2019-12-27T11:33:35.000Z</time>
      </trkpt>
      <trkpt lat="31.110138" lon="-7.919655">
        <ele>2078.6198918625</ele>
        <time>2019-12-27T11:33:38.000Z</time>
      </trkpt>
      <trkpt lat="31.110118" lon="-7.919645">
        <ele>2079.19995117188</ele>
        <time>2019-12-27T11:33:41.000Z</time>
      </trkpt>
      <trkpt lat="31.110093" lon="-7.919642">
        <ele>2080.21974537813</ele>
        <time>2019-12-27T11:33:45.000Z</time>
      </trkpt>
      <trkpt lat="31.110074" lon="-7.919638">
        <ele>2080.81984303438</ele>
        <time>2019-12-27T11:33:48.000Z</time>
      </trkpt>
      <trkpt lat="31.110045" lon="-7.919625">
        <ele>2081.21974537813</ele>
        <time>2019-12-27T11:33:51.000Z</time>
      </trkpt>
      <trkpt lat="31.110019" lon="-7.91963">
        <ele>2081.6198918625</ele>
        <time>2019-12-27T11:33:54.000Z</time>
      </trkpt>
      <trkpt lat="31.109997" lon="-7.919642">
        <ele>2082.21974537813</ele>
        <time>2019-12-27T11:33:59.000Z</time>
      </trkpt>
      <trkpt lat="31.109974" lon="-7.919642">
        <ele>2082.60009765625</ele>
        <time>2019-12-27T11:34:02.000Z</time>
      </trkpt>
      <trkpt lat="31.109955" lon="-7.919646">
        <ele>2083</ele>
        <time>2019-12-27T11:34:05.000Z</time>
      </trkpt>
      <trkpt lat="31.109933" lon="-7.919648">
        <ele>2083.21974537813</ele>
        <time>2019-12-27T11:34:08.000Z</time>
      </trkpt>
      <trkpt lat="31.10992" lon="-7.919631">
        <ele>2083.80004882813</ele>
        <time>2019-12-27T11:34:12.000Z</time>
      </trkpt>
      <trkpt lat="31.109901" lon="-7.919631">
        <ele>2084.21974537813</ele>
        <time>2019-12-27T11:34:15.000Z</time>
      </trkpt>
      <trkpt lat="31.109885" lon="-7.919642">
        <ele>2084.6198918625</ele>
        <time>2019-12-27T11:34:18.000Z</time>
      </trkpt>
      <trkpt lat="31.109862" lon="-7.919643">
        <ele>2085.21974537813</ele>
        <time>2019-12-27T11:34:22.000Z</time>
      </trkpt>
      <trkpt lat="31.109843" lon="-7.91965">
        <ele>2085.6198918625</ele>
        <time>2019-12-27T11:34:25.000Z</time>
      </trkpt>
      <trkpt lat="31.109821" lon="-7.919643">
        <ele>2086.19995117188</ele>
        <time>2019-12-27T11:34:29.000Z</time>
      </trkpt>
      <trkpt lat="31.109802" lon="-7.919635">
        <ele>2086.6198918625</ele>
        <time>2019-12-27T11:34:33.000Z</time>
      </trkpt>
      <trkpt lat="31.109782" lon="-7.91963">
        <ele>2087</ele>
        <time>2019-12-27T11:34:35.000Z</time>
      </trkpt>
      <trkpt lat="31.10977" lon="-7.919614">
        <ele>2087.19995117188</ele>
        <time>2019-12-27T11:34:37.000Z</time>
      </trkpt>
      <trkpt lat="31.109754" lon="-7.9196">
        <ele>2087.6198918625</ele>
        <time>2019-12-27T11:34:41.000Z</time>
      </trkpt>
      <trkpt lat="31.109738" lon="-7.919588">
        <ele>2088.19995117188</ele>
        <time>2019-12-27T11:34:45.000Z</time>
      </trkpt>
      <trkpt lat="31.109718" lon="-7.919586">
        <ele>2088.39990234375</ele>
        <time>2019-12-27T11:34:47.000Z</time>
      </trkpt>
      <trkpt lat="31.109699" lon="-7.919583">
        <ele>2088.80004882813</ele>
        <time>2019-12-27T11:34:50.000Z</time>
      </trkpt>
      <trkpt lat="31.109677" lon="-7.919583">
        <ele>2089.01979420625</ele>
        <time>2019-12-27T11:34:53.000Z</time>
      </trkpt>
      <trkpt lat="31.109658" lon="-7.919598">
        <ele>2089.60009765625</ele>
        <time>2019-12-27T11:34:56.000Z</time>
      </trkpt>
      <trkpt lat="31.109632" lon="-7.919598">
        <ele>2090.01979420625</ele>
        <time>2019-12-27T11:35:00.000Z</time>
      </trkpt>
      <trkpt lat="31.109613" lon="-7.919608">
        <ele>2090.60009765625</ele>
        <time>2019-12-27T11:35:04.000Z</time>
      </trkpt>
      <trkpt lat="31.109594" lon="-7.91961">
        <ele>2090.81984303438</ele>
        <time>2019-12-27T11:35:06.000Z</time>
      </trkpt>
      <trkpt lat="31.109574" lon="-7.919614">
        <ele>2091.21974537813</ele>
        <time>2019-12-27T11:35:09.000Z</time>
      </trkpt>
      <trkpt lat="31.109552" lon="-7.919617">
        <ele>2091.6198918625</ele>
        <time>2019-12-27T11:35:12.000Z</time>
      </trkpt>
      <trkpt lat="31.109533" lon="-7.919618">
        <ele>2092.01971547055</ele>
        <time>2019-12-27T11:35:14.000Z</time>
      </trkpt>
      <trkpt lat="31.109514" lon="-7.919618">
        <ele>2092.41972071875</ele>
        <time>2019-12-27T11:35:17.000Z</time>
      </trkpt>
      <trkpt lat="31.109494" lon="-7.919623">
        <ele>2092.8191206747</ele>
        <time>2019-12-27T11:35:19.000Z</time>
      </trkpt>
      <trkpt lat="31.109469" lon="-7.91963">
        <ele>2093.41972071875</ele>
        <time>2019-12-27T11:35:22.000Z</time>
      </trkpt>
      <trkpt lat="31.109443" lon="-7.919631">
        <ele>2094.01979420625</ele>
        <time>2019-12-27T11:35:26.000Z</time>
      </trkpt>
      <trkpt lat="31.109424" lon="-7.919637">
        <ele>2094.23956375312</ele>
        <time>2019-12-27T11:35:28.000Z</time>
      </trkpt>
      <trkpt lat="31.109405" lon="-7.919648">
        <ele>2094.6198918625</ele>
        <time>2019-12-27T11:35:30.000Z</time>
      </trkpt>
      <trkpt lat="31.109389" lon="-7.91966">
        <ele>2095.01979420625</ele>
        <time>2019-12-27T11:35:32.000Z</time>
      </trkpt>
      <trkpt lat="31.109366" lon="-7.919677">
        <ele>2095.60009765625</ele>
        <time>2019-12-27T11:35:35.000Z</time>
      </trkpt>
      <trkpt lat="31.109344" lon="-7.919694">
        <ele>2096.01979420625</ele>
        <time>2019-12-27T11:35:38.000Z</time>
      </trkpt>
      <trkpt lat="31.109328" lon="-7.919703">
        <ele>2096.39990234375</ele>
        <time>2019-12-27T11:35:40.000Z</time>
      </trkpt>
      <trkpt lat="31.109309" lon="-7.919702">
        <ele>2096.60009765625</ele>
        <time>2019-12-27T11:35:42.000Z</time>
      </trkpt>
      <trkpt lat="31.109286" lon="-7.919705">
        <ele>2097.01979420625</ele>
        <time>2019-12-27T11:35:45.000Z</time>
      </trkpt>
      <trkpt lat="31.109264" lon="-7.919703">
        <ele>2097.41972071875</ele>
        <time>2019-12-27T11:35:48.000Z</time>
      </trkpt>
      <trkpt lat="31.109242" lon="-7.919697">
        <ele>2097.80004882813</ele>
        <time>2019-12-27T11:35:50.000Z</time>
      </trkpt>
      <trkpt lat="31.109216" lon="-7.91969">
        <ele>2098.19995117188</ele>
        <time>2019-12-27T11:35:53.000Z</time>
      </trkpt>
      <trkpt lat="31.109197" lon="-7.919682">
        <ele>2098.41972071875</ele>
        <time>2019-12-27T11:35:55.000Z</time>
      </trkpt>
      <trkpt lat="31.109181" lon="-7.919671">
        <ele>2098.6198918625</ele>
        <time>2019-12-27T11:35:57.000Z</time>
      </trkpt>
      <trkpt lat="31.109158" lon="-7.919657">
        <ele>2099</ele>
        <time>2019-12-27T11:35:59.000Z</time>
      </trkpt>
      <trkpt lat="31.109139" lon="-7.919654">
        <ele>2099.21974537813</ele>
        <time>2019-12-27T11:36:01.000Z</time>
      </trkpt>
      <trkpt lat="31.10912" lon="-7.91965">
        <ele>2099.6198918625</ele>
        <time>2019-12-27T11:36:04.000Z</time>
      </trkpt>
      <trkpt lat="31.109101" lon="-7.919651">
        <ele>2100.01979420625</ele>
        <time>2019-12-27T11:36:07.000Z</time>
      </trkpt>
      <trkpt lat="31.109078" lon="-7.919638">
        <ele>2100.39990234375</ele>
        <time>2019-12-27T11:36:10.000Z</time>
      </trkpt>
      <trkpt lat="31.109056" lon="-7.919635">
        <ele>2100.6198918625</ele>
        <time>2019-12-27T11:36:13.000Z</time>
      </trkpt>
      <trkpt lat="31.109037" lon="-7.919634">
        <ele>2101</ele>
        <time>2019-12-27T11:36:15.000Z</time>
      </trkpt>
      <trkpt lat="31.109014" lon="-7.919628">
        <ele>2101.41972071875</ele>
        <time>2019-12-27T11:36:19.000Z</time>
      </trkpt>
      <trkpt lat="31.109008" lon="-7.919606">
        <ele>2101.81984303438</ele>
        <time>2019-12-27T11:36:22.000Z</time>
      </trkpt>
      <trkpt lat="31.108986" lon="-7.919597">
        <ele>2102.21974537813</ele>
        <time>2019-12-27T11:36:26.000Z</time>
      </trkpt>
      <trkpt lat="31.108966" lon="-7.919603">
        <ele>2102.80004882813</ele>
        <time>2019-12-27T11:36:30.000Z</time>
      </trkpt>
      <trkpt lat="31.108947" lon="-7.91962">
        <ele>2103.01979420625</ele>
        <time>2019-12-27T11:36:33.000Z</time>
      </trkpt>
      <trkpt lat="31.108928" lon="-7.919634">
        <ele>2103.41972071875</ele>
        <time>2019-12-27T11:36:36.000Z</time>
      </trkpt>
      <trkpt lat="31.108906" lon="-7.919637">
        <ele>2104</ele>
        <time>2019-12-27T11:36:40.000Z</time>
      </trkpt>
      <trkpt lat="31.10888" lon="-7.919623">
        <ele>2104.39990234375</ele>
        <time>2019-12-27T11:36:43.000Z</time>
      </trkpt>
      <trkpt lat="31.108858" lon="-7.919614">
        <ele>2104.6198918625</ele>
        <time>2019-12-27T11:36:46.000Z</time>
      </trkpt>
      <trkpt lat="31.108832" lon="-7.919598">
        <ele>2105</ele>
        <time>2019-12-27T11:36:49.000Z</time>
      </trkpt>
      <trkpt lat="31.108813" lon="-7.91959">
        <ele>2105.19995117188</ele>
        <time>2019-12-27T11:36:51.000Z</time>
      </trkpt>
      <trkpt lat="31.10879" lon="-7.919592">
        <ele>2105.39990234375</ele>
        <time>2019-12-27T11:36:54.000Z</time>
      </trkpt>
      <trkpt lat="31.108765" lon="-7.919586">
        <ele>2105.6198918625</ele>
        <time>2019-12-27T11:36:58.000Z</time>
      </trkpt>
      <trkpt lat="31.108746" lon="-7.919586">
        <ele>2105.81984303438</ele>
        <time>2019-12-27T11:37:01.000Z</time>
      </trkpt>
      <trkpt lat="31.108726" lon="-7.919586">
        <ele>2106.19995117188</ele>
        <time>2019-12-27T11:37:03.000Z</time>
      </trkpt>
      <trkpt lat="31.108701" lon="-7.919577">
        <ele>2106.39990234375</ele>
        <time>2019-12-27T11:37:06.000Z</time>
      </trkpt>
      <trkpt lat="31.108682" lon="-7.919578">
        <ele>2106.6198918625</ele>
        <time>2019-12-27T11:37:08.000Z</time>
      </trkpt>
      <trkpt lat="31.108659" lon="-7.919574">
        <ele>2107</ele>
        <time>2019-12-27T11:37:11.000Z</time>
      </trkpt>
      <trkpt lat="31.108634" lon="-7.919583">
        <ele>2107.21974537813</ele>
        <time>2019-12-27T11:37:14.000Z</time>
      </trkpt>
      <trkpt lat="31.108614" lon="-7.919586">
        <ele>2107.80004882813</ele>
        <time>2019-12-27T11:37:17.000Z</time>
      </trkpt>
      <trkpt lat="31.108595" lon="-7.919583">
        <ele>2108.21974537813</ele>
        <time>2019-12-27T11:37:20.000Z</time>
      </trkpt>
      <trkpt lat="31.10857" lon="-7.919588">
        <ele>2108.83963724063</ele>
        <time>2019-12-27T11:37:23.000Z</time>
      </trkpt>
      <trkpt lat="31.10855" lon="-7.919597">
        <ele>2109.41972071875</ele>
        <time>2019-12-27T11:37:26.000Z</time>
      </trkpt>
      <trkpt lat="31.108531" lon="-7.919598">
        <ele>2109.80004882813</ele>
        <time>2019-12-27T11:37:29.000Z</time>
      </trkpt>
      <trkpt lat="31.108509" lon="-7.919597">
        <ele>2110.439514925</ele>
        <time>2019-12-27T11:37:32.000Z</time>
      </trkpt>
      <trkpt lat="31.10849" lon="-7.91958">
        <ele>2111.01979420625</ele>
        <time>2019-12-27T11:37:35.000Z</time>
      </trkpt>
      <trkpt lat="31.108474" lon="-7.919569">
        <ele>2111.41972071875</ele>
        <time>2019-12-27T11:37:37.000Z</time>
      </trkpt>
      <trkpt lat="31.108454" lon="-7.919562">
        <ele>2112.19995117188</ele>
        <time>2019-12-27T11:37:41.000Z</time>
      </trkpt>
      <trkpt lat="31.108435" lon="-7.91956">
        <ele>2112.60009765625</ele>
        <time>2019-12-27T11:37:44.000Z</time>
      </trkpt>
      <trkpt lat="31.108416" lon="-7.919555">
        <ele>2112.81984303438</ele>
        <time>2019-12-27T11:37:46.000Z</time>
      </trkpt>
      <trkpt lat="31.10839" lon="-7.919546">
        <ele>2113.21974537813</ele>
        <time>2019-12-27T11:37:49.000Z</time>
      </trkpt>
      <trkpt lat="31.108365" lon="-7.919549">
        <ele>2113.6198918625</ele>
        <time>2019-12-27T11:37:52.000Z</time>
      </trkpt>
      <trkpt lat="31.108346" lon="-7.919546">
        <ele>2114.01979420625</ele>
        <time>2019-12-27T11:37:54.000Z</time>
      </trkpt>
      <trkpt lat="31.108326" lon="-7.919554">
        <ele>2114.41972071875</ele>
        <time>2019-12-27T11:37:57.000Z</time>
      </trkpt>
      <trkpt lat="31.108301" lon="-7.919542">
        <ele>2115.41972071875</ele>
        <time>2019-12-27T11:38:04.000Z</time>
      </trkpt>
      <trkpt lat="31.108275" lon="-7.919543">
        <ele>2115.81984303438</ele>
        <time>2019-12-27T11:38:07.000Z</time>
      </trkpt>
      <trkpt lat="31.108262" lon="-7.91956">
        <ele>2116.21974537813</ele>
        <time>2019-12-27T11:38:09.000Z</time>
      </trkpt>
      <trkpt lat="31.108243" lon="-7.91956">
        <ele>2116.81984303438</ele>
        <time>2019-12-27T11:38:13.000Z</time>
      </trkpt>
      <trkpt lat="31.108224" lon="-7.919558">
        <ele>2117.39990234375</ele>
        <time>2019-12-27T11:38:17.000Z</time>
      </trkpt>
      <trkpt lat="31.108205" lon="-7.919563">
        <ele>2118.01979420625</ele>
        <time>2019-12-27T11:38:21.000Z</time>
      </trkpt>
      <trkpt lat="31.108189" lon="-7.919574">
        <ele>2118.439514925</ele>
        <time>2019-12-27T11:38:24.000Z</time>
      </trkpt>
      <trkpt lat="31.108173" lon="-7.919592">
        <ele>2119.01979420625</ele>
        <time>2019-12-27T11:38:27.000Z</time>
      </trkpt>
      <trkpt lat="31.108154" lon="-7.919594">
        <ele>2119.6198918625</ele>
        <time>2019-12-27T11:38:31.000Z</time>
      </trkpt>
      <trkpt lat="31.108128" lon="-7.919586">
        <ele>2120.21974537813</ele>
        <time>2019-12-27T11:38:34.000Z</time>
      </trkpt>
      <trkpt lat="31.10809" lon="-7.91957">
        <ele>2120.81984303438</ele>
        <time>2019-12-27T11:38:38.000Z</time>
      </trkpt>
      <trkpt lat="31.108074" lon="-7.91959">
        <ele>2121.01979420625</ele>
        <time>2019-12-27T11:38:39.000Z</time>
      </trkpt>
      <trkpt lat="31.108035" lon="-7.919574">
        <ele>2121.41972071875</ele>
        <time>2019-12-27T11:38:41.000Z</time>
      </trkpt>
      <trkpt lat="31.108019" lon="-7.919554">
        <ele>2121.81984303438</ele>
        <time>2019-12-27T11:38:43.000Z</time>
      </trkpt>
      <trkpt lat="31.107997" lon="-7.919543">
        <ele>2122.39990234375</ele>
        <time>2019-12-27T11:38:46.000Z</time>
      </trkpt>
      <trkpt lat="31.107974" lon="-7.919546">
        <ele>2122.81984303438</ele>
        <time>2019-12-27T11:38:50.000Z</time>
      </trkpt>
      <trkpt lat="31.107955" lon="-7.919546">
        <ele>2123.41972071875</ele>
        <time>2019-12-27T11:38:52.000Z</time>
      </trkpt>
      <trkpt lat="31.107933" lon="-7.91955">
        <ele>2124.01979420625</ele>
        <time>2019-12-27T11:38:56.000Z</time>
      </trkpt>
      <trkpt lat="31.107914" lon="-7.91955">
        <ele>2124.80004882813</ele>
        <time>2019-12-27T11:39:00.000Z</time>
      </trkpt>
      <trkpt lat="31.107888" lon="-7.91955">
        <ele>2125.41972071875</ele>
        <time>2019-12-27T11:39:05.000Z</time>
      </trkpt>
      <trkpt lat="31.107869" lon="-7.919532">
        <ele>2126.41972071875</ele>
        <time>2019-12-27T11:39:10.000Z</time>
      </trkpt>
      <trkpt lat="31.10785" lon="-7.919535">
        <ele>2126.81984303438</ele>
        <time>2019-12-27T11:39:13.000Z</time>
      </trkpt>
      <trkpt lat="31.10783" lon="-7.919515">
        <ele>2127.41972071875</ele>
        <time>2019-12-27T11:39:19.000Z</time>
      </trkpt>
      <trkpt lat="31.107798" lon="-7.919505">
        <ele>2128</ele>
        <time>2019-12-27T11:39:26.000Z</time>
      </trkpt>
      <trkpt lat="31.107776" lon="-7.919503">
        <ele>2128.19995117188</ele>
        <time>2019-12-27T11:39:29.000Z</time>
      </trkpt>
      <trkpt lat="31.107757" lon="-7.91951">
        <ele>2128.39990234375</ele>
        <time>2019-12-27T11:39:32.000Z</time>
      </trkpt>
      <trkpt lat="31.107731" lon="-7.91951">
        <ele>2128.80004882813</ele>
        <time>2019-12-27T11:39:37.000Z</time>
      </trkpt>
      <trkpt lat="31.107712" lon="-7.919498">
        <ele>2129.01979420625</ele>
        <time>2019-12-27T11:39:40.000Z</time>
      </trkpt>
      <trkpt lat="31.107693" lon="-7.919495">
        <ele>2129.21974537813</ele>
        <time>2019-12-27T11:39:42.000Z</time>
      </trkpt>
      <trkpt lat="31.107674" lon="-7.919486">
        <ele>2129.6198918625</ele>
        <time>2019-12-27T11:39:45.000Z</time>
      </trkpt>
      <trkpt lat="31.107651" lon="-7.919485">
        <ele>2130</ele>
        <time>2019-12-27T11:39:48.000Z</time>
      </trkpt>
      <trkpt lat="31.107626" lon="-7.919478">
        <ele>2130.39990234375</ele>
        <time>2019-12-27T11:39:52.000Z</time>
      </trkpt>
      <trkpt lat="31.107597" lon="-7.919465">
        <ele>2130.80004882813</ele>
        <time>2019-12-27T11:39:56.000Z</time>
      </trkpt>
      <trkpt lat="31.107578" lon="-7.919453">
        <ele>2131.21974537813</ele>
        <time>2019-12-27T11:40:00.000Z</time>
      </trkpt>
      <trkpt lat="31.107555" lon="-7.91944">
        <ele>2131.81984303438</ele>
        <time>2019-12-27T11:40:05.000Z</time>
      </trkpt>
      <trkpt lat="31.10752" lon="-7.919428">
        <ele>2132.39990234375</ele>
        <time>2019-12-27T11:40:09.000Z</time>
      </trkpt>
      <trkpt lat="31.107501" lon="-7.919414">
        <ele>2132.6198918625</ele>
        <time>2019-12-27T11:40:12.000Z</time>
      </trkpt>
      <trkpt lat="31.107482" lon="-7.919405">
        <ele>2133.19995117188</ele>
        <time>2019-12-27T11:40:15.000Z</time>
      </trkpt>
      <trkpt lat="31.107456" lon="-7.919388">
        <ele>2133.6198918625</ele>
        <time>2019-12-27T11:40:18.000Z</time>
      </trkpt>
      <trkpt lat="31.107434" lon="-7.91938">
        <ele>2134.01979420625</ele>
        <time>2019-12-27T11:40:21.000Z</time>
      </trkpt>
      <trkpt lat="31.107411" lon="-7.919372">
        <ele>2134.60009765625</ele>
        <time>2019-12-27T11:40:24.000Z</time>
      </trkpt>
      <trkpt lat="31.107392" lon="-7.919375">
        <ele>2135</ele>
        <time>2019-12-27T11:40:27.000Z</time>
      </trkpt>
      <trkpt lat="31.107376" lon="-7.919357">
        <ele>2135.60009765625</ele>
        <time>2019-12-27T11:40:31.000Z</time>
      </trkpt>
      <trkpt lat="31.107398" lon="-7.919342">
        <ele>2136.19995117188</ele>
        <time>2019-12-27T11:40:35.000Z</time>
      </trkpt>
      <trkpt lat="31.107414" lon="-7.919331">
        <ele>2136.41972071875</ele>
        <time>2019-12-27T11:40:37.000Z</time>
      </trkpt>
      <trkpt lat="31.107434" lon="-7.919326">
        <ele>2136.81984303438</ele>
        <time>2019-12-27T11:40:40.000Z</time>
      </trkpt>
      <trkpt lat="31.107446" lon="-7.919303">
        <ele>2137.39990234375</ele>
        <time>2019-12-27T11:40:44.000Z</time>
      </trkpt>
      <trkpt lat="31.107459" lon="-7.919282">
        <ele>2138</ele>
        <time>2019-12-27T11:40:48.000Z</time>
      </trkpt>
      <trkpt lat="31.107482" lon="-7.919278">
        <ele>2138.41972071875</ele>
        <time>2019-12-27T11:40:51.000Z</time>
      </trkpt>
      <trkpt lat="31.107501" lon="-7.919275">
        <ele>2138.6198918625</ele>
        <time>2019-12-27T11:40:53.000Z</time>
      </trkpt>
      <trkpt lat="31.107526" lon="-7.91927">
        <ele>2139.21974537813</ele>
        <time>2019-12-27T11:40:56.000Z</time>
      </trkpt>
      <trkpt lat="31.107549" lon="-7.919265">
        <ele>2139.6198918625</ele>
        <time>2019-12-27T11:40:59.000Z</time>
      </trkpt>
      <trkpt lat="31.107568" lon="-7.919263">
        <ele>2140</ele>
        <time>2019-12-27T11:41:01.000Z</time>
      </trkpt>
      <trkpt lat="31.107558" lon="-7.919237">
        <ele>2140.6198918625</ele>
        <time>2019-12-27T11:41:06.000Z</time>
      </trkpt>
      <trkpt lat="31.107536" lon="-7.919229">
        <ele>2141.21974537813</ele>
        <time>2019-12-27T11:41:10.000Z</time>
      </trkpt>
      <trkpt lat="31.10751" lon="-7.919212">
        <ele>2142.01979420625</ele>
        <time>2019-12-27T11:41:14.000Z</time>
      </trkpt>
      <trkpt lat="31.107488" lon="-7.91922">
        <ele>2142.41972071875</ele>
        <time>2019-12-27T11:41:17.000Z</time>
      </trkpt>
      <trkpt lat="31.107472" lon="-7.91923">
        <ele>2142.81984303438</ele>
        <time>2019-12-27T11:41:19.000Z</time>
      </trkpt>
      <trkpt lat="31.10745" lon="-7.919231">
        <ele>2143.01979420625</ele>
        <time>2019-12-27T11:41:21.000Z</time>
      </trkpt>
      <trkpt lat="31.107427" lon="-7.91923">
        <ele>2143.39990234375</ele>
        <time>2019-12-27T11:41:23.000Z</time>
      </trkpt>
      <trkpt lat="31.107408" lon="-7.919218">
        <ele>2143.81984303438</ele>
        <time>2019-12-27T11:41:27.000Z</time>
      </trkpt>
      <trkpt lat="31.107405" lon="-7.919195">
        <ele>2144.21974537813</ele>
        <time>2019-12-27T11:41:30.000Z</time>
      </trkpt>
      <trkpt lat="31.107414" lon="-7.919174">
        <ele>2144.6198918625</ele>
        <time>2019-12-27T11:41:33.000Z</time>
      </trkpt>
      <trkpt lat="31.107418" lon="-7.91915">
        <ele>2145.01979420625</ele>
        <time>2019-12-27T11:41:36.000Z</time>
      </trkpt>
      <trkpt lat="31.107405" lon="-7.919133">
        <ele>2145.6198918625</ele>
        <time>2019-12-27T11:41:40.000Z</time>
      </trkpt>
      <trkpt lat="31.107389" lon="-7.91912">
        <ele>2146.01979420625</ele>
        <time>2019-12-27T11:41:44.000Z</time>
      </trkpt>
      <trkpt lat="31.107373" lon="-7.919108">
        <ele>2146.39990234375</ele>
        <time>2019-12-27T11:41:46.000Z</time>
      </trkpt>
      <trkpt lat="31.10736" lon="-7.919086">
        <ele>2146.81984303438</ele>
        <time>2019-12-27T11:41:50.000Z</time>
      </trkpt>
      <trkpt lat="31.107347" lon="-7.919066">
        <ele>2147.41972071875</ele>
        <time>2019-12-27T11:41:54.000Z</time>
      </trkpt>
      <trkpt lat="31.107322" lon="-7.919057">
        <ele>2147.80004882813</ele>
        <time>2019-12-27T11:41:57.000Z</time>
      </trkpt>
      <trkpt lat="31.107306" lon="-7.919043">
        <ele>2148.01979420625</ele>
        <time>2019-12-27T11:41:59.000Z</time>
      </trkpt>
      <trkpt lat="31.10729" lon="-7.91903">
        <ele>2148.19995117188</ele>
        <time>2019-12-27T11:42:01.000Z</time>
      </trkpt>
      <trkpt lat="31.107274" lon="-7.919014">
        <ele>2148.41972071875</ele>
        <time>2019-12-27T11:42:03.000Z</time>
      </trkpt>
      <trkpt lat="31.107251" lon="-7.919005">
        <ele>2148.81984303438</ele>
        <time>2019-12-27T11:42:06.000Z</time>
      </trkpt>
      <trkpt lat="31.107232" lon="-7.919015">
        <ele>2149.01979420625</ele>
        <time>2019-12-27T11:42:08.000Z</time>
      </trkpt>
      <trkpt lat="31.107213" lon="-7.919025">
        <ele>2149.60009765625</ele>
        <time>2019-12-27T11:42:11.000Z</time>
      </trkpt>
      <trkpt lat="31.10719" lon="-7.919023">
        <ele>2149.81984303438</ele>
        <time>2019-12-27T11:42:14.000Z</time>
      </trkpt>
      <trkpt lat="31.107171" lon="-7.919032">
        <ele>2150.21974537813</ele>
        <time>2019-12-27T11:42:16.000Z</time>
      </trkpt>
      <trkpt lat="31.107149" lon="-7.919037">
        <ele>2150.6198918625</ele>
        <time>2019-12-27T11:42:19.000Z</time>
      </trkpt>
      <trkpt lat="31.10713" lon="-7.919045">
        <ele>2151.01979420625</ele>
        <time>2019-12-27T11:42:22.000Z</time>
      </trkpt>
      <trkpt lat="31.10711" lon="-7.919042">
        <ele>2151.21974537813</ele>
        <time>2019-12-27T11:42:24.000Z</time>
      </trkpt>
      <trkpt lat="31.107085" lon="-7.919037">
        <ele>2151.6198918625</ele>
        <time>2019-12-27T11:42:27.000Z</time>
      </trkpt>
      <trkpt lat="31.107062" lon="-7.919018">
        <ele>2152.01979420625</ele>
        <time>2019-12-27T11:42:30.000Z</time>
      </trkpt>
      <trkpt lat="31.107043" lon="-7.919008">
        <ele>2152.21974537813</ele>
        <time>2019-12-27T11:42:32.000Z</time>
      </trkpt>
      <trkpt lat="31.107021" lon="-7.91901">
        <ele>2152.60009765625</ele>
        <time>2019-12-27T11:42:35.000Z</time>
      </trkpt>
      <trkpt lat="31.106995" lon="-7.919007">
        <ele>2153.01979420625</ele>
        <time>2019-12-27T11:42:39.000Z</time>
      </trkpt>
      <trkpt lat="31.106976" lon="-7.919008">
        <ele>2153.39990234375</ele>
        <time>2019-12-27T11:42:41.000Z</time>
      </trkpt>
      <trkpt lat="31.106954" lon="-7.919008">
        <ele>2153.81984303438</ele>
        <time>2019-12-27T11:42:45.000Z</time>
      </trkpt>
      <trkpt lat="31.106934" lon="-7.919008">
        <ele>2154.19995117188</ele>
        <time>2019-12-27T11:42:48.000Z</time>
      </trkpt>
      <trkpt lat="31.106909" lon="-7.919003">
        <ele>2154.6198918625</ele>
        <time>2019-12-27T11:42:51.000Z</time>
      </trkpt>
      <trkpt lat="31.106886" lon="-7.919007">
        <ele>2155.01979420625</ele>
        <time>2019-12-27T11:42:54.000Z</time>
      </trkpt>
      <trkpt lat="31.106867" lon="-7.919007">
        <ele>2155.81984303438</ele>
        <time>2019-12-27T11:42:59.000Z</time>
      </trkpt>
      <trkpt lat="31.106851" lon="-7.918995">
        <ele>2156.19995117188</ele>
        <time>2019-12-27T11:43:02.000Z</time>
      </trkpt>
      <trkpt lat="31.106838" lon="-7.91898">
        <ele>2156.39990234375</ele>
        <time>2019-12-27T11:43:04.000Z</time>
      </trkpt>
      <trkpt lat="31.106813" lon="-7.918966">
        <ele>2156.81984303438</ele>
        <time>2019-12-27T11:43:08.000Z</time>
      </trkpt>
      <trkpt lat="31.106794" lon="-7.918958">
        <ele>2157.01979420625</ele>
        <time>2019-12-27T11:43:10.000Z</time>
      </trkpt>
      <trkpt lat="31.106774" lon="-7.918954">
        <ele>2157.41972071875</ele>
        <time>2019-12-27T11:43:13.000Z</time>
      </trkpt>
      <trkpt lat="31.106755" lon="-7.918946">
        <ele>2157.80004882813</ele>
        <time>2019-12-27T11:43:15.000Z</time>
      </trkpt>
      <trkpt lat="31.106736" lon="-7.918935">
        <ele>2158.01979420625</ele>
        <time>2019-12-27T11:43:18.000Z</time>
      </trkpt>
      <trkpt lat="31.106714" lon="-7.918918">
        <ele>2158.41972071875</ele>
        <time>2019-12-27T11:43:21.000Z</time>
      </trkpt>
      <trkpt lat="31.106694" lon="-7.918917">
        <ele>2159</ele>
        <time>2019-12-27T11:43:24.000Z</time>
      </trkpt>
      <trkpt lat="31.106672" lon="-7.918918">
        <ele>2159.21974537813</ele>
        <time>2019-12-27T11:43:27.000Z</time>
      </trkpt>
      <trkpt lat="31.10664" lon="-7.918908">
        <ele>2159.81984303438</ele>
        <time>2019-12-27T11:43:32.000Z</time>
      </trkpt>
      <trkpt lat="31.106624" lon="-7.918897">
        <ele>2160.21974537813</ele>
        <time>2019-12-27T11:43:34.000Z</time>
      </trkpt>
      <trkpt lat="31.106595" lon="-7.918886">
        <ele>2160.8196629859</ele>
        <time>2019-12-27T11:43:39.000Z</time>
      </trkpt>
      <trkpt lat="31.106579" lon="-7.918863">
        <ele>2161.41972071875</ele>
        <time>2019-12-27T11:43:42.000Z</time>
      </trkpt>
      <trkpt lat="31.106566" lon="-7.918846">
        <ele>2161.60009765625</ele>
        <time>2019-12-27T11:43:44.000Z</time>
      </trkpt>
      <trkpt lat="31.10655" lon="-7.91881">
        <ele>2162.21974537813</ele>
        <time>2019-12-27T11:43:49.000Z</time>
      </trkpt>
      <trkpt lat="31.106544" lon="-7.918775">
        <ele>2162.6198918625</ele>
        <time>2019-12-27T11:43:52.000Z</time>
      </trkpt>
      <trkpt lat="31.106566" lon="-7.918769">
        <ele>2163.6198918625</ele>
        <time>2019-12-27T11:43:57.000Z</time>
      </trkpt>
      <trkpt lat="31.106586" lon="-7.918769">
        <ele>2164.41972071875</ele>
        <time>2019-12-27T11:44:01.000Z</time>
      </trkpt>
      <trkpt lat="31.106608" lon="-7.918777">
        <ele>2165.01979420625</ele>
        <time>2019-12-27T11:44:04.000Z</time>
      </trkpt>
      <trkpt lat="31.10663" lon="-7.918777">
        <ele>2165.23956375312</ele>
        <time>2019-12-27T11:44:06.000Z</time>
      </trkpt>
      <trkpt lat="31.106656" lon="-7.918773">
        <ele>2165.80004882813</ele>
        <time>2019-12-27T11:44:09.000Z</time>
      </trkpt>
      <trkpt lat="31.106675" lon="-7.918766">
        <ele>2166.19995117188</ele>
        <time>2019-12-27T11:44:11.000Z</time>
      </trkpt>
      <trkpt lat="31.106694" lon="-7.918753">
        <ele>2166.6198918625</ele>
        <time>2019-12-27T11:44:14.000Z</time>
      </trkpt>
      <trkpt lat="31.106714" lon="-7.918743">
        <ele>2167.01979420625</ele>
        <time>2019-12-27T11:44:17.000Z</time>
      </trkpt>
      <trkpt lat="31.10673" lon="-7.91873">
        <ele>2167.6198918625</ele>
        <time>2019-12-27T11:44:20.000Z</time>
      </trkpt>
      <trkpt lat="31.106714" lon="-7.918707">
        <ele>2168.01979420625</ele>
        <time>2019-12-27T11:44:23.000Z</time>
      </trkpt>
      <trkpt lat="31.106688" lon="-7.918694">
        <ele>2168.63968606875</ele>
        <time>2019-12-27T11:44:27.000Z</time>
      </trkpt>
      <trkpt lat="31.106669" lon="-7.918692">
        <ele>2169.60009765625</ele>
        <time>2019-12-27T11:44:32.000Z</time>
      </trkpt>
      <trkpt lat="31.106646" lon="-7.918692">
        <ele>2170.21974537813</ele>
        <time>2019-12-27T11:44:36.000Z</time>
      </trkpt>
      <trkpt lat="31.106634" lon="-7.918674">
        <ele>2170.81984303438</ele>
        <time>2019-12-27T11:44:40.000Z</time>
      </trkpt>
      <trkpt lat="31.106624" lon="-7.918643">
        <ele>2171.21974537813</ele>
        <time>2019-12-27T11:44:43.000Z</time>
      </trkpt>
      <trkpt lat="31.106614" lon="-7.918603">
        <ele>2171.81984303438</ele>
        <time>2019-12-27T11:44:47.000Z</time>
      </trkpt>
      <trkpt lat="31.106608" lon="-7.91858">
        <ele>2172.21974537813</ele>
        <time>2019-12-27T11:44:49.000Z</time>
      </trkpt>
      <trkpt lat="31.106598" lon="-7.918551">
        <ele>2172.81984303438</ele>
        <time>2019-12-27T11:44:52.000Z</time>
      </trkpt>
      <trkpt lat="31.106595" lon="-7.91852">
        <ele>2173.39990234375</ele>
        <time>2019-12-27T11:44:56.000Z</time>
      </trkpt>
      <trkpt lat="31.106592" lon="-7.918494">
        <ele>2174</ele>
        <time>2019-12-27T11:45:00.000Z</time>
      </trkpt>
      <trkpt lat="31.106589" lon="-7.918466">
        <ele>2174.39990234375</ele>
        <time>2019-12-27T11:45:03.000Z</time>
      </trkpt>
      <trkpt lat="31.106579" lon="-7.918445">
        <ele>2174.81984303438</ele>
        <time>2019-12-27T11:45:06.000Z</time>
      </trkpt>
      <trkpt lat="31.106586" lon="-7.918418">
        <ele>2175.21974537813</ele>
        <time>2019-12-27T11:45:10.000Z</time>
      </trkpt>
      <trkpt lat="31.106566" lon="-7.918397">
        <ele>2175.6198918625</ele>
        <time>2019-12-27T11:45:13.000Z</time>
      </trkpt>
      <trkpt lat="31.106557" lon="-7.918378">
        <ele>2176.01979420625</ele>
        <time>2019-12-27T11:45:16.000Z</time>
      </trkpt>
      <trkpt lat="31.106544" lon="-7.918363">
        <ele>2176.39990234375</ele>
        <time>2019-12-27T11:45:18.000Z</time>
      </trkpt>
      <trkpt lat="31.106528" lon="-7.918343">
        <ele>2176.81984303438</ele>
        <time>2019-12-27T11:45:21.000Z</time>
      </trkpt>
      <trkpt lat="31.106509" lon="-7.918325">
        <ele>2177.21974537813</ele>
        <time>2019-12-27T11:45:24.000Z</time>
      </trkpt>
      <trkpt lat="31.106493" lon="-7.91829">
        <ele>2177.6198918625</ele>
        <time>2019-12-27T11:45:28.000Z</time>
      </trkpt>
      <trkpt lat="31.10648" lon="-7.91827">
        <ele>2178.01979420625</ele>
        <time>2019-12-27T11:45:30.000Z</time>
      </trkpt>
      <trkpt lat="31.106458" lon="-7.918255">
        <ele>2178.6198918625</ele>
        <time>2019-12-27T11:45:33.000Z</time>
      </trkpt>
      <trkpt lat="31.106442" lon="-7.918228">
        <ele>2179.21974537813</ele>
        <time>2019-12-27T11:45:36.000Z</time>
      </trkpt>
      <trkpt lat="31.106426" lon="-7.918211">
        <ele>2179.439514925</ele>
        <time>2019-12-27T11:45:38.000Z</time>
      </trkpt>
      <trkpt lat="31.10641" lon="-7.918194">
        <ele>2180</ele>
        <time>2019-12-27T11:45:40.000Z</time>
      </trkpt>
      <trkpt lat="31.10639" lon="-7.918183">
        <ele>2180.21974537813</ele>
        <time>2019-12-27T11:45:42.000Z</time>
      </trkpt>
      <trkpt lat="31.106378" lon="-7.918162">
        <ele>2180.81984303438</ele>
        <time>2019-12-27T11:45:45.000Z</time>
      </trkpt>
      <trkpt lat="31.106355" lon="-7.918146">
        <ele>2181.23956375312</ele>
        <time>2019-12-27T11:45:48.000Z</time>
      </trkpt>
      <trkpt lat="31.106336" lon="-7.918149">
        <ele>2181.80004882813</ele>
        <time>2019-12-27T11:45:50.000Z</time>
      </trkpt>
      <trkpt lat="31.106307" lon="-7.918145">
        <ele>2182.21974537813</ele>
        <time>2019-12-27T11:45:53.000Z</time>
      </trkpt>
      <trkpt lat="31.106288" lon="-7.91816">
        <ele>2182.6198918625</ele>
        <time>2019-12-27T11:45:55.000Z</time>
      </trkpt>
      <trkpt lat="31.106269" lon="-7.918168">
        <ele>2182.81984303438</ele>
        <time>2019-12-27T11:45:57.000Z</time>
      </trkpt>
      <trkpt lat="31.10625" lon="-7.918178">
        <ele>2183.21974537813</ele>
        <time>2019-12-27T11:46:00.000Z</time>
      </trkpt>
      <trkpt lat="31.10623" lon="-7.918186">
        <ele>2183.80004882813</ele>
        <time>2019-12-27T11:46:04.000Z</time>
      </trkpt>
      <trkpt lat="31.106211" lon="-7.918174">
        <ele>2184.01979420625</ele>
        <time>2019-12-27T11:46:07.000Z</time>
      </trkpt>
      <trkpt lat="31.106189" lon="-7.918177">
        <ele>2184.39990234375</ele>
        <time>2019-12-27T11:46:09.000Z</time>
      </trkpt>
      <trkpt lat="31.106166" lon="-7.918174">
        <ele>2184.60009765625</ele>
        <time>2019-12-27T11:46:12.000Z</time>
      </trkpt>
      <trkpt lat="31.106147" lon="-7.91817">
        <ele>2184.80004882813</ele>
        <time>2019-12-27T11:46:15.000Z</time>
      </trkpt>
      <trkpt lat="31.106125" lon="-7.918157">
        <ele>2185</ele>
        <time>2019-12-27T11:46:18.000Z</time>
      </trkpt>
      <trkpt lat="31.106141" lon="-7.918146">
        <ele>2185.19995117188</ele>
        <time>2019-12-27T11:46:20.000Z</time>
      </trkpt>
      <trkpt lat="31.106157" lon="-7.918135">
        <ele>2185.41972071875</ele>
        <time>2019-12-27T11:46:23.000Z</time>
      </trkpt>
      <trkpt lat="31.106176" lon="-7.918117">
        <ele>2185.80004882813</ele>
        <time>2019-12-27T11:46:27.000Z</time>
      </trkpt>
      <trkpt lat="31.106198" lon="-7.918114">
        <ele>2186.01979420625</ele>
        <time>2019-12-27T11:46:30.000Z</time>
      </trkpt>
      <trkpt lat="31.106218" lon="-7.918092">
        <ele>2186.39990234375</ele>
        <time>2019-12-27T11:46:33.000Z</time>
      </trkpt>
      <trkpt lat="31.106192" lon="-7.918085">
        <ele>2186.80004882813</ele>
        <time>2019-12-27T11:46:37.000Z</time>
      </trkpt>
      <trkpt lat="31.10617" lon="-7.918095">
        <ele>2187</ele>
        <time>2019-12-27T11:46:41.000Z</time>
      </trkpt>
      <trkpt lat="31.106147" lon="-7.918095">
        <ele>2187.39990234375</ele>
        <time>2019-12-27T11:46:45.000Z</time>
      </trkpt>
      <trkpt lat="31.106122" lon="-7.918089">
        <ele>2187.80004882813</ele>
        <time>2019-12-27T11:46:49.000Z</time>
      </trkpt>
      <trkpt lat="31.106099" lon="-7.91809">
        <ele>2188.41972071875</ele>
        <time>2019-12-27T11:46:55.000Z</time>
      </trkpt>
      <trkpt lat="31.106061" lon="-7.918077">
        <ele>2189</ele>
        <time>2019-12-27T11:46:58.000Z</time>
      </trkpt>
      <trkpt lat="31.106042" lon="-7.918069">
        <ele>2189.01979420625</ele>
        <time>2019-12-27T11:46:59.000Z</time>
      </trkpt>
      <trkpt lat="31.106019" lon="-7.91806">
        <ele>2189.41972071875</ele>
        <time>2019-12-27T11:47:02.000Z</time>
      </trkpt>
      <trkpt lat="31.106" lon="-7.918053">
        <ele>2189.6198918625</ele>
        <time>2019-12-27T11:47:03.000Z</time>
      </trkpt>
      <trkpt lat="31.105981" lon="-7.918046">
        <ele>2190</ele>
        <time>2019-12-27T11:47:06.000Z</time>
      </trkpt>
      <trkpt lat="31.105955" lon="-7.91805">
        <ele>2190.21974537813</ele>
        <time>2019-12-27T11:47:09.000Z</time>
      </trkpt>
      <trkpt lat="31.105933" lon="-7.91805">
        <ele>2190.6198918625</ele>
        <time>2019-12-27T11:47:12.000Z</time>
      </trkpt>
      <trkpt lat="31.105914" lon="-7.918055">
        <ele>2191.80004882813</ele>
        <time>2019-12-27T11:47:19.000Z</time>
      </trkpt>
      <trkpt lat="31.105894" lon="-7.918057">
        <ele>2191.81984303438</ele>
        <time>2019-12-27T11:47:21.000Z</time>
      </trkpt>
      <trkpt lat="31.105869" lon="-7.91806">
        <ele>2192.21974537813</ele>
        <time>2019-12-27T11:47:24.000Z</time>
      </trkpt>
      <trkpt lat="31.105846" lon="-7.918069">
        <ele>2192.80004882813</ele>
        <time>2019-12-27T11:47:28.000Z</time>
      </trkpt>
      <trkpt lat="31.105824" lon="-7.918072">
        <ele>2193.01979420625</ele>
        <time>2019-12-27T11:47:33.000Z</time>
      </trkpt>
      <trkpt lat="31.105805" lon="-7.91807">
        <ele>2193.39990234375</ele>
        <time>2019-12-27T11:47:37.000Z</time>
      </trkpt>
      <trkpt lat="31.105782" lon="-7.918057">
        <ele>2193.39990234375</ele>
        <time>2019-12-27T11:47:47.000Z</time>
      </trkpt>
      <trkpt lat="31.10577" lon="-7.918042">
        <ele>2193.19995117188</ele>
        <time>2019-12-27T11:47:51.000Z</time>
      </trkpt>
      <trkpt lat="31.105754" lon="-7.91803">
        <ele>2193.19995117188</ele>
        <time>2019-12-27T11:47:54.000Z</time>
      </trkpt>
      <trkpt lat="31.10575" lon="-7.918008">
        <ele>2193</ele>
        <time>2019-12-27T11:48:02.000Z</time>
      </trkpt>
      <trkpt lat="31.105741" lon="-7.91803">
        <ele>2196.6198918625</ele>
        <time>2019-12-27T11:48:55.000Z</time>
      </trkpt>
      <trkpt lat="31.105725" lon="-7.918018">
        <ele>2198.60009765625</ele>
        <time>2019-12-27T11:49:15.000Z</time>
      </trkpt>
      <trkpt lat="31.105734" lon="-7.918">
        <ele>2198.80004882813</ele>
        <time>2019-12-27T11:49:36.000Z</time>
      </trkpt>
      <trkpt lat="31.105741" lon="-7.91798">
        <ele>2197.60009765625</ele>
        <time>2019-12-27T11:49:52.000Z</time>
      </trkpt>
      <trkpt lat="31.105741" lon="-7.918003">
        <ele>2195.18015696563</ele>
        <time>2019-12-27T11:50:11.000Z</time>
      </trkpt>
      <trkpt lat="31.10575" lon="-7.918022">
        <ele>2194.60009765625</ele>
        <time>2019-12-27T11:50:17.000Z</time>
      </trkpt>
      <trkpt lat="31.10567" lon="-7.917915">
        <ele>2200.560485075</ele>
        <time>2019-12-27T11:55:18.000Z</time>
      </trkpt>
      <trkpt lat="31.105734" lon="-7.917998">
        <ele>2194.7624211875</ele>
        <time>2019-12-27T11:55:21.000Z</time>
      </trkpt>
      <trkpt lat="31.105779" lon="-7.917874">
        <ele>2137.83381257813</ele>
        <time>2019-12-27T11:55:35.000Z</time>
      </trkpt>
      <trkpt lat="31.105725" lon="-7.91797">
        <ele>2102.51871591875</ele>
        <time>2019-12-27T11:55:41.000Z</time>
      </trkpt>
      <trkpt lat="31.106138" lon="-7.917263">
        <ele>2129.19995117188</ele>
        <time>2019-12-27T11:56:06.000Z</time>
      </trkpt>
      <trkpt lat="31.106003" lon="-7.917595">
        <ele>2129.19995117188</ele>
        <time>2019-12-27T11:56:07.000Z</time>
      </trkpt>
      <trkpt lat="31.106141" lon="-7.917297">
        <ele>2129.18015696563</ele>
        <time>2019-12-27T11:56:08.000Z</time>
      </trkpt>
      <trkpt lat="31.106157" lon="-7.917417">
        <ele>2129</ele>
        <time>2019-12-27T11:56:09.000Z</time>
      </trkpt>
      <trkpt lat="31.106013" lon="-7.91762">
        <ele>2127.92079900625</ele>
        <time>2019-12-27T11:56:11.000Z</time>
      </trkpt>
      <trkpt lat="31.10592" lon="-7.91767">
        <ele>2066.8415980125</ele>
        <time>2019-12-27T11:56:41.000Z</time>
      </trkpt>
      <trkpt lat="31.105904" lon="-7.917688">
        <ele>2063.10095597188</ele>
        <time>2019-12-27T11:56:44.000Z</time>
      </trkpt>
      <trkpt lat="31.105894" lon="-7.917706">
        <ele>2053.39990234375</ele>
        <time>2019-12-27T11:57:03.000Z</time>
      </trkpt>
      <trkpt lat="31.105888" lon="-7.917733">
        <ele>2053.41972071875</ele>
        <time>2019-12-27T11:57:17.000Z</time>
      </trkpt>
      <trkpt lat="31.105878" lon="-7.917757">
        <ele>2053.6198918625</ele>
        <time>2019-12-27T11:57:19.000Z</time>
      </trkpt>
      <trkpt lat="31.105856" lon="-7.917795">
        <ele>2053.81984303438</ele>
        <time>2019-12-27T11:57:20.000Z</time>
      </trkpt>
      <trkpt lat="31.105834" lon="-7.917822">
        <ele>2055.23956375312</ele>
        <time>2019-12-27T11:57:24.000Z</time>
      </trkpt>
      <trkpt lat="31.105821" lon="-7.917843">
        <ele>2055.659480275</ele>
        <time>2019-12-27T11:57:25.000Z</time>
      </trkpt>
      <trkpt lat="31.105802" lon="-7.917868">
        <ele>2056.87924982188</ele>
        <time>2019-12-27T11:57:27.000Z</time>
      </trkpt>
      <trkpt lat="31.105782" lon="-7.917883">
        <ele>2060.07920099375</ele>
        <time>2019-12-27T11:57:31.000Z</time>
      </trkpt>
      <trkpt lat="31.105776" lon="-7.917906">
        <ele>2060.89904402813</ele>
        <time>2019-12-27T11:57:32.000Z</time>
      </trkpt>
      <trkpt lat="31.105773" lon="-7.91793">
        <ele>2061.91883823438</ele>
        <time>2019-12-27T11:57:33.000Z</time>
      </trkpt>
      <trkpt lat="31.10577" lon="-7.917955">
        <ele>2064.31874057813</ele>
        <time>2019-12-27T11:57:35.000Z</time>
      </trkpt>
      <trkpt lat="31.105763" lon="-7.917977">
        <ele>2066.93863244063</ele>
        <time>2019-12-27T11:57:37.000Z</time>
      </trkpt>
      <trkpt lat="31.10576" lon="-7.917998">
        <ele>2072.77826968125</ele>
        <time>2019-12-27T11:57:41.000Z</time>
      </trkpt>
      <trkpt lat="31.105747" lon="-7.918014">
        <ele>2080.55830433125</ele>
        <time>2019-12-27T11:57:46.000Z</time>
      </trkpt>
      <trkpt lat="31.10575" lon="-7.918035">
        <ele>2102.95842664688</ele>
        <time>2019-12-27T11:58:00.000Z</time>
      </trkpt>
      <trkpt lat="31.105725" lon="-7.918027">
        <ele>2133.31874057813</ele>
        <time>2019-12-27T11:58:20.000Z</time>
      </trkpt>
      <trkpt lat="31.105709" lon="-7.918017">
        <ele>2153.89904402813</ele>
        <time>2019-12-27T11:58:37.000Z</time>
      </trkpt>
      <trkpt lat="31.105683" lon="-7.91802">
        <ele>2156.89904402813</ele>
        <time>2019-12-27T11:58:40.000Z</time>
      </trkpt>
      <trkpt lat="31.105661" lon="-7.918025">
        <ele>2158.89904402813</ele>
        <time>2019-12-27T11:58:42.000Z</time>
      </trkpt>
      <trkpt lat="31.105683" lon="-7.918022">
        <ele>2164.67927448125</ele>
        <time>2019-12-27T11:58:48.000Z</time>
      </trkpt>
      <trkpt lat="31.105699" lon="-7.918032">
        <ele>2178.85943144688</ele>
        <time>2019-12-27T11:59:05.000Z</time>
      </trkpt>
      <trkpt lat="31.105712" lon="-7.918017">
        <ele>2190.80004882813</ele>
        <time>2019-12-27T11:59:34.000Z</time>
      </trkpt>
      <trkpt lat="31.105731" lon="-7.918022">
        <ele>2191.6198918625</ele>
        <time>2019-12-27T11:59:38.000Z</time>
      </trkpt>
      <trkpt lat="31.10575" lon="-7.918023">
        <ele>2193.01979420625</ele>
        <time>2019-12-27T11:59:47.000Z</time>
      </trkpt>
      <trkpt lat="31.105731" lon="-7.918022">
        <ele>2196</ele>
        <time>2019-12-27T12:00:38.000Z</time>
      </trkpt>
      <trkpt lat="31.105712" lon="-7.918025">
        <ele>2196.21974537813</ele>
        <time>2019-12-27T12:00:44.000Z</time>
      </trkpt>
      <trkpt lat="31.105734" lon="-7.918042">
        <ele>2197.19995117188</ele>
        <time>2019-12-27T12:00:56.000Z</time>
      </trkpt>
      <trkpt lat="31.10575" lon="-7.918053">
        <ele>2197.6198918625</ele>
        <time>2019-12-27T12:01:01.000Z</time>
      </trkpt>
      <trkpt lat="31.105738" lon="-7.918069">
        <ele>2201.41972071875</ele>
        <time>2019-12-27T12:01:24.000Z</time>
      </trkpt>
      <trkpt lat="31.105706" lon="-7.91806">
        <ele>2203.81984303438</ele>
        <time>2019-12-27T12:01:35.000Z</time>
      </trkpt>
      <trkpt lat="31.105734" lon="-7.918028">
        <ele>2206.6198918625</ele>
        <time>2019-12-27T12:01:47.000Z</time>
      </trkpt>
      <trkpt lat="31.105747" lon="-7.918007">
        <ele>2207.80004882813</ele>
        <time>2019-12-27T12:02:14.000Z</time>
      </trkpt>
      <trkpt lat="31.105731" lon="-7.917997">
        <ele>2207.3801081375</ele>
        <time>2019-12-27T12:02:20.000Z</time>
      </trkpt>
      <trkpt lat="31.10576" lon="-7.918035">
        <ele>2207</ele>
        <time>2019-12-27T12:02:22.000Z</time>
      </trkpt>
      <trkpt lat="31.105782" lon="-7.91806">
        <ele>2206.80004882813</ele>
        <time>2019-12-27T12:02:24.000Z</time>
      </trkpt>
      <trkpt lat="31.105773" lon="-7.918042">
        <ele>2206</ele>
        <time>2019-12-27T12:02:31.000Z</time>
      </trkpt>
      <trkpt lat="31.105754" lon="-7.918028">
        <ele>2205.19995117188</ele>
        <time>2019-12-27T12:02:35.000Z</time>
      </trkpt>
      <trkpt lat="31.105741" lon="-7.918012">
        <ele>2202.18015696563</ele>
        <time>2019-12-27T12:02:55.000Z</time>
      </trkpt>
      <trkpt lat="31.105754" lon="-7.918035">
        <ele>2201.39990234375</ele>
        <time>2019-12-27T12:03:12.000Z</time>
      </trkpt>
      <trkpt lat="31.105763" lon="-7.918058">
        <ele>2201.39990234375</ele>
        <time>2019-12-27T12:03:15.000Z</time>
      </trkpt>
      <trkpt lat="31.105779" lon="-7.918075">
        <ele>2201.60009765625</ele>
        <time>2019-12-27T12:03:20.000Z</time>
      </trkpt>
      <trkpt lat="31.105798" lon="-7.918095">
        <ele>2201.60009765625</ele>
        <time>2019-12-27T12:03:23.000Z</time>
      </trkpt>
      <trkpt lat="31.105805" lon="-7.918072">
        <ele>2201.60009765625</ele>
        <time>2019-12-27T12:03:26.000Z</time>
      </trkpt>
      <trkpt lat="31.105789" lon="-7.918052">
        <ele>2201.60009765625</ele>
        <time>2019-12-27T12:03:33.000Z</time>
      </trkpt>
      <trkpt lat="31.105773" lon="-7.91804">
        <ele>2201.60009765625</ele>
        <time>2019-12-27T12:03:36.000Z</time>
      </trkpt>
      <trkpt lat="31.10575" lon="-7.918005">
        <ele>2201.3801081375</ele>
        <time>2019-12-27T12:03:41.000Z</time>
      </trkpt>
      <trkpt lat="31.105734" lon="-7.917994">
        <ele>2201.18015696563</ele>
        <time>2019-12-27T12:03:44.000Z</time>
      </trkpt>
      <trkpt lat="31.105709" lon="-7.917974">
        <ele>2200.98020579375</ele>
        <time>2019-12-27T12:03:47.000Z</time>
      </trkpt>
      <trkpt lat="31.10569" lon="-7.917958">
        <ele>2200.60009765625</ele>
        <time>2019-12-27T12:03:51.000Z</time>
      </trkpt>
      <trkpt lat="31.10567" lon="-7.917948">
        <ele>2200.39990234375</ele>
        <time>2019-12-27T12:03:53.000Z</time>
      </trkpt>
      <trkpt lat="31.105651" lon="-7.917925">
        <ele>2200.19995117188</ele>
        <time>2019-12-27T12:03:56.000Z</time>
      </trkpt>
      <trkpt lat="31.105635" lon="-7.917906">
        <ele>2200</ele>
        <time>2019-12-27T12:03:59.000Z</time>
      </trkpt>
      <trkpt lat="31.105616" lon="-7.917903">
        <ele>2199.80004882813</ele>
        <time>2019-12-27T12:04:02.000Z</time>
      </trkpt>
      <trkpt lat="31.105597" lon="-7.917903">
        <ele>2199.60009765625</ele>
        <time>2019-12-27T12:04:07.000Z</time>
      </trkpt>
      <trkpt lat="31.105574" lon="-7.917895">
        <ele>2199.39990234375</ele>
        <time>2019-12-27T12:04:11.000Z</time>
      </trkpt>
      <trkpt lat="31.105552" lon="-7.917877">
        <ele>2199.39990234375</ele>
        <time>2019-12-27T12:04:13.000Z</time>
      </trkpt>
      <trkpt lat="31.105536" lon="-7.917858">
        <ele>2199.39990234375</ele>
        <time>2019-12-27T12:04:15.000Z</time>
      </trkpt>
      <trkpt lat="31.105523" lon="-7.917842">
        <ele>2199.39990234375</ele>
        <time>2019-12-27T12:04:17.000Z</time>
      </trkpt>
      <trkpt lat="31.105501" lon="-7.917815">
        <ele>2199.39990234375</ele>
        <time>2019-12-27T12:04:20.000Z</time>
      </trkpt>
      <trkpt lat="31.105482" lon="-7.917797">
        <ele>2199.60009765625</ele>
        <time>2019-12-27T12:04:23.000Z</time>
      </trkpt>
      <trkpt lat="31.105472" lon="-7.917775">
        <ele>2200.01979420625</ele>
        <time>2019-12-27T12:04:27.000Z</time>
      </trkpt>
      <trkpt lat="31.105459" lon="-7.917758">
        <ele>2200.39990234375</ele>
        <time>2019-12-27T12:04:29.000Z</time>
      </trkpt>
      <trkpt lat="31.105453" lon="-7.917735">
        <ele>2201</ele>
        <time>2019-12-27T12:04:32.000Z</time>
      </trkpt>
      <trkpt lat="31.105446" lon="-7.91771">
        <ele>2201.81984303438</ele>
        <time>2019-12-27T12:04:36.000Z</time>
      </trkpt>
      <trkpt lat="31.105437" lon="-7.917688">
        <ele>2202.83963724063</ele>
        <time>2019-12-27T12:04:40.000Z</time>
      </trkpt>
      <trkpt lat="31.105418" lon="-7.917665">
        <ele>2203.63968606875</ele>
        <time>2019-12-27T12:04:43.000Z</time>
      </trkpt>
      <trkpt lat="31.105395" lon="-7.917657">
        <ele>2204.6198918625</ele>
        <time>2019-12-27T12:04:46.000Z</time>
      </trkpt>
      <trkpt lat="31.105376" lon="-7.91764">
        <ele>2205.83963724063</ele>
        <time>2019-12-27T12:04:50.000Z</time>
      </trkpt>
      <trkpt lat="31.10536" lon="-7.917625">
        <ele>2207.01979420625</ele>
        <time>2019-12-27T12:04:53.000Z</time>
      </trkpt>
      <trkpt lat="31.105347" lon="-7.917608">
        <ele>2208.0594067875</ele>
        <time>2019-12-27T12:04:56.000Z</time>
      </trkpt>
      <trkpt lat="31.105328" lon="-7.917594">
        <ele>2209.0395884125</ele>
        <time>2019-12-27T12:04:58.000Z</time>
      </trkpt>
      <trkpt lat="31.105312" lon="-7.917575">
        <ele>2210.63968606875</ele>
        <time>2019-12-27T12:05:02.000Z</time>
      </trkpt>
      <trkpt lat="31.105286" lon="-7.917565">
        <ele>2212.23956375312</ele>
        <time>2019-12-27T12:05:06.000Z</time>
      </trkpt>
      <trkpt lat="31.105274" lon="-7.917545">
        <ele>2214.45930913125</ele>
        <time>2019-12-27T12:05:11.000Z</time>
      </trkpt>
      <trkpt lat="31.105248" lon="-7.917537">
        <ele>2215.45930913125</ele>
        <time>2019-12-27T12:05:13.000Z</time>
      </trkpt>
      <trkpt lat="31.105232" lon="-7.917522">
        <ele>2216.45930913125</ele>
        <time>2019-12-27T12:05:15.000Z</time>
      </trkpt>
      <trkpt lat="31.105213" lon="-7.917515">
        <ele>2218.0395884125</ele>
        <time>2019-12-27T12:05:18.000Z</time>
      </trkpt>
      <trkpt lat="31.105194" lon="-7.917502">
        <ele>2219.0395884125</ele>
        <time>2019-12-27T12:05:20.000Z</time>
      </trkpt>
      <trkpt lat="31.105171" lon="-7.91748">
        <ele>2220.23956375312</ele>
        <time>2019-12-27T12:05:23.000Z</time>
      </trkpt>
      <trkpt lat="31.105152" lon="-7.917468">
        <ele>2221.25935795937</ele>
        <time>2019-12-27T12:05:25.000Z</time>
      </trkpt>
      <trkpt lat="31.10513" lon="-7.917449">
        <ele>2222.659480275</ele>
        <time>2019-12-27T12:05:28.000Z</time>
      </trkpt>
      <trkpt lat="31.105107" lon="-7.917425">
        <ele>2223.659480275</ele>
        <time>2019-12-27T12:05:30.000Z</time>
      </trkpt>
      <trkpt lat="31.105088" lon="-7.91742">
        <ele>2226.63968606875</ele>
        <time>2019-12-27T12:05:36.000Z</time>
      </trkpt>
      <trkpt lat="31.105066" lon="-7.917403">
        <ele>2228.23956375312</ele>
        <time>2019-12-27T12:05:40.000Z</time>
      </trkpt>
      <trkpt lat="31.10504" lon="-7.917403">
        <ele>2229.41972071875</ele>
        <time>2019-12-27T12:05:43.000Z</time>
      </trkpt>
      <trkpt lat="31.105021" lon="-7.917403">
        <ele>2230.81984303438</ele>
        <time>2019-12-27T12:05:48.000Z</time>
      </trkpt>
      <trkpt lat="31.105005" lon="-7.91739">
        <ele>2231.63968606875</ele>
        <time>2019-12-27T12:05:51.000Z</time>
      </trkpt>
      <trkpt lat="31.104982" lon="-7.917392">
        <ele>2232.6198918625</ele>
        <time>2019-12-27T12:05:54.000Z</time>
      </trkpt>
      <trkpt lat="31.10496" lon="-7.917395">
        <ele>2233.41972071875</ele>
        <time>2019-12-27T12:05:57.000Z</time>
      </trkpt>
      <trkpt lat="31.104941" lon="-7.917394">
        <ele>2233.81984303438</ele>
        <time>2019-12-27T12:05:59.000Z</time>
      </trkpt>
      <trkpt lat="31.104918" lon="-7.917377">
        <ele>2234.60009765625</ele>
        <time>2019-12-27T12:06:02.000Z</time>
      </trkpt>
      <trkpt lat="31.104899" lon="-7.917353">
        <ele>2235</ele>
        <time>2019-12-27T12:06:04.000Z</time>
      </trkpt>
      <trkpt lat="31.104883" lon="-7.917335">
        <ele>2235.6198918625</ele>
        <time>2019-12-27T12:06:07.000Z</time>
      </trkpt>
      <trkpt lat="31.104867" lon="-7.917323">
        <ele>2236.01979420625</ele>
        <time>2019-12-27T12:06:10.000Z</time>
      </trkpt>
      <trkpt lat="31.104851" lon="-7.917305">
        <ele>2236.6198918625</ele>
        <time>2019-12-27T12:06:12.000Z</time>
      </trkpt>
      <trkpt lat="31.104832" lon="-7.917287">
        <ele>2237.6198918625</ele>
        <time>2019-12-27T12:06:19.000Z</time>
      </trkpt>
      <trkpt lat="31.104813" lon="-7.917278">
        <ele>2238</ele>
        <time>2019-12-27T12:06:23.000Z</time>
      </trkpt>
      <trkpt lat="31.1048" lon="-7.917263">
        <ele>2238.19995117188</ele>
        <time>2019-12-27T12:06:26.000Z</time>
      </trkpt>
      <trkpt lat="31.104787" lon="-7.917243">
        <ele>2238.39990234375</ele>
        <time>2019-12-27T12:06:29.000Z</time>
      </trkpt>
      <trkpt lat="31.104765" lon="-7.917237">
        <ele>2238.39990234375</ele>
        <time>2019-12-27T12:06:32.000Z</time>
      </trkpt>
      <trkpt lat="31.104749" lon="-7.917223">
        <ele>2238.39990234375</ele>
        <time>2019-12-27T12:06:34.000Z</time>
      </trkpt>
      <trkpt lat="31.104726" lon="-7.917198">
        <ele>2238.39990234375</ele>
        <time>2019-12-27T12:06:36.000Z</time>
      </trkpt>
      <trkpt lat="31.104707" lon="-7.917191">
        <ele>2238.39990234375</ele>
        <time>2019-12-27T12:06:37.000Z</time>
      </trkpt>
      <trkpt lat="31.104691" lon="-7.917178">
        <ele>2238.39990234375</ele>
        <time>2019-12-27T12:06:40.000Z</time>
      </trkpt>
      <trkpt lat="31.104662" lon="-7.917163">
        <ele>2238.39990234375</ele>
        <time>2019-12-27T12:06:43.000Z</time>
      </trkpt>
      <trkpt lat="31.104646" lon="-7.91715">
        <ele>2238.6198918625</ele>
        <time>2019-12-27T12:06:51.000Z</time>
      </trkpt>
      <trkpt lat="31.104634" lon="-7.917131">
        <ele>2239</ele>
        <time>2019-12-27T12:06:55.000Z</time>
      </trkpt>
      <trkpt lat="31.104627" lon="-7.91711">
        <ele>2239.39990234375</ele>
        <time>2019-12-27T12:06:58.000Z</time>
      </trkpt>
      <trkpt lat="31.104605" lon="-7.917098">
        <ele>2239.81984303438</ele>
        <time>2019-12-27T12:07:02.000Z</time>
      </trkpt>
      <trkpt lat="31.104605" lon="-7.917072">
        <ele>2241.01979420625</ele>
        <time>2019-12-27T12:07:09.000Z</time>
      </trkpt>
      <trkpt lat="31.104579" lon="-7.917062">
        <ele>2241.21974537813</ele>
        <time>2019-12-27T12:07:11.000Z</time>
      </trkpt>
      <trkpt lat="31.10456" lon="-7.917045">
        <ele>2241.6198918625</ele>
        <time>2019-12-27T12:07:13.000Z</time>
      </trkpt>
      <trkpt lat="31.104544" lon="-7.917025">
        <ele>2242</ele>
        <time>2019-12-27T12:07:15.000Z</time>
      </trkpt>
      <trkpt lat="31.104515" lon="-7.917013">
        <ele>2242.39990234375</ele>
        <time>2019-12-27T12:07:18.000Z</time>
      </trkpt>
      <trkpt lat="31.104493" lon="-7.917006">
        <ele>2242.6198918625</ele>
        <time>2019-12-27T12:07:20.000Z</time>
      </trkpt>
      <trkpt lat="31.104467" lon="-7.916992">
        <ele>2243.01979420625</ele>
        <time>2019-12-27T12:07:23.000Z</time>
      </trkpt>
      <trkpt lat="31.104445" lon="-7.916988">
        <ele>2243.39990234375</ele>
        <time>2019-12-27T12:07:25.000Z</time>
      </trkpt>
      <trkpt lat="31.104426" lon="-7.916986">
        <ele>2243.60009765625</ele>
        <time>2019-12-27T12:07:27.000Z</time>
      </trkpt>
      <trkpt lat="31.104403" lon="-7.916993">
        <ele>2243.80004882813</ele>
        <time>2019-12-27T12:07:29.000Z</time>
      </trkpt>
      <trkpt lat="31.10439" lon="-7.91701">
        <ele>2244.21974537813</ele>
        <time>2019-12-27T12:07:33.000Z</time>
      </trkpt>
      <trkpt lat="31.104368" lon="-7.917002">
        <ele>2244.6198918625</ele>
        <time>2019-12-27T12:07:37.000Z</time>
      </trkpt>
      <trkpt lat="31.104349" lon="-7.91699">
        <ele>2245</ele>
        <time>2019-12-27T12:07:39.000Z</time>
      </trkpt>
      <trkpt lat="31.104323" lon="-7.916966">
        <ele>2245.39990234375</ele>
        <time>2019-12-27T12:07:42.000Z</time>
      </trkpt>
      <trkpt lat="31.104294" lon="-7.916943">
        <ele>2245.60009765625</ele>
        <time>2019-12-27T12:07:45.000Z</time>
      </trkpt>
      <trkpt lat="31.104275" lon="-7.916923">
        <ele>2246</ele>
        <time>2019-12-27T12:07:49.000Z</time>
      </trkpt>
      <trkpt lat="31.104266" lon="-7.9169">
        <ele>2246.21974537813</ele>
        <time>2019-12-27T12:07:53.000Z</time>
      </trkpt>
      <trkpt lat="31.10425" lon="-7.91689">
        <ele>2246.41972071875</ele>
        <time>2019-12-27T12:07:56.000Z</time>
      </trkpt>
      <trkpt lat="31.10423" lon="-7.916883">
        <ele>2246.60009765625</ele>
        <time>2019-12-27T12:07:58.000Z</time>
      </trkpt>
      <trkpt lat="31.104205" lon="-7.91687">
        <ele>2246.81984303438</ele>
        <time>2019-12-27T12:08:01.000Z</time>
      </trkpt>
      <trkpt lat="31.104182" lon="-7.916871">
        <ele>2247.01979420625</ele>
        <time>2019-12-27T12:08:04.000Z</time>
      </trkpt>
      <trkpt lat="31.104163" lon="-7.916871">
        <ele>2247.21974537813</ele>
        <time>2019-12-27T12:08:06.000Z</time>
      </trkpt>
      <trkpt lat="31.104134" lon="-7.91687">
        <ele>2247.39990234375</ele>
        <time>2019-12-27T12:08:08.000Z</time>
      </trkpt>
      <trkpt lat="31.104106" lon="-7.916885">
        <ele>2247.60009765625</ele>
        <time>2019-12-27T12:08:12.000Z</time>
      </trkpt>
      <trkpt lat="31.104086" lon="-7.9169">
        <ele>2247.80004882813</ele>
        <time>2019-12-27T12:08:14.000Z</time>
      </trkpt>
      <trkpt lat="31.104074" lon="-7.916925">
        <ele>2247.80004882813</ele>
        <time>2019-12-27T12:08:16.000Z</time>
      </trkpt>
      <trkpt lat="31.104054" lon="-7.916928">
        <ele>2247.81984303438</ele>
        <time>2019-12-27T12:08:19.000Z</time>
      </trkpt>
      <trkpt lat="31.104061" lon="-7.91695">
        <ele>2248.19995117188</ele>
        <time>2019-12-27T12:08:28.000Z</time>
      </trkpt>
      <trkpt lat="31.104045" lon="-7.91696">
        <ele>2247.80004882813</ele>
        <time>2019-12-27T12:08:41.000Z</time>
      </trkpt>
      <trkpt lat="31.104029" lon="-7.91697">
        <ele>2247.39990234375</ele>
        <time>2019-12-27T12:08:46.000Z</time>
      </trkpt>
      <trkpt lat="31.104006" lon="-7.916963">
        <ele>2247.18015696563</ele>
        <time>2019-12-27T12:08:49.000Z</time>
      </trkpt>
      <trkpt lat="31.103981" lon="-7.91696">
        <ele>2246.60009765625</ele>
        <time>2019-12-27T12:08:52.000Z</time>
      </trkpt>
      <trkpt lat="31.103955" lon="-7.916943">
        <ele>2246.3801081375</ele>
        <time>2019-12-27T12:08:54.000Z</time>
      </trkpt>
      <trkpt lat="31.103926" lon="-7.916942">
        <ele>2245.78025462188</ele>
        <time>2019-12-27T12:08:58.000Z</time>
      </trkpt>
      <trkpt lat="31.10391" lon="-7.916928">
        <ele>2245.58027928125</ele>
        <time>2019-12-27T12:09:00.000Z</time>
      </trkpt>
      <trkpt lat="31.103891" lon="-7.916917">
        <ele>2245.3801081375</ele>
        <time>2019-12-27T12:09:02.000Z</time>
      </trkpt>
      <trkpt lat="31.103866" lon="-7.916902">
        <ele>2244.98020579375</ele>
        <time>2019-12-27T12:09:05.000Z</time>
      </trkpt>
      <trkpt lat="31.103846" lon="-7.916891">
        <ele>2244.78025462188</ele>
        <time>2019-12-27T12:09:08.000Z</time>
      </trkpt>
      <trkpt lat="31.103827" lon="-7.916878">
        <ele>2244.58027928125</ele>
        <time>2019-12-27T12:09:11.000Z</time>
      </trkpt>
      <trkpt lat="31.103808" lon="-7.91686">
        <ele>2244.39990234375</ele>
        <time>2019-12-27T12:09:13.000Z</time>
      </trkpt>
      <trkpt lat="31.103786" lon="-7.916837">
        <ele>2244.39990234375</ele>
        <time>2019-12-27T12:09:15.000Z</time>
      </trkpt>
      <trkpt lat="31.103766" lon="-7.916834">
        <ele>2244.39990234375</ele>
        <time>2019-12-27T12:09:18.000Z</time>
      </trkpt>
      <trkpt lat="31.103747" lon="-7.916835">
        <ele>2244.39990234375</ele>
        <time>2019-12-27T12:09:20.000Z</time>
      </trkpt>
      <trkpt lat="31.103728" lon="-7.916845">
        <ele>2244.39990234375</ele>
        <time>2019-12-27T12:09:23.000Z</time>
      </trkpt>
      <trkpt lat="31.103706" lon="-7.916851">
        <ele>2244.41972071875</ele>
        <time>2019-12-27T12:09:25.000Z</time>
      </trkpt>
      <trkpt lat="31.10368" lon="-7.916857">
        <ele>2244.60009765625</ele>
        <time>2019-12-27T12:09:29.000Z</time>
      </trkpt>
      <trkpt lat="31.103661" lon="-7.916865">
        <ele>2244.80004882813</ele>
        <time>2019-12-27T12:09:32.000Z</time>
      </trkpt>
      <trkpt lat="31.103638" lon="-7.916875">
        <ele>2244.80004882813</ele>
        <time>2019-12-27T12:09:35.000Z</time>
      </trkpt>
      <trkpt lat="31.103619" lon="-7.916875">
        <ele>2245</ele>
        <time>2019-12-27T12:09:39.000Z</time>
      </trkpt>
      <trkpt lat="31.1036" lon="-7.916888">
        <ele>2244.80004882813</ele>
        <time>2019-12-27T12:09:44.000Z</time>
      </trkpt>
      <trkpt lat="31.103581" lon="-7.916902">
        <ele>2244.80004882813</ele>
        <time>2019-12-27T12:09:47.000Z</time>
      </trkpt>
      <trkpt lat="31.103555" lon="-7.9169">
        <ele>2244.78025462188</ele>
        <time>2019-12-27T12:09:50.000Z</time>
      </trkpt>
      <trkpt lat="31.103533" lon="-7.916898">
        <ele>2244.60009765625</ele>
        <time>2019-12-27T12:09:53.000Z</time>
      </trkpt>
      <trkpt lat="31.10351" lon="-7.916891">
        <ele>2244.60009765625</ele>
        <time>2019-12-27T12:09:55.000Z</time>
      </trkpt>
      <trkpt lat="31.103488" lon="-7.916883">
        <ele>2244.39990234375</ele>
        <time>2019-12-27T12:09:58.000Z</time>
      </trkpt>
      <trkpt lat="31.103466" lon="-7.91688">
        <ele>2244.39990234375</ele>
        <time>2019-12-27T12:10:00.000Z</time>
      </trkpt>
      <trkpt lat="31.10344" lon="-7.916875">
        <ele>2244.19995117188</ele>
        <time>2019-12-27T12:10:03.000Z</time>
      </trkpt>
      <trkpt lat="31.103411" lon="-7.916871">
        <ele>2244.19995117188</ele>
        <time>2019-12-27T12:10:06.000Z</time>
      </trkpt>
      <trkpt lat="31.103389" lon="-7.91686">
        <ele>2244.19995117188</ele>
        <time>2019-12-27T12:10:09.000Z</time>
      </trkpt>
      <trkpt lat="31.10336" lon="-7.91685">
        <ele>2244.19995117188</ele>
        <time>2019-12-27T12:10:12.000Z</time>
      </trkpt>
      <trkpt lat="31.103338" lon="-7.91684">
        <ele>2244.19995117188</ele>
        <time>2019-12-27T12:10:14.000Z</time>
      </trkpt>
      <trkpt lat="31.103312" lon="-7.916823">
        <ele>2244.21974537813</ele>
        <time>2019-12-27T12:10:16.000Z</time>
      </trkpt>
      <trkpt lat="31.103293" lon="-7.916806">
        <ele>2244.39990234375</ele>
        <time>2019-12-27T12:10:17.000Z</time>
      </trkpt>
      <trkpt lat="31.10327" lon="-7.916794">
        <ele>2244.41972071875</ele>
        <time>2019-12-27T12:10:19.000Z</time>
      </trkpt>
      <trkpt lat="31.103248" lon="-7.916786">
        <ele>2244.6198918625</ele>
        <time>2019-12-27T12:10:21.000Z</time>
      </trkpt>
      <trkpt lat="31.103219" lon="-7.916783">
        <ele>2244.81984303438</ele>
        <time>2019-12-27T12:10:23.000Z</time>
      </trkpt>
      <trkpt lat="31.103194" lon="-7.916786">
        <ele>2245.21974537813</ele>
        <time>2019-12-27T12:10:26.000Z</time>
      </trkpt>
      <trkpt lat="31.103174" lon="-7.916786">
        <ele>2245.80004882813</ele>
        <time>2019-12-27T12:10:29.000Z</time>
      </trkpt>
      <trkpt lat="31.103158" lon="-7.9168">
        <ele>2246.41972071875</ele>
        <time>2019-12-27T12:10:32.000Z</time>
      </trkpt>
      <trkpt lat="31.103133" lon="-7.916806">
        <ele>2247.01979420625</ele>
        <time>2019-12-27T12:10:35.000Z</time>
      </trkpt>
      <trkpt lat="31.103114" lon="-7.916823">
        <ele>2247.81984303438</ele>
        <time>2019-12-27T12:10:38.000Z</time>
      </trkpt>
      <trkpt lat="31.103094" lon="-7.916822">
        <ele>2248.439514925</ele>
        <time>2019-12-27T12:10:41.000Z</time>
      </trkpt>
      <trkpt lat="31.103078" lon="-7.916806">
        <ele>2249.01979420625</ele>
        <time>2019-12-27T12:10:43.000Z</time>
      </trkpt>
      <trkpt lat="31.103056" lon="-7.916798">
        <ele>2250.01979420625</ele>
        <time>2019-12-27T12:10:47.000Z</time>
      </trkpt>
      <trkpt lat="31.103034" lon="-7.916797">
        <ele>2250.6198918625</ele>
        <time>2019-12-27T12:10:50.000Z</time>
      </trkpt>
      <trkpt lat="31.103011" lon="-7.916798">
        <ele>2251.21974537813</ele>
        <time>2019-12-27T12:10:53.000Z</time>
      </trkpt>
      <trkpt lat="31.102989" lon="-7.916788">
        <ele>2252.01979420625</ele>
        <time>2019-12-27T12:10:57.000Z</time>
      </trkpt>
      <trkpt lat="31.102973" lon="-7.916778">
        <ele>2252.6198918625</ele>
        <time>2019-12-27T12:11:01.000Z</time>
      </trkpt>
      <trkpt lat="31.102954" lon="-7.91677">
        <ele>2253.41972071875</ele>
        <time>2019-12-27T12:11:08.000Z</time>
      </trkpt>
      <trkpt lat="31.102934" lon="-7.916766">
        <ele>2253.80004882813</ele>
        <time>2019-12-27T12:11:11.000Z</time>
      </trkpt>
      <trkpt lat="31.102915" lon="-7.916745">
        <ele>2254</ele>
        <time>2019-12-27T12:11:14.000Z</time>
      </trkpt>
      <trkpt lat="31.10289" lon="-7.91674">
        <ele>2254</ele>
        <time>2019-12-27T12:11:17.000Z</time>
      </trkpt>
      <trkpt lat="31.10287" lon="-7.916735">
        <ele>2254.19995117188</ele>
        <time>2019-12-27T12:11:19.000Z</time>
      </trkpt>
      <trkpt lat="31.102848" lon="-7.916732">
        <ele>2254.19995117188</ele>
        <time>2019-12-27T12:11:22.000Z</time>
      </trkpt>
      <trkpt lat="31.102826" lon="-7.916717">
        <ele>2254.39990234375</ele>
        <time>2019-12-27T12:11:25.000Z</time>
      </trkpt>
      <trkpt lat="31.102806" lon="-7.916695">
        <ele>2254.39990234375</ele>
        <time>2019-12-27T12:11:27.000Z</time>
      </trkpt>
      <trkpt lat="31.10279" lon="-7.916682">
        <ele>2254.39990234375</ele>
        <time>2019-12-27T12:11:28.000Z</time>
      </trkpt>
      <trkpt lat="31.102768" lon="-7.916672">
        <ele>2254.60009765625</ele>
        <time>2019-12-27T12:11:30.000Z</time>
      </trkpt>
      <trkpt lat="31.102746" lon="-7.916653">
        <ele>2254.60009765625</ele>
        <time>2019-12-27T12:11:32.000Z</time>
      </trkpt>
      <trkpt lat="31.10272" lon="-7.916638">
        <ele>2254.80004882813</ele>
        <time>2019-12-27T12:11:34.000Z</time>
      </trkpt>
      <trkpt lat="31.102704" lon="-7.916628">
        <ele>2255</ele>
        <time>2019-12-27T12:11:37.000Z</time>
      </trkpt>
      <trkpt lat="31.102682" lon="-7.9166">
        <ele>2255.39990234375</ele>
        <time>2019-12-27T12:11:41.000Z</time>
      </trkpt>
      <trkpt lat="31.102662" lon="-7.91658">
        <ele>2255.41972071875</ele>
        <time>2019-12-27T12:11:42.000Z</time>
      </trkpt>
      <trkpt lat="31.10264" lon="-7.91657">
        <ele>2255.80004882813</ele>
        <time>2019-12-27T12:11:44.000Z</time>
      </trkpt>
      <trkpt lat="31.102621" lon="-7.916562">
        <ele>2256</ele>
        <time>2019-12-27T12:11:46.000Z</time>
      </trkpt>
      <trkpt lat="31.102592" lon="-7.916547">
        <ele>2256.39990234375</ele>
        <time>2019-12-27T12:11:50.000Z</time>
      </trkpt>
      <trkpt lat="31.102573" lon="-7.916547">
        <ele>2256.81984303438</ele>
        <time>2019-12-27T12:11:54.000Z</time>
      </trkpt>
      <trkpt lat="31.102554" lon="-7.916537">
        <ele>2257.19995117188</ele>
        <time>2019-12-27T12:11:57.000Z</time>
      </trkpt>
      <trkpt lat="31.102534" lon="-7.916535">
        <ele>2257.60009765625</ele>
        <time>2019-12-27T12:12:00.000Z</time>
      </trkpt>
      <trkpt lat="31.102509" lon="-7.916537">
        <ele>2258.19995117188</ele>
        <time>2019-12-27T12:12:04.000Z</time>
      </trkpt>
      <trkpt lat="31.102486" lon="-7.916535">
        <ele>2258.80004882813</ele>
        <time>2019-12-27T12:12:09.000Z</time>
      </trkpt>
      <trkpt lat="31.102467" lon="-7.916531">
        <ele>2259</ele>
        <time>2019-12-27T12:12:11.000Z</time>
      </trkpt>
      <trkpt lat="31.102448" lon="-7.916523">
        <ele>2259.19995117188</ele>
        <time>2019-12-27T12:12:13.000Z</time>
      </trkpt>
      <trkpt lat="31.102429" lon="-7.916508">
        <ele>2259.60009765625</ele>
        <time>2019-12-27T12:12:16.000Z</time>
      </trkpt>
      <trkpt lat="31.102406" lon="-7.916503">
        <ele>2259.81984303438</ele>
        <time>2019-12-27T12:12:19.000Z</time>
      </trkpt>
      <trkpt lat="31.102381" lon="-7.916502">
        <ele>2260.21974537813</ele>
        <time>2019-12-27T12:12:22.000Z</time>
      </trkpt>
      <trkpt lat="31.102355" lon="-7.916497">
        <ele>2260.60009765625</ele>
        <time>2019-12-27T12:12:25.000Z</time>
      </trkpt>
      <trkpt lat="31.102336" lon="-7.916495">
        <ele>2260.81984303438</ele>
        <time>2019-12-27T12:12:27.000Z</time>
      </trkpt>
      <trkpt lat="31.102317" lon="-7.916486">
        <ele>2261.01979420625</ele>
        <time>2019-12-27T12:12:29.000Z</time>
      </trkpt>
      <trkpt lat="31.102298" lon="-7.916474">
        <ele>2261.39990234375</ele>
        <time>2019-12-27T12:12:31.000Z</time>
      </trkpt>
      <trkpt lat="31.102275" lon="-7.91646">
        <ele>2261.6198918625</ele>
        <time>2019-12-27T12:12:34.000Z</time>
      </trkpt>
      <trkpt lat="31.102262" lon="-7.91644">
        <ele>2262.81984303438</ele>
        <time>2019-12-27T12:12:41.000Z</time>
      </trkpt>
      <trkpt lat="31.10225" lon="-7.916423">
        <ele>2263.21974537813</ele>
        <time>2019-12-27T12:12:44.000Z</time>
      </trkpt>
      <trkpt lat="31.102266" lon="-7.916414">
        <ele>2263.80004882813</ele>
        <time>2019-12-27T12:12:47.000Z</time>
      </trkpt>
      <trkpt lat="31.102243" lon="-7.9164">
        <ele>2264.01979420625</ele>
        <time>2019-12-27T12:12:50.000Z</time>
      </trkpt>
      <trkpt lat="31.102224" lon="-7.916386">
        <ele>2264.39990234375</ele>
        <time>2019-12-27T12:12:53.000Z</time>
      </trkpt>
      <trkpt lat="31.102205" lon="-7.916378">
        <ele>2264.6198918625</ele>
        <time>2019-12-27T12:12:57.000Z</time>
      </trkpt>
      <trkpt lat="31.102195" lon="-7.916357">
        <ele>2264.81984303438</ele>
        <time>2019-12-27T12:13:00.000Z</time>
      </trkpt>
      <trkpt lat="31.102179" lon="-7.916342">
        <ele>2265</ele>
        <time>2019-12-27T12:13:03.000Z</time>
      </trkpt>
      <trkpt lat="31.10216" lon="-7.916332">
        <ele>2265.19995117188</ele>
        <time>2019-12-27T12:13:05.000Z</time>
      </trkpt>
      <trkpt lat="31.102141" lon="-7.916312">
        <ele>2265.19995117188</ele>
        <time>2019-12-27T12:13:07.000Z</time>
      </trkpt>
      <trkpt lat="31.102131" lon="-7.916293">
        <ele>2265.39990234375</ele>
        <time>2019-12-27T12:13:10.000Z</time>
      </trkpt>
      <trkpt lat="31.102106" lon="-7.91628">
        <ele>2265.60009765625</ele>
        <time>2019-12-27T12:13:14.000Z</time>
      </trkpt>
      <trkpt lat="31.10209" lon="-7.91627">
        <ele>2265.80004882813</ele>
        <time>2019-12-27T12:13:18.000Z</time>
      </trkpt>
      <trkpt lat="31.10207" lon="-7.916258">
        <ele>2266</ele>
        <time>2019-12-27T12:13:20.000Z</time>
      </trkpt>
      <trkpt lat="31.102051" lon="-7.916234">
        <ele>2266.39990234375</ele>
        <time>2019-12-27T12:13:23.000Z</time>
      </trkpt>
      <trkpt lat="31.102038" lon="-7.916217">
        <ele>2266.60009765625</ele>
        <time>2019-12-27T12:13:25.000Z</time>
      </trkpt>
      <trkpt lat="31.102026" lon="-7.916198">
        <ele>2267.21974537813</ele>
        <time>2019-12-27T12:13:29.000Z</time>
      </trkpt>
      <trkpt lat="31.102006" lon="-7.916188">
        <ele>2267.63968606875</ele>
        <time>2019-12-27T12:13:32.000Z</time>
      </trkpt>
      <trkpt lat="31.101981" lon="-7.916177">
        <ele>2268.19995117188</ele>
        <time>2019-12-27T12:13:34.000Z</time>
      </trkpt>
      <trkpt lat="31.101968" lon="-7.916162">
        <ele>2268.63968606875</ele>
        <time>2019-12-27T12:13:37.000Z</time>
      </trkpt>
      <trkpt lat="31.101949" lon="-7.91615">
        <ele>2269.21974537813</ele>
        <time>2019-12-27T12:13:39.000Z</time>
      </trkpt>
      <trkpt lat="31.10193" lon="-7.916137">
        <ele>2269.6198918625</ele>
        <time>2019-12-27T12:13:41.000Z</time>
      </trkpt>
      <trkpt lat="31.101907" lon="-7.916135">
        <ele>2270.01979420625</ele>
        <time>2019-12-27T12:13:43.000Z</time>
      </trkpt>
      <trkpt lat="31.101882" lon="-7.916125">
        <ele>2270.81984303438</ele>
        <time>2019-12-27T12:13:46.000Z</time>
      </trkpt>
      <trkpt lat="31.101859" lon="-7.916122">
        <ele>2271.23956375312</ele>
        <time>2019-12-27T12:13:48.000Z</time>
      </trkpt>
      <trkpt lat="31.10184" lon="-7.916111">
        <ele>2271.63968606875</ele>
        <time>2019-12-27T12:13:50.000Z</time>
      </trkpt>
      <trkpt lat="31.101821" lon="-7.916094">
        <ele>2272.63968606875</ele>
        <time>2019-12-27T12:13:53.000Z</time>
      </trkpt>
      <trkpt lat="31.101811" lon="-7.916068">
        <ele>2274.0395884125</ele>
        <time>2019-12-27T12:13:57.000Z</time>
      </trkpt>
      <trkpt lat="31.101792" lon="-7.916054">
        <ele>2275.23956375312</ele>
        <time>2019-12-27T12:14:00.000Z</time>
      </trkpt>
      <trkpt lat="31.101779" lon="-7.916037">
        <ele>2276.23956375312</ele>
        <time>2019-12-27T12:14:03.000Z</time>
      </trkpt>
      <trkpt lat="31.101779" lon="-7.916015">
        <ele>2277.659480275</ele>
        <time>2019-12-27T12:14:06.000Z</time>
      </trkpt>
      <trkpt lat="31.101786" lon="-7.915992">
        <ele>2279.23956375312</ele>
        <time>2019-12-27T12:14:09.000Z</time>
      </trkpt>
      <trkpt lat="31.101779" lon="-7.915962">
        <ele>2280.23956375312</ele>
        <time>2019-12-27T12:14:12.000Z</time>
      </trkpt>
      <trkpt lat="31.101773" lon="-7.915933">
        <ele>2281.01979420625</ele>
        <time>2019-12-27T12:14:15.000Z</time>
      </trkpt>
      <trkpt lat="31.101773" lon="-7.915903">
        <ele>2282.01979420625</ele>
        <time>2019-12-27T12:14:20.000Z</time>
      </trkpt>
      <trkpt lat="31.10176" lon="-7.915885">
        <ele>2282.41972071875</ele>
        <time>2019-12-27T12:14:23.000Z</time>
      </trkpt>
      <trkpt lat="31.101738" lon="-7.915874">
        <ele>2282.6198918625</ele>
        <time>2019-12-27T12:14:25.000Z</time>
      </trkpt>
      <trkpt lat="31.101728" lon="-7.915848">
        <ele>2282.81984303438</ele>
        <time>2019-12-27T12:14:27.000Z</time>
      </trkpt>
      <trkpt lat="31.101715" lon="-7.915822">
        <ele>2283.19995117188</ele>
        <time>2019-12-27T12:14:31.000Z</time>
      </trkpt>
      <trkpt lat="31.101693" lon="-7.915798">
        <ele>2283.39990234375</ele>
        <time>2019-12-27T12:14:33.000Z</time>
      </trkpt>
      <trkpt lat="31.10168" lon="-7.915783">
        <ele>2283.39990234375</ele>
        <time>2019-12-27T12:14:34.000Z</time>
      </trkpt>
      <trkpt lat="31.101667" lon="-7.915766">
        <ele>2283.41972071875</ele>
        <time>2019-12-27T12:14:35.000Z</time>
      </trkpt>
      <trkpt lat="31.101654" lon="-7.91575">
        <ele>2283.60009765625</ele>
        <time>2019-12-27T12:14:36.000Z</time>
      </trkpt>
      <trkpt lat="31.101635" lon="-7.915726">
        <ele>2283.6198918625</ele>
        <time>2019-12-27T12:14:38.000Z</time>
      </trkpt>
      <trkpt lat="31.101619" lon="-7.915715">
        <ele>2283.80004882813</ele>
        <time>2019-12-27T12:14:40.000Z</time>
      </trkpt>
      <trkpt lat="31.101619" lon="-7.915694">
        <ele>2284</ele>
        <time>2019-12-27T12:14:43.000Z</time>
      </trkpt>
      <trkpt lat="31.10161" lon="-7.915669">
        <ele>2284.19995117188</ele>
        <time>2019-12-27T12:14:45.000Z</time>
      </trkpt>
      <trkpt lat="31.1016" lon="-7.915646">
        <ele>2284.19995117188</ele>
        <time>2019-12-27T12:14:47.000Z</time>
      </trkpt>
      <trkpt lat="31.101594" lon="-7.915625">
        <ele>2284.39990234375</ele>
        <time>2019-12-27T12:14:49.000Z</time>
      </trkpt>
      <trkpt lat="31.101584" lon="-7.915593">
        <ele>2284.39990234375</ele>
        <time>2019-12-27T12:14:51.000Z</time>
      </trkpt>
      <trkpt lat="31.101574" lon="-7.915562">
        <ele>2284.60009765625</ele>
        <time>2019-12-27T12:14:54.000Z</time>
      </trkpt>
      <trkpt lat="31.101562" lon="-7.915535">
        <ele>2284.6198918625</ele>
        <time>2019-12-27T12:14:56.000Z</time>
      </trkpt>
      <trkpt lat="31.101549" lon="-7.915508">
        <ele>2284.80004882813</ele>
        <time>2019-12-27T12:14:58.000Z</time>
      </trkpt>
      <trkpt lat="31.101536" lon="-7.915487">
        <ele>2285</ele>
        <time>2019-12-27T12:15:01.000Z</time>
      </trkpt>
      <trkpt lat="31.101514" lon="-7.915468">
        <ele>2285.21974537813</ele>
        <time>2019-12-27T12:15:05.000Z</time>
      </trkpt>
      <trkpt lat="31.101494" lon="-7.915445">
        <ele>2285.39990234375</ele>
        <time>2019-12-27T12:15:08.000Z</time>
      </trkpt>
      <trkpt lat="31.101482" lon="-7.915425">
        <ele>2285.39990234375</ele>
        <time>2019-12-27T12:15:10.000Z</time>
      </trkpt>
      <trkpt lat="31.101469" lon="-7.9154">
        <ele>2285.60009765625</ele>
        <time>2019-12-27T12:15:13.000Z</time>
      </trkpt>
      <trkpt lat="31.10145" lon="-7.915382">
        <ele>2285.60009765625</ele>
        <time>2019-12-27T12:15:15.000Z</time>
      </trkpt>
      <trkpt lat="31.10143" lon="-7.915358">
        <ele>2285.60009765625</ele>
        <time>2019-12-27T12:15:19.000Z</time>
      </trkpt>
      <trkpt lat="31.101405" lon="-7.915335">
        <ele>2285.60009765625</ele>
        <time>2019-12-27T12:15:21.000Z</time>
      </trkpt>
      <trkpt lat="31.101392" lon="-7.915317">
        <ele>2285.60009765625</ele>
        <time>2019-12-27T12:15:23.000Z</time>
      </trkpt>
      <trkpt lat="31.101376" lon="-7.915305">
        <ele>2285.60009765625</ele>
        <time>2019-12-27T12:15:25.000Z</time>
      </trkpt>
      <trkpt lat="31.101363" lon="-7.915286">
        <ele>2285.6198918625</ele>
        <time>2019-12-27T12:15:27.000Z</time>
      </trkpt>
      <trkpt lat="31.101344" lon="-7.915278">
        <ele>2285.80004882813</ele>
        <time>2019-12-27T12:15:29.000Z</time>
      </trkpt>
      <trkpt lat="31.101331" lon="-7.91526">
        <ele>2285.80004882813</ele>
        <time>2019-12-27T12:15:31.000Z</time>
      </trkpt>
      <trkpt lat="31.101315" lon="-7.915233">
        <ele>2285.80004882813</ele>
        <time>2019-12-27T12:15:33.000Z</time>
      </trkpt>
      <trkpt lat="31.101309" lon="-7.915212">
        <ele>2285.80004882813</ele>
        <time>2019-12-27T12:15:35.000Z</time>
      </trkpt>
      <trkpt lat="31.101302" lon="-7.91518">
        <ele>2286</ele>
        <time>2019-12-27T12:15:38.000Z</time>
      </trkpt>
      <trkpt lat="31.101286" lon="-7.915162">
        <ele>2286.01979420625</ele>
        <time>2019-12-27T12:15:40.000Z</time>
      </trkpt>
      <trkpt lat="31.101277" lon="-7.915137">
        <ele>2286.21974537813</ele>
        <time>2019-12-27T12:15:43.000Z</time>
      </trkpt>
      <trkpt lat="31.101267" lon="-7.915115">
        <ele>2286.41972071875</ele>
        <time>2019-12-27T12:15:46.000Z</time>
      </trkpt>
      <trkpt lat="31.101251" lon="-7.915102">
        <ele>2286.6198918625</ele>
        <time>2019-12-27T12:15:48.000Z</time>
      </trkpt>
      <trkpt lat="31.101235" lon="-7.91508">
        <ele>2286.81984303438</ele>
        <time>2019-12-27T12:15:51.000Z</time>
      </trkpt>
      <trkpt lat="31.101222" lon="-7.915065">
        <ele>2287</ele>
        <time>2019-12-27T12:15:53.000Z</time>
      </trkpt>
      <trkpt lat="31.101206" lon="-7.915038">
        <ele>2287.19995117188</ele>
        <time>2019-12-27T12:15:55.000Z</time>
      </trkpt>
      <trkpt lat="31.101197" lon="-7.915018">
        <ele>2287.21974537813</ele>
        <time>2019-12-27T12:15:57.000Z</time>
      </trkpt>
      <trkpt lat="31.101178" lon="-7.91499">
        <ele>2287.41972071875</ele>
        <time>2019-12-27T12:15:59.000Z</time>
      </trkpt>
      <trkpt lat="31.101168" lon="-7.91497">
        <ele>2287.6198918625</ele>
        <time>2019-12-27T12:16:01.000Z</time>
      </trkpt>
      <trkpt lat="31.101155" lon="-7.914942">
        <ele>2288</ele>
        <time>2019-12-27T12:16:05.000Z</time>
      </trkpt>
      <trkpt lat="31.101146" lon="-7.914922">
        <ele>2288.01979420625</ele>
        <time>2019-12-27T12:16:07.000Z</time>
      </trkpt>
      <trkpt lat="31.101139" lon="-7.914902">
        <ele>2288.19995117188</ele>
        <time>2019-12-27T12:16:09.000Z</time>
      </trkpt>
      <trkpt lat="31.101133" lon="-7.914882">
        <ele>2288.21974537813</ele>
        <time>2019-12-27T12:16:11.000Z</time>
      </trkpt>
      <trkpt lat="31.10112" lon="-7.914862">
        <ele>2288.39990234375</ele>
        <time>2019-12-27T12:16:14.000Z</time>
      </trkpt>
      <trkpt lat="31.101114" lon="-7.914837">
        <ele>2288.60009765625</ele>
        <time>2019-12-27T12:16:17.000Z</time>
      </trkpt>
      <trkpt lat="31.101104" lon="-7.914815">
        <ele>2288.60009765625</ele>
        <time>2019-12-27T12:16:20.000Z</time>
      </trkpt>
      <trkpt lat="31.101088" lon="-7.914803">
        <ele>2288.60009765625</ele>
        <time>2019-12-27T12:16:23.000Z</time>
      </trkpt>
      <trkpt lat="31.101072" lon="-7.914794">
        <ele>2288.80004882813</ele>
        <time>2019-12-27T12:16:28.000Z</time>
      </trkpt>
      <trkpt lat="31.101053" lon="-7.91477">
        <ele>2288.80004882813</ele>
        <time>2019-12-27T12:16:31.000Z</time>
      </trkpt>
      <trkpt lat="31.101043" lon="-7.914748">
        <ele>2288.80004882813</ele>
        <time>2019-12-27T12:16:33.000Z</time>
      </trkpt>
      <trkpt lat="31.101037" lon="-7.91472">
        <ele>2288.80004882813</ele>
        <time>2019-12-27T12:16:36.000Z</time>
      </trkpt>
      <trkpt lat="31.101021" lon="-7.914705">
        <ele>2288.80004882813</ele>
        <time>2019-12-27T12:16:38.000Z</time>
      </trkpt>
      <trkpt lat="31.101021" lon="-7.914674">
        <ele>2289</ele>
        <time>2019-12-27T12:16:41.000Z</time>
      </trkpt>
      <trkpt lat="31.101024" lon="-7.91465">
        <ele>2289</ele>
        <time>2019-12-27T12:16:43.000Z</time>
      </trkpt>
      <trkpt lat="31.101018" lon="-7.914626">
        <ele>2289.19995117188</ele>
        <time>2019-12-27T12:16:45.000Z</time>
      </trkpt>
      <trkpt lat="31.101008" lon="-7.9146">
        <ele>2289.21974537813</ele>
        <time>2019-12-27T12:16:48.000Z</time>
      </trkpt>
      <trkpt lat="31.100995" lon="-7.91458">
        <ele>2289.39990234375</ele>
        <time>2019-12-27T12:16:50.000Z</time>
      </trkpt>
      <trkpt lat="31.100982" lon="-7.91456">
        <ele>2289.6198918625</ele>
        <time>2019-12-27T12:16:53.000Z</time>
      </trkpt>
      <trkpt lat="31.100963" lon="-7.914545">
        <ele>2290</ele>
        <time>2019-12-27T12:16:56.000Z</time>
      </trkpt>
      <trkpt lat="31.100944" lon="-7.914533">
        <ele>2290.21974537813</ele>
        <time>2019-12-27T12:16:59.000Z</time>
      </trkpt>
      <trkpt lat="31.100931" lon="-7.914512">
        <ele>2290.6198918625</ele>
        <time>2019-12-27T12:17:02.000Z</time>
      </trkpt>
      <trkpt lat="31.100928" lon="-7.914485">
        <ele>2291.21974537813</ele>
        <time>2019-12-27T12:17:07.000Z</time>
      </trkpt>
      <trkpt lat="31.100906" lon="-7.914468">
        <ele>2291.6198918625</ele>
        <time>2019-12-27T12:17:10.000Z</time>
      </trkpt>
      <trkpt lat="31.100886" lon="-7.91445">
        <ele>2292.01979420625</ele>
        <time>2019-12-27T12:17:13.000Z</time>
      </trkpt>
      <trkpt lat="31.100867" lon="-7.914435">
        <ele>2292.41972071875</ele>
        <time>2019-12-27T12:17:16.000Z</time>
      </trkpt>
      <trkpt lat="31.100858" lon="-7.914415">
        <ele>2292.80004882813</ele>
        <time>2019-12-27T12:17:19.000Z</time>
      </trkpt>
      <trkpt lat="31.100848" lon="-7.914395">
        <ele>2293.01979420625</ele>
        <time>2019-12-27T12:17:21.000Z</time>
      </trkpt>
      <trkpt lat="31.100816" lon="-7.914391">
        <ele>2293.21974537813</ele>
        <time>2019-12-27T12:17:23.000Z</time>
      </trkpt>
      <trkpt lat="31.100794" lon="-7.914385">
        <ele>2293.6198918625</ele>
        <time>2019-12-27T12:17:26.000Z</time>
      </trkpt>
      <trkpt lat="31.100768" lon="-7.914391">
        <ele>2294</ele>
        <time>2019-12-27T12:17:29.000Z</time>
      </trkpt>
      <trkpt lat="31.100749" lon="-7.914417">
        <ele>2294.21974537813</ele>
        <time>2019-12-27T12:17:33.000Z</time>
      </trkpt>
      <trkpt lat="31.10073" lon="-7.914434">
        <ele>2294.60009765625</ele>
        <time>2019-12-27T12:17:36.000Z</time>
      </trkpt>
      <trkpt lat="31.10071" lon="-7.914443">
        <ele>2294.6198918625</ele>
        <time>2019-12-27T12:17:38.000Z</time>
      </trkpt>
      <trkpt lat="31.100691" lon="-7.914451">
        <ele>2294.80004882813</ele>
        <time>2019-12-27T12:17:40.000Z</time>
      </trkpt>
      <trkpt lat="31.100666" lon="-7.91446">
        <ele>2295</ele>
        <time>2019-12-27T12:17:43.000Z</time>
      </trkpt>
      <trkpt lat="31.100646" lon="-7.914468">
        <ele>2295.19995117188</ele>
        <time>2019-12-27T12:17:46.000Z</time>
      </trkpt>
      <trkpt lat="31.100627" lon="-7.914478">
        <ele>2295.21974537813</ele>
        <time>2019-12-27T12:17:48.000Z</time>
      </trkpt>
      <trkpt lat="31.100614" lon="-7.914495">
        <ele>2295.39990234375</ele>
        <time>2019-12-27T12:17:50.000Z</time>
      </trkpt>
      <trkpt lat="31.100602" lon="-7.91452">
        <ele>2295.41972071875</ele>
        <time>2019-12-27T12:17:52.000Z</time>
      </trkpt>
      <trkpt lat="31.100589" lon="-7.914535">
        <ele>2295.60009765625</ele>
        <time>2019-12-27T12:17:54.000Z</time>
      </trkpt>
      <trkpt lat="31.100573" lon="-7.914558">
        <ele>2295.80004882813</ele>
        <time>2019-12-27T12:17:59.000Z</time>
      </trkpt>
      <trkpt lat="31.100557" lon="-7.914578">
        <ele>2296</ele>
        <time>2019-12-27T12:18:01.000Z</time>
      </trkpt>
      <trkpt lat="31.100538" lon="-7.91458">
        <ele>2296</ele>
        <time>2019-12-27T12:18:05.000Z</time>
      </trkpt>
      <trkpt lat="31.100518" lon="-7.914603">
        <ele>2296.19995117188</ele>
        <time>2019-12-27T12:18:08.000Z</time>
      </trkpt>
      <trkpt lat="31.100506" lon="-7.914637">
        <ele>2296.39990234375</ele>
        <time>2019-12-27T12:18:12.000Z</time>
      </trkpt>
      <trkpt lat="31.100496" lon="-7.914657">
        <ele>2296.41972071875</ele>
        <time>2019-12-27T12:18:15.000Z</time>
      </trkpt>
      <trkpt lat="31.10048" lon="-7.914668">
        <ele>2296.60009765625</ele>
        <time>2019-12-27T12:18:17.000Z</time>
      </trkpt>
      <trkpt lat="31.100461" lon="-7.914686">
        <ele>2296.80004882813</ele>
        <time>2019-12-27T12:18:20.000Z</time>
      </trkpt>
      <trkpt lat="31.100442" lon="-7.914686">
        <ele>2297</ele>
        <time>2019-12-27T12:18:22.000Z</time>
      </trkpt>
      <trkpt lat="31.100422" lon="-7.91468">
        <ele>2297.21974537813</ele>
        <time>2019-12-27T12:18:25.000Z</time>
      </trkpt>
      <trkpt lat="31.100403" lon="-7.914674">
        <ele>2297.41972071875</ele>
        <time>2019-12-27T12:18:27.000Z</time>
      </trkpt>
      <trkpt lat="31.100387" lon="-7.914663">
        <ele>2297.60009765625</ele>
        <time>2019-12-27T12:18:29.000Z</time>
      </trkpt>
      <trkpt lat="31.100368" lon="-7.914657">
        <ele>2297.81984303438</ele>
        <time>2019-12-27T12:18:32.000Z</time>
      </trkpt>
      <trkpt lat="31.100349" lon="-7.914649">
        <ele>2298.01979420625</ele>
        <time>2019-12-27T12:18:34.000Z</time>
      </trkpt>
      <trkpt lat="31.10033" lon="-7.914637">
        <ele>2298.21974537813</ele>
        <time>2019-12-27T12:18:37.000Z</time>
      </trkpt>
      <trkpt lat="31.100304" lon="-7.914629">
        <ele>2298.41972071875</ele>
        <time>2019-12-27T12:18:40.000Z</time>
      </trkpt>
      <trkpt lat="31.100278" lon="-7.914626">
        <ele>2298.80004882813</ele>
        <time>2019-12-27T12:18:44.000Z</time>
      </trkpt>
      <trkpt lat="31.100253" lon="-7.914618">
        <ele>2299</ele>
        <time>2019-12-27T12:18:46.000Z</time>
      </trkpt>
      <trkpt lat="31.10023" lon="-7.914605">
        <ele>2299.21974537813</ele>
        <time>2019-12-27T12:18:49.000Z</time>
      </trkpt>
      <trkpt lat="31.100211" lon="-7.914583">
        <ele>2299.6198918625</ele>
        <time>2019-12-27T12:18:52.000Z</time>
      </trkpt>
      <trkpt lat="31.100189" lon="-7.914575">
        <ele>2299.81984303438</ele>
        <time>2019-12-27T12:18:54.000Z</time>
      </trkpt>
      <trkpt lat="31.100173" lon="-7.91456">
        <ele>2300.39990234375</ele>
        <time>2019-12-27T12:18:57.000Z</time>
      </trkpt>
      <trkpt lat="31.10015" lon="-7.914542">
        <ele>2300.81984303438</ele>
        <time>2019-12-27T12:19:00.000Z</time>
      </trkpt>
      <trkpt lat="31.100125" lon="-7.914533">
        <ele>2301.21974537813</ele>
        <time>2019-12-27T12:19:02.000Z</time>
      </trkpt>
      <trkpt lat="31.100106" lon="-7.914532">
        <ele>2301.6198918625</ele>
        <time>2019-12-27T12:19:04.000Z</time>
      </trkpt>
      <trkpt lat="31.100083" lon="-7.914522">
        <ele>2302.41972071875</ele>
        <time>2019-12-27T12:19:08.000Z</time>
      </trkpt>
      <trkpt lat="31.100064" lon="-7.914512">
        <ele>2303</ele>
        <time>2019-12-27T12:19:11.000Z</time>
      </trkpt>
      <trkpt lat="31.100042" lon="-7.914497">
        <ele>2303.21974537813</ele>
        <time>2019-12-27T12:19:13.000Z</time>
      </trkpt>
      <trkpt lat="31.100026" lon="-7.914478">
        <ele>2303.81984303438</ele>
        <time>2019-12-27T12:19:16.000Z</time>
      </trkpt>
      <trkpt lat="31.10001" lon="-7.914463">
        <ele>2304.41972071875</ele>
        <time>2019-12-27T12:19:19.000Z</time>
      </trkpt>
      <trkpt lat="31.099984" lon="-7.914454">
        <ele>2305</ele>
        <time>2019-12-27T12:19:22.000Z</time>
      </trkpt>
      <trkpt lat="31.099962" lon="-7.914448">
        <ele>2305.21974537813</ele>
        <time>2019-12-27T12:19:24.000Z</time>
      </trkpt>
      <trkpt lat="31.099939" lon="-7.914435">
        <ele>2305.60009765625</ele>
        <time>2019-12-27T12:19:26.000Z</time>
      </trkpt>
      <trkpt lat="31.099926" lon="-7.91442">
        <ele>2305.81984303438</ele>
        <time>2019-12-27T12:19:28.000Z</time>
      </trkpt>
      <trkpt lat="31.09991" lon="-7.914405">
        <ele>2306.01979420625</ele>
        <time>2019-12-27T12:19:30.000Z</time>
      </trkpt>
      <trkpt lat="31.099891" lon="-7.914386">
        <ele>2306.39990234375</ele>
        <time>2019-12-27T12:19:32.000Z</time>
      </trkpt>
      <trkpt lat="31.099872" lon="-7.914365">
        <ele>2306.60009765625</ele>
        <time>2019-12-27T12:19:34.000Z</time>
      </trkpt>
      <trkpt lat="31.099853" lon="-7.914355">
        <ele>2306.80004882813</ele>
        <time>2019-12-27T12:19:36.000Z</time>
      </trkpt>
      <trkpt lat="31.099834" lon="-7.914345">
        <ele>2307</ele>
        <time>2019-12-27T12:19:38.000Z</time>
      </trkpt>
      <trkpt lat="31.099814" lon="-7.914335">
        <ele>2307.01979420625</ele>
        <time>2019-12-27T12:19:40.000Z</time>
      </trkpt>
      <trkpt lat="31.099792" lon="-7.91432">
        <ele>2307.21974537813</ele>
        <time>2019-12-27T12:19:43.000Z</time>
      </trkpt>
      <trkpt lat="31.09977" lon="-7.914309">
        <ele>2307.39990234375</ele>
        <time>2019-12-27T12:19:45.000Z</time>
      </trkpt>
      <trkpt lat="31.099754" lon="-7.91429">
        <ele>2307.60009765625</ele>
        <time>2019-12-27T12:19:48.000Z</time>
      </trkpt>
      <trkpt lat="31.099741" lon="-7.914272">
        <ele>2307.80004882813</ele>
        <time>2019-12-27T12:19:51.000Z</time>
      </trkpt>
      <trkpt lat="31.099725" lon="-7.914257">
        <ele>2307.80004882813</ele>
        <time>2019-12-27T12:19:53.000Z</time>
      </trkpt>
      <trkpt lat="31.099709" lon="-7.914237">
        <ele>2308</ele>
        <time>2019-12-27T12:19:56.000Z</time>
      </trkpt>
      <trkpt lat="31.099686" lon="-7.914212">
        <ele>2308.01979420625</ele>
        <time>2019-12-27T12:19:58.000Z</time>
      </trkpt>
      <trkpt lat="31.09967" lon="-7.914188">
        <ele>2308.19995117188</ele>
        <time>2019-12-27T12:20:01.000Z</time>
      </trkpt>
      <trkpt lat="31.099651" lon="-7.914168">
        <ele>2308.21974537813</ele>
        <time>2019-12-27T12:20:03.000Z</time>
      </trkpt>
      <trkpt lat="31.099635" lon="-7.914148">
        <ele>2308.39990234375</ele>
        <time>2019-12-27T12:20:06.000Z</time>
      </trkpt>
      <trkpt lat="31.099629" lon="-7.914128">
        <ele>2308.39990234375</ele>
        <time>2019-12-27T12:20:08.000Z</time>
      </trkpt>
      <trkpt lat="31.099613" lon="-7.91411">
        <ele>2308.60009765625</ele>
        <time>2019-12-27T12:20:10.000Z</time>
      </trkpt>
      <trkpt lat="31.0996" lon="-7.91409">
        <ele>2308.60009765625</ele>
        <time>2019-12-27T12:20:12.000Z</time>
      </trkpt>
      <trkpt lat="31.099594" lon="-7.914066">
        <ele>2308.6198918625</ele>
        <time>2019-12-27T12:20:15.000Z</time>
      </trkpt>
      <trkpt lat="31.099574" lon="-7.914046">
        <ele>2308.80004882813</ele>
        <time>2019-12-27T12:20:17.000Z</time>
      </trkpt>
      <trkpt lat="31.099558" lon="-7.914031">
        <ele>2308.80004882813</ele>
        <time>2019-12-27T12:20:19.000Z</time>
      </trkpt>
      <trkpt lat="31.099546" lon="-7.914014">
        <ele>2309</ele>
        <time>2019-12-27T12:20:21.000Z</time>
      </trkpt>
      <trkpt lat="31.09953" lon="-7.913997">
        <ele>2309</ele>
        <time>2019-12-27T12:20:23.000Z</time>
      </trkpt>
      <trkpt lat="31.099517" lon="-7.913978">
        <ele>2309.01979420625</ele>
        <time>2019-12-27T12:20:25.000Z</time>
      </trkpt>
      <trkpt lat="31.099504" lon="-7.913963">
        <ele>2309.19995117188</ele>
        <time>2019-12-27T12:20:27.000Z</time>
      </trkpt>
      <trkpt lat="31.099488" lon="-7.913945">
        <ele>2309.21974537813</ele>
        <time>2019-12-27T12:20:29.000Z</time>
      </trkpt>
      <trkpt lat="31.099475" lon="-7.91392">
        <ele>2309.39990234375</ele>
        <time>2019-12-27T12:20:32.000Z</time>
      </trkpt>
      <trkpt lat="31.099456" lon="-7.913903">
        <ele>2309.39990234375</ele>
        <time>2019-12-27T12:20:34.000Z</time>
      </trkpt>
      <trkpt lat="31.09944" lon="-7.913877">
        <ele>2309.60009765625</ele>
        <time>2019-12-27T12:20:37.000Z</time>
      </trkpt>
      <trkpt lat="31.09943" lon="-7.913858">
        <ele>2309.60009765625</ele>
        <time>2019-12-27T12:20:39.000Z</time>
      </trkpt>
      <trkpt lat="31.099434" lon="-7.91383">
        <ele>2309.60009765625</ele>
        <time>2019-12-27T12:20:42.000Z</time>
      </trkpt>
      <trkpt lat="31.09943" lon="-7.913803">
        <ele>2309.60009765625</ele>
        <time>2019-12-27T12:20:44.000Z</time>
      </trkpt>
      <trkpt lat="31.099408" lon="-7.913774">
        <ele>2309.60009765625</ele>
        <time>2019-12-27T12:20:48.000Z</time>
      </trkpt>
      <trkpt lat="31.099392" lon="-7.913758">
        <ele>2309.58027928125</ele>
        <time>2019-12-27T12:20:50.000Z</time>
      </trkpt>
      <trkpt lat="31.099382" lon="-7.913735">
        <ele>2309.19995117188</ele>
        <time>2019-12-27T12:20:57.000Z</time>
      </trkpt>
      <trkpt lat="31.099363" lon="-7.91373">
        <ele>2308.39990234375</ele>
        <time>2019-12-27T12:21:12.000Z</time>
      </trkpt>
      <trkpt lat="31.099354" lon="-7.913708">
        <ele>2311.01979420625</ele>
        <time>2019-12-27T12:22:06.000Z</time>
      </trkpt>
      <trkpt lat="31.099338" lon="-7.913685">
        <ele>2311.39990234375</ele>
        <time>2019-12-27T12:22:10.000Z</time>
      </trkpt>
      <trkpt lat="31.099331" lon="-7.913665">
        <ele>2311.60009765625</ele>
        <time>2019-12-27T12:22:13.000Z</time>
      </trkpt>
      <trkpt lat="31.099322" lon="-7.913642">
        <ele>2311.60009765625</ele>
        <time>2019-12-27T12:22:21.000Z</time>
      </trkpt>
      <trkpt lat="31.099306" lon="-7.913625">
        <ele>2311.60009765625</ele>
        <time>2019-12-27T12:22:23.000Z</time>
      </trkpt>
      <trkpt lat="31.09929" lon="-7.913609">
        <ele>2311.60009765625</ele>
        <time>2019-12-27T12:22:25.000Z</time>
      </trkpt>
      <trkpt lat="31.099277" lon="-7.913589">
        <ele>2311.60009765625</ele>
        <time>2019-12-27T12:22:27.000Z</time>
      </trkpt>
      <trkpt lat="31.099261" lon="-7.91357">
        <ele>2311.60009765625</ele>
        <time>2019-12-27T12:22:29.000Z</time>
      </trkpt>
      <trkpt lat="31.099242" lon="-7.913546">
        <ele>2311.58027928125</ele>
        <time>2019-12-27T12:22:31.000Z</time>
      </trkpt>
      <trkpt lat="31.099229" lon="-7.913529">
        <ele>2311.39990234375</ele>
        <time>2019-12-27T12:22:33.000Z</time>
      </trkpt>
      <trkpt lat="31.099219" lon="-7.913503">
        <ele>2311.39990234375</ele>
        <time>2019-12-27T12:22:35.000Z</time>
      </trkpt>
      <trkpt lat="31.09921" lon="-7.913473">
        <ele>2311.39990234375</ele>
        <time>2019-12-27T12:22:37.000Z</time>
      </trkpt>
      <trkpt lat="31.09919" lon="-7.91345">
        <ele>2311.19995117188</ele>
        <time>2019-12-27T12:22:40.000Z</time>
      </trkpt>
      <trkpt lat="31.099174" lon="-7.913435">
        <ele>2311.19995117188</ele>
        <time>2019-12-27T12:22:42.000Z</time>
      </trkpt>
      <trkpt lat="31.099162" lon="-7.913415">
        <ele>2311.19995117188</ele>
        <time>2019-12-27T12:22:44.000Z</time>
      </trkpt>
      <trkpt lat="31.099149" lon="-7.913394">
        <ele>2311</ele>
        <time>2019-12-27T12:22:46.000Z</time>
      </trkpt>
      <trkpt lat="31.099133" lon="-7.91336">
        <ele>2311</ele>
        <time>2019-12-27T12:22:48.000Z</time>
      </trkpt>
      <trkpt lat="31.09912" lon="-7.913342">
        <ele>2311</ele>
        <time>2019-12-27T12:22:50.000Z</time>
      </trkpt>
      <trkpt lat="31.099101" lon="-7.913323">
        <ele>2310.98020579375</ele>
        <time>2019-12-27T12:22:53.000Z</time>
      </trkpt>
      <trkpt lat="31.099085" lon="-7.913305">
        <ele>2310.80004882813</ele>
        <time>2019-12-27T12:22:56.000Z</time>
      </trkpt>
      <trkpt lat="31.099069" lon="-7.913294">
        <ele>2310.80004882813</ele>
        <time>2019-12-27T12:22:59.000Z</time>
      </trkpt>
      <trkpt lat="31.099053" lon="-7.91328">
        <ele>2310.78025462188</ele>
        <time>2019-12-27T12:23:01.000Z</time>
      </trkpt>
      <trkpt lat="31.099043" lon="-7.913262">
        <ele>2310.60009765625</ele>
        <time>2019-12-27T12:23:04.000Z</time>
      </trkpt>
      <trkpt lat="31.099037" lon="-7.913238">
        <ele>2310.60009765625</ele>
        <time>2019-12-27T12:23:08.000Z</time>
      </trkpt>
      <trkpt lat="31.099034" lon="-7.913215">
        <ele>2310.39990234375</ele>
        <time>2019-12-27T12:23:11.000Z</time>
      </trkpt>
      <trkpt lat="31.099021" lon="-7.913194">
        <ele>2310.39990234375</ele>
        <time>2019-12-27T12:23:13.000Z</time>
      </trkpt>
      <trkpt lat="31.099011" lon="-7.913169">
        <ele>2310.19995117188</ele>
        <time>2019-12-27T12:23:16.000Z</time>
      </trkpt>
      <trkpt lat="31.098992" lon="-7.913153">
        <ele>2310.18015696563</ele>
        <time>2019-12-27T12:23:18.000Z</time>
      </trkpt>
      <trkpt lat="31.098986" lon="-7.913128">
        <ele>2310</ele>
        <time>2019-12-27T12:23:21.000Z</time>
      </trkpt>
      <trkpt lat="31.098979" lon="-7.913097">
        <ele>2309.80004882813</ele>
        <time>2019-12-27T12:23:24.000Z</time>
      </trkpt>
      <trkpt lat="31.098963" lon="-7.913075">
        <ele>2309.80004882813</ele>
        <time>2019-12-27T12:23:27.000Z</time>
      </trkpt>
      <trkpt lat="31.098947" lon="-7.913058">
        <ele>2309.80004882813</ele>
        <time>2019-12-27T12:23:30.000Z</time>
      </trkpt>
      <trkpt lat="31.098928" lon="-7.913042">
        <ele>2309.60009765625</ele>
        <time>2019-12-27T12:23:33.000Z</time>
      </trkpt>
      <trkpt lat="31.098909" lon="-7.91303">
        <ele>2309.60009765625</ele>
        <time>2019-12-27T12:23:35.000Z</time>
      </trkpt>
      <trkpt lat="31.098893" lon="-7.913015">
        <ele>2309.60009765625</ele>
        <time>2019-12-27T12:23:37.000Z</time>
      </trkpt>
      <trkpt lat="31.098874" lon="-7.913005">
        <ele>2309.60009765625</ele>
        <time>2019-12-27T12:23:39.000Z</time>
      </trkpt>
      <trkpt lat="31.098854" lon="-7.912991">
        <ele>2309.60009765625</ele>
        <time>2019-12-27T12:23:41.000Z</time>
      </trkpt>
      <trkpt lat="31.098832" lon="-7.912975">
        <ele>2309.60009765625</ele>
        <time>2019-12-27T12:23:44.000Z</time>
      </trkpt>
      <trkpt lat="31.098813" lon="-7.912958">
        <ele>2309.60009765625</ele>
        <time>2019-12-27T12:23:47.000Z</time>
      </trkpt>
      <trkpt lat="31.098797" lon="-7.912938">
        <ele>2309.60009765625</ele>
        <time>2019-12-27T12:23:49.000Z</time>
      </trkpt>
      <trkpt lat="31.098778" lon="-7.912915">
        <ele>2309.58027928125</ele>
        <time>2019-12-27T12:23:51.000Z</time>
      </trkpt>
      <trkpt lat="31.098765" lon="-7.9129">
        <ele>2309.39990234375</ele>
        <time>2019-12-27T12:23:52.000Z</time>
      </trkpt>
      <trkpt lat="31.098755" lon="-7.912874">
        <ele>2309.39990234375</ele>
        <time>2019-12-27T12:23:54.000Z</time>
      </trkpt>
      <trkpt lat="31.098752" lon="-7.91285">
        <ele>2309.19995117188</ele>
        <time>2019-12-27T12:23:56.000Z</time>
      </trkpt>
      <trkpt lat="31.098755" lon="-7.912822">
        <ele>2309.19995117188</ele>
        <time>2019-12-27T12:23:58.000Z</time>
      </trkpt>
      <trkpt lat="31.098752" lon="-7.9128">
        <ele>2309.18015696563</ele>
        <time>2019-12-27T12:24:00.000Z</time>
      </trkpt>
      <trkpt lat="31.098733" lon="-7.91279">
        <ele>2309</ele>
        <time>2019-12-27T12:24:02.000Z</time>
      </trkpt>
      <trkpt lat="31.098717" lon="-7.912775">
        <ele>2308.80004882813</ele>
        <time>2019-12-27T12:24:05.000Z</time>
      </trkpt>
      <trkpt lat="31.098694" lon="-7.912777">
        <ele>2308.80004882813</ele>
        <time>2019-12-27T12:24:08.000Z</time>
      </trkpt>
      <trkpt lat="31.098675" lon="-7.912785">
        <ele>2308.60009765625</ele>
        <time>2019-12-27T12:24:10.000Z</time>
      </trkpt>
      <trkpt lat="31.098653" lon="-7.912785">
        <ele>2308.60009765625</ele>
        <time>2019-12-27T12:24:13.000Z</time>
      </trkpt>
      <trkpt lat="31.09863" lon="-7.912786">
        <ele>2308.39990234375</ele>
        <time>2019-12-27T12:24:16.000Z</time>
      </trkpt>
      <trkpt lat="31.098605" lon="-7.912778">
        <ele>2308.39990234375</ele>
        <time>2019-12-27T12:24:19.000Z</time>
      </trkpt>
      <trkpt lat="31.098586" lon="-7.912766">
        <ele>2308.3801081375</ele>
        <time>2019-12-27T12:24:22.000Z</time>
      </trkpt>
      <trkpt lat="31.098566" lon="-7.912772">
        <ele>2308.21974537813</ele>
        <time>2019-12-27T12:24:26.000Z</time>
      </trkpt>
      <trkpt lat="31.098547" lon="-7.912772">
        <ele>2308.60009765625</ele>
        <time>2019-12-27T12:24:36.000Z</time>
      </trkpt>
      <trkpt lat="31.098531" lon="-7.912758">
        <ele>2308.80004882813</ele>
        <time>2019-12-27T12:24:43.000Z</time>
      </trkpt>
      <trkpt lat="31.098502" lon="-7.912765">
        <ele>2309.19995117188</ele>
        <time>2019-12-27T12:24:51.000Z</time>
      </trkpt>
      <trkpt lat="31.098483" lon="-7.912758">
        <ele>2309.19995117188</ele>
        <time>2019-12-27T12:24:53.000Z</time>
      </trkpt>
      <trkpt lat="31.098464" lon="-7.91276">
        <ele>2309.39990234375</ele>
        <time>2019-12-27T12:24:56.000Z</time>
      </trkpt>
      <trkpt lat="31.098442" lon="-7.912772">
        <ele>2309.60009765625</ele>
        <time>2019-12-27T12:25:00.000Z</time>
      </trkpt>
      <trkpt lat="31.098426" lon="-7.912788">
        <ele>2309.80004882813</ele>
        <time>2019-12-27T12:25:03.000Z</time>
      </trkpt>
      <trkpt lat="31.09841" lon="-7.912815">
        <ele>2309.81984303438</ele>
        <time>2019-12-27T12:25:06.000Z</time>
      </trkpt>
      <trkpt lat="31.09839" lon="-7.912834">
        <ele>2310</ele>
        <time>2019-12-27T12:25:08.000Z</time>
      </trkpt>
      <trkpt lat="31.098378" lon="-7.91285">
        <ele>2310.19995117188</ele>
        <time>2019-12-27T12:25:12.000Z</time>
      </trkpt>
      <trkpt lat="31.098384" lon="-7.912874">
        <ele>2310.21974537813</ele>
        <time>2019-12-27T12:25:16.000Z</time>
      </trkpt>
      <trkpt lat="31.098381" lon="-7.912909">
        <ele>2310.39990234375</ele>
        <time>2019-12-27T12:25:19.000Z</time>
      </trkpt>
      <trkpt lat="31.098368" lon="-7.912938">
        <ele>2310.39990234375</ele>
        <time>2019-12-27T12:25:21.000Z</time>
      </trkpt>
      <trkpt lat="31.098355" lon="-7.912955">
        <ele>2310.60009765625</ele>
        <time>2019-12-27T12:25:28.000Z</time>
      </trkpt>
      <trkpt lat="31.098426" lon="-7.912918">
        <ele>2310.81984303438</ele>
        <time>2019-12-27T12:25:42.000Z</time>
      </trkpt>
      <trkpt lat="31.098442" lon="-7.912931">
        <ele>2311.6198918625</ele>
        <time>2019-12-27T12:25:57.000Z</time>
      </trkpt>
      <trkpt lat="31.098448" lon="-7.912957">
        <ele>2311.80004882813</ele>
        <time>2019-12-27T12:26:01.000Z</time>
      </trkpt>
      <trkpt lat="31.098467" lon="-7.912991">
        <ele>2312</ele>
        <time>2019-12-27T12:26:04.000Z</time>
      </trkpt>
      <trkpt lat="31.098445" lon="-7.913002">
        <ele>2312</ele>
        <time>2019-12-27T12:26:07.000Z</time>
      </trkpt>
      <trkpt lat="31.098422" lon="-7.913008">
        <ele>2312.01979420625</ele>
        <time>2019-12-27T12:26:09.000Z</time>
      </trkpt>
      <trkpt lat="31.098397" lon="-7.913023">
        <ele>2312.19995117188</ele>
        <time>2019-12-27T12:26:11.000Z</time>
      </trkpt>
      <trkpt lat="31.098387" lon="-7.913043">
        <ele>2312.19995117188</ele>
        <time>2019-12-27T12:26:13.000Z</time>
      </trkpt>
      <trkpt lat="31.098365" lon="-7.913077">
        <ele>2312.19995117188</ele>
        <time>2019-12-27T12:26:15.000Z</time>
      </trkpt>
      <trkpt lat="31.098352" lon="-7.913097">
        <ele>2312.39990234375</ele>
        <time>2019-12-27T12:26:20.000Z</time>
      </trkpt>
      <trkpt lat="31.09833" lon="-7.913114">
        <ele>2312.39990234375</ele>
        <time>2019-12-27T12:26:23.000Z</time>
      </trkpt>
      <trkpt lat="31.09831" lon="-7.913103">
        <ele>2312.60009765625</ele>
        <time>2019-12-27T12:26:28.000Z</time>
      </trkpt>
      <trkpt lat="31.098298" lon="-7.913083">
        <ele>2312.60009765625</ele>
        <time>2019-12-27T12:26:32.000Z</time>
      </trkpt>
      <trkpt lat="31.098285" lon="-7.913067">
        <ele>2312.60009765625</ele>
        <time>2019-12-27T12:26:36.000Z</time>
      </trkpt>
      <trkpt lat="31.098278" lon="-7.91304">
        <ele>2312.80004882813</ele>
        <time>2019-12-27T12:26:40.000Z</time>
      </trkpt>
      <trkpt lat="31.098288" lon="-7.91302">
        <ele>2312.80004882813</ele>
        <time>2019-12-27T12:26:43.000Z</time>
      </trkpt>
      <trkpt lat="31.098288" lon="-7.912997">
        <ele>2312.80004882813</ele>
        <time>2019-12-27T12:26:47.000Z</time>
      </trkpt>
      <trkpt lat="31.098278" lon="-7.912971">
        <ele>2312.80004882813</ele>
        <time>2019-12-27T12:26:53.000Z</time>
      </trkpt>
      <trkpt lat="31.098259" lon="-7.912975">
        <ele>2312.80004882813</ele>
        <time>2019-12-27T12:27:01.000Z</time>
      </trkpt>
      <trkpt lat="31.098246" lon="-7.912955">
        <ele>2314</ele>
        <time>2019-12-27T12:27:18.000Z</time>
      </trkpt>
      <trkpt lat="31.098237" lon="-7.912937">
        <ele>2314.19995117188</ele>
        <time>2019-12-27T12:27:20.000Z</time>
      </trkpt>
      <trkpt lat="31.09823" lon="-7.912915">
        <ele>2314.41972071875</ele>
        <time>2019-12-27T12:27:23.000Z</time>
      </trkpt>
      <trkpt lat="31.098218" lon="-7.91289">
        <ele>2315.39990234375</ele>
        <time>2019-12-27T12:27:30.000Z</time>
      </trkpt>
      <trkpt lat="31.098208" lon="-7.912866">
        <ele>2315.6198918625</ele>
        <time>2019-12-27T12:27:33.000Z</time>
      </trkpt>
      <trkpt lat="31.098202" lon="-7.912846">
        <ele>2316.01979420625</ele>
        <time>2019-12-27T12:27:36.000Z</time>
      </trkpt>
      <trkpt lat="31.098198" lon="-7.912823">
        <ele>2316.41972071875</ele>
        <time>2019-12-27T12:27:40.000Z</time>
      </trkpt>
      <trkpt lat="31.098179" lon="-7.912809">
        <ele>2317</ele>
        <time>2019-12-27T12:27:43.000Z</time>
      </trkpt>
      <trkpt lat="31.098166" lon="-7.912778">
        <ele>2317.80004882813</ele>
        <time>2019-12-27T12:27:50.000Z</time>
      </trkpt>
      <trkpt lat="31.098166" lon="-7.912755">
        <ele>2318.19995117188</ele>
        <time>2019-12-27T12:27:53.000Z</time>
      </trkpt>
      <trkpt lat="31.098157" lon="-7.912735">
        <ele>2318.39990234375</ele>
        <time>2019-12-27T12:27:55.000Z</time>
      </trkpt>
      <trkpt lat="31.098138" lon="-7.91273">
        <ele>2318.81984303438</ele>
        <time>2019-12-27T12:27:58.000Z</time>
      </trkpt>
      <trkpt lat="31.098118" lon="-7.91273">
        <ele>2319.19995117188</ele>
        <time>2019-12-27T12:28:00.000Z</time>
      </trkpt>
      <trkpt lat="31.098122" lon="-7.912708">
        <ele>2319.41972071875</ele>
        <time>2019-12-27T12:28:03.000Z</time>
      </trkpt>
      <trkpt lat="31.098115" lon="-7.912687">
        <ele>2319.60009765625</ele>
        <time>2019-12-27T12:28:05.000Z</time>
      </trkpt>
      <trkpt lat="31.098115" lon="-7.912665">
        <ele>2320</ele>
        <time>2019-12-27T12:28:07.000Z</time>
      </trkpt>
      <trkpt lat="31.098106" lon="-7.912645">
        <ele>2320.19995117188</ele>
        <time>2019-12-27T12:28:09.000Z</time>
      </trkpt>
      <trkpt lat="31.098086" lon="-7.912654">
        <ele>2320.6198918625</ele>
        <time>2019-12-27T12:28:12.000Z</time>
      </trkpt>
      <trkpt lat="31.098067" lon="-7.912677">
        <ele>2321.19995117188</ele>
        <time>2019-12-27T12:28:16.000Z</time>
      </trkpt>
      <trkpt lat="31.098061" lon="-7.912705">
        <ele>2321.6198918625</ele>
        <time>2019-12-27T12:28:20.000Z</time>
      </trkpt>
      <trkpt lat="31.098042" lon="-7.91273">
        <ele>2322</ele>
        <time>2019-12-27T12:28:23.000Z</time>
      </trkpt>
      <trkpt lat="31.098022" lon="-7.912718">
        <ele>2322.39990234375</ele>
        <time>2019-12-27T12:28:27.000Z</time>
      </trkpt>
      <trkpt lat="31.09801" lon="-7.912703">
        <ele>2322.60009765625</ele>
        <time>2019-12-27T12:28:29.000Z</time>
      </trkpt>
      <trkpt lat="31.098" lon="-7.91268">
        <ele>2322.80004882813</ele>
        <time>2019-12-27T12:28:31.000Z</time>
      </trkpt>
      <trkpt lat="31.097997" lon="-7.912658">
        <ele>2323</ele>
        <time>2019-12-27T12:28:33.000Z</time>
      </trkpt>
      <trkpt lat="31.097984" lon="-7.912643">
        <ele>2323.19995117188</ele>
        <time>2019-12-27T12:28:35.000Z</time>
      </trkpt>
      <trkpt lat="31.097968" lon="-7.912625">
        <ele>2323.39990234375</ele>
        <time>2019-12-27T12:28:38.000Z</time>
      </trkpt>
      <trkpt lat="31.097955" lon="-7.912645">
        <ele>2323.6198918625</ele>
        <time>2019-12-27T12:28:41.000Z</time>
      </trkpt>
      <trkpt lat="31.097942" lon="-7.912663">
        <ele>2324</ele>
        <time>2019-12-27T12:28:44.000Z</time>
      </trkpt>
      <trkpt lat="31.097923" lon="-7.912645">
        <ele>2324.6198918625</ele>
        <time>2019-12-27T12:28:50.000Z</time>
      </trkpt>
      <trkpt lat="31.097917" lon="-7.912617">
        <ele>2325.01979420625</ele>
        <time>2019-12-27T12:28:54.000Z</time>
      </trkpt>
      <trkpt lat="31.097901" lon="-7.912597">
        <ele>2325.39990234375</ele>
        <time>2019-12-27T12:28:57.000Z</time>
      </trkpt>
      <trkpt lat="31.097894" lon="-7.912617">
        <ele>2325.80004882813</ele>
        <time>2019-12-27T12:29:00.000Z</time>
      </trkpt>
      <trkpt lat="31.097894" lon="-7.912645">
        <ele>2326</ele>
        <time>2019-12-27T12:29:03.000Z</time>
      </trkpt>
      <trkpt lat="31.097904" lon="-7.912668">
        <ele>2326.21974537813</ele>
        <time>2019-12-27T12:29:06.000Z</time>
      </trkpt>
      <trkpt lat="31.097901" lon="-7.91269">
        <ele>2326.60009765625</ele>
        <time>2019-12-27T12:29:09.000Z</time>
      </trkpt>
      <trkpt lat="31.097885" lon="-7.91271">
        <ele>2328.01979420625</ele>
        <time>2019-12-27T12:29:22.000Z</time>
      </trkpt>
      <trkpt lat="31.097888" lon="-7.912733">
        <ele>2329.19995117188</ele>
        <time>2019-12-27T12:29:29.000Z</time>
      </trkpt>
      <trkpt lat="31.097904" lon="-7.912748">
        <ele>2329.6198918625</ele>
        <time>2019-12-27T12:29:32.000Z</time>
      </trkpt>
      <trkpt lat="31.09791" lon="-7.912782">
        <ele>2330.21974537813</ele>
        <time>2019-12-27T12:29:37.000Z</time>
      </trkpt>
      <trkpt lat="31.097891" lon="-7.912792">
        <ele>2330.60009765625</ele>
        <time>2019-12-27T12:29:39.000Z</time>
      </trkpt>
      <trkpt lat="31.097869" lon="-7.912803">
        <ele>2331</ele>
        <time>2019-12-27T12:29:42.000Z</time>
      </trkpt>
      <trkpt lat="31.097885" lon="-7.912817">
        <ele>2331.80004882813</ele>
        <time>2019-12-27T12:29:48.000Z</time>
      </trkpt>
      <trkpt lat="31.097904" lon="-7.912813">
        <ele>2332.6198131268</ele>
        <time>2019-12-27T12:29:58.000Z</time>
      </trkpt>
      <trkpt lat="31.097894" lon="-7.912834">
        <ele>2333.19995117188</ele>
        <time>2019-12-27T12:30:05.000Z</time>
      </trkpt>
      <trkpt lat="31.097878" lon="-7.912843">
        <ele>2335.39990234375</ele>
        <time>2019-12-27T12:30:40.000Z</time>
      </trkpt>
      <trkpt lat="31.097859" lon="-7.912846">
        <ele>2339.01979420625</ele>
        <time>2019-12-27T12:31:14.000Z</time>
      </trkpt>
      <trkpt lat="31.09784" lon="-7.912846">
        <ele>2339.19995117188</ele>
        <time>2019-12-27T12:32:15.000Z</time>
      </trkpt>
      <trkpt lat="31.097859" lon="-7.912858">
        <ele>2339.19995117188</ele>
        <time>2019-12-27T12:32:35.000Z</time>
      </trkpt>
      <trkpt lat="31.097878" lon="-7.912863">
        <ele>2339.19995117188</ele>
        <time>2019-12-27T12:32:37.000Z</time>
      </trkpt>
      <trkpt lat="31.097898" lon="-7.912869">
        <ele>2339.21974537813</ele>
        <time>2019-12-27T12:32:40.000Z</time>
      </trkpt>
      <trkpt lat="31.09792" lon="-7.91286">
        <ele>2339.60009765625</ele>
        <time>2019-12-27T12:32:49.000Z</time>
      </trkpt>
      <trkpt lat="31.097907" lon="-7.912834">
        <ele>2340.19995117188</ele>
        <time>2019-12-27T12:33:01.000Z</time>
      </trkpt>
      <trkpt lat="31.097891" lon="-7.912822">
        <ele>2340.21974537813</ele>
        <time>2019-12-27T12:33:03.000Z</time>
      </trkpt>
      <trkpt lat="31.097901" lon="-7.912795">
        <ele>2340.80004882813</ele>
        <time>2019-12-27T12:33:18.000Z</time>
      </trkpt>
      <trkpt lat="31.097917" lon="-7.912782">
        <ele>2340.39990234375</ele>
        <time>2019-12-27T12:33:30.000Z</time>
      </trkpt>
      <trkpt lat="31.097898" lon="-7.912785">
        <ele>2339.19995117188</ele>
        <time>2019-12-27T12:33:52.000Z</time>
      </trkpt>
      <trkpt lat="31.097878" lon="-7.912793">
        <ele>2339.19995117188</ele>
        <time>2019-12-27T12:33:54.000Z</time>
      </trkpt>
      <trkpt lat="31.097862" lon="-7.91281">
        <ele>2339</ele>
        <time>2019-12-27T12:33:57.000Z</time>
      </trkpt>
      <trkpt lat="31.097837" lon="-7.91283">
        <ele>2338.39990234375</ele>
        <time>2019-12-27T12:34:24.000Z</time>
      </trkpt>
      <trkpt lat="31.097824" lon="-7.912846">
        <ele>2338.39990234375</ele>
        <time>2019-12-27T12:34:27.000Z</time>
      </trkpt>
      <trkpt lat="31.097846" lon="-7.912852">
        <ele>2338.39990234375</ele>
        <time>2019-12-27T12:34:32.000Z</time>
      </trkpt>
      <trkpt lat="31.097866" lon="-7.912849">
        <ele>2338.60009765625</ele>
        <time>2019-12-27T12:34:45.000Z</time>
      </trkpt>
      <trkpt lat="31.097891" lon="-7.91285">
        <ele>2339</ele>
        <time>2019-12-27T12:34:59.000Z</time>
      </trkpt>
      <trkpt lat="31.097901" lon="-7.912829">
        <ele>2339.19995117188</ele>
        <time>2019-12-27T12:35:04.000Z</time>
      </trkpt>
      <trkpt lat="31.097917" lon="-7.912806">
        <ele>2338.98020579375</ele>
        <time>2019-12-27T12:35:34.000Z</time>
      </trkpt>
      <trkpt lat="31.097891" lon="-7.912817">
        <ele>2338.58027928125</ele>
        <time>2019-12-27T12:35:42.000Z</time>
      </trkpt>
      <trkpt lat="31.097869" lon="-7.912832">
        <ele>2338.18015696563</ele>
        <time>2019-12-27T12:35:47.000Z</time>
      </trkpt>
      <trkpt lat="31.097885" lon="-7.91282">
        <ele>2335.39990234375</ele>
        <time>2019-12-27T12:36:42.000Z</time>
      </trkpt>
      <trkpt lat="31.097882" lon="-7.912797">
        <ele>2332.80004882813</ele>
        <time>2019-12-27T12:39:50.000Z</time>
      </trkpt>
      <trkpt lat="31.097866" lon="-7.91281">
        <ele>2332.80004882813</ele>
        <time>2019-12-27T12:39:53.000Z</time>
      </trkpt>
      <trkpt lat="31.097885" lon="-7.9128">
        <ele>2332.80004882813</ele>
        <time>2019-12-27T12:40:09.000Z</time>
      </trkpt>
      <trkpt lat="31.09791" lon="-7.912783">
        <ele>2332.80004882813</ele>
        <time>2019-12-27T12:40:37.000Z</time>
      </trkpt>
      <trkpt lat="31.09793" lon="-7.912782">
        <ele>2332.81984303438</ele>
        <time>2019-12-27T12:40:41.000Z</time>
      </trkpt>
      <trkpt lat="31.09792" lon="-7.912802">
        <ele>2333</ele>
        <time>2019-12-27T12:40:44.000Z</time>
      </trkpt>
      <trkpt lat="31.097907" lon="-7.91282">
        <ele>2333</ele>
        <time>2019-12-27T12:40:45.000Z</time>
      </trkpt>
      <trkpt lat="31.097898" lon="-7.912838">
        <ele>2333.19995117188</ele>
        <time>2019-12-27T12:40:48.000Z</time>
      </trkpt>
      <trkpt lat="31.097878" lon="-7.912843">
        <ele>2334.39990234375</ele>
        <time>2019-12-27T12:41:03.000Z</time>
      </trkpt>
      <trkpt lat="31.097859" lon="-7.912838">
        <ele>2334.81984303438</ele>
        <time>2019-12-27T12:41:08.000Z</time>
      </trkpt>
      <trkpt lat="31.097875" lon="-7.912829">
        <ele>2336.01979420625</ele>
        <time>2019-12-27T12:41:21.000Z</time>
      </trkpt>
      <trkpt lat="31.097894" lon="-7.912832">
        <ele>2337</ele>
        <time>2019-12-27T12:41:34.000Z</time>
      </trkpt>
      <trkpt lat="31.097891" lon="-7.912854">
        <ele>2337.39990234375</ele>
        <time>2019-12-27T12:41:44.000Z</time>
      </trkpt>
      <trkpt lat="31.097901" lon="-7.912882">
        <ele>2337.60009765625</ele>
        <time>2019-12-27T12:41:47.000Z</time>
      </trkpt>
      <trkpt lat="31.097914" lon="-7.912905">
        <ele>2337.60009765625</ele>
        <time>2019-12-27T12:41:50.000Z</time>
      </trkpt>
      <trkpt lat="31.097901" lon="-7.912925">
        <ele>2337.80004882813</ele>
        <time>2019-12-27T12:41:57.000Z</time>
      </trkpt>
      <trkpt lat="31.097898" lon="-7.912955">
        <ele>2338</ele>
        <time>2019-12-27T12:42:01.000Z</time>
      </trkpt>
      <trkpt lat="31.097901" lon="-7.912982">
        <ele>2338.01979420625</ele>
        <time>2019-12-27T12:42:05.000Z</time>
      </trkpt>
      <trkpt lat="31.097894" lon="-7.91301">
        <ele>2338.19995117188</ele>
        <time>2019-12-27T12:42:09.000Z</time>
      </trkpt>
      <trkpt lat="31.097907" lon="-7.913027">
        <ele>2338.21974537813</ele>
        <time>2019-12-27T12:42:11.000Z</time>
      </trkpt>
      <trkpt lat="31.097904" lon="-7.913055">
        <ele>2338.39990234375</ele>
        <time>2019-12-27T12:42:15.000Z</time>
      </trkpt>
      <trkpt lat="31.097894" lon="-7.913075">
        <ele>2338.60009765625</ele>
        <time>2019-12-27T12:42:18.000Z</time>
      </trkpt>
      <trkpt lat="31.097894" lon="-7.9131">
        <ele>2338.60009765625</ele>
        <time>2019-12-27T12:42:21.000Z</time>
      </trkpt>
      <trkpt lat="31.097898" lon="-7.913123">
        <ele>2338.80004882813</ele>
        <time>2019-12-27T12:42:23.000Z</time>
      </trkpt>
      <trkpt lat="31.097888" lon="-7.913146">
        <ele>2339</ele>
        <time>2019-12-27T12:42:28.000Z</time>
      </trkpt>
      <trkpt lat="31.097888" lon="-7.91317">
        <ele>2339.19995117188</ele>
        <time>2019-12-27T12:42:31.000Z</time>
      </trkpt>
      <trkpt lat="31.097866" lon="-7.913194">
        <ele>2339.21974537813</ele>
        <time>2019-12-27T12:42:34.000Z</time>
      </trkpt>
      <trkpt lat="31.097859" lon="-7.913166">
        <ele>2339.6198918625</ele>
        <time>2019-12-27T12:42:39.000Z</time>
      </trkpt>
      <trkpt lat="31.09784" lon="-7.913146">
        <ele>2340</ele>
        <time>2019-12-27T12:42:43.000Z</time>
      </trkpt>
      <trkpt lat="31.09784" lon="-7.913125">
        <ele>2340.21974537813</ele>
        <time>2019-12-27T12:42:46.000Z</time>
      </trkpt>
      <trkpt lat="31.097824" lon="-7.913102">
        <ele>2340.80004882813</ele>
        <time>2019-12-27T12:42:50.000Z</time>
      </trkpt>
      <trkpt lat="31.097805" lon="-7.913092">
        <ele>2341.19995117188</ele>
        <time>2019-12-27T12:42:53.000Z</time>
      </trkpt>
      <trkpt lat="31.097786" lon="-7.913083">
        <ele>2341.41972071875</ele>
        <time>2019-12-27T12:42:56.000Z</time>
      </trkpt>
      <trkpt lat="31.097773" lon="-7.913067">
        <ele>2341.81984303438</ele>
        <time>2019-12-27T12:42:59.000Z</time>
      </trkpt>
      <trkpt lat="31.09776" lon="-7.913048">
        <ele>2342.39990234375</ele>
        <time>2019-12-27T12:43:02.000Z</time>
      </trkpt>
      <trkpt lat="31.097741" lon="-7.913047">
        <ele>2342.6198918625</ele>
        <time>2019-12-27T12:43:04.000Z</time>
      </trkpt>
      <trkpt lat="31.097722" lon="-7.913042">
        <ele>2343.19995117188</ele>
        <time>2019-12-27T12:43:08.000Z</time>
      </trkpt>
      <trkpt lat="31.097718" lon="-7.913018">
        <ele>2343.41972071875</ele>
        <time>2019-12-27T12:43:11.000Z</time>
      </trkpt>
      <trkpt lat="31.097702" lon="-7.912998">
        <ele>2343.81984303438</ele>
        <time>2019-12-27T12:43:14.000Z</time>
      </trkpt>
      <trkpt lat="31.097686" lon="-7.912985">
        <ele>2344.21974537813</ele>
        <time>2019-12-27T12:43:17.000Z</time>
      </trkpt>
      <trkpt lat="31.09767" lon="-7.912965">
        <ele>2344.81984303438</ele>
        <time>2019-12-27T12:43:21.000Z</time>
      </trkpt>
      <trkpt lat="31.097651" lon="-7.912962">
        <ele>2345.01979420625</ele>
        <time>2019-12-27T12:43:23.000Z</time>
      </trkpt>
      <trkpt lat="31.097632" lon="-7.912982">
        <ele>2345.41972071875</ele>
        <time>2019-12-27T12:43:26.000Z</time>
      </trkpt>
      <trkpt lat="31.097638" lon="-7.913002">
        <ele>2346.01979420625</ele>
        <time>2019-12-27T12:43:30.000Z</time>
      </trkpt>
      <trkpt lat="31.097651" lon="-7.913028">
        <ele>2346.60009765625</ele>
        <time>2019-12-27T12:43:34.000Z</time>
      </trkpt>
      <trkpt lat="31.097658" lon="-7.913052">
        <ele>2347.21974537813</ele>
        <time>2019-12-27T12:43:39.000Z</time>
      </trkpt>
      <trkpt lat="31.097651" lon="-7.913072">
        <ele>2347.81984303438</ele>
        <time>2019-12-27T12:43:42.000Z</time>
      </trkpt>
      <trkpt lat="31.097632" lon="-7.91309">
        <ele>2348.19995117188</ele>
        <time>2019-12-27T12:43:45.000Z</time>
      </trkpt>
      <trkpt lat="31.097613" lon="-7.913083">
        <ele>2348.6198918625</ele>
        <time>2019-12-27T12:43:48.000Z</time>
      </trkpt>
      <trkpt lat="31.097587" lon="-7.913075">
        <ele>2349.01979420625</ele>
        <time>2019-12-27T12:43:51.000Z</time>
      </trkpt>
      <trkpt lat="31.097562" lon="-7.91306">
        <ele>2349.41972071875</ele>
        <time>2019-12-27T12:43:55.000Z</time>
      </trkpt>
      <trkpt lat="31.097542" lon="-7.913045">
        <ele>2349.81984303438</ele>
        <time>2019-12-27T12:43:58.000Z</time>
      </trkpt>
      <trkpt lat="31.09753" lon="-7.91307">
        <ele>2350.60009765625</ele>
        <time>2019-12-27T12:44:03.000Z</time>
      </trkpt>
      <trkpt lat="31.097533" lon="-7.913095">
        <ele>2350.81984303438</ele>
        <time>2019-12-27T12:44:06.000Z</time>
      </trkpt>
      <trkpt lat="31.097549" lon="-7.91311">
        <ele>2351.21974537813</ele>
        <time>2019-12-27T12:44:09.000Z</time>
      </trkpt>
      <trkpt lat="31.097565" lon="-7.913135">
        <ele>2351.6198918625</ele>
        <time>2019-12-27T12:44:12.000Z</time>
      </trkpt>
      <trkpt lat="31.097581" lon="-7.91315">
        <ele>2352</ele>
        <time>2019-12-27T12:44:14.000Z</time>
      </trkpt>
      <trkpt lat="31.097597" lon="-7.91317">
        <ele>2352.21974537813</ele>
        <time>2019-12-27T12:44:17.000Z</time>
      </trkpt>
      <trkpt lat="31.097603" lon="-7.913197">
        <ele>2352.6198918625</ele>
        <time>2019-12-27T12:44:20.000Z</time>
      </trkpt>
      <trkpt lat="31.097613" lon="-7.913215">
        <ele>2353.01979420625</ele>
        <time>2019-12-27T12:44:22.000Z</time>
      </trkpt>
      <trkpt lat="31.097619" lon="-7.91324">
        <ele>2353.41972071875</ele>
        <time>2019-12-27T12:44:25.000Z</time>
      </trkpt>
      <trkpt lat="31.097603" lon="-7.91325">
        <ele>2353.6198918625</ele>
        <time>2019-12-27T12:44:26.000Z</time>
      </trkpt>
      <trkpt lat="31.097584" lon="-7.913249">
        <ele>2353.81984303438</ele>
        <time>2019-12-27T12:44:28.000Z</time>
      </trkpt>
      <trkpt lat="31.097562" lon="-7.913234">
        <ele>2354.21974537813</ele>
        <time>2019-12-27T12:44:30.000Z</time>
      </trkpt>
      <trkpt lat="31.097542" lon="-7.913222">
        <ele>2354.6198918625</ele>
        <time>2019-12-27T12:44:32.000Z</time>
      </trkpt>
      <trkpt lat="31.09752" lon="-7.913214">
        <ele>2355.01979420625</ele>
        <time>2019-12-27T12:44:34.000Z</time>
      </trkpt>
      <trkpt lat="31.097501" lon="-7.913209">
        <ele>2355.21974537813</ele>
        <time>2019-12-27T12:44:36.000Z</time>
      </trkpt>
      <trkpt lat="31.097478" lon="-7.913209">
        <ele>2355.6198918625</ele>
        <time>2019-12-27T12:44:38.000Z</time>
      </trkpt>
      <trkpt lat="31.097453" lon="-7.913203">
        <ele>2356.01979420625</ele>
        <time>2019-12-27T12:44:41.000Z</time>
      </trkpt>
      <trkpt lat="31.09743" lon="-7.91319">
        <ele>2356.41972071875</ele>
        <time>2019-12-27T12:44:43.000Z</time>
      </trkpt>
      <trkpt lat="31.097414" lon="-7.913205">
        <ele>2356.63968606875</ele>
        <time>2019-12-27T12:44:45.000Z</time>
      </trkpt>
      <trkpt lat="31.097418" lon="-7.913229">
        <ele>2357.41972071875</ele>
        <time>2019-12-27T12:44:49.000Z</time>
      </trkpt>
      <trkpt lat="31.097434" lon="-7.913252">
        <ele>2357.81984303438</ele>
        <time>2019-12-27T12:44:52.000Z</time>
      </trkpt>
      <trkpt lat="31.09745" lon="-7.913266">
        <ele>2358.19995117188</ele>
        <time>2019-12-27T12:44:54.000Z</time>
      </trkpt>
      <trkpt lat="31.097466" lon="-7.91328">
        <ele>2358.41972071875</ele>
        <time>2019-12-27T12:44:56.000Z</time>
      </trkpt>
      <trkpt lat="31.097485" lon="-7.913288">
        <ele>2358.80004882813</ele>
        <time>2019-12-27T12:44:58.000Z</time>
      </trkpt>
      <trkpt lat="31.097501" lon="-7.913302">
        <ele>2359.01979420625</ele>
        <time>2019-12-27T12:45:00.000Z</time>
      </trkpt>
      <trkpt lat="31.097517" lon="-7.913314">
        <ele>2359.21974537813</ele>
        <time>2019-12-27T12:45:02.000Z</time>
      </trkpt>
      <trkpt lat="31.097536" lon="-7.913328">
        <ele>2359.60009765625</ele>
        <time>2019-12-27T12:45:04.000Z</time>
      </trkpt>
      <trkpt lat="31.097552" lon="-7.91334">
        <ele>2359.81984303438</ele>
        <time>2019-12-27T12:45:06.000Z</time>
      </trkpt>
      <trkpt lat="31.097571" lon="-7.913355">
        <ele>2360.01979420625</ele>
        <time>2019-12-27T12:45:08.000Z</time>
      </trkpt>
      <trkpt lat="31.097578" lon="-7.913383">
        <ele>2360.60009765625</ele>
        <time>2019-12-27T12:45:11.000Z</time>
      </trkpt>
      <trkpt lat="31.097562" lon="-7.913402">
        <ele>2361</ele>
        <time>2019-12-27T12:45:14.000Z</time>
      </trkpt>
      <trkpt lat="31.097539" lon="-7.913408">
        <ele>2361.21974537813</ele>
        <time>2019-12-27T12:45:16.000Z</time>
      </trkpt>
      <trkpt lat="31.09752" lon="-7.913403">
        <ele>2361.81984303438</ele>
        <time>2019-12-27T12:45:20.000Z</time>
      </trkpt>
      <trkpt lat="31.097498" lon="-7.913394">
        <ele>2362.21974537813</ele>
        <time>2019-12-27T12:45:23.000Z</time>
      </trkpt>
      <trkpt lat="31.097478" lon="-7.913385">
        <ele>2363.19995117188</ele>
        <time>2019-12-27T12:45:29.000Z</time>
      </trkpt>
      <trkpt lat="31.097459" lon="-7.913374">
        <ele>2363.60009765625</ele>
        <time>2019-12-27T12:45:32.000Z</time>
      </trkpt>
      <trkpt lat="31.09744" lon="-7.913374">
        <ele>2363.81984303438</ele>
        <time>2019-12-27T12:45:35.000Z</time>
      </trkpt>
      <trkpt lat="31.097421" lon="-7.913366">
        <ele>2364.21974537813</ele>
        <time>2019-12-27T12:45:38.000Z</time>
      </trkpt>
      <trkpt lat="31.097402" lon="-7.913348">
        <ele>2364.6198918625</ele>
        <time>2019-12-27T12:45:41.000Z</time>
      </trkpt>
      <trkpt lat="31.097379" lon="-7.91334">
        <ele>2365.01979420625</ele>
        <time>2019-12-27T12:45:44.000Z</time>
      </trkpt>
      <trkpt lat="31.097366" lon="-7.913358">
        <ele>2365.60009765625</ele>
        <time>2019-12-27T12:45:48.000Z</time>
      </trkpt>
      <trkpt lat="31.097379" lon="-7.913382">
        <ele>2366</ele>
        <time>2019-12-27T12:45:51.000Z</time>
      </trkpt>
      <trkpt lat="31.097392" lon="-7.913397">
        <ele>2366.41972071875</ele>
        <time>2019-12-27T12:45:54.000Z</time>
      </trkpt>
      <trkpt lat="31.097411" lon="-7.913418">
        <ele>2366.81984303438</ele>
        <time>2019-12-27T12:45:57.000Z</time>
      </trkpt>
      <trkpt lat="31.09743" lon="-7.913433">
        <ele>2367.39990234375</ele>
        <time>2019-12-27T12:46:01.000Z</time>
      </trkpt>
      <trkpt lat="31.097443" lon="-7.913457">
        <ele>2368.21974537813</ele>
        <time>2019-12-27T12:46:07.000Z</time>
      </trkpt>
      <trkpt lat="31.097459" lon="-7.913473">
        <ele>2368.6198918625</ele>
        <time>2019-12-27T12:46:09.000Z</time>
      </trkpt>
      <trkpt lat="31.097469" lon="-7.913502">
        <ele>2369.21974537813</ele>
        <time>2019-12-27T12:46:12.000Z</time>
      </trkpt>
      <trkpt lat="31.097459" lon="-7.913522">
        <ele>2369.81984303438</ele>
        <time>2019-12-27T12:46:15.000Z</time>
      </trkpt>
      <trkpt lat="31.09744" lon="-7.91352">
        <ele>2370.21974537813</ele>
        <time>2019-12-27T12:46:17.000Z</time>
      </trkpt>
      <trkpt lat="31.097421" lon="-7.91351">
        <ele>2370.6198918625</ele>
        <time>2019-12-27T12:46:19.000Z</time>
      </trkpt>
      <trkpt lat="31.097405" lon="-7.913498">
        <ele>2371.01979420625</ele>
        <time>2019-12-27T12:46:21.000Z</time>
      </trkpt>
      <trkpt lat="31.097386" lon="-7.913498">
        <ele>2371.39990234375</ele>
        <time>2019-12-27T12:46:23.000Z</time>
      </trkpt>
      <trkpt lat="31.09737" lon="-7.913488">
        <ele>2372</ele>
        <time>2019-12-27T12:46:27.000Z</time>
      </trkpt>
      <trkpt lat="31.09735" lon="-7.913473">
        <ele>2372.39990234375</ele>
        <time>2019-12-27T12:46:30.000Z</time>
      </trkpt>
      <trkpt lat="31.097325" lon="-7.913466">
        <ele>2372.80004882813</ele>
        <time>2019-12-27T12:46:33.000Z</time>
      </trkpt>
      <trkpt lat="31.097312" lon="-7.913448">
        <ele>2373.6198918625</ele>
        <time>2019-12-27T12:46:40.000Z</time>
      </trkpt>
      <trkpt lat="31.09729" lon="-7.913437">
        <ele>2374.01979420625</ele>
        <time>2019-12-27T12:46:43.000Z</time>
      </trkpt>
      <trkpt lat="31.097274" lon="-7.913423">
        <ele>2374.21974537813</ele>
        <time>2019-12-27T12:46:46.000Z</time>
      </trkpt>
      <trkpt lat="31.097264" lon="-7.913395">
        <ele>2374.60009765625</ele>
        <time>2019-12-27T12:46:49.000Z</time>
      </trkpt>
      <trkpt lat="31.097267" lon="-7.913365">
        <ele>2374.81984303438</ele>
        <time>2019-12-27T12:46:52.000Z</time>
      </trkpt>
      <trkpt lat="31.097264" lon="-7.91334">
        <ele>2375.19995117188</ele>
        <time>2019-12-27T12:46:55.000Z</time>
      </trkpt>
      <trkpt lat="31.097258" lon="-7.913311">
        <ele>2375.41972071875</ele>
        <time>2019-12-27T12:46:58.000Z</time>
      </trkpt>
      <trkpt lat="31.097245" lon="-7.913286">
        <ele>2375.80004882813</ele>
        <time>2019-12-27T12:47:01.000Z</time>
      </trkpt>
      <trkpt lat="31.097245" lon="-7.913257">
        <ele>2376</ele>
        <time>2019-12-27T12:47:04.000Z</time>
      </trkpt>
      <trkpt lat="31.097232" lon="-7.913237">
        <ele>2376.19995117188</ele>
        <time>2019-12-27T12:47:06.000Z</time>
      </trkpt>
      <trkpt lat="31.097219" lon="-7.91321">
        <ele>2376.60009765625</ele>
        <time>2019-12-27T12:47:09.000Z</time>
      </trkpt>
      <trkpt lat="31.097216" lon="-7.913189">
        <ele>2376.80004882813</ele>
        <time>2019-12-27T12:47:11.000Z</time>
      </trkpt>
      <trkpt lat="31.097213" lon="-7.913166">
        <ele>2377.01979420625</ele>
        <time>2019-12-27T12:47:13.000Z</time>
      </trkpt>
      <trkpt lat="31.09721" lon="-7.913145">
        <ele>2377.39990234375</ele>
        <time>2019-12-27T12:47:15.000Z</time>
      </trkpt>
      <trkpt lat="31.097203" lon="-7.913125">
        <ele>2377.60009765625</ele>
        <time>2019-12-27T12:47:17.000Z</time>
      </trkpt>
      <trkpt lat="31.09719" lon="-7.913097">
        <ele>2378.01979420625</ele>
        <time>2019-12-27T12:47:20.000Z</time>
      </trkpt>
      <trkpt lat="31.097174" lon="-7.913082">
        <ele>2378.39990234375</ele>
        <time>2019-12-27T12:47:22.000Z</time>
      </trkpt>
      <trkpt lat="31.097158" lon="-7.913094">
        <ele>2378.6198918625</ele>
        <time>2019-12-27T12:47:24.000Z</time>
      </trkpt>
      <trkpt lat="31.097162" lon="-7.913118">
        <ele>2379.01979420625</ele>
        <time>2019-12-27T12:47:27.000Z</time>
      </trkpt>
      <trkpt lat="31.097174" lon="-7.91314">
        <ele>2379.60009765625</ele>
        <time>2019-12-27T12:47:31.000Z</time>
      </trkpt>
      <trkpt lat="31.097181" lon="-7.913163">
        <ele>2380.01979420625</ele>
        <time>2019-12-27T12:47:35.000Z</time>
      </trkpt>
      <trkpt lat="31.097165" lon="-7.913175">
        <ele>2380.39990234375</ele>
        <time>2019-12-27T12:47:37.000Z</time>
      </trkpt>
      <trkpt lat="31.097142" lon="-7.913182">
        <ele>2380.80004882813</ele>
        <time>2019-12-27T12:47:40.000Z</time>
      </trkpt>
      <trkpt lat="31.09713" lon="-7.913165">
        <ele>2381.21974537813</ele>
        <time>2019-12-27T12:47:44.000Z</time>
      </trkpt>
      <trkpt lat="31.097117" lon="-7.91314">
        <ele>2381.81984303438</ele>
        <time>2019-12-27T12:47:49.000Z</time>
      </trkpt>
      <trkpt lat="31.097104" lon="-7.913122">
        <ele>2382.21974537813</ele>
        <time>2019-12-27T12:47:52.000Z</time>
      </trkpt>
      <trkpt lat="31.097091" lon="-7.913097">
        <ele>2382.80004882813</ele>
        <time>2019-12-27T12:47:56.000Z</time>
      </trkpt>
      <trkpt lat="31.097075" lon="-7.913082">
        <ele>2383</ele>
        <time>2019-12-27T12:47:58.000Z</time>
      </trkpt>
      <trkpt lat="31.097053" lon="-7.91307">
        <ele>2383.21974537813</ele>
        <time>2019-12-27T12:48:01.000Z</time>
      </trkpt>
      <trkpt lat="31.097034" lon="-7.913063">
        <ele>2383.41972071875</ele>
        <time>2019-12-27T12:48:03.000Z</time>
      </trkpt>
      <trkpt lat="31.097018" lon="-7.913083">
        <ele>2383.80004882813</ele>
        <time>2019-12-27T12:48:06.000Z</time>
      </trkpt>
      <trkpt lat="31.09703" lon="-7.9131">
        <ele>2384.19995117188</ele>
        <time>2019-12-27T12:48:10.000Z</time>
      </trkpt>
      <trkpt lat="31.097043" lon="-7.913117">
        <ele>2384.39990234375</ele>
        <time>2019-12-27T12:48:13.000Z</time>
      </trkpt>
      <trkpt lat="31.097053" lon="-7.913135">
        <ele>2384.6198918625</ele>
        <time>2019-12-27T12:48:16.000Z</time>
      </trkpt>
      <trkpt lat="31.097059" lon="-7.913163">
        <ele>2385.21974537813</ele>
        <time>2019-12-27T12:48:22.000Z</time>
      </trkpt>
      <trkpt lat="31.097075" lon="-7.913175">
        <ele>2385.6198918625</ele>
        <time>2019-12-27T12:48:26.000Z</time>
      </trkpt>
      <trkpt lat="31.097091" lon="-7.913189">
        <ele>2386.01979420625</ele>
        <time>2019-12-27T12:48:29.000Z</time>
      </trkpt>
      <trkpt lat="31.097104" lon="-7.913205">
        <ele>2386.41972071875</ele>
        <time>2019-12-27T12:48:32.000Z</time>
      </trkpt>
      <trkpt lat="31.09711" lon="-7.913226">
        <ele>2387.01979420625</ele>
        <time>2019-12-27T12:48:37.000Z</time>
      </trkpt>
      <trkpt lat="31.097088" lon="-7.913234">
        <ele>2387.39990234375</ele>
        <time>2019-12-27T12:48:39.000Z</time>
      </trkpt>
      <trkpt lat="31.097066" lon="-7.91323">
        <ele>2387.80004882813</ele>
        <time>2019-12-27T12:48:42.000Z</time>
      </trkpt>
      <trkpt lat="31.097046" lon="-7.913218">
        <ele>2388.01979420625</ele>
        <time>2019-12-27T12:48:44.000Z</time>
      </trkpt>
      <trkpt lat="31.097027" lon="-7.913202">
        <ele>2388.39990234375</ele>
        <time>2019-12-27T12:48:47.000Z</time>
      </trkpt>
      <trkpt lat="31.097014" lon="-7.913185">
        <ele>2388.6198918625</ele>
        <time>2019-12-27T12:48:49.000Z</time>
      </trkpt>
      <trkpt lat="31.096992" lon="-7.913165">
        <ele>2389.01979420625</ele>
        <time>2019-12-27T12:48:52.000Z</time>
      </trkpt>
      <trkpt lat="31.09697" lon="-7.913158">
        <ele>2389.39990234375</ele>
        <time>2019-12-27T12:48:55.000Z</time>
      </trkpt>
      <trkpt lat="31.09696" lon="-7.91314">
        <ele>2389.6198918625</ele>
        <time>2019-12-27T12:48:58.000Z</time>
      </trkpt>
      <trkpt lat="31.096954" lon="-7.913117">
        <ele>2390.19995117188</ele>
        <time>2019-12-27T12:49:02.000Z</time>
      </trkpt>
      <trkpt lat="31.096938" lon="-7.913107">
        <ele>2390.39990234375</ele>
        <time>2019-12-27T12:49:04.000Z</time>
      </trkpt>
      <trkpt lat="31.096922" lon="-7.913094">
        <ele>2390.6198918625</ele>
        <time>2019-12-27T12:49:07.000Z</time>
      </trkpt>
      <trkpt lat="31.096902" lon="-7.913088">
        <ele>2391.01979420625</ele>
        <time>2019-12-27T12:49:10.000Z</time>
      </trkpt>
      <trkpt lat="31.096886" lon="-7.9131">
        <ele>2391.41972071875</ele>
        <time>2019-12-27T12:49:14.000Z</time>
      </trkpt>
      <trkpt lat="31.09689" lon="-7.913123">
        <ele>2392.01979420625</ele>
        <time>2019-12-27T12:49:19.000Z</time>
      </trkpt>
      <trkpt lat="31.096867" lon="-7.913126">
        <ele>2392.41972071875</ele>
        <time>2019-12-27T12:49:22.000Z</time>
      </trkpt>
      <trkpt lat="31.096848" lon="-7.913122">
        <ele>2392.81984303438</ele>
        <time>2019-12-27T12:49:25.000Z</time>
      </trkpt>
      <trkpt lat="31.096848" lon="-7.913097">
        <ele>2393.39990234375</ele>
        <time>2019-12-27T12:49:29.000Z</time>
      </trkpt>
      <trkpt lat="31.096832" lon="-7.913075">
        <ele>2393.6198918625</ele>
        <time>2019-12-27T12:49:32.000Z</time>
      </trkpt>
      <trkpt lat="31.096816" lon="-7.913058">
        <ele>2394</ele>
        <time>2019-12-27T12:49:34.000Z</time>
      </trkpt>
      <trkpt lat="31.096797" lon="-7.913048">
        <ele>2394.19995117188</ele>
        <time>2019-12-27T12:49:36.000Z</time>
      </trkpt>
      <trkpt lat="31.096778" lon="-7.913042">
        <ele>2394.41972071875</ele>
        <time>2019-12-27T12:49:39.000Z</time>
      </trkpt>
      <trkpt lat="31.096755" lon="-7.913037">
        <ele>2394.80004882813</ele>
        <time>2019-12-27T12:49:42.000Z</time>
      </trkpt>
      <trkpt lat="31.096736" lon="-7.91303">
        <ele>2395.19995117188</ele>
        <time>2019-12-27T12:49:45.000Z</time>
      </trkpt>
      <trkpt lat="31.096707" lon="-7.91304">
        <ele>2395.41972071875</ele>
        <time>2019-12-27T12:49:48.000Z</time>
      </trkpt>
      <trkpt lat="31.096685" lon="-7.913038">
        <ele>2395.6198918625</ele>
        <time>2019-12-27T12:49:50.000Z</time>
      </trkpt>
      <trkpt lat="31.096659" lon="-7.913034">
        <ele>2396.01979420625</ele>
        <time>2019-12-27T12:49:53.000Z</time>
      </trkpt>
      <trkpt lat="31.09664" lon="-7.913011">
        <ele>2396.60009765625</ele>
        <time>2019-12-27T12:49:57.000Z</time>
      </trkpt>
      <trkpt lat="31.096624" lon="-7.913">
        <ele>2397.19995117188</ele>
        <time>2019-12-27T12:50:01.000Z</time>
      </trkpt>
      <trkpt lat="31.096598" lon="-7.912995">
        <ele>2397.6198918625</ele>
        <time>2019-12-27T12:50:05.000Z</time>
      </trkpt>
      <trkpt lat="31.096573" lon="-7.913002">
        <ele>2398.41972071875</ele>
        <time>2019-12-27T12:50:09.000Z</time>
      </trkpt>
      <trkpt lat="31.09655" lon="-7.913002">
        <ele>2398.81984303438</ele>
        <time>2019-12-27T12:50:12.000Z</time>
      </trkpt>
      <trkpt lat="31.096534" lon="-7.913015">
        <ele>2400.01979420625</ele>
        <time>2019-12-27T12:50:18.000Z</time>
      </trkpt>
      <trkpt lat="31.096518" lon="-7.913028">
        <ele>2401.01979420625</ele>
        <time>2019-12-27T12:50:23.000Z</time>
      </trkpt>
      <trkpt lat="31.096496" lon="-7.913037">
        <ele>2401.41972071875</ele>
        <time>2019-12-27T12:50:26.000Z</time>
      </trkpt>
      <trkpt lat="31.09649" lon="-7.913062">
        <ele>2402.01979420625</ele>
        <time>2019-12-27T12:50:30.000Z</time>
      </trkpt>
      <trkpt lat="31.096509" lon="-7.913074">
        <ele>2402.80004882813</ele>
        <time>2019-12-27T12:50:34.000Z</time>
      </trkpt>
      <trkpt lat="31.096528" lon="-7.913083">
        <ele>2403.19995117188</ele>
        <time>2019-12-27T12:50:37.000Z</time>
      </trkpt>
      <trkpt lat="31.096544" lon="-7.913094">
        <ele>2403.60009765625</ele>
        <time>2019-12-27T12:50:40.000Z</time>
      </trkpt>
      <trkpt lat="31.096566" lon="-7.913102">
        <ele>2404</ele>
        <time>2019-12-27T12:50:43.000Z</time>
      </trkpt>
      <trkpt lat="31.096589" lon="-7.91311">
        <ele>2404.39990234375</ele>
        <time>2019-12-27T12:50:46.000Z</time>
      </trkpt>
      <trkpt lat="31.096614" lon="-7.91312">
        <ele>2404.6198918625</ele>
        <time>2019-12-27T12:50:49.000Z</time>
      </trkpt>
      <trkpt lat="31.096627" lon="-7.913135">
        <ele>2405.19995117188</ele>
        <time>2019-12-27T12:50:52.000Z</time>
      </trkpt>
      <trkpt lat="31.09664" lon="-7.913157">
        <ele>2406.41972071875</ele>
        <time>2019-12-27T12:51:00.000Z</time>
      </trkpt>
      <trkpt lat="31.096656" lon="-7.913166">
        <ele>2406.81984303438</ele>
        <time>2019-12-27T12:51:03.000Z</time>
      </trkpt>
      <trkpt lat="31.096669" lon="-7.913189">
        <ele>2407.39990234375</ele>
        <time>2019-12-27T12:51:06.000Z</time>
      </trkpt>
      <trkpt lat="31.096678" lon="-7.913209">
        <ele>2407.81984303438</ele>
        <time>2019-12-27T12:51:09.000Z</time>
      </trkpt>
      <trkpt lat="31.096698" lon="-7.913217">
        <ele>2408.19995117188</ele>
        <time>2019-12-27T12:51:11.000Z</time>
      </trkpt>
      <trkpt lat="31.096675" lon="-7.913223">
        <ele>2409</ele>
        <time>2019-12-27T12:51:16.000Z</time>
      </trkpt>
      <trkpt lat="31.096653" lon="-7.913222">
        <ele>2409.41972071875</ele>
        <time>2019-12-27T12:51:19.000Z</time>
      </trkpt>
      <trkpt lat="31.096621" lon="-7.913229">
        <ele>2410.01979420625</ele>
        <time>2019-12-27T12:51:23.000Z</time>
      </trkpt>
      <trkpt lat="31.096595" lon="-7.913232">
        <ele>2410.41972071875</ele>
        <time>2019-12-27T12:51:26.000Z</time>
      </trkpt>
      <trkpt lat="31.096576" lon="-7.913237">
        <ele>2411</ele>
        <time>2019-12-27T12:51:30.000Z</time>
      </trkpt>
      <trkpt lat="31.096557" lon="-7.913242">
        <ele>2411.21902301845</ele>
        <time>2019-12-27T12:51:33.000Z</time>
      </trkpt>
      <trkpt lat="31.096534" lon="-7.913254">
        <ele>2411.6198918625</ele>
        <time>2019-12-27T12:51:36.000Z</time>
      </trkpt>
      <trkpt lat="31.096518" lon="-7.913268">
        <ele>2412.01979420625</ele>
        <time>2019-12-27T12:51:41.000Z</time>
      </trkpt>
      <trkpt lat="31.096499" lon="-7.913274">
        <ele>2412.39990234375</ele>
        <time>2019-12-27T12:51:44.000Z</time>
      </trkpt>
      <trkpt lat="31.096477" lon="-7.913278">
        <ele>2412.41972071875</ele>
        <time>2019-12-27T12:51:47.000Z</time>
      </trkpt>
      <trkpt lat="31.096451" lon="-7.91328">
        <ele>2412.6198918625</ele>
        <time>2019-12-27T12:51:50.000Z</time>
      </trkpt>
      <trkpt lat="31.096438" lon="-7.9133">
        <ele>2412.80004882813</ele>
        <time>2019-12-27T12:51:53.000Z</time>
      </trkpt>
      <trkpt lat="31.096419" lon="-7.913308">
        <ele>2412.81984303438</ele>
        <time>2019-12-27T12:51:55.000Z</time>
      </trkpt>
      <trkpt lat="31.0964" lon="-7.913318">
        <ele>2413</ele>
        <time>2019-12-27T12:51:59.000Z</time>
      </trkpt>
      <trkpt lat="31.096381" lon="-7.913326">
        <ele>2413.01979420625</ele>
        <time>2019-12-27T12:52:03.000Z</time>
      </trkpt>
      <trkpt lat="31.096358" lon="-7.913343">
        <ele>2413.19995117188</ele>
        <time>2019-12-27T12:52:06.000Z</time>
      </trkpt>
      <trkpt lat="31.096339" lon="-7.913355">
        <ele>2413.19995117188</ele>
        <time>2019-12-27T12:52:09.000Z</time>
      </trkpt>
      <trkpt lat="31.09632" lon="-7.913363">
        <ele>2413.39990234375</ele>
        <time>2019-12-27T12:52:12.000Z</time>
      </trkpt>
      <trkpt lat="31.096301" lon="-7.913375">
        <ele>2413.39990234375</ele>
        <time>2019-12-27T12:52:15.000Z</time>
      </trkpt>
      <trkpt lat="31.096278" lon="-7.913385">
        <ele>2413.60009765625</ele>
        <time>2019-12-27T12:52:17.000Z</time>
      </trkpt>
      <trkpt lat="31.096262" lon="-7.913395">
        <ele>2413.60009765625</ele>
        <time>2019-12-27T12:52:19.000Z</time>
      </trkpt>
      <trkpt lat="31.096243" lon="-7.913397">
        <ele>2413.80004882813</ele>
        <time>2019-12-27T12:52:21.000Z</time>
      </trkpt>
      <trkpt lat="31.096218" lon="-7.913408">
        <ele>2413.81984303438</ele>
        <time>2019-12-27T12:52:24.000Z</time>
      </trkpt>
      <trkpt lat="31.096202" lon="-7.913422">
        <ele>2414</ele>
        <time>2019-12-27T12:52:26.000Z</time>
      </trkpt>
      <trkpt lat="31.096179" lon="-7.913438">
        <ele>2414.19995117188</ele>
        <time>2019-12-27T12:52:29.000Z</time>
      </trkpt>
      <trkpt lat="31.09616" lon="-7.913453">
        <ele>2414.21974537813</ele>
        <time>2019-12-27T12:52:32.000Z</time>
      </trkpt>
      <trkpt lat="31.096144" lon="-7.913463">
        <ele>2414.39990234375</ele>
        <time>2019-12-27T12:52:34.000Z</time>
      </trkpt>
      <trkpt lat="31.096122" lon="-7.91347">
        <ele>2414.41972071875</ele>
        <time>2019-12-27T12:52:36.000Z</time>
      </trkpt>
      <trkpt lat="31.096102" lon="-7.913477">
        <ele>2414.60009765625</ele>
        <time>2019-12-27T12:52:38.000Z</time>
      </trkpt>
      <trkpt lat="31.096083" lon="-7.913485">
        <ele>2414.60009765625</ele>
        <time>2019-12-27T12:52:40.000Z</time>
      </trkpt>
      <trkpt lat="31.096061" lon="-7.913495">
        <ele>2414.80004882813</ele>
        <time>2019-12-27T12:52:43.000Z</time>
      </trkpt>
      <trkpt lat="31.096042" lon="-7.91351">
        <ele>2414.80004882813</ele>
        <time>2019-12-27T12:52:46.000Z</time>
      </trkpt>
      <trkpt lat="31.096019" lon="-7.913525">
        <ele>2414.80004882813</ele>
        <time>2019-12-27T12:52:49.000Z</time>
      </trkpt>
      <trkpt lat="31.096" lon="-7.913537">
        <ele>2414.80004882813</ele>
        <time>2019-12-27T12:52:52.000Z</time>
      </trkpt>
      <trkpt lat="31.095981" lon="-7.913546">
        <ele>2414.78025462188</ele>
        <time>2019-12-27T12:52:54.000Z</time>
      </trkpt>
      <trkpt lat="31.095962" lon="-7.913563">
        <ele>2414.60009765625</ele>
        <time>2019-12-27T12:52:56.000Z</time>
      </trkpt>
      <trkpt lat="31.095939" lon="-7.913577">
        <ele>2414.58027928125</ele>
        <time>2019-12-27T12:52:58.000Z</time>
      </trkpt>
      <trkpt lat="31.09592" lon="-7.913595">
        <ele>2414.3801081375</ele>
        <time>2019-12-27T12:53:01.000Z</time>
      </trkpt>
      <trkpt lat="31.095898" lon="-7.913609">
        <ele>2414</ele>
        <time>2019-12-27T12:53:05.000Z</time>
      </trkpt>
      <trkpt lat="31.095875" lon="-7.913603">
        <ele>2413.78025462188</ele>
        <time>2019-12-27T12:53:09.000Z</time>
      </trkpt>
      <trkpt lat="31.095853" lon="-7.913605">
        <ele>2413.39990234375</ele>
        <time>2019-12-27T12:53:12.000Z</time>
      </trkpt>
      <trkpt lat="31.095837" lon="-7.913615">
        <ele>2413.18015696563</ele>
        <time>2019-12-27T12:53:17.000Z</time>
      </trkpt>
      <trkpt lat="31.095814" lon="-7.913614">
        <ele>2412.98020579375</ele>
        <time>2019-12-27T12:53:21.000Z</time>
      </trkpt>
      <trkpt lat="31.095792" lon="-7.913626">
        <ele>2412.80004882813</ele>
        <time>2019-12-27T12:53:24.000Z</time>
      </trkpt>
      <trkpt lat="31.095776" lon="-7.913638">
        <ele>2412.80004882813</ele>
        <time>2019-12-27T12:53:26.000Z</time>
      </trkpt>
      <trkpt lat="31.095754" lon="-7.913646">
        <ele>2412.80004882813</ele>
        <time>2019-12-27T12:53:28.000Z</time>
      </trkpt>
      <trkpt lat="31.095734" lon="-7.913662">
        <ele>2412.81984303438</ele>
        <time>2019-12-27T12:53:31.000Z</time>
      </trkpt>
      <trkpt lat="31.095712" lon="-7.913675">
        <ele>2413</ele>
        <time>2019-12-27T12:53:34.000Z</time>
      </trkpt>
      <trkpt lat="31.095696" lon="-7.913695">
        <ele>2413.19995117188</ele>
        <time>2019-12-27T12:53:36.000Z</time>
      </trkpt>
      <trkpt lat="31.095683" lon="-7.91371">
        <ele>2413.19995117188</ele>
        <time>2019-12-27T12:53:38.000Z</time>
      </trkpt>
      <trkpt lat="31.095667" lon="-7.913734">
        <ele>2413.41972071875</ele>
        <time>2019-12-27T12:53:41.000Z</time>
      </trkpt>
      <trkpt lat="31.095664" lon="-7.913757">
        <ele>2413.6198918625</ele>
        <time>2019-12-27T12:53:44.000Z</time>
      </trkpt>
      <trkpt lat="31.095654" lon="-7.913787">
        <ele>2413.80004882813</ele>
        <time>2019-12-27T12:53:47.000Z</time>
      </trkpt>
      <trkpt lat="31.095642" lon="-7.913805">
        <ele>2414</ele>
        <time>2019-12-27T12:53:50.000Z</time>
      </trkpt>
      <trkpt lat="31.095622" lon="-7.913808">
        <ele>2414.19995117188</ele>
        <time>2019-12-27T12:53:54.000Z</time>
      </trkpt>
      <trkpt lat="31.095606" lon="-7.913818">
        <ele>2414.39990234375</ele>
        <time>2019-12-27T12:53:56.000Z</time>
      </trkpt>
      <trkpt lat="31.095587" lon="-7.913826">
        <ele>2414.39990234375</ele>
        <time>2019-12-27T12:54:00.000Z</time>
      </trkpt>
      <trkpt lat="31.095571" lon="-7.913838">
        <ele>2414.60009765625</ele>
        <time>2019-12-27T12:54:05.000Z</time>
      </trkpt>
      <trkpt lat="31.095584" lon="-7.913855">
        <ele>2414.81984303438</ele>
        <time>2019-12-27T12:54:11.000Z</time>
      </trkpt>
      <trkpt lat="31.095581" lon="-7.913877">
        <ele>2415.39990234375</ele>
        <time>2019-12-27T12:54:16.000Z</time>
      </trkpt>
      <trkpt lat="31.095565" lon="-7.913894">
        <ele>2415.6198918625</ele>
        <time>2019-12-27T12:54:19.000Z</time>
      </trkpt>
      <trkpt lat="31.095542" lon="-7.91391">
        <ele>2416.21974537813</ele>
        <time>2019-12-27T12:54:23.000Z</time>
      </trkpt>
      <trkpt lat="31.09552" lon="-7.91392">
        <ele>2417.01979420625</ele>
        <time>2019-12-27T12:54:27.000Z</time>
      </trkpt>
      <trkpt lat="31.095504" lon="-7.91393">
        <ele>2417.439514925</ele>
        <time>2019-12-27T12:54:29.000Z</time>
      </trkpt>
      <trkpt lat="31.095485" lon="-7.913937">
        <ele>2418.21974537813</ele>
        <time>2019-12-27T12:54:32.000Z</time>
      </trkpt>
      <trkpt lat="31.095459" lon="-7.913937">
        <ele>2418.6198918625</ele>
        <time>2019-12-27T12:54:34.000Z</time>
      </trkpt>
      <trkpt lat="31.095434" lon="-7.913943">
        <ele>2419.01979420625</ele>
        <time>2019-12-27T12:54:36.000Z</time>
      </trkpt>
      <trkpt lat="31.095405" lon="-7.913954">
        <ele>2419.81984303438</ele>
        <time>2019-12-27T12:54:39.000Z</time>
      </trkpt>
      <trkpt lat="31.095379" lon="-7.913962">
        <ele>2420.41972071875</ele>
        <time>2019-12-27T12:54:41.000Z</time>
      </trkpt>
      <trkpt lat="31.095366" lon="-7.913977">
        <ele>2420.81984303438</ele>
        <time>2019-12-27T12:54:43.000Z</time>
      </trkpt>
      <trkpt lat="31.095347" lon="-7.913972">
        <ele>2421.21974537813</ele>
        <time>2019-12-27T12:54:45.000Z</time>
      </trkpt>
      <trkpt lat="31.095328" lon="-7.913974">
        <ele>2421.81984303438</ele>
        <time>2019-12-27T12:54:48.000Z</time>
      </trkpt>
      <trkpt lat="31.095306" lon="-7.913974">
        <ele>2423.01979420625</ele>
        <time>2019-12-27T12:54:54.000Z</time>
      </trkpt>
      <trkpt lat="31.095286" lon="-7.913974">
        <ele>2423.41972071875</ele>
        <time>2019-12-27T12:54:56.000Z</time>
      </trkpt>
      <trkpt lat="31.095261" lon="-7.913974">
        <ele>2423.6198918625</ele>
        <time>2019-12-27T12:54:58.000Z</time>
      </trkpt>
      <trkpt lat="31.095242" lon="-7.913966">
        <ele>2424.01979420625</ele>
        <time>2019-12-27T12:55:01.000Z</time>
      </trkpt>
      <trkpt lat="31.095216" lon="-7.91398">
        <ele>2424.39990234375</ele>
        <time>2019-12-27T12:55:04.000Z</time>
      </trkpt>
      <trkpt lat="31.0952" lon="-7.91399">
        <ele>2424.60009765625</ele>
        <time>2019-12-27T12:55:07.000Z</time>
      </trkpt>
      <trkpt lat="31.095174" lon="-7.914002">
        <ele>2424.80004882813</ele>
        <time>2019-12-27T12:55:10.000Z</time>
      </trkpt>
      <trkpt lat="31.095152" lon="-7.914011">
        <ele>2425</ele>
        <time>2019-12-27T12:55:13.000Z</time>
      </trkpt>
      <trkpt lat="31.095133" lon="-7.914023">
        <ele>2425.19995117188</ele>
        <time>2019-12-27T12:55:16.000Z</time>
      </trkpt>
      <trkpt lat="31.09511" lon="-7.914023">
        <ele>2425.19995117188</ele>
        <time>2019-12-27T12:55:19.000Z</time>
      </trkpt>
      <trkpt lat="31.095091" lon="-7.914025">
        <ele>2425.21974537813</ele>
        <time>2019-12-27T12:55:21.000Z</time>
      </trkpt>
      <trkpt lat="31.095069" lon="-7.914026">
        <ele>2425.39990234375</ele>
        <time>2019-12-27T12:55:23.000Z</time>
      </trkpt>
      <trkpt lat="31.095056" lon="-7.914045">
        <ele>2425.39990234375</ele>
        <time>2019-12-27T12:55:27.000Z</time>
      </trkpt>
      <trkpt lat="31.09505" lon="-7.914068">
        <ele>2425.39990234375</ele>
        <time>2019-12-27T12:55:31.000Z</time>
      </trkpt>
      <trkpt lat="31.09503" lon="-7.914082">
        <ele>2425.39990234375</ele>
        <time>2019-12-27T12:55:34.000Z</time>
      </trkpt>
      <trkpt lat="31.095008" lon="-7.914083">
        <ele>2425.60009765625</ele>
        <time>2019-12-27T12:55:39.000Z</time>
      </trkpt>
      <trkpt lat="31.094989" lon="-7.914098">
        <ele>2425.60009765625</ele>
        <time>2019-12-27T12:55:42.000Z</time>
      </trkpt>
      <trkpt lat="31.09497" lon="-7.91411">
        <ele>2425.80004882813</ele>
        <time>2019-12-27T12:55:44.000Z</time>
      </trkpt>
      <trkpt lat="31.09495" lon="-7.914123">
        <ele>2425.81984303438</ele>
        <time>2019-12-27T12:55:47.000Z</time>
      </trkpt>
      <trkpt lat="31.094931" lon="-7.914142">
        <ele>2426</ele>
        <time>2019-12-27T12:55:50.000Z</time>
      </trkpt>
      <trkpt lat="31.094912" lon="-7.914143">
        <ele>2426.39990234375</ele>
        <time>2019-12-27T12:55:55.000Z</time>
      </trkpt>
      <trkpt lat="31.094893" lon="-7.91415">
        <ele>2426.60009765625</ele>
        <time>2019-12-27T12:55:58.000Z</time>
      </trkpt>
      <trkpt lat="31.09487" lon="-7.914148">
        <ele>2427.41972071875</ele>
        <time>2019-12-27T12:56:07.000Z</time>
      </trkpt>
      <trkpt lat="31.094848" lon="-7.91414">
        <ele>2428.6198918625</ele>
        <time>2019-12-27T12:56:14.000Z</time>
      </trkpt>
      <trkpt lat="31.094829" lon="-7.914133">
        <ele>2429.21974537813</ele>
        <time>2019-12-27T12:56:17.000Z</time>
      </trkpt>
      <trkpt lat="31.09481" lon="-7.914137">
        <ele>2429.63968606875</ele>
        <time>2019-12-27T12:56:19.000Z</time>
      </trkpt>
      <trkpt lat="31.094781" lon="-7.914128">
        <ele>2430.21974537813</ele>
        <time>2019-12-27T12:56:21.000Z</time>
      </trkpt>
      <trkpt lat="31.094755" lon="-7.914123">
        <ele>2430.6198918625</ele>
        <time>2019-12-27T12:56:23.000Z</time>
      </trkpt>
      <trkpt lat="31.094733" lon="-7.914123">
        <ele>2431.21974537813</ele>
        <time>2019-12-27T12:56:25.000Z</time>
      </trkpt>
      <trkpt lat="31.09471" lon="-7.914128">
        <ele>2431.81984303438</ele>
        <time>2019-12-27T12:56:28.000Z</time>
      </trkpt>
      <trkpt lat="31.094691" lon="-7.91414">
        <ele>2432.81984303438</ele>
        <time>2019-12-27T12:56:32.000Z</time>
      </trkpt>
      <trkpt lat="31.094678" lon="-7.914162">
        <ele>2433.81984303438</ele>
        <time>2019-12-27T12:56:36.000Z</time>
      </trkpt>
      <trkpt lat="31.094659" lon="-7.914168">
        <ele>2434.439514925</ele>
        <time>2019-12-27T12:56:39.000Z</time>
      </trkpt>
      <trkpt lat="31.094643" lon="-7.914182">
        <ele>2435.81984303438</ele>
        <time>2019-12-27T12:56:46.000Z</time>
      </trkpt>
      <trkpt lat="31.094624" lon="-7.914193">
        <ele>2436.41972071875</ele>
        <time>2019-12-27T12:56:50.000Z</time>
      </trkpt>
      <trkpt lat="31.094608" lon="-7.914178">
        <ele>2437.21974537813</ele>
        <time>2019-12-27T12:56:57.000Z</time>
      </trkpt>
      <trkpt lat="31.094589" lon="-7.914175">
        <ele>2437.81984303438</ele>
        <time>2019-12-27T12:57:01.000Z</time>
      </trkpt>
      <trkpt lat="31.09457" lon="-7.914173">
        <ele>2438.01979420625</ele>
        <time>2019-12-27T12:57:03.000Z</time>
      </trkpt>
      <trkpt lat="31.09455" lon="-7.914175">
        <ele>2438.21974537813</ele>
        <time>2019-12-27T12:57:05.000Z</time>
      </trkpt>
      <trkpt lat="31.094528" lon="-7.914173">
        <ele>2438.60009765625</ele>
        <time>2019-12-27T12:57:07.000Z</time>
      </trkpt>
      <trkpt lat="31.094509" lon="-7.914166">
        <ele>2438.81984303438</ele>
        <time>2019-12-27T12:57:09.000Z</time>
      </trkpt>
      <trkpt lat="31.094483" lon="-7.914166">
        <ele>2439.21974537813</ele>
        <time>2019-12-27T12:57:12.000Z</time>
      </trkpt>
      <trkpt lat="31.094461" lon="-7.914177">
        <ele>2439.80004882813</ele>
        <time>2019-12-27T12:57:16.000Z</time>
      </trkpt>
      <trkpt lat="31.094442" lon="-7.91418">
        <ele>2440.60009765625</ele>
        <time>2019-12-27T12:57:22.000Z</time>
      </trkpt>
      <trkpt lat="31.094422" lon="-7.914175">
        <ele>2440.81984303438</ele>
        <time>2019-12-27T12:57:25.000Z</time>
      </trkpt>
      <trkpt lat="31.094406" lon="-7.914185">
        <ele>2441.60009765625</ele>
        <time>2019-12-27T12:57:31.000Z</time>
      </trkpt>
      <trkpt lat="31.094384" lon="-7.914193">
        <ele>2442.21974537813</ele>
        <time>2019-12-27T12:57:36.000Z</time>
      </trkpt>
      <trkpt lat="31.094365" lon="-7.914205">
        <ele>2443.21974537813</ele>
        <time>2019-12-27T12:57:43.000Z</time>
      </trkpt>
      <trkpt lat="31.094342" lon="-7.914203">
        <ele>2443.81984303438</ele>
        <time>2019-12-27T12:57:47.000Z</time>
      </trkpt>
      <trkpt lat="31.094323" lon="-7.914203">
        <ele>2444.21974537813</ele>
        <time>2019-12-27T12:57:50.000Z</time>
      </trkpt>
      <trkpt lat="31.094301" lon="-7.914198">
        <ele>2444.81984303438</ele>
        <time>2019-12-27T12:57:54.000Z</time>
      </trkpt>
      <trkpt lat="31.094282" lon="-7.914195">
        <ele>2445.41972071875</ele>
        <time>2019-12-27T12:57:58.000Z</time>
      </trkpt>
      <trkpt lat="31.094262" lon="-7.914203">
        <ele>2445.81984303438</ele>
        <time>2019-12-27T12:58:01.000Z</time>
      </trkpt>
      <trkpt lat="31.094237" lon="-7.9142">
        <ele>2446.41972071875</ele>
        <time>2019-12-27T12:58:04.000Z</time>
      </trkpt>
      <trkpt lat="31.094214" lon="-7.914198">
        <ele>2446.81984303438</ele>
        <time>2019-12-27T12:58:07.000Z</time>
      </trkpt>
      <trkpt lat="31.094192" lon="-7.914205">
        <ele>2447.41972071875</ele>
        <time>2019-12-27T12:58:13.000Z</time>
      </trkpt>
      <trkpt lat="31.094166" lon="-7.914198">
        <ele>2447.80004882813</ele>
        <time>2019-12-27T12:58:16.000Z</time>
      </trkpt>
      <trkpt lat="31.094147" lon="-7.91419">
        <ele>2448.19995117188</ele>
        <time>2019-12-27T12:58:21.000Z</time>
      </trkpt>
      <trkpt lat="31.094128" lon="-7.914182">
        <ele>2448.39990234375</ele>
        <time>2019-12-27T12:58:26.000Z</time>
      </trkpt>
      <trkpt lat="31.094102" lon="-7.914177">
        <ele>2448.60009765625</ele>
        <time>2019-12-27T12:58:29.000Z</time>
      </trkpt>
      <trkpt lat="31.094086" lon="-7.914163">
        <ele>2448.6198918625</ele>
        <time>2019-12-27T12:58:31.000Z</time>
      </trkpt>
      <trkpt lat="31.094067" lon="-7.914145">
        <ele>2448.80004882813</ele>
        <time>2019-12-27T12:58:34.000Z</time>
      </trkpt>
      <trkpt lat="31.094048" lon="-7.914143">
        <ele>2449</ele>
        <time>2019-12-27T12:58:40.000Z</time>
      </trkpt>
      <trkpt lat="31.094029" lon="-7.914148">
        <ele>2449.19995117188</ele>
        <time>2019-12-27T12:58:46.000Z</time>
      </trkpt>
      <trkpt lat="31.094006" lon="-7.914152">
        <ele>2449.39990234375</ele>
        <time>2019-12-27T12:58:49.000Z</time>
      </trkpt>
      <trkpt lat="31.093984" lon="-7.914168">
        <ele>2449.60009765625</ele>
        <time>2019-12-27T12:58:53.000Z</time>
      </trkpt>
      <trkpt lat="31.093965" lon="-7.914177">
        <ele>2449.6198918625</ele>
        <time>2019-12-27T12:58:55.000Z</time>
      </trkpt>
      <trkpt lat="31.093962" lon="-7.914143">
        <ele>2449.81984303438</ele>
        <time>2019-12-27T12:58:57.000Z</time>
      </trkpt>
      <trkpt lat="31.093949" lon="-7.914125">
        <ele>2450.6198918625</ele>
        <time>2019-12-27T12:59:02.000Z</time>
      </trkpt>
      <trkpt lat="31.09393" lon="-7.914123">
        <ele>2452.439514925</ele>
        <time>2019-12-27T12:59:10.000Z</time>
      </trkpt>
      <trkpt lat="31.093907" lon="-7.91413">
        <ele>2453.6198918625</ele>
        <time>2019-12-27T12:59:14.000Z</time>
      </trkpt>
      <trkpt lat="31.093898" lon="-7.91415">
        <ele>2454.83963724063</ele>
        <time>2019-12-27T12:59:19.000Z</time>
      </trkpt>
      <trkpt lat="31.093885" lon="-7.914166">
        <ele>2455.81984303438</ele>
        <time>2019-12-27T12:59:23.000Z</time>
      </trkpt>
      <trkpt lat="31.093862" lon="-7.91418">
        <ele>2456.81984303438</ele>
        <time>2019-12-27T12:59:27.000Z</time>
      </trkpt>
      <trkpt lat="31.09384" lon="-7.914183">
        <ele>2458.01979420625</ele>
        <time>2019-12-27T12:59:31.000Z</time>
      </trkpt>
      <trkpt lat="31.093821" lon="-7.914185">
        <ele>2459.01975475995</ele>
        <time>2019-12-27T12:59:35.000Z</time>
      </trkpt>
      <trkpt lat="31.093795" lon="-7.91419">
        <ele>2459.83963724063</ele>
        <time>2019-12-27T12:59:38.000Z</time>
      </trkpt>
      <trkpt lat="31.093779" lon="-7.9142">
        <ele>2460.63968606875</ele>
        <time>2019-12-27T12:59:41.000Z</time>
      </trkpt>
      <trkpt lat="31.093757" lon="-7.914206">
        <ele>2461.439514925</ele>
        <time>2019-12-27T12:59:44.000Z</time>
      </trkpt>
      <trkpt lat="31.093741" lon="-7.91422">
        <ele>2462.01979420625</ele>
        <time>2019-12-27T12:59:46.000Z</time>
      </trkpt>
      <trkpt lat="31.093725" lon="-7.91424">
        <ele>2462.83963724063</ele>
        <time>2019-12-27T12:59:49.000Z</time>
      </trkpt>
      <trkpt lat="31.093718" lon="-7.914262">
        <ele>2464.21974537813</ele>
        <time>2019-12-27T12:59:54.000Z</time>
      </trkpt>
      <trkpt lat="31.093699" lon="-7.91427">
        <ele>2465.83963724063</ele>
        <time>2019-12-27T13:00:01.000Z</time>
      </trkpt>
      <trkpt lat="31.093683" lon="-7.914289">
        <ele>2466.439514925</ele>
        <time>2019-12-27T13:00:04.000Z</time>
      </trkpt>
      <trkpt lat="31.093677" lon="-7.914309">
        <ele>2467.41972071875</ele>
        <time>2019-12-27T13:00:08.000Z</time>
      </trkpt>
      <trkpt lat="31.093664" lon="-7.91433">
        <ele>2468.21974537813</ele>
        <time>2019-12-27T13:00:12.000Z</time>
      </trkpt>
      <trkpt lat="31.093645" lon="-7.914337">
        <ele>2469.21974537813</ele>
        <time>2019-12-27T13:00:16.000Z</time>
      </trkpt>
      <trkpt lat="31.093626" lon="-7.914338">
        <ele>2470</ele>
        <time>2019-12-27T13:00:20.000Z</time>
      </trkpt>
      <trkpt lat="31.0936" lon="-7.914346">
        <ele>2471.01979420625</ele>
        <time>2019-12-27T13:00:25.000Z</time>
      </trkpt>
      <trkpt lat="31.093578" lon="-7.914348">
        <ele>2472.01979420625</ele>
        <time>2019-12-27T13:00:30.000Z</time>
      </trkpt>
      <trkpt lat="31.093558" lon="-7.914348">
        <ele>2472.6198918625</ele>
        <time>2019-12-27T13:00:33.000Z</time>
      </trkpt>
      <trkpt lat="31.093539" lon="-7.914345">
        <ele>2473.01979420625</ele>
        <time>2019-12-27T13:00:35.000Z</time>
      </trkpt>
      <trkpt lat="31.09352" lon="-7.914351">
        <ele>2473.6198918625</ele>
        <time>2019-12-27T13:00:38.000Z</time>
      </trkpt>
      <trkpt lat="31.093501" lon="-7.91437">
        <ele>2474.41972071875</ele>
        <time>2019-12-27T13:00:42.000Z</time>
      </trkpt>
      <trkpt lat="31.093482" lon="-7.914382">
        <ele>2474.81984303438</ele>
        <time>2019-12-27T13:00:44.000Z</time>
      </trkpt>
      <trkpt lat="31.093456" lon="-7.914382">
        <ele>2475.41972071875</ele>
        <time>2019-12-27T13:00:48.000Z</time>
      </trkpt>
      <trkpt lat="31.09343" lon="-7.914377">
        <ele>2476</ele>
        <time>2019-12-27T13:00:51.000Z</time>
      </trkpt>
      <trkpt lat="31.093408" lon="-7.91437">
        <ele>2476.6198918625</ele>
        <time>2019-12-27T13:00:56.000Z</time>
      </trkpt>
      <trkpt lat="31.093386" lon="-7.914362">
        <ele>2477.21974537813</ele>
        <time>2019-12-27T13:01:01.000Z</time>
      </trkpt>
      <trkpt lat="31.093363" lon="-7.914368">
        <ele>2477.6198918625</ele>
        <time>2019-12-27T13:01:05.000Z</time>
      </trkpt>
      <trkpt lat="31.09335" lon="-7.914386">
        <ele>2478</ele>
        <time>2019-12-27T13:01:08.000Z</time>
      </trkpt>
      <trkpt lat="31.093331" lon="-7.914388">
        <ele>2478.39990234375</ele>
        <time>2019-12-27T13:01:12.000Z</time>
      </trkpt>
      <trkpt lat="31.093309" lon="-7.914371">
        <ele>2478.60009765625</ele>
        <time>2019-12-27T13:01:15.000Z</time>
      </trkpt>
      <trkpt lat="31.09329" lon="-7.91437">
        <ele>2479</ele>
        <time>2019-12-27T13:01:19.000Z</time>
      </trkpt>
      <trkpt lat="31.09327" lon="-7.914371">
        <ele>2479.19995117188</ele>
        <time>2019-12-27T13:01:23.000Z</time>
      </trkpt>
      <trkpt lat="31.093251" lon="-7.91438">
        <ele>2479.60009765625</ele>
        <time>2019-12-27T13:01:28.000Z</time>
      </trkpt>
      <trkpt lat="31.093242" lon="-7.9144">
        <ele>2481</ele>
        <time>2019-12-27T13:01:40.000Z</time>
      </trkpt>
      <trkpt lat="31.093222" lon="-7.914403">
        <ele>2481.6198918625</ele>
        <time>2019-12-27T13:01:44.000Z</time>
      </trkpt>
      <trkpt lat="31.093203" lon="-7.91441">
        <ele>2482.21974537813</ele>
        <time>2019-12-27T13:01:48.000Z</time>
      </trkpt>
      <trkpt lat="31.093184" lon="-7.914415">
        <ele>2483.01971547055</ele>
        <time>2019-12-27T13:01:53.000Z</time>
      </trkpt>
      <trkpt lat="31.093165" lon="-7.914425">
        <ele>2483.81984303438</ele>
        <time>2019-12-27T13:01:57.000Z</time>
      </trkpt>
      <trkpt lat="31.093142" lon="-7.914437">
        <ele>2484.6198918625</ele>
        <time>2019-12-27T13:02:01.000Z</time>
      </trkpt>
      <trkpt lat="31.093123" lon="-7.914448">
        <ele>2485.41972071875</ele>
        <time>2019-12-27T13:02:05.000Z</time>
      </trkpt>
      <trkpt lat="31.093107" lon="-7.91446">
        <ele>2486.01979420625</ele>
        <time>2019-12-27T13:02:09.000Z</time>
      </trkpt>
      <trkpt lat="31.093091" lon="-7.914472">
        <ele>2486.83963724063</ele>
        <time>2019-12-27T13:02:14.000Z</time>
      </trkpt>
      <trkpt lat="31.093072" lon="-7.914475">
        <ele>2487.21974537813</ele>
        <time>2019-12-27T13:02:16.000Z</time>
      </trkpt>
      <trkpt lat="31.09305" lon="-7.914482">
        <ele>2487.81984303438</ele>
        <time>2019-12-27T13:02:20.000Z</time>
      </trkpt>
      <trkpt lat="31.093027" lon="-7.914475">
        <ele>2488.6198918625</ele>
        <time>2019-12-27T13:02:24.000Z</time>
      </trkpt>
      <trkpt lat="31.093005" lon="-7.914468">
        <ele>2489.21974537813</ele>
        <time>2019-12-27T13:02:28.000Z</time>
      </trkpt>
      <trkpt lat="31.092982" lon="-7.914474">
        <ele>2490.39990234375</ele>
        <time>2019-12-27T13:02:34.000Z</time>
      </trkpt>
      <trkpt lat="31.092966" lon="-7.914483">
        <ele>2491</ele>
        <time>2019-12-27T13:02:37.000Z</time>
      </trkpt>
      <trkpt lat="31.092947" lon="-7.914487">
        <ele>2491.21974537813</ele>
        <time>2019-12-27T13:02:39.000Z</time>
      </trkpt>
      <trkpt lat="31.092925" lon="-7.914497">
        <ele>2491.6198918625</ele>
        <time>2019-12-27T13:02:41.000Z</time>
      </trkpt>
      <trkpt lat="31.092899" lon="-7.91451">
        <ele>2492.39990234375</ele>
        <time>2019-12-27T13:02:45.000Z</time>
      </trkpt>
      <trkpt lat="31.092874" lon="-7.91452">
        <ele>2492.81984303438</ele>
        <time>2019-12-27T13:02:48.000Z</time>
      </trkpt>
      <trkpt lat="31.092854" lon="-7.914537">
        <ele>2493.60009765625</ele>
        <time>2019-12-27T13:02:52.000Z</time>
      </trkpt>
      <trkpt lat="31.092838" lon="-7.914553">
        <ele>2494.01979420625</ele>
        <time>2019-12-27T13:02:55.000Z</time>
      </trkpt>
      <trkpt lat="31.092822" lon="-7.914563">
        <ele>2494.41972071875</ele>
        <time>2019-12-27T13:02:58.000Z</time>
      </trkpt>
      <trkpt lat="31.092803" lon="-7.914566">
        <ele>2494.80004882813</ele>
        <time>2019-12-27T13:03:01.000Z</time>
      </trkpt>
      <trkpt lat="31.092781" lon="-7.914562">
        <ele>2495.19995117188</ele>
        <time>2019-12-27T13:03:04.000Z</time>
      </trkpt>
      <trkpt lat="31.092758" lon="-7.914563">
        <ele>2495.41972071875</ele>
        <time>2019-12-27T13:03:07.000Z</time>
      </trkpt>
      <trkpt lat="31.092742" lon="-7.914577">
        <ele>2499.41972071875</ele>
        <time>2019-12-27T13:03:56.000Z</time>
      </trkpt>
      <trkpt lat="31.092726" lon="-7.914566">
        <ele>2499.80004882813</ele>
        <time>2019-12-27T13:04:05.000Z</time>
      </trkpt>
      <trkpt lat="31.092739" lon="-7.91455">
        <ele>2499.39990234375</ele>
        <time>2019-12-27T13:04:31.000Z</time>
      </trkpt>
      <trkpt lat="31.092765" lon="-7.914545">
        <ele>2500.80004882813</ele>
        <time>2019-12-27T13:05:22.000Z</time>
      </trkpt>
      <trkpt lat="31.092774" lon="-7.914525">
        <ele>2501.19995117188</ele>
        <time>2019-12-27T13:05:26.000Z</time>
      </trkpt>
      <trkpt lat="31.092755" lon="-7.91451">
        <ele>2501.60009765625</ele>
        <time>2019-12-27T13:05:30.000Z</time>
      </trkpt>
      <trkpt lat="31.092733" lon="-7.914502">
        <ele>2501.80004882813</ele>
        <time>2019-12-27T13:05:33.000Z</time>
      </trkpt>
      <trkpt lat="31.092714" lon="-7.914505">
        <ele>2502.19995117188</ele>
        <time>2019-12-27T13:05:37.000Z</time>
      </trkpt>
      <trkpt lat="31.092688" lon="-7.9145">
        <ele>2502.41972071875</ele>
        <time>2019-12-27T13:05:41.000Z</time>
      </trkpt>
      <trkpt lat="31.092666" lon="-7.914503">
        <ele>2502.6198918625</ele>
        <time>2019-12-27T13:05:44.000Z</time>
      </trkpt>
      <trkpt lat="31.09265" lon="-7.914517">
        <ele>2503</ele>
        <time>2019-12-27T13:05:48.000Z</time>
      </trkpt>
      <trkpt lat="31.092634" lon="-7.91453">
        <ele>2503.19995117188</ele>
        <time>2019-12-27T13:05:52.000Z</time>
      </trkpt>
      <trkpt lat="31.092611" lon="-7.914543">
        <ele>2503.39990234375</ele>
        <time>2019-12-27T13:05:56.000Z</time>
      </trkpt>
      <trkpt lat="31.092595" lon="-7.914566">
        <ele>2503.60009765625</ele>
        <time>2019-12-27T13:06:01.000Z</time>
      </trkpt>
      <trkpt lat="31.092573" lon="-7.914575">
        <ele>2503.81984303438</ele>
        <time>2019-12-27T13:06:05.000Z</time>
      </trkpt>
      <trkpt lat="31.09255" lon="-7.914577">
        <ele>2504</ele>
        <time>2019-12-27T13:06:09.000Z</time>
      </trkpt>
      <trkpt lat="31.092528" lon="-7.914577">
        <ele>2504.39990234375</ele>
        <time>2019-12-27T13:06:15.000Z</time>
      </trkpt>
      <trkpt lat="31.092506" lon="-7.914572">
        <ele>2504.60009765625</ele>
        <time>2019-12-27T13:06:19.000Z</time>
      </trkpt>
      <trkpt lat="31.092483" lon="-7.91457">
        <ele>2504.81984303438</ele>
        <time>2019-12-27T13:06:23.000Z</time>
      </trkpt>
      <trkpt lat="31.092464" lon="-7.91456">
        <ele>2505.01979420625</ele>
        <time>2019-12-27T13:06:26.000Z</time>
      </trkpt>
      <trkpt lat="31.092448" lon="-7.91455">
        <ele>2505.19995117188</ele>
        <time>2019-12-27T13:06:28.000Z</time>
      </trkpt>
      <trkpt lat="31.092429" lon="-7.914543">
        <ele>2505.39990234375</ele>
        <time>2019-12-27T13:06:31.000Z</time>
      </trkpt>
      <trkpt lat="31.09241" lon="-7.914545">
        <ele>2505.39990234375</ele>
        <time>2019-12-27T13:06:34.000Z</time>
      </trkpt>
      <trkpt lat="31.092387" lon="-7.914552">
        <ele>2505.60009765625</ele>
        <time>2019-12-27T13:06:38.000Z</time>
      </trkpt>
      <trkpt lat="31.092368" lon="-7.914555">
        <ele>2505.60009765625</ele>
        <time>2019-12-27T13:06:42.000Z</time>
      </trkpt>
      <trkpt lat="31.092346" lon="-7.914548">
        <ele>2505.80004882813</ele>
        <time>2019-12-27T13:06:48.000Z</time>
      </trkpt>
      <trkpt lat="31.09232" lon="-7.914537">
        <ele>2505.80004882813</ele>
        <time>2019-12-27T13:06:53.000Z</time>
      </trkpt>
      <trkpt lat="31.092304" lon="-7.914525">
        <ele>2506.01979420625</ele>
        <time>2019-12-27T13:06:58.000Z</time>
      </trkpt>
      <trkpt lat="31.092288" lon="-7.914507">
        <ele>2506.6198918625</ele>
        <time>2019-12-27T13:07:04.000Z</time>
      </trkpt>
      <trkpt lat="31.092275" lon="-7.914485">
        <ele>2507.21974537813</ele>
        <time>2019-12-27T13:07:09.000Z</time>
      </trkpt>
      <trkpt lat="31.092256" lon="-7.914465">
        <ele>2507.81984303438</ele>
        <time>2019-12-27T13:07:12.000Z</time>
      </trkpt>
      <trkpt lat="31.09224" lon="-7.914445">
        <ele>2508.41972071875</ele>
        <time>2019-12-27T13:07:15.000Z</time>
      </trkpt>
      <trkpt lat="31.092221" lon="-7.914438">
        <ele>2509.01979420625</ele>
        <time>2019-12-27T13:07:18.000Z</time>
      </trkpt>
      <trkpt lat="31.092198" lon="-7.914422">
        <ele>2509.6198918625</ele>
        <time>2019-12-27T13:07:21.000Z</time>
      </trkpt>
      <trkpt lat="31.092179" lon="-7.914405">
        <ele>2510.6198918625</ele>
        <time>2019-12-27T13:07:25.000Z</time>
      </trkpt>
      <trkpt lat="31.09216" lon="-7.914394">
        <ele>2511.21974537813</ele>
        <time>2019-12-27T13:07:27.000Z</time>
      </trkpt>
      <trkpt lat="31.092141" lon="-7.914385">
        <ele>2511.81984303438</ele>
        <time>2019-12-27T13:07:30.000Z</time>
      </trkpt>
      <trkpt lat="31.092112" lon="-7.914371">
        <ele>2512.81984303438</ele>
        <time>2019-12-27T13:07:34.000Z</time>
      </trkpt>
      <trkpt lat="31.092093" lon="-7.91436">
        <ele>2513.81984303438</ele>
        <time>2019-12-27T13:07:38.000Z</time>
      </trkpt>
      <trkpt lat="31.092067" lon="-7.914351">
        <ele>2514.41972071875</ele>
        <time>2019-12-27T13:07:41.000Z</time>
      </trkpt>
      <trkpt lat="31.092051" lon="-7.914342">
        <ele>2515.60009765625</ele>
        <time>2019-12-27T13:07:46.000Z</time>
      </trkpt>
      <trkpt lat="31.092029" lon="-7.914337">
        <ele>2516.21974537813</ele>
        <time>2019-12-27T13:07:49.000Z</time>
      </trkpt>
      <trkpt lat="31.09201" lon="-7.914351">
        <ele>2516.80004882813</ele>
        <time>2019-12-27T13:07:52.000Z</time>
      </trkpt>
      <trkpt lat="31.092003" lon="-7.914383">
        <ele>2517.39990234375</ele>
        <time>2019-12-27T13:07:55.000Z</time>
      </trkpt>
      <trkpt lat="31.09201" lon="-7.914403">
        <ele>2517.81984303438</ele>
        <time>2019-12-27T13:07:58.000Z</time>
      </trkpt>
      <trkpt lat="31.092013" lon="-7.914425">
        <ele>2518.6198918625</ele>
        <time>2019-12-27T13:08:03.000Z</time>
      </trkpt>
      <trkpt lat="31.09199" lon="-7.914417">
        <ele>2519.6198918625</ele>
        <time>2019-12-27T13:08:10.000Z</time>
      </trkpt>
      <trkpt lat="31.091965" lon="-7.914403">
        <ele>2520.80004882813</ele>
        <time>2019-12-27T13:08:19.000Z</time>
      </trkpt>
      <trkpt lat="31.091942" lon="-7.91439">
        <ele>2521.01979420625</ele>
        <time>2019-12-27T13:08:22.000Z</time>
      </trkpt>
      <trkpt lat="31.091923" lon="-7.9144">
        <ele>2521.60009765625</ele>
        <time>2019-12-27T13:08:27.000Z</time>
      </trkpt>
      <trkpt lat="31.09192" lon="-7.914423">
        <ele>2522.01979420625</ele>
        <time>2019-12-27T13:08:31.000Z</time>
      </trkpt>
      <trkpt lat="31.091898" lon="-7.914411">
        <ele>2522.81984303438</ele>
        <time>2019-12-27T13:08:38.000Z</time>
      </trkpt>
      <trkpt lat="31.091878" lon="-7.914411">
        <ele>2523.21974537813</ele>
        <time>2019-12-27T13:08:41.000Z</time>
      </trkpt>
      <trkpt lat="31.091859" lon="-7.914402">
        <ele>2525.01979420625</ele>
        <time>2019-12-27T13:08:54.000Z</time>
      </trkpt>
      <trkpt lat="31.09184" lon="-7.914394">
        <ele>2525.41972071875</ele>
        <time>2019-12-27T13:08:57.000Z</time>
      </trkpt>
      <trkpt lat="31.091814" lon="-7.914383">
        <ele>2525.81984303438</ele>
        <time>2019-12-27T13:08:59.000Z</time>
      </trkpt>
      <trkpt lat="31.091792" lon="-7.914371">
        <ele>2526.21974537813</ele>
        <time>2019-12-27T13:09:01.000Z</time>
      </trkpt>
      <trkpt lat="31.091773" lon="-7.914365">
        <ele>2526.41972071875</ele>
        <time>2019-12-27T13:09:03.000Z</time>
      </trkpt>
      <trkpt lat="31.091754" lon="-7.914355">
        <ele>2526.80004882813</ele>
        <time>2019-12-27T13:09:05.000Z</time>
      </trkpt>
      <trkpt lat="31.091734" lon="-7.91435">
        <ele>2527.01979420625</ele>
        <time>2019-12-27T13:09:07.000Z</time>
      </trkpt>
      <trkpt lat="31.091712" lon="-7.914351">
        <ele>2527.41972071875</ele>
        <time>2019-12-27T13:09:10.000Z</time>
      </trkpt>
      <trkpt lat="31.091696" lon="-7.91434">
        <ele>2527.6198918625</ele>
        <time>2019-12-27T13:09:12.000Z</time>
      </trkpt>
      <trkpt lat="31.09167" lon="-7.914337">
        <ele>2527.81984303438</ele>
        <time>2019-12-27T13:09:15.000Z</time>
      </trkpt>
      <trkpt lat="31.091654" lon="-7.914326">
        <ele>2528</ele>
        <time>2019-12-27T13:09:17.000Z</time>
      </trkpt>
      <trkpt lat="31.091651" lon="-7.914303">
        <ele>2528</ele>
        <time>2019-12-27T13:09:22.000Z</time>
      </trkpt>
      <trkpt lat="31.091635" lon="-7.914292">
        <ele>2528</ele>
        <time>2019-12-27T13:09:24.000Z</time>
      </trkpt>
      <trkpt lat="31.091616" lon="-7.914277">
        <ele>2528</ele>
        <time>2019-12-27T13:09:26.000Z</time>
      </trkpt>
      <trkpt lat="31.09159" lon="-7.91427">
        <ele>2527.80004882813</ele>
        <time>2019-12-27T13:09:29.000Z</time>
      </trkpt>
      <trkpt lat="31.091571" lon="-7.914272">
        <ele>2527.80004882813</ele>
        <time>2019-12-27T13:09:31.000Z</time>
      </trkpt>
      <trkpt lat="31.091552" lon="-7.914269">
        <ele>2527.60009765625</ele>
        <time>2019-12-27T13:09:33.000Z</time>
      </trkpt>
      <trkpt lat="31.091533" lon="-7.914269">
        <ele>2527.19995117188</ele>
        <time>2019-12-27T13:09:38.000Z</time>
      </trkpt>
      <trkpt lat="31.091536" lon="-7.91429">
        <ele>2526.80004882813</ele>
        <time>2019-12-27T13:09:44.000Z</time>
      </trkpt>
      <trkpt lat="31.091552" lon="-7.914303">
        <ele>2526.60009765625</ele>
        <time>2019-12-27T13:09:46.000Z</time>
      </trkpt>
      <trkpt lat="31.091568" lon="-7.914317">
        <ele>2526.60009765625</ele>
        <time>2019-12-27T13:09:48.000Z</time>
      </trkpt>
      <trkpt lat="31.09159" lon="-7.914331">
        <ele>2526.60009765625</ele>
        <time>2019-12-27T13:09:51.000Z</time>
      </trkpt>
      <trkpt lat="31.09161" lon="-7.914345">
        <ele>2526.60009765625</ele>
        <time>2019-12-27T13:09:54.000Z</time>
      </trkpt>
      <trkpt lat="31.091629" lon="-7.914354">
        <ele>2526.60009765625</ele>
        <time>2019-12-27T13:09:56.000Z</time>
      </trkpt>
      <trkpt lat="31.091645" lon="-7.914374">
        <ele>2526.80004882813</ele>
        <time>2019-12-27T13:09:59.000Z</time>
      </trkpt>
      <trkpt lat="31.091658" lon="-7.914395">
        <ele>2527.21974537813</ele>
        <time>2019-12-27T13:10:03.000Z</time>
      </trkpt>
      <trkpt lat="31.09167" lon="-7.91441">
        <ele>2528.01979420625</ele>
        <time>2019-12-27T13:10:08.000Z</time>
      </trkpt>
      <trkpt lat="31.091686" lon="-7.914437">
        <ele>2528.81984303438</ele>
        <time>2019-12-27T13:10:12.000Z</time>
      </trkpt>
      <trkpt lat="31.09167" lon="-7.914454">
        <ele>2529.81984303438</ele>
        <time>2019-12-27T13:10:17.000Z</time>
      </trkpt>
      <trkpt lat="31.091651" lon="-7.914451">
        <ele>2530.41972071875</ele>
        <time>2019-12-27T13:10:20.000Z</time>
      </trkpt>
      <trkpt lat="31.091629" lon="-7.91445">
        <ele>2531.21974537813</ele>
        <time>2019-12-27T13:10:25.000Z</time>
      </trkpt>
      <trkpt lat="31.091613" lon="-7.91444">
        <ele>2531.6198918625</ele>
        <time>2019-12-27T13:10:27.000Z</time>
      </trkpt>
      <trkpt lat="31.091594" lon="-7.914434">
        <ele>2532.01979420625</ele>
        <time>2019-12-27T13:10:30.000Z</time>
      </trkpt>
      <trkpt lat="31.091571" lon="-7.914434">
        <ele>2532.81984303438</ele>
        <time>2019-12-27T13:10:35.000Z</time>
      </trkpt>
      <trkpt lat="31.091552" lon="-7.914418">
        <ele>2534.01979420625</ele>
        <time>2019-12-27T13:10:41.000Z</time>
      </trkpt>
      <trkpt lat="31.091533" lon="-7.914406">
        <ele>2534.41972071875</ele>
        <time>2019-12-27T13:10:43.000Z</time>
      </trkpt>
      <trkpt lat="31.091514" lon="-7.914402">
        <ele>2534.6198918625</ele>
        <time>2019-12-27T13:10:45.000Z</time>
      </trkpt>
      <trkpt lat="31.091488" lon="-7.9144">
        <ele>2535.41972071875</ele>
        <time>2019-12-27T13:10:49.000Z</time>
      </trkpt>
      <trkpt lat="31.091469" lon="-7.914395">
        <ele>2535.81984303438</ele>
        <time>2019-12-27T13:10:52.000Z</time>
      </trkpt>
      <trkpt lat="31.09145" lon="-7.914382">
        <ele>2536.60009765625</ele>
        <time>2019-12-27T13:10:56.000Z</time>
      </trkpt>
      <trkpt lat="31.09143" lon="-7.914378">
        <ele>2537.21974537813</ele>
        <time>2019-12-27T13:11:00.000Z</time>
      </trkpt>
      <trkpt lat="31.091408" lon="-7.914371">
        <ele>2537.81984303438</ele>
        <time>2019-12-27T13:11:04.000Z</time>
      </trkpt>
      <trkpt lat="31.091386" lon="-7.914366">
        <ele>2538.41972071875</ele>
        <time>2019-12-27T13:11:08.000Z</time>
      </trkpt>
      <trkpt lat="31.091366" lon="-7.914363">
        <ele>2539</ele>
        <time>2019-12-27T13:11:11.000Z</time>
      </trkpt>
      <trkpt lat="31.091344" lon="-7.914365">
        <ele>2539.39990234375</ele>
        <time>2019-12-27T13:11:14.000Z</time>
      </trkpt>
      <trkpt lat="31.091322" lon="-7.914374">
        <ele>2540</ele>
        <time>2019-12-27T13:11:19.000Z</time>
      </trkpt>
      <trkpt lat="31.091302" lon="-7.914394">
        <ele>2540.6198918625</ele>
        <time>2019-12-27T13:11:25.000Z</time>
      </trkpt>
      <trkpt lat="31.091286" lon="-7.914405">
        <ele>2541.21974537813</ele>
        <time>2019-12-27T13:11:30.000Z</time>
      </trkpt>
      <trkpt lat="31.091274" lon="-7.914386">
        <ele>2541.6198918625</ele>
        <time>2019-12-27T13:11:33.000Z</time>
      </trkpt>
      <trkpt lat="31.091254" lon="-7.914383">
        <ele>2542.21974537813</ele>
        <time>2019-12-27T13:11:37.000Z</time>
      </trkpt>
      <trkpt lat="31.091235" lon="-7.914382">
        <ele>2542.6198918625</ele>
        <time>2019-12-27T13:11:40.000Z</time>
      </trkpt>
      <trkpt lat="31.091216" lon="-7.91438">
        <ele>2543.60009765625</ele>
        <time>2019-12-27T13:11:46.000Z</time>
      </trkpt>
      <trkpt lat="31.091197" lon="-7.914374">
        <ele>2544.01979420625</ele>
        <time>2019-12-27T13:11:49.000Z</time>
      </trkpt>
      <trkpt lat="31.091174" lon="-7.914365">
        <ele>2544.6198918625</ele>
        <time>2019-12-27T13:11:52.000Z</time>
      </trkpt>
      <trkpt lat="31.091155" lon="-7.914366">
        <ele>2545.01979420625</ele>
        <time>2019-12-27T13:11:55.000Z</time>
      </trkpt>
      <trkpt lat="31.091139" lon="-7.914378">
        <ele>2545.60009765625</ele>
        <time>2019-12-27T13:11:58.000Z</time>
      </trkpt>
      <trkpt lat="31.091123" lon="-7.914388">
        <ele>2546.41972071875</ele>
        <time>2019-12-27T13:12:03.000Z</time>
      </trkpt>
      <trkpt lat="31.091114" lon="-7.914406">
        <ele>2546.81984303438</ele>
        <time>2019-12-27T13:12:06.000Z</time>
      </trkpt>
      <trkpt lat="31.091091" lon="-7.914408">
        <ele>2547.41972071875</ele>
        <time>2019-12-27T13:12:10.000Z</time>
      </trkpt>
      <trkpt lat="31.091072" lon="-7.914397">
        <ele>2548.01979420625</ele>
        <time>2019-12-27T13:12:14.000Z</time>
      </trkpt>
      <trkpt lat="31.091062" lon="-7.914425">
        <ele>2548.80004882813</ele>
        <time>2019-12-27T13:12:21.000Z</time>
      </trkpt>
      <trkpt lat="31.091075" lon="-7.914442">
        <ele>2549</ele>
        <time>2019-12-27T13:12:23.000Z</time>
      </trkpt>
      <trkpt lat="31.091088" lon="-7.914458">
        <ele>2549.21974537813</ele>
        <time>2019-12-27T13:12:26.000Z</time>
      </trkpt>
      <trkpt lat="31.091088" lon="-7.914485">
        <ele>2550.19995117188</ele>
        <time>2019-12-27T13:12:34.000Z</time>
      </trkpt>
      <trkpt lat="31.091085" lon="-7.91451">
        <ele>2550.60009765625</ele>
        <time>2019-12-27T13:12:37.000Z</time>
      </trkpt>
      <trkpt lat="31.091104" lon="-7.914523">
        <ele>2551.21974537813</ele>
        <time>2019-12-27T13:12:42.000Z</time>
      </trkpt>
      <trkpt lat="31.091126" lon="-7.914526">
        <ele>2551.60009765625</ele>
        <time>2019-12-27T13:12:44.000Z</time>
      </trkpt>
      <trkpt lat="31.091146" lon="-7.91453">
        <ele>2552.01979420625</ele>
        <time>2019-12-27T13:12:47.000Z</time>
      </trkpt>
      <trkpt lat="31.091165" lon="-7.914543">
        <ele>2552.41972071875</ele>
        <time>2019-12-27T13:12:50.000Z</time>
      </trkpt>
      <trkpt lat="31.091181" lon="-7.914565">
        <ele>2553.01961415778</ele>
        <time>2019-12-27T13:12:54.000Z</time>
      </trkpt>
      <trkpt lat="31.091168" lon="-7.91458">
        <ele>2554.41972071875</ele>
        <time>2019-12-27T13:13:02.000Z</time>
      </trkpt>
      <trkpt lat="31.091149" lon="-7.914577">
        <ele>2555</ele>
        <time>2019-12-27T13:13:05.000Z</time>
      </trkpt>
      <trkpt lat="31.091126" lon="-7.914572">
        <ele>2555.81984303438</ele>
        <time>2019-12-27T13:13:09.000Z</time>
      </trkpt>
      <trkpt lat="31.091107" lon="-7.914572">
        <ele>2556.41972071875</ele>
        <time>2019-12-27T13:13:13.000Z</time>
      </trkpt>
      <trkpt lat="31.091085" lon="-7.914565">
        <ele>2557.21974537813</ele>
        <time>2019-12-27T13:13:17.000Z</time>
      </trkpt>
      <trkpt lat="31.091062" lon="-7.914562">
        <ele>2557.80004882813</ele>
        <time>2019-12-27T13:13:20.000Z</time>
      </trkpt>
      <trkpt lat="31.091043" lon="-7.914557">
        <ele>2558.39990234375</ele>
        <time>2019-12-27T13:13:24.000Z</time>
      </trkpt>
      <trkpt lat="31.091024" lon="-7.914563">
        <ele>2559.01979420625</ele>
        <time>2019-12-27T13:13:29.000Z</time>
      </trkpt>
      <trkpt lat="31.091005" lon="-7.914558">
        <ele>2559.41972071875</ele>
        <time>2019-12-27T13:13:33.000Z</time>
      </trkpt>
      <trkpt lat="31.090982" lon="-7.91455">
        <ele>2560.21974537813</ele>
        <time>2019-12-27T13:13:38.000Z</time>
      </trkpt>
      <trkpt lat="31.09096" lon="-7.914558">
        <ele>2560.81984303438</ele>
        <time>2019-12-27T13:13:42.000Z</time>
      </trkpt>
      <trkpt lat="31.090941" lon="-7.914552">
        <ele>2562.6198918625</ele>
        <time>2019-12-27T13:13:54.000Z</time>
      </trkpt>
      <trkpt lat="31.090925" lon="-7.91454">
        <ele>2563.21974537813</ele>
        <time>2019-12-27T13:13:58.000Z</time>
      </trkpt>
      <trkpt lat="31.090899" lon="-7.914546">
        <ele>2563.80004882813</ele>
        <time>2019-12-27T13:14:01.000Z</time>
      </trkpt>
      <trkpt lat="31.090899" lon="-7.914572">
        <ele>2564.01979420625</ele>
        <time>2019-12-27T13:14:03.000Z</time>
      </trkpt>
      <trkpt lat="31.090909" lon="-7.914592">
        <ele>2564.6198918625</ele>
        <time>2019-12-27T13:14:07.000Z</time>
      </trkpt>
      <trkpt lat="31.09089" lon="-7.9146">
        <ele>2565.41972071875</ele>
        <time>2019-12-27T13:14:12.000Z</time>
      </trkpt>
      <trkpt lat="31.09087" lon="-7.914597">
        <ele>2565.81984303438</ele>
        <time>2019-12-27T13:14:15.000Z</time>
      </trkpt>
      <trkpt lat="31.090848" lon="-7.914602">
        <ele>2566.21974537813</ele>
        <time>2019-12-27T13:14:18.000Z</time>
      </trkpt>
      <trkpt lat="31.090826" lon="-7.914603">
        <ele>2566.80004882813</ele>
        <time>2019-12-27T13:14:22.000Z</time>
      </trkpt>
      <trkpt lat="31.090806" lon="-7.914609">
        <ele>2567.19995117188</ele>
        <time>2019-12-27T13:14:25.000Z</time>
      </trkpt>
      <trkpt lat="31.090781" lon="-7.914625">
        <ele>2567.41972071875</ele>
        <time>2019-12-27T13:14:28.000Z</time>
      </trkpt>
      <trkpt lat="31.090768" lon="-7.914645">
        <ele>2567.80004882813</ele>
        <time>2019-12-27T13:14:31.000Z</time>
      </trkpt>
      <trkpt lat="31.090787" lon="-7.914646">
        <ele>2569.21974537813</ele>
        <time>2019-12-27T13:14:53.000Z</time>
      </trkpt>
      <trkpt lat="31.090797" lon="-7.914674">
        <ele>2570.21974537813</ele>
        <time>2019-12-27T13:15:08.000Z</time>
      </trkpt>
      <trkpt lat="31.090778" lon="-7.91466">
        <ele>2572.6198918625</ele>
        <time>2019-12-27T13:15:19.000Z</time>
      </trkpt>
      <trkpt lat="31.090758" lon="-7.914678">
        <ele>2574</ele>
        <time>2019-12-27T13:15:32.000Z</time>
      </trkpt>
      <trkpt lat="31.090736" lon="-7.914686">
        <ele>2574.21974537813</ele>
        <time>2019-12-27T13:15:35.000Z</time>
      </trkpt>
      <trkpt lat="31.090717" lon="-7.914686">
        <ele>2574.60009765625</ele>
        <time>2019-12-27T13:15:38.000Z</time>
      </trkpt>
      <trkpt lat="31.090698" lon="-7.914686">
        <ele>2574.81984303438</ele>
        <time>2019-12-27T13:15:40.000Z</time>
      </trkpt>
      <trkpt lat="31.090678" lon="-7.914678">
        <ele>2576.21974537813</ele>
        <time>2019-12-27T13:15:49.000Z</time>
      </trkpt>
      <trkpt lat="31.090659" lon="-7.914686">
        <ele>2577.01979420625</ele>
        <time>2019-12-27T13:15:53.000Z</time>
      </trkpt>
      <trkpt lat="31.09064" lon="-7.914682">
        <ele>2577.439514925</ele>
        <time>2019-12-27T13:15:56.000Z</time>
      </trkpt>
      <trkpt lat="31.090618" lon="-7.914677">
        <ele>2578.19995117188</ele>
        <time>2019-12-27T13:15:59.000Z</time>
      </trkpt>
      <trkpt lat="31.090598" lon="-7.914672">
        <ele>2578.6198918625</ele>
        <time>2019-12-27T13:16:02.000Z</time>
      </trkpt>
      <trkpt lat="31.090576" lon="-7.914672">
        <ele>2579.6198918625</ele>
        <time>2019-12-27T13:16:06.000Z</time>
      </trkpt>
      <trkpt lat="31.090557" lon="-7.914674">
        <ele>2580.21974537813</ele>
        <time>2019-12-27T13:16:09.000Z</time>
      </trkpt>
      <trkpt lat="31.090534" lon="-7.914692">
        <ele>2580.81984303438</ele>
        <time>2019-12-27T13:16:12.000Z</time>
      </trkpt>
      <trkpt lat="31.090512" lon="-7.914686">
        <ele>2581.81984303438</ele>
        <time>2019-12-27T13:16:17.000Z</time>
      </trkpt>
      <trkpt lat="31.09049" lon="-7.914683">
        <ele>2582.41972071875</ele>
        <time>2019-12-27T13:16:20.000Z</time>
      </trkpt>
      <trkpt lat="31.09047" lon="-7.914686">
        <ele>2583.21974537813</ele>
        <time>2019-12-27T13:16:25.000Z</time>
      </trkpt>
      <trkpt lat="31.090451" lon="-7.914683">
        <ele>2584.41972071875</ele>
        <time>2019-12-27T13:16:34.000Z</time>
      </trkpt>
      <trkpt lat="31.090432" lon="-7.914677">
        <ele>2584.81984303438</ele>
        <time>2019-12-27T13:16:37.000Z</time>
      </trkpt>
      <trkpt lat="31.090413" lon="-7.91467">
        <ele>2585.39990234375</ele>
        <time>2019-12-27T13:16:41.000Z</time>
      </trkpt>
      <trkpt lat="31.090394" lon="-7.914668">
        <ele>2585.6198918625</ele>
        <time>2019-12-27T13:16:44.000Z</time>
      </trkpt>
      <trkpt lat="31.090374" lon="-7.914674">
        <ele>2586.6198918625</ele>
        <time>2019-12-27T13:16:51.000Z</time>
      </trkpt>
      <trkpt lat="31.090358" lon="-7.914662">
        <ele>2587.21974537813</ele>
        <time>2019-12-27T13:16:56.000Z</time>
      </trkpt>
      <trkpt lat="31.090342" lon="-7.914649">
        <ele>2587.81984303438</ele>
        <time>2019-12-27T13:16:59.000Z</time>
      </trkpt>
      <trkpt lat="31.090323" lon="-7.91466">
        <ele>2588.80004882813</ele>
        <time>2019-12-27T13:17:04.000Z</time>
      </trkpt>
      <trkpt lat="31.090294" lon="-7.914654">
        <ele>2589.41972071875</ele>
        <time>2019-12-27T13:17:08.000Z</time>
      </trkpt>
      <trkpt lat="31.090275" lon="-7.914657">
        <ele>2589.81984303438</ele>
        <time>2019-12-27T13:17:10.000Z</time>
      </trkpt>
      <trkpt lat="31.09025" lon="-7.914657">
        <ele>2590.81984303438</ele>
        <time>2019-12-27T13:17:15.000Z</time>
      </trkpt>
      <trkpt lat="31.09023" lon="-7.914657">
        <ele>2591.41972071875</ele>
        <time>2019-12-27T13:17:18.000Z</time>
      </trkpt>
      <trkpt lat="31.090205" lon="-7.914657">
        <ele>2591.81984303438</ele>
        <time>2019-12-27T13:17:21.000Z</time>
      </trkpt>
      <trkpt lat="31.090186" lon="-7.914666">
        <ele>2592.39990234375</ele>
        <time>2019-12-27T13:17:24.000Z</time>
      </trkpt>
      <trkpt lat="31.090166" lon="-7.91467">
        <ele>2592.60009765625</ele>
        <time>2019-12-27T13:17:26.000Z</time>
      </trkpt>
      <trkpt lat="31.09015" lon="-7.914686">
        <ele>2592.81984303438</ele>
        <time>2019-12-27T13:17:28.000Z</time>
      </trkpt>
      <trkpt lat="31.090131" lon="-7.914692">
        <ele>2593.19995117188</ele>
        <time>2019-12-27T13:17:30.000Z</time>
      </trkpt>
      <trkpt lat="31.090112" lon="-7.914694">
        <ele>2593.60009765625</ele>
        <time>2019-12-27T13:17:34.000Z</time>
      </trkpt>
      <trkpt lat="31.090096" lon="-7.914708">
        <ele>2593.80004882813</ele>
        <time>2019-12-27T13:17:37.000Z</time>
      </trkpt>
      <trkpt lat="31.090074" lon="-7.914708">
        <ele>2594</ele>
        <time>2019-12-27T13:17:43.000Z</time>
      </trkpt>
      <trkpt lat="31.090054" lon="-7.914715">
        <ele>2594</ele>
        <time>2019-12-27T13:17:46.000Z</time>
      </trkpt>
      <trkpt lat="31.090035" lon="-7.914725">
        <ele>2594</ele>
        <time>2019-12-27T13:17:50.000Z</time>
      </trkpt>
      <trkpt lat="31.090006" lon="-7.914722">
        <ele>2593.80004882813</ele>
        <time>2019-12-27T13:17:54.000Z</time>
      </trkpt>
      <trkpt lat="31.089987" lon="-7.91473">
        <ele>2593.80004882813</ele>
        <time>2019-12-27T13:17:57.000Z</time>
      </trkpt>
      <trkpt lat="31.089987" lon="-7.914754">
        <ele>2593.60009765625</ele>
        <time>2019-12-27T13:18:01.000Z</time>
      </trkpt>
      <trkpt lat="31.089965" lon="-7.914746">
        <ele>2593.80004882813</ele>
        <time>2019-12-27T13:18:10.000Z</time>
      </trkpt>
      <trkpt lat="31.089946" lon="-7.914742">
        <ele>2593.80004882813</ele>
        <time>2019-12-27T13:18:12.000Z</time>
      </trkpt>
      <trkpt lat="31.089926" lon="-7.914737">
        <ele>2594</ele>
        <time>2019-12-27T13:18:14.000Z</time>
      </trkpt>
      <trkpt lat="31.089904" lon="-7.914714">
        <ele>2594</ele>
        <time>2019-12-27T13:18:16.000Z</time>
      </trkpt>
      <trkpt lat="31.089891" lon="-7.914694">
        <ele>2594</ele>
        <time>2019-12-27T13:18:17.000Z</time>
      </trkpt>
      <trkpt lat="31.089866" lon="-7.91469">
        <ele>2594.19995117188</ele>
        <time>2019-12-27T13:18:20.000Z</time>
      </trkpt>
      <trkpt lat="31.089846" lon="-7.914694">
        <ele>2594.41954045044</ele>
        <time>2019-12-27T13:18:24.000Z</time>
      </trkpt>
      <trkpt lat="31.08983" lon="-7.914706">
        <ele>2594.80004882813</ele>
        <time>2019-12-27T13:18:28.000Z</time>
      </trkpt>
      <trkpt lat="31.089808" lon="-7.914714">
        <ele>2595.6198918625</ele>
        <time>2019-12-27T13:18:35.000Z</time>
      </trkpt>
      <trkpt lat="31.089782" lon="-7.914714">
        <ele>2596.439514925</ele>
        <time>2019-12-27T13:18:40.000Z</time>
      </trkpt>
      <trkpt lat="31.089757" lon="-7.914718">
        <ele>2597.81984303438</ele>
        <time>2019-12-27T13:18:45.000Z</time>
      </trkpt>
      <trkpt lat="31.089741" lon="-7.914708">
        <ele>2598.81984303438</ele>
        <time>2019-12-27T13:18:49.000Z</time>
      </trkpt>
      <trkpt lat="31.089725" lon="-7.914731">
        <ele>2599.83963724063</ele>
        <time>2019-12-27T13:18:53.000Z</time>
      </trkpt>
      <trkpt lat="31.089699" lon="-7.914731">
        <ele>2600.81984303438</ele>
        <time>2019-12-27T13:18:57.000Z</time>
      </trkpt>
      <trkpt lat="31.089677" lon="-7.914734">
        <ele>2601.81984303438</ele>
        <time>2019-12-27T13:19:00.000Z</time>
      </trkpt>
      <trkpt lat="31.089658" lon="-7.914742">
        <ele>2602.6198918625</ele>
        <time>2019-12-27T13:19:03.000Z</time>
      </trkpt>
      <trkpt lat="31.089638" lon="-7.914757">
        <ele>2603.6198918625</ele>
        <time>2019-12-27T13:19:07.000Z</time>
      </trkpt>
      <trkpt lat="31.089622" lon="-7.914768">
        <ele>2604.41972071875</ele>
        <time>2019-12-27T13:19:10.000Z</time>
      </trkpt>
      <trkpt lat="31.08961" lon="-7.914785">
        <ele>2605.0395884125</ele>
        <time>2019-12-27T13:19:13.000Z</time>
      </trkpt>
      <trkpt lat="31.089594" lon="-7.9148">
        <ele>2606</ele>
        <time>2019-12-27T13:19:17.000Z</time>
      </trkpt>
      <trkpt lat="31.089584" lon="-7.914818">
        <ele>2607.0395884125</ele>
        <time>2019-12-27T13:19:24.000Z</time>
      </trkpt>
      <trkpt lat="31.089562" lon="-7.914822">
        <ele>2607.6198918625</ele>
        <time>2019-12-27T13:19:27.000Z</time>
      </trkpt>
      <trkpt lat="31.089549" lon="-7.91484">
        <ele>2608.01979420625</ele>
        <time>2019-12-27T13:19:30.000Z</time>
      </trkpt>
      <trkpt lat="31.089533" lon="-7.914858">
        <ele>2608.41972071875</ele>
        <time>2019-12-27T13:19:34.000Z</time>
      </trkpt>
      <trkpt lat="31.089517" lon="-7.914873">
        <ele>2608.81984303438</ele>
        <time>2019-12-27T13:19:38.000Z</time>
      </trkpt>
      <trkpt lat="31.089501" lon="-7.91489">
        <ele>2609.41972071875</ele>
        <time>2019-12-27T13:19:44.000Z</time>
      </trkpt>
      <trkpt lat="31.089478" lon="-7.914893">
        <ele>2610</ele>
        <time>2019-12-27T13:19:49.000Z</time>
      </trkpt>
      <trkpt lat="31.089459" lon="-7.9149">
        <ele>2610.19995117188</ele>
        <time>2019-12-27T13:19:51.000Z</time>
      </trkpt>
      <trkpt lat="31.08944" lon="-7.91491">
        <ele>2610.39990234375</ele>
        <time>2019-12-27T13:19:53.000Z</time>
      </trkpt>
      <trkpt lat="31.089418" lon="-7.914925">
        <ele>2610.6198918625</ele>
        <time>2019-12-27T13:19:56.000Z</time>
      </trkpt>
      <trkpt lat="31.089398" lon="-7.914932">
        <ele>2611</ele>
        <time>2019-12-27T13:19:59.000Z</time>
      </trkpt>
      <trkpt lat="31.089379" lon="-7.914935">
        <ele>2611.39990234375</ele>
        <time>2019-12-27T13:20:03.000Z</time>
      </trkpt>
      <trkpt lat="31.08936" lon="-7.914949">
        <ele>2611.80004882813</ele>
        <time>2019-12-27T13:20:07.000Z</time>
      </trkpt>
      <trkpt lat="31.089341" lon="-7.914954">
        <ele>2612.01979420625</ele>
        <time>2019-12-27T13:20:10.000Z</time>
      </trkpt>
      <trkpt lat="31.089322" lon="-7.914957">
        <ele>2612.41972071875</ele>
        <time>2019-12-27T13:20:13.000Z</time>
      </trkpt>
      <trkpt lat="31.089322" lon="-7.914986">
        <ele>2613.01979420625</ele>
        <time>2019-12-27T13:20:18.000Z</time>
      </trkpt>
      <trkpt lat="31.089299" lon="-7.914994">
        <ele>2614.21974537813</ele>
        <time>2019-12-27T13:20:24.000Z</time>
      </trkpt>
      <trkpt lat="31.08928" lon="-7.914982">
        <ele>2615.21974537813</ele>
        <time>2019-12-27T13:20:28.000Z</time>
      </trkpt>
      <trkpt lat="31.089258" lon="-7.914986">
        <ele>2616.01979420625</ele>
        <time>2019-12-27T13:20:32.000Z</time>
      </trkpt>
      <trkpt lat="31.089238" lon="-7.914995">
        <ele>2616.81984303438</ele>
        <time>2019-12-27T13:20:35.000Z</time>
      </trkpt>
      <trkpt lat="31.089222" lon="-7.915025">
        <ele>2617.01979420625</ele>
        <time>2019-12-27T13:20:36.000Z</time>
      </trkpt>
      <trkpt lat="31.0892" lon="-7.915043">
        <ele>2617.6198918625</ele>
        <time>2019-12-27T13:20:39.000Z</time>
      </trkpt>
      <trkpt lat="31.089178" lon="-7.915051">
        <ele>2618.21974537813</ele>
        <time>2019-12-27T13:20:42.000Z</time>
      </trkpt>
      <trkpt lat="31.089155" lon="-7.915058">
        <ele>2619.01979420625</ele>
        <time>2019-12-27T13:20:46.000Z</time>
      </trkpt>
      <trkpt lat="31.089133" lon="-7.915066">
        <ele>2619.60009765625</ele>
        <time>2019-12-27T13:20:49.000Z</time>
      </trkpt>
      <trkpt lat="31.08912" lon="-7.915082">
        <ele>2620.01979420625</ele>
        <time>2019-12-27T13:20:52.000Z</time>
      </trkpt>
      <trkpt lat="31.089101" lon="-7.915095">
        <ele>2620.6198918625</ele>
        <time>2019-12-27T13:20:56.000Z</time>
      </trkpt>
      <trkpt lat="31.089082" lon="-7.915097">
        <ele>2621.19995117188</ele>
        <time>2019-12-27T13:20:59.000Z</time>
      </trkpt>
      <trkpt lat="31.089069" lon="-7.915115">
        <ele>2621.6198918625</ele>
        <time>2019-12-27T13:21:03.000Z</time>
      </trkpt>
      <trkpt lat="31.089053" lon="-7.915127">
        <ele>2622.01979420625</ele>
        <time>2019-12-27T13:21:06.000Z</time>
      </trkpt>
      <trkpt lat="31.089037" lon="-7.915148">
        <ele>2622.41972071875</ele>
        <time>2019-12-27T13:21:10.000Z</time>
      </trkpt>
      <trkpt lat="31.089021" lon="-7.91516">
        <ele>2623</ele>
        <time>2019-12-27T13:21:15.000Z</time>
      </trkpt>
      <trkpt lat="31.089008" lon="-7.915177">
        <ele>2623.41972071875</ele>
        <time>2019-12-27T13:21:20.000Z</time>
      </trkpt>
      <trkpt lat="31.088989" lon="-7.915185">
        <ele>2623.81984303438</ele>
        <time>2019-12-27T13:21:23.000Z</time>
      </trkpt>
      <trkpt lat="31.08897" lon="-7.915198">
        <ele>2624.21974537813</ele>
        <time>2019-12-27T13:21:27.000Z</time>
      </trkpt>
      <trkpt lat="31.088957" lon="-7.915215">
        <ele>2624.60009765625</ele>
        <time>2019-12-27T13:21:30.000Z</time>
      </trkpt>
      <trkpt lat="31.088941" lon="-7.91523">
        <ele>2625.21974537813</ele>
        <time>2019-12-27T13:21:36.000Z</time>
      </trkpt>
      <trkpt lat="31.088938" lon="-7.915258">
        <ele>2626</ele>
        <time>2019-12-27T13:21:42.000Z</time>
      </trkpt>
      <trkpt lat="31.088922" lon="-7.915272">
        <ele>2626.6198918625</ele>
        <time>2019-12-27T13:21:46.000Z</time>
      </trkpt>
      <trkpt lat="31.088909" lon="-7.91529">
        <ele>2627.19995117188</ele>
        <time>2019-12-27T13:21:49.000Z</time>
      </trkpt>
      <trkpt lat="31.088886" lon="-7.915295">
        <ele>2627.41972071875</ele>
        <time>2019-12-27T13:21:51.000Z</time>
      </trkpt>
      <trkpt lat="31.088858" lon="-7.915294">
        <ele>2628.01979420625</ele>
        <time>2019-12-27T13:21:55.000Z</time>
      </trkpt>
      <trkpt lat="31.088835" lon="-7.915298">
        <ele>2628.81984303438</ele>
        <time>2019-12-27T13:21:59.000Z</time>
      </trkpt>
      <trkpt lat="31.088813" lon="-7.915303">
        <ele>2629.41972071875</ele>
        <time>2019-12-27T13:22:02.000Z</time>
      </trkpt>
      <trkpt lat="31.088797" lon="-7.915314">
        <ele>2629.6198918625</ele>
        <time>2019-12-27T13:22:04.000Z</time>
      </trkpt>
      <trkpt lat="31.088784" lon="-7.915345">
        <ele>2630.41972071875</ele>
        <time>2019-12-27T13:22:07.000Z</time>
      </trkpt>
      <trkpt lat="31.088774" lon="-7.915372">
        <ele>2631.439514925</ele>
        <time>2019-12-27T13:22:12.000Z</time>
      </trkpt>
      <trkpt lat="31.088762" lon="-7.91539">
        <ele>2632.21974537813</ele>
        <time>2019-12-27T13:22:15.000Z</time>
      </trkpt>
      <trkpt lat="31.088736" lon="-7.9154">
        <ele>2633.01979420625</ele>
        <time>2019-12-27T13:22:19.000Z</time>
      </trkpt>
      <trkpt lat="31.088714" lon="-7.91541">
        <ele>2633.6198918625</ele>
        <time>2019-12-27T13:22:22.000Z</time>
      </trkpt>
      <trkpt lat="31.088694" lon="-7.91542">
        <ele>2634.19995117188</ele>
        <time>2019-12-27T13:22:26.000Z</time>
      </trkpt>
      <trkpt lat="31.088672" lon="-7.915428">
        <ele>2634.60009765625</ele>
        <time>2019-12-27T13:22:30.000Z</time>
      </trkpt>
      <trkpt lat="31.088653" lon="-7.915442">
        <ele>2634.81984303438</ele>
        <time>2019-12-27T13:22:34.000Z</time>
      </trkpt>
      <trkpt lat="31.088646" lon="-7.915463">
        <ele>2635.19995117188</ele>
        <time>2019-12-27T13:22:38.000Z</time>
      </trkpt>
      <trkpt lat="31.088634" lon="-7.915488">
        <ele>2635.21974537813</ele>
        <time>2019-12-27T13:22:42.000Z</time>
      </trkpt>
      <trkpt lat="31.088611" lon="-7.915485">
        <ele>2635.39990234375</ele>
        <time>2019-12-27T13:22:45.000Z</time>
      </trkpt>
      <trkpt lat="31.088598" lon="-7.915502">
        <ele>2635.6198918625</ele>
        <time>2019-12-27T13:22:49.000Z</time>
      </trkpt>
      <trkpt lat="31.088579" lon="-7.915508">
        <ele>2635.81984303438</ele>
        <time>2019-12-27T13:22:52.000Z</time>
      </trkpt>
      <trkpt lat="31.08856" lon="-7.915515">
        <ele>2636.21974537813</ele>
        <time>2019-12-27T13:22:57.000Z</time>
      </trkpt>
      <trkpt lat="31.088544" lon="-7.915527">
        <ele>2636.60009765625</ele>
        <time>2019-12-27T13:23:00.000Z</time>
      </trkpt>
      <trkpt lat="31.088528" lon="-7.91554">
        <ele>2636.81984303438</ele>
        <time>2019-12-27T13:23:02.000Z</time>
      </trkpt>
      <trkpt lat="31.088509" lon="-7.915553">
        <ele>2637.19995117188</ele>
        <time>2019-12-27T13:23:05.000Z</time>
      </trkpt>
      <trkpt lat="31.088486" lon="-7.915553">
        <ele>2637.41972071875</ele>
        <time>2019-12-27T13:23:08.000Z</time>
      </trkpt>
      <trkpt lat="31.088467" lon="-7.915565">
        <ele>2638.01979420625</ele>
        <time>2019-12-27T13:23:13.000Z</time>
      </trkpt>
      <trkpt lat="31.088458" lon="-7.91559">
        <ele>2638.21974537813</ele>
        <time>2019-12-27T13:23:14.000Z</time>
      </trkpt>
      <trkpt lat="31.088448" lon="-7.915609">
        <ele>2638.60009765625</ele>
        <time>2019-12-27T13:23:16.000Z</time>
      </trkpt>
      <trkpt lat="31.088432" lon="-7.915625">
        <ele>2639</ele>
        <time>2019-12-27T13:23:19.000Z</time>
      </trkpt>
      <trkpt lat="31.088413" lon="-7.915637">
        <ele>2639.21974537813</ele>
        <time>2019-12-27T13:23:22.000Z</time>
      </trkpt>
      <trkpt lat="31.088397" lon="-7.915649">
        <ele>2639.80004882813</ele>
        <time>2019-12-27T13:23:25.000Z</time>
      </trkpt>
      <trkpt lat="31.088381" lon="-7.915662">
        <ele>2640.41972071875</ele>
        <time>2019-12-27T13:23:30.000Z</time>
      </trkpt>
      <trkpt lat="31.088368" lon="-7.915678">
        <ele>2641</ele>
        <time>2019-12-27T13:23:34.000Z</time>
      </trkpt>
      <trkpt lat="31.088349" lon="-7.915685">
        <ele>2641.41972071875</ele>
        <time>2019-12-27T13:23:38.000Z</time>
      </trkpt>
      <trkpt lat="31.088323" lon="-7.915678">
        <ele>2642.41972071875</ele>
        <time>2019-12-27T13:23:44.000Z</time>
      </trkpt>
      <trkpt lat="31.088301" lon="-7.91568">
        <ele>2643.01979420625</ele>
        <time>2019-12-27T13:23:48.000Z</time>
      </trkpt>
      <trkpt lat="31.088288" lon="-7.915695">
        <ele>2643.6198918625</ele>
        <time>2019-12-27T13:23:51.000Z</time>
      </trkpt>
      <trkpt lat="31.088285" lon="-7.91572">
        <ele>2644.01979420625</ele>
        <time>2019-12-27T13:23:54.000Z</time>
      </trkpt>
      <trkpt lat="31.088282" lon="-7.915749">
        <ele>2644.41972071875</ele>
        <time>2019-12-27T13:23:56.000Z</time>
      </trkpt>
      <trkpt lat="31.088275" lon="-7.915778">
        <ele>2644.63968606875</ele>
        <time>2019-12-27T13:23:57.000Z</time>
      </trkpt>
      <trkpt lat="31.088262" lon="-7.915795">
        <ele>2645.21974537813</ele>
        <time>2019-12-27T13:23:59.000Z</time>
      </trkpt>
      <trkpt lat="31.08824" lon="-7.915818">
        <ele>2645.63968606875</ele>
        <time>2019-12-27T13:24:02.000Z</time>
      </trkpt>
      <trkpt lat="31.088224" lon="-7.915835">
        <ele>2646.21974537813</ele>
        <time>2019-12-27T13:24:05.000Z</time>
      </trkpt>
      <trkpt lat="31.088208" lon="-7.915858">
        <ele>2646.80004882813</ele>
        <time>2019-12-27T13:24:08.000Z</time>
      </trkpt>
      <trkpt lat="31.088198" lon="-7.91588">
        <ele>2647.21974537813</ele>
        <time>2019-12-27T13:24:11.000Z</time>
      </trkpt>
      <trkpt lat="31.088186" lon="-7.915895">
        <ele>2647.80004882813</ele>
        <time>2019-12-27T13:24:16.000Z</time>
      </trkpt>
      <trkpt lat="31.088166" lon="-7.915905">
        <ele>2648.19995117188</ele>
        <time>2019-12-27T13:24:20.000Z</time>
      </trkpt>
      <trkpt lat="31.088157" lon="-7.915925">
        <ele>2648.60009765625</ele>
        <time>2019-12-27T13:24:24.000Z</time>
      </trkpt>
      <trkpt lat="31.088141" lon="-7.91594">
        <ele>2648.80004882813</ele>
        <time>2019-12-27T13:24:26.000Z</time>
      </trkpt>
      <trkpt lat="31.088125" lon="-7.915955">
        <ele>2649</ele>
        <time>2019-12-27T13:24:29.000Z</time>
      </trkpt>
      <trkpt lat="31.088102" lon="-7.915962">
        <ele>2649.19995117188</ele>
        <time>2019-12-27T13:24:31.000Z</time>
      </trkpt>
      <trkpt lat="31.08808" lon="-7.915972">
        <ele>2649.41972071875</ele>
        <time>2019-12-27T13:24:34.000Z</time>
      </trkpt>
      <trkpt lat="31.088067" lon="-7.915989">
        <ele>2649.80004882813</ele>
        <time>2019-12-27T13:24:38.000Z</time>
      </trkpt>
      <trkpt lat="31.088042" lon="-7.916">
        <ele>2650.21974537813</ele>
        <time>2019-12-27T13:24:44.000Z</time>
      </trkpt>
      <trkpt lat="31.088029" lon="-7.91602">
        <ele>2650.60009765625</ele>
        <time>2019-12-27T13:24:47.000Z</time>
      </trkpt>
      <trkpt lat="31.08801" lon="-7.916043">
        <ele>2650.81984303438</ele>
        <time>2019-12-27T13:24:51.000Z</time>
      </trkpt>
      <trkpt lat="31.08801" lon="-7.916066">
        <ele>2651.19995117188</ele>
        <time>2019-12-27T13:24:54.000Z</time>
      </trkpt>
      <trkpt lat="31.087997" lon="-7.916082">
        <ele>2651.80004882813</ele>
        <time>2019-12-27T13:25:01.000Z</time>
      </trkpt>
      <trkpt lat="31.087974" lon="-7.916092">
        <ele>2652.21974537813</ele>
        <time>2019-12-27T13:25:06.000Z</time>
      </trkpt>
      <trkpt lat="31.087955" lon="-7.916103">
        <ele>2652.60009765625</ele>
        <time>2019-12-27T13:25:09.000Z</time>
      </trkpt>
      <trkpt lat="31.087946" lon="-7.916128">
        <ele>2652.80004882813</ele>
        <time>2019-12-27T13:25:11.000Z</time>
      </trkpt>
      <trkpt lat="31.08793" lon="-7.916143">
        <ele>2653.01979420625</ele>
        <time>2019-12-27T13:25:13.000Z</time>
      </trkpt>
      <trkpt lat="31.08791" lon="-7.916163">
        <ele>2653.41972071875</ele>
        <time>2019-12-27T13:25:17.000Z</time>
      </trkpt>
      <trkpt lat="31.087891" lon="-7.916187">
        <ele>2654</ele>
        <time>2019-12-27T13:25:21.000Z</time>
      </trkpt>
      <trkpt lat="31.087875" lon="-7.916198">
        <ele>2654.39990234375</ele>
        <time>2019-12-27T13:25:25.000Z</time>
      </trkpt>
      <trkpt lat="31.087853" lon="-7.916202">
        <ele>2654.81984303438</ele>
        <time>2019-12-27T13:25:29.000Z</time>
      </trkpt>
      <trkpt lat="31.087834" lon="-7.91621">
        <ele>2655.21974537813</ele>
        <time>2019-12-27T13:25:33.000Z</time>
      </trkpt>
      <trkpt lat="31.087827" lon="-7.91623">
        <ele>2655.6198918625</ele>
        <time>2019-12-27T13:25:38.000Z</time>
      </trkpt>
      <trkpt lat="31.087811" lon="-7.916246">
        <ele>2656.60009765625</ele>
        <time>2019-12-27T13:25:47.000Z</time>
      </trkpt>
      <trkpt lat="31.087792" lon="-7.91625">
        <ele>2657</ele>
        <time>2019-12-27T13:25:50.000Z</time>
      </trkpt>
      <trkpt lat="31.087773" lon="-7.916252">
        <ele>2657.39990234375</ele>
        <time>2019-12-27T13:25:53.000Z</time>
      </trkpt>
      <trkpt lat="31.087763" lon="-7.916272">
        <ele>2657.6198918625</ele>
        <time>2019-12-27T13:25:55.000Z</time>
      </trkpt>
      <trkpt lat="31.087747" lon="-7.916288">
        <ele>2658.41972071875</ele>
        <time>2019-12-27T13:26:00.000Z</time>
      </trkpt>
      <trkpt lat="31.087734" lon="-7.916305">
        <ele>2659.01907184658</ele>
        <time>2019-12-27T13:26:03.000Z</time>
      </trkpt>
      <trkpt lat="31.087741" lon="-7.916335">
        <ele>2659.41972071875</ele>
        <time>2019-12-27T13:26:05.000Z</time>
      </trkpt>
      <trkpt lat="31.087734" lon="-7.916355">
        <ele>2660.01979420625</ele>
        <time>2019-12-27T13:26:08.000Z</time>
      </trkpt>
      <trkpt lat="31.087728" lon="-7.916375">
        <ele>2660.81984303438</ele>
        <time>2019-12-27T13:26:12.000Z</time>
      </trkpt>
      <trkpt lat="31.087712" lon="-7.916394">
        <ele>2661.41972071875</ele>
        <time>2019-12-27T13:26:16.000Z</time>
      </trkpt>
      <trkpt lat="31.087693" lon="-7.916411">
        <ele>2662.19995117188</ele>
        <time>2019-12-27T13:26:19.000Z</time>
      </trkpt>
      <trkpt lat="31.087674" lon="-7.916429">
        <ele>2662.81976429867</ele>
        <time>2019-12-27T13:26:23.000Z</time>
      </trkpt>
      <trkpt lat="31.087661" lon="-7.916446">
        <ele>2663.41972071875</ele>
        <time>2019-12-27T13:26:26.000Z</time>
      </trkpt>
      <trkpt lat="31.087638" lon="-7.916457">
        <ele>2664.6198918625</ele>
        <time>2019-12-27T13:26:32.000Z</time>
      </trkpt>
      <trkpt lat="31.087616" lon="-7.916454">
        <ele>2665.21974537813</ele>
        <time>2019-12-27T13:26:35.000Z</time>
      </trkpt>
      <trkpt lat="31.087603" lon="-7.91647">
        <ele>2666.01979420625</ele>
        <time>2019-12-27T13:26:39.000Z</time>
      </trkpt>
      <trkpt lat="31.087581" lon="-7.91648">
        <ele>2667.01979420625</ele>
        <time>2019-12-27T13:26:45.000Z</time>
      </trkpt>
      <trkpt lat="31.087562" lon="-7.916478">
        <ele>2667.81984303438</ele>
        <time>2019-12-27T13:26:49.000Z</time>
      </trkpt>
      <trkpt lat="31.087539" lon="-7.916482">
        <ele>2668.21974537813</ele>
        <time>2019-12-27T13:26:52.000Z</time>
      </trkpt>
      <trkpt lat="31.087517" lon="-7.916491">
        <ele>2669.19995117188</ele>
        <time>2019-12-27T13:26:58.000Z</time>
      </trkpt>
      <trkpt lat="31.087494" lon="-7.916502">
        <ele>2669.60009765625</ele>
        <time>2019-12-27T13:27:01.000Z</time>
      </trkpt>
      <trkpt lat="31.087469" lon="-7.91651">
        <ele>2670.01979420625</ele>
        <time>2019-12-27T13:27:05.000Z</time>
      </trkpt>
      <trkpt lat="31.08745" lon="-7.916525">
        <ele>2670.60009765625</ele>
        <time>2019-12-27T13:27:08.000Z</time>
      </trkpt>
      <trkpt lat="31.087434" lon="-7.916537">
        <ele>2670.81984303438</ele>
        <time>2019-12-27T13:27:10.000Z</time>
      </trkpt>
      <trkpt lat="31.087414" lon="-7.916551">
        <ele>2671.39990234375</ele>
        <time>2019-12-27T13:27:13.000Z</time>
      </trkpt>
      <trkpt lat="31.087405" lon="-7.916572">
        <ele>2671.81984303438</ele>
        <time>2019-12-27T13:27:16.000Z</time>
      </trkpt>
      <trkpt lat="31.087392" lon="-7.916592">
        <ele>2672.41972071875</ele>
        <time>2019-12-27T13:27:21.000Z</time>
      </trkpt>
      <trkpt lat="31.087373" lon="-7.916602">
        <ele>2673.01979420625</ele>
        <time>2019-12-27T13:27:25.000Z</time>
      </trkpt>
      <trkpt lat="31.087354" lon="-7.91662">
        <ele>2673.41972071875</ele>
        <time>2019-12-27T13:27:28.000Z</time>
      </trkpt>
      <trkpt lat="31.087334" lon="-7.91663">
        <ele>2674</ele>
        <time>2019-12-27T13:27:32.000Z</time>
      </trkpt>
      <trkpt lat="31.087318" lon="-7.91664">
        <ele>2674.41972071875</ele>
        <time>2019-12-27T13:27:37.000Z</time>
      </trkpt>
      <trkpt lat="31.087302" lon="-7.91665">
        <ele>2674.80004882813</ele>
        <time>2019-12-27T13:27:41.000Z</time>
      </trkpt>
      <trkpt lat="31.087293" lon="-7.916673">
        <ele>2675</ele>
        <time>2019-12-27T13:27:44.000Z</time>
      </trkpt>
      <trkpt lat="31.087274" lon="-7.916689">
        <ele>2675.21974537813</ele>
        <time>2019-12-27T13:27:47.000Z</time>
      </trkpt>
      <trkpt lat="31.087264" lon="-7.91671">
        <ele>2675.41972071875</ele>
        <time>2019-12-27T13:27:50.000Z</time>
      </trkpt>
      <trkpt lat="31.087248" lon="-7.916726">
        <ele>2675.80004882813</ele>
        <time>2019-12-27T13:27:55.000Z</time>
      </trkpt>
      <trkpt lat="31.087226" lon="-7.916732">
        <ele>2676</ele>
        <time>2019-12-27T13:27:59.000Z</time>
      </trkpt>
      <trkpt lat="31.087206" lon="-7.916745">
        <ele>2676.19995117188</ele>
        <time>2019-12-27T13:28:02.000Z</time>
      </trkpt>
      <trkpt lat="31.08719" lon="-7.916755">
        <ele>2676.21974537813</ele>
        <time>2019-12-27T13:28:04.000Z</time>
      </trkpt>
      <trkpt lat="31.087174" lon="-7.916766">
        <ele>2676.60009765625</ele>
        <time>2019-12-27T13:28:08.000Z</time>
      </trkpt>
      <trkpt lat="31.087152" lon="-7.916778">
        <ele>2676.80004882813</ele>
        <time>2019-12-27T13:28:12.000Z</time>
      </trkpt>
      <trkpt lat="31.087133" lon="-7.916788">
        <ele>2677</ele>
        <time>2019-12-27T13:28:15.000Z</time>
      </trkpt>
      <trkpt lat="31.08712" lon="-7.916803">
        <ele>2677.01979420625</ele>
        <time>2019-12-27T13:28:17.000Z</time>
      </trkpt>
      <trkpt lat="31.087107" lon="-7.916822">
        <ele>2677.39990234375</ele>
        <time>2019-12-27T13:28:21.000Z</time>
      </trkpt>
      <trkpt lat="31.087088" lon="-7.916834">
        <ele>2677.6198918625</ele>
        <time>2019-12-27T13:28:27.000Z</time>
      </trkpt>
      <trkpt lat="31.087075" lon="-7.916854">
        <ele>2678</ele>
        <time>2019-12-27T13:28:33.000Z</time>
      </trkpt>
      <trkpt lat="31.087056" lon="-7.916845">
        <ele>2678.41972071875</ele>
        <time>2019-12-27T13:28:39.000Z</time>
      </trkpt>
      <trkpt lat="31.087034" lon="-7.91685">
        <ele>2678.80004882813</ele>
        <time>2019-12-27T13:28:42.000Z</time>
      </trkpt>
      <trkpt lat="31.087014" lon="-7.916855">
        <ele>2679</ele>
        <time>2019-12-27T13:28:44.000Z</time>
      </trkpt>
      <trkpt lat="31.086998" lon="-7.916868">
        <ele>2679.21974537813</ele>
        <time>2019-12-27T13:28:47.000Z</time>
      </trkpt>
      <trkpt lat="31.086995" lon="-7.916891">
        <ele>2679.80004882813</ele>
        <time>2019-12-27T13:28:51.000Z</time>
      </trkpt>
      <trkpt lat="31.086973" lon="-7.916885">
        <ele>2680.60009765625</ele>
        <time>2019-12-27T13:28:57.000Z</time>
      </trkpt>
      <trkpt lat="31.086957" lon="-7.916875">
        <ele>2681.41972071875</ele>
        <time>2019-12-27T13:29:02.000Z</time>
      </trkpt>
      <trkpt lat="31.086934" lon="-7.91688">
        <ele>2682.21974537813</ele>
        <time>2019-12-27T13:29:06.000Z</time>
      </trkpt>
      <trkpt lat="31.086918" lon="-7.916891">
        <ele>2683.0395884125</ele>
        <time>2019-12-27T13:29:10.000Z</time>
      </trkpt>
      <trkpt lat="31.086915" lon="-7.916918">
        <ele>2684.01979420625</ele>
        <time>2019-12-27T13:29:14.000Z</time>
      </trkpt>
      <trkpt lat="31.08689" lon="-7.91693">
        <ele>2685.0395884125</ele>
        <time>2019-12-27T13:29:18.000Z</time>
      </trkpt>
      <trkpt lat="31.08687" lon="-7.916942">
        <ele>2686.01979420625</ele>
        <time>2019-12-27T13:29:21.000Z</time>
      </trkpt>
      <trkpt lat="31.086848" lon="-7.916946">
        <ele>2687.01979420625</ele>
        <time>2019-12-27T13:29:24.000Z</time>
      </trkpt>
      <trkpt lat="31.086829" lon="-7.916948">
        <ele>2687.63968606875</ele>
        <time>2019-12-27T13:29:26.000Z</time>
      </trkpt>
      <trkpt lat="31.086806" lon="-7.91696">
        <ele>2688.439514925</ele>
        <time>2019-12-27T13:29:29.000Z</time>
      </trkpt>
      <trkpt lat="31.086787" lon="-7.916963">
        <ele>2689.6198918625</ele>
        <time>2019-12-27T13:29:32.000Z</time>
      </trkpt>
      <trkpt lat="31.086765" lon="-7.916968">
        <ele>2690.6198918625</ele>
        <time>2019-12-27T13:29:35.000Z</time>
      </trkpt>
      <trkpt lat="31.086746" lon="-7.916977">
        <ele>2691.0395884125</ele>
        <time>2019-12-27T13:29:37.000Z</time>
      </trkpt>
      <trkpt lat="31.086726" lon="-7.916988">
        <ele>2691.83963724063</ele>
        <time>2019-12-27T13:29:39.000Z</time>
      </trkpt>
      <trkpt lat="31.086701" lon="-7.917005">
        <ele>2692.81984303438</ele>
        <time>2019-12-27T13:29:42.000Z</time>
      </trkpt>
      <trkpt lat="31.086685" lon="-7.917018">
        <ele>2693.39990234375</ele>
        <time>2019-12-27T13:29:44.000Z</time>
      </trkpt>
      <trkpt lat="31.086666" lon="-7.917033">
        <ele>2693.81984303438</ele>
        <time>2019-12-27T13:29:46.000Z</time>
      </trkpt>
      <trkpt lat="31.08665" lon="-7.917046">
        <ele>2694.23956375312</ele>
        <time>2019-12-27T13:29:48.000Z</time>
      </trkpt>
      <trkpt lat="31.086637" lon="-7.917066">
        <ele>2694.81984303438</ele>
        <time>2019-12-27T13:29:50.000Z</time>
      </trkpt>
      <trkpt lat="31.086618" lon="-7.917075">
        <ele>2695.41972071875</ele>
        <time>2019-12-27T13:29:52.000Z</time>
      </trkpt>
      <trkpt lat="31.086608" lon="-7.917098">
        <ele>2695.83963724063</ele>
        <time>2019-12-27T13:29:54.000Z</time>
      </trkpt>
      <trkpt lat="31.086592" lon="-7.91711">
        <ele>2696.39990234375</ele>
        <time>2019-12-27T13:29:56.000Z</time>
      </trkpt>
      <trkpt lat="31.086586" lon="-7.91714">
        <ele>2696.6198918625</ele>
        <time>2019-12-27T13:29:58.000Z</time>
      </trkpt>
      <trkpt lat="31.086557" lon="-7.917143">
        <ele>2697.19995117188</ele>
        <time>2019-12-27T13:30:00.000Z</time>
      </trkpt>
      <trkpt lat="31.086541" lon="-7.91716">
        <ele>2697.6198918625</ele>
        <time>2019-12-27T13:30:03.000Z</time>
      </trkpt>
      <trkpt lat="31.086554" lon="-7.9172">
        <ele>2698.21974537813</ele>
        <time>2019-12-27T13:30:06.000Z</time>
      </trkpt>
      <trkpt lat="31.086547" lon="-7.917223">
        <ele>2699.01979420625</ele>
        <time>2019-12-27T13:30:10.000Z</time>
      </trkpt>
      <trkpt lat="31.086538" lon="-7.917243">
        <ele>2699.21974537813</ele>
        <time>2019-12-27T13:30:12.000Z</time>
      </trkpt>
      <trkpt lat="31.086528" lon="-7.917268">
        <ele>2699.6198918625</ele>
        <time>2019-12-27T13:30:15.000Z</time>
      </trkpt>
      <trkpt lat="31.086522" lon="-7.917297">
        <ele>2700.21974537813</ele>
        <time>2019-12-27T13:30:18.000Z</time>
      </trkpt>
      <trkpt lat="31.086512" lon="-7.91732">
        <ele>2700.6198918625</ele>
        <time>2019-12-27T13:30:21.000Z</time>
      </trkpt>
      <trkpt lat="31.086496" lon="-7.91734">
        <ele>2701.01979420625</ele>
        <time>2019-12-27T13:30:24.000Z</time>
      </trkpt>
      <trkpt lat="31.08648" lon="-7.91736">
        <ele>2701.6198918625</ele>
        <time>2019-12-27T13:30:27.000Z</time>
      </trkpt>
      <trkpt lat="31.086474" lon="-7.917389">
        <ele>2702.21974537813</ele>
        <time>2019-12-27T13:30:30.000Z</time>
      </trkpt>
      <trkpt lat="31.086467" lon="-7.91741">
        <ele>2702.6198918625</ele>
        <time>2019-12-27T13:30:32.000Z</time>
      </trkpt>
      <trkpt lat="31.086458" lon="-7.917432">
        <ele>2703.01979420625</ele>
        <time>2019-12-27T13:30:34.000Z</time>
      </trkpt>
      <trkpt lat="31.086448" lon="-7.91746">
        <ele>2703.6198918625</ele>
        <time>2019-12-27T13:30:37.000Z</time>
      </trkpt>
      <trkpt lat="31.086442" lon="-7.917486">
        <ele>2704.21974537813</ele>
        <time>2019-12-27T13:30:39.000Z</time>
      </trkpt>
      <trkpt lat="31.086429" lon="-7.917506">
        <ele>2705</ele>
        <time>2019-12-27T13:30:42.000Z</time>
      </trkpt>
      <trkpt lat="31.086413" lon="-7.917522">
        <ele>2705.439514925</ele>
        <time>2019-12-27T13:30:44.000Z</time>
      </trkpt>
      <trkpt lat="31.0864" lon="-7.917542">
        <ele>2705.83963724063</ele>
        <time>2019-12-27T13:30:46.000Z</time>
      </trkpt>
      <trkpt lat="31.086381" lon="-7.917551">
        <ele>2706.6198918625</ele>
        <time>2019-12-27T13:30:48.000Z</time>
      </trkpt>
      <trkpt lat="31.086374" lon="-7.917577">
        <ele>2707.0395884125</ele>
        <time>2019-12-27T13:30:50.000Z</time>
      </trkpt>
      <trkpt lat="31.086355" lon="-7.917598">
        <ele>2707.83963724063</ele>
        <time>2019-12-27T13:30:53.000Z</time>
      </trkpt>
      <trkpt lat="31.086339" lon="-7.917614">
        <ele>2708.41972071875</ele>
        <time>2019-12-27T13:30:55.000Z</time>
      </trkpt>
      <trkpt lat="31.08632" lon="-7.917637">
        <ele>2709.21974537813</ele>
        <time>2019-12-27T13:30:58.000Z</time>
      </trkpt>
      <trkpt lat="31.086307" lon="-7.917658">
        <ele>2709.81984303438</ele>
        <time>2019-12-27T13:31:01.000Z</time>
      </trkpt>
      <trkpt lat="31.086304" lon="-7.917685">
        <ele>2710.41972071875</ele>
        <time>2019-12-27T13:31:03.000Z</time>
      </trkpt>
      <trkpt lat="31.086294" lon="-7.917718">
        <ele>2710.81984303438</ele>
        <time>2019-12-27T13:31:05.000Z</time>
      </trkpt>
      <trkpt lat="31.086282" lon="-7.91775">
        <ele>2711.01979420625</ele>
        <time>2019-12-27T13:31:07.000Z</time>
      </trkpt>
      <trkpt lat="31.086272" lon="-7.917772">
        <ele>2711.41972071875</ele>
        <time>2019-12-27T13:31:09.000Z</time>
      </trkpt>
      <trkpt lat="31.08625" lon="-7.917774">
        <ele>2712.01979420625</ele>
        <time>2019-12-27T13:31:13.000Z</time>
      </trkpt>
      <trkpt lat="31.08623" lon="-7.917783">
        <ele>2712.39990234375</ele>
        <time>2019-12-27T13:31:16.000Z</time>
      </trkpt>
      <trkpt lat="31.086208" lon="-7.91779">
        <ele>2712.80004882813</ele>
        <time>2019-12-27T13:31:21.000Z</time>
      </trkpt>
      <trkpt lat="31.086198" lon="-7.91781">
        <ele>2712.81984303438</ele>
        <time>2019-12-27T13:31:23.000Z</time>
      </trkpt>
      <trkpt lat="31.086182" lon="-7.917823">
        <ele>2713</ele>
        <time>2019-12-27T13:31:25.000Z</time>
      </trkpt>
      <trkpt lat="31.086163" lon="-7.917845">
        <ele>2713</ele>
        <time>2019-12-27T13:31:27.000Z</time>
      </trkpt>
      <trkpt lat="31.08615" lon="-7.917866">
        <ele>2713</ele>
        <time>2019-12-27T13:31:29.000Z</time>
      </trkpt>
      <trkpt lat="31.086144" lon="-7.91789">
        <ele>2713</ele>
        <time>2019-12-27T13:31:31.000Z</time>
      </trkpt>
      <trkpt lat="31.086138" lon="-7.917911">
        <ele>2713</ele>
        <time>2019-12-27T13:31:33.000Z</time>
      </trkpt>
      <trkpt lat="31.086125" lon="-7.91793">
        <ele>2713</ele>
        <time>2019-12-27T13:31:35.000Z</time>
      </trkpt>
      <trkpt lat="31.086109" lon="-7.917955">
        <ele>2712.80004882813</ele>
        <time>2019-12-27T13:31:38.000Z</time>
      </trkpt>
      <trkpt lat="31.08609" lon="-7.91798">
        <ele>2712.80004882813</ele>
        <time>2019-12-27T13:31:41.000Z</time>
      </trkpt>
      <trkpt lat="31.086083" lon="-7.918003">
        <ele>2712.60009765625</ele>
        <time>2019-12-27T13:31:44.000Z</time>
      </trkpt>
      <trkpt lat="31.086064" lon="-7.918014">
        <ele>2712.39990234375</ele>
        <time>2019-12-27T13:31:47.000Z</time>
      </trkpt>
      <trkpt lat="31.086045" lon="-7.918015">
        <ele>2712.39990234375</ele>
        <time>2019-12-27T13:31:50.000Z</time>
      </trkpt>
      <trkpt lat="31.086022" lon="-7.918017">
        <ele>2712.19995117188</ele>
        <time>2019-12-27T13:31:53.000Z</time>
      </trkpt>
      <trkpt lat="31.086003" lon="-7.918027">
        <ele>2712.18015696563</ele>
        <time>2019-12-27T13:31:56.000Z</time>
      </trkpt>
      <trkpt lat="31.08599" lon="-7.918052">
        <ele>2712</ele>
        <time>2019-12-27T13:32:00.000Z</time>
      </trkpt>
      <trkpt lat="31.08599" lon="-7.918077">
        <ele>2712</ele>
        <time>2019-12-27T13:32:03.000Z</time>
      </trkpt>
      <trkpt lat="31.085971" lon="-7.918082">
        <ele>2711.80004882813</ele>
        <time>2019-12-27T13:32:08.000Z</time>
      </trkpt>
      <trkpt lat="31.085952" lon="-7.918098">
        <ele>2711.80004882813</ele>
        <time>2019-12-27T13:32:10.000Z</time>
      </trkpt>
      <trkpt lat="31.085933" lon="-7.918103">
        <ele>2711.78025462188</ele>
        <time>2019-12-27T13:32:12.000Z</time>
      </trkpt>
      <trkpt lat="31.085926" lon="-7.918126">
        <ele>2711.60009765625</ele>
        <time>2019-12-27T13:32:13.000Z</time>
      </trkpt>
      <trkpt lat="31.085914" lon="-7.918162">
        <ele>2711.60009765625</ele>
        <time>2019-12-27T13:32:15.000Z</time>
      </trkpt>
      <trkpt lat="31.085901" lon="-7.918186">
        <ele>2711.39990234375</ele>
        <time>2019-12-27T13:32:17.000Z</time>
      </trkpt>
      <trkpt lat="31.085891" lon="-7.91821">
        <ele>2711.3801081375</ele>
        <time>2019-12-27T13:32:19.000Z</time>
      </trkpt>
      <trkpt lat="31.085878" lon="-7.918234">
        <ele>2711</ele>
        <time>2019-12-27T13:32:22.000Z</time>
      </trkpt>
      <trkpt lat="31.085869" lon="-7.918258">
        <ele>2710.60009765625</ele>
        <time>2019-12-27T13:32:25.000Z</time>
      </trkpt>
      <trkpt lat="31.085862" lon="-7.918287">
        <ele>2710.19995117188</ele>
        <time>2019-12-27T13:32:28.000Z</time>
      </trkpt>
      <trkpt lat="31.085869" lon="-7.918308">
        <ele>2709.560485075</ele>
        <time>2019-12-27T13:32:31.000Z</time>
      </trkpt>
      <trkpt lat="31.085869" lon="-7.918337">
        <ele>2708.58027928125</ele>
        <time>2019-12-27T13:32:35.000Z</time>
      </trkpt>
      <trkpt lat="31.085856" lon="-7.918358">
        <ele>2708.18015696563</ele>
        <time>2019-12-27T13:32:38.000Z</time>
      </trkpt>
      <trkpt lat="31.085846" lon="-7.918382">
        <ele>2707.80004882813</ele>
        <time>2019-12-27T13:32:42.000Z</time>
      </trkpt>
      <trkpt lat="31.085827" lon="-7.918386">
        <ele>2707.60009765625</ele>
        <time>2019-12-27T13:32:47.000Z</time>
      </trkpt>
      <trkpt lat="31.085805" lon="-7.918385">
        <ele>2707.60009765625</ele>
        <time>2019-12-27T13:32:51.000Z</time>
      </trkpt>
      <trkpt lat="31.085782" lon="-7.918392">
        <ele>2707.60009765625</ele>
        <time>2019-12-27T13:32:54.000Z</time>
      </trkpt>
      <trkpt lat="31.085773" lon="-7.918418">
        <ele>2707.60009765625</ele>
        <time>2019-12-27T13:32:57.000Z</time>
      </trkpt>
      <trkpt lat="31.08576" lon="-7.91844">
        <ele>2707.60009765625</ele>
        <time>2019-12-27T13:33:00.000Z</time>
      </trkpt>
      <trkpt lat="31.085725" lon="-7.918435">
        <ele>2707.6198918625</ele>
        <time>2019-12-27T13:33:02.000Z</time>
      </trkpt>
      <trkpt lat="31.085706" lon="-7.91846">
        <ele>2707.80004882813</ele>
        <time>2019-12-27T13:33:05.000Z</time>
      </trkpt>
      <trkpt lat="31.085696" lon="-7.918489">
        <ele>2707.80004882813</ele>
        <time>2019-12-27T13:33:08.000Z</time>
      </trkpt>
      <trkpt lat="31.085693" lon="-7.91851">
        <ele>2707.80004882813</ele>
        <time>2019-12-27T13:33:11.000Z</time>
      </trkpt>
      <trkpt lat="31.085677" lon="-7.918522">
        <ele>2708</ele>
        <time>2019-12-27T13:33:15.000Z</time>
      </trkpt>
      <trkpt lat="31.085674" lon="-7.918549">
        <ele>2708</ele>
        <time>2019-12-27T13:33:19.000Z</time>
      </trkpt>
      <trkpt lat="31.085667" lon="-7.918571">
        <ele>2708.19995117188</ele>
        <time>2019-12-27T13:33:22.000Z</time>
      </trkpt>
      <trkpt lat="31.085661" lon="-7.918594">
        <ele>2708.19995117188</ele>
        <time>2019-12-27T13:33:24.000Z</time>
      </trkpt>
      <trkpt lat="31.085648" lon="-7.91862">
        <ele>2708.39990234375</ele>
        <time>2019-12-27T13:33:28.000Z</time>
      </trkpt>
      <trkpt lat="31.085648" lon="-7.918648">
        <ele>2708.60009765625</ele>
        <time>2019-12-27T13:33:31.000Z</time>
      </trkpt>
      <trkpt lat="31.085635" lon="-7.918668">
        <ele>2708.80004882813</ele>
        <time>2019-12-27T13:33:34.000Z</time>
      </trkpt>
      <trkpt lat="31.085626" lon="-7.918687">
        <ele>2709</ele>
        <time>2019-12-27T13:33:37.000Z</time>
      </trkpt>
      <trkpt lat="31.085603" lon="-7.9187">
        <ele>2709.21974537813</ele>
        <time>2019-12-27T13:33:40.000Z</time>
      </trkpt>
      <trkpt lat="31.085587" lon="-7.918717">
        <ele>2709.60009765625</ele>
        <time>2019-12-27T13:33:43.000Z</time>
      </trkpt>
      <trkpt lat="31.085574" lon="-7.918738">
        <ele>2709.80004882813</ele>
        <time>2019-12-27T13:33:46.000Z</time>
      </trkpt>
      <trkpt lat="31.085568" lon="-7.918763">
        <ele>2710.19995117188</ele>
        <time>2019-12-27T13:33:49.000Z</time>
      </trkpt>
      <trkpt lat="31.085562" lon="-7.918792">
        <ele>2710.60009765625</ele>
        <time>2019-12-27T13:33:53.000Z</time>
      </trkpt>
      <trkpt lat="31.085552" lon="-7.918814">
        <ele>2710.81984303438</ele>
        <time>2019-12-27T13:33:56.000Z</time>
      </trkpt>
      <trkpt lat="31.085539" lon="-7.918834">
        <ele>2711.21966664242</ele>
        <time>2019-12-27T13:33:59.000Z</time>
      </trkpt>
      <trkpt lat="31.085523" lon="-7.918854">
        <ele>2711.60009765625</ele>
        <time>2019-12-27T13:34:02.000Z</time>
      </trkpt>
      <trkpt lat="31.085514" lon="-7.918872">
        <ele>2712</ele>
        <time>2019-12-27T13:34:05.000Z</time>
      </trkpt>
      <trkpt lat="31.085501" lon="-7.918888">
        <ele>2712.41972071875</ele>
        <time>2019-12-27T13:34:08.000Z</time>
      </trkpt>
      <trkpt lat="31.085488" lon="-7.91891">
        <ele>2713</ele>
        <time>2019-12-27T13:34:12.000Z</time>
      </trkpt>
      <trkpt lat="31.085482" lon="-7.91893">
        <ele>2716.41972071875</ele>
        <time>2019-12-27T13:34:33.000Z</time>
      </trkpt>
      <trkpt lat="31.085485" lon="-7.918951">
        <ele>2720</ele>
        <time>2019-12-27T13:34:56.000Z</time>
      </trkpt>
      <trkpt lat="31.085478" lon="-7.918974">
        <ele>2720.39990234375</ele>
        <time>2019-12-27T13:34:59.000Z</time>
      </trkpt>
      <trkpt lat="31.085469" lon="-7.918998">
        <ele>2720.6198918625</ele>
        <time>2019-12-27T13:35:02.000Z</time>
      </trkpt>
      <trkpt lat="31.085459" lon="-7.91902">
        <ele>2720.81984303438</ele>
        <time>2019-12-27T13:35:04.000Z</time>
      </trkpt>
      <trkpt lat="31.08544" lon="-7.919037">
        <ele>2721.19995117188</ele>
        <time>2019-12-27T13:35:07.000Z</time>
      </trkpt>
      <trkpt lat="31.085421" lon="-7.919052">
        <ele>2721.41972071875</ele>
        <time>2019-12-27T13:35:10.000Z</time>
      </trkpt>
      <trkpt lat="31.085414" lon="-7.919078">
        <ele>2721.6198918625</ele>
        <time>2019-12-27T13:35:13.000Z</time>
      </trkpt>
      <trkpt lat="31.085411" lon="-7.919102">
        <ele>2722</ele>
        <time>2019-12-27T13:35:16.000Z</time>
      </trkpt>
      <trkpt lat="31.085398" lon="-7.919117">
        <ele>2722.01979420625</ele>
        <time>2019-12-27T13:35:18.000Z</time>
      </trkpt>
      <trkpt lat="31.085395" lon="-7.919145">
        <ele>2722.39990234375</ele>
        <time>2019-12-27T13:35:21.000Z</time>
      </trkpt>
      <trkpt lat="31.085395" lon="-7.919169">
        <ele>2722.60009765625</ele>
        <time>2019-12-27T13:35:25.000Z</time>
      </trkpt>
      <trkpt lat="31.085382" lon="-7.919189">
        <ele>2722.80004882813</ele>
        <time>2019-12-27T13:35:28.000Z</time>
      </trkpt>
      <trkpt lat="31.085376" lon="-7.919214">
        <ele>2723</ele>
        <time>2019-12-27T13:35:31.000Z</time>
      </trkpt>
      <trkpt lat="31.08537" lon="-7.919234">
        <ele>2723.19995117188</ele>
        <time>2019-12-27T13:35:34.000Z</time>
      </trkpt>
      <trkpt lat="31.085366" lon="-7.91926">
        <ele>2723.41972071875</ele>
        <time>2019-12-27T13:35:38.000Z</time>
      </trkpt>
      <trkpt lat="31.085354" lon="-7.919277">
        <ele>2723.80004882813</ele>
        <time>2019-12-27T13:35:42.000Z</time>
      </trkpt>
      <trkpt lat="31.085341" lon="-7.919298">
        <ele>2724</ele>
        <time>2019-12-27T13:35:45.000Z</time>
      </trkpt>
      <trkpt lat="31.085328" lon="-7.919322">
        <ele>2724.19995117188</ele>
        <time>2019-12-27T13:35:48.000Z</time>
      </trkpt>
      <trkpt lat="31.085318" lon="-7.919343">
        <ele>2724.21974537813</ele>
        <time>2019-12-27T13:35:50.000Z</time>
      </trkpt>
      <trkpt lat="31.085312" lon="-7.919363">
        <ele>2724.41972071875</ele>
        <time>2019-12-27T13:35:53.000Z</time>
      </trkpt>
      <trkpt lat="31.085293" lon="-7.919388">
        <ele>2724.60009765625</ele>
        <time>2019-12-27T13:35:56.000Z</time>
      </trkpt>
      <trkpt lat="31.085283" lon="-7.919407">
        <ele>2724.80004882813</ele>
        <time>2019-12-27T13:35:58.000Z</time>
      </trkpt>
      <trkpt lat="31.08527" lon="-7.919427">
        <ele>2724.81984303438</ele>
        <time>2019-12-27T13:36:00.000Z</time>
      </trkpt>
      <trkpt lat="31.085261" lon="-7.919446">
        <ele>2725</ele>
        <time>2019-12-27T13:36:02.000Z</time>
      </trkpt>
      <trkpt lat="31.085251" lon="-7.919466">
        <ele>2725.19995117188</ele>
        <time>2019-12-27T13:36:04.000Z</time>
      </trkpt>
      <trkpt lat="31.085245" lon="-7.919493">
        <ele>2725.39990234375</ele>
        <time>2019-12-27T13:36:07.000Z</time>
      </trkpt>
      <trkpt lat="31.085248" lon="-7.91952">
        <ele>2725.60009765625</ele>
        <time>2019-12-27T13:36:10.000Z</time>
      </trkpt>
      <trkpt lat="31.085245" lon="-7.919549">
        <ele>2725.81984303438</ele>
        <time>2019-12-27T13:36:13.000Z</time>
      </trkpt>
      <trkpt lat="31.085238" lon="-7.919569">
        <ele>2726.01979420625</ele>
        <time>2019-12-27T13:36:15.000Z</time>
      </trkpt>
      <trkpt lat="31.085238" lon="-7.919594">
        <ele>2726.41972071875</ele>
        <time>2019-12-27T13:36:18.000Z</time>
      </trkpt>
      <trkpt lat="31.085235" lon="-7.91962">
        <ele>2726.81984303438</ele>
        <time>2019-12-27T13:36:21.000Z</time>
      </trkpt>
      <trkpt lat="31.085226" lon="-7.919642">
        <ele>2727.21974537813</ele>
        <time>2019-12-27T13:36:24.000Z</time>
      </trkpt>
      <trkpt lat="31.085216" lon="-7.919665">
        <ele>2727.6198918625</ele>
        <time>2019-12-27T13:36:27.000Z</time>
      </trkpt>
      <trkpt lat="31.085216" lon="-7.91969">
        <ele>2728.01979420625</ele>
        <time>2019-12-27T13:36:30.000Z</time>
      </trkpt>
      <trkpt lat="31.085213" lon="-7.919717">
        <ele>2728.41972071875</ele>
        <time>2019-12-27T13:36:33.000Z</time>
      </trkpt>
      <trkpt lat="31.0852" lon="-7.919742">
        <ele>2729.21974537813</ele>
        <time>2019-12-27T13:36:38.000Z</time>
      </trkpt>
      <trkpt lat="31.08519" lon="-7.91976">
        <ele>2729.81984303438</ele>
        <time>2019-12-27T13:36:41.000Z</time>
      </trkpt>
      <trkpt lat="31.085187" lon="-7.919785">
        <ele>2730.21974537813</ele>
        <time>2019-12-27T13:36:44.000Z</time>
      </trkpt>
      <trkpt lat="31.085171" lon="-7.919808">
        <ele>2730.81984303438</ele>
        <time>2019-12-27T13:36:48.000Z</time>
      </trkpt>
      <trkpt lat="31.085155" lon="-7.919822">
        <ele>2731.41972071875</ele>
        <time>2019-12-27T13:36:51.000Z</time>
      </trkpt>
      <trkpt lat="31.085139" lon="-7.919835">
        <ele>2731.81984303438</ele>
        <time>2019-12-27T13:36:54.000Z</time>
      </trkpt>
      <trkpt lat="31.085133" lon="-7.919857">
        <ele>2732.39990234375</ele>
        <time>2019-12-27T13:36:57.000Z</time>
      </trkpt>
      <trkpt lat="31.085126" lon="-7.919877">
        <ele>2732.80004882813</ele>
        <time>2019-12-27T13:37:00.000Z</time>
      </trkpt>
      <trkpt lat="31.085117" lon="-7.919902">
        <ele>2733.19995117188</ele>
        <time>2019-12-27T13:37:03.000Z</time>
      </trkpt>
      <trkpt lat="31.085117" lon="-7.919923">
        <ele>2733.41972071875</ele>
        <time>2019-12-27T13:37:05.000Z</time>
      </trkpt>
      <trkpt lat="31.085107" lon="-7.919945">
        <ele>2734.21974537813</ele>
        <time>2019-12-27T13:37:11.000Z</time>
      </trkpt>
      <trkpt lat="31.085091" lon="-7.919962">
        <ele>2734.6198918625</ele>
        <time>2019-12-27T13:37:15.000Z</time>
      </trkpt>
      <trkpt lat="31.085085" lon="-7.919985">
        <ele>2735.01979420625</ele>
        <time>2019-12-27T13:37:18.000Z</time>
      </trkpt>
      <trkpt lat="31.085085" lon="-7.920014">
        <ele>2735.39990234375</ele>
        <time>2019-12-27T13:37:21.000Z</time>
      </trkpt>
      <trkpt lat="31.085062" lon="-7.920037">
        <ele>2735.6198918625</ele>
        <time>2019-12-27T13:37:24.000Z</time>
      </trkpt>
      <trkpt lat="31.085046" lon="-7.920055">
        <ele>2736.01979420625</ele>
        <time>2019-12-27T13:37:27.000Z</time>
      </trkpt>
      <trkpt lat="31.08504" lon="-7.920075">
        <ele>2736.39990234375</ele>
        <time>2019-12-27T13:37:30.000Z</time>
      </trkpt>
      <trkpt lat="31.08503" lon="-7.920097">
        <ele>2736.80004882813</ele>
        <time>2019-12-27T13:37:34.000Z</time>
      </trkpt>
      <trkpt lat="31.085024" lon="-7.920122">
        <ele>2737.39990234375</ele>
        <time>2019-12-27T13:37:39.000Z</time>
      </trkpt>
      <trkpt lat="31.085021" lon="-7.920148">
        <ele>2737.81984303438</ele>
        <time>2019-12-27T13:37:44.000Z</time>
      </trkpt>
      <trkpt lat="31.085011" lon="-7.920168">
        <ele>2738.39990234375</ele>
        <time>2019-12-27T13:37:48.000Z</time>
      </trkpt>
      <trkpt lat="31.085002" lon="-7.920192">
        <ele>2739.01979420625</ele>
        <time>2019-12-27T13:37:53.000Z</time>
      </trkpt>
      <trkpt lat="31.084995" lon="-7.920217">
        <ele>2739.6198918625</ele>
        <time>2019-12-27T13:37:58.000Z</time>
      </trkpt>
      <trkpt lat="31.084992" lon="-7.920243">
        <ele>2740.19995117188</ele>
        <time>2019-12-27T13:38:02.000Z</time>
      </trkpt>
      <trkpt lat="31.084992" lon="-7.920265">
        <ele>2740.6198918625</ele>
        <time>2019-12-27T13:38:06.000Z</time>
      </trkpt>
      <trkpt lat="31.084986" lon="-7.92029">
        <ele>2740.81984303438</ele>
        <time>2019-12-27T13:38:08.000Z</time>
      </trkpt>
      <trkpt lat="31.084982" lon="-7.920314">
        <ele>2741.39990234375</ele>
        <time>2019-12-27T13:38:12.000Z</time>
      </trkpt>
      <trkpt lat="31.084982" lon="-7.920342">
        <ele>2741.81984303438</ele>
        <time>2019-12-27T13:38:16.000Z</time>
      </trkpt>
      <trkpt lat="31.084979" lon="-7.920365">
        <ele>2742.39990234375</ele>
        <time>2019-12-27T13:38:20.000Z</time>
      </trkpt>
      <trkpt lat="31.08496" lon="-7.920374">
        <ele>2742.81984303438</ele>
        <time>2019-12-27T13:38:24.000Z</time>
      </trkpt>
      <trkpt lat="31.08495" lon="-7.920394">
        <ele>2743.39990234375</ele>
        <time>2019-12-27T13:38:28.000Z</time>
      </trkpt>
      <trkpt lat="31.084938" lon="-7.92042">
        <ele>2743.80004882813</ele>
        <time>2019-12-27T13:38:31.000Z</time>
      </trkpt>
      <trkpt lat="31.084925" lon="-7.920442">
        <ele>2744.01979420625</ele>
        <time>2019-12-27T13:38:34.000Z</time>
      </trkpt>
      <trkpt lat="31.084918" lon="-7.920466">
        <ele>2744.41972071875</ele>
        <time>2019-12-27T13:38:37.000Z</time>
      </trkpt>
      <trkpt lat="31.084912" lon="-7.920492">
        <ele>2744.81984303438</ele>
        <time>2019-12-27T13:38:40.000Z</time>
      </trkpt>
      <trkpt lat="31.084909" lon="-7.920513">
        <ele>2745.19995117188</ele>
        <time>2019-12-27T13:38:42.000Z</time>
      </trkpt>
      <trkpt lat="31.084899" lon="-7.920532">
        <ele>2745.41972071875</ele>
        <time>2019-12-27T13:38:45.000Z</time>
      </trkpt>
      <trkpt lat="31.084899" lon="-7.920558">
        <ele>2745.81984303438</ele>
        <time>2019-12-27T13:38:48.000Z</time>
      </trkpt>
      <trkpt lat="31.084899" lon="-7.920585">
        <ele>2746.21974537813</ele>
        <time>2019-12-27T13:38:51.000Z</time>
      </trkpt>
      <trkpt lat="31.084896" lon="-7.92061">
        <ele>2746.6198918625</ele>
        <time>2019-12-27T13:38:54.000Z</time>
      </trkpt>
      <trkpt lat="31.084893" lon="-7.920635">
        <ele>2747.21974537813</ele>
        <time>2019-12-27T13:38:58.000Z</time>
      </trkpt>
      <trkpt lat="31.084893" lon="-7.920657">
        <ele>2747.6198918625</ele>
        <time>2019-12-27T13:39:01.000Z</time>
      </trkpt>
      <trkpt lat="31.084906" lon="-7.92068">
        <ele>2748.21974537813</ele>
        <time>2019-12-27T13:39:05.000Z</time>
      </trkpt>
      <trkpt lat="31.084909" lon="-7.920702">
        <ele>2748.81984303438</ele>
        <time>2019-12-27T13:39:09.000Z</time>
      </trkpt>
      <trkpt lat="31.084912" lon="-7.920726">
        <ele>2749.39990234375</ele>
        <time>2019-12-27T13:39:12.000Z</time>
      </trkpt>
      <trkpt lat="31.084902" lon="-7.920748">
        <ele>2750.19995117188</ele>
        <time>2019-12-27T13:39:18.000Z</time>
      </trkpt>
      <trkpt lat="31.084909" lon="-7.92077">
        <ele>2750.60009765625</ele>
        <time>2019-12-27T13:39:21.000Z</time>
      </trkpt>
      <trkpt lat="31.084922" lon="-7.920794">
        <ele>2750.81984303438</ele>
        <time>2019-12-27T13:39:24.000Z</time>
      </trkpt>
      <trkpt lat="31.084918" lon="-7.920818">
        <ele>2751.6198918625</ele>
        <time>2019-12-27T13:39:29.000Z</time>
      </trkpt>
      <trkpt lat="31.084928" lon="-7.92084">
        <ele>2752.21974537813</ele>
        <time>2019-12-27T13:39:33.000Z</time>
      </trkpt>
      <trkpt lat="31.084941" lon="-7.920873">
        <ele>2752.81984303438</ele>
        <time>2019-12-27T13:39:38.000Z</time>
      </trkpt>
      <trkpt lat="31.084947" lon="-7.9209">
        <ele>2753.21974537813</ele>
        <time>2019-12-27T13:39:41.000Z</time>
      </trkpt>
      <trkpt lat="31.08495" lon="-7.920926">
        <ele>2753.80004882813</ele>
        <time>2019-12-27T13:39:46.000Z</time>
      </trkpt>
      <trkpt lat="31.084957" lon="-7.920949">
        <ele>2754.41972071875</ele>
        <time>2019-12-27T13:39:50.000Z</time>
      </trkpt>
      <trkpt lat="31.084957" lon="-7.920972">
        <ele>2754.81984303438</ele>
        <time>2019-12-27T13:39:53.000Z</time>
      </trkpt>
      <trkpt lat="31.08496" lon="-7.920998">
        <ele>2755.39990234375</ele>
        <time>2019-12-27T13:39:56.000Z</time>
      </trkpt>
      <trkpt lat="31.084963" lon="-7.921025">
        <ele>2755.81984303438</ele>
        <time>2019-12-27T13:39:59.000Z</time>
      </trkpt>
      <trkpt lat="31.08497" lon="-7.921046">
        <ele>2756.39990234375</ele>
        <time>2019-12-27T13:40:02.000Z</time>
      </trkpt>
      <trkpt lat="31.084976" lon="-7.921066">
        <ele>2756.80004882813</ele>
        <time>2019-12-27T13:40:05.000Z</time>
      </trkpt>
      <trkpt lat="31.084982" lon="-7.921091">
        <ele>2757.21974537813</ele>
        <time>2019-12-27T13:40:08.000Z</time>
      </trkpt>
      <trkpt lat="31.084992" lon="-7.92112">
        <ele>2758</ele>
        <time>2019-12-27T13:40:12.000Z</time>
      </trkpt>
      <trkpt lat="31.084986" lon="-7.921145">
        <ele>2758.39990234375</ele>
        <time>2019-12-27T13:40:15.000Z</time>
      </trkpt>
      <trkpt lat="31.084992" lon="-7.921177">
        <ele>2759.01979420625</ele>
        <time>2019-12-27T13:40:20.000Z</time>
      </trkpt>
      <trkpt lat="31.085008" lon="-7.921195">
        <ele>2759.41972071875</ele>
        <time>2019-12-27T13:40:23.000Z</time>
      </trkpt>
      <trkpt lat="31.085011" lon="-7.921217">
        <ele>2759.81984303438</ele>
        <time>2019-12-27T13:40:26.000Z</time>
      </trkpt>
      <trkpt lat="31.085008" lon="-7.921238">
        <ele>2760.21974537813</ele>
        <time>2019-12-27T13:40:29.000Z</time>
      </trkpt>
      <trkpt lat="31.085011" lon="-7.921263">
        <ele>2760.80004882813</ele>
        <time>2019-12-27T13:40:33.000Z</time>
      </trkpt>
      <trkpt lat="31.085005" lon="-7.921289">
        <ele>2761.41972071875</ele>
        <time>2019-12-27T13:40:38.000Z</time>
      </trkpt>
      <trkpt lat="31.085008" lon="-7.921315">
        <ele>2761.81984303438</ele>
        <time>2019-12-27T13:40:41.000Z</time>
      </trkpt>
      <trkpt lat="31.085011" lon="-7.921343">
        <ele>2762.41972071875</ele>
        <time>2019-12-27T13:40:45.000Z</time>
      </trkpt>
      <trkpt lat="31.085011" lon="-7.921366">
        <ele>2763</ele>
        <time>2019-12-27T13:40:48.000Z</time>
      </trkpt>
      <trkpt lat="31.085008" lon="-7.921391">
        <ele>2763.21974537813</ele>
        <time>2019-12-27T13:40:51.000Z</time>
      </trkpt>
      <trkpt lat="31.085005" lon="-7.92142">
        <ele>2763.80004882813</ele>
        <time>2019-12-27T13:40:55.000Z</time>
      </trkpt>
      <trkpt lat="31.085008" lon="-7.921442">
        <ele>2764.19995117188</ele>
        <time>2019-12-27T13:40:58.000Z</time>
      </trkpt>
      <trkpt lat="31.085008" lon="-7.921468">
        <ele>2764.60009765625</ele>
        <time>2019-12-27T13:41:03.000Z</time>
      </trkpt>
      <trkpt lat="31.085018" lon="-7.921488">
        <ele>2764.81984303438</ele>
        <time>2019-12-27T13:41:06.000Z</time>
      </trkpt>
      <trkpt lat="31.085021" lon="-7.921517">
        <ele>2765.01979420625</ele>
        <time>2019-12-27T13:41:09.000Z</time>
      </trkpt>
      <trkpt lat="31.085011" lon="-7.921542">
        <ele>2765.39990234375</ele>
        <time>2019-12-27T13:41:12.000Z</time>
      </trkpt>
      <trkpt lat="31.085002" lon="-7.921562">
        <ele>2765.60009765625</ele>
        <time>2019-12-27T13:41:15.000Z</time>
      </trkpt>
      <trkpt lat="31.085002" lon="-7.921585">
        <ele>2766</ele>
        <time>2019-12-27T13:41:18.000Z</time>
      </trkpt>
      <trkpt lat="31.085011" lon="-7.92161">
        <ele>2766.39990234375</ele>
        <time>2019-12-27T13:41:23.000Z</time>
      </trkpt>
      <trkpt lat="31.085011" lon="-7.921635">
        <ele>2766.6198918625</ele>
        <time>2019-12-27T13:41:26.000Z</time>
      </trkpt>
      <trkpt lat="31.085008" lon="-7.921662">
        <ele>2767.01979420625</ele>
        <time>2019-12-27T13:41:29.000Z</time>
      </trkpt>
      <trkpt lat="31.085011" lon="-7.921686">
        <ele>2767.39990234375</ele>
        <time>2019-12-27T13:41:31.000Z</time>
      </trkpt>
      <trkpt lat="31.085018" lon="-7.921712">
        <ele>2767.6198918625</ele>
        <time>2019-12-27T13:41:34.000Z</time>
      </trkpt>
      <trkpt lat="31.085027" lon="-7.92173">
        <ele>2768.21974537813</ele>
        <time>2019-12-27T13:41:38.000Z</time>
      </trkpt>
      <trkpt lat="31.085037" lon="-7.921751">
        <ele>2771.0395884125</ele>
        <time>2019-12-27T13:41:52.000Z</time>
      </trkpt>
      <trkpt lat="31.085027" lon="-7.92178">
        <ele>2771.81984303438</ele>
        <time>2019-12-27T13:41:55.000Z</time>
      </trkpt>
      <trkpt lat="31.085018" lon="-7.921805">
        <ele>2772.6198918625</ele>
        <time>2019-12-27T13:41:58.000Z</time>
      </trkpt>
      <trkpt lat="31.085014" lon="-7.921827">
        <ele>2773.81984303438</ele>
        <time>2019-12-27T13:42:04.000Z</time>
      </trkpt>
      <trkpt lat="31.085008" lon="-7.921847">
        <ele>2774.21974537813</ele>
        <time>2019-12-27T13:42:07.000Z</time>
      </trkpt>
      <trkpt lat="31.085011" lon="-7.921875">
        <ele>2774.6198918625</ele>
        <time>2019-12-27T13:42:10.000Z</time>
      </trkpt>
      <trkpt lat="31.085011" lon="-7.9219">
        <ele>2775</ele>
        <time>2019-12-27T13:42:13.000Z</time>
      </trkpt>
      <trkpt lat="31.085008" lon="-7.921925">
        <ele>2775.19995117188</ele>
        <time>2019-12-27T13:42:15.000Z</time>
      </trkpt>
      <trkpt lat="31.085002" lon="-7.921945">
        <ele>2775.39990234375</ele>
        <time>2019-12-27T13:42:17.000Z</time>
      </trkpt>
      <trkpt lat="31.084998" lon="-7.921966">
        <ele>2775.39990234375</ele>
        <time>2019-12-27T13:42:19.000Z</time>
      </trkpt>
      <trkpt lat="31.084992" lon="-7.921992">
        <ele>2775.39990234375</ele>
        <time>2019-12-27T13:42:21.000Z</time>
      </trkpt>
      <trkpt lat="31.084989" lon="-7.922022">
        <ele>2775.60009765625</ele>
        <time>2019-12-27T13:42:24.000Z</time>
      </trkpt>
      <trkpt lat="31.084986" lon="-7.922046">
        <ele>2775.58027928125</ele>
        <time>2019-12-27T13:42:27.000Z</time>
      </trkpt>
      <trkpt lat="31.084989" lon="-7.922071">
        <ele>2775.39990234375</ele>
        <time>2019-12-27T13:42:31.000Z</time>
      </trkpt>
      <trkpt lat="31.084979" lon="-7.922095">
        <ele>2775.19995117188</ele>
        <time>2019-12-27T13:42:35.000Z</time>
      </trkpt>
      <trkpt lat="31.084982" lon="-7.922122">
        <ele>2775</ele>
        <time>2019-12-27T13:42:38.000Z</time>
      </trkpt>
      <trkpt lat="31.084986" lon="-7.922145">
        <ele>2774.80004882813</ele>
        <time>2019-12-27T13:42:41.000Z</time>
      </trkpt>
      <trkpt lat="31.084989" lon="-7.922168">
        <ele>2774.60009765625</ele>
        <time>2019-12-27T13:42:44.000Z</time>
      </trkpt>
      <trkpt lat="31.084989" lon="-7.92219">
        <ele>2774.39990234375</ele>
        <time>2019-12-27T13:42:46.000Z</time>
      </trkpt>
      <trkpt lat="31.084992" lon="-7.922215">
        <ele>2774.19995117188</ele>
        <time>2019-12-27T13:42:49.000Z</time>
      </trkpt>
      <trkpt lat="31.084992" lon="-7.922242">
        <ele>2774</ele>
        <time>2019-12-27T13:42:52.000Z</time>
      </trkpt>
      <trkpt lat="31.084998" lon="-7.922263">
        <ele>2774</ele>
        <time>2019-12-27T13:42:54.000Z</time>
      </trkpt>
      <trkpt lat="31.085011" lon="-7.922289">
        <ele>2773.80004882813</ele>
        <time>2019-12-27T13:42:57.000Z</time>
      </trkpt>
      <trkpt lat="31.085027" lon="-7.922318">
        <ele>2773.80004882813</ele>
        <time>2019-12-27T13:43:00.000Z</time>
      </trkpt>
      <trkpt lat="31.08504" lon="-7.92234">
        <ele>2773.81984303438</ele>
        <time>2019-12-27T13:43:02.000Z</time>
      </trkpt>
      <trkpt lat="31.085046" lon="-7.92236">
        <ele>2774</ele>
        <time>2019-12-27T13:43:04.000Z</time>
      </trkpt>
      <trkpt lat="31.085059" lon="-7.922392">
        <ele>2774.21974537813</ele>
        <time>2019-12-27T13:43:08.000Z</time>
      </trkpt>
      <trkpt lat="31.085069" lon="-7.92241">
        <ele>2774.41972071875</ele>
        <time>2019-12-27T13:43:10.000Z</time>
      </trkpt>
      <trkpt lat="31.085078" lon="-7.92243">
        <ele>2774.81984303438</ele>
        <time>2019-12-27T13:43:12.000Z</time>
      </trkpt>
      <trkpt lat="31.085088" lon="-7.922451">
        <ele>2775.21974537813</ele>
        <time>2019-12-27T13:43:15.000Z</time>
      </trkpt>
      <trkpt lat="31.085091" lon="-7.922475">
        <ele>2775.81984303438</ele>
        <time>2019-12-27T13:43:18.000Z</time>
      </trkpt>
      <trkpt lat="31.085091" lon="-7.922503">
        <ele>2776.6198918625</ele>
        <time>2019-12-27T13:43:21.000Z</time>
      </trkpt>
      <trkpt lat="31.085091" lon="-7.922525">
        <ele>2777.41972071875</ele>
        <time>2019-12-27T13:43:24.000Z</time>
      </trkpt>
      <trkpt lat="31.085082" lon="-7.922545">
        <ele>2778.6198918625</ele>
        <time>2019-12-27T13:43:28.000Z</time>
      </trkpt>
      <trkpt lat="31.085072" lon="-7.922568">
        <ele>2779.41972071875</ele>
        <time>2019-12-27T13:43:31.000Z</time>
      </trkpt>
      <trkpt lat="31.085078" lon="-7.922597">
        <ele>2780.41972071875</ele>
        <time>2019-12-27T13:43:34.000Z</time>
      </trkpt>
      <trkpt lat="31.085091" lon="-7.922617">
        <ele>2781.81984303438</ele>
        <time>2019-12-27T13:43:39.000Z</time>
      </trkpt>
      <trkpt lat="31.085101" lon="-7.92264">
        <ele>2783.21974537813</ele>
        <time>2019-12-27T13:43:44.000Z</time>
      </trkpt>
      <trkpt lat="31.085104" lon="-7.922663">
        <ele>2784.21974537813</ele>
        <time>2019-12-27T13:43:48.000Z</time>
      </trkpt>
      <trkpt lat="31.085091" lon="-7.922689">
        <ele>2785.01979420625</ele>
        <time>2019-12-27T13:43:51.000Z</time>
      </trkpt>
      <trkpt lat="31.085082" lon="-7.92271">
        <ele>2785.81984303438</ele>
        <time>2019-12-27T13:43:54.000Z</time>
      </trkpt>
      <trkpt lat="31.085075" lon="-7.922738">
        <ele>2786.41972071875</ele>
        <time>2019-12-27T13:43:57.000Z</time>
      </trkpt>
      <trkpt lat="31.085088" lon="-7.922754">
        <ele>2787.23956375312</ele>
        <time>2019-12-27T13:44:01.000Z</time>
      </trkpt>
      <trkpt lat="31.085098" lon="-7.922778">
        <ele>2788.6198918625</ele>
        <time>2019-12-27T13:44:07.000Z</time>
      </trkpt>
      <trkpt lat="31.085094" lon="-7.922802">
        <ele>2789.41972071875</ele>
        <time>2019-12-27T13:44:10.000Z</time>
      </trkpt>
      <trkpt lat="31.085082" lon="-7.92282">
        <ele>2789.81984303438</ele>
        <time>2019-12-27T13:44:12.000Z</time>
      </trkpt>
      <trkpt lat="31.085072" lon="-7.922838">
        <ele>2790.19995117188</ele>
        <time>2019-12-27T13:44:14.000Z</time>
      </trkpt>
      <trkpt lat="31.085062" lon="-7.92286">
        <ele>2790.6198918625</ele>
        <time>2019-12-27T13:44:17.000Z</time>
      </trkpt>
      <trkpt lat="31.08505" lon="-7.922885">
        <ele>2791.21902301845</ele>
        <time>2019-12-27T13:44:20.000Z</time>
      </trkpt>
      <trkpt lat="31.085043" lon="-7.922907">
        <ele>2791.6198918625</ele>
        <time>2019-12-27T13:44:22.000Z</time>
      </trkpt>
      <trkpt lat="31.08504" lon="-7.922928">
        <ele>2792.21974537813</ele>
        <time>2019-12-27T13:44:25.000Z</time>
      </trkpt>
      <trkpt lat="31.085027" lon="-7.922947">
        <ele>2792.81984303438</ele>
        <time>2019-12-27T13:44:29.000Z</time>
      </trkpt>
      <trkpt lat="31.085018" lon="-7.922972">
        <ele>2793.6198918625</ele>
        <time>2019-12-27T13:44:33.000Z</time>
      </trkpt>
      <trkpt lat="31.085008" lon="-7.922993">
        <ele>2794.81984303438</ele>
        <time>2019-12-27T13:44:41.000Z</time>
      </trkpt>
      <trkpt lat="31.085011" lon="-7.923015">
        <ele>2796.21974537813</ele>
        <time>2019-12-27T13:44:50.000Z</time>
      </trkpt>
      <trkpt lat="31.084998" lon="-7.923037">
        <ele>2797.6198918625</ele>
        <time>2019-12-27T13:44:59.000Z</time>
      </trkpt>
      <trkpt lat="31.085002" lon="-7.923062">
        <ele>2798.01979420625</ele>
        <time>2019-12-27T13:45:02.000Z</time>
      </trkpt>
      <trkpt lat="31.084998" lon="-7.923086">
        <ele>2798.80004882813</ele>
        <time>2019-12-27T13:45:07.000Z</time>
      </trkpt>
      <trkpt lat="31.084998" lon="-7.923112">
        <ele>2799.41972071875</ele>
        <time>2019-12-27T13:45:12.000Z</time>
      </trkpt>
      <trkpt lat="31.084986" lon="-7.923137">
        <ele>2799.81984303438</ele>
        <time>2019-12-27T13:45:15.000Z</time>
      </trkpt>
      <trkpt lat="31.084973" lon="-7.923163">
        <ele>2800.21974537813</ele>
        <time>2019-12-27T13:45:18.000Z</time>
      </trkpt>
      <trkpt lat="31.084957" lon="-7.923182">
        <ele>2800.80004882813</ele>
        <time>2019-12-27T13:45:21.000Z</time>
      </trkpt>
      <trkpt lat="31.084944" lon="-7.923197">
        <ele>2801.01979420625</ele>
        <time>2019-12-27T13:45:23.000Z</time>
      </trkpt>
      <trkpt lat="31.084925" lon="-7.923198">
        <ele>2801.6198918625</ele>
        <time>2019-12-27T13:45:28.000Z</time>
      </trkpt>
      <trkpt lat="31.084909" lon="-7.923182">
        <ele>2801.81984303438</ele>
        <time>2019-12-27T13:45:30.000Z</time>
      </trkpt>
      <trkpt lat="31.084922" lon="-7.923197">
        <ele>2802.39990234375</ele>
        <time>2019-12-27T13:45:34.000Z</time>
      </trkpt>
      <trkpt lat="31.084909" lon="-7.92322">
        <ele>2803</ele>
        <time>2019-12-27T13:45:42.000Z</time>
      </trkpt>
      <trkpt lat="31.084899" lon="-7.92324">
        <ele>2803.01979420625</ele>
        <time>2019-12-27T13:45:44.000Z</time>
      </trkpt>
      <trkpt lat="31.084893" lon="-7.923265">
        <ele>2803.19995117188</ele>
        <time>2019-12-27T13:45:47.000Z</time>
      </trkpt>
      <trkpt lat="31.084883" lon="-7.923286">
        <ele>2803.21974537813</ele>
        <time>2019-12-27T13:45:50.000Z</time>
      </trkpt>
      <trkpt lat="31.084874" lon="-7.923312">
        <ele>2803.39990234375</ele>
        <time>2019-12-27T13:45:54.000Z</time>
      </trkpt>
      <trkpt lat="31.084858" lon="-7.923323">
        <ele>2803.39990234375</ele>
        <time>2019-12-27T13:45:57.000Z</time>
      </trkpt>
      <trkpt lat="31.084854" lon="-7.923346">
        <ele>2803.60009765625</ele>
        <time>2019-12-27T13:46:00.000Z</time>
      </trkpt>
      <trkpt lat="31.084845" lon="-7.923369">
        <ele>2803.60009765625</ele>
        <time>2019-12-27T13:46:06.000Z</time>
      </trkpt>
      <trkpt lat="31.084861" lon="-7.923378">
        <ele>2803.80004882813</ele>
        <time>2019-12-27T13:46:12.000Z</time>
      </trkpt>
      <trkpt lat="31.084848" lon="-7.923363">
        <ele>2805</ele>
        <time>2019-12-27T13:46:48.000Z</time>
      </trkpt>
      <trkpt lat="31.084829" lon="-7.92336">
        <ele>2803.3801081375</ele>
        <time>2019-12-27T13:47:06.000Z</time>
      </trkpt>
      <trkpt lat="31.084842" lon="-7.923343">
        <ele>2802.60009765625</ele>
        <time>2019-12-27T13:47:11.000Z</time>
      </trkpt>
      <trkpt lat="31.084829" lon="-7.92337">
        <ele>2801.39990234375</ele>
        <time>2019-12-27T13:47:19.000Z</time>
      </trkpt>
      <trkpt lat="31.084877" lon="-7.92341">
        <ele>2798.78025462188</ele>
        <time>2019-12-27T13:47:36.000Z</time>
      </trkpt>
      <trkpt lat="31.084858" lon="-7.923394">
        <ele>2798.3801081375</ele>
        <time>2019-12-27T13:47:38.000Z</time>
      </trkpt>
      <trkpt lat="31.084842" lon="-7.92338">
        <ele>2797.78025462188</ele>
        <time>2019-12-27T13:47:42.000Z</time>
      </trkpt>
      <trkpt lat="31.084838" lon="-7.923358">
        <ele>2797</ele>
        <time>2019-12-27T13:48:00.000Z</time>
      </trkpt>
      <trkpt lat="31.084845" lon="-7.923383">
        <ele>2798.21974537813</ele>
        <time>2019-12-27T13:48:20.000Z</time>
      </trkpt>
      <trkpt lat="31.084826" lon="-7.923383">
        <ele>2799</ele>
        <time>2019-12-27T13:48:29.000Z</time>
      </trkpt>
      <trkpt lat="31.084813" lon="-7.923363">
        <ele>2800.19995117188</ele>
        <time>2019-12-27T13:48:55.000Z</time>
      </trkpt>
      <trkpt lat="31.08479" lon="-7.923374">
        <ele>2800.60009765625</ele>
        <time>2019-12-27T13:49:11.000Z</time>
      </trkpt>
      <trkpt lat="31.084794" lon="-7.923353">
        <ele>2800.80004882813</ele>
        <time>2019-12-27T13:49:16.000Z</time>
      </trkpt>
      <trkpt lat="31.084877" lon="-7.923389">
        <ele>2801.60009765625</ele>
        <time>2019-12-27T13:49:40.000Z</time>
      </trkpt>
      <trkpt lat="31.084883" lon="-7.923409">
        <ele>2801.39990234375</ele>
        <time>2019-12-27T13:49:54.000Z</time>
      </trkpt>
      <trkpt lat="31.084861" lon="-7.923417">
        <ele>2801</ele>
        <time>2019-12-27T13:50:04.000Z</time>
      </trkpt>
      <trkpt lat="31.084842" lon="-7.923423">
        <ele>2800.80004882813</ele>
        <time>2019-12-27T13:50:08.000Z</time>
      </trkpt>
      <trkpt lat="31.084832" lon="-7.923405">
        <ele>2800.80004882813</ele>
        <time>2019-12-27T13:50:14.000Z</time>
      </trkpt>
      <trkpt lat="31.084803" lon="-7.923305">
        <ele>2804.6198918625</ele>
        <time>2019-12-27T13:50:50.000Z</time>
      </trkpt>
      <trkpt lat="31.084762" lon="-7.923346">
        <ele>2805.80004882813</ele>
        <time>2019-12-27T13:51:07.000Z</time>
      </trkpt>
      <trkpt lat="31.0848" lon="-7.923378">
        <ele>2806.01979420625</ele>
        <time>2019-12-27T13:51:13.000Z</time>
      </trkpt>
      <trkpt lat="31.084826" lon="-7.923383">
        <ele>2806.19995117188</ele>
        <time>2019-12-27T13:51:14.000Z</time>
      </trkpt>
      <trkpt lat="31.084854" lon="-7.923372">
        <ele>2806.19995117188</ele>
        <time>2019-12-27T13:51:16.000Z</time>
      </trkpt>
      <trkpt lat="31.084867" lon="-7.923353">
        <ele>2806.19995117188</ele>
        <time>2019-12-27T13:51:18.000Z</time>
      </trkpt>
      <trkpt lat="31.084858" lon="-7.923323">
        <ele>2806.19995117188</ele>
        <time>2019-12-27T13:51:20.000Z</time>
      </trkpt>
      <trkpt lat="31.084864" lon="-7.923303">
        <ele>2806.19995117188</ele>
        <time>2019-12-27T13:51:22.000Z</time>
      </trkpt>
      <trkpt lat="31.084854" lon="-7.923322">
        <ele>2806</ele>
        <time>2019-12-27T13:51:31.000Z</time>
      </trkpt>
      <trkpt lat="31.084842" lon="-7.923343">
        <ele>2806</ele>
        <time>2019-12-27T13:51:33.000Z</time>
      </trkpt>
      <trkpt lat="31.084845" lon="-7.923366">
        <ele>2805.80004882813</ele>
        <time>2019-12-27T13:51:35.000Z</time>
      </trkpt>
      <trkpt lat="31.084826" lon="-7.923377">
        <ele>2805.3801081375</ele>
        <time>2019-12-27T13:51:46.000Z</time>
      </trkpt>
      <trkpt lat="31.084845" lon="-7.92337">
        <ele>2803.78025462188</ele>
        <time>2019-12-27T13:52:16.000Z</time>
      </trkpt>
      <trkpt lat="31.084851" lon="-7.923345">
        <ele>2803.60009765625</ele>
        <time>2019-12-27T13:52:18.000Z</time>
      </trkpt>
      <trkpt lat="31.08487" lon="-7.923343">
        <ele>2803.19995117188</ele>
        <time>2019-12-27T13:52:23.000Z</time>
      </trkpt>
      <trkpt lat="31.08489" lon="-7.923355">
        <ele>2802.3801081375</ele>
        <time>2019-12-27T13:52:34.000Z</time>
      </trkpt>
      <trkpt lat="31.084893" lon="-7.923377">
        <ele>2802</ele>
        <time>2019-12-27T13:52:39.000Z</time>
      </trkpt>
      <trkpt lat="31.084874" lon="-7.923375">
        <ele>2801.80004882813</ele>
        <time>2019-12-27T13:52:41.000Z</time>
      </trkpt>
      <trkpt lat="31.084858" lon="-7.923365">
        <ele>2801.60009765625</ele>
        <time>2019-12-27T13:52:44.000Z</time>
      </trkpt>
      <trkpt lat="31.084842" lon="-7.923353">
        <ele>2801.60009765625</ele>
        <time>2019-12-27T13:52:55.000Z</time>
      </trkpt>
      <trkpt lat="31.084829" lon="-7.923369">
        <ele>2803.01979420625</ele>
        <time>2019-12-27T13:53:19.000Z</time>
      </trkpt>
      <trkpt lat="31.084851" lon="-7.923366">
        <ele>2804.39990234375</ele>
        <time>2019-12-27T13:53:34.000Z</time>
      </trkpt>
      <trkpt lat="31.084861" lon="-7.923385">
        <ele>2804.80004882813</ele>
        <time>2019-12-27T13:53:39.000Z</time>
      </trkpt>
      <trkpt lat="31.084842" lon="-7.923375">
        <ele>2805.60009765625</ele>
        <time>2019-12-27T13:54:12.000Z</time>
      </trkpt>
      <trkpt lat="31.084826" lon="-7.923363">
        <ele>2805.60009765625</ele>
        <time>2019-12-27T13:54:15.000Z</time>
      </trkpt>
      <trkpt lat="31.084842" lon="-7.923337">
        <ele>2805.60009765625</ele>
        <time>2019-12-27T13:54:16.000Z</time>
      </trkpt>
      <trkpt lat="31.084861" lon="-7.923323">
        <ele>2805.60009765625</ele>
        <time>2019-12-27T13:54:17.000Z</time>
      </trkpt>
      <trkpt lat="31.084877" lon="-7.923333">
        <ele>2805.80004882813</ele>
        <time>2019-12-27T13:54:21.000Z</time>
      </trkpt>
      <trkpt lat="31.08488" lon="-7.923355">
        <ele>2806.21974537813</ele>
        <time>2019-12-27T13:54:29.000Z</time>
      </trkpt>
      <trkpt lat="31.084867" lon="-7.923382">
        <ele>2807.01979420625</ele>
        <time>2019-12-27T13:54:36.000Z</time>
      </trkpt>
      <trkpt lat="31.084845" lon="-7.923398">
        <ele>2809.19995117188</ele>
        <time>2019-12-27T13:54:49.000Z</time>
      </trkpt>
      <trkpt lat="31.084826" lon="-7.92339">
        <ele>2810</ele>
        <time>2019-12-27T13:54:56.000Z</time>
      </trkpt>
      <trkpt lat="31.084835" lon="-7.923369">
        <ele>2810.39990234375</ele>
        <time>2019-12-27T13:55:13.000Z</time>
      </trkpt>
      <trkpt lat="31.084854" lon="-7.923369">
        <ele>2809.7802743647</ele>
        <time>2019-12-27T13:55:24.000Z</time>
      </trkpt>
      <trkpt lat="31.08487" lon="-7.923389">
        <ele>2809</ele>
        <time>2019-12-27T13:55:31.000Z</time>
      </trkpt>
      <trkpt lat="31.084851" lon="-7.923397">
        <ele>2808.98020579375</ele>
        <time>2019-12-27T13:55:33.000Z</time>
      </trkpt>
      <trkpt lat="31.084832" lon="-7.923398">
        <ele>2808.58027928125</ele>
        <time>2019-12-27T13:55:37.000Z</time>
      </trkpt>
      <trkpt lat="31.084813" lon="-7.923397">
        <ele>2806.3801081375</ele>
        <time>2019-12-27T13:56:08.000Z</time>
      </trkpt>
      <trkpt lat="31.084829" lon="-7.923382">
        <ele>2806</ele>
        <time>2019-12-27T13:56:20.000Z</time>
      </trkpt>
      <trkpt lat="31.084848" lon="-7.923374">
        <ele>2806</ele>
        <time>2019-12-27T13:56:26.000Z</time>
      </trkpt>
      <trkpt lat="31.084829" lon="-7.923358">
        <ele>2806.60009765625</ele>
        <time>2019-12-27T13:56:42.000Z</time>
      </trkpt>
      <trkpt lat="31.084803" lon="-7.923366">
        <ele>2806.80004882813</ele>
        <time>2019-12-27T13:56:45.000Z</time>
      </trkpt>
      <trkpt lat="31.084822" lon="-7.923372">
        <ele>2807.19995117188</ele>
        <time>2019-12-27T13:56:56.000Z</time>
      </trkpt>
      <trkpt lat="31.084845" lon="-7.92338">
        <ele>2808.21974537813</ele>
        <time>2019-12-27T13:57:26.000Z</time>
      </trkpt>
      <trkpt lat="31.084861" lon="-7.92339">
        <ele>2808.39990234375</ele>
        <time>2019-12-27T13:57:28.000Z</time>
      </trkpt>
      <trkpt lat="31.084842" lon="-7.923397">
        <ele>2808.80004882813</ele>
        <time>2019-12-27T13:57:37.000Z</time>
      </trkpt>
      <trkpt lat="31.084822" lon="-7.9234">
        <ele>2809</ele>
        <time>2019-12-27T13:57:41.000Z</time>
      </trkpt>
      <trkpt lat="31.084803" lon="-7.9234">
        <ele>2809</ele>
        <time>2019-12-27T13:57:45.000Z</time>
      </trkpt>
      <trkpt lat="31.084784" lon="-7.923394">
        <ele>2808.80004882813</ele>
        <time>2019-12-27T13:57:54.000Z</time>
      </trkpt>
      <trkpt lat="31.084816" lon="-7.923409">
        <ele>2808.19995117188</ele>
        <time>2019-12-27T13:58:05.000Z</time>
      </trkpt>
      <trkpt lat="31.084838" lon="-7.92342">
        <ele>2808</ele>
        <time>2019-12-27T13:58:07.000Z</time>
      </trkpt>
      <trkpt lat="31.084854" lon="-7.92343">
        <ele>2807.98020579375</ele>
        <time>2019-12-27T13:58:10.000Z</time>
      </trkpt>
      <trkpt lat="31.084787" lon="-7.923372">
        <ele>2807.80004882813</ele>
        <time>2019-12-27T13:58:11.000Z</time>
      </trkpt>
      <trkpt lat="31.084803" lon="-7.923382">
        <ele>2807.60009765625</ele>
        <time>2019-12-27T13:58:14.000Z</time>
      </trkpt>
      <trkpt lat="31.084813" lon="-7.923363">
        <ele>2806.78025462188</ele>
        <time>2019-12-27T13:58:24.000Z</time>
      </trkpt>
      <trkpt lat="31.084822" lon="-7.923345">
        <ele>2806.39990234375</ele>
        <time>2019-12-27T13:58:28.000Z</time>
      </trkpt>
      <trkpt lat="31.084819" lon="-7.923366">
        <ele>2805.60009765625</ele>
        <time>2019-12-27T13:58:38.000Z</time>
      </trkpt>
      <trkpt lat="31.084813" lon="-7.92339">
        <ele>2805.18015696563</ele>
        <time>2019-12-27T13:58:43.000Z</time>
      </trkpt>
      <trkpt lat="31.084794" lon="-7.92342">
        <ele>2802.98020579375</ele>
        <time>2019-12-27T13:59:06.000Z</time>
      </trkpt>
      <trkpt lat="31.084781" lon="-7.923389">
        <ele>2801.78025462188</ele>
        <time>2019-12-27T13:59:14.000Z</time>
      </trkpt>
      <trkpt lat="31.084774" lon="-7.923366">
        <ele>2801.39990234375</ele>
        <time>2019-12-27T13:59:16.000Z</time>
      </trkpt>
      <trkpt lat="31.084784" lon="-7.923338">
        <ele>2801.18015696563</ele>
        <time>2019-12-27T13:59:19.000Z</time>
      </trkpt>
      <trkpt lat="31.0848" lon="-7.923325">
        <ele>2800.78025462188</ele>
        <time>2019-12-27T13:59:23.000Z</time>
      </trkpt>
      <trkpt lat="31.084816" lon="-7.923338">
        <ele>2800.39990234375</ele>
        <time>2019-12-27T13:59:28.000Z</time>
      </trkpt>
      <trkpt lat="31.084829" lon="-7.923355">
        <ele>2801.01979420625</ele>
        <time>2019-12-27T13:59:43.000Z</time>
      </trkpt>
      <trkpt lat="31.084845" lon="-7.923345">
        <ele>2802.6198918625</ele>
        <time>2019-12-27T13:59:57.000Z</time>
      </trkpt>
      <trkpt lat="31.084848" lon="-7.923369">
        <ele>2804.19995117188</ele>
        <time>2019-12-27T14:00:08.000Z</time>
      </trkpt>
      <trkpt lat="31.084854" lon="-7.923389">
        <ele>2804.80004882813</ele>
        <time>2019-12-27T14:00:31.000Z</time>
      </trkpt>
      <trkpt lat="31.084832" lon="-7.923382">
        <ele>2802.78025462188</ele>
        <time>2019-12-27T14:00:49.000Z</time>
      </trkpt>
      <trkpt lat="31.084832" lon="-7.92336">
        <ele>2801.39990234375</ele>
        <time>2019-12-27T14:00:55.000Z</time>
      </trkpt>
      <trkpt lat="31.084832" lon="-7.923338">
        <ele>2796.98020579375</ele>
        <time>2019-12-27T14:01:12.000Z</time>
      </trkpt>
      <trkpt lat="31.084835" lon="-7.92336">
        <ele>2789.16036275937</ele>
        <time>2019-12-27T14:01:38.000Z</time>
      </trkpt>
      <trkpt lat="31.084851" lon="-7.92335">
        <ele>2786.19995117188</ele>
        <time>2019-12-27T14:01:49.000Z</time>
      </trkpt>
      <trkpt lat="31.084838" lon="-7.923333">
        <ele>2784.78025462188</ele>
        <time>2019-12-27T14:01:56.000Z</time>
      </trkpt>
      <trkpt lat="31.084838" lon="-7.923355">
        <ele>2783.60009765625</ele>
        <time>2019-12-27T14:02:10.000Z</time>
      </trkpt>
      <trkpt lat="31.084851" lon="-7.923372">
        <ele>2783.60009765625</ele>
        <time>2019-12-27T14:02:18.000Z</time>
      </trkpt>
      <trkpt lat="31.084858" lon="-7.923392">
        <ele>2785.81984303438</ele>
        <time>2019-12-27T14:02:40.000Z</time>
      </trkpt>
      <trkpt lat="31.084842" lon="-7.923409">
        <ele>2790.21938492094</ele>
        <time>2019-12-27T14:03:04.000Z</time>
      </trkpt>
      <trkpt lat="31.084819" lon="-7.923397">
        <ele>2791.01979420625</ele>
        <time>2019-12-27T14:03:09.000Z</time>
      </trkpt>
      <trkpt lat="31.08481" lon="-7.923375">
        <ele>2791.81984303438</ele>
        <time>2019-12-27T14:03:13.000Z</time>
      </trkpt>
      <trkpt lat="31.0848" lon="-7.923355">
        <ele>2792.60009765625</ele>
        <time>2019-12-27T14:03:17.000Z</time>
      </trkpt>
      <trkpt lat="31.084803" lon="-7.92333">
        <ele>2793.21974537813</ele>
        <time>2019-12-27T14:03:22.000Z</time>
      </trkpt>
      <trkpt lat="31.08489" lon="-7.923293">
        <ele>2794.39990234375</ele>
        <time>2019-12-27T14:03:32.000Z</time>
      </trkpt>
      <trkpt lat="31.084848" lon="-7.923352">
        <ele>2795.19995117188</ele>
        <time>2019-12-27T14:03:56.000Z</time>
      </trkpt>
      <trkpt lat="31.084829" lon="-7.923374">
        <ele>2795.18015696563</ele>
        <time>2019-12-27T14:03:59.000Z</time>
      </trkpt>
      <trkpt lat="31.084848" lon="-7.923378">
        <ele>2795</ele>
        <time>2019-12-27T14:04:05.000Z</time>
      </trkpt>
      <trkpt lat="31.084813" lon="-7.923412">
        <ele>2793.39990234375</ele>
        <time>2019-12-27T14:04:26.000Z</time>
      </trkpt>
      <trkpt lat="31.08479" lon="-7.92341">
        <ele>2793.19995117188</ele>
        <time>2019-12-27T14:04:28.000Z</time>
      </trkpt>
      <trkpt lat="31.084803" lon="-7.923392">
        <ele>2791.98020579375</ele>
        <time>2019-12-27T14:04:39.000Z</time>
      </trkpt>
      <trkpt lat="31.084826" lon="-7.923397">
        <ele>2791.78025462188</ele>
        <time>2019-12-27T14:04:40.000Z</time>
      </trkpt>
      <trkpt lat="31.084848" lon="-7.923397">
        <ele>2791.39990234375</ele>
        <time>2019-12-27T14:04:42.000Z</time>
      </trkpt>
      <trkpt lat="31.084861" lon="-7.923378">
        <ele>2790.98020579375</ele>
        <time>2019-12-27T14:04:46.000Z</time>
      </trkpt>
      <trkpt lat="31.084867" lon="-7.923357">
        <ele>2790.3801081375</ele>
        <time>2019-12-27T14:04:50.000Z</time>
      </trkpt>
      <trkpt lat="31.084842" lon="-7.923355">
        <ele>2789.39990234375</ele>
        <time>2019-12-27T14:04:59.000Z</time>
      </trkpt>
      <trkpt lat="31.084851" lon="-7.923375">
        <ele>2790.21974537813</ele>
        <time>2019-12-27T14:05:38.000Z</time>
      </trkpt>
      <trkpt lat="31.084835" lon="-7.923365">
        <ele>2800</ele>
        <time>2019-12-27T14:06:36.000Z</time>
      </trkpt>
      <trkpt lat="31.084822" lon="-7.923382">
        <ele>2800.39990234375</ele>
        <time>2019-12-27T14:06:57.000Z</time>
      </trkpt>
      <trkpt lat="31.084838" lon="-7.923395">
        <ele>2800</ele>
        <time>2019-12-27T14:07:11.000Z</time>
      </trkpt>
      <trkpt lat="31.084848" lon="-7.923414">
        <ele>2799.80004882813</ele>
        <time>2019-12-27T14:07:17.000Z</time>
      </trkpt>
      <trkpt lat="31.084867" lon="-7.923415">
        <ele>2800</ele>
        <time>2019-12-27T14:07:41.000Z</time>
      </trkpt>
      <trkpt lat="31.084861" lon="-7.923394">
        <ele>2801.39990234375</ele>
        <time>2019-12-27T14:07:58.000Z</time>
      </trkpt>
      <trkpt lat="31.084877" lon="-7.923382">
        <ele>2801.80004882813</ele>
        <time>2019-12-27T14:08:01.000Z</time>
      </trkpt>
      <trkpt lat="31.08487" lon="-7.923362">
        <ele>2803.21974537813</ele>
        <time>2019-12-27T14:08:13.000Z</time>
      </trkpt>
      <trkpt lat="31.084854" lon="-7.923352">
        <ele>2803.81984303438</ele>
        <time>2019-12-27T14:08:17.000Z</time>
      </trkpt>
      <trkpt lat="31.084835" lon="-7.923355">
        <ele>2807.19995117188</ele>
        <time>2019-12-27T14:08:51.000Z</time>
      </trkpt>
      <trkpt lat="31.084851" lon="-7.923345">
        <ele>2805.98020579375</ele>
        <time>2019-12-27T14:09:17.000Z</time>
      </trkpt>
      <trkpt lat="31.084838" lon="-7.923328">
        <ele>2804.58027928125</ele>
        <time>2019-12-27T14:09:25.000Z</time>
      </trkpt>
      <trkpt lat="31.084822" lon="-7.923318">
        <ele>2803.3801081375</ele>
        <time>2019-12-27T14:09:31.000Z</time>
      </trkpt>
      <trkpt lat="31.084838" lon="-7.923308">
        <ele>2797.78025462188</ele>
        <time>2019-12-27T14:09:53.000Z</time>
      </trkpt>
      <trkpt lat="31.084858" lon="-7.923303">
        <ele>2794.76043624688</ele>
        <time>2019-12-27T14:10:04.000Z</time>
      </trkpt>
      <trkpt lat="31.084851" lon="-7.923283">
        <ele>2787.39990234375</ele>
        <time>2019-12-27T14:10:42.000Z</time>
      </trkpt>
      <trkpt lat="31.084832" lon="-7.923282">
        <ele>2787.39990234375</ele>
        <time>2019-12-27T14:10:46.000Z</time>
      </trkpt>
      <trkpt lat="31.084816" lon="-7.923272">
        <ele>2787.80004882813</ele>
        <time>2019-12-27T14:10:55.000Z</time>
      </trkpt>
      <trkpt lat="31.084797" lon="-7.923273">
        <ele>2789.81984303438</ele>
        <time>2019-12-27T14:11:10.000Z</time>
      </trkpt>
      <trkpt lat="31.084787" lon="-7.923295">
        <ele>2791.01979420625</ele>
        <time>2019-12-27T14:11:16.000Z</time>
      </trkpt>
      <trkpt lat="31.084771" lon="-7.92331">
        <ele>2794.21974537813</ele>
        <time>2019-12-27T14:11:31.000Z</time>
      </trkpt>
      <trkpt lat="31.084768" lon="-7.923332">
        <ele>2796.01979420625</ele>
        <time>2019-12-27T14:11:38.000Z</time>
      </trkpt>
      <trkpt lat="31.084784" lon="-7.923342">
        <ele>2797.6198918625</ele>
        <time>2019-12-27T14:11:45.000Z</time>
      </trkpt>
      <trkpt lat="31.084813" lon="-7.923357">
        <ele>2799.81984303438</ele>
        <time>2019-12-27T14:11:56.000Z</time>
      </trkpt>
      <trkpt lat="31.084832" lon="-7.923358">
        <ele>2800.6198918625</ele>
        <time>2019-12-27T14:12:01.000Z</time>
      </trkpt>
      <trkpt lat="31.084848" lon="-7.923349">
        <ele>2801.19995117188</ele>
        <time>2019-12-27T14:12:08.000Z</time>
      </trkpt>
      <trkpt lat="31.084864" lon="-7.923328">
        <ele>2801.39990234375</ele>
        <time>2019-12-27T14:12:12.000Z</time>
      </trkpt>
      <trkpt lat="31.084854" lon="-7.923346">
        <ele>2801.60009765625</ele>
        <time>2019-12-27T14:12:25.000Z</time>
      </trkpt>
      <trkpt lat="31.084864" lon="-7.923366">
        <ele>2801.39990234375</ele>
        <time>2019-12-27T14:12:29.000Z</time>
      </trkpt>
      <trkpt lat="31.084851" lon="-7.923383">
        <ele>2801</ele>
        <time>2019-12-27T14:12:41.000Z</time>
      </trkpt>
      <trkpt lat="31.084851" lon="-7.923406">
        <ele>2799.60009765625</ele>
        <time>2019-12-27T14:13:03.000Z</time>
      </trkpt>
      <trkpt lat="31.084832" lon="-7.92341">
        <ele>2799.3801081375</ele>
        <time>2019-12-27T14:13:09.000Z</time>
      </trkpt>
      <trkpt lat="31.084845" lon="-7.923434">
        <ele>2796.78025462188</ele>
        <time>2019-12-27T14:13:44.000Z</time>
      </trkpt>
      <trkpt lat="31.084851" lon="-7.923409">
        <ele>2796.39990234375</ele>
        <time>2019-12-27T14:13:56.000Z</time>
      </trkpt>
      <trkpt lat="31.084867" lon="-7.923377">
        <ele>2796.3801081375</ele>
        <time>2019-12-27T14:13:59.000Z</time>
      </trkpt>
      <trkpt lat="31.08488" lon="-7.923346">
        <ele>2796.19995117188</ele>
        <time>2019-12-27T14:14:02.000Z</time>
      </trkpt>
      <trkpt lat="31.08488" lon="-7.923374">
        <ele>2797</ele>
        <time>2019-12-27T14:14:32.000Z</time>
      </trkpt>
      <trkpt lat="31.084867" lon="-7.923397">
        <ele>2797.19995117188</ele>
        <time>2019-12-27T14:14:34.000Z</time>
      </trkpt>
      <trkpt lat="31.084851" lon="-7.923378">
        <ele>2797.81984303438</ele>
        <time>2019-12-27T14:14:42.000Z</time>
      </trkpt>
      <trkpt lat="31.084832" lon="-7.923383">
        <ele>2798.21974537813</ele>
        <time>2019-12-27T14:14:46.000Z</time>
      </trkpt>
      <trkpt lat="31.084822" lon="-7.923355">
        <ele>2798.6198918625</ele>
        <time>2019-12-27T14:14:49.000Z</time>
      </trkpt>
      <trkpt lat="31.08481" lon="-7.923338">
        <ele>2800.6198918625</ele>
        <time>2019-12-27T14:15:06.000Z</time>
      </trkpt>
      <trkpt lat="31.084829" lon="-7.923338">
        <ele>2803.41972071875</ele>
        <time>2019-12-27T14:15:38.000Z</time>
      </trkpt>
      <trkpt lat="31.084842" lon="-7.923357">
        <ele>2804.60009765625</ele>
        <time>2019-12-27T14:16:19.000Z</time>
      </trkpt>
      <trkpt lat="31.084835" lon="-7.923337">
        <ele>2804.81984303438</ele>
        <time>2019-12-27T14:17:50.000Z</time>
      </trkpt>
      <trkpt lat="31.084813" lon="-7.923323">
        <ele>2805</ele>
        <time>2019-12-27T14:17:55.000Z</time>
      </trkpt>
      <trkpt lat="31.084832" lon="-7.923308">
        <ele>2804.19995117188</ele>
        <time>2019-12-27T14:24:26.000Z</time>
      </trkpt>
      <trkpt lat="31.084826" lon="-7.923282">
        <ele>2804.19995117188</ele>
        <time>2019-12-27T14:24:29.000Z</time>
      </trkpt>
      <trkpt lat="31.084835" lon="-7.923262">
        <ele>2804.19995117188</ele>
        <time>2019-12-27T14:24:32.000Z</time>
      </trkpt>
      <trkpt lat="31.084848" lon="-7.923277">
        <ele>2804</ele>
        <time>2019-12-27T14:24:50.000Z</time>
      </trkpt>
      <trkpt lat="31.084867" lon="-7.923275">
        <ele>2803.78025462188</ele>
        <time>2019-12-27T14:25:03.000Z</time>
      </trkpt>
      <trkpt lat="31.084883" lon="-7.923285">
        <ele>2802</ele>
        <time>2019-12-27T14:26:34.000Z</time>
      </trkpt>
      <trkpt lat="31.084886" lon="-7.923263">
        <ele>2801.80004882813</ele>
        <time>2019-12-27T14:26:46.000Z</time>
      </trkpt>
      <trkpt lat="31.084896" lon="-7.923282">
        <ele>2801.60009765625</ele>
        <time>2019-12-27T14:27:08.000Z</time>
      </trkpt>
      <trkpt lat="31.084883" lon="-7.923297">
        <ele>2801.39990234375</ele>
        <time>2019-12-27T14:27:14.000Z</time>
      </trkpt>
      <trkpt lat="31.084874" lon="-7.92332">
        <ele>2801.19995117188</ele>
        <time>2019-12-27T14:27:25.000Z</time>
      </trkpt>
      <trkpt lat="31.08488" lon="-7.923346">
        <ele>2801</ele>
        <time>2019-12-27T14:27:32.000Z</time>
      </trkpt>
      <trkpt lat="31.08488" lon="-7.923375">
        <ele>2801</ele>
        <time>2019-12-27T14:27:36.000Z</time>
      </trkpt>
      <trkpt lat="31.084874" lon="-7.923397">
        <ele>2801</ele>
        <time>2019-12-27T14:27:39.000Z</time>
      </trkpt>
      <trkpt lat="31.084861" lon="-7.923414">
        <ele>2801</ele>
        <time>2019-12-27T14:27:41.000Z</time>
      </trkpt>
      <trkpt lat="31.084845" lon="-7.92343">
        <ele>2801</ele>
        <time>2019-12-27T14:27:44.000Z</time>
      </trkpt>
      <trkpt lat="31.084829" lon="-7.923454">
        <ele>2801</ele>
        <time>2019-12-27T14:27:47.000Z</time>
      </trkpt>
      <trkpt lat="31.084819" lon="-7.923483">
        <ele>2801.19995117188</ele>
        <time>2019-12-27T14:27:50.000Z</time>
      </trkpt>
      <trkpt lat="31.084803" lon="-7.923506">
        <ele>2801.21974537813</ele>
        <time>2019-12-27T14:27:52.000Z</time>
      </trkpt>
      <trkpt lat="31.084784" lon="-7.923526">
        <ele>2801.60009765625</ele>
        <time>2019-12-27T14:27:55.000Z</time>
      </trkpt>
      <trkpt lat="31.084765" lon="-7.923543">
        <ele>2801.81984303438</ele>
        <time>2019-12-27T14:27:58.000Z</time>
      </trkpt>
      <trkpt lat="31.084749" lon="-7.923555">
        <ele>2802.19995117188</ele>
        <time>2019-12-27T14:28:00.000Z</time>
      </trkpt>
      <trkpt lat="31.08473" lon="-7.923577">
        <ele>2802.60009765625</ele>
        <time>2019-12-27T14:28:03.000Z</time>
      </trkpt>
      <trkpt lat="31.084714" lon="-7.923594">
        <ele>2802.81984303438</ele>
        <time>2019-12-27T14:28:05.000Z</time>
      </trkpt>
      <trkpt lat="31.084701" lon="-7.923617">
        <ele>2803.01979420625</ele>
        <time>2019-12-27T14:28:07.000Z</time>
      </trkpt>
      <trkpt lat="31.084691" lon="-7.923638">
        <ele>2803.21974537813</ele>
        <time>2019-12-27T14:28:09.000Z</time>
      </trkpt>
      <trkpt lat="31.084685" lon="-7.923662">
        <ele>2803.6198918625</ele>
        <time>2019-12-27T14:28:12.000Z</time>
      </trkpt>
      <trkpt lat="31.084678" lon="-7.923686">
        <ele>2804.41972071875</ele>
        <time>2019-12-27T14:28:18.000Z</time>
      </trkpt>
      <trkpt lat="31.084662" lon="-7.923715">
        <ele>2804.80004882813</ele>
        <time>2019-12-27T14:28:21.000Z</time>
      </trkpt>
      <trkpt lat="31.084656" lon="-7.923735">
        <ele>2804.81984303438</ele>
        <time>2019-12-27T14:28:23.000Z</time>
      </trkpt>
      <trkpt lat="31.084646" lon="-7.923754">
        <ele>2805.01979420625</ele>
        <time>2019-12-27T14:28:25.000Z</time>
      </trkpt>
      <trkpt lat="31.084634" lon="-7.923772">
        <ele>2805.21974537813</ele>
        <time>2019-12-27T14:28:27.000Z</time>
      </trkpt>
      <trkpt lat="31.084624" lon="-7.923794">
        <ele>2805.41972071875</ele>
        <time>2019-12-27T14:28:30.000Z</time>
      </trkpt>
      <trkpt lat="31.084614" lon="-7.923817">
        <ele>2805.80004882813</ele>
        <time>2019-12-27T14:28:34.000Z</time>
      </trkpt>
      <trkpt lat="31.084605" lon="-7.923835">
        <ele>2806</ele>
        <time>2019-12-27T14:28:38.000Z</time>
      </trkpt>
      <trkpt lat="31.084589" lon="-7.923854">
        <ele>2806.21974537813</ele>
        <time>2019-12-27T14:28:42.000Z</time>
      </trkpt>
      <trkpt lat="31.084576" lon="-7.923877">
        <ele>2806.41972071875</ele>
        <time>2019-12-27T14:28:45.000Z</time>
      </trkpt>
      <trkpt lat="31.08456" lon="-7.923897">
        <ele>2806.6198918625</ele>
        <time>2019-12-27T14:28:49.000Z</time>
      </trkpt>
      <trkpt lat="31.084544" lon="-7.923914">
        <ele>2806.81984303438</ele>
        <time>2019-12-27T14:28:52.000Z</time>
      </trkpt>
      <trkpt lat="31.084531" lon="-7.923931">
        <ele>2807</ele>
        <time>2019-12-27T14:28:55.000Z</time>
      </trkpt>
      <trkpt lat="31.084518" lon="-7.923954">
        <ele>2807.19995117188</ele>
        <time>2019-12-27T14:28:58.000Z</time>
      </trkpt>
      <trkpt lat="31.084512" lon="-7.923982">
        <ele>2807.21974537813</ele>
        <time>2019-12-27T14:29:01.000Z</time>
      </trkpt>
      <trkpt lat="31.084509" lon="-7.924005">
        <ele>2807.41972071875</ele>
        <time>2019-12-27T14:29:05.000Z</time>
      </trkpt>
      <trkpt lat="31.084499" lon="-7.924028">
        <ele>2807.6198918625</ele>
        <time>2019-12-27T14:29:09.000Z</time>
      </trkpt>
      <trkpt lat="31.084493" lon="-7.924052">
        <ele>2807.81984303438</ele>
        <time>2019-12-27T14:29:12.000Z</time>
      </trkpt>
      <trkpt lat="31.084486" lon="-7.924075">
        <ele>2808.19995117188</ele>
        <time>2019-12-27T14:29:15.000Z</time>
      </trkpt>
      <trkpt lat="31.084486" lon="-7.924102">
        <ele>2808.39990234375</ele>
        <time>2019-12-27T14:29:18.000Z</time>
      </trkpt>
      <trkpt lat="31.084483" lon="-7.924126">
        <ele>2808.80004882813</ele>
        <time>2019-12-27T14:29:21.000Z</time>
      </trkpt>
      <trkpt lat="31.084477" lon="-7.924151">
        <ele>2809.21974537813</ele>
        <time>2019-12-27T14:29:25.000Z</time>
      </trkpt>
      <trkpt lat="31.084477" lon="-7.92418">
        <ele>2809.6198918625</ele>
        <time>2019-12-27T14:29:28.000Z</time>
      </trkpt>
      <trkpt lat="31.084474" lon="-7.924202">
        <ele>2810.21974537813</ele>
        <time>2019-12-27T14:29:31.000Z</time>
      </trkpt>
      <trkpt lat="31.08447" lon="-7.924223">
        <ele>2810.6198918625</ele>
        <time>2019-12-27T14:29:34.000Z</time>
      </trkpt>
      <trkpt lat="31.084464" lon="-7.924243">
        <ele>2811.41972071875</ele>
        <time>2019-12-27T14:29:38.000Z</time>
      </trkpt>
      <trkpt lat="31.084461" lon="-7.924267">
        <ele>2811.81984303438</ele>
        <time>2019-12-27T14:29:41.000Z</time>
      </trkpt>
      <trkpt lat="31.084461" lon="-7.924292">
        <ele>2812.41972071875</ele>
        <time>2019-12-27T14:29:44.000Z</time>
      </trkpt>
      <trkpt lat="31.08447" lon="-7.924314">
        <ele>2813.21974537813</ele>
        <time>2019-12-27T14:29:48.000Z</time>
      </trkpt>
      <trkpt lat="31.084464" lon="-7.924338">
        <ele>2813.6198918625</ele>
        <time>2019-12-27T14:29:51.000Z</time>
      </trkpt>
      <trkpt lat="31.084458" lon="-7.924363">
        <ele>2814.19995117188</ele>
        <time>2019-12-27T14:29:54.000Z</time>
      </trkpt>
      <trkpt lat="31.084454" lon="-7.924386">
        <ele>2814.6198918625</ele>
        <time>2019-12-27T14:29:57.000Z</time>
      </trkpt>
      <trkpt lat="31.084461" lon="-7.924412">
        <ele>2815.01979420625</ele>
        <time>2019-12-27T14:30:00.000Z</time>
      </trkpt>
      <trkpt lat="31.084464" lon="-7.924438">
        <ele>2815.41972071875</ele>
        <time>2019-12-27T14:30:04.000Z</time>
      </trkpt>
      <trkpt lat="31.084467" lon="-7.92446">
        <ele>2816</ele>
        <time>2019-12-27T14:30:07.000Z</time>
      </trkpt>
      <trkpt lat="31.08447" lon="-7.924486">
        <ele>2816.41972071875</ele>
        <time>2019-12-27T14:30:11.000Z</time>
      </trkpt>
      <trkpt lat="31.084477" lon="-7.924512">
        <ele>2817</ele>
        <time>2019-12-27T14:30:15.000Z</time>
      </trkpt>
      <trkpt lat="31.084483" lon="-7.92454">
        <ele>2817.39990234375</ele>
        <time>2019-12-27T14:30:18.000Z</time>
      </trkpt>
      <trkpt lat="31.084493" lon="-7.924558">
        <ele>2817.81984303438</ele>
        <time>2019-12-27T14:30:22.000Z</time>
      </trkpt>
      <trkpt lat="31.084493" lon="-7.924582">
        <ele>2818.60009765625</ele>
        <time>2019-12-27T14:30:27.000Z</time>
      </trkpt>
      <trkpt lat="31.084496" lon="-7.924608">
        <ele>2819</ele>
        <time>2019-12-27T14:30:31.000Z</time>
      </trkpt>
      <trkpt lat="31.084506" lon="-7.924627">
        <ele>2819.21974537813</ele>
        <time>2019-12-27T14:30:34.000Z</time>
      </trkpt>
      <trkpt lat="31.084506" lon="-7.924654">
        <ele>2819.60009765625</ele>
        <time>2019-12-27T14:30:38.000Z</time>
      </trkpt>
      <trkpt lat="31.084512" lon="-7.924678">
        <ele>2819.80004882813</ele>
        <time>2019-12-27T14:30:42.000Z</time>
      </trkpt>
      <trkpt lat="31.084512" lon="-7.924702">
        <ele>2819.80004882813</ele>
        <time>2019-12-27T14:30:46.000Z</time>
      </trkpt>
      <trkpt lat="31.084509" lon="-7.92473">
        <ele>2819.78025462188</ele>
        <time>2019-12-27T14:30:49.000Z</time>
      </trkpt>
      <trkpt lat="31.084512" lon="-7.924755">
        <ele>2819.60009765625</ele>
        <time>2019-12-27T14:30:52.000Z</time>
      </trkpt>
      <trkpt lat="31.084509" lon="-7.92478">
        <ele>2819.60009765625</ele>
        <time>2019-12-27T14:30:55.000Z</time>
      </trkpt>
      <trkpt lat="31.084512" lon="-7.92481">
        <ele>2819.39990234375</ele>
        <time>2019-12-27T14:30:58.000Z</time>
      </trkpt>
      <trkpt lat="31.084515" lon="-7.924835">
        <ele>2819.39990234375</ele>
        <time>2019-12-27T14:31:01.000Z</time>
      </trkpt>
      <trkpt lat="31.084518" lon="-7.924857">
        <ele>2819.39990234375</ele>
        <time>2019-12-27T14:31:04.000Z</time>
      </trkpt>
      <trkpt lat="31.084522" lon="-7.924878">
        <ele>2819.19995117188</ele>
        <time>2019-12-27T14:31:07.000Z</time>
      </trkpt>
      <trkpt lat="31.084515" lon="-7.924902">
        <ele>2819.39990234375</ele>
        <time>2019-12-27T14:31:11.000Z</time>
      </trkpt>
      <trkpt lat="31.084515" lon="-7.924926">
        <ele>2819.39990234375</ele>
        <time>2019-12-27T14:31:15.000Z</time>
      </trkpt>
      <trkpt lat="31.084515" lon="-7.924955">
        <ele>2819.60009765625</ele>
        <time>2019-12-27T14:31:18.000Z</time>
      </trkpt>
      <trkpt lat="31.084522" lon="-7.924982">
        <ele>2819.80004882813</ele>
        <time>2019-12-27T14:31:21.000Z</time>
      </trkpt>
      <trkpt lat="31.084525" lon="-7.925008">
        <ele>2820.01979420625</ele>
        <time>2019-12-27T14:31:24.000Z</time>
      </trkpt>
      <trkpt lat="31.084522" lon="-7.925032">
        <ele>2820.39990234375</ele>
        <time>2019-12-27T14:31:27.000Z</time>
      </trkpt>
      <trkpt lat="31.084515" lon="-7.925054">
        <ele>2820.60009765625</ele>
        <time>2019-12-27T14:31:29.000Z</time>
      </trkpt>
      <trkpt lat="31.084515" lon="-7.925083">
        <ele>2821.01979420625</ele>
        <time>2019-12-27T14:31:33.000Z</time>
      </trkpt>
      <trkpt lat="31.084522" lon="-7.925109">
        <ele>2821.6198918625</ele>
        <time>2019-12-27T14:31:37.000Z</time>
      </trkpt>
      <trkpt lat="31.084506" lon="-7.925134">
        <ele>2822.41972071875</ele>
        <time>2019-12-27T14:31:42.000Z</time>
      </trkpt>
      <trkpt lat="31.084506" lon="-7.925155">
        <ele>2823</ele>
        <time>2019-12-27T14:31:45.000Z</time>
      </trkpt>
      <trkpt lat="31.084499" lon="-7.92518">
        <ele>2823.6198918625</ele>
        <time>2019-12-27T14:31:49.000Z</time>
      </trkpt>
      <trkpt lat="31.084502" lon="-7.925203">
        <ele>2824.21974537813</ele>
        <time>2019-12-27T14:31:53.000Z</time>
      </trkpt>
      <trkpt lat="31.084502" lon="-7.925226">
        <ele>2825.21974537813</ele>
        <time>2019-12-27T14:31:58.000Z</time>
      </trkpt>
      <trkpt lat="31.084512" lon="-7.925245">
        <ele>2825.81984303438</ele>
        <time>2019-12-27T14:32:02.000Z</time>
      </trkpt>
      <trkpt lat="31.084506" lon="-7.925266">
        <ele>2826.60009765625</ele>
        <time>2019-12-27T14:32:06.000Z</time>
      </trkpt>
      <trkpt lat="31.084499" lon="-7.925288">
        <ele>2827.21974537813</ele>
        <time>2019-12-27T14:32:10.000Z</time>
      </trkpt>
      <trkpt lat="31.084486" lon="-7.925314">
        <ele>2827.81984303438</ele>
        <time>2019-12-27T14:32:14.000Z</time>
      </trkpt>
      <trkpt lat="31.084474" lon="-7.925338">
        <ele>2828.39990234375</ele>
        <time>2019-12-27T14:32:18.000Z</time>
      </trkpt>
      <trkpt lat="31.084461" lon="-7.925363">
        <ele>2828.81984303438</ele>
        <time>2019-12-27T14:32:21.000Z</time>
      </trkpt>
      <trkpt lat="31.084451" lon="-7.925383">
        <ele>2829.01979420625</ele>
        <time>2019-12-27T14:32:23.000Z</time>
      </trkpt>
      <trkpt lat="31.084435" lon="-7.925405">
        <ele>2829.39990234375</ele>
        <time>2019-12-27T14:32:25.000Z</time>
      </trkpt>
      <trkpt lat="31.084422" lon="-7.92542">
        <ele>2829.60009765625</ele>
        <time>2019-12-27T14:32:27.000Z</time>
      </trkpt>
      <trkpt lat="31.084413" lon="-7.925438">
        <ele>2829.80004882813</ele>
        <time>2019-12-27T14:32:29.000Z</time>
      </trkpt>
      <trkpt lat="31.084397" lon="-7.925469">
        <ele>2830.21974537813</ele>
        <time>2019-12-27T14:32:34.000Z</time>
      </trkpt>
      <trkpt lat="31.084381" lon="-7.925485">
        <ele>2830.41972071875</ele>
        <time>2019-12-27T14:32:37.000Z</time>
      </trkpt>
      <trkpt lat="31.084371" lon="-7.925509">
        <ele>2830.6198918625</ele>
        <time>2019-12-27T14:32:40.000Z</time>
      </trkpt>
      <trkpt lat="31.084355" lon="-7.925532">
        <ele>2830.80004882813</ele>
        <time>2019-12-27T14:32:43.000Z</time>
      </trkpt>
      <trkpt lat="31.084349" lon="-7.925558">
        <ele>2831</ele>
        <time>2019-12-27T14:32:47.000Z</time>
      </trkpt>
      <trkpt lat="31.084336" lon="-7.925575">
        <ele>2831.01979420625</ele>
        <time>2019-12-27T14:32:49.000Z</time>
      </trkpt>
      <trkpt lat="31.08433" lon="-7.925603">
        <ele>2831.19995117188</ele>
        <time>2019-12-27T14:32:52.000Z</time>
      </trkpt>
      <trkpt lat="31.084326" lon="-7.92563">
        <ele>2831.39990234375</ele>
        <time>2019-12-27T14:32:57.000Z</time>
      </trkpt>
      <trkpt lat="31.084323" lon="-7.925654">
        <ele>2831.60009765625</ele>
        <time>2019-12-27T14:33:00.000Z</time>
      </trkpt>
      <trkpt lat="31.084314" lon="-7.925678">
        <ele>2831.6198918625</ele>
        <time>2019-12-27T14:33:03.000Z</time>
      </trkpt>
      <trkpt lat="31.084301" lon="-7.9257">
        <ele>2831.80004882813</ele>
        <time>2019-12-27T14:33:06.000Z</time>
      </trkpt>
      <trkpt lat="31.084294" lon="-7.92572">
        <ele>2832</ele>
        <time>2019-12-27T14:33:09.000Z</time>
      </trkpt>
      <trkpt lat="31.084285" lon="-7.925743">
        <ele>2832.19995117188</ele>
        <time>2019-12-27T14:33:12.000Z</time>
      </trkpt>
      <trkpt lat="31.084275" lon="-7.925765">
        <ele>2832.39990234375</ele>
        <time>2019-12-27T14:33:15.000Z</time>
      </trkpt>
      <trkpt lat="31.084272" lon="-7.925789">
        <ele>2832.41972071875</ele>
        <time>2019-12-27T14:33:17.000Z</time>
      </trkpt>
      <trkpt lat="31.084266" lon="-7.92581">
        <ele>2832.6198918625</ele>
        <time>2019-12-27T14:33:20.000Z</time>
      </trkpt>
      <trkpt lat="31.084262" lon="-7.925838">
        <ele>2832.81984303438</ele>
        <time>2019-12-27T14:33:24.000Z</time>
      </trkpt>
      <trkpt lat="31.08425" lon="-7.925863">
        <ele>2833</ele>
        <time>2019-12-27T14:33:26.000Z</time>
      </trkpt>
      <trkpt lat="31.084243" lon="-7.925886">
        <ele>2833.21974537813</ele>
        <time>2019-12-27T14:33:30.000Z</time>
      </trkpt>
      <trkpt lat="31.08424" lon="-7.925914">
        <ele>2833.60009765625</ele>
        <time>2019-12-27T14:33:35.000Z</time>
      </trkpt>
      <trkpt lat="31.084221" lon="-7.925928">
        <ele>2834</ele>
        <time>2019-12-27T14:33:40.000Z</time>
      </trkpt>
      <trkpt lat="31.084195" lon="-7.925926">
        <ele>2834.01979420625</ele>
        <time>2019-12-27T14:33:43.000Z</time>
      </trkpt>
      <trkpt lat="31.084176" lon="-7.925918">
        <ele>2834.19995117188</ele>
        <time>2019-12-27T14:33:45.000Z</time>
      </trkpt>
      <trkpt lat="31.084157" lon="-7.925912">
        <ele>2834.21974537813</ele>
        <time>2019-12-27T14:33:47.000Z</time>
      </trkpt>
      <trkpt lat="31.084138" lon="-7.925926">
        <ele>2834.39990234375</ele>
        <time>2019-12-27T14:33:50.000Z</time>
      </trkpt>
      <trkpt lat="31.084118" lon="-7.92593">
        <ele>2834.60009765625</ele>
        <time>2019-12-27T14:33:52.000Z</time>
      </trkpt>
      <trkpt lat="31.084099" lon="-7.925934">
        <ele>2834.60009765625</ele>
        <time>2019-12-27T14:33:55.000Z</time>
      </trkpt>
      <trkpt lat="31.08408" lon="-7.925938">
        <ele>2834.80004882813</ele>
        <time>2019-12-27T14:33:58.000Z</time>
      </trkpt>
      <trkpt lat="31.084064" lon="-7.925948">
        <ele>2834.81984303438</ele>
        <time>2019-12-27T14:34:01.000Z</time>
      </trkpt>
      <trkpt lat="31.084045" lon="-7.925958">
        <ele>2835</ele>
        <time>2019-12-27T14:34:05.000Z</time>
      </trkpt>
      <trkpt lat="31.084026" lon="-7.925966">
        <ele>2835.19995117188</ele>
        <time>2019-12-27T14:34:08.000Z</time>
      </trkpt>
      <trkpt lat="31.084016" lon="-7.925985">
        <ele>2835.39990234375</ele>
        <time>2019-12-27T14:34:11.000Z</time>
      </trkpt>
      <trkpt lat="31.083997" lon="-7.925997">
        <ele>2835.41972071875</ele>
        <time>2019-12-27T14:34:14.000Z</time>
      </trkpt>
      <trkpt lat="31.083974" lon="-7.926002">
        <ele>2835.60009765625</ele>
        <time>2019-12-27T14:34:17.000Z</time>
      </trkpt>
      <trkpt lat="31.083955" lon="-7.92601">
        <ele>2835.6198918625</ele>
        <time>2019-12-27T14:34:20.000Z</time>
      </trkpt>
      <trkpt lat="31.083936" lon="-7.926014">
        <ele>2835.80004882813</ele>
        <time>2019-12-27T14:34:22.000Z</time>
      </trkpt>
      <trkpt lat="31.083914" lon="-7.926027">
        <ele>2835.81984303438</ele>
        <time>2019-12-27T14:34:25.000Z</time>
      </trkpt>
      <trkpt lat="31.083901" lon="-7.926047">
        <ele>2836</ele>
        <time>2019-12-27T14:34:28.000Z</time>
      </trkpt>
      <trkpt lat="31.083885" lon="-7.926058">
        <ele>2836.19995117188</ele>
        <time>2019-12-27T14:34:31.000Z</time>
      </trkpt>
      <trkpt lat="31.083869" lon="-7.926072">
        <ele>2836.41972071875</ele>
        <time>2019-12-27T14:34:35.000Z</time>
      </trkpt>
      <trkpt lat="31.083859" lon="-7.926097">
        <ele>2836.80004882813</ele>
        <time>2019-12-27T14:34:39.000Z</time>
      </trkpt>
      <trkpt lat="31.083843" lon="-7.926106">
        <ele>2837</ele>
        <time>2019-12-27T14:34:41.000Z</time>
      </trkpt>
      <trkpt lat="31.083824" lon="-7.926118">
        <ele>2837.01979420625</ele>
        <time>2019-12-27T14:34:43.000Z</time>
      </trkpt>
      <trkpt lat="31.083811" lon="-7.926138">
        <ele>2837.41972071875</ele>
        <time>2019-12-27T14:34:46.000Z</time>
      </trkpt>
      <trkpt lat="31.083798" lon="-7.926155">
        <ele>2837.81984303438</ele>
        <time>2019-12-27T14:34:50.000Z</time>
      </trkpt>
      <trkpt lat="31.083782" lon="-7.926172">
        <ele>2838.39990234375</ele>
        <time>2019-12-27T14:34:54.000Z</time>
      </trkpt>
      <trkpt lat="31.08377" lon="-7.926194">
        <ele>2838.6198918625</ele>
        <time>2019-12-27T14:34:57.000Z</time>
      </trkpt>
      <trkpt lat="31.083754" lon="-7.926209">
        <ele>2839.19995117188</ele>
        <time>2019-12-27T14:35:01.000Z</time>
      </trkpt>
      <trkpt lat="31.083731" lon="-7.926212">
        <ele>2839.41972071875</ele>
        <time>2019-12-27T14:35:04.000Z</time>
      </trkpt>
      <trkpt lat="31.083712" lon="-7.92622">
        <ele>2839.80004882813</ele>
        <time>2019-12-27T14:35:07.000Z</time>
      </trkpt>
      <trkpt lat="31.083693" lon="-7.926229">
        <ele>2840.19995117188</ele>
        <time>2019-12-27T14:35:11.000Z</time>
      </trkpt>
      <trkpt lat="31.08367" lon="-7.926235">
        <ele>2840.60009765625</ele>
        <time>2019-12-27T14:35:15.000Z</time>
      </trkpt>
      <trkpt lat="31.083651" lon="-7.926245">
        <ele>2840.80004882813</ele>
        <time>2019-12-27T14:35:18.000Z</time>
      </trkpt>
      <trkpt lat="31.083632" lon="-7.926251">
        <ele>2841.01979420625</ele>
        <time>2019-12-27T14:35:21.000Z</time>
      </trkpt>
      <trkpt lat="31.083613" lon="-7.92626">
        <ele>2841.39990234375</ele>
        <time>2019-12-27T14:35:24.000Z</time>
      </trkpt>
      <trkpt lat="31.083606" lon="-7.926285">
        <ele>2841.80004882813</ele>
        <time>2019-12-27T14:35:29.000Z</time>
      </trkpt>
      <trkpt lat="31.083581" lon="-7.926294">
        <ele>2842.01979420625</ele>
        <time>2019-12-27T14:35:32.000Z</time>
      </trkpt>
      <trkpt lat="31.083562" lon="-7.926298">
        <ele>2842.39990234375</ele>
        <time>2019-12-27T14:35:35.000Z</time>
      </trkpt>
      <trkpt lat="31.083549" lon="-7.926317">
        <ele>2842.80004882813</ele>
        <time>2019-12-27T14:35:39.000Z</time>
      </trkpt>
      <trkpt lat="31.083539" lon="-7.926337">
        <ele>2843.39990234375</ele>
        <time>2019-12-27T14:35:44.000Z</time>
      </trkpt>
      <trkpt lat="31.08352" lon="-7.92635">
        <ele>2843.6198918625</ele>
        <time>2019-12-27T14:35:47.000Z</time>
      </trkpt>
      <trkpt lat="31.083501" lon="-7.926355">
        <ele>2844.19995117188</ele>
        <time>2019-12-27T14:35:51.000Z</time>
      </trkpt>
      <trkpt lat="31.083478" lon="-7.926363">
        <ele>2844.6198918625</ele>
        <time>2019-12-27T14:35:55.000Z</time>
      </trkpt>
      <trkpt lat="31.083462" lon="-7.92638">
        <ele>2845.19995117188</ele>
        <time>2019-12-27T14:35:59.000Z</time>
      </trkpt>
      <trkpt lat="31.08345" lon="-7.926397">
        <ele>2845.81984303438</ele>
        <time>2019-12-27T14:36:04.000Z</time>
      </trkpt>
      <trkpt lat="31.08343" lon="-7.926408">
        <ele>2846.60009765625</ele>
        <time>2019-12-27T14:36:10.000Z</time>
      </trkpt>
      <trkpt lat="31.083408" lon="-7.92642">
        <ele>2847</ele>
        <time>2019-12-27T14:36:13.000Z</time>
      </trkpt>
      <trkpt lat="31.083389" lon="-7.926435">
        <ele>2847.39990234375</ele>
        <time>2019-12-27T14:36:16.000Z</time>
      </trkpt>
      <trkpt lat="31.08337" lon="-7.926448">
        <ele>2847.80004882813</ele>
        <time>2019-12-27T14:36:19.000Z</time>
      </trkpt>
      <trkpt lat="31.083354" lon="-7.926462">
        <ele>2848.21974537813</ele>
        <time>2019-12-27T14:36:23.000Z</time>
      </trkpt>
      <trkpt lat="31.083341" lon="-7.92648">
        <ele>2849.01979420625</ele>
        <time>2019-12-27T14:36:29.000Z</time>
      </trkpt>
      <trkpt lat="31.083325" lon="-7.926497">
        <ele>2849.6198918625</ele>
        <time>2019-12-27T14:36:33.000Z</time>
      </trkpt>
      <trkpt lat="31.083309" lon="-7.926509">
        <ele>2849.81984303438</ele>
        <time>2019-12-27T14:36:35.000Z</time>
      </trkpt>
      <trkpt lat="31.08329" lon="-7.926517">
        <ele>2850.01979420625</ele>
        <time>2019-12-27T14:36:37.000Z</time>
      </trkpt>
      <trkpt lat="31.083274" lon="-7.926526">
        <ele>2850.41972071875</ele>
        <time>2019-12-27T14:36:40.000Z</time>
      </trkpt>
      <trkpt lat="31.083251" lon="-7.926537">
        <ele>2850.81984303438</ele>
        <time>2019-12-27T14:36:44.000Z</time>
      </trkpt>
      <trkpt lat="31.083232" lon="-7.926542">
        <ele>2851.01979420625</ele>
        <time>2019-12-27T14:36:46.000Z</time>
      </trkpt>
      <trkpt lat="31.083213" lon="-7.926546">
        <ele>2851.21974537813</ele>
        <time>2019-12-27T14:36:48.000Z</time>
      </trkpt>
      <trkpt lat="31.083194" lon="-7.926563">
        <ele>2851.60009765625</ele>
        <time>2019-12-27T14:36:51.000Z</time>
      </trkpt>
      <trkpt lat="31.083178" lon="-7.926582">
        <ele>2852.01979420625</ele>
        <time>2019-12-27T14:36:56.000Z</time>
      </trkpt>
      <trkpt lat="31.083158" lon="-7.926597">
        <ele>2852.39990234375</ele>
        <time>2019-12-27T14:37:00.000Z</time>
      </trkpt>
      <trkpt lat="31.083136" lon="-7.926598">
        <ele>2852.60009765625</ele>
        <time>2019-12-27T14:37:03.000Z</time>
      </trkpt>
      <trkpt lat="31.08312" lon="-7.926608">
        <ele>2853</ele>
        <time>2019-12-27T14:37:07.000Z</time>
      </trkpt>
      <trkpt lat="31.083104" lon="-7.926618">
        <ele>2853.39990234375</ele>
        <time>2019-12-27T14:37:11.000Z</time>
      </trkpt>
      <trkpt lat="31.083085" lon="-7.92663">
        <ele>2853.80004882813</ele>
        <time>2019-12-27T14:37:16.000Z</time>
      </trkpt>
      <trkpt lat="31.083066" lon="-7.926638">
        <ele>2854.19995117188</ele>
        <time>2019-12-27T14:37:20.000Z</time>
      </trkpt>
      <trkpt lat="31.083046" lon="-7.926642">
        <ele>2854.60009765625</ele>
        <time>2019-12-27T14:37:24.000Z</time>
      </trkpt>
      <trkpt lat="31.083021" lon="-7.926645">
        <ele>2855</ele>
        <time>2019-12-27T14:37:28.000Z</time>
      </trkpt>
      <trkpt lat="31.082995" lon="-7.926655">
        <ele>2855.21974537813</ele>
        <time>2019-12-27T14:37:31.000Z</time>
      </trkpt>
      <trkpt lat="31.082973" lon="-7.926665">
        <ele>2855.6198918625</ele>
        <time>2019-12-27T14:37:35.000Z</time>
      </trkpt>
      <trkpt lat="31.082957" lon="-7.926685">
        <ele>2856.19995117188</ele>
        <time>2019-12-27T14:37:39.000Z</time>
      </trkpt>
      <trkpt lat="31.082938" lon="-7.926703">
        <ele>2856.41972071875</ele>
        <time>2019-12-27T14:37:42.000Z</time>
      </trkpt>
      <trkpt lat="31.082925" lon="-7.926718">
        <ele>2857.01979420625</ele>
        <time>2019-12-27T14:37:46.000Z</time>
      </trkpt>
      <trkpt lat="31.082909" lon="-7.926731">
        <ele>2857.41972071875</ele>
        <time>2019-12-27T14:37:49.000Z</time>
      </trkpt>
      <trkpt lat="31.082893" lon="-7.926748">
        <ele>2857.81984303438</ele>
        <time>2019-12-27T14:37:52.000Z</time>
      </trkpt>
      <trkpt lat="31.08288" lon="-7.926765">
        <ele>2858.21974537813</ele>
        <time>2019-12-27T14:37:55.000Z</time>
      </trkpt>
      <trkpt lat="31.082874" lon="-7.926785">
        <ele>2858.80004882813</ele>
        <time>2019-12-27T14:37:59.000Z</time>
      </trkpt>
      <trkpt lat="31.082851" lon="-7.926786">
        <ele>2859.41972071875</ele>
        <time>2019-12-27T14:38:03.000Z</time>
      </trkpt>
      <trkpt lat="31.082829" lon="-7.926786">
        <ele>2859.81984303438</ele>
        <time>2019-12-27T14:38:06.000Z</time>
      </trkpt>
      <trkpt lat="31.082813" lon="-7.926808">
        <ele>2860.6198918625</ele>
        <time>2019-12-27T14:38:11.000Z</time>
      </trkpt>
      <trkpt lat="31.082794" lon="-7.926806">
        <ele>2861.6198918625</ele>
        <time>2019-12-27T14:38:17.000Z</time>
      </trkpt>
      <trkpt lat="31.082774" lon="-7.926818">
        <ele>2862.21974537813</ele>
        <time>2019-12-27T14:38:21.000Z</time>
      </trkpt>
      <trkpt lat="31.082758" lon="-7.92683">
        <ele>2862.60009765625</ele>
        <time>2019-12-27T14:38:24.000Z</time>
      </trkpt>
      <trkpt lat="31.082749" lon="-7.926858">
        <ele>2863.19995117188</ele>
        <time>2019-12-27T14:38:29.000Z</time>
      </trkpt>
      <trkpt lat="31.082733" lon="-7.926877">
        <ele>2863.60009765625</ele>
        <time>2019-12-27T14:38:33.000Z</time>
      </trkpt>
      <trkpt lat="31.082717" lon="-7.926892">
        <ele>2863.81984303438</ele>
        <time>2019-12-27T14:38:37.000Z</time>
      </trkpt>
      <trkpt lat="31.082701" lon="-7.926909">
        <ele>2864.19995117188</ele>
        <time>2019-12-27T14:38:41.000Z</time>
      </trkpt>
      <trkpt lat="31.082675" lon="-7.926918">
        <ele>2864.39990234375</ele>
        <time>2019-12-27T14:38:44.000Z</time>
      </trkpt>
      <trkpt lat="31.082656" lon="-7.92692">
        <ele>2864.60009765625</ele>
        <time>2019-12-27T14:38:47.000Z</time>
      </trkpt>
      <trkpt lat="31.082637" lon="-7.926925">
        <ele>2865</ele>
        <time>2019-12-27T14:38:51.000Z</time>
      </trkpt>
      <trkpt lat="31.082618" lon="-7.926929">
        <ele>2865.21974537813</ele>
        <time>2019-12-27T14:38:54.000Z</time>
      </trkpt>
      <trkpt lat="31.082608" lon="-7.926949">
        <ele>2865.81984303438</ele>
        <time>2019-12-27T14:39:00.000Z</time>
      </trkpt>
      <trkpt lat="31.082595" lon="-7.926966">
        <ele>2866.6198918625</ele>
        <time>2019-12-27T14:39:05.000Z</time>
      </trkpt>
      <trkpt lat="31.082586" lon="-7.926985">
        <ele>2867.41972071875</ele>
        <time>2019-12-27T14:39:10.000Z</time>
      </trkpt>
      <trkpt lat="31.082576" lon="-7.927006">
        <ele>2868.01979420625</ele>
        <time>2019-12-27T14:39:14.000Z</time>
      </trkpt>
      <trkpt lat="31.08256" lon="-7.927017">
        <ele>2869.81984303438</ele>
        <time>2019-12-27T14:39:27.000Z</time>
      </trkpt>
      <trkpt lat="31.082538" lon="-7.927023">
        <ele>2871.19995117188</ele>
        <time>2019-12-27T14:39:37.000Z</time>
      </trkpt>
      <trkpt lat="31.082518" lon="-7.927031">
        <ele>2871.6198918625</ele>
        <time>2019-12-27T14:39:42.000Z</time>
      </trkpt>
      <trkpt lat="31.082502" lon="-7.927048">
        <ele>2872</ele>
        <time>2019-12-27T14:39:47.000Z</time>
      </trkpt>
      <trkpt lat="31.08248" lon="-7.927065">
        <ele>2872.19995117188</ele>
        <time>2019-12-27T14:39:51.000Z</time>
      </trkpt>
      <trkpt lat="31.082458" lon="-7.927062">
        <ele>2872.60009765625</ele>
        <time>2019-12-27T14:39:56.000Z</time>
      </trkpt>
      <trkpt lat="31.082435" lon="-7.927062">
        <ele>2872.81984303438</ele>
        <time>2019-12-27T14:39:59.000Z</time>
      </trkpt>
      <trkpt lat="31.082413" lon="-7.927062">
        <ele>2873.19995117188</ele>
        <time>2019-12-27T14:40:02.000Z</time>
      </trkpt>
      <trkpt lat="31.08239" lon="-7.927058">
        <ele>2873.39990234375</ele>
        <time>2019-12-27T14:40:05.000Z</time>
      </trkpt>
      <trkpt lat="31.082371" lon="-7.927058">
        <ele>2873.6198918625</ele>
        <time>2019-12-27T14:40:08.000Z</time>
      </trkpt>
      <trkpt lat="31.082352" lon="-7.92707">
        <ele>2874.01979420625</ele>
        <time>2019-12-27T14:40:12.000Z</time>
      </trkpt>
      <trkpt lat="31.082336" lon="-7.927088">
        <ele>2874.80004882813</ele>
        <time>2019-12-27T14:40:19.000Z</time>
      </trkpt>
      <trkpt lat="31.08232" lon="-7.927102">
        <ele>2875.21974537813</ele>
        <time>2019-12-27T14:40:24.000Z</time>
      </trkpt>
      <trkpt lat="31.082301" lon="-7.927107">
        <ele>2875.60009765625</ele>
        <time>2019-12-27T14:40:27.000Z</time>
      </trkpt>
      <trkpt lat="31.082282" lon="-7.927107">
        <ele>2875.80004882813</ele>
        <time>2019-12-27T14:40:30.000Z</time>
      </trkpt>
      <trkpt lat="31.082262" lon="-7.927114">
        <ele>2876</ele>
        <time>2019-12-27T14:40:33.000Z</time>
      </trkpt>
      <trkpt lat="31.082246" lon="-7.927123">
        <ele>2876.39990234375</ele>
        <time>2019-12-27T14:40:37.000Z</time>
      </trkpt>
      <trkpt lat="31.082221" lon="-7.927134">
        <ele>2876.80004882813</ele>
        <time>2019-12-27T14:40:42.000Z</time>
      </trkpt>
      <trkpt lat="31.082198" lon="-7.92714">
        <ele>2877</ele>
        <time>2019-12-27T14:40:46.000Z</time>
      </trkpt>
      <trkpt lat="31.082176" lon="-7.927143">
        <ele>2877.19995117188</ele>
        <time>2019-12-27T14:40:49.000Z</time>
      </trkpt>
      <trkpt lat="31.08215" lon="-7.927148">
        <ele>2877.60009765625</ele>
        <time>2019-12-27T14:40:54.000Z</time>
      </trkpt>
      <trkpt lat="31.082134" lon="-7.927163">
        <ele>2877.80004882813</ele>
        <time>2019-12-27T14:40:58.000Z</time>
      </trkpt>
      <trkpt lat="31.082118" lon="-7.927178">
        <ele>2878</ele>
        <time>2019-12-27T14:41:01.000Z</time>
      </trkpt>
      <trkpt lat="31.082096" lon="-7.92718">
        <ele>2878.19995117188</ele>
        <time>2019-12-27T14:41:04.000Z</time>
      </trkpt>
      <trkpt lat="31.082074" lon="-7.927183">
        <ele>2878.41972071875</ele>
        <time>2019-12-27T14:41:10.000Z</time>
      </trkpt>
      <trkpt lat="31.082058" lon="-7.927195">
        <ele>2878.80004882813</ele>
        <time>2019-12-27T14:41:14.000Z</time>
      </trkpt>
      <trkpt lat="31.082042" lon="-7.92721">
        <ele>2879</ele>
        <time>2019-12-27T14:41:17.000Z</time>
      </trkpt>
      <trkpt lat="31.082026" lon="-7.92722">
        <ele>2879.19995117188</ele>
        <time>2019-12-27T14:41:20.000Z</time>
      </trkpt>
      <trkpt lat="31.082003" lon="-7.927223">
        <ele>2879.39990234375</ele>
        <time>2019-12-27T14:41:24.000Z</time>
      </trkpt>
      <trkpt lat="31.081987" lon="-7.927235">
        <ele>2879.80004882813</ele>
        <time>2019-12-27T14:41:29.000Z</time>
      </trkpt>
      <trkpt lat="31.081974" lon="-7.927254">
        <ele>2880.01979420625</ele>
        <time>2019-12-27T14:41:33.000Z</time>
      </trkpt>
      <trkpt lat="31.081958" lon="-7.927266">
        <ele>2880.6198918625</ele>
        <time>2019-12-27T14:41:39.000Z</time>
      </trkpt>
      <trkpt lat="31.081939" lon="-7.927277">
        <ele>2881.01979420625</ele>
        <time>2019-12-27T14:41:44.000Z</time>
      </trkpt>
      <trkpt lat="31.08192" lon="-7.927282">
        <ele>2881.39990234375</ele>
        <time>2019-12-27T14:41:48.000Z</time>
      </trkpt>
      <trkpt lat="31.081901" lon="-7.927282">
        <ele>2881.80004882813</ele>
        <time>2019-12-27T14:41:52.000Z</time>
      </trkpt>
      <trkpt lat="31.081882" lon="-7.927278">
        <ele>2882.19995117188</ele>
        <time>2019-12-27T14:41:56.000Z</time>
      </trkpt>
      <trkpt lat="31.081862" lon="-7.927274">
        <ele>2882.39990234375</ele>
        <time>2019-12-27T14:41:59.000Z</time>
      </trkpt>
      <trkpt lat="31.081843" lon="-7.927275">
        <ele>2882.80004882813</ele>
        <time>2019-12-27T14:42:03.000Z</time>
      </trkpt>
      <trkpt lat="31.081821" lon="-7.927274">
        <ele>2883.01979420625</ele>
        <time>2019-12-27T14:42:06.000Z</time>
      </trkpt>
      <trkpt lat="31.081805" lon="-7.927285">
        <ele>2883.39990234375</ele>
        <time>2019-12-27T14:42:09.000Z</time>
      </trkpt>
      <trkpt lat="31.081786" lon="-7.927302">
        <ele>2883.80004882813</ele>
        <time>2019-12-27T14:42:14.000Z</time>
      </trkpt>
      <trkpt lat="31.081763" lon="-7.927306">
        <ele>2884.19995117188</ele>
        <time>2019-12-27T14:42:18.000Z</time>
      </trkpt>
      <trkpt lat="31.081744" lon="-7.927317">
        <ele>2884.41972071875</ele>
        <time>2019-12-27T14:42:21.000Z</time>
      </trkpt>
      <trkpt lat="31.081725" lon="-7.927332">
        <ele>2885.19995117188</ele>
        <time>2019-12-27T14:42:27.000Z</time>
      </trkpt>
      <trkpt lat="31.081706" lon="-7.927338">
        <ele>2885.60009765625</ele>
        <time>2019-12-27T14:42:31.000Z</time>
      </trkpt>
      <trkpt lat="31.081686" lon="-7.927355">
        <ele>2886.19995117188</ele>
        <time>2019-12-27T14:42:35.000Z</time>
      </trkpt>
      <trkpt lat="31.08167" lon="-7.927368">
        <ele>2886.81984303438</ele>
        <time>2019-12-27T14:42:40.000Z</time>
      </trkpt>
      <trkpt lat="31.081654" lon="-7.927385">
        <ele>2887.21974537813</ele>
        <time>2019-12-27T14:42:43.000Z</time>
      </trkpt>
      <trkpt lat="31.081638" lon="-7.9274">
        <ele>2888</ele>
        <time>2019-12-27T14:42:47.000Z</time>
      </trkpt>
      <trkpt lat="31.081619" lon="-7.927414">
        <ele>2888.6198918625</ele>
        <time>2019-12-27T14:42:51.000Z</time>
      </trkpt>
      <trkpt lat="31.0816" lon="-7.927422">
        <ele>2889.41972071875</ele>
        <time>2019-12-27T14:42:56.000Z</time>
      </trkpt>
      <trkpt lat="31.081581" lon="-7.927431">
        <ele>2890.21974537813</ele>
        <time>2019-12-27T14:43:01.000Z</time>
      </trkpt>
      <trkpt lat="31.081565" lon="-7.927447">
        <ele>2890.81984303438</ele>
        <time>2019-12-27T14:43:05.000Z</time>
      </trkpt>
      <trkpt lat="31.081552" lon="-7.927467">
        <ele>2891.41972071875</ele>
        <time>2019-12-27T14:43:09.000Z</time>
      </trkpt>
      <trkpt lat="31.081542" lon="-7.927488">
        <ele>2892.39990234375</ele>
        <time>2019-12-27T14:43:15.000Z</time>
      </trkpt>
      <trkpt lat="31.081526" lon="-7.927506">
        <ele>2893.01979420625</ele>
        <time>2019-12-27T14:43:20.000Z</time>
      </trkpt>
      <trkpt lat="31.08151" lon="-7.927518">
        <ele>2893.41972071875</ele>
        <time>2019-12-27T14:43:23.000Z</time>
      </trkpt>
      <trkpt lat="31.081494" lon="-7.927535">
        <ele>2894.01979420625</ele>
        <time>2019-12-27T14:43:27.000Z</time>
      </trkpt>
      <trkpt lat="31.081485" lon="-7.927557">
        <ele>2894.80004882813</ele>
        <time>2019-12-27T14:43:32.000Z</time>
      </trkpt>
      <trkpt lat="31.081466" lon="-7.927565">
        <ele>2895.6198918625</ele>
        <time>2019-12-27T14:43:40.000Z</time>
      </trkpt>
      <trkpt lat="31.081446" lon="-7.927583">
        <ele>2896.21974537813</ele>
        <time>2019-12-27T14:43:45.000Z</time>
      </trkpt>
      <trkpt lat="31.081434" lon="-7.927605">
        <ele>2896.6198918625</ele>
        <time>2019-12-27T14:43:50.000Z</time>
      </trkpt>
      <trkpt lat="31.081424" lon="-7.927623">
        <ele>2897.01979420625</ele>
        <time>2019-12-27T14:43:54.000Z</time>
      </trkpt>
      <trkpt lat="31.081408" lon="-7.927643">
        <ele>2897.60009765625</ele>
        <time>2019-12-27T14:43:59.000Z</time>
      </trkpt>
      <trkpt lat="31.081398" lon="-7.927665">
        <ele>2897.81984303438</ele>
        <time>2019-12-27T14:44:03.000Z</time>
      </trkpt>
      <trkpt lat="31.081379" lon="-7.927682">
        <ele>2898.01979420625</ele>
        <time>2019-12-27T14:44:06.000Z</time>
      </trkpt>
      <trkpt lat="31.08136" lon="-7.927691">
        <ele>2898.39990234375</ele>
        <time>2019-12-27T14:44:10.000Z</time>
      </trkpt>
      <trkpt lat="31.08135" lon="-7.927714">
        <ele>2898.81984303438</ele>
        <time>2019-12-27T14:44:16.000Z</time>
      </trkpt>
      <trkpt lat="31.081344" lon="-7.927734">
        <ele>2899.19995117188</ele>
        <time>2019-12-27T14:44:21.000Z</time>
      </trkpt>
      <trkpt lat="31.081338" lon="-7.927757">
        <ele>2899.41972071875</ele>
        <time>2019-12-27T14:44:25.000Z</time>
      </trkpt>
      <trkpt lat="31.081328" lon="-7.927778">
        <ele>2899.80004882813</ele>
        <time>2019-12-27T14:44:28.000Z</time>
      </trkpt>
      <trkpt lat="31.081318" lon="-7.927797">
        <ele>2900.19995117188</ele>
        <time>2019-12-27T14:44:33.000Z</time>
      </trkpt>
      <trkpt lat="31.081309" lon="-7.927815">
        <ele>2900.60009765625</ele>
        <time>2019-12-27T14:44:38.000Z</time>
      </trkpt>
      <trkpt lat="31.081299" lon="-7.92784">
        <ele>2901.19995117188</ele>
        <time>2019-12-27T14:44:45.000Z</time>
      </trkpt>
      <trkpt lat="31.08129" lon="-7.927862">
        <ele>2901.60009765625</ele>
        <time>2019-12-27T14:44:49.000Z</time>
      </trkpt>
      <trkpt lat="31.081293" lon="-7.927883">
        <ele>2902.39990234375</ele>
        <time>2019-12-27T14:45:02.000Z</time>
      </trkpt>
      <trkpt lat="31.08129" lon="-7.92791">
        <ele>2902.80004882813</ele>
        <time>2019-12-27T14:45:07.000Z</time>
      </trkpt>
      <trkpt lat="31.081286" lon="-7.927934">
        <ele>2903.01979420625</ele>
        <time>2019-12-27T14:45:12.000Z</time>
      </trkpt>
      <trkpt lat="31.081286" lon="-7.927957">
        <ele>2903.60009765625</ele>
        <time>2019-12-27T14:45:22.000Z</time>
      </trkpt>
      <trkpt lat="31.081277" lon="-7.927975">
        <ele>2903.80004882813</ele>
        <time>2019-12-27T14:45:26.000Z</time>
      </trkpt>
      <trkpt lat="31.081267" lon="-7.927995">
        <ele>2904</ele>
        <time>2019-12-27T14:45:31.000Z</time>
      </trkpt>
      <trkpt lat="31.081267" lon="-7.92802">
        <ele>2904.19995117188</ele>
        <time>2019-12-27T14:45:35.000Z</time>
      </trkpt>
      <trkpt lat="31.081261" lon="-7.92804">
        <ele>2904.60009765625</ele>
        <time>2019-12-27T14:45:41.000Z</time>
      </trkpt>
      <trkpt lat="31.081264" lon="-7.928062">
        <ele>2904.81984303438</ele>
        <time>2019-12-27T14:45:45.000Z</time>
      </trkpt>
      <trkpt lat="31.081264" lon="-7.928091">
        <ele>2905.21974537813</ele>
        <time>2019-12-27T14:45:49.000Z</time>
      </trkpt>
      <trkpt lat="31.081264" lon="-7.928114">
        <ele>2905.60009765625</ele>
        <time>2019-12-27T14:45:52.000Z</time>
      </trkpt>
      <trkpt lat="31.081264" lon="-7.928135">
        <ele>2905.81984303438</ele>
        <time>2019-12-27T14:45:55.000Z</time>
      </trkpt>
      <trkpt lat="31.081254" lon="-7.928155">
        <ele>2906.19995117188</ele>
        <time>2019-12-27T14:45:59.000Z</time>
      </trkpt>
      <trkpt lat="31.081248" lon="-7.928177">
        <ele>2906.41972071875</ele>
        <time>2019-12-27T14:46:02.000Z</time>
      </trkpt>
      <trkpt lat="31.081248" lon="-7.928202">
        <ele>2906.80004882813</ele>
        <time>2019-12-27T14:46:06.000Z</time>
      </trkpt>
      <trkpt lat="31.081254" lon="-7.928225">
        <ele>2907.21974537813</ele>
        <time>2019-12-27T14:46:12.000Z</time>
      </trkpt>
      <trkpt lat="31.081248" lon="-7.928246">
        <ele>2907.60009765625</ele>
        <time>2019-12-27T14:46:16.000Z</time>
      </trkpt>
      <trkpt lat="31.081238" lon="-7.928275">
        <ele>2907.81984303438</ele>
        <time>2019-12-27T14:46:20.000Z</time>
      </trkpt>
      <trkpt lat="31.081235" lon="-7.928297">
        <ele>2908.01979420625</ele>
        <time>2019-12-27T14:46:23.000Z</time>
      </trkpt>
      <trkpt lat="31.081232" lon="-7.928322">
        <ele>2908.39990234375</ele>
        <time>2019-12-27T14:46:26.000Z</time>
      </trkpt>
      <trkpt lat="31.081235" lon="-7.928349">
        <ele>2908.80004882813</ele>
        <time>2019-12-27T14:46:31.000Z</time>
      </trkpt>
      <trkpt lat="31.081235" lon="-7.928374">
        <ele>2909.39990234375</ele>
        <time>2019-12-27T14:46:37.000Z</time>
      </trkpt>
      <trkpt lat="31.081229" lon="-7.928397">
        <ele>2910.01979420625</ele>
        <time>2019-12-27T14:46:43.000Z</time>
      </trkpt>
      <trkpt lat="31.081232" lon="-7.928422">
        <ele>2911</ele>
        <time>2019-12-27T14:46:49.000Z</time>
      </trkpt>
      <trkpt lat="31.081232" lon="-7.928445">
        <ele>2911.41972071875</ele>
        <time>2019-12-27T14:46:53.000Z</time>
      </trkpt>
      <trkpt lat="31.081213" lon="-7.928463">
        <ele>2912.01536411693</ele>
        <time>2019-12-27T14:46:57.000Z</time>
      </trkpt>
      <trkpt lat="31.081203" lon="-7.928485">
        <ele>2912.41972071875</ele>
        <time>2019-12-27T14:47:00.000Z</time>
      </trkpt>
      <trkpt lat="31.081194" lon="-7.928512">
        <ele>2913.01979420625</ele>
        <time>2019-12-27T14:47:04.000Z</time>
      </trkpt>
      <trkpt lat="31.081194" lon="-7.928535">
        <ele>2913.81984303438</ele>
        <time>2019-12-27T14:47:09.000Z</time>
      </trkpt>
      <trkpt lat="31.081194" lon="-7.928557">
        <ele>2915.01979420625</ele>
        <time>2019-12-27T14:47:17.000Z</time>
      </trkpt>
      <trkpt lat="31.08119" lon="-7.928585">
        <ele>2915.6198918625</ele>
        <time>2019-12-27T14:47:21.000Z</time>
      </trkpt>
      <trkpt lat="31.08119" lon="-7.92861">
        <ele>2916.41972071875</ele>
        <time>2019-12-27T14:47:26.000Z</time>
      </trkpt>
      <trkpt lat="31.081181" lon="-7.928629">
        <ele>2917.01979420625</ele>
        <time>2019-12-27T14:47:30.000Z</time>
      </trkpt>
      <trkpt lat="31.081178" lon="-7.92865">
        <ele>2917.41972071875</ele>
        <time>2019-12-27T14:47:33.000Z</time>
      </trkpt>
      <trkpt lat="31.081178" lon="-7.928672">
        <ele>2917.81984303438</ele>
        <time>2019-12-27T14:47:36.000Z</time>
      </trkpt>
      <trkpt lat="31.081184" lon="-7.928697">
        <ele>2918.21974537813</ele>
        <time>2019-12-27T14:47:39.000Z</time>
      </trkpt>
      <trkpt lat="31.081194" lon="-7.92872">
        <ele>2918.60009765625</ele>
        <time>2019-12-27T14:47:42.000Z</time>
      </trkpt>
      <trkpt lat="31.081197" lon="-7.928746">
        <ele>2918.81984303438</ele>
        <time>2019-12-27T14:47:45.000Z</time>
      </trkpt>
      <trkpt lat="31.081206" lon="-7.928768">
        <ele>2919.21974537813</ele>
        <time>2019-12-27T14:47:48.000Z</time>
      </trkpt>
      <trkpt lat="31.081219" lon="-7.928785">
        <ele>2919.60009765625</ele>
        <time>2019-12-27T14:47:51.000Z</time>
      </trkpt>
      <trkpt lat="31.0812" lon="-7.928797">
        <ele>2920</ele>
        <time>2019-12-27T14:47:56.000Z</time>
      </trkpt>
      <trkpt lat="31.081181" lon="-7.928802">
        <ele>2920.19995117188</ele>
        <time>2019-12-27T14:47:59.000Z</time>
      </trkpt>
      <trkpt lat="31.081155" lon="-7.9288">
        <ele>2920.39990234375</ele>
        <time>2019-12-27T14:48:01.000Z</time>
      </trkpt>
      <trkpt lat="31.081133" lon="-7.928803">
        <ele>2920.39990234375</ele>
        <time>2019-12-27T14:48:03.000Z</time>
      </trkpt>
      <trkpt lat="31.081107" lon="-7.928805">
        <ele>2920.60009765625</ele>
        <time>2019-12-27T14:48:07.000Z</time>
      </trkpt>
      <trkpt lat="31.081085" lon="-7.928806">
        <ele>2920.80004882813</ele>
        <time>2019-12-27T14:48:10.000Z</time>
      </trkpt>
      <trkpt lat="31.081062" lon="-7.92881">
        <ele>2920.80004882813</ele>
        <time>2019-12-27T14:48:12.000Z</time>
      </trkpt>
      <trkpt lat="31.081037" lon="-7.928818">
        <ele>2921</ele>
        <time>2019-12-27T14:48:15.000Z</time>
      </trkpt>
      <trkpt lat="31.081021" lon="-7.928828">
        <ele>2921</ele>
        <time>2019-12-27T14:48:17.000Z</time>
      </trkpt>
      <trkpt lat="31.081008" lon="-7.92885">
        <ele>2921.19995117188</ele>
        <time>2019-12-27T14:48:20.000Z</time>
      </trkpt>
      <trkpt lat="31.080995" lon="-7.928872">
        <ele>2921.19995117188</ele>
        <time>2019-12-27T14:48:24.000Z</time>
      </trkpt>
      <trkpt lat="31.080989" lon="-7.928892">
        <ele>2921.39990234375</ele>
        <time>2019-12-27T14:48:28.000Z</time>
      </trkpt>
      <trkpt lat="31.08097" lon="-7.928906">
        <ele>2921.6198918625</ele>
        <time>2019-12-27T14:48:32.000Z</time>
      </trkpt>
      <trkpt lat="31.080954" lon="-7.928918">
        <ele>2921.80004882813</ele>
        <time>2019-12-27T14:48:34.000Z</time>
      </trkpt>
      <trkpt lat="31.080938" lon="-7.928928">
        <ele>2922</ele>
        <time>2019-12-27T14:48:36.000Z</time>
      </trkpt>
      <trkpt lat="31.080922" lon="-7.928946">
        <ele>2922.19995117188</ele>
        <time>2019-12-27T14:48:39.000Z</time>
      </trkpt>
      <trkpt lat="31.080902" lon="-7.92896">
        <ele>2922.39990234375</ele>
        <time>2019-12-27T14:48:41.000Z</time>
      </trkpt>
      <trkpt lat="31.08089" lon="-7.928977">
        <ele>2922.6198918625</ele>
        <time>2019-12-27T14:48:44.000Z</time>
      </trkpt>
      <trkpt lat="31.080877" lon="-7.928998">
        <ele>2923.01979420625</ele>
        <time>2019-12-27T14:48:48.000Z</time>
      </trkpt>
      <trkpt lat="31.080864" lon="-7.929022">
        <ele>2923.60009765625</ele>
        <time>2019-12-27T14:48:52.000Z</time>
      </trkpt>
      <trkpt lat="31.080858" lon="-7.929046">
        <ele>2924.01979420625</ele>
        <time>2019-12-27T14:48:57.000Z</time>
      </trkpt>
      <trkpt lat="31.080838" lon="-7.92907">
        <ele>2924.6198918625</ele>
        <time>2019-12-27T14:49:02.000Z</time>
      </trkpt>
      <trkpt lat="31.080822" lon="-7.929086">
        <ele>2925</ele>
        <time>2019-12-27T14:49:04.000Z</time>
      </trkpt>
      <trkpt lat="31.080803" lon="-7.929103">
        <ele>2925.21974537813</ele>
        <time>2019-12-27T14:49:07.000Z</time>
      </trkpt>
      <trkpt lat="31.08079" lon="-7.929118">
        <ele>2925.6198918625</ele>
        <time>2019-12-27T14:49:10.000Z</time>
      </trkpt>
      <trkpt lat="31.080771" lon="-7.929134">
        <ele>2926.41972071875</ele>
        <time>2019-12-27T14:49:17.000Z</time>
      </trkpt>
      <trkpt lat="31.080758" lon="-7.92915">
        <ele>2926.80004882813</ele>
        <time>2019-12-27T14:49:20.000Z</time>
      </trkpt>
      <trkpt lat="31.080739" lon="-7.929163">
        <ele>2927.19995117188</ele>
        <time>2019-12-27T14:49:23.000Z</time>
      </trkpt>
      <trkpt lat="31.080723" lon="-7.92918">
        <ele>2927.60009765625</ele>
        <time>2019-12-27T14:49:27.000Z</time>
      </trkpt>
      <trkpt lat="31.080714" lon="-7.929202">
        <ele>2928.19995117188</ele>
        <time>2019-12-27T14:49:32.000Z</time>
      </trkpt>
      <trkpt lat="31.080698" lon="-7.929214">
        <ele>2928.41972071875</ele>
        <time>2019-12-27T14:49:35.000Z</time>
      </trkpt>
      <trkpt lat="31.080682" lon="-7.929225">
        <ele>2928.80004882813</ele>
        <time>2019-12-27T14:49:38.000Z</time>
      </trkpt>
      <trkpt lat="31.080666" lon="-7.92924">
        <ele>2929.19995117188</ele>
        <time>2019-12-27T14:49:41.000Z</time>
      </trkpt>
      <trkpt lat="31.080653" lon="-7.929258">
        <ele>2929.41972071875</ele>
        <time>2019-12-27T14:49:44.000Z</time>
      </trkpt>
      <trkpt lat="31.08064" lon="-7.929277">
        <ele>2929.81984303438</ele>
        <time>2019-12-27T14:49:48.000Z</time>
      </trkpt>
      <trkpt lat="31.080621" lon="-7.929293">
        <ele>2930.01979420625</ele>
        <time>2019-12-27T14:49:50.000Z</time>
      </trkpt>
      <trkpt lat="31.080602" lon="-7.929306">
        <ele>2930.41972071875</ele>
        <time>2019-12-27T14:49:55.000Z</time>
      </trkpt>
      <trkpt lat="31.080579" lon="-7.929312">
        <ele>2930.6198918625</ele>
        <time>2019-12-27T14:49:57.000Z</time>
      </trkpt>
      <trkpt lat="31.080557" lon="-7.929323">
        <ele>2931.01979420625</ele>
        <time>2019-12-27T14:50:00.000Z</time>
      </trkpt>
      <trkpt lat="31.080541" lon="-7.929337">
        <ele>2931.39990234375</ele>
        <time>2019-12-27T14:50:03.000Z</time>
      </trkpt>
      <trkpt lat="31.080522" lon="-7.929349">
        <ele>2931.6198918625</ele>
        <time>2019-12-27T14:50:06.000Z</time>
      </trkpt>
      <trkpt lat="31.080506" lon="-7.929366">
        <ele>2932.01979420625</ele>
        <time>2019-12-27T14:50:10.000Z</time>
      </trkpt>
      <trkpt lat="31.080486" lon="-7.929383">
        <ele>2932.39990234375</ele>
        <time>2019-12-27T14:50:13.000Z</time>
      </trkpt>
      <trkpt lat="31.08047" lon="-7.9294">
        <ele>2932.6198918625</ele>
        <time>2019-12-27T14:50:16.000Z</time>
      </trkpt>
      <trkpt lat="31.080454" lon="-7.929414">
        <ele>2933.01979420625</ele>
        <time>2019-12-27T14:50:19.000Z</time>
      </trkpt>
      <trkpt lat="31.080438" lon="-7.92943">
        <ele>2933.39990234375</ele>
        <time>2019-12-27T14:50:23.000Z</time>
      </trkpt>
      <trkpt lat="31.080419" lon="-7.929437">
        <ele>2933.80004882813</ele>
        <time>2019-12-27T14:50:26.000Z</time>
      </trkpt>
      <trkpt lat="31.0804" lon="-7.929443">
        <ele>2934</ele>
        <time>2019-12-27T14:50:29.000Z</time>
      </trkpt>
      <trkpt lat="31.080381" lon="-7.929446">
        <ele>2934.21974537813</ele>
        <time>2019-12-27T14:50:33.000Z</time>
      </trkpt>
      <trkpt lat="31.080362" lon="-7.929454">
        <ele>2934.41972071875</ele>
        <time>2019-12-27T14:50:36.000Z</time>
      </trkpt>
      <trkpt lat="31.080342" lon="-7.929455">
        <ele>2934.80004882813</ele>
        <time>2019-12-27T14:50:39.000Z</time>
      </trkpt>
      <trkpt lat="31.08032" lon="-7.929458">
        <ele>2935</ele>
        <time>2019-12-27T14:50:42.000Z</time>
      </trkpt>
      <trkpt lat="31.080298" lon="-7.92946">
        <ele>2935.19995117188</ele>
        <time>2019-12-27T14:50:45.000Z</time>
      </trkpt>
      <trkpt lat="31.080275" lon="-7.929462">
        <ele>2935.39990234375</ele>
        <time>2019-12-27T14:50:48.000Z</time>
      </trkpt>
      <trkpt lat="31.080253" lon="-7.929466">
        <ele>2935.41972071875</ele>
        <time>2019-12-27T14:50:51.000Z</time>
      </trkpt>
      <trkpt lat="31.08023" lon="-7.92947">
        <ele>2935.60009765625</ele>
        <time>2019-12-27T14:50:53.000Z</time>
      </trkpt>
      <trkpt lat="31.080205" lon="-7.929475">
        <ele>2935.80004882813</ele>
        <time>2019-12-27T14:50:55.000Z</time>
      </trkpt>
      <trkpt lat="31.080182" lon="-7.92948">
        <ele>2935.81984303438</ele>
        <time>2019-12-27T14:50:57.000Z</time>
      </trkpt>
      <trkpt lat="31.080163" lon="-7.929495">
        <ele>2936.01979420625</ele>
        <time>2019-12-27T14:51:00.000Z</time>
      </trkpt>
      <trkpt lat="31.080138" lon="-7.929505">
        <ele>2936.21974537813</ele>
        <time>2019-12-27T14:51:03.000Z</time>
      </trkpt>
      <trkpt lat="31.080122" lon="-7.929515">
        <ele>2936.39990234375</ele>
        <time>2019-12-27T14:51:05.000Z</time>
      </trkpt>
      <trkpt lat="31.080106" lon="-7.929535">
        <ele>2936.60009765625</ele>
        <time>2019-12-27T14:51:08.000Z</time>
      </trkpt>
      <trkpt lat="31.080086" lon="-7.92955">
        <ele>2936.80004882813</ele>
        <time>2019-12-27T14:51:11.000Z</time>
      </trkpt>
      <trkpt lat="31.080077" lon="-7.92957">
        <ele>2937.19995117188</ele>
        <time>2019-12-27T14:51:15.000Z</time>
      </trkpt>
      <trkpt lat="31.080064" lon="-7.929593">
        <ele>2937.60009765625</ele>
        <time>2019-12-27T14:51:20.000Z</time>
      </trkpt>
      <trkpt lat="31.080048" lon="-7.92961">
        <ele>2938</ele>
        <time>2019-12-27T14:51:24.000Z</time>
      </trkpt>
      <trkpt lat="31.080035" lon="-7.929626">
        <ele>2938.19995117188</ele>
        <time>2019-12-27T14:51:27.000Z</time>
      </trkpt>
      <trkpt lat="31.080026" lon="-7.92965">
        <ele>2938.60009765625</ele>
        <time>2019-12-27T14:51:31.000Z</time>
      </trkpt>
      <trkpt lat="31.080019" lon="-7.92967">
        <ele>2939.01979420625</ele>
        <time>2019-12-27T14:51:36.000Z</time>
      </trkpt>
      <trkpt lat="31.080006" lon="-7.929686">
        <ele>2939.21974537813</ele>
        <time>2019-12-27T14:51:39.000Z</time>
      </trkpt>
      <trkpt lat="31.079997" lon="-7.929715">
        <ele>2939.60009765625</ele>
        <time>2019-12-27T14:51:42.000Z</time>
      </trkpt>
      <trkpt lat="31.079987" lon="-7.929737">
        <ele>2939.81984303438</ele>
        <time>2019-12-27T14:51:45.000Z</time>
      </trkpt>
      <trkpt lat="31.079978" lon="-7.929758">
        <ele>2940.19995117188</ele>
        <time>2019-12-27T14:51:49.000Z</time>
      </trkpt>
      <trkpt lat="31.079965" lon="-7.929775">
        <ele>2940.39990234375</ele>
        <time>2019-12-27T14:51:52.000Z</time>
      </trkpt>
      <trkpt lat="31.079952" lon="-7.929791">
        <ele>2940.80004882813</ele>
        <time>2019-12-27T14:51:56.000Z</time>
      </trkpt>
      <trkpt lat="31.079942" lon="-7.929811">
        <ele>2941</ele>
        <time>2019-12-27T14:51:59.000Z</time>
      </trkpt>
      <trkpt lat="31.079926" lon="-7.929831">
        <ele>2941.19995117188</ele>
        <time>2019-12-27T14:52:02.000Z</time>
      </trkpt>
      <trkpt lat="31.079914" lon="-7.929846">
        <ele>2941.60009765625</ele>
        <time>2019-12-27T14:52:07.000Z</time>
      </trkpt>
      <trkpt lat="31.079898" lon="-7.92986">
        <ele>2942</ele>
        <time>2019-12-27T14:52:11.000Z</time>
      </trkpt>
      <trkpt lat="31.079878" lon="-7.929868">
        <ele>2942.21974537813</ele>
        <time>2019-12-27T14:52:15.000Z</time>
      </trkpt>
      <trkpt lat="31.079862" lon="-7.92988">
        <ele>2943</ele>
        <time>2019-12-27T14:52:24.000Z</time>
      </trkpt>
      <trkpt lat="31.079837" lon="-7.929887">
        <ele>2943.21974537813</ele>
        <time>2019-12-27T14:52:29.000Z</time>
      </trkpt>
      <trkpt lat="31.079814" lon="-7.929891">
        <ele>2943.39990234375</ele>
        <time>2019-12-27T14:52:32.000Z</time>
      </trkpt>
      <trkpt lat="31.079795" lon="-7.929887">
        <ele>2943.60009765625</ele>
        <time>2019-12-27T14:52:35.000Z</time>
      </trkpt>
      <trkpt lat="31.079776" lon="-7.929865">
        <ele>2943.80004882813</ele>
        <time>2019-12-27T14:52:38.000Z</time>
      </trkpt>
      <trkpt lat="31.07976" lon="-7.929848">
        <ele>2944</ele>
        <time>2019-12-27T14:52:42.000Z</time>
      </trkpt>
      <trkpt lat="31.079741" lon="-7.929835">
        <ele>2944</ele>
        <time>2019-12-27T14:52:45.000Z</time>
      </trkpt>
      <trkpt lat="31.079718" lon="-7.929814">
        <ele>2944.19995117188</ele>
        <time>2019-12-27T14:52:48.000Z</time>
      </trkpt>
      <trkpt lat="31.079699" lon="-7.929797">
        <ele>2944.21974537813</ele>
        <time>2019-12-27T14:52:51.000Z</time>
      </trkpt>
      <trkpt lat="31.07968" lon="-7.929778">
        <ele>2944.39990234375</ele>
        <time>2019-12-27T14:52:54.000Z</time>
      </trkpt>
      <trkpt lat="31.079661" lon="-7.929762">
        <ele>2944.41972071875</ele>
        <time>2019-12-27T14:52:57.000Z</time>
      </trkpt>
      <trkpt lat="31.079642" lon="-7.929749">
        <ele>2944.60009765625</ele>
        <time>2019-12-27T14:53:00.000Z</time>
      </trkpt>
      <trkpt lat="31.079626" lon="-7.929738">
        <ele>2944.80004882813</ele>
        <time>2019-12-27T14:53:04.000Z</time>
      </trkpt>
      <trkpt lat="31.07961" lon="-7.929723">
        <ele>2944.80004882813</ele>
        <time>2019-12-27T14:53:06.000Z</time>
      </trkpt>
      <trkpt lat="31.079597" lon="-7.929702">
        <ele>2944.80004882813</ele>
        <time>2019-12-27T14:53:09.000Z</time>
      </trkpt>
      <trkpt lat="31.079581" lon="-7.929689">
        <ele>2945</ele>
        <time>2019-12-27T14:53:14.000Z</time>
      </trkpt>
      <trkpt lat="31.079568" lon="-7.929662">
        <ele>2945.19995117188</ele>
        <time>2019-12-27T14:53:18.000Z</time>
      </trkpt>
      <trkpt lat="31.079555" lon="-7.929645">
        <ele>2945.39990234375</ele>
        <time>2019-12-27T14:53:20.000Z</time>
      </trkpt>
      <trkpt lat="31.079536" lon="-7.929633">
        <ele>2945.39990234375</ele>
        <time>2019-12-27T14:53:23.000Z</time>
      </trkpt>
      <trkpt lat="31.079517" lon="-7.929622">
        <ele>2945.60009765625</ele>
        <time>2019-12-27T14:53:26.000Z</time>
      </trkpt>
      <trkpt lat="31.079498" lon="-7.929603">
        <ele>2945.80004882813</ele>
        <time>2019-12-27T14:53:29.000Z</time>
      </trkpt>
      <trkpt lat="31.079482" lon="-7.929592">
        <ele>2945.80004882813</ele>
        <time>2019-12-27T14:53:31.000Z</time>
      </trkpt>
      <trkpt lat="31.079459" lon="-7.92958">
        <ele>2946</ele>
        <time>2019-12-27T14:53:34.000Z</time>
      </trkpt>
      <trkpt lat="31.07944" lon="-7.929578">
        <ele>2946.19995117188</ele>
        <time>2019-12-27T14:53:36.000Z</time>
      </trkpt>
      <trkpt lat="31.079414" lon="-7.92957">
        <ele>2946.41972071875</ele>
        <time>2019-12-27T14:53:41.000Z</time>
      </trkpt>
      <trkpt lat="31.079398" lon="-7.92956">
        <ele>2946.60009765625</ele>
        <time>2019-12-27T14:53:43.000Z</time>
      </trkpt>
      <trkpt lat="31.079376" lon="-7.929552">
        <ele>2946.6198918625</ele>
        <time>2019-12-27T14:53:45.000Z</time>
      </trkpt>
      <trkpt lat="31.079357" lon="-7.929555">
        <ele>2946.80004882813</ele>
        <time>2019-12-27T14:53:47.000Z</time>
      </trkpt>
      <trkpt lat="31.079331" lon="-7.929557">
        <ele>2947</ele>
        <time>2019-12-27T14:53:50.000Z</time>
      </trkpt>
      <trkpt lat="31.079312" lon="-7.929572">
        <ele>2947.19995117188</ele>
        <time>2019-12-27T14:53:53.000Z</time>
      </trkpt>
      <trkpt lat="31.079293" lon="-7.929575">
        <ele>2947.39990234375</ele>
        <time>2019-12-27T14:53:57.000Z</time>
      </trkpt>
      <trkpt lat="31.079274" lon="-7.929577">
        <ele>2947.41972071875</ele>
        <time>2019-12-27T14:54:00.000Z</time>
      </trkpt>
      <trkpt lat="31.079254" lon="-7.929577">
        <ele>2947.60009765625</ele>
        <time>2019-12-27T14:54:02.000Z</time>
      </trkpt>
      <trkpt lat="31.079232" lon="-7.929592">
        <ele>2947.80004882813</ele>
        <time>2019-12-27T14:54:05.000Z</time>
      </trkpt>
      <trkpt lat="31.079213" lon="-7.929606">
        <ele>2949.19995117188</ele>
        <time>2019-12-27T14:54:36.000Z</time>
      </trkpt>
      <trkpt lat="31.07919" lon="-7.929618">
        <ele>2949.21974537813</ele>
        <time>2019-12-27T14:54:39.000Z</time>
      </trkpt>
      <trkpt lat="31.079168" lon="-7.929626">
        <ele>2949.39990234375</ele>
        <time>2019-12-27T14:54:42.000Z</time>
      </trkpt>
      <trkpt lat="31.079152" lon="-7.92964">
        <ele>2949.41972071875</ele>
        <time>2019-12-27T14:54:45.000Z</time>
      </trkpt>
      <trkpt lat="31.079136" lon="-7.929652">
        <ele>2949.60009765625</ele>
        <time>2019-12-27T14:54:48.000Z</time>
      </trkpt>
      <trkpt lat="31.07912" lon="-7.929662">
        <ele>2949.80004882813</ele>
        <time>2019-12-27T14:54:51.000Z</time>
      </trkpt>
      <trkpt lat="31.079104" lon="-7.929673">
        <ele>2949.80004882813</ele>
        <time>2019-12-27T14:54:54.000Z</time>
      </trkpt>
      <trkpt lat="31.079085" lon="-7.929686">
        <ele>2950</ele>
        <time>2019-12-27T14:54:57.000Z</time>
      </trkpt>
      <trkpt lat="31.079069" lon="-7.929703">
        <ele>2950.19995117188</ele>
        <time>2019-12-27T14:55:00.000Z</time>
      </trkpt>
      <trkpt lat="31.079053" lon="-7.929717">
        <ele>2950.39990234375</ele>
        <time>2019-12-27T14:55:04.000Z</time>
      </trkpt>
      <trkpt lat="31.079034" lon="-7.92973">
        <ele>2951</ele>
        <time>2019-12-27T14:55:15.000Z</time>
      </trkpt>
      <trkpt lat="31.079014" lon="-7.929742">
        <ele>2951.19995117188</ele>
        <time>2019-12-27T14:55:18.000Z</time>
      </trkpt>
      <trkpt lat="31.078998" lon="-7.929752">
        <ele>2951.21974537813</ele>
        <time>2019-12-27T14:55:20.000Z</time>
      </trkpt>
      <trkpt lat="31.078976" lon="-7.929765">
        <ele>2951.41972071875</ele>
        <time>2019-12-27T14:55:23.000Z</time>
      </trkpt>
      <trkpt lat="31.07896" lon="-7.929783">
        <ele>2951.6198918625</ele>
        <time>2019-12-27T14:55:26.000Z</time>
      </trkpt>
      <trkpt lat="31.078941" lon="-7.92979">
        <ele>2952</ele>
        <time>2019-12-27T14:55:29.000Z</time>
      </trkpt>
      <trkpt lat="31.078922" lon="-7.929803">
        <ele>2952.19995117188</ele>
        <time>2019-12-27T14:55:32.000Z</time>
      </trkpt>
      <trkpt lat="31.078896" lon="-7.929814">
        <ele>2952.41972071875</ele>
        <time>2019-12-27T14:55:36.000Z</time>
      </trkpt>
      <trkpt lat="31.07888" lon="-7.929826">
        <ele>2952.6198918625</ele>
        <time>2019-12-27T14:55:39.000Z</time>
      </trkpt>
      <trkpt lat="31.078867" lon="-7.929843">
        <ele>2953</ele>
        <time>2019-12-27T14:55:42.000Z</time>
      </trkpt>
      <trkpt lat="31.078854" lon="-7.929858">
        <ele>2953.21974537813</ele>
        <time>2019-12-27T14:55:45.000Z</time>
      </trkpt>
      <trkpt lat="31.078838" lon="-7.929874">
        <ele>2953.41972071875</ele>
        <time>2019-12-27T14:55:48.000Z</time>
      </trkpt>
      <trkpt lat="31.078819" lon="-7.929888">
        <ele>2953.6198918625</ele>
        <time>2019-12-27T14:55:51.000Z</time>
      </trkpt>
      <trkpt lat="31.078797" lon="-7.929905">
        <ele>2954</ele>
        <time>2019-12-27T14:55:55.000Z</time>
      </trkpt>
      <trkpt lat="31.078781" lon="-7.92992">
        <ele>2954.21974537813</ele>
        <time>2019-12-27T14:55:58.000Z</time>
      </trkpt>
      <trkpt lat="31.078765" lon="-7.92993">
        <ele>2954.41972071875</ele>
        <time>2019-12-27T14:56:01.000Z</time>
      </trkpt>
      <trkpt lat="31.078746" lon="-7.929935">
        <ele>2954.80004882813</ele>
        <time>2019-12-27T14:56:04.000Z</time>
      </trkpt>
      <trkpt lat="31.078726" lon="-7.929947">
        <ele>2955</ele>
        <time>2019-12-27T14:56:07.000Z</time>
      </trkpt>
      <trkpt lat="31.078707" lon="-7.929962">
        <ele>2955.39990234375</ele>
        <time>2019-12-27T14:56:11.000Z</time>
      </trkpt>
      <trkpt lat="31.078688" lon="-7.929968">
        <ele>2955.60009765625</ele>
        <time>2019-12-27T14:56:14.000Z</time>
      </trkpt>
      <trkpt lat="31.078672" lon="-7.929983">
        <ele>2956</ele>
        <time>2019-12-27T14:56:18.000Z</time>
      </trkpt>
      <trkpt lat="31.078656" lon="-7.929993">
        <ele>2956.21974537813</ele>
        <time>2019-12-27T14:56:21.000Z</time>
      </trkpt>
      <trkpt lat="31.078637" lon="-7.93">
        <ele>2956.6198918625</ele>
        <time>2019-12-27T14:56:25.000Z</time>
      </trkpt>
      <trkpt lat="31.078621" lon="-7.930012">
        <ele>2956.8196629859</ele>
        <time>2019-12-27T14:56:28.000Z</time>
      </trkpt>
      <trkpt lat="31.078605" lon="-7.930022">
        <ele>2957.19995117188</ele>
        <time>2019-12-27T14:56:31.000Z</time>
      </trkpt>
      <trkpt lat="31.078589" lon="-7.930046">
        <ele>2958.01979420625</ele>
        <time>2019-12-27T14:56:41.000Z</time>
      </trkpt>
      <trkpt lat="31.078576" lon="-7.930066">
        <ele>2958.21974537813</ele>
        <time>2019-12-27T14:56:44.000Z</time>
      </trkpt>
      <trkpt lat="31.078557" lon="-7.930083">
        <ele>2958.41972071875</ele>
        <time>2019-12-27T14:56:47.000Z</time>
      </trkpt>
      <trkpt lat="31.078538" lon="-7.930089">
        <ele>2958.6198918625</ele>
        <time>2019-12-27T14:56:50.000Z</time>
      </trkpt>
      <trkpt lat="31.078515" lon="-7.930103">
        <ele>2958.81984303438</ele>
        <time>2019-12-27T14:56:53.000Z</time>
      </trkpt>
      <trkpt lat="31.078496" lon="-7.930122">
        <ele>2959</ele>
        <time>2019-12-27T14:56:56.000Z</time>
      </trkpt>
      <trkpt lat="31.078477" lon="-7.930134">
        <ele>2959.21974537813</ele>
        <time>2019-12-27T14:57:00.000Z</time>
      </trkpt>
      <trkpt lat="31.078454" lon="-7.930142">
        <ele>2959.41972071875</ele>
        <time>2019-12-27T14:57:03.000Z</time>
      </trkpt>
      <trkpt lat="31.078432" lon="-7.930155">
        <ele>2959.6198918625</ele>
        <time>2019-12-27T14:57:06.000Z</time>
      </trkpt>
      <trkpt lat="31.07841" lon="-7.930163">
        <ele>2959.81984303438</ele>
        <time>2019-12-27T14:57:09.000Z</time>
      </trkpt>
      <trkpt lat="31.078387" lon="-7.930166">
        <ele>2960.01979420625</ele>
        <time>2019-12-27T14:57:12.000Z</time>
      </trkpt>
      <trkpt lat="31.078365" lon="-7.930174">
        <ele>2960.39990234375</ele>
        <time>2019-12-27T14:57:15.000Z</time>
      </trkpt>
      <trkpt lat="31.078346" lon="-7.93018">
        <ele>2960.41972071875</ele>
        <time>2019-12-27T14:57:17.000Z</time>
      </trkpt>
      <trkpt lat="31.07833" lon="-7.930191">
        <ele>2960.60009765625</ele>
        <time>2019-12-27T14:57:19.000Z</time>
      </trkpt>
      <trkpt lat="31.078317" lon="-7.93021">
        <ele>2960.81984303438</ele>
        <time>2019-12-27T14:57:22.000Z</time>
      </trkpt>
      <trkpt lat="31.078294" lon="-7.930218">
        <ele>2961.01979420625</ele>
        <time>2019-12-27T14:57:24.000Z</time>
      </trkpt>
      <trkpt lat="31.078269" lon="-7.93023">
        <ele>2961.21974537813</ele>
        <time>2019-12-27T14:57:27.000Z</time>
      </trkpt>
      <trkpt lat="31.07825" lon="-7.930243">
        <ele>2961.60009765625</ele>
        <time>2019-12-27T14:57:30.000Z</time>
      </trkpt>
      <trkpt lat="31.07823" lon="-7.930251">
        <ele>2961.81984303438</ele>
        <time>2019-12-27T14:57:33.000Z</time>
      </trkpt>
      <trkpt lat="31.078214" lon="-7.930263">
        <ele>2962</ele>
        <time>2019-12-27T14:57:35.000Z</time>
      </trkpt>
      <trkpt lat="31.078198" lon="-7.930275">
        <ele>2962.21974537813</ele>
        <time>2019-12-27T14:57:38.000Z</time>
      </trkpt>
      <trkpt lat="31.078182" lon="-7.930293">
        <ele>2962.6198918625</ele>
        <time>2019-12-27T14:57:42.000Z</time>
      </trkpt>
      <trkpt lat="31.07817" lon="-7.930308">
        <ele>2963</ele>
        <time>2019-12-27T14:57:45.000Z</time>
      </trkpt>
      <trkpt lat="31.078157" lon="-7.930326">
        <ele>2963.39990234375</ele>
        <time>2019-12-27T14:57:49.000Z</time>
      </trkpt>
      <trkpt lat="31.078138" lon="-7.930337">
        <ele>2963.6198918625</ele>
        <time>2019-12-27T14:57:52.000Z</time>
      </trkpt>
      <trkpt lat="31.078122" lon="-7.930353">
        <ele>2964</ele>
        <time>2019-12-27T14:57:55.000Z</time>
      </trkpt>
      <trkpt lat="31.078106" lon="-7.93037">
        <ele>2964.6198918625</ele>
        <time>2019-12-27T14:58:01.000Z</time>
      </trkpt>
      <trkpt lat="31.078093" lon="-7.930389">
        <ele>2965.01979420625</ele>
        <time>2019-12-27T14:58:06.000Z</time>
      </trkpt>
      <trkpt lat="31.07807" lon="-7.930405">
        <ele>2965.39990234375</ele>
        <time>2019-12-27T14:58:09.000Z</time>
      </trkpt>
      <trkpt lat="31.078058" lon="-7.930423">
        <ele>2965.80004882813</ele>
        <time>2019-12-27T14:58:13.000Z</time>
      </trkpt>
      <trkpt lat="31.078048" lon="-7.930443">
        <ele>2966.19995117188</ele>
        <time>2019-12-27T14:58:17.000Z</time>
      </trkpt>
      <trkpt lat="31.078032" lon="-7.930457">
        <ele>2966.39990234375</ele>
        <time>2019-12-27T14:58:19.000Z</time>
      </trkpt>
      <trkpt lat="31.078019" lon="-7.930474">
        <ele>2966.6198918625</ele>
        <time>2019-12-27T14:58:23.000Z</time>
      </trkpt>
      <trkpt lat="31.078003" lon="-7.930483">
        <ele>2967</ele>
        <time>2019-12-27T14:58:26.000Z</time>
      </trkpt>
      <trkpt lat="31.077987" lon="-7.930498">
        <ele>2967.21974537813</ele>
        <time>2019-12-27T14:58:29.000Z</time>
      </trkpt>
      <trkpt lat="31.077968" lon="-7.930505">
        <ele>2967.41972071875</ele>
        <time>2019-12-27T14:58:32.000Z</time>
      </trkpt>
      <trkpt lat="31.077949" lon="-7.93052">
        <ele>2967.80004882813</ele>
        <time>2019-12-27T14:58:35.000Z</time>
      </trkpt>
      <trkpt lat="31.077933" lon="-7.930531">
        <ele>2968.01979420625</ele>
        <time>2019-12-27T14:58:38.000Z</time>
      </trkpt>
      <trkpt lat="31.07792" lon="-7.930546">
        <ele>2968.39990234375</ele>
        <time>2019-12-27T14:58:41.000Z</time>
      </trkpt>
      <trkpt lat="31.077901" lon="-7.930565">
        <ele>2968.80004882813</ele>
        <time>2019-12-27T14:58:45.000Z</time>
      </trkpt>
      <trkpt lat="31.077882" lon="-7.93057">
        <ele>2969.21974537813</ele>
        <time>2019-12-27T14:58:50.000Z</time>
      </trkpt>
      <trkpt lat="31.077862" lon="-7.930578">
        <ele>2969.41972071875</ele>
        <time>2019-12-27T14:58:53.000Z</time>
      </trkpt>
      <trkpt lat="31.077843" lon="-7.930582">
        <ele>2969.80004882813</ele>
        <time>2019-12-27T14:58:56.000Z</time>
      </trkpt>
      <trkpt lat="31.077824" lon="-7.93059">
        <ele>2970</ele>
        <time>2019-12-27T14:58:59.000Z</time>
      </trkpt>
      <trkpt lat="31.077802" lon="-7.930602">
        <ele>2970.39990234375</ele>
        <time>2019-12-27T14:59:03.000Z</time>
      </trkpt>
      <trkpt lat="31.077789" lon="-7.93062">
        <ele>2970.80004882813</ele>
        <time>2019-12-27T14:59:08.000Z</time>
      </trkpt>
      <trkpt lat="31.07777" lon="-7.93063">
        <ele>2971</ele>
        <time>2019-12-27T14:59:11.000Z</time>
      </trkpt>
      <trkpt lat="31.07775" lon="-7.930627">
        <ele>2971.19995117188</ele>
        <time>2019-12-27T14:59:14.000Z</time>
      </trkpt>
      <trkpt lat="31.077731" lon="-7.930625">
        <ele>2971.41972071875</ele>
        <time>2019-12-27T14:59:17.000Z</time>
      </trkpt>
      <trkpt lat="31.077709" lon="-7.930632">
        <ele>2971.6198918625</ele>
        <time>2019-12-27T14:59:20.000Z</time>
      </trkpt>
      <trkpt lat="31.077683" lon="-7.930635">
        <ele>2972</ele>
        <time>2019-12-27T14:59:23.000Z</time>
      </trkpt>
      <trkpt lat="31.077661" lon="-7.930647">
        <ele>2972.19995117188</ele>
        <time>2019-12-27T14:59:27.000Z</time>
      </trkpt>
      <trkpt lat="31.077638" lon="-7.930655">
        <ele>2972.41972071875</ele>
        <time>2019-12-27T14:59:31.000Z</time>
      </trkpt>
      <trkpt lat="31.077619" lon="-7.930662">
        <ele>2972.80004882813</ele>
        <time>2019-12-27T14:59:34.000Z</time>
      </trkpt>
      <trkpt lat="31.0776" lon="-7.93067">
        <ele>2973</ele>
        <time>2019-12-27T14:59:37.000Z</time>
      </trkpt>
      <trkpt lat="31.077581" lon="-7.930677">
        <ele>2973.19995117188</ele>
        <time>2019-12-27T14:59:40.000Z</time>
      </trkpt>
      <trkpt lat="31.077555" lon="-7.93068">
        <ele>2973.39990234375</ele>
        <time>2019-12-27T14:59:43.000Z</time>
      </trkpt>
      <trkpt lat="31.077533" lon="-7.930686">
        <ele>2973.6198918625</ele>
        <time>2019-12-27T14:59:46.000Z</time>
      </trkpt>
      <trkpt lat="31.07751" lon="-7.93069">
        <ele>2973.81984303438</ele>
        <time>2019-12-27T14:59:49.000Z</time>
      </trkpt>
      <trkpt lat="31.077491" lon="-7.930698">
        <ele>2974.19995117188</ele>
        <time>2019-12-27T14:59:52.000Z</time>
      </trkpt>
      <trkpt lat="31.077469" lon="-7.930706">
        <ele>2974.60009765625</ele>
        <time>2019-12-27T14:59:56.000Z</time>
      </trkpt>
      <trkpt lat="31.077443" lon="-7.930706">
        <ele>2975</ele>
        <time>2019-12-27T15:00:00.000Z</time>
      </trkpt>
      <trkpt lat="31.077421" lon="-7.930722">
        <ele>2975.21974537813</ele>
        <time>2019-12-27T15:00:04.000Z</time>
      </trkpt>
      <trkpt lat="31.077405" lon="-7.930742">
        <ele>2975.60009765625</ele>
        <time>2019-12-27T15:00:08.000Z</time>
      </trkpt>
      <trkpt lat="31.077392" lon="-7.930757">
        <ele>2975.81984303438</ele>
        <time>2019-12-27T15:00:11.000Z</time>
      </trkpt>
      <trkpt lat="31.077379" lon="-7.930772">
        <ele>2976.01979420625</ele>
        <time>2019-12-27T15:00:14.000Z</time>
      </trkpt>
      <trkpt lat="31.077363" lon="-7.930785">
        <ele>2976.39990234375</ele>
        <time>2019-12-27T15:00:17.000Z</time>
      </trkpt>
      <trkpt lat="31.077347" lon="-7.930798">
        <ele>2976.6198918625</ele>
        <time>2019-12-27T15:00:21.000Z</time>
      </trkpt>
      <trkpt lat="31.077331" lon="-7.930818">
        <ele>2977</ele>
        <time>2019-12-27T15:00:26.000Z</time>
      </trkpt>
      <trkpt lat="31.077315" lon="-7.930834">
        <ele>2977.21974537813</ele>
        <time>2019-12-27T15:00:30.000Z</time>
      </trkpt>
      <trkpt lat="31.07729" lon="-7.930838">
        <ele>2977.41972071875</ele>
        <time>2019-12-27T15:00:33.000Z</time>
      </trkpt>
      <trkpt lat="31.077267" lon="-7.930843">
        <ele>2977.6198918625</ele>
        <time>2019-12-27T15:00:36.000Z</time>
      </trkpt>
      <trkpt lat="31.077248" lon="-7.930858">
        <ele>2977.81984303438</ele>
        <time>2019-12-27T15:00:40.000Z</time>
      </trkpt>
      <trkpt lat="31.077229" lon="-7.930866">
        <ele>2978.19995117188</ele>
        <time>2019-12-27T15:00:44.000Z</time>
      </trkpt>
      <trkpt lat="31.07721" lon="-7.930868">
        <ele>2978.19995117188</ele>
        <time>2019-12-27T15:00:46.000Z</time>
      </trkpt>
      <trkpt lat="31.077187" lon="-7.93088">
        <ele>2978.39990234375</ele>
        <time>2019-12-27T15:00:49.000Z</time>
      </trkpt>
      <trkpt lat="31.077165" lon="-7.930886">
        <ele>2978.60009765625</ele>
        <time>2019-12-27T15:00:52.000Z</time>
      </trkpt>
      <trkpt lat="31.077142" lon="-7.93089">
        <ele>2978.80004882813</ele>
        <time>2019-12-27T15:00:55.000Z</time>
      </trkpt>
      <trkpt lat="31.077117" lon="-7.930894">
        <ele>2979</ele>
        <time>2019-12-27T15:00:58.000Z</time>
      </trkpt>
      <trkpt lat="31.077098" lon="-7.930897">
        <ele>2979.19995117188</ele>
        <time>2019-12-27T15:01:00.000Z</time>
      </trkpt>
      <trkpt lat="31.077075" lon="-7.930911">
        <ele>2979.39990234375</ele>
        <time>2019-12-27T15:01:03.000Z</time>
      </trkpt>
      <trkpt lat="31.077059" lon="-7.930922">
        <ele>2979.60009765625</ele>
        <time>2019-12-27T15:01:05.000Z</time>
      </trkpt>
      <trkpt lat="31.077037" lon="-7.930928">
        <ele>2979.80004882813</ele>
        <time>2019-12-27T15:01:08.000Z</time>
      </trkpt>
      <trkpt lat="31.077018" lon="-7.930942">
        <ele>2980.21974537813</ele>
        <time>2019-12-27T15:01:12.000Z</time>
      </trkpt>
      <trkpt lat="31.076995" lon="-7.930945">
        <ele>2980.6198918625</ele>
        <time>2019-12-27T15:01:16.000Z</time>
      </trkpt>
      <trkpt lat="31.07697" lon="-7.93094">
        <ele>2981</ele>
        <time>2019-12-27T15:01:19.000Z</time>
      </trkpt>
      <trkpt lat="31.076947" lon="-7.930943">
        <ele>2981.21974537813</ele>
        <time>2019-12-27T15:01:22.000Z</time>
      </trkpt>
      <trkpt lat="31.076922" lon="-7.930947">
        <ele>2981.60009765625</ele>
        <time>2019-12-27T15:01:25.000Z</time>
      </trkpt>
      <trkpt lat="31.076902" lon="-7.930957">
        <ele>2981.81984303438</ele>
        <time>2019-12-27T15:01:28.000Z</time>
      </trkpt>
      <trkpt lat="31.07688" lon="-7.930967">
        <ele>2982.01979420625</ele>
        <time>2019-12-27T15:01:31.000Z</time>
      </trkpt>
      <trkpt lat="31.076858" lon="-7.93098">
        <ele>2982.41042716831</ele>
        <time>2019-12-27T15:01:35.000Z</time>
      </trkpt>
      <trkpt lat="31.076838" lon="-7.930993">
        <ele>2982.81984303438</ele>
        <time>2019-12-27T15:01:39.000Z</time>
      </trkpt>
      <trkpt lat="31.076816" lon="-7.931013">
        <ele>2983.01979420625</ele>
        <time>2019-12-27T15:01:42.000Z</time>
      </trkpt>
      <trkpt lat="31.076797" lon="-7.93103">
        <ele>2983.39990234375</ele>
        <time>2019-12-27T15:01:45.000Z</time>
      </trkpt>
      <trkpt lat="31.076781" lon="-7.931046">
        <ele>2983.80004882813</ele>
        <time>2019-12-27T15:01:49.000Z</time>
      </trkpt>
      <trkpt lat="31.076762" lon="-7.931062">
        <ele>2984.01979420625</ele>
        <time>2019-12-27T15:01:52.000Z</time>
      </trkpt>
      <trkpt lat="31.076749" lon="-7.931082">
        <ele>2984.39990234375</ele>
        <time>2019-12-27T15:01:55.000Z</time>
      </trkpt>
      <trkpt lat="31.076736" lon="-7.931098">
        <ele>2984.60009765625</ele>
        <time>2019-12-27T15:01:58.000Z</time>
      </trkpt>
      <trkpt lat="31.076723" lon="-7.931114">
        <ele>2984.80004882813</ele>
        <time>2019-12-27T15:02:01.000Z</time>
      </trkpt>
      <trkpt lat="31.076707" lon="-7.931129">
        <ele>2985.01979420625</ele>
        <time>2019-12-27T15:02:04.000Z</time>
      </trkpt>
      <trkpt lat="31.076691" lon="-7.93114">
        <ele>2985.39990234375</ele>
        <time>2019-12-27T15:02:08.000Z</time>
      </trkpt>
      <trkpt lat="31.076678" lon="-7.931162">
        <ele>2986.01979420625</ele>
        <time>2019-12-27T15:02:18.000Z</time>
      </trkpt>
      <trkpt lat="31.076662" lon="-7.93118">
        <ele>2986.21974537813</ele>
        <time>2019-12-27T15:02:20.000Z</time>
      </trkpt>
      <trkpt lat="31.076646" lon="-7.931194">
        <ele>2986.6198918625</ele>
        <time>2019-12-27T15:02:23.000Z</time>
      </trkpt>
      <trkpt lat="31.076627" lon="-7.9312">
        <ele>2987.01979420625</ele>
        <time>2019-12-27T15:02:26.000Z</time>
      </trkpt>
      <trkpt lat="31.076611" lon="-7.93121">
        <ele>2987.41972071875</ele>
        <time>2019-12-27T15:02:29.000Z</time>
      </trkpt>
      <trkpt lat="31.076595" lon="-7.931226">
        <ele>2988.19995117188</ele>
        <time>2019-12-27T15:02:34.000Z</time>
      </trkpt>
      <trkpt lat="31.076573" lon="-7.931237">
        <ele>2988.80004882813</ele>
        <time>2019-12-27T15:02:38.000Z</time>
      </trkpt>
      <trkpt lat="31.07655" lon="-7.931245">
        <ele>2989.21974537813</ele>
        <time>2019-12-27T15:02:42.000Z</time>
      </trkpt>
      <trkpt lat="31.076531" lon="-7.931251">
        <ele>2989.6198918625</ele>
        <time>2019-12-27T15:02:45.000Z</time>
      </trkpt>
      <trkpt lat="31.076509" lon="-7.931258">
        <ele>2990.01979420625</ele>
        <time>2019-12-27T15:02:48.000Z</time>
      </trkpt>
      <trkpt lat="31.07649" lon="-7.931263">
        <ele>2990.21974537813</ele>
        <time>2019-12-27T15:02:50.000Z</time>
      </trkpt>
      <trkpt lat="31.076467" lon="-7.931268">
        <ele>2990.60009765625</ele>
        <time>2019-12-27T15:02:53.000Z</time>
      </trkpt>
      <trkpt lat="31.076451" lon="-7.931278">
        <ele>2990.80004882813</ele>
        <time>2019-12-27T15:02:55.000Z</time>
      </trkpt>
      <trkpt lat="31.076438" lon="-7.931294">
        <ele>2991</ele>
        <time>2019-12-27T15:02:58.000Z</time>
      </trkpt>
      <trkpt lat="31.076413" lon="-7.931298">
        <ele>2991.19995117188</ele>
        <time>2019-12-27T15:03:01.000Z</time>
      </trkpt>
      <trkpt lat="31.076394" lon="-7.931307">
        <ele>2991.19995117188</ele>
        <time>2019-12-27T15:03:03.000Z</time>
      </trkpt>
      <trkpt lat="31.076374" lon="-7.93131">
        <ele>2991.39990234375</ele>
        <time>2019-12-27T15:03:05.000Z</time>
      </trkpt>
      <trkpt lat="31.076349" lon="-7.931318">
        <ele>2991.39990234375</ele>
        <time>2019-12-27T15:03:08.000Z</time>
      </trkpt>
      <trkpt lat="31.07633" lon="-7.931322">
        <ele>2991.60009765625</ele>
        <time>2019-12-27T15:03:11.000Z</time>
      </trkpt>
      <trkpt lat="31.07631" lon="-7.931334">
        <ele>2991.6198918625</ele>
        <time>2019-12-27T15:03:14.000Z</time>
      </trkpt>
      <trkpt lat="31.076294" lon="-7.931355">
        <ele>2991.80004882813</ele>
        <time>2019-12-27T15:03:17.000Z</time>
      </trkpt>
      <trkpt lat="31.076275" lon="-7.931374">
        <ele>2991.80004882813</ele>
        <time>2019-12-27T15:03:21.000Z</time>
      </trkpt>
      <trkpt lat="31.076256" lon="-7.931377">
        <ele>2992</ele>
        <time>2019-12-27T15:03:24.000Z</time>
      </trkpt>
      <trkpt lat="31.076234" lon="-7.931378">
        <ele>2992</ele>
        <time>2019-12-27T15:03:26.000Z</time>
      </trkpt>
      <trkpt lat="31.076208" lon="-7.931392">
        <ele>2992</ele>
        <time>2019-12-27T15:03:29.000Z</time>
      </trkpt>
      <trkpt lat="31.076189" lon="-7.931406">
        <ele>2992.01979420625</ele>
        <time>2019-12-27T15:03:32.000Z</time>
      </trkpt>
      <trkpt lat="31.076163" lon="-7.93142">
        <ele>2992.19995117188</ele>
        <time>2019-12-27T15:03:35.000Z</time>
      </trkpt>
      <trkpt lat="31.076154" lon="-7.931443">
        <ele>2992.19995117188</ele>
        <time>2019-12-27T15:03:38.000Z</time>
      </trkpt>
      <trkpt lat="31.076138" lon="-7.931462">
        <ele>2992.19995117188</ele>
        <time>2019-12-27T15:03:41.000Z</time>
      </trkpt>
      <trkpt lat="31.076122" lon="-7.931478">
        <ele>2992.18015696563</ele>
        <time>2019-12-27T15:03:44.000Z</time>
      </trkpt>
      <trkpt lat="31.076106" lon="-7.931494">
        <ele>2992</ele>
        <time>2019-12-27T15:03:48.000Z</time>
      </trkpt>
      <trkpt lat="31.07609" lon="-7.931503">
        <ele>2992</ele>
        <time>2019-12-27T15:03:50.000Z</time>
      </trkpt>
      <trkpt lat="31.07607" lon="-7.931518">
        <ele>2992</ele>
        <time>2019-12-27T15:03:52.000Z</time>
      </trkpt>
      <trkpt lat="31.076045" lon="-7.931542">
        <ele>2992.19995117188</ele>
        <time>2019-12-27T15:03:56.000Z</time>
      </trkpt>
      <trkpt lat="31.076026" lon="-7.931558">
        <ele>2992.19995117188</ele>
        <time>2019-12-27T15:03:59.000Z</time>
      </trkpt>
      <trkpt lat="31.076013" lon="-7.931574">
        <ele>2992.39990234375</ele>
        <time>2019-12-27T15:04:02.000Z</time>
      </trkpt>
      <trkpt lat="31.075981" lon="-7.931565">
        <ele>2992.41972071875</ele>
        <time>2019-12-27T15:04:06.000Z</time>
      </trkpt>
      <trkpt lat="31.075962" lon="-7.931578">
        <ele>2992.60009765625</ele>
        <time>2019-12-27T15:04:09.000Z</time>
      </trkpt>
      <trkpt lat="31.075946" lon="-7.931595">
        <ele>2992.81984303438</ele>
        <time>2019-12-27T15:04:11.000Z</time>
      </trkpt>
      <trkpt lat="31.07593" lon="-7.931615">
        <ele>2993.19995117188</ele>
        <time>2019-12-27T15:04:14.000Z</time>
      </trkpt>
      <trkpt lat="31.07591" lon="-7.931628">
        <ele>2993.39990234375</ele>
        <time>2019-12-27T15:04:17.000Z</time>
      </trkpt>
      <trkpt lat="31.075894" lon="-7.931638">
        <ele>2993.6198918625</ele>
        <time>2019-12-27T15:04:19.000Z</time>
      </trkpt>
      <trkpt lat="31.075872" lon="-7.931647">
        <ele>2994.01979420625</ele>
        <time>2019-12-27T15:04:22.000Z</time>
      </trkpt>
      <trkpt lat="31.075853" lon="-7.93166">
        <ele>2994.39990234375</ele>
        <time>2019-12-27T15:04:25.000Z</time>
      </trkpt>
      <trkpt lat="31.075834" lon="-7.931685">
        <ele>2994.6198918625</ele>
        <time>2019-12-27T15:04:28.000Z</time>
      </trkpt>
      <trkpt lat="31.075821" lon="-7.9317">
        <ele>2994.80004882813</ele>
        <time>2019-12-27T15:04:30.000Z</time>
      </trkpt>
      <trkpt lat="31.075805" lon="-7.931712">
        <ele>2995.01979420625</ele>
        <time>2019-12-27T15:04:32.000Z</time>
      </trkpt>
      <trkpt lat="31.075786" lon="-7.93172">
        <ele>2995.21974537813</ele>
        <time>2019-12-27T15:04:35.000Z</time>
      </trkpt>
      <trkpt lat="31.075766" lon="-7.931728">
        <ele>2995.60009765625</ele>
        <time>2019-12-27T15:04:38.000Z</time>
      </trkpt>
      <trkpt lat="31.075747" lon="-7.93174">
        <ele>2995.80004882813</ele>
        <time>2019-12-27T15:04:41.000Z</time>
      </trkpt>
      <trkpt lat="31.075728" lon="-7.931743">
        <ele>2996.01979420625</ele>
        <time>2019-12-27T15:04:43.000Z</time>
      </trkpt>
      <trkpt lat="31.075709" lon="-7.931753">
        <ele>2996.21974537813</ele>
        <time>2019-12-27T15:04:46.000Z</time>
      </trkpt>
      <trkpt lat="31.075693" lon="-7.931773">
        <ele>2996.60009765625</ele>
        <time>2019-12-27T15:04:50.000Z</time>
      </trkpt>
      <trkpt lat="31.075674" lon="-7.931785">
        <ele>2996.80004882813</ele>
        <time>2019-12-27T15:04:52.000Z</time>
      </trkpt>
      <trkpt lat="31.075648" lon="-7.931797">
        <ele>2997</ele>
        <time>2019-12-27T15:04:55.000Z</time>
      </trkpt>
      <trkpt lat="31.075629" lon="-7.931818">
        <ele>2997.19995117188</ele>
        <time>2019-12-27T15:04:58.000Z</time>
      </trkpt>
      <trkpt lat="31.07561" lon="-7.931829">
        <ele>2997.41972071875</ele>
        <time>2019-12-27T15:05:01.000Z</time>
      </trkpt>
      <trkpt lat="31.075597" lon="-7.931846">
        <ele>2997.6198918625</ele>
        <time>2019-12-27T15:05:04.000Z</time>
      </trkpt>
      <trkpt lat="31.075584" lon="-7.931862">
        <ele>2998</ele>
        <time>2019-12-27T15:05:07.000Z</time>
      </trkpt>
      <trkpt lat="31.075568" lon="-7.931874">
        <ele>2998.19995117188</ele>
        <time>2019-12-27T15:05:09.000Z</time>
      </trkpt>
      <trkpt lat="31.075542" lon="-7.931891">
        <ele>2998.41972071875</ele>
        <time>2019-12-27T15:05:13.000Z</time>
      </trkpt>
      <trkpt lat="31.07553" lon="-7.931908">
        <ele>2998.6198918625</ele>
        <time>2019-12-27T15:05:15.000Z</time>
      </trkpt>
      <trkpt lat="31.075517" lon="-7.931925">
        <ele>2999.01979420625</ele>
        <time>2019-12-27T15:05:18.000Z</time>
      </trkpt>
      <trkpt lat="31.075498" lon="-7.931937">
        <ele>2999.39990234375</ele>
        <time>2019-12-27T15:05:21.000Z</time>
      </trkpt>
      <trkpt lat="31.075478" lon="-7.931937">
        <ele>2999.6198918625</ele>
        <time>2019-12-27T15:05:23.000Z</time>
      </trkpt>
      <trkpt lat="31.075453" lon="-7.931937">
        <ele>3000.01979420625</ele>
        <time>2019-12-27T15:05:26.000Z</time>
      </trkpt>
      <trkpt lat="31.075437" lon="-7.931946">
        <ele>3000.41972071875</ele>
        <time>2019-12-27T15:05:29.000Z</time>
      </trkpt>
      <trkpt lat="31.07543" lon="-7.93197">
        <ele>3000.80004882813</ele>
        <time>2019-12-27T15:05:32.000Z</time>
      </trkpt>
      <trkpt lat="31.075434" lon="-7.931997">
        <ele>3001.19995117188</ele>
        <time>2019-12-27T15:05:35.000Z</time>
      </trkpt>
      <trkpt lat="31.075424" lon="-7.932018">
        <ele>3001.60009765625</ele>
        <time>2019-12-27T15:05:40.000Z</time>
      </trkpt>
      <trkpt lat="31.075405" lon="-7.93202">
        <ele>3002</ele>
        <time>2019-12-27T15:05:44.000Z</time>
      </trkpt>
      <trkpt lat="31.075386" lon="-7.93202">
        <ele>3002.21974537813</ele>
        <time>2019-12-27T15:05:47.000Z</time>
      </trkpt>
      <trkpt lat="31.075366" lon="-7.932025">
        <ele>3002.60009765625</ele>
        <time>2019-12-27T15:05:50.000Z</time>
      </trkpt>
      <trkpt lat="31.075344" lon="-7.932045">
        <ele>3003</ele>
        <time>2019-12-27T15:05:55.000Z</time>
      </trkpt>
      <trkpt lat="31.075325" lon="-7.932042">
        <ele>3003.21974537813</ele>
        <time>2019-12-27T15:06:00.000Z</time>
      </trkpt>
      <trkpt lat="31.075306" lon="-7.932054">
        <ele>3003.6198918625</ele>
        <time>2019-12-27T15:06:10.000Z</time>
      </trkpt>
      <trkpt lat="31.075286" lon="-7.932062">
        <ele>3004</ele>
        <time>2019-12-27T15:06:18.000Z</time>
      </trkpt>
      <trkpt lat="31.075267" lon="-7.932065">
        <ele>3004.19995117188</ele>
        <time>2019-12-27T15:06:20.000Z</time>
      </trkpt>
      <trkpt lat="31.075258" lon="-7.932086">
        <ele>3004.19995117188</ele>
        <time>2019-12-27T15:06:23.000Z</time>
      </trkpt>
      <trkpt lat="31.075238" lon="-7.9321">
        <ele>3004.39990234375</ele>
        <time>2019-12-27T15:06:26.000Z</time>
      </trkpt>
      <trkpt lat="31.075219" lon="-7.932109">
        <ele>3004.60009765625</ele>
        <time>2019-12-27T15:06:29.000Z</time>
      </trkpt>
      <trkpt lat="31.0752" lon="-7.932125">
        <ele>3004.80004882813</ele>
        <time>2019-12-27T15:06:32.000Z</time>
      </trkpt>
      <trkpt lat="31.075181" lon="-7.932143">
        <ele>3005</ele>
        <time>2019-12-27T15:06:35.000Z</time>
      </trkpt>
      <trkpt lat="31.075181" lon="-7.932166">
        <ele>3005.19995117188</ele>
        <time>2019-12-27T15:06:38.000Z</time>
      </trkpt>
      <trkpt lat="31.075171" lon="-7.932197">
        <ele>3005.21974537813</ele>
        <time>2019-12-27T15:06:41.000Z</time>
      </trkpt>
      <trkpt lat="31.075162" lon="-7.932222">
        <ele>3005.41972071875</ele>
        <time>2019-12-27T15:06:44.000Z</time>
      </trkpt>
      <trkpt lat="31.075149" lon="-7.932237">
        <ele>3005.6198524162</ele>
        <time>2019-12-27T15:06:47.000Z</time>
      </trkpt>
      <trkpt lat="31.075133" lon="-7.932258">
        <ele>3006</ele>
        <time>2019-12-27T15:06:51.000Z</time>
      </trkpt>
      <trkpt lat="31.07513" lon="-7.932285">
        <ele>3006.21974537813</ele>
        <time>2019-12-27T15:06:56.000Z</time>
      </trkpt>
      <trkpt lat="31.07511" lon="-7.932283">
        <ele>3006.60009765625</ele>
        <time>2019-12-27T15:07:00.000Z</time>
      </trkpt>
      <trkpt lat="31.075088" lon="-7.932278">
        <ele>3006.6198918625</ele>
        <time>2019-12-27T15:07:02.000Z</time>
      </trkpt>
      <trkpt lat="31.075062" lon="-7.932266">
        <ele>3006.81984303438</ele>
        <time>2019-12-27T15:07:04.000Z</time>
      </trkpt>
      <trkpt lat="31.075043" lon="-7.932265">
        <ele>3007.21974537813</ele>
        <time>2019-12-27T15:07:08.000Z</time>
      </trkpt>
      <trkpt lat="31.075034" lon="-7.932285">
        <ele>3007.6198918625</ele>
        <time>2019-12-27T15:07:12.000Z</time>
      </trkpt>
      <trkpt lat="31.075014" lon="-7.932298">
        <ele>3008.21974537813</ele>
        <time>2019-12-27T15:07:16.000Z</time>
      </trkpt>
      <trkpt lat="31.075002" lon="-7.93232">
        <ele>3009</ele>
        <time>2019-12-27T15:07:20.000Z</time>
      </trkpt>
      <trkpt lat="31.074982" lon="-7.932334">
        <ele>3010.01979420625</ele>
        <time>2019-12-27T15:07:26.000Z</time>
      </trkpt>
      <trkpt lat="31.07497" lon="-7.932357">
        <ele>3010.6198918625</ele>
        <time>2019-12-27T15:07:29.000Z</time>
      </trkpt>
      <trkpt lat="31.074957" lon="-7.932372">
        <ele>3011.01979420625</ele>
        <time>2019-12-27T15:07:31.000Z</time>
      </trkpt>
      <trkpt lat="31.074944" lon="-7.932388">
        <ele>3011.21974537813</ele>
        <time>2019-12-27T15:07:33.000Z</time>
      </trkpt>
      <trkpt lat="31.074922" lon="-7.932397">
        <ele>3012.19995117188</ele>
        <time>2019-12-27T15:07:37.000Z</time>
      </trkpt>
      <trkpt lat="31.074918" lon="-7.932418">
        <ele>3012.81984303438</ele>
        <time>2019-12-27T15:07:41.000Z</time>
      </trkpt>
      <trkpt lat="31.074912" lon="-7.932445">
        <ele>3013.21974537813</ele>
        <time>2019-12-27T15:07:44.000Z</time>
      </trkpt>
      <trkpt lat="31.074902" lon="-7.932469">
        <ele>3013.81984303438</ele>
        <time>2019-12-27T15:07:48.000Z</time>
      </trkpt>
      <trkpt lat="31.074896" lon="-7.932494">
        <ele>3014.41972071875</ele>
        <time>2019-12-27T15:07:52.000Z</time>
      </trkpt>
      <trkpt lat="31.074886" lon="-7.93252">
        <ele>3015.01979420625</ele>
        <time>2019-12-27T15:07:56.000Z</time>
      </trkpt>
      <trkpt lat="31.074877" lon="-7.93254">
        <ele>3015.81984303438</ele>
        <time>2019-12-27T15:08:01.000Z</time>
      </trkpt>
      <trkpt lat="31.074861" lon="-7.93256">
        <ele>3016.6198918625</ele>
        <time>2019-12-27T15:08:07.000Z</time>
      </trkpt>
      <trkpt lat="31.074851" lon="-7.93258">
        <ele>3017.01979420625</ele>
        <time>2019-12-27T15:08:10.000Z</time>
      </trkpt>
      <trkpt lat="31.074838" lon="-7.9326">
        <ele>3017.41972071875</ele>
        <time>2019-12-27T15:08:14.000Z</time>
      </trkpt>
      <trkpt lat="31.074813" lon="-7.93261">
        <ele>3017.6198918625</ele>
        <time>2019-12-27T15:08:17.000Z</time>
      </trkpt>
      <trkpt lat="31.07479" lon="-7.932617">
        <ele>3017.80004882813</ele>
        <time>2019-12-27T15:08:19.000Z</time>
      </trkpt>
      <trkpt lat="31.074771" lon="-7.932634">
        <ele>3018</ele>
        <time>2019-12-27T15:08:21.000Z</time>
      </trkpt>
      <trkpt lat="31.074749" lon="-7.932645">
        <ele>3018</ele>
        <time>2019-12-27T15:08:23.000Z</time>
      </trkpt>
      <trkpt lat="31.074733" lon="-7.932658">
        <ele>3018</ele>
        <time>2019-12-27T15:08:25.000Z</time>
      </trkpt>
      <trkpt lat="31.074717" lon="-7.93267">
        <ele>3018.19995117188</ele>
        <time>2019-12-27T15:08:27.000Z</time>
      </trkpt>
      <trkpt lat="31.074698" lon="-7.932685">
        <ele>3018.19995117188</ele>
        <time>2019-12-27T15:08:30.000Z</time>
      </trkpt>
      <trkpt lat="31.074675" lon="-7.932688">
        <ele>3018.19995117188</ele>
        <time>2019-12-27T15:08:33.000Z</time>
      </trkpt>
      <trkpt lat="31.074656" lon="-7.93269">
        <ele>3018.19995117188</ele>
        <time>2019-12-27T15:08:35.000Z</time>
      </trkpt>
      <trkpt lat="31.074634" lon="-7.932698">
        <ele>3018.19995117188</ele>
        <time>2019-12-27T15:08:38.000Z</time>
      </trkpt>
      <trkpt lat="31.074611" lon="-7.932698">
        <ele>3018.19995117188</ele>
        <time>2019-12-27T15:08:40.000Z</time>
      </trkpt>
      <trkpt lat="31.074586" lon="-7.932702">
        <ele>3018.19995117188</ele>
        <time>2019-12-27T15:08:43.000Z</time>
      </trkpt>
      <trkpt lat="31.074566" lon="-7.932707">
        <ele>3018.19995117188</ele>
        <time>2019-12-27T15:08:46.000Z</time>
      </trkpt>
      <trkpt lat="31.074547" lon="-7.93272">
        <ele>3018.19995117188</ele>
        <time>2019-12-27T15:08:49.000Z</time>
      </trkpt>
      <trkpt lat="31.074538" lon="-7.932738">
        <ele>3018.19995117188</ele>
        <time>2019-12-27T15:08:52.000Z</time>
      </trkpt>
      <trkpt lat="31.074522" lon="-7.932748">
        <ele>3018.21974537813</ele>
        <time>2019-12-27T15:08:56.000Z</time>
      </trkpt>
      <trkpt lat="31.074499" lon="-7.932748">
        <ele>3018.39990234375</ele>
        <time>2019-12-27T15:08:59.000Z</time>
      </trkpt>
      <trkpt lat="31.074477" lon="-7.932757">
        <ele>3018.39990234375</ele>
        <time>2019-12-27T15:09:02.000Z</time>
      </trkpt>
      <trkpt lat="31.074458" lon="-7.932758">
        <ele>3018.39990234375</ele>
        <time>2019-12-27T15:09:05.000Z</time>
      </trkpt>
      <trkpt lat="31.074438" lon="-7.932767">
        <ele>3018.60009765625</ele>
        <time>2019-12-27T15:09:08.000Z</time>
      </trkpt>
      <trkpt lat="31.074422" lon="-7.93279">
        <ele>3018.80004882813</ele>
        <time>2019-12-27T15:09:12.000Z</time>
      </trkpt>
      <trkpt lat="31.074406" lon="-7.932808">
        <ele>3018.81984303438</ele>
        <time>2019-12-27T15:09:16.000Z</time>
      </trkpt>
      <trkpt lat="31.074381" lon="-7.932812">
        <ele>3019.19995117188</ele>
        <time>2019-12-27T15:09:20.000Z</time>
      </trkpt>
      <trkpt lat="31.074362" lon="-7.932812">
        <ele>3019.41972071875</ele>
        <time>2019-12-27T15:09:23.000Z</time>
      </trkpt>
      <trkpt lat="31.074346" lon="-7.932823">
        <ele>3019.80004882813</ele>
        <time>2019-12-27T15:09:26.000Z</time>
      </trkpt>
      <trkpt lat="31.074326" lon="-7.93283">
        <ele>3020.21974537813</ele>
        <time>2019-12-27T15:09:30.000Z</time>
      </trkpt>
      <trkpt lat="31.074304" lon="-7.932835">
        <ele>3020.6198918625</ele>
        <time>2019-12-27T15:09:33.000Z</time>
      </trkpt>
      <trkpt lat="31.074285" lon="-7.932843">
        <ele>3021.01979420625</ele>
        <time>2019-12-27T15:09:36.000Z</time>
      </trkpt>
      <trkpt lat="31.074272" lon="-7.932862">
        <ele>3021.41972071875</ele>
        <time>2019-12-27T15:09:40.000Z</time>
      </trkpt>
      <trkpt lat="31.074256" lon="-7.932874">
        <ele>3021.6198918625</ele>
        <time>2019-12-27T15:09:42.000Z</time>
      </trkpt>
      <trkpt lat="31.074237" lon="-7.932878">
        <ele>3022</ele>
        <time>2019-12-27T15:09:44.000Z</time>
      </trkpt>
      <trkpt lat="31.074218" lon="-7.932886">
        <ele>3022.19995117188</ele>
        <time>2019-12-27T15:09:46.000Z</time>
      </trkpt>
      <trkpt lat="31.074195" lon="-7.93289">
        <ele>3022.39990234375</ele>
        <time>2019-12-27T15:09:48.000Z</time>
      </trkpt>
      <trkpt lat="31.07417" lon="-7.932895">
        <ele>3022.60009765625</ele>
        <time>2019-12-27T15:09:50.000Z</time>
      </trkpt>
      <trkpt lat="31.074144" lon="-7.932909">
        <ele>3022.80004882813</ele>
        <time>2019-12-27T15:09:53.000Z</time>
      </trkpt>
      <trkpt lat="31.074128" lon="-7.932923">
        <ele>3023</ele>
        <time>2019-12-27T15:09:55.000Z</time>
      </trkpt>
      <trkpt lat="31.074115" lon="-7.93294">
        <ele>3023.19995117188</ele>
        <time>2019-12-27T15:09:58.000Z</time>
      </trkpt>
      <trkpt lat="31.07409" lon="-7.932946">
        <ele>3023.41972071875</ele>
        <time>2019-12-27T15:10:02.000Z</time>
      </trkpt>
      <trkpt lat="31.074077" lon="-7.932963">
        <ele>3023.6198918625</ele>
        <time>2019-12-27T15:10:05.000Z</time>
      </trkpt>
      <trkpt lat="31.074067" lon="-7.932985">
        <ele>3023.81984303438</ele>
        <time>2019-12-27T15:10:08.000Z</time>
      </trkpt>
      <trkpt lat="31.074048" lon="-7.933002">
        <ele>3024.19995117188</ele>
        <time>2019-12-27T15:10:12.000Z</time>
      </trkpt>
      <trkpt lat="31.074038" lon="-7.933025">
        <ele>3024.19995117188</ele>
        <time>2019-12-27T15:10:15.000Z</time>
      </trkpt>
      <trkpt lat="31.074032" lon="-7.933048">
        <ele>3024.41972071875</ele>
        <time>2019-12-27T15:10:18.000Z</time>
      </trkpt>
      <trkpt lat="31.07401" lon="-7.933062">
        <ele>3024.6198918625</ele>
        <time>2019-12-27T15:10:21.000Z</time>
      </trkpt>
      <trkpt lat="31.07399" lon="-7.933075">
        <ele>3024.81984303438</ele>
        <time>2019-12-27T15:10:24.000Z</time>
      </trkpt>
      <trkpt lat="31.073968" lon="-7.933082">
        <ele>3025.19995117188</ele>
        <time>2019-12-27T15:10:27.000Z</time>
      </trkpt>
      <trkpt lat="31.073949" lon="-7.93309">
        <ele>3025.39990234375</ele>
        <time>2019-12-27T15:10:30.000Z</time>
      </trkpt>
      <trkpt lat="31.07393" lon="-7.933093">
        <ele>3025.6198918625</ele>
        <time>2019-12-27T15:10:34.000Z</time>
      </trkpt>
      <trkpt lat="31.07391" lon="-7.933093">
        <ele>3026</ele>
        <time>2019-12-27T15:10:37.000Z</time>
      </trkpt>
      <trkpt lat="31.073891" lon="-7.933097">
        <ele>3026.01979420625</ele>
        <time>2019-12-27T15:10:40.000Z</time>
      </trkpt>
      <trkpt lat="31.073869" lon="-7.93311">
        <ele>3026.21974537813</ele>
        <time>2019-12-27T15:10:43.000Z</time>
      </trkpt>
      <trkpt lat="31.07385" lon="-7.933117">
        <ele>3026.41972071875</ele>
        <time>2019-12-27T15:10:46.000Z</time>
      </trkpt>
      <trkpt lat="31.073827" lon="-7.93312">
        <ele>3026.6198918625</ele>
        <time>2019-12-27T15:10:48.000Z</time>
      </trkpt>
      <trkpt lat="31.073811" lon="-7.93313">
        <ele>3026.80004882813</ele>
        <time>2019-12-27T15:10:50.000Z</time>
      </trkpt>
      <trkpt lat="31.073789" lon="-7.93314">
        <ele>3027.01979420625</ele>
        <time>2019-12-27T15:10:53.000Z</time>
      </trkpt>
      <trkpt lat="31.073766" lon="-7.933146">
        <ele>3027.21974537813</ele>
        <time>2019-12-27T15:10:56.000Z</time>
      </trkpt>
      <trkpt lat="31.073747" lon="-7.933166">
        <ele>3027.60009765625</ele>
        <time>2019-12-27T15:10:59.000Z</time>
      </trkpt>
      <trkpt lat="31.073734" lon="-7.933185">
        <ele>3027.80004882813</ele>
        <time>2019-12-27T15:11:01.000Z</time>
      </trkpt>
      <trkpt lat="31.073718" lon="-7.933203">
        <ele>3028.01979420625</ele>
        <time>2019-12-27T15:11:04.000Z</time>
      </trkpt>
      <trkpt lat="31.073699" lon="-7.933212">
        <ele>3028.39990234375</ele>
        <time>2019-12-27T15:11:06.000Z</time>
      </trkpt>
      <trkpt lat="31.07368" lon="-7.933217">
        <ele>3028.6198918625</ele>
        <time>2019-12-27T15:11:08.000Z</time>
      </trkpt>
      <trkpt lat="31.073658" lon="-7.933234">
        <ele>3029.01979420625</ele>
        <time>2019-12-27T15:11:11.000Z</time>
      </trkpt>
      <trkpt lat="31.073645" lon="-7.933252">
        <ele>3029.39990234375</ele>
        <time>2019-12-27T15:11:13.000Z</time>
      </trkpt>
      <trkpt lat="31.073629" lon="-7.933266">
        <ele>3030.01979420625</ele>
        <time>2019-12-27T15:11:17.000Z</time>
      </trkpt>
      <trkpt lat="31.073613" lon="-7.933283">
        <ele>3030.41972071875</ele>
        <time>2019-12-27T15:11:20.000Z</time>
      </trkpt>
      <trkpt lat="31.073594" lon="-7.9333">
        <ele>3031.21974537813</ele>
        <time>2019-12-27T15:11:24.000Z</time>
      </trkpt>
      <trkpt lat="31.073581" lon="-7.933315">
        <ele>3031.6198918625</ele>
        <time>2019-12-27T15:11:27.000Z</time>
      </trkpt>
      <trkpt lat="31.073568" lon="-7.93333">
        <ele>3032</ele>
        <time>2019-12-27T15:11:29.000Z</time>
      </trkpt>
      <trkpt lat="31.073552" lon="-7.933345">
        <ele>3032.39990234375</ele>
        <time>2019-12-27T15:11:32.000Z</time>
      </trkpt>
      <trkpt lat="31.073536" lon="-7.933362">
        <ele>3032.81984303438</ele>
        <time>2019-12-27T15:11:36.000Z</time>
      </trkpt>
      <trkpt lat="31.073517" lon="-7.933377">
        <ele>3033.39990234375</ele>
        <time>2019-12-27T15:11:40.000Z</time>
      </trkpt>
      <trkpt lat="31.073494" lon="-7.933388">
        <ele>3033.6198918625</ele>
        <time>2019-12-27T15:11:43.000Z</time>
      </trkpt>
      <trkpt lat="31.073475" lon="-7.933403">
        <ele>3034.19995117188</ele>
        <time>2019-12-27T15:11:47.000Z</time>
      </trkpt>
      <trkpt lat="31.073456" lon="-7.933414">
        <ele>3034.41972071875</ele>
        <time>2019-12-27T15:11:50.000Z</time>
      </trkpt>
      <trkpt lat="31.073434" lon="-7.93342">
        <ele>3035</ele>
        <time>2019-12-27T15:11:54.000Z</time>
      </trkpt>
      <trkpt lat="31.073414" lon="-7.93342">
        <ele>3035.41972071875</ele>
        <time>2019-12-27T15:11:58.000Z</time>
      </trkpt>
      <trkpt lat="31.073395" lon="-7.93343">
        <ele>3036</ele>
        <time>2019-12-27T15:12:02.000Z</time>
      </trkpt>
      <trkpt lat="31.073379" lon="-7.933443">
        <ele>3036.21974537813</ele>
        <time>2019-12-27T15:12:04.000Z</time>
      </trkpt>
      <trkpt lat="31.073379" lon="-7.933467">
        <ele>3036.60009765625</ele>
        <time>2019-12-27T15:12:06.000Z</time>
      </trkpt>
      <trkpt lat="31.073373" lon="-7.933488">
        <ele>3036.81984303438</ele>
        <time>2019-12-27T15:12:08.000Z</time>
      </trkpt>
      <trkpt lat="31.073357" lon="-7.933508">
        <ele>3037.01979420625</ele>
        <time>2019-12-27T15:12:10.000Z</time>
      </trkpt>
      <trkpt lat="31.073341" lon="-7.933522">
        <ele>3037.39990234375</ele>
        <time>2019-12-27T15:12:12.000Z</time>
      </trkpt>
      <trkpt lat="31.073322" lon="-7.933535">
        <ele>3037.6198918625</ele>
        <time>2019-12-27T15:12:14.000Z</time>
      </trkpt>
      <trkpt lat="31.073302" lon="-7.933546">
        <ele>3037.81984303438</ele>
        <time>2019-12-27T15:12:16.000Z</time>
      </trkpt>
      <trkpt lat="31.073286" lon="-7.933563">
        <ele>3038.19995117188</ele>
        <time>2019-12-27T15:12:18.000Z</time>
      </trkpt>
      <trkpt lat="31.07327" lon="-7.933575">
        <ele>3038.39990234375</ele>
        <time>2019-12-27T15:12:20.000Z</time>
      </trkpt>
      <trkpt lat="31.073248" lon="-7.933597">
        <ele>3038.6198918625</ele>
        <time>2019-12-27T15:12:23.000Z</time>
      </trkpt>
      <trkpt lat="31.073232" lon="-7.933609">
        <ele>3039</ele>
        <time>2019-12-27T15:12:25.000Z</time>
      </trkpt>
      <trkpt lat="31.073216" lon="-7.933618">
        <ele>3039.19995117188</ele>
        <time>2019-12-27T15:12:27.000Z</time>
      </trkpt>
      <trkpt lat="31.073194" lon="-7.933632">
        <ele>3039.60009765625</ele>
        <time>2019-12-27T15:12:30.000Z</time>
      </trkpt>
      <trkpt lat="31.073174" lon="-7.933646">
        <ele>3039.80004882813</ele>
        <time>2019-12-27T15:12:32.000Z</time>
      </trkpt>
      <trkpt lat="31.073155" lon="-7.93367">
        <ele>3040.19995117188</ele>
        <time>2019-12-27T15:12:35.000Z</time>
      </trkpt>
      <trkpt lat="31.073142" lon="-7.933691">
        <ele>3040.41972071875</ele>
        <time>2019-12-27T15:12:38.000Z</time>
      </trkpt>
      <trkpt lat="31.073133" lon="-7.933715">
        <ele>3040.80004882813</ele>
        <time>2019-12-27T15:12:41.000Z</time>
      </trkpt>
      <trkpt lat="31.073114" lon="-7.933731">
        <ele>3041</ele>
        <time>2019-12-27T15:12:44.000Z</time>
      </trkpt>
      <trkpt lat="31.073098" lon="-7.933745">
        <ele>3041.19995117188</ele>
        <time>2019-12-27T15:12:46.000Z</time>
      </trkpt>
      <trkpt lat="31.073082" lon="-7.933757">
        <ele>3041.19995117188</ele>
        <time>2019-12-27T15:12:48.000Z</time>
      </trkpt>
      <trkpt lat="31.073072" lon="-7.933777">
        <ele>3041.39990234375</ele>
        <time>2019-12-27T15:12:51.000Z</time>
      </trkpt>
      <trkpt lat="31.073053" lon="-7.933795">
        <ele>3041.60009765625</ele>
        <time>2019-12-27T15:12:54.000Z</time>
      </trkpt>
      <trkpt lat="31.073037" lon="-7.933822">
        <ele>3041.80004882813</ele>
        <time>2019-12-27T15:12:58.000Z</time>
      </trkpt>
      <trkpt lat="31.073021" lon="-7.933845">
        <ele>3042</ele>
        <time>2019-12-27T15:13:01.000Z</time>
      </trkpt>
      <trkpt lat="31.073005" lon="-7.933862">
        <ele>3042.19995117188</ele>
        <time>2019-12-27T15:13:03.000Z</time>
      </trkpt>
      <trkpt lat="31.072992" lon="-7.93388">
        <ele>3042.21974537813</ele>
        <time>2019-12-27T15:13:05.000Z</time>
      </trkpt>
      <trkpt lat="31.072976" lon="-7.933905">
        <ele>3042.6198918625</ele>
        <time>2019-12-27T15:13:08.000Z</time>
      </trkpt>
      <trkpt lat="31.072966" lon="-7.933926">
        <ele>3042.81984303438</ele>
        <time>2019-12-27T15:13:10.000Z</time>
      </trkpt>
      <trkpt lat="31.072957" lon="-7.933945">
        <ele>3043.19995117188</ele>
        <time>2019-12-27T15:13:12.000Z</time>
      </trkpt>
      <trkpt lat="31.072941" lon="-7.93397">
        <ele>3043.6198918625</ele>
        <time>2019-12-27T15:13:15.000Z</time>
      </trkpt>
      <trkpt lat="31.072918" lon="-7.933983">
        <ele>3044.01979420625</ele>
        <time>2019-12-27T15:13:18.000Z</time>
      </trkpt>
      <trkpt lat="31.072909" lon="-7.93401">
        <ele>3044.81984303438</ele>
        <time>2019-12-27T15:13:21.000Z</time>
      </trkpt>
      <trkpt lat="31.072896" lon="-7.93403">
        <ele>3045.41972071875</ele>
        <time>2019-12-27T15:13:24.000Z</time>
      </trkpt>
      <trkpt lat="31.072877" lon="-7.934057">
        <ele>3046.21974537813</ele>
        <time>2019-12-27T15:13:27.000Z</time>
      </trkpt>
      <trkpt lat="31.072861" lon="-7.934082">
        <ele>3047.01979420625</ele>
        <time>2019-12-27T15:13:30.000Z</time>
      </trkpt>
      <trkpt lat="31.072845" lon="-7.934098">
        <ele>3048.01979420625</ele>
        <time>2019-12-27T15:13:34.000Z</time>
      </trkpt>
      <trkpt lat="31.072838" lon="-7.93412">
        <ele>3048.83963724063</ele>
        <time>2019-12-27T15:13:37.000Z</time>
      </trkpt>
      <trkpt lat="31.072819" lon="-7.934142">
        <ele>3049.81984303438</ele>
        <time>2019-12-27T15:13:41.000Z</time>
      </trkpt>
      <trkpt lat="31.07281" lon="-7.934162">
        <ele>3050.41972071875</ele>
        <time>2019-12-27T15:13:43.000Z</time>
      </trkpt>
      <trkpt lat="31.072797" lon="-7.934183">
        <ele>3050.6198918625</ele>
        <time>2019-12-27T15:13:45.000Z</time>
      </trkpt>
      <trkpt lat="31.072784" lon="-7.934198">
        <ele>3051.39990234375</ele>
        <time>2019-12-27T15:13:50.000Z</time>
      </trkpt>
      <trkpt lat="31.072794" lon="-7.934217">
        <ele>3051.80004882813</ele>
        <time>2019-12-27T15:13:57.000Z</time>
      </trkpt>
      <trkpt lat="31.072797" lon="-7.934243">
        <ele>3051.80004882813</ele>
        <time>2019-12-27T15:14:03.000Z</time>
      </trkpt>
      <trkpt lat="31.072787" lon="-7.934265">
        <ele>3051.39990234375</ele>
        <time>2019-12-27T15:14:16.000Z</time>
      </trkpt>
      <trkpt lat="31.072778" lon="-7.934285">
        <ele>3051.19995117188</ele>
        <time>2019-12-27T15:14:21.000Z</time>
      </trkpt>
      <trkpt lat="31.072768" lon="-7.934305">
        <ele>3051</ele>
        <time>2019-12-27T15:14:24.000Z</time>
      </trkpt>
      <trkpt lat="31.072755" lon="-7.934322">
        <ele>3050.80004882813</ele>
        <time>2019-12-27T15:14:30.000Z</time>
      </trkpt>
      <trkpt lat="31.072736" lon="-7.934334">
        <ele>3050.80004882813</ele>
        <time>2019-12-27T15:14:35.000Z</time>
      </trkpt>
      <trkpt lat="31.07272" lon="-7.934354">
        <ele>3050.60009765625</ele>
        <time>2019-12-27T15:14:38.000Z</time>
      </trkpt>
      <trkpt lat="31.072694" lon="-7.934358">
        <ele>3050.60009765625</ele>
        <time>2019-12-27T15:14:41.000Z</time>
      </trkpt>
      <trkpt lat="31.072675" lon="-7.934362">
        <ele>3050.60009765625</ele>
        <time>2019-12-27T15:14:43.000Z</time>
      </trkpt>
      <trkpt lat="31.072656" lon="-7.934375">
        <ele>3050.60009765625</ele>
        <time>2019-12-27T15:14:46.000Z</time>
      </trkpt>
      <trkpt lat="31.072637" lon="-7.934388">
        <ele>3050.39990234375</ele>
        <time>2019-12-27T15:14:49.000Z</time>
      </trkpt>
      <trkpt lat="31.072618" lon="-7.934402">
        <ele>3050.39990234375</ele>
        <time>2019-12-27T15:14:52.000Z</time>
      </trkpt>
      <trkpt lat="31.072602" lon="-7.934411">
        <ele>3050.39990234375</ele>
        <time>2019-12-27T15:14:55.000Z</time>
      </trkpt>
      <trkpt lat="31.072579" lon="-7.934426">
        <ele>3050.39990234375</ele>
        <time>2019-12-27T15:14:59.000Z</time>
      </trkpt>
      <trkpt lat="31.07256" lon="-7.934442">
        <ele>3050.39990234375</ele>
        <time>2019-12-27T15:15:03.000Z</time>
      </trkpt>
      <trkpt lat="31.072544" lon="-7.934457">
        <ele>3050.41972071875</ele>
        <time>2019-12-27T15:15:07.000Z</time>
      </trkpt>
      <trkpt lat="31.072518" lon="-7.934465">
        <ele>3050.60009765625</ele>
        <time>2019-12-27T15:15:10.000Z</time>
      </trkpt>
      <trkpt lat="31.072502" lon="-7.934475">
        <ele>3050.60009765625</ele>
        <time>2019-12-27T15:15:12.000Z</time>
      </trkpt>
      <trkpt lat="31.072486" lon="-7.934492">
        <ele>3050.6198918625</ele>
        <time>2019-12-27T15:15:15.000Z</time>
      </trkpt>
      <trkpt lat="31.072461" lon="-7.9345">
        <ele>3050.80004882813</ele>
        <time>2019-12-27T15:15:18.000Z</time>
      </trkpt>
      <trkpt lat="31.072438" lon="-7.934503">
        <ele>3050.81984303438</ele>
        <time>2019-12-27T15:15:20.000Z</time>
      </trkpt>
      <trkpt lat="31.072416" lon="-7.934517">
        <ele>3051</ele>
        <time>2019-12-27T15:15:23.000Z</time>
      </trkpt>
      <trkpt lat="31.0724" lon="-7.93453">
        <ele>3051.19995117188</ele>
        <time>2019-12-27T15:15:26.000Z</time>
      </trkpt>
      <trkpt lat="31.072381" lon="-7.934533">
        <ele>3051.39990234375</ele>
        <time>2019-12-27T15:15:29.000Z</time>
      </trkpt>
      <trkpt lat="31.072368" lon="-7.934548">
        <ele>3051.60009765625</ele>
        <time>2019-12-27T15:15:32.000Z</time>
      </trkpt>
      <trkpt lat="31.072358" lon="-7.934572">
        <ele>3051.80004882813</ele>
        <time>2019-12-27T15:15:35.000Z</time>
      </trkpt>
      <trkpt lat="31.072336" lon="-7.934586">
        <ele>3052</ele>
        <time>2019-12-27T15:15:38.000Z</time>
      </trkpt>
      <trkpt lat="31.072317" lon="-7.934598">
        <ele>3052.19995117188</ele>
        <time>2019-12-27T15:15:41.000Z</time>
      </trkpt>
      <trkpt lat="31.072294" lon="-7.934603">
        <ele>3052.39990234375</ele>
        <time>2019-12-27T15:15:43.000Z</time>
      </trkpt>
      <trkpt lat="31.072272" lon="-7.934615">
        <ele>3052.60009765625</ele>
        <time>2019-12-27T15:15:46.000Z</time>
      </trkpt>
      <trkpt lat="31.072246" lon="-7.934625">
        <ele>3052.80004882813</ele>
        <time>2019-12-27T15:15:49.000Z</time>
      </trkpt>
      <trkpt lat="31.072224" lon="-7.934637">
        <ele>3053.01979420625</ele>
        <time>2019-12-27T15:15:53.000Z</time>
      </trkpt>
      <trkpt lat="31.072205" lon="-7.934655">
        <ele>3053.21974537813</ele>
        <time>2019-12-27T15:15:56.000Z</time>
      </trkpt>
      <trkpt lat="31.072189" lon="-7.934675">
        <ele>3053.41972071875</ele>
        <time>2019-12-27T15:15:59.000Z</time>
      </trkpt>
      <trkpt lat="31.07217" lon="-7.934683">
        <ele>3053.60009765625</ele>
        <time>2019-12-27T15:16:01.000Z</time>
      </trkpt>
      <trkpt lat="31.07215" lon="-7.934697">
        <ele>3053.80004882813</ele>
        <time>2019-12-27T15:16:03.000Z</time>
      </trkpt>
      <trkpt lat="31.072128" lon="-7.93471">
        <ele>3054</ele>
        <time>2019-12-27T15:16:06.000Z</time>
      </trkpt>
      <trkpt lat="31.072109" lon="-7.934711">
        <ele>3054.19995117188</ele>
        <time>2019-12-27T15:16:09.000Z</time>
      </trkpt>
      <trkpt lat="31.07209" lon="-7.934711">
        <ele>3054.21974537813</ele>
        <time>2019-12-27T15:16:11.000Z</time>
      </trkpt>
      <trkpt lat="31.07207" lon="-7.934728">
        <ele>3054.60009765625</ele>
        <time>2019-12-27T15:16:15.000Z</time>
      </trkpt>
      <trkpt lat="31.072054" lon="-7.93474">
        <ele>3054.80004882813</ele>
        <time>2019-12-27T15:16:18.000Z</time>
      </trkpt>
      <trkpt lat="31.072029" lon="-7.93475">
        <ele>3055</ele>
        <time>2019-12-27T15:16:22.000Z</time>
      </trkpt>
      <trkpt lat="31.072016" lon="-7.93477">
        <ele>3055.21974537813</ele>
        <time>2019-12-27T15:16:26.000Z</time>
      </trkpt>
      <trkpt lat="31.071997" lon="-7.934782">
        <ele>3055.41972071875</ele>
        <time>2019-12-27T15:16:29.000Z</time>
      </trkpt>
      <trkpt lat="31.071978" lon="-7.934785">
        <ele>3055.80004882813</ele>
        <time>2019-12-27T15:16:32.000Z</time>
      </trkpt>
      <trkpt lat="31.071958" lon="-7.934786">
        <ele>3056</ele>
        <time>2019-12-27T15:16:35.000Z</time>
      </trkpt>
      <trkpt lat="31.071936" lon="-7.934797">
        <ele>3056.21974537813</ele>
        <time>2019-12-27T15:16:39.000Z</time>
      </trkpt>
      <trkpt lat="31.071914" lon="-7.9348">
        <ele>3056.41972071875</ele>
        <time>2019-12-27T15:16:42.000Z</time>
      </trkpt>
      <trkpt lat="31.071888" lon="-7.934807">
        <ele>3056.6198918625</ele>
        <time>2019-12-27T15:16:45.000Z</time>
      </trkpt>
      <trkpt lat="31.071872" lon="-7.93482">
        <ele>3056.81984303438</ele>
        <time>2019-12-27T15:16:48.000Z</time>
      </trkpt>
      <trkpt lat="31.071856" lon="-7.934835">
        <ele>3057</ele>
        <time>2019-12-27T15:16:50.000Z</time>
      </trkpt>
      <trkpt lat="31.071837" lon="-7.934842">
        <ele>3057.19995117188</ele>
        <time>2019-12-27T15:16:53.000Z</time>
      </trkpt>
      <trkpt lat="31.071814" lon="-7.934843">
        <ele>3057.39990234375</ele>
        <time>2019-12-27T15:16:56.000Z</time>
      </trkpt>
      <trkpt lat="31.071792" lon="-7.934845">
        <ele>3057.60009765625</ele>
        <time>2019-12-27T15:16:59.000Z</time>
      </trkpt>
      <trkpt lat="31.071773" lon="-7.934847">
        <ele>3057.61950386257</ele>
        <time>2019-12-27T15:17:01.000Z</time>
      </trkpt>
      <trkpt lat="31.071747" lon="-7.934842">
        <ele>3057.80004882813</ele>
        <time>2019-12-27T15:17:04.000Z</time>
      </trkpt>
      <trkpt lat="31.071728" lon="-7.934842">
        <ele>3058</ele>
        <time>2019-12-27T15:17:06.000Z</time>
      </trkpt>
      <trkpt lat="31.071706" lon="-7.93484">
        <ele>3058</ele>
        <time>2019-12-27T15:17:08.000Z</time>
      </trkpt>
      <trkpt lat="31.071686" lon="-7.93484">
        <ele>3058.19995117188</ele>
        <time>2019-12-27T15:17:10.000Z</time>
      </trkpt>
      <trkpt lat="31.071667" lon="-7.934845">
        <ele>3058.19995117188</ele>
        <time>2019-12-27T15:17:12.000Z</time>
      </trkpt>
      <trkpt lat="31.071645" lon="-7.934854">
        <ele>3058.39990234375</ele>
        <time>2019-12-27T15:17:15.000Z</time>
      </trkpt>
      <trkpt lat="31.071626" lon="-7.934854">
        <ele>3058.39990234375</ele>
        <time>2019-12-27T15:17:17.000Z</time>
      </trkpt>
      <trkpt lat="31.0716" lon="-7.934865">
        <ele>3058.60009765625</ele>
        <time>2019-12-27T15:17:21.000Z</time>
      </trkpt>
      <trkpt lat="31.071581" lon="-7.934877">
        <ele>3058.80004882813</ele>
        <time>2019-12-27T15:17:24.000Z</time>
      </trkpt>
      <trkpt lat="31.071555" lon="-7.934878">
        <ele>3059</ele>
        <time>2019-12-27T15:17:27.000Z</time>
      </trkpt>
      <trkpt lat="31.071539" lon="-7.93489">
        <ele>3059.01979420625</ele>
        <time>2019-12-27T15:17:30.000Z</time>
      </trkpt>
      <trkpt lat="31.071523" lon="-7.9349">
        <ele>3059.19995117188</ele>
        <time>2019-12-27T15:17:32.000Z</time>
      </trkpt>
      <trkpt lat="31.071504" lon="-7.934918">
        <ele>3059.21974537813</ele>
        <time>2019-12-27T15:17:35.000Z</time>
      </trkpt>
      <trkpt lat="31.071488" lon="-7.934932">
        <ele>3059.39990234375</ele>
        <time>2019-12-27T15:17:37.000Z</time>
      </trkpt>
      <trkpt lat="31.071475" lon="-7.934949">
        <ele>3059.41519429977</ele>
        <time>2019-12-27T15:17:40.000Z</time>
      </trkpt>
      <trkpt lat="31.071459" lon="-7.93496">
        <ele>3059.60009765625</ele>
        <time>2019-12-27T15:17:42.000Z</time>
      </trkpt>
      <trkpt lat="31.071446" lon="-7.934975">
        <ele>3059.80004882813</ele>
        <time>2019-12-27T15:17:45.000Z</time>
      </trkpt>
      <trkpt lat="31.07143" lon="-7.934986">
        <ele>3059.80004882813</ele>
        <time>2019-12-27T15:17:47.000Z</time>
      </trkpt>
      <trkpt lat="31.071414" lon="-7.935">
        <ele>3059.81984303438</ele>
        <time>2019-12-27T15:17:49.000Z</time>
      </trkpt>
      <trkpt lat="31.071398" lon="-7.935014">
        <ele>3060</ele>
        <time>2019-12-27T15:17:51.000Z</time>
      </trkpt>
      <trkpt lat="31.071379" lon="-7.935023">
        <ele>3060.19995117188</ele>
        <time>2019-12-27T15:17:54.000Z</time>
      </trkpt>
      <trkpt lat="31.07136" lon="-7.935042">
        <ele>3060.39990234375</ele>
        <time>2019-12-27T15:17:57.000Z</time>
      </trkpt>
      <trkpt lat="31.071341" lon="-7.935057">
        <ele>3060.60009765625</ele>
        <time>2019-12-27T15:18:00.000Z</time>
      </trkpt>
      <trkpt lat="31.071322" lon="-7.935071">
        <ele>3060.80004882813</ele>
        <time>2019-12-27T15:18:03.000Z</time>
      </trkpt>
      <trkpt lat="31.071299" lon="-7.935075">
        <ele>3061.19995117188</ele>
        <time>2019-12-27T15:18:07.000Z</time>
      </trkpt>
      <trkpt lat="31.07128" lon="-7.935078">
        <ele>3061.39990234375</ele>
        <time>2019-12-27T15:18:10.000Z</time>
      </trkpt>
      <trkpt lat="31.071258" lon="-7.935082">
        <ele>3061.60009765625</ele>
        <time>2019-12-27T15:18:13.000Z</time>
      </trkpt>
      <trkpt lat="31.071235" lon="-7.935085">
        <ele>3061.81984303438</ele>
        <time>2019-12-27T15:18:16.000Z</time>
      </trkpt>
      <trkpt lat="31.071216" lon="-7.935085">
        <ele>3062</ele>
        <time>2019-12-27T15:18:18.000Z</time>
      </trkpt>
      <trkpt lat="31.071206" lon="-7.935108">
        <ele>3062.21974537813</ele>
        <time>2019-12-27T15:18:22.000Z</time>
      </trkpt>
      <trkpt lat="31.071197" lon="-7.935135">
        <ele>3062.39990234375</ele>
        <time>2019-12-27T15:18:24.000Z</time>
      </trkpt>
      <trkpt lat="31.071171" lon="-7.935138">
        <ele>3062.6198918625</ele>
        <time>2019-12-27T15:18:27.000Z</time>
      </trkpt>
      <trkpt lat="31.071162" lon="-7.935162">
        <ele>3062.80004882813</ele>
        <time>2019-12-27T15:18:29.000Z</time>
      </trkpt>
      <trkpt lat="31.071133" lon="-7.935158">
        <ele>3063</ele>
        <time>2019-12-27T15:18:32.000Z</time>
      </trkpt>
      <trkpt lat="31.07111" lon="-7.93515">
        <ele>3063.19995117188</ele>
        <time>2019-12-27T15:18:35.000Z</time>
      </trkpt>
      <trkpt lat="31.071091" lon="-7.935145">
        <ele>3063.39990234375</ele>
        <time>2019-12-27T15:18:38.000Z</time>
      </trkpt>
      <trkpt lat="31.071075" lon="-7.935162">
        <ele>3063.60009765625</ele>
        <time>2019-12-27T15:18:41.000Z</time>
      </trkpt>
      <trkpt lat="31.071053" lon="-7.935168">
        <ele>3063.81984303438</ele>
        <time>2019-12-27T15:18:45.000Z</time>
      </trkpt>
      <trkpt lat="31.071034" lon="-7.935178">
        <ele>3064.01979420625</ele>
        <time>2019-12-27T15:18:48.000Z</time>
      </trkpt>
      <trkpt lat="31.071014" lon="-7.935195">
        <ele>3064.21974537813</ele>
        <time>2019-12-27T15:18:51.000Z</time>
      </trkpt>
      <trkpt lat="31.070989" lon="-7.935194">
        <ele>3064.41972071875</ele>
        <time>2019-12-27T15:18:54.000Z</time>
      </trkpt>
      <trkpt lat="31.070966" lon="-7.935205">
        <ele>3064.60009765625</ele>
        <time>2019-12-27T15:18:57.000Z</time>
      </trkpt>
      <trkpt lat="31.070947" lon="-7.935197">
        <ele>3064.80004882813</ele>
        <time>2019-12-27T15:18:59.000Z</time>
      </trkpt>
      <trkpt lat="31.070931" lon="-7.935187">
        <ele>3064.80004882813</ele>
        <time>2019-12-27T15:19:01.000Z</time>
      </trkpt>
      <trkpt lat="31.070912" lon="-7.935178">
        <ele>3065</ele>
        <time>2019-12-27T15:19:03.000Z</time>
      </trkpt>
      <trkpt lat="31.07089" lon="-7.935175">
        <ele>3065.01979420625</ele>
        <time>2019-12-27T15:19:05.000Z</time>
      </trkpt>
      <trkpt lat="31.070867" lon="-7.93516">
        <ele>3065.21974537813</ele>
        <time>2019-12-27T15:19:08.000Z</time>
      </trkpt>
      <trkpt lat="31.070848" lon="-7.935148">
        <ele>3065.41972071875</ele>
        <time>2019-12-27T15:19:11.000Z</time>
      </trkpt>
      <trkpt lat="31.070829" lon="-7.935143">
        <ele>3065.60009765625</ele>
        <time>2019-12-27T15:19:14.000Z</time>
      </trkpt>
      <trkpt lat="31.070803" lon="-7.935145">
        <ele>3066</ele>
        <time>2019-12-27T15:19:18.000Z</time>
      </trkpt>
      <trkpt lat="31.070784" lon="-7.935145">
        <ele>3066.19995117188</ele>
        <time>2019-12-27T15:19:21.000Z</time>
      </trkpt>
      <trkpt lat="31.070762" lon="-7.935142">
        <ele>3066.39990234375</ele>
        <time>2019-12-27T15:19:24.000Z</time>
      </trkpt>
      <trkpt lat="31.070739" lon="-7.935145">
        <ele>3066.60009765625</ele>
        <time>2019-12-27T15:19:27.000Z</time>
      </trkpt>
      <trkpt lat="31.070714" lon="-7.935147">
        <ele>3066.81984303438</ele>
        <time>2019-12-27T15:19:31.000Z</time>
      </trkpt>
      <trkpt lat="31.070694" lon="-7.93515">
        <ele>3067.19995117188</ele>
        <time>2019-12-27T15:19:34.000Z</time>
      </trkpt>
      <trkpt lat="31.070672" lon="-7.93516">
        <ele>3067.39990234375</ele>
        <time>2019-12-27T15:19:37.000Z</time>
      </trkpt>
      <trkpt lat="31.07065" lon="-7.93517">
        <ele>3067.60009765625</ele>
        <time>2019-12-27T15:19:40.000Z</time>
      </trkpt>
      <trkpt lat="31.070624" lon="-7.935178">
        <ele>3067.80004882813</ele>
        <time>2019-12-27T15:19:43.000Z</time>
      </trkpt>
      <trkpt lat="31.070608" lon="-7.935192">
        <ele>3068</ele>
        <time>2019-12-27T15:19:46.000Z</time>
      </trkpt>
      <trkpt lat="31.070586" lon="-7.93519">
        <ele>3068.60009765625</ele>
        <time>2019-12-27T15:19:53.000Z</time>
      </trkpt>
      <trkpt lat="31.070563" lon="-7.935183">
        <ele>3068.80004882813</ele>
        <time>2019-12-27T15:19:55.000Z</time>
      </trkpt>
      <trkpt lat="31.070544" lon="-7.935182">
        <ele>3069</ele>
        <time>2019-12-27T15:19:57.000Z</time>
      </trkpt>
      <trkpt lat="31.070525" lon="-7.935183">
        <ele>3069.19995117188</ele>
        <time>2019-12-27T15:19:59.000Z</time>
      </trkpt>
      <trkpt lat="31.070506" lon="-7.935183">
        <ele>3069.6198918625</ele>
        <time>2019-12-27T15:20:03.000Z</time>
      </trkpt>
      <trkpt lat="31.070486" lon="-7.935192">
        <ele>3070.19995117188</ele>
        <time>2019-12-27T15:20:07.000Z</time>
      </trkpt>
      <trkpt lat="31.070464" lon="-7.935198">
        <ele>3070.60009765625</ele>
        <time>2019-12-27T15:20:10.000Z</time>
      </trkpt>
      <trkpt lat="31.070445" lon="-7.9352">
        <ele>3071</ele>
        <time>2019-12-27T15:20:13.000Z</time>
      </trkpt>
      <trkpt lat="31.070422" lon="-7.9352">
        <ele>3071.21974537813</ele>
        <time>2019-12-27T15:20:16.000Z</time>
      </trkpt>
      <trkpt lat="31.070403" lon="-7.9352">
        <ele>3071.60009765625</ele>
        <time>2019-12-27T15:20:18.000Z</time>
      </trkpt>
      <trkpt lat="31.070381" lon="-7.935195">
        <ele>3071.80004882813</ele>
        <time>2019-12-27T15:20:20.000Z</time>
      </trkpt>
      <trkpt lat="31.070362" lon="-7.935203">
        <ele>3072.01979420625</ele>
        <time>2019-12-27T15:20:23.000Z</time>
      </trkpt>
      <trkpt lat="31.070339" lon="-7.935206">
        <ele>3072.39990234375</ele>
        <time>2019-12-27T15:20:26.000Z</time>
      </trkpt>
      <trkpt lat="31.07032" lon="-7.935202">
        <ele>3072.6198918625</ele>
        <time>2019-12-27T15:20:29.000Z</time>
      </trkpt>
      <trkpt lat="31.070298" lon="-7.935198">
        <ele>3072.81984303438</ele>
        <time>2019-12-27T15:20:32.000Z</time>
      </trkpt>
      <trkpt lat="31.070275" lon="-7.935183">
        <ele>3073</ele>
        <time>2019-12-27T15:20:35.000Z</time>
      </trkpt>
      <trkpt lat="31.070253" lon="-7.935172">
        <ele>3073.19995117188</ele>
        <time>2019-12-27T15:20:38.000Z</time>
      </trkpt>
      <trkpt lat="31.070234" lon="-7.935167">
        <ele>3073.39990234375</ele>
        <time>2019-12-27T15:20:40.000Z</time>
      </trkpt>
      <trkpt lat="31.070214" lon="-7.935168">
        <ele>3073.39990234375</ele>
        <time>2019-12-27T15:20:42.000Z</time>
      </trkpt>
      <trkpt lat="31.070195" lon="-7.935174">
        <ele>3073.41972071875</ele>
        <time>2019-12-27T15:20:44.000Z</time>
      </trkpt>
      <trkpt lat="31.07017" lon="-7.935182">
        <ele>3073.60009765625</ele>
        <time>2019-12-27T15:20:47.000Z</time>
      </trkpt>
      <trkpt lat="31.070147" lon="-7.935183">
        <ele>3073.6198918625</ele>
        <time>2019-12-27T15:20:50.000Z</time>
      </trkpt>
      <trkpt lat="31.070131" lon="-7.93517">
        <ele>3073.80004882813</ele>
        <time>2019-12-27T15:20:51.000Z</time>
      </trkpt>
      <trkpt lat="31.070112" lon="-7.935131">
        <ele>3073.80004882813</ele>
        <time>2019-12-27T15:20:52.000Z</time>
      </trkpt>
      <trkpt lat="31.070093" lon="-7.935131">
        <ele>3073.80004882813</ele>
        <time>2019-12-27T15:20:54.000Z</time>
      </trkpt>
      <trkpt lat="31.07007" lon="-7.935138">
        <ele>3073.81984303438</ele>
        <time>2019-12-27T15:20:57.000Z</time>
      </trkpt>
      <trkpt lat="31.070058" lon="-7.935162">
        <ele>3074</ele>
        <time>2019-12-27T15:20:59.000Z</time>
      </trkpt>
      <trkpt lat="31.070035" lon="-7.935185">
        <ele>3074.01979420625</ele>
        <time>2019-12-27T15:21:02.000Z</time>
      </trkpt>
      <trkpt lat="31.070022" lon="-7.935202">
        <ele>3074.19995117188</ele>
        <time>2019-12-27T15:21:04.000Z</time>
      </trkpt>
      <trkpt lat="31.07001" lon="-7.935218">
        <ele>3074.19995117188</ele>
        <time>2019-12-27T15:21:06.000Z</time>
      </trkpt>
      <trkpt lat="31.069984" lon="-7.93523">
        <ele>3074.39990234375</ele>
        <time>2019-12-27T15:21:09.000Z</time>
      </trkpt>
      <trkpt lat="31.069958" lon="-7.935242">
        <ele>3074.39990234375</ele>
        <time>2019-12-27T15:21:12.000Z</time>
      </trkpt>
      <trkpt lat="31.069936" lon="-7.935252">
        <ele>3074.60009765625</ele>
        <time>2019-12-27T15:21:15.000Z</time>
      </trkpt>
      <trkpt lat="31.069914" lon="-7.935265">
        <ele>3074.80004882813</ele>
        <time>2019-12-27T15:21:18.000Z</time>
      </trkpt>
      <trkpt lat="31.069894" lon="-7.935273">
        <ele>3074.80004882813</ele>
        <time>2019-12-27T15:21:20.000Z</time>
      </trkpt>
      <trkpt lat="31.069878" lon="-7.935285">
        <ele>3075</ele>
        <time>2019-12-27T15:21:22.000Z</time>
      </trkpt>
      <trkpt lat="31.069856" lon="-7.935303">
        <ele>3075.19995117188</ele>
        <time>2019-12-27T15:21:25.000Z</time>
      </trkpt>
      <trkpt lat="31.069837" lon="-7.93531">
        <ele>3075.21974537813</ele>
        <time>2019-12-27T15:21:27.000Z</time>
      </trkpt>
      <trkpt lat="31.069821" lon="-7.935325">
        <ele>3075.41972071875</ele>
        <time>2019-12-27T15:21:30.000Z</time>
      </trkpt>
      <trkpt lat="31.069805" lon="-7.935342">
        <ele>3075.80004882813</ele>
        <time>2019-12-27T15:21:33.000Z</time>
      </trkpt>
      <trkpt lat="31.069786" lon="-7.935357">
        <ele>3076</ele>
        <time>2019-12-27T15:21:36.000Z</time>
      </trkpt>
      <trkpt lat="31.069766" lon="-7.935363">
        <ele>3076.19995117188</ele>
        <time>2019-12-27T15:21:38.000Z</time>
      </trkpt>
      <trkpt lat="31.069747" lon="-7.93537">
        <ele>3076.39990234375</ele>
        <time>2019-12-27T15:21:41.000Z</time>
      </trkpt>
      <trkpt lat="31.069731" lon="-7.935402">
        <ele>3076.6198918625</ele>
        <time>2019-12-27T15:21:45.000Z</time>
      </trkpt>
      <trkpt lat="31.069722" lon="-7.935425">
        <ele>3077</ele>
        <time>2019-12-27T15:21:48.000Z</time>
      </trkpt>
      <trkpt lat="31.069718" lon="-7.935455">
        <ele>3077.21974537813</ele>
        <time>2019-12-27T15:21:51.000Z</time>
      </trkpt>
      <trkpt lat="31.069712" lon="-7.935477">
        <ele>3077.39990234375</ele>
        <time>2019-12-27T15:21:53.000Z</time>
      </trkpt>
      <trkpt lat="31.069709" lon="-7.935498">
        <ele>3077.60009765625</ele>
        <time>2019-12-27T15:21:55.000Z</time>
      </trkpt>
      <trkpt lat="31.069706" lon="-7.93552">
        <ele>3077.81984303438</ele>
        <time>2019-12-27T15:21:58.000Z</time>
      </trkpt>
      <trkpt lat="31.069693" lon="-7.935542">
        <ele>3078.21974537813</ele>
        <time>2019-12-27T15:22:03.000Z</time>
      </trkpt>
      <trkpt lat="31.069683" lon="-7.935567">
        <ele>3078.60009765625</ele>
        <time>2019-12-27T15:22:07.000Z</time>
      </trkpt>
      <trkpt lat="31.069667" lon="-7.935582">
        <ele>3078.80004882813</ele>
        <time>2019-12-27T15:22:10.000Z</time>
      </trkpt>
      <trkpt lat="31.069642" lon="-7.935582">
        <ele>3079.01979420625</ele>
        <time>2019-12-27T15:22:14.000Z</time>
      </trkpt>
      <trkpt lat="31.069622" lon="-7.93559">
        <ele>3079.21974537813</ele>
        <time>2019-12-27T15:22:17.000Z</time>
      </trkpt>
      <trkpt lat="31.0696" lon="-7.935602">
        <ele>3079.60009765625</ele>
        <time>2019-12-27T15:22:21.000Z</time>
      </trkpt>
      <trkpt lat="31.069574" lon="-7.935598">
        <ele>3079.6198918625</ele>
        <time>2019-12-27T15:22:24.000Z</time>
      </trkpt>
      <trkpt lat="31.069552" lon="-7.935603">
        <ele>3079.81984303438</ele>
        <time>2019-12-27T15:22:27.000Z</time>
      </trkpt>
      <trkpt lat="31.069533" lon="-7.935615">
        <ele>3080</ele>
        <time>2019-12-27T15:22:30.000Z</time>
      </trkpt>
      <trkpt lat="31.069514" lon="-7.935638">
        <ele>3080.19995117188</ele>
        <time>2019-12-27T15:22:34.000Z</time>
      </trkpt>
      <trkpt lat="31.069507" lon="-7.935666">
        <ele>3080.39990234375</ele>
        <time>2019-12-27T15:22:36.000Z</time>
      </trkpt>
      <trkpt lat="31.069498" lon="-7.935686">
        <ele>3080.41972071875</ele>
        <time>2019-12-27T15:22:38.000Z</time>
      </trkpt>
      <trkpt lat="31.069485" lon="-7.935703">
        <ele>3080.60009765625</ele>
        <time>2019-12-27T15:22:40.000Z</time>
      </trkpt>
      <trkpt lat="31.069469" lon="-7.935718">
        <ele>3080.81984303438</ele>
        <time>2019-12-27T15:22:44.000Z</time>
      </trkpt>
      <trkpt lat="31.069456" lon="-7.935734">
        <ele>3081.01979420625</ele>
        <time>2019-12-27T15:22:46.000Z</time>
      </trkpt>
      <trkpt lat="31.06944" lon="-7.935748">
        <ele>3081.39990234375</ele>
        <time>2019-12-27T15:22:49.000Z</time>
      </trkpt>
      <trkpt lat="31.069421" lon="-7.93575">
        <ele>3081.60009765625</ele>
        <time>2019-12-27T15:22:51.000Z</time>
      </trkpt>
      <trkpt lat="31.069398" lon="-7.935748">
        <ele>3082.01979420625</ele>
        <time>2019-12-27T15:22:55.000Z</time>
      </trkpt>
      <trkpt lat="31.069373" lon="-7.935742">
        <ele>3082.60009765625</ele>
        <time>2019-12-27T15:22:59.000Z</time>
      </trkpt>
      <trkpt lat="31.06935" lon="-7.935726">
        <ele>3083</ele>
        <time>2019-12-27T15:23:02.000Z</time>
      </trkpt>
      <trkpt lat="31.069325" lon="-7.93572">
        <ele>3083.39990234375</ele>
        <time>2019-12-27T15:23:05.000Z</time>
      </trkpt>
      <trkpt lat="31.069309" lon="-7.935709">
        <ele>3083.60009765625</ele>
        <time>2019-12-27T15:23:07.000Z</time>
      </trkpt>
      <trkpt lat="31.06929" lon="-7.935709">
        <ele>3084</ele>
        <time>2019-12-27T15:23:10.000Z</time>
      </trkpt>
      <trkpt lat="31.069274" lon="-7.93572">
        <ele>3084.21974537813</ele>
        <time>2019-12-27T15:23:13.000Z</time>
      </trkpt>
      <trkpt lat="31.069254" lon="-7.935737">
        <ele>3084.60009765625</ele>
        <time>2019-12-27T15:23:16.000Z</time>
      </trkpt>
      <trkpt lat="31.069245" lon="-7.935757">
        <ele>3084.81984303438</ele>
        <time>2019-12-27T15:23:19.000Z</time>
      </trkpt>
      <trkpt lat="31.069229" lon="-7.935768">
        <ele>3085.19995117188</ele>
        <time>2019-12-27T15:23:22.000Z</time>
      </trkpt>
      <trkpt lat="31.069203" lon="-7.935774">
        <ele>3085.41972071875</ele>
        <time>2019-12-27T15:23:25.000Z</time>
      </trkpt>
      <trkpt lat="31.069181" lon="-7.935778">
        <ele>3085.80004882813</ele>
        <time>2019-12-27T15:23:28.000Z</time>
      </trkpt>
      <trkpt lat="31.069165" lon="-7.93579">
        <ele>3086.01979420625</ele>
        <time>2019-12-27T15:23:31.000Z</time>
      </trkpt>
      <trkpt lat="31.069142" lon="-7.935788">
        <ele>3086.19995117188</ele>
        <time>2019-12-27T15:23:33.000Z</time>
      </trkpt>
      <trkpt lat="31.069126" lon="-7.935798">
        <ele>3086.41972071875</ele>
        <time>2019-12-27T15:23:36.000Z</time>
      </trkpt>
      <trkpt lat="31.06911" lon="-7.93581">
        <ele>3086.60009765625</ele>
        <time>2019-12-27T15:23:38.000Z</time>
      </trkpt>
      <trkpt lat="31.069094" lon="-7.935823">
        <ele>3086.81984303438</ele>
        <time>2019-12-27T15:23:41.000Z</time>
      </trkpt>
      <trkpt lat="31.069075" lon="-7.935842">
        <ele>3087.01979420625</ele>
        <time>2019-12-27T15:23:44.000Z</time>
      </trkpt>
      <trkpt lat="31.069056" lon="-7.935855">
        <ele>3087.21974537813</ele>
        <time>2019-12-27T15:23:47.000Z</time>
      </trkpt>
      <trkpt lat="31.069034" lon="-7.935868">
        <ele>3087.60009765625</ele>
        <time>2019-12-27T15:23:50.000Z</time>
      </trkpt>
      <trkpt lat="31.069014" lon="-7.935874">
        <ele>3087.81984303438</ele>
        <time>2019-12-27T15:23:53.000Z</time>
      </trkpt>
      <trkpt lat="31.068995" lon="-7.935882">
        <ele>3088.19995117188</ele>
        <time>2019-12-27T15:23:56.000Z</time>
      </trkpt>
      <trkpt lat="31.068966" lon="-7.935892">
        <ele>3088.6198918625</ele>
        <time>2019-12-27T15:23:59.000Z</time>
      </trkpt>
      <trkpt lat="31.068954" lon="-7.935915">
        <ele>3089.21974537813</ele>
        <time>2019-12-27T15:24:03.000Z</time>
      </trkpt>
      <trkpt lat="31.068941" lon="-7.93594">
        <ele>3089.6198918625</ele>
        <time>2019-12-27T15:24:06.000Z</time>
      </trkpt>
      <trkpt lat="31.068918" lon="-7.93594">
        <ele>3090.21974537813</ele>
        <time>2019-12-27T15:24:09.000Z</time>
      </trkpt>
      <trkpt lat="31.068902" lon="-7.935928">
        <ele>3090.6198918625</ele>
        <time>2019-12-27T15:24:11.000Z</time>
      </trkpt>
      <trkpt lat="31.068883" lon="-7.935937">
        <ele>3091.21974537813</ele>
        <time>2019-12-27T15:24:15.000Z</time>
      </trkpt>
      <trkpt lat="31.068867" lon="-7.935948">
        <ele>3091.6198918625</ele>
        <time>2019-12-27T15:24:17.000Z</time>
      </trkpt>
      <trkpt lat="31.068858" lon="-7.93597">
        <ele>3092.01979420625</ele>
        <time>2019-12-27T15:24:20.000Z</time>
      </trkpt>
      <trkpt lat="31.068845" lon="-7.935992">
        <ele>3092.6198918625</ele>
        <time>2019-12-27T15:24:23.000Z</time>
      </trkpt>
      <trkpt lat="31.068832" lon="-7.936014">
        <ele>3093</ele>
        <time>2019-12-27T15:24:25.000Z</time>
      </trkpt>
      <trkpt lat="31.068816" lon="-7.936025">
        <ele>3093.39990234375</ele>
        <time>2019-12-27T15:24:27.000Z</time>
      </trkpt>
      <trkpt lat="31.068794" lon="-7.93603">
        <ele>3093.8196629859</ele>
        <time>2019-12-27T15:24:30.000Z</time>
      </trkpt>
      <trkpt lat="31.068774" lon="-7.936034">
        <ele>3094.19995117188</ele>
        <time>2019-12-27T15:24:33.000Z</time>
      </trkpt>
      <trkpt lat="31.068755" lon="-7.936032">
        <ele>3094.60009765625</ele>
        <time>2019-12-27T15:24:36.000Z</time>
      </trkpt>
      <trkpt lat="31.068736" lon="-7.936023">
        <ele>3095.01979420625</ele>
        <time>2019-12-27T15:24:41.000Z</time>
      </trkpt>
      <trkpt lat="31.068717" lon="-7.936017">
        <ele>3095.41972071875</ele>
        <time>2019-12-27T15:24:45.000Z</time>
      </trkpt>
      <trkpt lat="31.068698" lon="-7.936025">
        <ele>3095.80004882813</ele>
        <time>2019-12-27T15:24:48.000Z</time>
      </trkpt>
      <trkpt lat="31.068678" lon="-7.936035">
        <ele>3096.21974537813</ele>
        <time>2019-12-27T15:24:54.000Z</time>
      </trkpt>
      <trkpt lat="31.068656" lon="-7.936038">
        <ele>3096.60009765625</ele>
        <time>2019-12-27T15:24:58.000Z</time>
      </trkpt>
      <trkpt lat="31.068634" lon="-7.93603">
        <ele>3096.81984303438</ele>
        <time>2019-12-27T15:25:01.000Z</time>
      </trkpt>
      <trkpt lat="31.068614" lon="-7.936025">
        <ele>3097</ele>
        <time>2019-12-27T15:25:03.000Z</time>
      </trkpt>
      <trkpt lat="31.068592" lon="-7.936032">
        <ele>3097.19995117188</ele>
        <time>2019-12-27T15:25:06.000Z</time>
      </trkpt>
      <trkpt lat="31.06857" lon="-7.93604">
        <ele>3097.41972071875</ele>
        <time>2019-12-27T15:25:09.000Z</time>
      </trkpt>
      <trkpt lat="31.068554" lon="-7.93606">
        <ele>3097.6198918625</ele>
        <time>2019-12-27T15:25:12.000Z</time>
      </trkpt>
      <trkpt lat="31.068531" lon="-7.936075">
        <ele>3097.81984303438</ele>
        <time>2019-12-27T15:25:15.000Z</time>
      </trkpt>
      <trkpt lat="31.068512" lon="-7.936085">
        <ele>3098.01979420625</ele>
        <time>2019-12-27T15:25:18.000Z</time>
      </trkpt>
      <trkpt lat="31.06849" lon="-7.936086">
        <ele>3098.19995117188</ele>
        <time>2019-12-27T15:25:20.000Z</time>
      </trkpt>
      <trkpt lat="31.068467" lon="-7.936078">
        <ele>3098.39990234375</ele>
        <time>2019-12-27T15:25:23.000Z</time>
      </trkpt>
      <trkpt lat="31.068448" lon="-7.936069">
        <ele>3098.41972071875</ele>
        <time>2019-12-27T15:25:26.000Z</time>
      </trkpt>
      <trkpt lat="31.068429" lon="-7.936055">
        <ele>3098.60009765625</ele>
        <time>2019-12-27T15:25:29.000Z</time>
      </trkpt>
      <trkpt lat="31.06841" lon="-7.936049">
        <ele>3098.80004882813</ele>
        <time>2019-12-27T15:25:31.000Z</time>
      </trkpt>
      <trkpt lat="31.06839" lon="-7.936043">
        <ele>3098.81984303438</ele>
        <time>2019-12-27T15:25:34.000Z</time>
      </trkpt>
      <trkpt lat="31.068371" lon="-7.93604">
        <ele>3099</ele>
        <time>2019-12-27T15:25:36.000Z</time>
      </trkpt>
      <trkpt lat="31.068346" lon="-7.936032">
        <ele>3099.19995117188</ele>
        <time>2019-12-27T15:25:39.000Z</time>
      </trkpt>
      <trkpt lat="31.068326" lon="-7.93602">
        <ele>3099.21974537813</ele>
        <time>2019-12-27T15:25:41.000Z</time>
      </trkpt>
      <trkpt lat="31.068307" lon="-7.93601">
        <ele>3099.39990234375</ele>
        <time>2019-12-27T15:25:43.000Z</time>
      </trkpt>
      <trkpt lat="31.068285" lon="-7.936005">
        <ele>3099.41972071875</ele>
        <time>2019-12-27T15:25:45.000Z</time>
      </trkpt>
      <trkpt lat="31.068259" lon="-7.935998">
        <ele>3099.60009765625</ele>
        <time>2019-12-27T15:25:47.000Z</time>
      </trkpt>
      <trkpt lat="31.06824" lon="-7.935997">
        <ele>3099.80004882813</ele>
        <time>2019-12-27T15:25:49.000Z</time>
      </trkpt>
      <trkpt lat="31.068221" lon="-7.935995">
        <ele>3100.01979420625</ele>
        <time>2019-12-27T15:25:53.000Z</time>
      </trkpt>
      <trkpt lat="31.068202" lon="-7.93598">
        <ele>3100.39990234375</ele>
        <time>2019-12-27T15:25:57.000Z</time>
      </trkpt>
      <trkpt lat="31.068186" lon="-7.93597">
        <ele>3100.80004882813</ele>
        <time>2019-12-27T15:26:01.000Z</time>
      </trkpt>
      <trkpt lat="31.068166" lon="-7.935977">
        <ele>3101.01979420625</ele>
        <time>2019-12-27T15:26:04.000Z</time>
      </trkpt>
      <trkpt lat="31.068147" lon="-7.935966">
        <ele>3101.21974537813</ele>
        <time>2019-12-27T15:26:06.000Z</time>
      </trkpt>
      <trkpt lat="31.068128" lon="-7.935957">
        <ele>3101.60009765625</ele>
        <time>2019-12-27T15:26:09.000Z</time>
      </trkpt>
      <trkpt lat="31.068109" lon="-7.935953">
        <ele>3101.81984303438</ele>
        <time>2019-12-27T15:26:12.000Z</time>
      </trkpt>
      <trkpt lat="31.06809" lon="-7.935946">
        <ele>3102.19995117188</ele>
        <time>2019-12-27T15:26:15.000Z</time>
      </trkpt>
      <trkpt lat="31.06807" lon="-7.935946">
        <ele>3102.41972071875</ele>
        <time>2019-12-27T15:26:18.000Z</time>
      </trkpt>
      <trkpt lat="31.068048" lon="-7.935958">
        <ele>3103</ele>
        <time>2019-12-27T15:26:22.000Z</time>
      </trkpt>
      <trkpt lat="31.068029" lon="-7.935973">
        <ele>3103.21974537813</ele>
        <time>2019-12-27T15:26:25.000Z</time>
      </trkpt>
      <trkpt lat="31.068013" lon="-7.935986">
        <ele>3103.60009765625</ele>
        <time>2019-12-27T15:26:28.000Z</time>
      </trkpt>
      <trkpt lat="31.067984" lon="-7.935978">
        <ele>3104.01979420625</ele>
        <time>2019-12-27T15:26:32.000Z</time>
      </trkpt>
      <trkpt lat="31.067958" lon="-7.935983">
        <ele>3104.39990234375</ele>
        <time>2019-12-27T15:26:35.000Z</time>
      </trkpt>
      <trkpt lat="31.067936" lon="-7.935992">
        <ele>3104.60009765625</ele>
        <time>2019-12-27T15:26:37.000Z</time>
      </trkpt>
      <trkpt lat="31.067917" lon="-7.935998">
        <ele>3104.80004882813</ele>
        <time>2019-12-27T15:26:39.000Z</time>
      </trkpt>
      <trkpt lat="31.067885" lon="-7.936002">
        <ele>3105.01979420625</ele>
        <time>2019-12-27T15:26:42.000Z</time>
      </trkpt>
      <trkpt lat="31.067869" lon="-7.936015">
        <ele>3105.41972071875</ele>
        <time>2019-12-27T15:26:46.000Z</time>
      </trkpt>
      <trkpt lat="31.067853" lon="-7.936034">
        <ele>3105.80004882813</ele>
        <time>2019-12-27T15:26:50.000Z</time>
      </trkpt>
      <trkpt lat="31.067834" lon="-7.936042">
        <ele>3106.19995117188</ele>
        <time>2019-12-27T15:26:54.000Z</time>
      </trkpt>
      <trkpt lat="31.067814" lon="-7.936057">
        <ele>3106.41972071875</ele>
        <time>2019-12-27T15:26:57.000Z</time>
      </trkpt>
      <trkpt lat="31.067802" lon="-7.936074">
        <ele>3106.80004882813</ele>
        <time>2019-12-27T15:27:00.000Z</time>
      </trkpt>
      <trkpt lat="31.067782" lon="-7.936083">
        <ele>3107</ele>
        <time>2019-12-27T15:27:03.000Z</time>
      </trkpt>
      <trkpt lat="31.067763" lon="-7.936091">
        <ele>3107.19995117188</ele>
        <time>2019-12-27T15:27:06.000Z</time>
      </trkpt>
      <trkpt lat="31.067738" lon="-7.936098">
        <ele>3107.39990234375</ele>
        <time>2019-12-27T15:27:08.000Z</time>
      </trkpt>
      <trkpt lat="31.067715" lon="-7.936105">
        <ele>3107.60009765625</ele>
        <time>2019-12-27T15:27:10.000Z</time>
      </trkpt>
      <trkpt lat="31.067696" lon="-7.936114">
        <ele>3107.6198918625</ele>
        <time>2019-12-27T15:27:12.000Z</time>
      </trkpt>
      <trkpt lat="31.06767" lon="-7.936122">
        <ele>3107.80004882813</ele>
        <time>2019-12-27T15:27:14.000Z</time>
      </trkpt>
      <trkpt lat="31.067651" lon="-7.936125">
        <ele>3107.81984303438</ele>
        <time>2019-12-27T15:27:16.000Z</time>
      </trkpt>
      <trkpt lat="31.067629" lon="-7.93613">
        <ele>3108.01979420625</ele>
        <time>2019-12-27T15:27:19.000Z</time>
      </trkpt>
      <trkpt lat="31.067606" lon="-7.93613">
        <ele>3108.21974537813</ele>
        <time>2019-12-27T15:27:22.000Z</time>
      </trkpt>
      <trkpt lat="31.067587" lon="-7.936142">
        <ele>3108.39990234375</ele>
        <time>2019-12-27T15:27:25.000Z</time>
      </trkpt>
      <trkpt lat="31.067571" lon="-7.936155">
        <ele>3108.60009765625</ele>
        <time>2019-12-27T15:27:27.000Z</time>
      </trkpt>
      <trkpt lat="31.067552" lon="-7.93616">
        <ele>3108.60009765625</ele>
        <time>2019-12-27T15:27:29.000Z</time>
      </trkpt>
      <trkpt lat="31.067533" lon="-7.936174">
        <ele>3108.80004882813</ele>
        <time>2019-12-27T15:27:32.000Z</time>
      </trkpt>
      <trkpt lat="31.067514" lon="-7.93618">
        <ele>3108.81984303438</ele>
        <time>2019-12-27T15:27:34.000Z</time>
      </trkpt>
      <trkpt lat="31.067491" lon="-7.936177">
        <ele>3109</ele>
        <time>2019-12-27T15:27:36.000Z</time>
      </trkpt>
      <trkpt lat="31.067472" lon="-7.936178">
        <ele>3109.01979420625</ele>
        <time>2019-12-27T15:27:38.000Z</time>
      </trkpt>
      <trkpt lat="31.067446" lon="-7.936177">
        <ele>3109.19995117188</ele>
        <time>2019-12-27T15:27:41.000Z</time>
      </trkpt>
      <trkpt lat="31.067424" lon="-7.936175">
        <ele>3109.39990234375</ele>
        <time>2019-12-27T15:27:44.000Z</time>
      </trkpt>
      <trkpt lat="31.067398" lon="-7.93618">
        <ele>3109.60009765625</ele>
        <time>2019-12-27T15:27:47.000Z</time>
      </trkpt>
      <trkpt lat="31.067376" lon="-7.936185">
        <ele>3109.60009765625</ele>
        <time>2019-12-27T15:27:50.000Z</time>
      </trkpt>
      <trkpt lat="31.067354" lon="-7.936191">
        <ele>3109.80004882813</ele>
        <time>2019-12-27T15:27:53.000Z</time>
      </trkpt>
      <trkpt lat="31.067334" lon="-7.9362">
        <ele>3109.80004882813</ele>
        <time>2019-12-27T15:27:55.000Z</time>
      </trkpt>
      <trkpt lat="31.067315" lon="-7.936202">
        <ele>3110</ele>
        <time>2019-12-27T15:27:58.000Z</time>
      </trkpt>
      <trkpt lat="31.067299" lon="-7.936211">
        <ele>3112.19995117188</ele>
        <time>2019-12-27T15:28:45.000Z</time>
      </trkpt>
      <trkpt lat="31.067306" lon="-7.936232">
        <ele>3112.41972071875</ele>
        <time>2019-12-27T15:28:56.000Z</time>
      </trkpt>
      <trkpt lat="31.067286" lon="-7.936228">
        <ele>3112.39990234375</ele>
        <time>2019-12-27T15:29:29.000Z</time>
      </trkpt>
      <trkpt lat="31.067267" lon="-7.936238">
        <ele>3112.19995117188</ele>
        <time>2019-12-27T15:29:32.000Z</time>
      </trkpt>
      <trkpt lat="31.067254" lon="-7.936255">
        <ele>3112</ele>
        <time>2019-12-27T15:29:35.000Z</time>
      </trkpt>
      <trkpt lat="31.067235" lon="-7.93626">
        <ele>3111.80004882813</ele>
        <time>2019-12-27T15:29:37.000Z</time>
      </trkpt>
      <trkpt lat="31.067213" lon="-7.936274">
        <ele>3111.78025462188</ele>
        <time>2019-12-27T15:29:40.000Z</time>
      </trkpt>
      <trkpt lat="31.067187" lon="-7.936283">
        <ele>3111.60009765625</ele>
        <time>2019-12-27T15:29:43.000Z</time>
      </trkpt>
      <trkpt lat="31.067168" lon="-7.936295">
        <ele>3111.60009765625</ele>
        <time>2019-12-27T15:29:46.000Z</time>
      </trkpt>
      <trkpt lat="31.067149" lon="-7.936306">
        <ele>3111.60009765625</ele>
        <time>2019-12-27T15:29:49.000Z</time>
      </trkpt>
      <trkpt lat="31.06713" lon="-7.93631">
        <ele>3111.60009765625</ele>
        <time>2019-12-27T15:29:51.000Z</time>
      </trkpt>
      <trkpt lat="31.067107" lon="-7.9363">
        <ele>3111.60009765625</ele>
        <time>2019-12-27T15:29:53.000Z</time>
      </trkpt>
      <trkpt lat="31.067088" lon="-7.936302">
        <ele>3111.60009765625</ele>
        <time>2019-12-27T15:29:56.000Z</time>
      </trkpt>
      <trkpt lat="31.067066" lon="-7.936312">
        <ele>3111.80004882813</ele>
        <time>2019-12-27T15:30:00.000Z</time>
      </trkpt>
      <trkpt lat="31.067043" lon="-7.936317">
        <ele>3111.81984303438</ele>
        <time>2019-12-27T15:30:03.000Z</time>
      </trkpt>
      <trkpt lat="31.067018" lon="-7.936313">
        <ele>3112</ele>
        <time>2019-12-27T15:30:06.000Z</time>
      </trkpt>
      <trkpt lat="31.066995" lon="-7.936315">
        <ele>3112.19995117188</ele>
        <time>2019-12-27T15:30:09.000Z</time>
      </trkpt>
      <trkpt lat="31.066973" lon="-7.936322">
        <ele>3112.39990234375</ele>
        <time>2019-12-27T15:30:12.000Z</time>
      </trkpt>
      <trkpt lat="31.066947" lon="-7.936323">
        <ele>3112.60009765625</ele>
        <time>2019-12-27T15:30:15.000Z</time>
      </trkpt>
      <trkpt lat="31.066928" lon="-7.936326">
        <ele>3112.60009765625</ele>
        <time>2019-12-27T15:30:18.000Z</time>
      </trkpt>
      <trkpt lat="31.066909" lon="-7.93633">
        <ele>3112.80004882813</ele>
        <time>2019-12-27T15:30:20.000Z</time>
      </trkpt>
      <trkpt lat="31.066886" lon="-7.93632">
        <ele>3113</ele>
        <time>2019-12-27T15:30:23.000Z</time>
      </trkpt>
      <trkpt lat="31.066867" lon="-7.93631">
        <ele>3113.19995117188</ele>
        <time>2019-12-27T15:30:25.000Z</time>
      </trkpt>
      <trkpt lat="31.066838" lon="-7.936305">
        <ele>3113.39990234375</ele>
        <time>2019-12-27T15:30:28.000Z</time>
      </trkpt>
      <trkpt lat="31.066816" lon="-7.936305">
        <ele>3113.60009765625</ele>
        <time>2019-12-27T15:30:30.000Z</time>
      </trkpt>
      <trkpt lat="31.06679" lon="-7.936308">
        <ele>3113.80004882813</ele>
        <time>2019-12-27T15:30:33.000Z</time>
      </trkpt>
      <trkpt lat="31.066768" lon="-7.936317">
        <ele>3114</ele>
        <time>2019-12-27T15:30:36.000Z</time>
      </trkpt>
      <trkpt lat="31.066749" lon="-7.936323">
        <ele>3114.19995117188</ele>
        <time>2019-12-27T15:30:38.000Z</time>
      </trkpt>
      <trkpt lat="31.06673" lon="-7.936325">
        <ele>3114.39990234375</ele>
        <time>2019-12-27T15:30:40.000Z</time>
      </trkpt>
      <trkpt lat="31.066707" lon="-7.936335">
        <ele>3114.60009765625</ele>
        <time>2019-12-27T15:30:43.000Z</time>
      </trkpt>
      <trkpt lat="31.066691" lon="-7.936349">
        <ele>3114.80004882813</ele>
        <time>2019-12-27T15:30:45.000Z</time>
      </trkpt>
      <trkpt lat="31.066669" lon="-7.936363">
        <ele>3115</ele>
        <time>2019-12-27T15:30:48.000Z</time>
      </trkpt>
      <trkpt lat="31.06665" lon="-7.93637">
        <ele>3115.19995117188</ele>
        <time>2019-12-27T15:30:50.000Z</time>
      </trkpt>
      <trkpt lat="31.066624" lon="-7.936378">
        <ele>3115.41972071875</ele>
        <time>2019-12-27T15:30:53.000Z</time>
      </trkpt>
      <trkpt lat="31.066605" lon="-7.93639">
        <ele>3115.6198918625</ele>
        <time>2019-12-27T15:30:55.000Z</time>
      </trkpt>
      <trkpt lat="31.066579" lon="-7.936395">
        <ele>3116</ele>
        <time>2019-12-27T15:30:58.000Z</time>
      </trkpt>
      <trkpt lat="31.06655" lon="-7.936395">
        <ele>3116.19995117188</ele>
        <time>2019-12-27T15:31:00.000Z</time>
      </trkpt>
      <trkpt lat="31.066531" lon="-7.9364">
        <ele>3116.60009765625</ele>
        <time>2019-12-27T15:31:05.000Z</time>
      </trkpt>
      <trkpt lat="31.066512" lon="-7.936418">
        <ele>3116.81984303438</ele>
        <time>2019-12-27T15:31:08.000Z</time>
      </trkpt>
      <trkpt lat="31.066499" lon="-7.936437">
        <ele>3117.01979420625</ele>
        <time>2019-12-27T15:31:10.000Z</time>
      </trkpt>
      <trkpt lat="31.066493" lon="-7.936457">
        <ele>3117.19995117188</ele>
        <time>2019-12-27T15:31:12.000Z</time>
      </trkpt>
      <trkpt lat="31.06648" lon="-7.936475">
        <ele>3117.41972071875</ele>
        <time>2019-12-27T15:31:15.000Z</time>
      </trkpt>
      <trkpt lat="31.066467" lon="-7.936498">
        <ele>3117.81984303438</ele>
        <time>2019-12-27T15:31:18.000Z</time>
      </trkpt>
      <trkpt lat="31.066445" lon="-7.936517">
        <ele>3118.01979420625</ele>
        <time>2019-12-27T15:31:20.000Z</time>
      </trkpt>
      <trkpt lat="31.066432" lon="-7.936534">
        <ele>3118.41972071875</ele>
        <time>2019-12-27T15:31:23.000Z</time>
      </trkpt>
      <trkpt lat="31.066416" lon="-7.93655">
        <ele>3118.81984303438</ele>
        <time>2019-12-27T15:31:26.000Z</time>
      </trkpt>
      <trkpt lat="31.06639" lon="-7.936551">
        <ele>3119.39990234375</ele>
        <time>2019-12-27T15:31:30.000Z</time>
      </trkpt>
      <trkpt lat="31.066371" lon="-7.936551">
        <ele>3119.6198918625</ele>
        <time>2019-12-27T15:31:33.000Z</time>
      </trkpt>
      <trkpt lat="31.066355" lon="-7.936567">
        <ele>3120.39990234375</ele>
        <time>2019-12-27T15:31:41.000Z</time>
      </trkpt>
      <trkpt lat="31.066336" lon="-7.93658">
        <ele>3120.60009765625</ele>
        <time>2019-12-27T15:31:44.000Z</time>
      </trkpt>
      <trkpt lat="31.06631" lon="-7.936594">
        <ele>3120.80004882813</ele>
        <time>2019-12-27T15:31:47.000Z</time>
      </trkpt>
      <trkpt lat="31.066282" lon="-7.936603">
        <ele>3121</ele>
        <time>2019-12-27T15:31:49.000Z</time>
      </trkpt>
      <trkpt lat="31.066259" lon="-7.936606">
        <ele>3121.19995117188</ele>
        <time>2019-12-27T15:31:52.000Z</time>
      </trkpt>
      <trkpt lat="31.06624" lon="-7.936603">
        <ele>3121.21974537813</ele>
        <time>2019-12-27T15:31:55.000Z</time>
      </trkpt>
      <trkpt lat="31.066221" lon="-7.936615">
        <ele>3121.39990234375</ele>
        <time>2019-12-27T15:31:57.000Z</time>
      </trkpt>
      <trkpt lat="31.066195" lon="-7.936626">
        <ele>3121.60009765625</ele>
        <time>2019-12-27T15:32:00.000Z</time>
      </trkpt>
      <trkpt lat="31.066176" lon="-7.936632">
        <ele>3121.6198918625</ele>
        <time>2019-12-27T15:32:02.000Z</time>
      </trkpt>
      <trkpt lat="31.066154" lon="-7.936638">
        <ele>3121.81984303438</ele>
        <time>2019-12-27T15:32:05.000Z</time>
      </trkpt>
      <trkpt lat="31.066128" lon="-7.936646">
        <ele>3122</ele>
        <time>2019-12-27T15:32:08.000Z</time>
      </trkpt>
      <trkpt lat="31.066102" lon="-7.936646">
        <ele>3122.19995117188</ele>
        <time>2019-12-27T15:32:10.000Z</time>
      </trkpt>
      <trkpt lat="31.066077" lon="-7.936648">
        <ele>3122.21974537813</ele>
        <time>2019-12-27T15:32:12.000Z</time>
      </trkpt>
      <trkpt lat="31.066051" lon="-7.936653">
        <ele>3122.41972071875</ele>
        <time>2019-12-27T15:32:15.000Z</time>
      </trkpt>
      <trkpt lat="31.066026" lon="-7.936658">
        <ele>3122.60009765625</ele>
        <time>2019-12-27T15:32:17.000Z</time>
      </trkpt>
      <trkpt lat="31.066003" lon="-7.936673">
        <ele>3122.6198918625</ele>
        <time>2019-12-27T15:32:19.000Z</time>
      </trkpt>
      <trkpt lat="31.066006" lon="-7.9367">
        <ele>3122.80004882813</ele>
        <time>2019-12-27T15:32:21.000Z</time>
      </trkpt>
      <trkpt lat="31.065987" lon="-7.936714">
        <ele>3122.81984303438</ele>
        <time>2019-12-27T15:32:23.000Z</time>
      </trkpt>
      <trkpt lat="31.065965" lon="-7.936723">
        <ele>3123</ele>
        <time>2019-12-27T15:32:26.000Z</time>
      </trkpt>
      <trkpt lat="31.065939" lon="-7.936729">
        <ele>3123.01979420625</ele>
        <time>2019-12-27T15:32:28.000Z</time>
      </trkpt>
      <trkpt lat="31.06591" lon="-7.93674">
        <ele>3123.19995117188</ele>
        <time>2019-12-27T15:32:30.000Z</time>
      </trkpt>
      <trkpt lat="31.065885" lon="-7.936757">
        <ele>3123.39990234375</ele>
        <time>2019-12-27T15:32:34.000Z</time>
      </trkpt>
      <trkpt lat="31.065869" lon="-7.936772">
        <ele>3123.39990234375</ele>
        <time>2019-12-27T15:32:36.000Z</time>
      </trkpt>
      <trkpt lat="31.065846" lon="-7.936783">
        <ele>3123.60009765625</ele>
        <time>2019-12-27T15:32:39.000Z</time>
      </trkpt>
      <trkpt lat="31.065827" lon="-7.936794">
        <ele>3123.6198918625</ele>
        <time>2019-12-27T15:32:41.000Z</time>
      </trkpt>
      <trkpt lat="31.065811" lon="-7.936823">
        <ele>3123.81984303438</ele>
        <time>2019-12-27T15:32:45.000Z</time>
      </trkpt>
      <trkpt lat="31.065798" lon="-7.93684">
        <ele>3124</ele>
        <time>2019-12-27T15:32:48.000Z</time>
      </trkpt>
      <trkpt lat="31.065776" lon="-7.936835">
        <ele>3124.19995117188</ele>
        <time>2019-12-27T15:32:51.000Z</time>
      </trkpt>
      <trkpt lat="31.065754" lon="-7.936835">
        <ele>3124.39990234375</ele>
        <time>2019-12-27T15:32:54.000Z</time>
      </trkpt>
      <trkpt lat="31.065728" lon="-7.936831">
        <ele>3124.41972071875</ele>
        <time>2019-12-27T15:32:56.000Z</time>
      </trkpt>
      <trkpt lat="31.065706" lon="-7.936842">
        <ele>3124.6198918625</ele>
        <time>2019-12-27T15:32:59.000Z</time>
      </trkpt>
      <trkpt lat="31.065686" lon="-7.936842">
        <ele>3124.80004882813</ele>
        <time>2019-12-27T15:33:01.000Z</time>
      </trkpt>
      <trkpt lat="31.065667" lon="-7.936843">
        <ele>3125</ele>
        <time>2019-12-27T15:33:03.000Z</time>
      </trkpt>
      <trkpt lat="31.065648" lon="-7.936846">
        <ele>3125.39990234375</ele>
        <time>2019-12-27T15:33:07.000Z</time>
      </trkpt>
      <trkpt lat="31.065629" lon="-7.93686">
        <ele>3125.60009765625</ele>
        <time>2019-12-27T15:33:10.000Z</time>
      </trkpt>
      <trkpt lat="31.065616" lon="-7.936877">
        <ele>3125.80004882813</ele>
        <time>2019-12-27T15:33:14.000Z</time>
      </trkpt>
      <trkpt lat="31.065597" lon="-7.936894">
        <ele>3126.19995117188</ele>
        <time>2019-12-27T15:33:19.000Z</time>
      </trkpt>
      <trkpt lat="31.065578" lon="-7.936895">
        <ele>3126.19995117188</ele>
        <time>2019-12-27T15:33:21.000Z</time>
      </trkpt>
      <trkpt lat="31.065558" lon="-7.936883">
        <ele>3126.39990234375</ele>
        <time>2019-12-27T15:33:24.000Z</time>
      </trkpt>
      <trkpt lat="31.065542" lon="-7.936868">
        <ele>3126.60009765625</ele>
        <time>2019-12-27T15:33:27.000Z</time>
      </trkpt>
      <trkpt lat="31.065517" lon="-7.936865">
        <ele>3126.80004882813</ele>
        <time>2019-12-27T15:33:30.000Z</time>
      </trkpt>
      <trkpt lat="31.065498" lon="-7.936866">
        <ele>3127</ele>
        <time>2019-12-27T15:33:34.000Z</time>
      </trkpt>
      <trkpt lat="31.065478" lon="-7.936883">
        <ele>3127.19995117188</ele>
        <time>2019-12-27T15:33:37.000Z</time>
      </trkpt>
      <trkpt lat="31.065456" lon="-7.93688">
        <ele>3127.21974537813</ele>
        <time>2019-12-27T15:33:39.000Z</time>
      </trkpt>
      <trkpt lat="31.065434" lon="-7.936875">
        <ele>3127.81984303438</ele>
        <time>2019-12-27T15:33:49.000Z</time>
      </trkpt>
      <trkpt lat="31.065414" lon="-7.936875">
        <ele>3128.60009765625</ele>
        <time>2019-12-27T15:33:58.000Z</time>
      </trkpt>
      <trkpt lat="31.065398" lon="-7.936885">
        <ele>3128.80004882813</ele>
        <time>2019-12-27T15:34:01.000Z</time>
      </trkpt>
      <trkpt lat="31.065392" lon="-7.936911">
        <ele>3129</ele>
        <time>2019-12-27T15:34:03.000Z</time>
      </trkpt>
      <trkpt lat="31.065382" lon="-7.93694">
        <ele>3129.21974537813</ele>
        <time>2019-12-27T15:34:06.000Z</time>
      </trkpt>
      <trkpt lat="31.06537" lon="-7.936958">
        <ele>3129.6198918625</ele>
        <time>2019-12-27T15:34:10.000Z</time>
      </trkpt>
      <trkpt lat="31.06536" lon="-7.936982">
        <ele>3129.81984303438</ele>
        <time>2019-12-27T15:34:12.000Z</time>
      </trkpt>
      <trkpt lat="31.065341" lon="-7.936998">
        <ele>3130.39990234375</ele>
        <time>2019-12-27T15:34:17.000Z</time>
      </trkpt>
      <trkpt lat="31.065338" lon="-7.937033">
        <ele>3130.6198918625</ele>
        <time>2019-12-27T15:34:20.000Z</time>
      </trkpt>
      <trkpt lat="31.065328" lon="-7.937052">
        <ele>3131</ele>
        <time>2019-12-27T15:34:23.000Z</time>
      </trkpt>
      <trkpt lat="31.065318" lon="-7.937075">
        <ele>3131.19995117188</ele>
        <time>2019-12-27T15:34:26.000Z</time>
      </trkpt>
      <trkpt lat="31.065312" lon="-7.937095">
        <ele>3131.39990234375</ele>
        <time>2019-12-27T15:34:28.000Z</time>
      </trkpt>
      <trkpt lat="31.065293" lon="-7.937109">
        <ele>3131.60009765625</ele>
        <time>2019-12-27T15:34:31.000Z</time>
      </trkpt>
      <trkpt lat="31.06528" lon="-7.937126">
        <ele>3132.01979420625</ele>
        <time>2019-12-27T15:34:36.000Z</time>
      </trkpt>
      <trkpt lat="31.06528" lon="-7.93716">
        <ele>3132.60009765625</ele>
        <time>2019-12-27T15:34:40.000Z</time>
      </trkpt>
      <trkpt lat="31.065267" lon="-7.937183">
        <ele>3133.01979420625</ele>
        <time>2019-12-27T15:34:45.000Z</time>
      </trkpt>
      <trkpt lat="31.065258" lon="-7.937203">
        <ele>3133.41972071875</ele>
        <time>2019-12-27T15:34:48.000Z</time>
      </trkpt>
      <trkpt lat="31.065245" lon="-7.937226">
        <ele>3134.01979420625</ele>
        <time>2019-12-27T15:34:52.000Z</time>
      </trkpt>
      <trkpt lat="31.065232" lon="-7.937242">
        <ele>3134.6198918625</ele>
        <time>2019-12-27T15:34:56.000Z</time>
      </trkpt>
      <trkpt lat="31.065213" lon="-7.937254">
        <ele>3135.41972071875</ele>
        <time>2019-12-27T15:35:01.000Z</time>
      </trkpt>
      <trkpt lat="31.065213" lon="-7.937282">
        <ele>3136.01979420625</ele>
        <time>2019-12-27T15:35:05.000Z</time>
      </trkpt>
      <trkpt lat="31.06521" lon="-7.937303">
        <ele>3136.60009765625</ele>
        <time>2019-12-27T15:35:09.000Z</time>
      </trkpt>
      <trkpt lat="31.065203" lon="-7.937328">
        <ele>3137.21974537813</ele>
        <time>2019-12-27T15:35:14.000Z</time>
      </trkpt>
      <trkpt lat="31.065187" lon="-7.937352">
        <ele>3137.80004882813</ele>
        <time>2019-12-27T15:35:18.000Z</time>
      </trkpt>
      <trkpt lat="31.065171" lon="-7.937372">
        <ele>3138.21974537813</ele>
        <time>2019-12-27T15:35:22.000Z</time>
      </trkpt>
      <trkpt lat="31.065162" lon="-7.937398">
        <ele>3139.01979420625</ele>
        <time>2019-12-27T15:35:29.000Z</time>
      </trkpt>
      <trkpt lat="31.065149" lon="-7.937414">
        <ele>3139.60009765625</ele>
        <time>2019-12-27T15:35:32.000Z</time>
      </trkpt>
      <trkpt lat="31.065149" lon="-7.937437">
        <ele>3140.21974537813</ele>
        <time>2019-12-27T15:35:37.000Z</time>
      </trkpt>
      <trkpt lat="31.065146" lon="-7.937458">
        <ele>3140.81984303438</ele>
        <time>2019-12-27T15:35:41.000Z</time>
      </trkpt>
      <trkpt lat="31.065133" lon="-7.93748">
        <ele>3141.41972071875</ele>
        <time>2019-12-27T15:35:45.000Z</time>
      </trkpt>
      <trkpt lat="31.065126" lon="-7.9375">
        <ele>3141.81984303438</ele>
        <time>2019-12-27T15:35:48.000Z</time>
      </trkpt>
      <trkpt lat="31.06511" lon="-7.937517">
        <ele>3142.21974537813</ele>
        <time>2019-12-27T15:35:51.000Z</time>
      </trkpt>
      <trkpt lat="31.065101" lon="-7.93754">
        <ele>3142.41972071875</ele>
        <time>2019-12-27T15:35:53.000Z</time>
      </trkpt>
      <trkpt lat="31.065091" lon="-7.93756">
        <ele>3142.80004882813</ele>
        <time>2019-12-27T15:35:55.000Z</time>
      </trkpt>
      <trkpt lat="31.065085" lon="-7.937585">
        <ele>3143.39990234375</ele>
        <time>2019-12-27T15:36:00.000Z</time>
      </trkpt>
      <trkpt lat="31.065072" lon="-7.9376">
        <ele>3143.6198918625</ele>
        <time>2019-12-27T15:36:03.000Z</time>
      </trkpt>
      <trkpt lat="31.065046" lon="-7.93761">
        <ele>3144.21974537813</ele>
        <time>2019-12-27T15:36:08.000Z</time>
      </trkpt>
      <trkpt lat="31.065027" lon="-7.93763">
        <ele>3144.60009765625</ele>
        <time>2019-12-27T15:36:12.000Z</time>
      </trkpt>
      <trkpt lat="31.065005" lon="-7.937638">
        <ele>3144.81984303438</ele>
        <time>2019-12-27T15:36:15.000Z</time>
      </trkpt>
      <trkpt lat="31.064989" lon="-7.937654">
        <ele>3145.39990234375</ele>
        <time>2019-12-27T15:36:19.000Z</time>
      </trkpt>
      <trkpt lat="31.064976" lon="-7.93767">
        <ele>3145.60009765625</ele>
        <time>2019-12-27T15:36:22.000Z</time>
      </trkpt>
      <trkpt lat="31.064957" lon="-7.937678">
        <ele>3145.6198918625</ele>
        <time>2019-12-27T15:36:24.000Z</time>
      </trkpt>
      <trkpt lat="31.064931" lon="-7.93769">
        <ele>3145.81984303438</ele>
        <time>2019-12-27T15:36:27.000Z</time>
      </trkpt>
      <trkpt lat="31.064915" lon="-7.937703">
        <ele>3146</ele>
        <time>2019-12-27T15:36:30.000Z</time>
      </trkpt>
      <trkpt lat="31.064902" lon="-7.937722">
        <ele>3146.19995117188</ele>
        <time>2019-12-27T15:36:33.000Z</time>
      </trkpt>
      <trkpt lat="31.064896" lon="-7.9377">
        <ele>3146.39990234375</ele>
        <time>2019-12-27T15:36:39.000Z</time>
      </trkpt>
      <trkpt lat="31.064874" lon="-7.937698">
        <ele>3146.41972071875</ele>
        <time>2019-12-27T15:36:43.000Z</time>
      </trkpt>
      <trkpt lat="31.064854" lon="-7.937712">
        <ele>3146.60009765625</ele>
        <time>2019-12-27T15:36:45.000Z</time>
      </trkpt>
      <trkpt lat="31.064832" lon="-7.937725">
        <ele>3146.60009765625</ele>
        <time>2019-12-27T15:36:47.000Z</time>
      </trkpt>
      <trkpt lat="31.064816" lon="-7.937735">
        <ele>3146.60009765625</ele>
        <time>2019-12-27T15:36:50.000Z</time>
      </trkpt>
      <trkpt lat="31.064794" lon="-7.937746">
        <ele>3146.6198918625</ele>
        <time>2019-12-27T15:36:52.000Z</time>
      </trkpt>
      <trkpt lat="31.064774" lon="-7.937758">
        <ele>3146.80004882813</ele>
        <time>2019-12-27T15:36:55.000Z</time>
      </trkpt>
      <trkpt lat="31.064746" lon="-7.937755">
        <ele>3146.81984303438</ele>
        <time>2019-12-27T15:36:57.000Z</time>
      </trkpt>
      <trkpt lat="31.064723" lon="-7.93776">
        <ele>3147</ele>
        <time>2019-12-27T15:37:00.000Z</time>
      </trkpt>
      <trkpt lat="31.064707" lon="-7.937772">
        <ele>3147</ele>
        <time>2019-12-27T15:37:02.000Z</time>
      </trkpt>
      <trkpt lat="31.064691" lon="-7.937795">
        <ele>3147.19995117188</ele>
        <time>2019-12-27T15:37:06.000Z</time>
      </trkpt>
      <trkpt lat="31.064672" lon="-7.937802">
        <ele>3147.21974537813</ele>
        <time>2019-12-27T15:37:08.000Z</time>
      </trkpt>
      <trkpt lat="31.064653" lon="-7.937802">
        <ele>3147.39990234375</ele>
        <time>2019-12-27T15:37:10.000Z</time>
      </trkpt>
      <trkpt lat="31.064624" lon="-7.937798">
        <ele>3147.41972071875</ele>
        <time>2019-12-27T15:37:13.000Z</time>
      </trkpt>
      <trkpt lat="31.064595" lon="-7.937792">
        <ele>3147.60009765625</ele>
        <time>2019-12-27T15:37:16.000Z</time>
      </trkpt>
      <trkpt lat="31.064576" lon="-7.93779">
        <ele>3147.6198918625</ele>
        <time>2019-12-27T15:37:18.000Z</time>
      </trkpt>
      <trkpt lat="31.064557" lon="-7.937783">
        <ele>3147.81984303438</ele>
        <time>2019-12-27T15:37:22.000Z</time>
      </trkpt>
      <trkpt lat="31.064534" lon="-7.937794">
        <ele>3148</ele>
        <time>2019-12-27T15:37:24.000Z</time>
      </trkpt>
      <trkpt lat="31.064515" lon="-7.937795">
        <ele>3148.19995117188</ele>
        <time>2019-12-27T15:37:27.000Z</time>
      </trkpt>
      <trkpt lat="31.064496" lon="-7.9378">
        <ele>3148.41972071875</ele>
        <time>2019-12-27T15:37:31.000Z</time>
      </trkpt>
      <trkpt lat="31.064474" lon="-7.937815">
        <ele>3148.60009765625</ele>
        <time>2019-12-27T15:37:34.000Z</time>
      </trkpt>
      <trkpt lat="31.064448" lon="-7.93783">
        <ele>3148.80004882813</ele>
        <time>2019-12-27T15:37:38.000Z</time>
      </trkpt>
      <trkpt lat="31.064422" lon="-7.937834">
        <ele>3149.01979420625</ele>
        <time>2019-12-27T15:37:41.000Z</time>
      </trkpt>
      <trkpt lat="31.064403" lon="-7.937832">
        <ele>3149.19995117188</ele>
        <time>2019-12-27T15:37:43.000Z</time>
      </trkpt>
      <trkpt lat="31.064384" lon="-7.937832">
        <ele>3149.39990234375</ele>
        <time>2019-12-27T15:37:45.000Z</time>
      </trkpt>
      <trkpt lat="31.064365" lon="-7.937854">
        <ele>3149.60009765625</ele>
        <time>2019-12-27T15:37:48.000Z</time>
      </trkpt>
      <trkpt lat="31.064339" lon="-7.93787">
        <ele>3149.80004882813</ele>
        <time>2019-12-27T15:37:52.000Z</time>
      </trkpt>
      <trkpt lat="31.064317" lon="-7.937872">
        <ele>3150</ele>
        <time>2019-12-27T15:37:54.000Z</time>
      </trkpt>
      <trkpt lat="31.064298" lon="-7.93787">
        <ele>3150.39990234375</ele>
        <time>2019-12-27T15:38:00.000Z</time>
      </trkpt>
      <trkpt lat="31.064275" lon="-7.937863">
        <ele>3150.41972071875</ele>
        <time>2019-12-27T15:38:02.000Z</time>
      </trkpt>
      <trkpt lat="31.064256" lon="-7.937882">
        <ele>3150.80004882813</ele>
        <time>2019-12-27T15:38:06.000Z</time>
      </trkpt>
      <trkpt lat="31.064237" lon="-7.937902">
        <ele>3151.01979420625</ele>
        <time>2019-12-27T15:38:09.000Z</time>
      </trkpt>
      <trkpt lat="31.064224" lon="-7.937918">
        <ele>3151.21974537813</ele>
        <time>2019-12-27T15:38:11.000Z</time>
      </trkpt>
      <trkpt lat="31.064198" lon="-7.937931">
        <ele>3151.60009765625</ele>
        <time>2019-12-27T15:38:15.000Z</time>
      </trkpt>
      <trkpt lat="31.064179" lon="-7.937942">
        <ele>3151.81984303438</ele>
        <time>2019-12-27T15:38:18.000Z</time>
      </trkpt>
      <trkpt lat="31.064157" lon="-7.937948">
        <ele>3152.01979420625</ele>
        <time>2019-12-27T15:38:20.000Z</time>
      </trkpt>
      <trkpt lat="31.064138" lon="-7.937955">
        <ele>3152.60009765625</ele>
        <time>2019-12-27T15:38:25.000Z</time>
      </trkpt>
      <trkpt lat="31.064118" lon="-7.937958">
        <ele>3152.81984303438</ele>
        <time>2019-12-27T15:38:28.000Z</time>
      </trkpt>
      <trkpt lat="31.064099" lon="-7.937945">
        <ele>3153.39990234375</ele>
        <time>2019-12-27T15:38:33.000Z</time>
      </trkpt>
      <trkpt lat="31.064086" lon="-7.937928">
        <ele>3153.60009765625</ele>
        <time>2019-12-27T15:38:36.000Z</time>
      </trkpt>
      <trkpt lat="31.064067" lon="-7.937918">
        <ele>3153.80004882813</ele>
        <time>2019-12-27T15:38:38.000Z</time>
      </trkpt>
      <trkpt lat="31.064051" lon="-7.937906">
        <ele>3154</ele>
        <time>2019-12-27T15:38:40.000Z</time>
      </trkpt>
      <trkpt lat="31.064032" lon="-7.93789">
        <ele>3154.01979420625</ele>
        <time>2019-12-27T15:38:42.000Z</time>
      </trkpt>
      <trkpt lat="31.064016" lon="-7.937872">
        <ele>3154.39990234375</ele>
        <time>2019-12-27T15:38:46.000Z</time>
      </trkpt>
      <trkpt lat="31.064003" lon="-7.937848">
        <ele>3154.60009765625</ele>
        <time>2019-12-27T15:38:50.000Z</time>
      </trkpt>
      <trkpt lat="31.063997" lon="-7.937826">
        <ele>3154.80004882813</ele>
        <time>2019-12-27T15:38:52.000Z</time>
      </trkpt>
      <trkpt lat="31.06399" lon="-7.937794">
        <ele>3155</ele>
        <time>2019-12-27T15:38:55.000Z</time>
      </trkpt>
      <trkpt lat="31.063987" lon="-7.937763">
        <ele>3155</ele>
        <time>2019-12-27T15:38:57.000Z</time>
      </trkpt>
      <trkpt lat="31.063981" lon="-7.937743">
        <ele>3155.19995117188</ele>
        <time>2019-12-27T15:39:00.000Z</time>
      </trkpt>
      <trkpt lat="31.063978" lon="-7.937722">
        <ele>3155.21974537813</ele>
        <time>2019-12-27T15:39:03.000Z</time>
      </trkpt>
      <trkpt lat="31.063958" lon="-7.937705">
        <ele>3155.39990234375</ele>
        <time>2019-12-27T15:39:06.000Z</time>
      </trkpt>
      <trkpt lat="31.063946" lon="-7.93769">
        <ele>3155.60009765625</ele>
        <time>2019-12-27T15:39:09.000Z</time>
      </trkpt>
      <trkpt lat="31.063949" lon="-7.937665">
        <ele>3155.80004882813</ele>
        <time>2019-12-27T15:39:16.000Z</time>
      </trkpt>
      <trkpt lat="31.063949" lon="-7.93764">
        <ele>3155.80004882813</ele>
        <time>2019-12-27T15:39:19.000Z</time>
      </trkpt>
      <trkpt lat="31.063958" lon="-7.937622">
        <ele>3155.81984303438</ele>
        <time>2019-12-27T15:39:21.000Z</time>
      </trkpt>
      <trkpt lat="31.063965" lon="-7.937602">
        <ele>3156</ele>
        <time>2019-12-27T15:39:23.000Z</time>
      </trkpt>
      <trkpt lat="31.063978" lon="-7.937585">
        <ele>3156</ele>
        <time>2019-12-27T15:39:26.000Z</time>
      </trkpt>
      <trkpt lat="31.063994" lon="-7.937571">
        <ele>3156.19995117188</ele>
        <time>2019-12-27T15:39:35.000Z</time>
      </trkpt>
      <trkpt lat="31.064003" lon="-7.937551">
        <ele>3157.39990234375</ele>
        <time>2019-12-27T15:39:56.000Z</time>
      </trkpt>
      <trkpt lat="31.064016" lon="-7.937535">
        <ele>3157.60009765625</ele>
        <time>2019-12-27T15:40:04.000Z</time>
      </trkpt>
      <trkpt lat="31.064006" lon="-7.937554">
        <ele>3158</ele>
        <time>2019-12-27T15:40:13.000Z</time>
      </trkpt>
      <trkpt lat="31.064026" lon="-7.93755">
        <ele>3158.80004882813</ele>
        <time>2019-12-27T15:40:39.000Z</time>
      </trkpt>
      <trkpt lat="31.064006" lon="-7.937571">
        <ele>3158.80004882813</ele>
        <time>2019-12-27T15:40:45.000Z</time>
      </trkpt>
      <trkpt lat="31.063987" lon="-7.937566">
        <ele>3158.80004882813</ele>
        <time>2019-12-27T15:40:49.000Z</time>
      </trkpt>
      <trkpt lat="31.063974" lon="-7.937548">
        <ele>3158.80004882813</ele>
        <time>2019-12-27T15:40:52.000Z</time>
      </trkpt>
      <trkpt lat="31.063958" lon="-7.937531">
        <ele>3158.80004882813</ele>
        <time>2019-12-27T15:40:55.000Z</time>
      </trkpt>
      <trkpt lat="31.063942" lon="-7.937509">
        <ele>3158.60009765625</ele>
        <time>2019-12-27T15:40:59.000Z</time>
      </trkpt>
      <trkpt lat="31.063933" lon="-7.937485">
        <ele>3158.60009765625</ele>
        <time>2019-12-27T15:41:04.000Z</time>
      </trkpt>
      <trkpt lat="31.064038" lon="-7.937445">
        <ele>3159.0056554875</ele>
        <time>2019-12-27T15:41:31.000Z</time>
      </trkpt>
      <trkpt lat="31.064122" lon="-7.937505">
        <ele>3159.83963724063</ele>
        <time>2019-12-27T15:41:39.000Z</time>
      </trkpt>
      <trkpt lat="31.064182" lon="-7.937588">
        <ele>3160.83963724063</ele>
        <time>2019-12-27T15:41:42.000Z</time>
      </trkpt>
      <trkpt lat="31.064272" lon="-7.937687">
        <ele>3161</ele>
        <time>2019-12-27T15:41:46.000Z</time>
      </trkpt>
      <trkpt lat="31.064237" lon="-7.937518">
        <ele>3155.66144104688</ele>
        <time>2019-12-27T15:42:08.000Z</time>
      </trkpt>
      <trkpt lat="31.064182" lon="-7.937418">
        <ele>3153.30090714375</ele>
        <time>2019-12-27T15:42:10.000Z</time>
      </trkpt>
      <trkpt lat="31.064115" lon="-7.93733">
        <ele>3149.26131873125</ele>
        <time>2019-12-27T15:42:15.000Z</time>
      </trkpt>
      <trkpt lat="31.064003" lon="-7.937303">
        <ele>3145.30090714375</ele>
        <time>2019-12-27T15:42:20.000Z</time>
      </trkpt>
      <trkpt lat="31.063907" lon="-7.937271">
        <ele>3143.36031393125</ele>
        <time>2019-12-27T15:42:25.000Z</time>
      </trkpt>
      <trkpt lat="31.063811" lon="-7.937275">
        <ele>3140.54069086875</ele>
        <time>2019-12-27T15:42:32.000Z</time>
      </trkpt>
      <trkpt lat="31.063875" lon="-7.937194">
        <ele>3133.5208966625</ele>
        <time>2019-12-27T15:42:43.000Z</time>
      </trkpt>
      <trkpt lat="31.063978" lon="-7.937154">
        <ele>3129.9604115875</ele>
        <time>2019-12-27T15:42:47.000Z</time>
      </trkpt>
      <trkpt lat="31.06407" lon="-7.937166">
        <ele>3121.92079900625</ele>
        <time>2019-12-27T15:42:57.000Z</time>
      </trkpt>
      <trkpt lat="31.064134" lon="-7.937082">
        <ele>3117.12075017813</ele>
        <time>2019-12-27T15:43:04.000Z</time>
      </trkpt>
      <trkpt lat="31.064035" lon="-7.93711">
        <ele>3114.36031393125</ele>
        <time>2019-12-27T15:43:08.000Z</time>
      </trkpt>
      <trkpt lat="31.063952" lon="-7.937188">
        <ele>3112.70105362813</ele>
        <time>2019-12-27T15:43:11.000Z</time>
      </trkpt>
      <trkpt lat="31.063869" lon="-7.937277">
        <ele>3110.78025462188</ele>
        <time>2019-12-27T15:43:14.000Z</time>
      </trkpt>
      <trkpt lat="31.063795" lon="-7.937358">
        <ele>3108.76043624688</ele>
        <time>2019-12-27T15:43:19.000Z</time>
      </trkpt>
      <trkpt lat="31.063901" lon="-7.937355">
        <ele>3109.6198918625</ele>
        <time>2019-12-27T15:43:41.000Z</time>
      </trkpt>
      <trkpt lat="31.063965" lon="-7.93727">
        <ele>3111.01979420625</ele>
        <time>2019-12-27T15:43:45.000Z</time>
      </trkpt>
      <trkpt lat="31.063894" lon="-7.937182">
        <ele>3135.31874057813</ele>
        <time>2019-12-27T15:44:20.000Z</time>
      </trkpt>
      <trkpt lat="31.063824" lon="-7.93708">
        <ele>3139.51871591875</ele>
        <time>2019-12-27T15:44:24.000Z</time>
      </trkpt>
      <trkpt lat="31.063773" lon="-7.937166">
        <ele>3145.1584019875</ele>
        <time>2019-12-27T15:44:29.000Z</time>
      </trkpt>
      <trkpt lat="31.063786" lon="-7.937338">
        <ele>3149.758475475</ele>
        <time>2019-12-27T15:44:32.000Z</time>
      </trkpt>
      <trkpt lat="31.063869" lon="-7.937378">
        <ele>3154.67927448125</ele>
        <time>2019-12-27T15:44:36.000Z</time>
      </trkpt>
      <trkpt lat="31.06392" lon="-7.937465">
        <ele>3159</ele>
        <time>2019-12-27T15:44:56.000Z</time>
      </trkpt>
      <trkpt lat="31.063907" lon="-7.937489">
        <ele>3159.81984303438</ele>
        <time>2019-12-27T15:45:21.000Z</time>
      </trkpt>
      <trkpt lat="31.063859" lon="-7.9374">
        <ele>3159</ele>
        <time>2019-12-27T15:45:46.000Z</time>
      </trkpt>
      <trkpt lat="31.063904" lon="-7.937358">
        <ele>3159</ele>
        <time>2019-12-27T15:45:57.000Z</time>
      </trkpt>
      <trkpt lat="31.06392" lon="-7.937372">
        <ele>3159.39990234375</ele>
        <time>2019-12-27T15:46:03.000Z</time>
      </trkpt>
      <trkpt lat="31.06392" lon="-7.9374">
        <ele>3159.60009765625</ele>
        <time>2019-12-27T15:46:05.000Z</time>
      </trkpt>
      <trkpt lat="31.06393" lon="-7.93742">
        <ele>3160</ele>
        <time>2019-12-27T15:46:08.000Z</time>
      </trkpt>
      <trkpt lat="31.06384" lon="-7.937454">
        <ele>3162.81984303438</ele>
        <time>2019-12-27T15:46:25.000Z</time>
      </trkpt>
      <trkpt lat="31.063789" lon="-7.937465">
        <ele>3163.78025462188</ele>
        <time>2019-12-27T15:46:43.000Z</time>
      </trkpt>
      <trkpt lat="31.06408" lon="-7.937577">
        <ele>3142.31510565625</ele>
        <time>2019-12-28T05:06:03.313Z</time>
      </trkpt>
      <trkpt lat="31.064509" lon="-7.937945">
        <ele>3156.83485317187</ele>
        <time>2019-12-28T05:06:10.313Z</time>
      </trkpt>
      <trkpt lat="31.064378" lon="-7.93781">
        <ele>3161.12079362812</ele>
        <time>2019-12-28T05:06:11.313Z</time>
      </trkpt>
      <trkpt lat="31.06423" lon="-7.937749">
        <ele>3174.01168282812</ele>
        <time>2019-12-28T05:06:14.313Z</time>
      </trkpt>
      <trkpt lat="31.064154" lon="-7.937672">
        <ele>3175.5546356</ele>
        <time>2019-12-28T05:06:15.313Z</time>
      </trkpt>
      <trkpt lat="31.064266" lon="-7.937712">
        <ele>3181.36504362794</ele>
        <time>2019-12-28T05:06:17.313Z</time>
      </trkpt>
      <trkpt lat="31.064211" lon="-7.937628">
        <ele>3185.80004882813</ele>
        <time>2019-12-28T05:06:20.313Z</time>
      </trkpt>
      <trkpt lat="31.064109" lon="-7.937586">
        <ele>3187.35929845625</ele>
        <time>2019-12-28T05:06:23.000Z</time>
      </trkpt>
      <trkpt lat="31.064026" lon="-7.937638">
        <ele>3186.86385797187</ele>
        <time>2019-12-28T05:06:25.000Z</time>
      </trkpt>
      <trkpt lat="31.064141" lon="-7.93758">
        <ele>3195.53332725625</ele>
        <time>2019-12-28T05:06:29.000Z</time>
      </trkpt>
      <trkpt lat="31.064051" lon="-7.937525">
        <ele>3208.51592154375</ele>
        <time>2019-12-28T05:06:32.000Z</time>
      </trkpt>
      <trkpt lat="31.064109" lon="-7.937389">
        <ele>3225.71611685625</ele>
        <time>2019-12-28T05:06:37.000Z</time>
      </trkpt>
      <trkpt lat="31.064016" lon="-7.937412">
        <ele>3233.85225888437</ele>
        <time>2019-12-28T05:06:40.000Z</time>
      </trkpt>
      <trkpt lat="31.064131" lon="-7.937538">
        <ele>3238.04277447667</ele>
        <time>2019-12-28T05:06:42.000Z</time>
      </trkpt>
      <trkpt lat="31.064045" lon="-7.937472">
        <ele>3244.0290048</ele>
        <time>2019-12-28T05:06:46.000Z</time>
      </trkpt>
      <trkpt lat="31.064077" lon="-7.937575">
        <ele>3234.19995117188</ele>
        <time>2019-12-28T05:08:02.000Z</time>
      </trkpt>
      <trkpt lat="31.064016" lon="-7.93749">
        <ele>3232.38830325625</ele>
        <time>2019-12-28T05:08:19.000Z</time>
      </trkpt>
      <trkpt lat="31.063942" lon="-7.93761">
        <ele>3225.07813242813</ele>
        <time>2019-12-28T05:08:31.000Z</time>
      </trkpt>
      <trkpt lat="31.063978" lon="-7.93771">
        <ele>3157.96519565625</ele>
        <time>2019-12-28T05:08:51.000Z</time>
      </trkpt>
      <trkpt lat="31.06401" lon="-7.93781">
        <ele>3152</ele>
        <time>2019-12-28T05:09:12.000Z</time>
      </trkpt>
      <trkpt lat="31.06392" lon="-7.937818">
        <ele>3153.60009765625</ele>
        <time>2019-12-28T05:09:46.000Z</time>
      </trkpt>
      <trkpt lat="31.063901" lon="-7.937803">
        <ele>3154.6058972</ele>
        <time>2019-12-28T05:09:51.000Z</time>
      </trkpt>
      <trkpt lat="31.063894" lon="-7.937783">
        <ele>3155.19995117188</ele>
        <time>2019-12-28T05:09:54.000Z</time>
      </trkpt>
      <trkpt lat="31.063882" lon="-7.937766">
        <ele>3155.40570896875</ele>
        <time>2019-12-28T05:09:57.000Z</time>
      </trkpt>
      <trkpt lat="31.063869" lon="-7.93774">
        <ele>3155.80004882813</ele>
        <time>2019-12-28T05:10:01.000Z</time>
      </trkpt>
      <trkpt lat="31.063856" lon="-7.93772">
        <ele>3156.00579954375</ele>
        <time>2019-12-28T05:10:05.000Z</time>
      </trkpt>
      <trkpt lat="31.06384" lon="-7.937706">
        <ele>3156.39990234375</ele>
        <time>2019-12-28T05:10:09.000Z</time>
      </trkpt>
      <trkpt lat="31.063821" lon="-7.937702">
        <ele>3156.60009765625</ele>
        <time>2019-12-28T05:10:14.000Z</time>
      </trkpt>
      <trkpt lat="31.063798" lon="-7.937703">
        <ele>3156.80584837188</ele>
        <time>2019-12-28T05:10:19.000Z</time>
      </trkpt>
      <trkpt lat="31.063776" lon="-7.937708">
        <ele>3157.40570896875</ele>
        <time>2019-12-28T05:10:25.000Z</time>
      </trkpt>
      <trkpt lat="31.063754" lon="-7.937698">
        <ele>3158</ele>
        <time>2019-12-28T05:10:30.000Z</time>
      </trkpt>
      <trkpt lat="31.063734" lon="-7.937703">
        <ele>3158.39990234375</ele>
        <time>2019-12-28T05:10:35.000Z</time>
      </trkpt>
      <trkpt lat="31.063718" lon="-7.937722">
        <ele>3158.80584837188</ele>
        <time>2019-12-28T05:10:40.000Z</time>
      </trkpt>
      <trkpt lat="31.063699" lon="-7.937723">
        <ele>3159.39990234375</ele>
        <time>2019-12-28T05:10:45.000Z</time>
      </trkpt>
      <trkpt lat="31.063683" lon="-7.937737">
        <ele>3160.00579954375</ele>
        <time>2019-12-28T05:10:52.000Z</time>
      </trkpt>
      <trkpt lat="31.063667" lon="-7.93775">
        <ele>3160.60009765625</ele>
        <time>2019-12-28T05:10:57.000Z</time>
      </trkpt>
      <trkpt lat="31.063645" lon="-7.937745">
        <ele>3161</ele>
        <time>2019-12-28T05:11:01.000Z</time>
      </trkpt>
      <trkpt lat="31.063626" lon="-7.937743">
        <ele>3161.6058972</ele>
        <time>2019-12-28T05:11:07.000Z</time>
      </trkpt>
      <trkpt lat="31.063603" lon="-7.93775">
        <ele>3162</ele>
        <time>2019-12-28T05:11:11.000Z</time>
      </trkpt>
      <trkpt lat="31.063584" lon="-7.93775">
        <ele>3162.40570896875</ele>
        <time>2019-12-28T05:11:15.000Z</time>
      </trkpt>
      <trkpt lat="31.063562" lon="-7.937755">
        <ele>3162.80585416793</ele>
        <time>2019-12-28T05:11:19.000Z</time>
      </trkpt>
      <trkpt lat="31.063546" lon="-7.937774">
        <ele>3163.20575071563</ele>
        <time>2019-12-28T05:11:23.000Z</time>
      </trkpt>
      <trkpt lat="31.063533" lon="-7.937798">
        <ele>3163.6058972</ele>
        <time>2019-12-28T05:11:27.000Z</time>
      </trkpt>
      <trkpt lat="31.06353" lon="-7.93782">
        <ele>3164</ele>
        <time>2019-12-28T05:11:31.000Z</time>
      </trkpt>
      <trkpt lat="31.06353" lon="-7.937843">
        <ele>3164.39990234375</ele>
        <time>2019-12-28T05:11:36.000Z</time>
      </trkpt>
      <trkpt lat="31.063523" lon="-7.937863">
        <ele>3164.80004882813</ele>
        <time>2019-12-28T05:11:40.000Z</time>
      </trkpt>
      <trkpt lat="31.063504" lon="-7.937874">
        <ele>3165.40570896875</ele>
        <time>2019-12-28T05:11:46.000Z</time>
      </trkpt>
      <trkpt lat="31.063491" lon="-7.937858">
        <ele>3166.19995117188</ele>
        <time>2019-12-28T05:11:53.000Z</time>
      </trkpt>
      <trkpt lat="31.063472" lon="-7.937866">
        <ele>3166.60009765625</ele>
        <time>2019-12-28T05:11:57.000Z</time>
      </trkpt>
      <trkpt lat="31.063456" lon="-7.937877">
        <ele>3167.00579954375</ele>
        <time>2019-12-28T05:12:02.000Z</time>
      </trkpt>
      <trkpt lat="31.063434" lon="-7.93787">
        <ele>3167.80584837188</ele>
        <time>2019-12-28T05:12:07.000Z</time>
      </trkpt>
      <trkpt lat="31.063411" lon="-7.937862">
        <ele>3168.40570896875</ele>
        <time>2019-12-28T05:12:11.000Z</time>
      </trkpt>
      <trkpt lat="31.063392" lon="-7.93786">
        <ele>3168.80584837188</ele>
        <time>2019-12-28T05:12:16.000Z</time>
      </trkpt>
      <trkpt lat="31.063373" lon="-7.937858">
        <ele>3169.19995117188</ele>
        <time>2019-12-28T05:12:20.000Z</time>
      </trkpt>
      <trkpt lat="31.063354" lon="-7.937846">
        <ele>3169.40570896875</ele>
        <time>2019-12-28T05:12:24.000Z</time>
      </trkpt>
      <trkpt lat="31.063334" lon="-7.937846">
        <ele>3169.6058972</ele>
        <time>2019-12-28T05:12:28.000Z</time>
      </trkpt>
      <trkpt lat="31.063315" lon="-7.937838">
        <ele>3170</ele>
        <time>2019-12-28T05:12:32.000Z</time>
      </trkpt>
      <trkpt lat="31.063296" lon="-7.937832">
        <ele>3170.19995117188</ele>
        <time>2019-12-28T05:12:36.000Z</time>
      </trkpt>
      <trkpt lat="31.063274" lon="-7.937834">
        <ele>3170.60009765625</ele>
        <time>2019-12-28T05:12:40.000Z</time>
      </trkpt>
      <trkpt lat="31.063254" lon="-7.937837">
        <ele>3171.00579954375</ele>
        <time>2019-12-28T05:12:43.000Z</time>
      </trkpt>
      <trkpt lat="31.063235" lon="-7.93785">
        <ele>3171.60009765625</ele>
        <time>2019-12-28T05:12:47.000Z</time>
      </trkpt>
      <trkpt lat="31.063216" lon="-7.93785">
        <ele>3172.00579954375</ele>
        <time>2019-12-28T05:12:51.000Z</time>
      </trkpt>
      <trkpt lat="31.063197" lon="-7.937852">
        <ele>3172.40570896875</ele>
        <time>2019-12-28T05:12:55.000Z</time>
      </trkpt>
      <trkpt lat="31.063178" lon="-7.937863">
        <ele>3173.00579954375</ele>
        <time>2019-12-28T05:13:00.000Z</time>
      </trkpt>
      <trkpt lat="31.063162" lon="-7.93785">
        <ele>3173.40570896875</ele>
        <time>2019-12-28T05:13:04.000Z</time>
      </trkpt>
      <trkpt lat="31.063142" lon="-7.937846">
        <ele>3174.19995117188</ele>
        <time>2019-12-28T05:13:10.000Z</time>
      </trkpt>
      <trkpt lat="31.063123" lon="-7.937846">
        <ele>3175</ele>
        <time>2019-12-28T05:13:16.000Z</time>
      </trkpt>
      <trkpt lat="31.063104" lon="-7.937848">
        <ele>3175.20575071563</ele>
        <time>2019-12-28T05:13:19.000Z</time>
      </trkpt>
      <trkpt lat="31.063085" lon="-7.937854">
        <ele>3175.80004882813</ele>
        <time>2019-12-28T05:13:23.000Z</time>
      </trkpt>
      <trkpt lat="31.063066" lon="-7.93786">
        <ele>3176.00579954375</ele>
        <time>2019-12-28T05:13:26.000Z</time>
      </trkpt>
      <trkpt lat="31.063053" lon="-7.937842">
        <ele>3176.39990234375</ele>
        <time>2019-12-28T05:13:28.000Z</time>
      </trkpt>
      <trkpt lat="31.063034" lon="-7.937843">
        <ele>3176.60009765625</ele>
        <time>2019-12-28T05:13:30.000Z</time>
      </trkpt>
      <trkpt lat="31.063014" lon="-7.937842">
        <ele>3176.80584837188</ele>
        <time>2019-12-28T05:13:33.000Z</time>
      </trkpt>
      <trkpt lat="31.062995" lon="-7.937843">
        <ele>3177.19995117188</ele>
        <time>2019-12-28T05:13:36.000Z</time>
      </trkpt>
      <trkpt lat="31.062976" lon="-7.937852">
        <ele>3177.40570896875</ele>
        <time>2019-12-28T05:13:39.000Z</time>
      </trkpt>
      <trkpt lat="31.062957" lon="-7.937858">
        <ele>3177.80584837188</ele>
        <time>2019-12-28T05:13:42.000Z</time>
      </trkpt>
      <trkpt lat="31.062938" lon="-7.937854">
        <ele>3178.19995117188</ele>
        <time>2019-12-28T05:13:45.000Z</time>
      </trkpt>
      <trkpt lat="31.062918" lon="-7.93786">
        <ele>3178.6058972</ele>
        <time>2019-12-28T05:13:49.000Z</time>
      </trkpt>
      <trkpt lat="31.062896" lon="-7.93785">
        <ele>3179.00579954375</ele>
        <time>2019-12-28T05:13:53.000Z</time>
      </trkpt>
      <trkpt lat="31.06287" lon="-7.937854">
        <ele>3179.39990234375</ele>
        <time>2019-12-28T05:13:56.000Z</time>
      </trkpt>
      <trkpt lat="31.062851" lon="-7.937852">
        <ele>3179.80004882813</ele>
        <time>2019-12-28T05:14:00.000Z</time>
      </trkpt>
      <trkpt lat="31.062829" lon="-7.937842">
        <ele>3180.19995117188</ele>
        <time>2019-12-28T05:14:05.000Z</time>
      </trkpt>
      <trkpt lat="31.06281" lon="-7.937829">
        <ele>3180.39990234375</ele>
        <time>2019-12-28T05:14:08.000Z</time>
      </trkpt>
      <trkpt lat="31.06279" lon="-7.937826">
        <ele>3180.60009765625</ele>
        <time>2019-12-28T05:14:10.000Z</time>
      </trkpt>
      <trkpt lat="31.062771" lon="-7.937834">
        <ele>3180.80004882813</ele>
        <time>2019-12-28T05:14:13.000Z</time>
      </trkpt>
      <trkpt lat="31.062749" lon="-7.937837">
        <ele>3180.80584837188</ele>
        <time>2019-12-28T05:14:16.000Z</time>
      </trkpt>
      <trkpt lat="31.06273" lon="-7.93783">
        <ele>3181</ele>
        <time>2019-12-28T05:14:19.000Z</time>
      </trkpt>
      <trkpt lat="31.06271" lon="-7.937832">
        <ele>3181.20575071563</ele>
        <time>2019-12-28T05:14:23.000Z</time>
      </trkpt>
      <trkpt lat="31.062691" lon="-7.937823">
        <ele>3181.40570896875</ele>
        <time>2019-12-28T05:14:28.000Z</time>
      </trkpt>
      <trkpt lat="31.062666" lon="-7.93782">
        <ele>3181.60009765625</ele>
        <time>2019-12-28T05:14:32.000Z</time>
      </trkpt>
      <trkpt lat="31.06265" lon="-7.937802">
        <ele>3181.60009765625</ele>
        <time>2019-12-28T05:14:35.000Z</time>
      </trkpt>
      <trkpt lat="31.062637" lon="-7.937785">
        <ele>3181.80004882813</ele>
        <time>2019-12-28T05:14:38.000Z</time>
      </trkpt>
      <trkpt lat="31.06264" lon="-7.937762">
        <ele>3181.80004882813</ele>
        <time>2019-12-28T05:14:42.000Z</time>
      </trkpt>
      <trkpt lat="31.062637" lon="-7.937738">
        <ele>3181.80004882813</ele>
        <time>2019-12-28T05:14:45.000Z</time>
      </trkpt>
      <trkpt lat="31.062637" lon="-7.937713">
        <ele>3182</ele>
        <time>2019-12-28T05:14:48.000Z</time>
      </trkpt>
      <trkpt lat="31.062637" lon="-7.937683">
        <ele>3182</ele>
        <time>2019-12-28T05:14:51.000Z</time>
      </trkpt>
      <trkpt lat="31.06264" lon="-7.93766">
        <ele>3182</ele>
        <time>2019-12-28T05:14:54.000Z</time>
      </trkpt>
      <trkpt lat="31.062627" lon="-7.937623">
        <ele>3182.20575071563</ele>
        <time>2019-12-28T05:15:00.000Z</time>
      </trkpt>
      <trkpt lat="31.06264" lon="-7.937605">
        <ele>3183.39990234375</ele>
        <time>2019-12-28T05:15:21.000Z</time>
      </trkpt>
      <trkpt lat="31.062669" lon="-7.937607">
        <ele>3183.40570896875</ele>
        <time>2019-12-28T05:15:24.000Z</time>
      </trkpt>
      <trkpt lat="31.062672" lon="-7.937632">
        <ele>3184.19995117188</ele>
        <time>2019-12-28T05:16:00.000Z</time>
      </trkpt>
      <trkpt lat="31.062653" lon="-7.937627">
        <ele>3184.39990234375</ele>
        <time>2019-12-28T05:16:12.000Z</time>
      </trkpt>
      <trkpt lat="31.06263" lon="-7.937615">
        <ele>3184.60009765625</ele>
        <time>2019-12-28T05:16:21.000Z</time>
      </trkpt>
      <trkpt lat="31.062627" lon="-7.937594">
        <ele>3184.80004882813</ele>
        <time>2019-12-28T05:16:25.000Z</time>
      </trkpt>
      <trkpt lat="31.062614" lon="-7.937575">
        <ele>3185.19995117188</ele>
        <time>2019-12-28T05:16:31.000Z</time>
      </trkpt>
      <trkpt lat="31.062605" lon="-7.937546">
        <ele>3185.39990234375</ele>
        <time>2019-12-28T05:16:35.000Z</time>
      </trkpt>
      <trkpt lat="31.062602" lon="-7.937518">
        <ele>3185.6058972</ele>
        <time>2019-12-28T05:16:38.000Z</time>
      </trkpt>
      <trkpt lat="31.062598" lon="-7.93749">
        <ele>3186</ele>
        <time>2019-12-28T05:16:42.000Z</time>
      </trkpt>
      <trkpt lat="31.062602" lon="-7.937463">
        <ele>3186.39990234375</ele>
        <time>2019-12-28T05:16:47.000Z</time>
      </trkpt>
      <trkpt lat="31.062598" lon="-7.93744">
        <ele>3187</ele>
        <time>2019-12-28T05:16:54.000Z</time>
      </trkpt>
      <trkpt lat="31.062592" lon="-7.937415">
        <ele>3187.20575071563</ele>
        <time>2019-12-28T05:16:57.000Z</time>
      </trkpt>
      <trkpt lat="31.062589" lon="-7.93739">
        <ele>3187.6058972</ele>
        <time>2019-12-28T05:17:01.000Z</time>
      </trkpt>
      <trkpt lat="31.062579" lon="-7.937366">
        <ele>3188.19995117188</ele>
        <time>2019-12-28T05:17:08.000Z</time>
      </trkpt>
      <trkpt lat="31.06256" lon="-7.937352">
        <ele>3188.40570896875</ele>
        <time>2019-12-28T05:17:13.000Z</time>
      </trkpt>
      <trkpt lat="31.062547" lon="-7.937337">
        <ele>3189.19995117188</ele>
        <time>2019-12-28T05:17:22.000Z</time>
      </trkpt>
      <trkpt lat="31.062534" lon="-7.937318">
        <ele>3190.19995117188</ele>
        <time>2019-12-28T05:17:34.000Z</time>
      </trkpt>
      <trkpt lat="31.062512" lon="-7.937302">
        <ele>3190.6058972</ele>
        <time>2019-12-28T05:17:42.000Z</time>
      </trkpt>
      <trkpt lat="31.062496" lon="-7.937292">
        <ele>3191.00579954375</ele>
        <time>2019-12-28T05:17:50.000Z</time>
      </trkpt>
      <trkpt lat="31.06249" lon="-7.937267">
        <ele>3191.39990234375</ele>
        <time>2019-12-28T05:17:56.000Z</time>
      </trkpt>
      <trkpt lat="31.062477" lon="-7.937245">
        <ele>3191.39990234375</ele>
        <time>2019-12-28T05:17:58.000Z</time>
      </trkpt>
      <trkpt lat="31.062464" lon="-7.937225">
        <ele>3191.60009765625</ele>
        <time>2019-12-28T05:18:01.000Z</time>
      </trkpt>
      <trkpt lat="31.062445" lon="-7.937206">
        <ele>3191.80004882813</ele>
        <time>2019-12-28T05:18:04.000Z</time>
      </trkpt>
      <trkpt lat="31.062426" lon="-7.937186">
        <ele>3192.00579954375</ele>
        <time>2019-12-28T05:18:08.000Z</time>
      </trkpt>
      <trkpt lat="31.062403" lon="-7.937182">
        <ele>3192.39990234375</ele>
        <time>2019-12-28T05:18:12.000Z</time>
      </trkpt>
      <trkpt lat="31.062397" lon="-7.93716">
        <ele>3192.60009765625</ele>
        <time>2019-12-28T05:18:14.000Z</time>
      </trkpt>
      <trkpt lat="31.062381" lon="-7.937132">
        <ele>3192.80584837188</ele>
        <time>2019-12-28T05:18:18.000Z</time>
      </trkpt>
      <trkpt lat="31.062365" lon="-7.937118">
        <ele>3193.00579954375</ele>
        <time>2019-12-28T05:18:21.000Z</time>
      </trkpt>
      <trkpt lat="31.062349" lon="-7.937103">
        <ele>3193.39990234375</ele>
        <time>2019-12-28T05:18:24.000Z</time>
      </trkpt>
      <trkpt lat="31.062333" lon="-7.937077">
        <ele>3193.80584837188</ele>
        <time>2019-12-28T05:18:29.000Z</time>
      </trkpt>
      <trkpt lat="31.062314" lon="-7.937066">
        <ele>3194.19995117188</ele>
        <time>2019-12-28T05:18:32.000Z</time>
      </trkpt>
      <trkpt lat="31.062298" lon="-7.937055">
        <ele>3194.40570896875</ele>
        <time>2019-12-28T05:18:35.000Z</time>
      </trkpt>
      <trkpt lat="31.062275" lon="-7.93704">
        <ele>3194.80584837188</ele>
        <time>2019-12-28T05:18:39.000Z</time>
      </trkpt>
      <trkpt lat="31.062259" lon="-7.937026">
        <ele>3195.20575071563</ele>
        <time>2019-12-28T05:18:43.000Z</time>
      </trkpt>
      <trkpt lat="31.06224" lon="-7.937018">
        <ele>3195.80004882813</ele>
        <time>2019-12-28T05:18:48.000Z</time>
      </trkpt>
      <trkpt lat="31.062227" lon="-7.936995">
        <ele>3196.6058972</ele>
        <time>2019-12-28T05:18:55.000Z</time>
      </trkpt>
      <trkpt lat="31.062211" lon="-7.936985">
        <ele>3197.19995117188</ele>
        <time>2019-12-28T05:19:00.000Z</time>
      </trkpt>
      <trkpt lat="31.062192" lon="-7.936974">
        <ele>3198.00579954375</ele>
        <time>2019-12-28T05:19:08.000Z</time>
      </trkpt>
      <trkpt lat="31.062176" lon="-7.936963">
        <ele>3198.80584837188</ele>
        <time>2019-12-28T05:19:15.000Z</time>
      </trkpt>
      <trkpt lat="31.062154" lon="-7.936963">
        <ele>3199.60009765625</ele>
        <time>2019-12-28T05:19:21.000Z</time>
      </trkpt>
      <trkpt lat="31.062154" lon="-7.936942">
        <ele>3200.60009765625</ele>
        <time>2019-12-28T05:19:31.000Z</time>
      </trkpt>
      <trkpt lat="31.062144" lon="-7.93691">
        <ele>3201</ele>
        <time>2019-12-28T05:19:35.000Z</time>
      </trkpt>
      <trkpt lat="31.062134" lon="-7.936888">
        <ele>3201.20575071563</ele>
        <time>2019-12-28T05:19:38.000Z</time>
      </trkpt>
      <trkpt lat="31.062115" lon="-7.93688">
        <ele>3202.20575071563</ele>
        <time>2019-12-28T05:19:48.000Z</time>
      </trkpt>
      <trkpt lat="31.062099" lon="-7.936865">
        <ele>3202.80004882813</ele>
        <time>2019-12-28T05:19:52.000Z</time>
      </trkpt>
      <trkpt lat="31.06208" lon="-7.936858">
        <ele>3203.80584837188</ele>
        <time>2019-12-28T05:20:00.000Z</time>
      </trkpt>
      <trkpt lat="31.062061" lon="-7.93685">
        <ele>3204.6058972</ele>
        <time>2019-12-28T05:20:05.000Z</time>
      </trkpt>
      <trkpt lat="31.062045" lon="-7.93683">
        <ele>3205.6058972</ele>
        <time>2019-12-28T05:20:10.000Z</time>
      </trkpt>
      <trkpt lat="31.062035" lon="-7.936805">
        <ele>3207.4115085125</ele>
        <time>2019-12-28T05:20:16.000Z</time>
      </trkpt>
      <trkpt lat="31.062032" lon="-7.936783">
        <ele>3208.21155734062</ele>
        <time>2019-12-28T05:20:19.000Z</time>
      </trkpt>
      <trkpt lat="31.062022" lon="-7.936762">
        <ele>3209.20575071563</ele>
        <time>2019-12-28T05:20:22.000Z</time>
      </trkpt>
      <trkpt lat="31.062013" lon="-7.936738">
        <ele>3210.20575071563</ele>
        <time>2019-12-28T05:20:27.000Z</time>
      </trkpt>
      <trkpt lat="31.061997" lon="-7.936723">
        <ele>3211.00579954375</ele>
        <time>2019-12-28T05:20:31.000Z</time>
      </trkpt>
      <trkpt lat="31.061978" lon="-7.936729">
        <ele>3211.80584837188</ele>
        <time>2019-12-28T05:20:35.000Z</time>
      </trkpt>
      <trkpt lat="31.061952" lon="-7.936717">
        <ele>3212.40570896875</ele>
        <time>2019-12-28T05:20:39.000Z</time>
      </trkpt>
      <trkpt lat="31.061933" lon="-7.936709">
        <ele>3213.00579954375</ele>
        <time>2019-12-28T05:20:43.000Z</time>
      </trkpt>
      <trkpt lat="31.061914" lon="-7.936695">
        <ele>3214.0115990875</ele>
        <time>2019-12-28T05:20:47.000Z</time>
      </trkpt>
      <trkpt lat="31.061894" lon="-7.936686">
        <ele>3215.20575071563</ele>
        <time>2019-12-28T05:20:51.000Z</time>
      </trkpt>
      <trkpt lat="31.061875" lon="-7.93669">
        <ele>3216.20575071563</ele>
        <time>2019-12-28T05:20:55.000Z</time>
      </trkpt>
      <trkpt lat="31.061859" lon="-7.9367">
        <ele>3217.4115085125</ele>
        <time>2019-12-28T05:21:00.000Z</time>
      </trkpt>
      <trkpt lat="31.061843" lon="-7.93671">
        <ele>3218.80584837188</ele>
        <time>2019-12-28T05:21:05.000Z</time>
      </trkpt>
      <trkpt lat="31.061824" lon="-7.9367">
        <ele>3220.00579954375</ele>
        <time>2019-12-28T05:21:10.000Z</time>
      </trkpt>
      <trkpt lat="31.061805" lon="-7.936702">
        <ele>3221.00579954375</ele>
        <time>2019-12-28T05:21:15.000Z</time>
      </trkpt>
      <trkpt lat="31.061786" lon="-7.936715">
        <ele>3221.61169674375</ele>
        <time>2019-12-28T05:21:18.000Z</time>
      </trkpt>
      <trkpt lat="31.061766" lon="-7.936717">
        <ele>3222.20575071563</ele>
        <time>2019-12-28T05:21:21.000Z</time>
      </trkpt>
      <trkpt lat="31.061744" lon="-7.936717">
        <ele>3223.20575071563</ele>
        <time>2019-12-28T05:21:26.000Z</time>
      </trkpt>
      <trkpt lat="31.061722" lon="-7.936712">
        <ele>3224.00579954375</ele>
        <time>2019-12-28T05:21:30.000Z</time>
      </trkpt>
      <trkpt lat="31.061699" lon="-7.936706">
        <ele>3224.6058972</ele>
        <time>2019-12-28T05:21:34.000Z</time>
      </trkpt>
      <trkpt lat="31.061677" lon="-7.936715">
        <ele>3225.6058972</ele>
        <time>2019-12-28T05:21:39.000Z</time>
      </trkpt>
      <trkpt lat="31.061664" lon="-7.936734">
        <ele>3226.20575071563</ele>
        <time>2019-12-28T05:21:43.000Z</time>
      </trkpt>
      <trkpt lat="31.061645" lon="-7.936738">
        <ele>3226.80584837188</ele>
        <time>2019-12-28T05:21:47.000Z</time>
      </trkpt>
      <trkpt lat="31.061629" lon="-7.936749">
        <ele>3227.80004882813</ele>
        <time>2019-12-28T05:21:53.000Z</time>
      </trkpt>
      <trkpt lat="31.061606" lon="-7.936738">
        <ele>3228.20575071563</ele>
        <time>2019-12-28T05:21:57.000Z</time>
      </trkpt>
      <trkpt lat="31.061587" lon="-7.936732">
        <ele>3228.80584837188</ele>
        <time>2019-12-28T05:22:01.000Z</time>
      </trkpt>
      <trkpt lat="31.061568" lon="-7.936723">
        <ele>3229.39990234375</ele>
        <time>2019-12-28T05:22:05.000Z</time>
      </trkpt>
      <trkpt lat="31.061546" lon="-7.936714">
        <ele>3231.39990234375</ele>
        <time>2019-12-28T05:22:41.000Z</time>
      </trkpt>
      <trkpt lat="31.061533" lon="-7.936697">
        <ele>3231.60009765625</ele>
        <time>2019-12-28T05:22:44.000Z</time>
      </trkpt>
      <trkpt lat="31.06152" lon="-7.936673">
        <ele>3231.80584837188</ele>
        <time>2019-12-28T05:22:48.000Z</time>
      </trkpt>
      <trkpt lat="31.061514" lon="-7.93665">
        <ele>3232.20575071563</ele>
        <time>2019-12-28T05:22:51.000Z</time>
      </trkpt>
      <trkpt lat="31.061507" lon="-7.936625">
        <ele>3232.60009765625</ele>
        <time>2019-12-28T05:22:54.000Z</time>
      </trkpt>
      <trkpt lat="31.061504" lon="-7.9366">
        <ele>3233</ele>
        <time>2019-12-28T05:22:58.000Z</time>
      </trkpt>
      <trkpt lat="31.061504" lon="-7.936575">
        <ele>3233.39990234375</ele>
        <time>2019-12-28T05:23:02.000Z</time>
      </trkpt>
      <trkpt lat="31.061504" lon="-7.936548">
        <ele>3234</ele>
        <time>2019-12-28T05:23:07.000Z</time>
      </trkpt>
      <trkpt lat="31.06151" lon="-7.936523">
        <ele>3234.20575071563</ele>
        <time>2019-12-28T05:23:11.000Z</time>
      </trkpt>
      <trkpt lat="31.061504" lon="-7.936498">
        <ele>3234.80004882813</ele>
        <time>2019-12-28T05:23:16.000Z</time>
      </trkpt>
      <trkpt lat="31.061494" lon="-7.936477">
        <ele>3235.20575071563</ele>
        <time>2019-12-28T05:23:21.000Z</time>
      </trkpt>
      <trkpt lat="31.061488" lon="-7.936454">
        <ele>3235.80584837188</ele>
        <time>2019-12-28T05:23:27.000Z</time>
      </trkpt>
      <trkpt lat="31.061482" lon="-7.93643">
        <ele>3236.6058972</ele>
        <time>2019-12-28T05:23:33.000Z</time>
      </trkpt>
      <trkpt lat="31.061475" lon="-7.936409">
        <ele>3237.20575071563</ele>
        <time>2019-12-28T05:23:37.000Z</time>
      </trkpt>
      <trkpt lat="31.061462" lon="-7.936389">
        <ele>3238</ele>
        <time>2019-12-28T05:23:42.000Z</time>
      </trkpt>
      <trkpt lat="31.06145" lon="-7.936372">
        <ele>3238.80004882813</ele>
        <time>2019-12-28T05:23:47.000Z</time>
      </trkpt>
      <trkpt lat="31.061443" lon="-7.936352">
        <ele>3239.60009765625</ele>
        <time>2019-12-28T05:23:52.000Z</time>
      </trkpt>
      <trkpt lat="31.06143" lon="-7.936329">
        <ele>3240.80004882813</ele>
        <time>2019-12-28T05:23:59.000Z</time>
      </trkpt>
      <trkpt lat="31.061427" lon="-7.936308">
        <ele>3241.40570896875</ele>
        <time>2019-12-28T05:24:04.000Z</time>
      </trkpt>
      <trkpt lat="31.061424" lon="-7.936285">
        <ele>3242.20575651168</ele>
        <time>2019-12-28T05:24:09.000Z</time>
      </trkpt>
      <trkpt lat="31.061424" lon="-7.936262">
        <ele>3243</ele>
        <time>2019-12-28T05:24:14.000Z</time>
      </trkpt>
      <trkpt lat="31.061421" lon="-7.936238">
        <ele>3243.80584837188</ele>
        <time>2019-12-28T05:24:20.000Z</time>
      </trkpt>
      <trkpt lat="31.061421" lon="-7.936217">
        <ele>3244.40570896875</ele>
        <time>2019-12-28T05:24:25.000Z</time>
      </trkpt>
      <trkpt lat="31.061421" lon="-7.936195">
        <ele>3245.19995117188</ele>
        <time>2019-12-28T05:24:30.000Z</time>
      </trkpt>
      <trkpt lat="31.061418" lon="-7.936174">
        <ele>3245.80584837188</ele>
        <time>2019-12-28T05:24:36.000Z</time>
      </trkpt>
      <trkpt lat="31.061418" lon="-7.936151">
        <ele>3246.60009765625</ele>
        <time>2019-12-28T05:24:42.000Z</time>
      </trkpt>
      <trkpt lat="31.061418" lon="-7.936125">
        <ele>3247.20575071563</ele>
        <time>2019-12-28T05:24:48.000Z</time>
      </trkpt>
      <trkpt lat="31.061418" lon="-7.936103">
        <ele>3248.00579954375</ele>
        <time>2019-12-28T05:24:53.000Z</time>
      </trkpt>
      <trkpt lat="31.061418" lon="-7.936082">
        <ele>3248.6058972</ele>
        <time>2019-12-28T05:24:58.000Z</time>
      </trkpt>
      <trkpt lat="31.061421" lon="-7.93606">
        <ele>3249.40570896875</ele>
        <time>2019-12-28T05:25:04.000Z</time>
      </trkpt>
      <trkpt lat="31.061402" lon="-7.936052">
        <ele>3250.20575071563</ele>
        <time>2019-12-28T05:25:10.000Z</time>
      </trkpt>
      <trkpt lat="31.061398" lon="-7.936029">
        <ele>3251.6058972</ele>
        <time>2019-12-28T05:25:20.000Z</time>
      </trkpt>
      <trkpt lat="31.061405" lon="-7.936006">
        <ele>3252.20575071563</ele>
        <time>2019-12-28T05:25:26.000Z</time>
      </trkpt>
      <trkpt lat="31.061414" lon="-7.935985">
        <ele>3252.80004882813</ele>
        <time>2019-12-28T05:25:32.000Z</time>
      </trkpt>
      <trkpt lat="31.061421" lon="-7.935965">
        <ele>3253.20575071563</ele>
        <time>2019-12-28T05:25:37.000Z</time>
      </trkpt>
      <trkpt lat="31.06143" lon="-7.935945">
        <ele>3253.80004882813</ele>
        <time>2019-12-28T05:25:42.000Z</time>
      </trkpt>
      <trkpt lat="31.06144" lon="-7.935923">
        <ele>3254.81164791563</ele>
        <time>2019-12-28T05:25:48.000Z</time>
      </trkpt>
      <trkpt lat="31.06145" lon="-7.935905">
        <ele>3256.0115990875</ele>
        <time>2019-12-28T05:25:52.000Z</time>
      </trkpt>
      <trkpt lat="31.061462" lon="-7.935887">
        <ele>3257</ele>
        <time>2019-12-28T05:25:56.000Z</time>
      </trkpt>
      <trkpt lat="31.061475" lon="-7.935867">
        <ele>3257.60009765625</ele>
        <time>2019-12-28T05:26:01.000Z</time>
      </trkpt>
      <trkpt lat="31.061488" lon="-7.935848">
        <ele>3258</ele>
        <time>2019-12-28T05:26:05.000Z</time>
      </trkpt>
      <trkpt lat="31.061501" lon="-7.935826">
        <ele>3258.40570896875</ele>
        <time>2019-12-28T05:26:12.000Z</time>
      </trkpt>
      <trkpt lat="31.061514" lon="-7.93581">
        <ele>3258.80004882813</ele>
        <time>2019-12-28T05:26:16.000Z</time>
      </trkpt>
      <trkpt lat="31.061526" lon="-7.93579">
        <ele>3259.20575071563</ele>
        <time>2019-12-28T05:26:23.000Z</time>
      </trkpt>
      <trkpt lat="31.061536" lon="-7.935768">
        <ele>3259.80584837188</ele>
        <time>2019-12-28T05:26:29.000Z</time>
      </trkpt>
      <trkpt lat="31.061546" lon="-7.935748">
        <ele>3260.40570896875</ele>
        <time>2019-12-28T05:26:35.000Z</time>
      </trkpt>
      <trkpt lat="31.061558" lon="-7.935732">
        <ele>3261.20575071563</ele>
        <time>2019-12-28T05:26:40.000Z</time>
      </trkpt>
      <trkpt lat="31.061571" lon="-7.935714">
        <ele>3263.19995117188</ele>
        <time>2019-12-28T05:26:47.000Z</time>
      </trkpt>
      <trkpt lat="31.061584" lon="-7.935695">
        <ele>3264.40570896875</ele>
        <time>2019-12-28T05:26:54.000Z</time>
      </trkpt>
      <trkpt lat="31.06159" lon="-7.935675">
        <ele>3265.00579954375</ele>
        <time>2019-12-28T05:26:59.000Z</time>
      </trkpt>
      <trkpt lat="31.061597" lon="-7.935655">
        <ele>3266</ele>
        <time>2019-12-28T05:27:08.000Z</time>
      </trkpt>
      <trkpt lat="31.06161" lon="-7.935637">
        <ele>3266.20575071563</ele>
        <time>2019-12-28T05:27:12.000Z</time>
      </trkpt>
      <trkpt lat="31.061622" lon="-7.935618">
        <ele>3267.00579954375</ele>
        <time>2019-12-28T05:27:18.000Z</time>
      </trkpt>
      <trkpt lat="31.061629" lon="-7.935598">
        <ele>3267.6058972</ele>
        <time>2019-12-28T05:27:23.000Z</time>
      </trkpt>
      <trkpt lat="31.061638" lon="-7.935578">
        <ele>3268.40570896875</ele>
        <time>2019-12-28T05:27:28.000Z</time>
      </trkpt>
      <trkpt lat="31.061648" lon="-7.935558">
        <ele>3269.40570896875</ele>
        <time>2019-12-28T05:27:34.000Z</time>
      </trkpt>
      <trkpt lat="31.061658" lon="-7.935537">
        <ele>3270.20575071563</ele>
        <time>2019-12-28T05:27:40.000Z</time>
      </trkpt>
      <trkpt lat="31.061667" lon="-7.935517">
        <ele>3271.20575071563</ele>
        <time>2019-12-28T05:27:46.000Z</time>
      </trkpt>
      <trkpt lat="31.06168" lon="-7.935497">
        <ele>3272.00579954375</ele>
        <time>2019-12-28T05:27:52.000Z</time>
      </trkpt>
      <trkpt lat="31.061686" lon="-7.935474">
        <ele>3272.80584837188</ele>
        <time>2019-12-28T05:27:58.000Z</time>
      </trkpt>
      <trkpt lat="31.061696" lon="-7.935455">
        <ele>3273.60009765625</ele>
        <time>2019-12-28T05:28:03.000Z</time>
      </trkpt>
      <trkpt lat="31.061706" lon="-7.935437">
        <ele>3274.20595034687</ele>
        <time>2019-12-28T05:28:08.000Z</time>
      </trkpt>
      <trkpt lat="31.061722" lon="-7.93542">
        <ele>3275</ele>
        <time>2019-12-28T05:28:13.000Z</time>
      </trkpt>
      <trkpt lat="31.061734" lon="-7.935403">
        <ele>3275.40570896875</ele>
        <time>2019-12-28T05:28:17.000Z</time>
      </trkpt>
      <trkpt lat="31.061747" lon="-7.935383">
        <ele>3276.19995117188</ele>
        <time>2019-12-28T05:28:22.000Z</time>
      </trkpt>
      <trkpt lat="31.061763" lon="-7.935366">
        <ele>3276.6058972</ele>
        <time>2019-12-28T05:28:26.000Z</time>
      </trkpt>
      <trkpt lat="31.061779" lon="-7.935349">
        <ele>3277.20575071563</ele>
        <time>2019-12-28T05:28:30.000Z</time>
      </trkpt>
      <trkpt lat="31.061795" lon="-7.93533">
        <ele>3277.6058972</ele>
        <time>2019-12-28T05:28:34.000Z</time>
      </trkpt>
      <trkpt lat="31.061808" lon="-7.935309">
        <ele>3278.19995117188</ele>
        <time>2019-12-28T05:28:39.000Z</time>
      </trkpt>
      <trkpt lat="31.061821" lon="-7.935286">
        <ele>3278.60009765625</ele>
        <time>2019-12-28T05:28:44.000Z</time>
      </trkpt>
      <trkpt lat="31.06183" lon="-7.935266">
        <ele>3279.00579954375</ele>
        <time>2019-12-28T05:28:49.000Z</time>
      </trkpt>
      <trkpt lat="31.06184" lon="-7.935246">
        <ele>3279.39990234375</ele>
        <time>2019-12-28T05:28:53.000Z</time>
      </trkpt>
      <trkpt lat="31.06185" lon="-7.935226">
        <ele>3279.80584837188</ele>
        <time>2019-12-28T05:28:58.000Z</time>
      </trkpt>
      <trkpt lat="31.061859" lon="-7.935205">
        <ele>3280.60009765625</ele>
        <time>2019-12-28T05:29:07.000Z</time>
      </trkpt>
      <trkpt lat="31.06184" lon="-7.935192">
        <ele>3280.80584837188</ele>
        <time>2019-12-28T05:29:10.000Z</time>
      </trkpt>
      <trkpt lat="31.061818" lon="-7.935194">
        <ele>3281.20575071563</ele>
        <time>2019-12-28T05:29:13.000Z</time>
      </trkpt>
      <trkpt lat="31.061795" lon="-7.935202">
        <ele>3281.6058972</ele>
        <time>2019-12-28T05:29:17.000Z</time>
      </trkpt>
      <trkpt lat="31.061776" lon="-7.935208">
        <ele>3282.20575071563</ele>
        <time>2019-12-28T05:29:21.000Z</time>
      </trkpt>
      <trkpt lat="31.061757" lon="-7.935217">
        <ele>3282.80584837188</ele>
        <time>2019-12-28T05:29:26.000Z</time>
      </trkpt>
      <trkpt lat="31.061738" lon="-7.93522">
        <ele>3283.6058972</ele>
        <time>2019-12-28T05:29:31.000Z</time>
      </trkpt>
      <trkpt lat="31.061715" lon="-7.935226">
        <ele>3284.40570896875</ele>
        <time>2019-12-28T05:29:36.000Z</time>
      </trkpt>
      <trkpt lat="31.061696" lon="-7.935226">
        <ele>3285.40570896875</ele>
        <time>2019-12-28T05:29:43.000Z</time>
      </trkpt>
      <trkpt lat="31.061677" lon="-7.935225">
        <ele>3286.20575071563</ele>
        <time>2019-12-28T05:29:49.000Z</time>
      </trkpt>
      <trkpt lat="31.06169" lon="-7.935203">
        <ele>3287.40570896875</ele>
        <time>2019-12-28T05:29:58.000Z</time>
      </trkpt>
      <trkpt lat="31.061702" lon="-7.935187">
        <ele>3288.00579954375</ele>
        <time>2019-12-28T05:30:03.000Z</time>
      </trkpt>
      <trkpt lat="31.061715" lon="-7.935172">
        <ele>3288.40590884375</ele>
        <time>2019-12-28T05:30:07.000Z</time>
      </trkpt>
      <trkpt lat="31.061728" lon="-7.935157">
        <ele>3289</ele>
        <time>2019-12-28T05:30:13.000Z</time>
      </trkpt>
      <trkpt lat="31.061741" lon="-7.935138">
        <ele>3289.39990234375</ele>
        <time>2019-12-28T05:30:17.000Z</time>
      </trkpt>
      <trkpt lat="31.061754" lon="-7.935117">
        <ele>3289.80584837188</ele>
        <time>2019-12-28T05:30:22.000Z</time>
      </trkpt>
      <trkpt lat="31.061763" lon="-7.935095">
        <ele>3290.40570896875</ele>
        <time>2019-12-28T05:30:28.000Z</time>
      </trkpt>
      <trkpt lat="31.061773" lon="-7.935074">
        <ele>3291.19995117188</ele>
        <time>2019-12-28T05:30:34.000Z</time>
      </trkpt>
      <trkpt lat="31.061782" lon="-7.935054">
        <ele>3291.80584837188</ele>
        <time>2019-12-28T05:30:40.000Z</time>
      </trkpt>
      <trkpt lat="31.061795" lon="-7.935038">
        <ele>3292.40570896875</ele>
        <time>2019-12-28T05:30:45.000Z</time>
      </trkpt>
      <trkpt lat="31.061808" lon="-7.935023">
        <ele>3293</ele>
        <time>2019-12-28T05:30:49.000Z</time>
      </trkpt>
      <trkpt lat="31.061824" lon="-7.935009">
        <ele>3293.60009765625</ele>
        <time>2019-12-28T05:30:54.000Z</time>
      </trkpt>
      <trkpt lat="31.061843" lon="-7.934995">
        <ele>3294.19995117188</ele>
        <time>2019-12-28T05:30:59.000Z</time>
      </trkpt>
      <trkpt lat="31.061856" lon="-7.934977">
        <ele>3294.80584837188</ele>
        <time>2019-12-28T05:31:05.000Z</time>
      </trkpt>
      <trkpt lat="31.061866" lon="-7.934957">
        <ele>3295.6058972</ele>
        <time>2019-12-28T05:31:11.000Z</time>
      </trkpt>
      <trkpt lat="31.061872" lon="-7.934935">
        <ele>3296.80584837188</ele>
        <time>2019-12-28T05:31:22.000Z</time>
      </trkpt>
      <trkpt lat="31.061866" lon="-7.934915">
        <ele>3297.40570896875</ele>
        <time>2019-12-28T05:31:27.000Z</time>
      </trkpt>
      <trkpt lat="31.061866" lon="-7.934893">
        <ele>3298.39990234375</ele>
        <time>2019-12-28T05:31:34.000Z</time>
      </trkpt>
      <trkpt lat="31.061878" lon="-7.93487">
        <ele>3299.00579954375</ele>
        <time>2019-12-28T05:31:39.000Z</time>
      </trkpt>
      <trkpt lat="31.061885" lon="-7.934848">
        <ele>3299.80004882813</ele>
        <time>2019-12-28T05:31:44.000Z</time>
      </trkpt>
      <trkpt lat="31.061898" lon="-7.93483">
        <ele>3300.39990234375</ele>
        <time>2019-12-28T05:31:49.000Z</time>
      </trkpt>
      <trkpt lat="31.061914" lon="-7.934815">
        <ele>3300.80584837188</ele>
        <time>2019-12-28T05:31:53.000Z</time>
      </trkpt>
      <trkpt lat="31.061933" lon="-7.934798">
        <ele>3301.39990234375</ele>
        <time>2019-12-28T05:31:58.000Z</time>
      </trkpt>
      <trkpt lat="31.061952" lon="-7.934783">
        <ele>3301.80004882813</ele>
        <time>2019-12-28T05:32:02.000Z</time>
      </trkpt>
      <trkpt lat="31.061962" lon="-7.934765">
        <ele>3302.19995117188</ele>
        <time>2019-12-28T05:32:07.000Z</time>
      </trkpt>
      <trkpt lat="31.061971" lon="-7.934745">
        <ele>3302.60590299605</ele>
        <time>2019-12-28T05:32:12.000Z</time>
      </trkpt>
      <trkpt lat="31.061974" lon="-7.934723">
        <ele>3303.39990234375</ele>
        <time>2019-12-28T05:32:18.000Z</time>
      </trkpt>
      <trkpt lat="31.061968" lon="-7.934703">
        <ele>3303.80584837188</ele>
        <time>2019-12-28T05:32:22.000Z</time>
      </trkpt>
      <trkpt lat="31.061958" lon="-7.934683">
        <ele>3304.40570896875</ele>
        <time>2019-12-28T05:32:27.000Z</time>
      </trkpt>
      <trkpt lat="31.061965" lon="-7.93466">
        <ele>3305.80584837188</ele>
        <time>2019-12-28T05:32:36.000Z</time>
      </trkpt>
      <trkpt lat="31.061978" lon="-7.934643">
        <ele>3306.40570896875</ele>
        <time>2019-12-28T05:32:40.000Z</time>
      </trkpt>
      <trkpt lat="31.06199" lon="-7.934626">
        <ele>3306.80584837188</ele>
        <time>2019-12-28T05:32:43.000Z</time>
      </trkpt>
      <trkpt lat="31.061978" lon="-7.934606">
        <ele>3308.00579954375</ele>
        <time>2019-12-28T05:32:56.000Z</time>
      </trkpt>
      <trkpt lat="31.061962" lon="-7.934597">
        <ele>3308.6058972</ele>
        <time>2019-12-28T05:33:03.000Z</time>
      </trkpt>
      <trkpt lat="31.061946" lon="-7.934586">
        <ele>3309.20575071563</ele>
        <time>2019-12-28T05:33:10.000Z</time>
      </trkpt>
      <trkpt lat="31.061939" lon="-7.934565">
        <ele>3310.00579954375</ele>
        <time>2019-12-28T05:33:16.000Z</time>
      </trkpt>
      <trkpt lat="31.061926" lon="-7.93455">
        <ele>3311.40570896875</ele>
        <time>2019-12-28T05:33:25.000Z</time>
      </trkpt>
      <trkpt lat="31.061936" lon="-7.934528">
        <ele>3312.80004882813</ele>
        <time>2019-12-28T05:33:35.000Z</time>
      </trkpt>
      <trkpt lat="31.061933" lon="-7.934505">
        <ele>3313.40570896875</ele>
        <time>2019-12-28T05:33:40.000Z</time>
      </trkpt>
      <trkpt lat="31.061939" lon="-7.934485">
        <ele>3314.60009765625</ele>
        <time>2019-12-28T05:33:48.000Z</time>
      </trkpt>
      <trkpt lat="31.061926" lon="-7.934465">
        <ele>3316.00579954375</ele>
        <time>2019-12-28T05:34:02.000Z</time>
      </trkpt>
      <trkpt lat="31.061907" lon="-7.934462">
        <ele>3316.40570896875</ele>
        <time>2019-12-28T05:34:06.000Z</time>
      </trkpt>
      <trkpt lat="31.061894" lon="-7.934445">
        <ele>3317.19995117188</ele>
        <time>2019-12-28T05:34:19.000Z</time>
      </trkpt>
      <trkpt lat="31.061891" lon="-7.934423">
        <ele>3317.39990234375</ele>
        <time>2019-12-28T05:34:22.000Z</time>
      </trkpt>
      <trkpt lat="31.061898" lon="-7.934402">
        <ele>3317.80004882813</ele>
        <time>2019-12-28T05:34:30.000Z</time>
      </trkpt>
      <trkpt lat="31.061907" lon="-7.934378">
        <ele>3318.19995117188</ele>
        <time>2019-12-28T05:34:35.000Z</time>
      </trkpt>
      <trkpt lat="31.061923" lon="-7.934363">
        <ele>3318.60009765625</ele>
        <time>2019-12-28T05:34:41.000Z</time>
      </trkpt>
      <trkpt lat="31.061926" lon="-7.934338">
        <ele>3319.19995117188</ele>
        <time>2019-12-28T05:34:47.000Z</time>
      </trkpt>
      <trkpt lat="31.06193" lon="-7.934317">
        <ele>3319.6058972</ele>
        <time>2019-12-28T05:34:52.000Z</time>
      </trkpt>
      <trkpt lat="31.061939" lon="-7.934297">
        <ele>3320.39990234375</ele>
        <time>2019-12-28T05:34:58.000Z</time>
      </trkpt>
      <trkpt lat="31.061946" lon="-7.934275">
        <ele>3321.19995117188</ele>
        <time>2019-12-28T05:35:06.000Z</time>
      </trkpt>
      <trkpt lat="31.061962" lon="-7.934257">
        <ele>3321.6058972</ele>
        <time>2019-12-28T05:35:13.000Z</time>
      </trkpt>
      <trkpt lat="31.061968" lon="-7.934233">
        <ele>3322.19995117188</ele>
        <time>2019-12-28T05:35:18.000Z</time>
      </trkpt>
      <trkpt lat="31.061981" lon="-7.934212">
        <ele>3322.6058972</ele>
        <time>2019-12-28T05:35:22.000Z</time>
      </trkpt>
      <trkpt lat="31.06199" lon="-7.934192">
        <ele>3323.39990234375</ele>
        <time>2019-12-28T05:35:29.000Z</time>
      </trkpt>
      <trkpt lat="31.061994" lon="-7.934168">
        <ele>3323.80584837188</ele>
        <time>2019-12-28T05:35:33.000Z</time>
      </trkpt>
      <trkpt lat="31.062003" lon="-7.93415">
        <ele>3324.40570896875</ele>
        <time>2019-12-28T05:35:38.000Z</time>
      </trkpt>
      <trkpt lat="31.06199" lon="-7.934132">
        <ele>3325.20575071563</ele>
        <time>2019-12-28T05:35:44.000Z</time>
      </trkpt>
      <trkpt lat="31.061997" lon="-7.93411">
        <ele>3326.20575071563</ele>
        <time>2019-12-28T05:35:51.000Z</time>
      </trkpt>
      <trkpt lat="31.062013" lon="-7.934098">
        <ele>3327.00579954375</ele>
        <time>2019-12-28T05:35:56.000Z</time>
      </trkpt>
      <trkpt lat="31.062029" lon="-7.934082">
        <ele>3328.00579954375</ele>
        <time>2019-12-28T05:36:05.000Z</time>
      </trkpt>
      <trkpt lat="31.062016" lon="-7.934063">
        <ele>3328.6058972</ele>
        <time>2019-12-28T05:36:09.000Z</time>
      </trkpt>
      <trkpt lat="31.061997" lon="-7.934054">
        <ele>3329.20575071563</ele>
        <time>2019-12-28T05:36:14.000Z</time>
      </trkpt>
      <trkpt lat="31.062003" lon="-7.934031">
        <ele>3330.6058972</ele>
        <time>2019-12-28T05:36:24.000Z</time>
      </trkpt>
      <trkpt lat="31.062022" lon="-7.934017">
        <ele>3331.40570896875</ele>
        <time>2019-12-28T05:36:30.000Z</time>
      </trkpt>
      <trkpt lat="31.062038" lon="-7.934003">
        <ele>3332.00579954375</ele>
        <time>2019-12-28T05:36:34.000Z</time>
      </trkpt>
      <trkpt lat="31.062054" lon="-7.93399">
        <ele>3332.80584837188</ele>
        <time>2019-12-28T05:36:41.000Z</time>
      </trkpt>
      <trkpt lat="31.06207" lon="-7.933975">
        <ele>3333.60550624723</ele>
        <time>2019-12-28T05:36:47.000Z</time>
      </trkpt>
      <trkpt lat="31.062086" lon="-7.93396">
        <ele>3334.60009765625</ele>
        <time>2019-12-28T05:36:53.000Z</time>
      </trkpt>
      <trkpt lat="31.062102" lon="-7.933949">
        <ele>3335.60009765625</ele>
        <time>2019-12-28T05:37:01.000Z</time>
      </trkpt>
      <trkpt lat="31.062118" lon="-7.933934">
        <ele>3337</ele>
        <time>2019-12-28T05:37:13.000Z</time>
      </trkpt>
      <trkpt lat="31.062141" lon="-7.933935">
        <ele>3338.80004882813</ele>
        <time>2019-12-28T05:37:31.000Z</time>
      </trkpt>
      <trkpt lat="31.062157" lon="-7.933952">
        <ele>3339</ele>
        <time>2019-12-28T05:37:39.000Z</time>
      </trkpt>
      <trkpt lat="31.062176" lon="-7.93396">
        <ele>3339.19995117188</ele>
        <time>2019-12-28T05:37:43.000Z</time>
      </trkpt>
      <trkpt lat="31.062195" lon="-7.933957">
        <ele>3339.40570896875</ele>
        <time>2019-12-28T05:37:47.000Z</time>
      </trkpt>
      <trkpt lat="31.062195" lon="-7.933932">
        <ele>3339.80004882813</ele>
        <time>2019-12-28T05:37:53.000Z</time>
      </trkpt>
      <trkpt lat="31.062202" lon="-7.933909">
        <ele>3340.20575071563</ele>
        <time>2019-12-28T05:37:57.000Z</time>
      </trkpt>
      <trkpt lat="31.062221" lon="-7.933909">
        <ele>3341.39990234375</ele>
        <time>2019-12-28T05:38:09.000Z</time>
      </trkpt>
      <trkpt lat="31.062243" lon="-7.93392">
        <ele>3341.60009765625</ele>
        <time>2019-12-28T05:38:15.000Z</time>
      </trkpt>
      <trkpt lat="31.062266" lon="-7.933917">
        <ele>3341.60009765625</ele>
        <time>2019-12-28T05:38:23.000Z</time>
      </trkpt>
      <trkpt lat="31.062278" lon="-7.933902">
        <ele>3341.39990234375</ele>
        <time>2019-12-28T05:38:52.000Z</time>
      </trkpt>
      <trkpt lat="31.062282" lon="-7.933877">
        <ele>3341.80004882813</ele>
        <time>2019-12-28T05:39:08.000Z</time>
      </trkpt>
      <trkpt lat="31.062272" lon="-7.933858">
        <ele>3342.00579954375</ele>
        <time>2019-12-28T05:39:13.000Z</time>
      </trkpt>
      <trkpt lat="31.062278" lon="-7.933837">
        <ele>3342.80004882813</ele>
        <time>2019-12-28T05:39:20.000Z</time>
      </trkpt>
      <trkpt lat="31.062272" lon="-7.933817">
        <ele>3343.39990234375</ele>
        <time>2019-12-28T05:39:25.000Z</time>
      </trkpt>
      <trkpt lat="31.062285" lon="-7.9338">
        <ele>3344.60009765625</ele>
        <time>2019-12-28T05:39:33.000Z</time>
      </trkpt>
      <trkpt lat="31.062307" lon="-7.933793">
        <ele>3345.20575071563</ele>
        <time>2019-12-28T05:39:37.000Z</time>
      </trkpt>
      <trkpt lat="31.062314" lon="-7.933768">
        <ele>3346.40570896875</ele>
        <time>2019-12-28T05:39:44.000Z</time>
      </trkpt>
      <trkpt lat="31.06231" lon="-7.933747">
        <ele>3347.20575071563</ele>
        <time>2019-12-28T05:39:50.000Z</time>
      </trkpt>
      <trkpt lat="31.06233" lon="-7.933735">
        <ele>3348.19995117188</ele>
        <time>2019-12-28T05:39:57.000Z</time>
      </trkpt>
      <trkpt lat="31.062349" lon="-7.933726">
        <ele>3348.80584837188</ele>
        <time>2019-12-28T05:40:02.000Z</time>
      </trkpt>
      <trkpt lat="31.062352" lon="-7.933702">
        <ele>3349.80584837188</ele>
        <time>2019-12-28T05:40:10.000Z</time>
      </trkpt>
      <trkpt lat="31.062371" lon="-7.933694">
        <ele>3350.6058972</ele>
        <time>2019-12-28T05:40:16.000Z</time>
      </trkpt>
      <trkpt lat="31.062394" lon="-7.933686">
        <ele>3351.20575071563</ele>
        <time>2019-12-28T05:40:21.000Z</time>
      </trkpt>
      <trkpt lat="31.0624" lon="-7.933666">
        <ele>3351.60009765625</ele>
        <time>2019-12-28T05:40:24.000Z</time>
      </trkpt>
      <trkpt lat="31.062413" lon="-7.933648">
        <ele>3352.19995117188</ele>
        <time>2019-12-28T05:40:29.000Z</time>
      </trkpt>
      <trkpt lat="31.062432" lon="-7.933638">
        <ele>3352.6058972</ele>
        <time>2019-12-28T05:40:34.000Z</time>
      </trkpt>
      <trkpt lat="31.062448" lon="-7.933626">
        <ele>3353.00579954375</ele>
        <time>2019-12-28T05:40:38.000Z</time>
      </trkpt>
      <trkpt lat="31.062454" lon="-7.933602">
        <ele>3353.80584837188</ele>
        <time>2019-12-28T05:40:46.000Z</time>
      </trkpt>
      <trkpt lat="31.062474" lon="-7.933583">
        <ele>3354.20575071563</ele>
        <time>2019-12-28T05:40:51.000Z</time>
      </trkpt>
      <trkpt lat="31.062493" lon="-7.933577">
        <ele>3354.6058972</ele>
        <time>2019-12-28T05:40:55.000Z</time>
      </trkpt>
      <trkpt lat="31.062509" lon="-7.933563">
        <ele>3355</ele>
        <time>2019-12-28T05:40:58.000Z</time>
      </trkpt>
      <trkpt lat="31.062509" lon="-7.933537">
        <ele>3355.20575071563</ele>
        <time>2019-12-28T05:41:02.000Z</time>
      </trkpt>
      <trkpt lat="31.062515" lon="-7.933513">
        <ele>3355.6058972</ele>
        <time>2019-12-28T05:41:06.000Z</time>
      </trkpt>
      <trkpt lat="31.062531" lon="-7.933493">
        <ele>3356.19995117188</ele>
        <time>2019-12-28T05:41:10.000Z</time>
      </trkpt>
      <trkpt lat="31.062541" lon="-7.933468">
        <ele>3356.6058972</ele>
        <time>2019-12-28T05:41:14.000Z</time>
      </trkpt>
      <trkpt lat="31.062547" lon="-7.933445">
        <ele>3357.19995117188</ele>
        <time>2019-12-28T05:41:18.000Z</time>
      </trkpt>
      <trkpt lat="31.06255" lon="-7.933418">
        <ele>3357.80584837188</ele>
        <time>2019-12-28T05:41:23.000Z</time>
      </trkpt>
      <trkpt lat="31.062557" lon="-7.933398">
        <ele>3358.39990234375</ele>
        <time>2019-12-28T05:41:27.000Z</time>
      </trkpt>
      <trkpt lat="31.06257" lon="-7.933378">
        <ele>3359.00579954375</ele>
        <time>2019-12-28T05:41:32.000Z</time>
      </trkpt>
      <trkpt lat="31.062576" lon="-7.933358">
        <ele>3359.39990234375</ele>
        <time>2019-12-28T05:41:35.000Z</time>
      </trkpt>
      <trkpt lat="31.062582" lon="-7.933337">
        <ele>3360</ele>
        <time>2019-12-28T05:41:40.000Z</time>
      </trkpt>
      <trkpt lat="31.062592" lon="-7.933317">
        <ele>3360.40570896875</ele>
        <time>2019-12-28T05:41:44.000Z</time>
      </trkpt>
      <trkpt lat="31.062598" lon="-7.933291">
        <ele>3361.00579954375</ele>
        <time>2019-12-28T05:41:49.000Z</time>
      </trkpt>
      <trkpt lat="31.062608" lon="-7.933271">
        <ele>3361.6058972</ele>
        <time>2019-12-28T05:41:54.000Z</time>
      </trkpt>
      <trkpt lat="31.062627" lon="-7.93326">
        <ele>3362.00579954375</ele>
        <time>2019-12-28T05:41:58.000Z</time>
      </trkpt>
      <trkpt lat="31.062634" lon="-7.933235">
        <ele>3362.6058972</ele>
        <time>2019-12-28T05:42:04.000Z</time>
      </trkpt>
      <trkpt lat="31.062627" lon="-7.933209">
        <ele>3363.19995117188</ele>
        <time>2019-12-28T05:42:08.000Z</time>
      </trkpt>
      <trkpt lat="31.062621" lon="-7.933185">
        <ele>3363.6058972</ele>
        <time>2019-12-28T05:42:14.000Z</time>
      </trkpt>
      <trkpt lat="31.062608" lon="-7.93317">
        <ele>3364</ele>
        <time>2019-12-28T05:42:18.000Z</time>
      </trkpt>
      <trkpt lat="31.062627" lon="-7.933155">
        <ele>3364.39990234375</ele>
        <time>2019-12-28T05:42:26.000Z</time>
      </trkpt>
      <trkpt lat="31.06264" lon="-7.933135">
        <ele>3364.60009765625</ele>
        <time>2019-12-28T05:42:30.000Z</time>
      </trkpt>
      <trkpt lat="31.062627" lon="-7.933117">
        <ele>3364.80584837188</ele>
        <time>2019-12-28T05:42:35.000Z</time>
      </trkpt>
      <trkpt lat="31.06264" lon="-7.933097">
        <ele>3365.19995117188</ele>
        <time>2019-12-28T05:42:39.000Z</time>
      </trkpt>
      <trkpt lat="31.062637" lon="-7.933075">
        <ele>3365.40570896875</ele>
        <time>2019-12-28T05:42:43.000Z</time>
      </trkpt>
      <trkpt lat="31.06263" lon="-7.933054">
        <ele>3366.00579954375</ele>
        <time>2019-12-28T05:42:48.000Z</time>
      </trkpt>
      <trkpt lat="31.06264" lon="-7.933031">
        <ele>3366.80584837188</ele>
        <time>2019-12-28T05:42:53.000Z</time>
      </trkpt>
      <trkpt lat="31.062656" lon="-7.933017">
        <ele>3367.39990234375</ele>
        <time>2019-12-28T05:42:58.000Z</time>
      </trkpt>
      <trkpt lat="31.062669" lon="-7.933002">
        <ele>3367.80584837188</ele>
        <time>2019-12-28T05:43:02.000Z</time>
      </trkpt>
      <trkpt lat="31.062685" lon="-7.932985">
        <ele>3368.40570896875</ele>
        <time>2019-12-28T05:43:06.000Z</time>
      </trkpt>
      <trkpt lat="31.062688" lon="-7.932963">
        <ele>3369.19995117188</ele>
        <time>2019-12-28T05:43:13.000Z</time>
      </trkpt>
      <trkpt lat="31.062675" lon="-7.932946">
        <ele>3369.80004882813</ele>
        <time>2019-12-28T05:43:18.000Z</time>
      </trkpt>
      <trkpt lat="31.062691" lon="-7.93293">
        <ele>3370.19995117188</ele>
        <time>2019-12-28T05:43:22.000Z</time>
      </trkpt>
      <trkpt lat="31.06271" lon="-7.932918">
        <ele>3370.40570896875</ele>
        <time>2019-12-28T05:43:25.000Z</time>
      </trkpt>
      <trkpt lat="31.062726" lon="-7.932906">
        <ele>3370.80584837188</ele>
        <time>2019-12-28T05:43:28.000Z</time>
      </trkpt>
      <trkpt lat="31.062739" lon="-7.932889">
        <ele>3371.80004882813</ele>
        <time>2019-12-28T05:43:38.000Z</time>
      </trkpt>
      <trkpt lat="31.062746" lon="-7.932866">
        <ele>3372.19995117188</ele>
        <time>2019-12-28T05:43:42.000Z</time>
      </trkpt>
      <trkpt lat="31.062762" lon="-7.932852">
        <ele>3372.60009765625</ele>
        <time>2019-12-28T05:43:46.000Z</time>
      </trkpt>
      <trkpt lat="31.062771" lon="-7.932829">
        <ele>3373.20575071563</ele>
        <time>2019-12-28T05:43:50.000Z</time>
      </trkpt>
      <trkpt lat="31.062771" lon="-7.932803">
        <ele>3373.80584837188</ele>
        <time>2019-12-28T05:43:54.000Z</time>
      </trkpt>
      <trkpt lat="31.062781" lon="-7.932783">
        <ele>3374.20575071563</ele>
        <time>2019-12-28T05:43:57.000Z</time>
      </trkpt>
      <trkpt lat="31.062787" lon="-7.932762">
        <ele>3374.60609084765</ele>
        <time>2019-12-28T05:44:01.000Z</time>
      </trkpt>
      <trkpt lat="31.062797" lon="-7.932742">
        <ele>3375</ele>
        <time>2019-12-28T05:44:05.000Z</time>
      </trkpt>
      <trkpt lat="31.062797" lon="-7.93272">
        <ele>3375.40590285284</ele>
        <time>2019-12-28T05:44:10.000Z</time>
      </trkpt>
      <trkpt lat="31.062787" lon="-7.9327">
        <ele>3376.00579954375</ele>
        <time>2019-12-28T05:44:15.000Z</time>
      </trkpt>
      <trkpt lat="31.062771" lon="-7.932687">
        <ele>3376.80604800312</ele>
        <time>2019-12-28T05:44:20.000Z</time>
      </trkpt>
      <trkpt lat="31.062758" lon="-7.93267">
        <ele>3377.6058972</ele>
        <time>2019-12-28T05:44:28.000Z</time>
      </trkpt>
      <trkpt lat="31.062755" lon="-7.932648">
        <ele>3378.20575071563</ele>
        <time>2019-12-28T05:44:33.000Z</time>
      </trkpt>
      <trkpt lat="31.062749" lon="-7.932626">
        <ele>3379.00579954375</ele>
        <time>2019-12-28T05:44:39.000Z</time>
      </trkpt>
      <trkpt lat="31.062739" lon="-7.932606">
        <ele>3380</ele>
        <time>2019-12-28T05:44:45.000Z</time>
      </trkpt>
      <trkpt lat="31.06272" lon="-7.932603">
        <ele>3380.40570896875</ele>
        <time>2019-12-28T05:44:49.000Z</time>
      </trkpt>
      <trkpt lat="31.062701" lon="-7.932602">
        <ele>3381.00579954375</ele>
        <time>2019-12-28T05:44:54.000Z</time>
      </trkpt>
      <trkpt lat="31.062682" lon="-7.932608">
        <ele>3381.60009765625</ele>
        <time>2019-12-28T05:44:59.000Z</time>
      </trkpt>
      <trkpt lat="31.062659" lon="-7.932611">
        <ele>3382</ele>
        <time>2019-12-28T05:45:04.000Z</time>
      </trkpt>
      <trkpt lat="31.06264" lon="-7.932611">
        <ele>3382.40570896875</ele>
        <time>2019-12-28T05:45:09.000Z</time>
      </trkpt>
      <trkpt lat="31.062621" lon="-7.932611">
        <ele>3384</ele>
        <time>2019-12-28T05:45:31.000Z</time>
      </trkpt>
      <trkpt lat="31.062602" lon="-7.932615">
        <ele>3384.39990234375</ele>
        <time>2019-12-28T05:45:46.000Z</time>
      </trkpt>
      <trkpt lat="31.062582" lon="-7.93262">
        <ele>3384.60009765625</ele>
        <time>2019-12-28T05:45:51.000Z</time>
      </trkpt>
      <trkpt lat="31.06256" lon="-7.932622">
        <ele>3384.80004882813</ele>
        <time>2019-12-28T05:45:56.000Z</time>
      </trkpt>
      <trkpt lat="31.062541" lon="-7.932611">
        <ele>3385.19995117188</ele>
        <time>2019-12-28T05:46:03.000Z</time>
      </trkpt>
      <trkpt lat="31.062544" lon="-7.932585">
        <ele>3385.60009765625</ele>
        <time>2019-12-28T05:46:09.000Z</time>
      </trkpt>
      <trkpt lat="31.062534" lon="-7.932565">
        <ele>3386.00579954375</ele>
        <time>2019-12-28T05:46:14.000Z</time>
      </trkpt>
      <trkpt lat="31.062541" lon="-7.932543">
        <ele>3386.40570896875</ele>
        <time>2019-12-28T05:46:18.000Z</time>
      </trkpt>
      <trkpt lat="31.062544" lon="-7.932518">
        <ele>3386.80584837188</ele>
        <time>2019-12-28T05:46:22.000Z</time>
      </trkpt>
      <trkpt lat="31.062534" lon="-7.9325">
        <ele>3387.20575071563</ele>
        <time>2019-12-28T05:46:26.000Z</time>
      </trkpt>
      <trkpt lat="31.062518" lon="-7.93249">
        <ele>3387.6058972</ele>
        <time>2019-12-28T05:46:30.000Z</time>
      </trkpt>
      <trkpt lat="31.062493" lon="-7.932485">
        <ele>3388.20575071563</ele>
        <time>2019-12-28T05:46:35.000Z</time>
      </trkpt>
      <trkpt lat="31.062474" lon="-7.932485">
        <ele>3388.80585416793</ele>
        <time>2019-12-28T05:46:39.000Z</time>
      </trkpt>
      <trkpt lat="31.062454" lon="-7.932489">
        <ele>3389.20575071563</ele>
        <time>2019-12-28T05:46:42.000Z</time>
      </trkpt>
      <trkpt lat="31.062435" lon="-7.932494">
        <ele>3389.80584837188</ele>
        <time>2019-12-28T05:46:46.000Z</time>
      </trkpt>
      <trkpt lat="31.062413" lon="-7.93249">
        <ele>3390.40570896875</ele>
        <time>2019-12-28T05:46:51.000Z</time>
      </trkpt>
      <trkpt lat="31.062394" lon="-7.93248">
        <ele>3391.20594436327</ele>
        <time>2019-12-28T05:46:56.000Z</time>
      </trkpt>
      <trkpt lat="31.062374" lon="-7.932482">
        <ele>3392</ele>
        <time>2019-12-28T05:47:01.000Z</time>
      </trkpt>
      <trkpt lat="31.062374" lon="-7.932458">
        <ele>3393.40570896875</ele>
        <time>2019-12-28T05:47:11.000Z</time>
      </trkpt>
      <trkpt lat="31.062381" lon="-7.932438">
        <ele>3394.40570896875</ele>
        <time>2019-12-28T05:47:19.000Z</time>
      </trkpt>
      <trkpt lat="31.062394" lon="-7.932423">
        <ele>3395</ele>
        <time>2019-12-28T05:47:24.000Z</time>
      </trkpt>
      <trkpt lat="31.062394" lon="-7.932402">
        <ele>3395.80004882813</ele>
        <time>2019-12-28T05:47:30.000Z</time>
      </trkpt>
      <trkpt lat="31.062374" lon="-7.932395">
        <ele>3396.20575071563</ele>
        <time>2019-12-28T05:47:35.000Z</time>
      </trkpt>
      <trkpt lat="31.062349" lon="-7.932392">
        <ele>3396.6058972</ele>
        <time>2019-12-28T05:47:39.000Z</time>
      </trkpt>
      <trkpt lat="31.06233" lon="-7.93239">
        <ele>3397.00579954375</ele>
        <time>2019-12-28T05:47:43.000Z</time>
      </trkpt>
      <trkpt lat="31.06231" lon="-7.932392">
        <ele>3397.39990234375</ele>
        <time>2019-12-28T05:47:46.000Z</time>
      </trkpt>
      <trkpt lat="31.062291" lon="-7.93239">
        <ele>3397.80004882813</ele>
        <time>2019-12-28T05:47:51.000Z</time>
      </trkpt>
      <trkpt lat="31.062272" lon="-7.932388">
        <ele>3398.00579954375</ele>
        <time>2019-12-28T05:47:55.000Z</time>
      </trkpt>
      <trkpt lat="31.062237" lon="-7.932383">
        <ele>3400.0115990875</ele>
        <time>2019-12-28T05:48:09.000Z</time>
      </trkpt>
      <trkpt lat="31.062221" lon="-7.932374">
        <ele>3401.60009765625</ele>
        <time>2019-12-28T05:48:14.000Z</time>
      </trkpt>
      <trkpt lat="31.062202" lon="-7.932365">
        <ele>3402.19995117188</ele>
        <time>2019-12-28T05:48:19.000Z</time>
      </trkpt>
      <trkpt lat="31.062182" lon="-7.93236">
        <ele>3402.80004882813</ele>
        <time>2019-12-28T05:48:25.000Z</time>
      </trkpt>
      <trkpt lat="31.062163" lon="-7.932365">
        <ele>3403.40570896875</ele>
        <time>2019-12-28T05:48:33.000Z</time>
      </trkpt>
      <trkpt lat="31.062144" lon="-7.932365">
        <ele>3403.6058972</ele>
        <time>2019-12-28T05:48:37.000Z</time>
      </trkpt>
      <trkpt lat="31.062125" lon="-7.932363">
        <ele>3404</ele>
        <time>2019-12-28T05:48:41.000Z</time>
      </trkpt>
      <trkpt lat="31.062106" lon="-7.932368">
        <ele>3404.40570896875</ele>
        <time>2019-12-28T05:48:45.000Z</time>
      </trkpt>
      <trkpt lat="31.062086" lon="-7.932378">
        <ele>3404.80584837188</ele>
        <time>2019-12-28T05:48:48.000Z</time>
      </trkpt>
      <trkpt lat="31.062064" lon="-7.932388">
        <ele>3405.40570896875</ele>
        <time>2019-12-28T05:48:52.000Z</time>
      </trkpt>
      <trkpt lat="31.062048" lon="-7.932402">
        <ele>3406.00579954375</ele>
        <time>2019-12-28T05:48:56.000Z</time>
      </trkpt>
      <trkpt lat="31.062032" lon="-7.932417">
        <ele>3406.6058972</ele>
        <time>2019-12-28T05:49:01.000Z</time>
      </trkpt>
      <trkpt lat="31.062013" lon="-7.932413">
        <ele>3407.40570896875</ele>
        <time>2019-12-28T05:49:06.000Z</time>
      </trkpt>
      <trkpt lat="31.061997" lon="-7.9324">
        <ele>3408.20575651168</ele>
        <time>2019-12-28T05:49:12.000Z</time>
      </trkpt>
      <trkpt lat="31.06199" lon="-7.93238">
        <ele>3409.0059931914</ele>
        <time>2019-12-28T05:49:18.000Z</time>
      </trkpt>
      <trkpt lat="31.061971" lon="-7.932385">
        <ele>3409.40570896875</ele>
        <time>2019-12-28T05:49:22.000Z</time>
      </trkpt>
      <trkpt lat="31.061952" lon="-7.932383">
        <ele>3409.80004882813</ele>
        <time>2019-12-28T05:49:26.000Z</time>
      </trkpt>
      <trkpt lat="31.061933" lon="-7.932385">
        <ele>3410.19995117188</ele>
        <time>2019-12-28T05:49:29.000Z</time>
      </trkpt>
      <trkpt lat="31.06191" lon="-7.932397">
        <ele>3410.60009765625</ele>
        <time>2019-12-28T05:49:34.000Z</time>
      </trkpt>
      <trkpt lat="31.061891" lon="-7.932398">
        <ele>3411</ele>
        <time>2019-12-28T05:49:38.000Z</time>
      </trkpt>
      <trkpt lat="31.061872" lon="-7.932393">
        <ele>3411.39990234375</ele>
        <time>2019-12-28T05:49:43.000Z</time>
      </trkpt>
      <trkpt lat="31.061853" lon="-7.93239">
        <ele>3411.80584837188</ele>
        <time>2019-12-28T05:49:48.000Z</time>
      </trkpt>
      <trkpt lat="31.061834" lon="-7.932395">
        <ele>3412.39990234375</ele>
        <time>2019-12-28T05:49:53.000Z</time>
      </trkpt>
      <trkpt lat="31.061814" lon="-7.932402">
        <ele>3412.80584837188</ele>
        <time>2019-12-28T05:49:58.000Z</time>
      </trkpt>
      <trkpt lat="31.061795" lon="-7.932405">
        <ele>3413.20575071563</ele>
        <time>2019-12-28T05:50:02.000Z</time>
      </trkpt>
      <trkpt lat="31.061776" lon="-7.932402">
        <ele>3413.80584837188</ele>
        <time>2019-12-28T05:50:07.000Z</time>
      </trkpt>
      <trkpt lat="31.061757" lon="-7.932397">
        <ele>3414.60009765625</ele>
        <time>2019-12-28T05:50:13.000Z</time>
      </trkpt>
      <trkpt lat="31.061738" lon="-7.932393">
        <ele>3415.80004882813</ele>
        <time>2019-12-28T05:50:22.000Z</time>
      </trkpt>
      <trkpt lat="31.061728" lon="-7.932374">
        <ele>3417.00579954375</ele>
        <time>2019-12-28T05:50:31.000Z</time>
      </trkpt>
      <trkpt lat="31.061718" lon="-7.932351">
        <ele>3418.19995117188</ele>
        <time>2019-12-28T05:50:39.000Z</time>
      </trkpt>
      <trkpt lat="31.061699" lon="-7.93235">
        <ele>3419.00579954375</ele>
        <time>2019-12-28T05:50:45.000Z</time>
      </trkpt>
      <trkpt lat="31.061683" lon="-7.932337">
        <ele>3419.80584837188</ele>
        <time>2019-12-28T05:50:51.000Z</time>
      </trkpt>
      <trkpt lat="31.061664" lon="-7.932342">
        <ele>3420.80004882813</ele>
        <time>2019-12-28T05:50:56.000Z</time>
      </trkpt>
      <trkpt lat="31.061645" lon="-7.93234">
        <ele>3421.80584837188</ele>
        <time>2019-12-28T05:51:03.000Z</time>
      </trkpt>
      <trkpt lat="31.061629" lon="-7.93233">
        <ele>3423.20575071563</ele>
        <time>2019-12-28T05:51:13.000Z</time>
      </trkpt>
      <trkpt lat="31.06161" lon="-7.932325">
        <ele>3423.80584837188</ele>
        <time>2019-12-28T05:51:18.000Z</time>
      </trkpt>
      <trkpt lat="31.061613" lon="-7.9323">
        <ele>3425.19995117188</ele>
        <time>2019-12-28T05:51:33.000Z</time>
      </trkpt>
      <trkpt lat="31.061613" lon="-7.932275">
        <ele>3425.80584837188</ele>
        <time>2019-12-28T05:51:40.000Z</time>
      </trkpt>
      <trkpt lat="31.061613" lon="-7.932254">
        <ele>3426.80584837188</ele>
        <time>2019-12-28T05:51:47.000Z</time>
      </trkpt>
      <trkpt lat="31.061616" lon="-7.93223">
        <ele>3427.60009765625</ele>
        <time>2019-12-28T05:51:53.000Z</time>
      </trkpt>
      <trkpt lat="31.061616" lon="-7.932206">
        <ele>3428.20575071563</ele>
        <time>2019-12-28T05:51:59.000Z</time>
      </trkpt>
      <trkpt lat="31.061616" lon="-7.932185">
        <ele>3429.0058053398</ele>
        <time>2019-12-28T05:52:06.000Z</time>
      </trkpt>
      <trkpt lat="31.061616" lon="-7.932163">
        <ele>3430.39990234375</ele>
        <time>2019-12-28T05:52:30.000Z</time>
      </trkpt>
      <trkpt lat="31.061619" lon="-7.932138">
        <ele>3430.80584837188</ele>
        <time>2019-12-28T05:52:47.000Z</time>
      </trkpt>
      <trkpt lat="31.061626" lon="-7.932117">
        <ele>3431.80004882813</ele>
        <time>2019-12-28T05:53:03.000Z</time>
      </trkpt>
      <trkpt lat="31.061638" lon="-7.932102">
        <ele>3432.19995117188</ele>
        <time>2019-12-28T05:53:07.000Z</time>
      </trkpt>
      <trkpt lat="31.061654" lon="-7.932088">
        <ele>3432.60009765625</ele>
        <time>2019-12-28T05:53:11.000Z</time>
      </trkpt>
      <trkpt lat="31.061667" lon="-7.932068">
        <ele>3433.20575071563</ele>
        <time>2019-12-28T05:53:18.000Z</time>
      </trkpt>
      <trkpt lat="31.061674" lon="-7.932048">
        <ele>3434.00579954375</ele>
        <time>2019-12-28T05:53:23.000Z</time>
      </trkpt>
      <trkpt lat="31.061686" lon="-7.93203">
        <ele>3435</ele>
        <time>2019-12-28T05:53:29.000Z</time>
      </trkpt>
      <trkpt lat="31.061686" lon="-7.932008">
        <ele>3435.80004882813</ele>
        <time>2019-12-28T05:53:36.000Z</time>
      </trkpt>
      <trkpt lat="31.061699" lon="-7.931985">
        <ele>3436.39990234375</ele>
        <time>2019-12-28T05:53:42.000Z</time>
      </trkpt>
      <trkpt lat="31.061715" lon="-7.931975">
        <ele>3436.80004882813</ele>
        <time>2019-12-28T05:53:47.000Z</time>
      </trkpt>
      <trkpt lat="31.061734" lon="-7.93197">
        <ele>3437.20575071563</ele>
        <time>2019-12-28T05:53:53.000Z</time>
      </trkpt>
      <trkpt lat="31.06175" lon="-7.931954">
        <ele>3437.80004882813</ele>
        <time>2019-12-28T05:53:59.000Z</time>
      </trkpt>
      <trkpt lat="31.061744" lon="-7.931925">
        <ele>3438.40570896875</ele>
        <time>2019-12-28T05:54:09.000Z</time>
      </trkpt>
      <trkpt lat="31.061728" lon="-7.931905">
        <ele>3439</ele>
        <time>2019-12-28T05:54:15.000Z</time>
      </trkpt>
      <trkpt lat="31.061738" lon="-7.931883">
        <ele>3440</ele>
        <time>2019-12-28T05:54:25.000Z</time>
      </trkpt>
      <trkpt lat="31.061734" lon="-7.931862">
        <ele>3441.00579954375</ele>
        <time>2019-12-28T05:54:36.000Z</time>
      </trkpt>
      <trkpt lat="31.061738" lon="-7.931838">
        <ele>3441.6058972</ele>
        <time>2019-12-28T05:54:41.000Z</time>
      </trkpt>
      <trkpt lat="31.061744" lon="-7.931818">
        <ele>3442.80004882813</ele>
        <time>2019-12-28T05:54:49.000Z</time>
      </trkpt>
      <trkpt lat="31.061734" lon="-7.931798">
        <ele>3443.40570896875</ele>
        <time>2019-12-28T05:54:55.000Z</time>
      </trkpt>
      <trkpt lat="31.061728" lon="-7.931778">
        <ele>3444.39990234375</ele>
        <time>2019-12-28T05:55:01.000Z</time>
      </trkpt>
      <trkpt lat="31.061728" lon="-7.931755">
        <ele>3445.39990234375</ele>
        <time>2019-12-28T05:55:09.000Z</time>
      </trkpt>
      <trkpt lat="31.061747" lon="-7.931745">
        <ele>3447.00579954375</ele>
        <time>2019-12-28T05:55:29.000Z</time>
      </trkpt>
      <trkpt lat="31.061757" lon="-7.931725">
        <ele>3447.39990234375</ele>
        <time>2019-12-28T05:55:35.000Z</time>
      </trkpt>
      <trkpt lat="31.061763" lon="-7.931705">
        <ele>3447.80584837188</ele>
        <time>2019-12-28T05:55:41.000Z</time>
      </trkpt>
      <trkpt lat="31.061766" lon="-7.931683">
        <ele>3448.39990234375</ele>
        <time>2019-12-28T05:55:47.000Z</time>
      </trkpt>
      <trkpt lat="31.061782" lon="-7.931663">
        <ele>3449.00579954375</ele>
        <time>2019-12-28T05:55:53.000Z</time>
      </trkpt>
      <trkpt lat="31.061773" lon="-7.931642">
        <ele>3450.20575071563</ele>
        <time>2019-12-28T05:56:08.000Z</time>
      </trkpt>
      <trkpt lat="31.06176" lon="-7.931625">
        <ele>3450.6058972</ele>
        <time>2019-12-28T05:56:12.000Z</time>
      </trkpt>
      <trkpt lat="31.061757" lon="-7.931603">
        <ele>3451.6058972</ele>
        <time>2019-12-28T05:56:21.000Z</time>
      </trkpt>
      <trkpt lat="31.061757" lon="-7.931578">
        <ele>3452.39990234375</ele>
        <time>2019-12-28T05:56:27.000Z</time>
      </trkpt>
      <trkpt lat="31.061744" lon="-7.931558">
        <ele>3453.39990234375</ele>
        <time>2019-12-28T05:56:34.000Z</time>
      </trkpt>
      <trkpt lat="31.061738" lon="-7.931534">
        <ele>3454.60009765625</ele>
        <time>2019-12-28T05:56:43.000Z</time>
      </trkpt>
      <trkpt lat="31.061718" lon="-7.93152">
        <ele>3455.20575071563</ele>
        <time>2019-12-28T05:56:49.000Z</time>
      </trkpt>
      <trkpt lat="31.061702" lon="-7.931502">
        <ele>3456</ele>
        <time>2019-12-28T05:56:55.000Z</time>
      </trkpt>
      <trkpt lat="31.061693" lon="-7.931483">
        <ele>3456.80004882813</ele>
        <time>2019-12-28T05:57:01.000Z</time>
      </trkpt>
      <trkpt lat="31.061677" lon="-7.931469">
        <ele>3457.40570896875</ele>
        <time>2019-12-28T05:57:06.000Z</time>
      </trkpt>
      <trkpt lat="31.06169" lon="-7.931452">
        <ele>3458.60009765625</ele>
        <time>2019-12-28T05:57:15.000Z</time>
      </trkpt>
      <trkpt lat="31.061702" lon="-7.931435">
        <ele>3459</ele>
        <time>2019-12-28T05:57:19.000Z</time>
      </trkpt>
      <trkpt lat="31.061715" lon="-7.93142">
        <ele>3459.6058972</ele>
        <time>2019-12-28T05:57:26.000Z</time>
      </trkpt>
      <trkpt lat="31.061709" lon="-7.9314">
        <ele>3460.19995117188</ele>
        <time>2019-12-28T05:57:32.000Z</time>
      </trkpt>
      <trkpt lat="31.061702" lon="-7.93138">
        <ele>3461.19995117188</ele>
        <time>2019-12-28T05:57:43.000Z</time>
      </trkpt>
      <trkpt lat="31.06169" lon="-7.931365">
        <ele>3461.80004882813</ele>
        <time>2019-12-28T05:57:49.000Z</time>
      </trkpt>
      <trkpt lat="31.06169" lon="-7.931343">
        <ele>3463</ele>
        <time>2019-12-28T05:58:02.000Z</time>
      </trkpt>
      <trkpt lat="31.061702" lon="-7.931325">
        <ele>3463.6058972</ele>
        <time>2019-12-28T05:58:08.000Z</time>
      </trkpt>
      <trkpt lat="31.061693" lon="-7.931305">
        <ele>3464.19995117188</ele>
        <time>2019-12-28T05:58:13.000Z</time>
      </trkpt>
      <trkpt lat="31.061712" lon="-7.931295">
        <ele>3464.80584837188</ele>
        <time>2019-12-28T05:58:21.000Z</time>
      </trkpt>
      <trkpt lat="31.061702" lon="-7.931277">
        <ele>3465.20575071563</ele>
        <time>2019-12-28T05:58:25.000Z</time>
      </trkpt>
      <trkpt lat="31.061702" lon="-7.931251">
        <ele>3466</ele>
        <time>2019-12-28T05:58:32.000Z</time>
      </trkpt>
      <trkpt lat="31.061699" lon="-7.93123">
        <ele>3467.00579954375</ele>
        <time>2019-12-28T05:58:41.000Z</time>
      </trkpt>
      <trkpt lat="31.061709" lon="-7.93121">
        <ele>3468.20575071563</ele>
        <time>2019-12-28T05:58:52.000Z</time>
      </trkpt>
      <trkpt lat="31.061718" lon="-7.93119">
        <ele>3469.19995117188</ele>
        <time>2019-12-28T05:59:01.000Z</time>
      </trkpt>
      <trkpt lat="31.061715" lon="-7.931169">
        <ele>3469.39990234375</ele>
        <time>2019-12-28T05:59:04.000Z</time>
      </trkpt>
      <trkpt lat="31.061715" lon="-7.931146">
        <ele>3469.6058972</ele>
        <time>2019-12-28T05:59:07.000Z</time>
      </trkpt>
      <trkpt lat="31.061728" lon="-7.931126">
        <ele>3470.00579954375</ele>
        <time>2019-12-28T05:59:10.000Z</time>
      </trkpt>
      <trkpt lat="31.061741" lon="-7.931109">
        <ele>3470.40570896875</ele>
        <time>2019-12-28T05:59:14.000Z</time>
      </trkpt>
      <trkpt lat="31.061754" lon="-7.931089">
        <ele>3471.00579954375</ele>
        <time>2019-12-28T05:59:19.000Z</time>
      </trkpt>
      <trkpt lat="31.061744" lon="-7.931066">
        <ele>3471.6058972</ele>
        <time>2019-12-28T05:59:24.000Z</time>
      </trkpt>
      <trkpt lat="31.061734" lon="-7.931048">
        <ele>3472.40570896875</ele>
        <time>2019-12-28T05:59:29.000Z</time>
      </trkpt>
      <trkpt lat="31.06175" lon="-7.931032">
        <ele>3473.40570896875</ele>
        <time>2019-12-28T05:59:37.000Z</time>
      </trkpt>
      <trkpt lat="31.061741" lon="-7.931012">
        <ele>3473.80584837188</ele>
        <time>2019-12-28T05:59:41.000Z</time>
      </trkpt>
      <trkpt lat="31.061728" lon="-7.930992">
        <ele>3474.60009765625</ele>
        <time>2019-12-28T05:59:46.000Z</time>
      </trkpt>
      <trkpt lat="31.061718" lon="-7.930972">
        <ele>3475.00579954375</ele>
        <time>2019-12-28T05:59:50.000Z</time>
      </trkpt>
      <trkpt lat="31.061728" lon="-7.930954">
        <ele>3476</ele>
        <time>2019-12-28T06:00:09.000Z</time>
      </trkpt>
      <trkpt lat="31.061718" lon="-7.930931">
        <ele>3476.40570896875</ele>
        <time>2019-12-28T06:00:35.000Z</time>
      </trkpt>
      <trkpt lat="31.061712" lon="-7.930911">
        <ele>3476.80004882813</ele>
        <time>2019-12-28T06:00:39.000Z</time>
      </trkpt>
      <trkpt lat="31.061715" lon="-7.930885">
        <ele>3477.39990234375</ele>
        <time>2019-12-28T06:00:44.000Z</time>
      </trkpt>
      <trkpt lat="31.061696" lon="-7.930871">
        <ele>3477.80584837188</ele>
        <time>2019-12-28T06:00:48.000Z</time>
      </trkpt>
      <trkpt lat="31.061677" lon="-7.930865">
        <ele>3478.40570896875</ele>
        <time>2019-12-28T06:00:52.000Z</time>
      </trkpt>
      <trkpt lat="31.061658" lon="-7.930857">
        <ele>3479.40570896875</ele>
        <time>2019-12-28T06:00:57.000Z</time>
      </trkpt>
      <trkpt lat="31.061638" lon="-7.930846">
        <ele>3480.6058972</ele>
        <time>2019-12-28T06:01:03.000Z</time>
      </trkpt>
      <trkpt lat="31.061622" lon="-7.93083">
        <ele>3481.80584837188</ele>
        <time>2019-12-28T06:01:10.000Z</time>
      </trkpt>
      <trkpt lat="31.06161" lon="-7.930814">
        <ele>3483</ele>
        <time>2019-12-28T06:01:16.000Z</time>
      </trkpt>
      <trkpt lat="31.06161" lon="-7.930792">
        <ele>3484</ele>
        <time>2019-12-28T06:01:23.000Z</time>
      </trkpt>
      <trkpt lat="31.061619" lon="-7.930774">
        <ele>3484.40570896875</ele>
        <time>2019-12-28T06:01:28.000Z</time>
      </trkpt>
      <trkpt lat="31.061613" lon="-7.930754">
        <ele>3485</ele>
        <time>2019-12-28T06:01:33.000Z</time>
      </trkpt>
      <trkpt lat="31.061626" lon="-7.930732">
        <ele>3485.40570896875</ele>
        <time>2019-12-28T06:01:40.000Z</time>
      </trkpt>
      <trkpt lat="31.061616" lon="-7.930713">
        <ele>3485.80004882813</ele>
        <time>2019-12-28T06:01:44.000Z</time>
      </trkpt>
      <trkpt lat="31.061597" lon="-7.93071">
        <ele>3486.19995117188</ele>
        <time>2019-12-28T06:01:49.000Z</time>
      </trkpt>
      <trkpt lat="31.061578" lon="-7.930697">
        <ele>3487</ele>
        <time>2019-12-28T06:01:59.000Z</time>
      </trkpt>
      <trkpt lat="31.061558" lon="-7.93069">
        <ele>3487.40570896875</ele>
        <time>2019-12-28T06:02:04.000Z</time>
      </trkpt>
      <trkpt lat="31.061552" lon="-7.930668">
        <ele>3488.00579954375</ele>
        <time>2019-12-28T06:02:10.000Z</time>
      </trkpt>
      <trkpt lat="31.061546" lon="-7.930647">
        <ele>3488.40570896875</ele>
        <time>2019-12-28T06:02:15.000Z</time>
      </trkpt>
      <trkpt lat="31.061542" lon="-7.930625">
        <ele>3489</ele>
        <time>2019-12-28T06:02:23.000Z</time>
      </trkpt>
      <trkpt lat="31.061533" lon="-7.930605">
        <ele>3489.19995117188</ele>
        <time>2019-12-28T06:02:30.000Z</time>
      </trkpt>
      <trkpt lat="31.061517" lon="-7.93059">
        <ele>3489.20575071563</ele>
        <time>2019-12-28T06:02:35.000Z</time>
      </trkpt>
      <trkpt lat="31.061498" lon="-7.930583">
        <ele>3489.60009765625</ele>
        <time>2019-12-28T06:02:41.000Z</time>
      </trkpt>
      <trkpt lat="31.061491" lon="-7.930563">
        <ele>3490.40570896875</ele>
        <time>2019-12-28T06:02:55.000Z</time>
      </trkpt>
      <trkpt lat="31.061494" lon="-7.930542">
        <ele>3491</ele>
        <time>2019-12-28T06:03:00.000Z</time>
      </trkpt>
      <trkpt lat="31.061504" lon="-7.930517">
        <ele>3491.80004882813</ele>
        <time>2019-12-28T06:03:11.000Z</time>
      </trkpt>
      <trkpt lat="31.061504" lon="-7.930495">
        <ele>3492.00579954375</ele>
        <time>2019-12-28T06:03:15.000Z</time>
      </trkpt>
      <trkpt lat="31.061485" lon="-7.930491">
        <ele>3492.60009765625</ele>
        <time>2019-12-28T06:03:19.000Z</time>
      </trkpt>
      <trkpt lat="31.061466" lon="-7.9305">
        <ele>3493.19995117188</ele>
        <time>2019-12-28T06:03:25.000Z</time>
      </trkpt>
      <trkpt lat="31.061446" lon="-7.93049">
        <ele>3494.19995117188</ele>
        <time>2019-12-28T06:03:38.000Z</time>
      </trkpt>
      <trkpt lat="31.061427" lon="-7.930482">
        <ele>3494.80004882813</ele>
        <time>2019-12-28T06:03:50.000Z</time>
      </trkpt>
      <trkpt lat="31.061437" lon="-7.930462">
        <ele>3495.60009765625</ele>
        <time>2019-12-28T06:04:06.000Z</time>
      </trkpt>
      <trkpt lat="31.06144" lon="-7.930438">
        <ele>3495.80584837188</ele>
        <time>2019-12-28T06:04:12.000Z</time>
      </trkpt>
      <trkpt lat="31.061424" lon="-7.930423">
        <ele>3496.40570896875</ele>
        <time>2019-12-28T06:04:19.000Z</time>
      </trkpt>
      <trkpt lat="31.061405" lon="-7.930417">
        <ele>3497.20575071563</ele>
        <time>2019-12-28T06:04:26.000Z</time>
      </trkpt>
      <trkpt lat="31.061395" lon="-7.930397">
        <ele>3498.39990234375</ele>
        <time>2019-12-28T06:04:35.000Z</time>
      </trkpt>
      <trkpt lat="31.061395" lon="-7.930372">
        <ele>3499.39990234375</ele>
        <time>2019-12-28T06:04:44.000Z</time>
      </trkpt>
      <trkpt lat="31.061382" lon="-7.930353">
        <ele>3500.00579954375</ele>
        <time>2019-12-28T06:04:50.000Z</time>
      </trkpt>
      <trkpt lat="31.06136" lon="-7.930353">
        <ele>3501</ele>
        <time>2019-12-28T06:04:58.000Z</time>
      </trkpt>
      <trkpt lat="31.06136" lon="-7.930326">
        <ele>3502.6058972</ele>
        <time>2019-12-28T06:05:13.000Z</time>
      </trkpt>
      <trkpt lat="31.061338" lon="-7.930322">
        <ele>3503.39990234375</ele>
        <time>2019-12-28T06:05:19.000Z</time>
      </trkpt>
      <trkpt lat="31.061318" lon="-7.930326">
        <ele>3504.19995117188</ele>
        <time>2019-12-28T06:05:25.000Z</time>
      </trkpt>
      <trkpt lat="31.061299" lon="-7.930317">
        <ele>3505.6058972</ele>
        <time>2019-12-28T06:05:38.000Z</time>
      </trkpt>
      <trkpt lat="31.06129" lon="-7.930297">
        <ele>3506.39990234375</ele>
        <time>2019-12-28T06:05:44.000Z</time>
      </trkpt>
      <trkpt lat="31.061302" lon="-7.930278">
        <ele>3507.19995117188</ele>
        <time>2019-12-28T06:05:54.000Z</time>
      </trkpt>
      <trkpt lat="31.061306" lon="-7.930257">
        <ele>3507.39990234375</ele>
        <time>2019-12-28T06:05:57.000Z</time>
      </trkpt>
      <trkpt lat="31.061296" lon="-7.930238">
        <ele>3507.80004882813</ele>
        <time>2019-12-28T06:06:02.000Z</time>
      </trkpt>
      <trkpt lat="31.061302" lon="-7.930215">
        <ele>3508.6058972</ele>
        <time>2019-12-28T06:06:10.000Z</time>
      </trkpt>
      <trkpt lat="31.061299" lon="-7.93019">
        <ele>3509</ele>
        <time>2019-12-28T06:06:14.000Z</time>
      </trkpt>
      <trkpt lat="31.06129" lon="-7.930171">
        <ele>3509.40570896875</ele>
        <time>2019-12-28T06:06:18.000Z</time>
      </trkpt>
      <trkpt lat="31.061267" lon="-7.930175">
        <ele>3510.00579954375</ele>
        <time>2019-12-28T06:06:23.000Z</time>
      </trkpt>
      <trkpt lat="31.061248" lon="-7.930178">
        <ele>3511</ele>
        <time>2019-12-28T06:06:29.000Z</time>
      </trkpt>
      <trkpt lat="31.061229" lon="-7.930183">
        <ele>3511.80584837188</ele>
        <time>2019-12-28T06:06:37.000Z</time>
      </trkpt>
      <trkpt lat="31.061229" lon="-7.93016">
        <ele>3512.80584837188</ele>
        <time>2019-12-28T06:06:47.000Z</time>
      </trkpt>
      <trkpt lat="31.061226" lon="-7.930138">
        <ele>3513.80004882813</ele>
        <time>2019-12-28T06:06:56.000Z</time>
      </trkpt>
      <trkpt lat="31.061229" lon="-7.930117">
        <ele>3514.40590285284</ele>
        <time>2019-12-28T06:07:02.000Z</time>
      </trkpt>
      <trkpt lat="31.061232" lon="-7.930094">
        <ele>3515.80004882813</ele>
        <time>2019-12-28T06:07:19.000Z</time>
      </trkpt>
      <trkpt lat="31.061213" lon="-7.93008">
        <ele>3516</ele>
        <time>2019-12-28T06:07:25.000Z</time>
      </trkpt>
      <trkpt lat="31.061194" lon="-7.930072">
        <ele>3516.19995117188</ele>
        <time>2019-12-28T06:07:29.000Z</time>
      </trkpt>
      <trkpt lat="31.061178" lon="-7.930082">
        <ele>3516.40570896875</ele>
        <time>2019-12-28T06:07:33.000Z</time>
      </trkpt>
      <trkpt lat="31.061162" lon="-7.930072">
        <ele>3517.80004882813</ele>
        <time>2019-12-28T06:07:48.000Z</time>
      </trkpt>
      <trkpt lat="31.061152" lon="-7.930054">
        <ele>3518.6058972</ele>
        <time>2019-12-28T06:07:58.000Z</time>
      </trkpt>
      <trkpt lat="31.061139" lon="-7.930038">
        <ele>3519.39990234375</ele>
        <time>2019-12-28T06:08:06.000Z</time>
      </trkpt>
      <trkpt lat="31.061146" lon="-7.930017">
        <ele>3519.60009765625</ele>
        <time>2019-12-28T06:08:11.000Z</time>
      </trkpt>
      <trkpt lat="31.061158" lon="-7.930002">
        <ele>3520.40570896875</ele>
        <time>2019-12-28T06:08:38.000Z</time>
      </trkpt>
      <trkpt lat="31.061155" lon="-7.92998">
        <ele>3520.6058972</ele>
        <time>2019-12-28T06:08:50.000Z</time>
      </trkpt>
      <trkpt lat="31.061133" lon="-7.929975">
        <ele>3521.00579954375</ele>
        <time>2019-12-28T06:08:54.000Z</time>
      </trkpt>
      <trkpt lat="31.061114" lon="-7.929962">
        <ele>3522.6058972</ele>
        <time>2019-12-28T06:09:08.000Z</time>
      </trkpt>
      <trkpt lat="31.061104" lon="-7.929943">
        <ele>3523.39990234375</ele>
        <time>2019-12-28T06:09:15.000Z</time>
      </trkpt>
      <trkpt lat="31.061082" lon="-7.929945">
        <ele>3523.80004882813</ele>
        <time>2019-12-28T06:09:19.000Z</time>
      </trkpt>
      <trkpt lat="31.061088" lon="-7.929925">
        <ele>3524.40570896875</ele>
        <time>2019-12-28T06:09:25.000Z</time>
      </trkpt>
      <trkpt lat="31.061082" lon="-7.929903">
        <ele>3525.20575071563</ele>
        <time>2019-12-28T06:09:32.000Z</time>
      </trkpt>
      <trkpt lat="31.061078" lon="-7.929882">
        <ele>3526.19995117188</ele>
        <time>2019-12-28T06:09:39.000Z</time>
      </trkpt>
      <trkpt lat="31.061062" lon="-7.929868">
        <ele>3526.80584837188</ele>
        <time>2019-12-28T06:09:44.000Z</time>
      </trkpt>
      <trkpt lat="31.061043" lon="-7.929866">
        <ele>3528.00579954375</ele>
        <time>2019-12-28T06:09:51.000Z</time>
      </trkpt>
      <trkpt lat="31.061027" lon="-7.929877">
        <ele>3528.6058972</ele>
        <time>2019-12-28T06:09:56.000Z</time>
      </trkpt>
      <trkpt lat="31.061034" lon="-7.929855">
        <ele>3530.39990234375</ele>
        <time>2019-12-28T06:10:17.000Z</time>
      </trkpt>
      <trkpt lat="31.061043" lon="-7.929835">
        <ele>3530.60009765625</ele>
        <time>2019-12-28T06:10:21.000Z</time>
      </trkpt>
      <trkpt lat="31.061027" lon="-7.929822">
        <ele>3531.20575071563</ele>
        <time>2019-12-28T06:10:27.000Z</time>
      </trkpt>
      <trkpt lat="31.061011" lon="-7.929806">
        <ele>3532.40570896875</ele>
        <time>2019-12-28T06:10:36.000Z</time>
      </trkpt>
      <trkpt lat="31.061008" lon="-7.929783">
        <ele>3534</ele>
        <time>2019-12-28T06:10:48.000Z</time>
      </trkpt>
      <trkpt lat="31.061011" lon="-7.92976">
        <ele>3535.20575071563</ele>
        <time>2019-12-28T06:10:56.000Z</time>
      </trkpt>
      <trkpt lat="31.061005" lon="-7.92974">
        <ele>3536.6058972</ele>
        <time>2019-12-28T06:11:04.000Z</time>
      </trkpt>
      <trkpt lat="31.060986" lon="-7.92973">
        <ele>3537.60590299605</ele>
        <time>2019-12-28T06:11:10.000Z</time>
      </trkpt>
      <trkpt lat="31.06097" lon="-7.92972">
        <ele>3538.60009765625</ele>
        <time>2019-12-28T06:11:17.000Z</time>
      </trkpt>
      <trkpt lat="31.060963" lon="-7.929698">
        <ele>3538.80004882813</ele>
        <time>2019-12-28T06:11:27.000Z</time>
      </trkpt>
      <trkpt lat="31.06097" lon="-7.929677">
        <ele>3538.60009765625</ele>
        <time>2019-12-28T06:11:42.000Z</time>
      </trkpt>
      <trkpt lat="31.060973" lon="-7.929652">
        <ele>3538.60009765625</ele>
        <time>2019-12-28T06:11:46.000Z</time>
      </trkpt>
      <trkpt lat="31.060989" lon="-7.929628">
        <ele>3538.60009765625</ele>
        <time>2019-12-28T06:11:52.000Z</time>
      </trkpt>
      <trkpt lat="31.061002" lon="-7.929613">
        <ele>3538.80004882813</ele>
        <time>2019-12-28T06:11:56.000Z</time>
      </trkpt>
      <trkpt lat="31.061018" lon="-7.929602">
        <ele>3539.19995117188</ele>
        <time>2019-12-28T06:12:00.000Z</time>
      </trkpt>
      <trkpt lat="31.061021" lon="-7.929578">
        <ele>3540.00579954375</ele>
        <time>2019-12-28T06:12:05.000Z</time>
      </trkpt>
      <trkpt lat="31.061027" lon="-7.929558">
        <ele>3541.20575071563</ele>
        <time>2019-12-28T06:12:14.000Z</time>
      </trkpt>
      <trkpt lat="31.061027" lon="-7.929537">
        <ele>3541.60009765625</ele>
        <time>2019-12-28T06:12:18.000Z</time>
      </trkpt>
      <trkpt lat="31.061037" lon="-7.929517">
        <ele>3542.00579954375</ele>
        <time>2019-12-28T06:12:24.000Z</time>
      </trkpt>
      <trkpt lat="31.06105" lon="-7.929497">
        <ele>3542.60009765625</ele>
        <time>2019-12-28T06:12:30.000Z</time>
      </trkpt>
      <trkpt lat="31.061053" lon="-7.929471">
        <ele>3543.20594436327</ele>
        <time>2019-12-28T06:12:37.000Z</time>
      </trkpt>
      <trkpt lat="31.061072" lon="-7.929466">
        <ele>3543.80004882813</ele>
        <time>2019-12-28T06:12:42.000Z</time>
      </trkpt>
      <trkpt lat="31.061085" lon="-7.929451">
        <ele>3544.00579954375</ele>
        <time>2019-12-28T06:12:45.000Z</time>
      </trkpt>
      <trkpt lat="31.061088" lon="-7.929426">
        <ele>3544.6058972</ele>
        <time>2019-12-28T06:12:51.000Z</time>
      </trkpt>
      <trkpt lat="31.061082" lon="-7.929406">
        <ele>3546.20575071563</ele>
        <time>2019-12-28T06:13:00.000Z</time>
      </trkpt>
      <trkpt lat="31.061082" lon="-7.92938">
        <ele>3547.20575071563</ele>
        <time>2019-12-28T06:13:06.000Z</time>
      </trkpt>
      <trkpt lat="31.061069" lon="-7.929365">
        <ele>3548.40570896875</ele>
        <time>2019-12-28T06:13:15.000Z</time>
      </trkpt>
      <trkpt lat="31.061078" lon="-7.929346">
        <ele>3549.39990234375</ele>
        <time>2019-12-28T06:13:23.000Z</time>
      </trkpt>
      <trkpt lat="31.061069" lon="-7.929326">
        <ele>3549.80585416793</ele>
        <time>2019-12-28T06:13:27.000Z</time>
      </trkpt>
      <trkpt lat="31.061053" lon="-7.929309">
        <ele>3551.00579954375</ele>
        <time>2019-12-28T06:13:36.000Z</time>
      </trkpt>
      <trkpt lat="31.061043" lon="-7.929288">
        <ele>3554.19995117188</ele>
        <time>2019-12-28T06:14:14.000Z</time>
      </trkpt>
      <trkpt lat="31.06103" lon="-7.929273">
        <ele>3554.19995117188</ele>
        <time>2019-12-28T06:14:17.000Z</time>
      </trkpt>
      <trkpt lat="31.061018" lon="-7.929257">
        <ele>3554.60009765625</ele>
        <time>2019-12-28T06:14:23.000Z</time>
      </trkpt>
      <trkpt lat="31.061005" lon="-7.92924">
        <ele>3555.19995117188</ele>
        <time>2019-12-28T06:14:29.000Z</time>
      </trkpt>
      <trkpt lat="31.061002" lon="-7.929217">
        <ele>3556.19995117188</ele>
        <time>2019-12-28T06:14:38.000Z</time>
      </trkpt>
      <trkpt lat="31.061002" lon="-7.929195">
        <ele>3557.005999175</ele>
        <time>2019-12-28T06:14:45.000Z</time>
      </trkpt>
      <trkpt lat="31.061011" lon="-7.929177">
        <ele>3557.80604800312</ele>
        <time>2019-12-28T06:14:50.000Z</time>
      </trkpt>
      <trkpt lat="31.061008" lon="-7.929154">
        <ele>3558.41152011168</ele>
        <time>2019-12-28T06:14:55.000Z</time>
      </trkpt>
      <trkpt lat="31.061008" lon="-7.929131">
        <ele>3559.40571477188</ele>
        <time>2019-12-28T06:15:00.000Z</time>
      </trkpt>
      <trkpt lat="31.061002" lon="-7.929111">
        <ele>3561.20595034687</ele>
        <time>2019-12-28T06:15:08.000Z</time>
      </trkpt>
      <trkpt lat="31.061002" lon="-7.929089">
        <ele>3562.39990234375</ele>
        <time>2019-12-28T06:15:16.000Z</time>
      </trkpt>
      <trkpt lat="31.060992" lon="-7.929069">
        <ele>3563.19995117188</ele>
        <time>2019-12-28T06:15:22.000Z</time>
      </trkpt>
      <trkpt lat="31.060982" lon="-7.929049">
        <ele>3564.20575651168</ele>
        <time>2019-12-28T06:15:28.000Z</time>
      </trkpt>
      <trkpt lat="31.060989" lon="-7.929029">
        <ele>3565.19995117188</ele>
        <time>2019-12-28T06:15:34.000Z</time>
      </trkpt>
      <trkpt lat="31.060989" lon="-7.929005">
        <ele>3566.20594436327</ele>
        <time>2019-12-28T06:15:42.000Z</time>
      </trkpt>
      <trkpt lat="31.060989" lon="-7.928982">
        <ele>3567.00579954375</ele>
        <time>2019-12-28T06:15:47.000Z</time>
      </trkpt>
      <trkpt lat="31.060979" lon="-7.928958">
        <ele>3567.80584837188</ele>
        <time>2019-12-28T06:15:52.000Z</time>
      </trkpt>
      <trkpt lat="31.060966" lon="-7.928938">
        <ele>3568.60609683125</ele>
        <time>2019-12-28T06:15:57.000Z</time>
      </trkpt>
      <trkpt lat="31.06095" lon="-7.928922">
        <ele>3569.20595034687</ele>
        <time>2019-12-28T06:16:01.000Z</time>
      </trkpt>
      <trkpt lat="31.060931" lon="-7.928912">
        <ele>3570.005999175</ele>
        <time>2019-12-28T06:16:05.000Z</time>
      </trkpt>
      <trkpt lat="31.060915" lon="-7.928895">
        <ele>3570.80004882813</ele>
        <time>2019-12-28T06:16:09.000Z</time>
      </trkpt>
      <trkpt lat="31.060899" lon="-7.928877">
        <ele>3571.39990234375</ele>
        <time>2019-12-28T06:16:13.000Z</time>
      </trkpt>
      <trkpt lat="31.060886" lon="-7.928858">
        <ele>3571.80584837188</ele>
        <time>2019-12-28T06:16:17.000Z</time>
      </trkpt>
      <trkpt lat="31.060874" lon="-7.928843">
        <ele>3572.20595034687</ele>
        <time>2019-12-28T06:16:21.000Z</time>
      </trkpt>
      <trkpt lat="31.060864" lon="-7.928825">
        <ele>3572.80004882813</ele>
        <time>2019-12-28T06:16:26.000Z</time>
      </trkpt>
      <trkpt lat="31.060851" lon="-7.928805">
        <ele>3573.39990234375</ele>
        <time>2019-12-28T06:16:34.000Z</time>
      </trkpt>
      <trkpt lat="31.060861" lon="-7.928782">
        <ele>3574.39990234375</ele>
        <time>2019-12-28T06:16:49.000Z</time>
      </trkpt>
      <trkpt lat="31.060864" lon="-7.92876">
        <ele>3575.39990234375</ele>
        <time>2019-12-28T06:17:00.000Z</time>
      </trkpt>
      <trkpt lat="31.060854" lon="-7.928738">
        <ele>3575.80004882813</ele>
        <time>2019-12-28T06:17:05.000Z</time>
      </trkpt>
      <trkpt lat="31.060842" lon="-7.928722">
        <ele>3577.19995117188</ele>
        <time>2019-12-28T06:17:32.000Z</time>
      </trkpt>
      <trkpt lat="31.060822" lon="-7.928726">
        <ele>3577.39990234375</ele>
        <time>2019-12-28T06:17:35.000Z</time>
      </trkpt>
      <trkpt lat="31.060803" lon="-7.928726">
        <ele>3577.39990234375</ele>
        <time>2019-12-28T06:17:38.000Z</time>
      </trkpt>
      <trkpt lat="31.060784" lon="-7.928726">
        <ele>3577.60009765625</ele>
        <time>2019-12-28T06:17:42.000Z</time>
      </trkpt>
      <trkpt lat="31.060762" lon="-7.92873">
        <ele>3577.80004882813</ele>
        <time>2019-12-28T06:17:46.000Z</time>
      </trkpt>
      <trkpt lat="31.060742" lon="-7.928732">
        <ele>3578</ele>
        <time>2019-12-28T06:17:51.000Z</time>
      </trkpt>
      <trkpt lat="31.060723" lon="-7.928726">
        <ele>3578.19995117188</ele>
        <time>2019-12-28T06:17:54.000Z</time>
      </trkpt>
      <trkpt lat="31.060704" lon="-7.928737">
        <ele>3578.39990234375</ele>
        <time>2019-12-28T06:17:58.000Z</time>
      </trkpt>
      <trkpt lat="31.060685" lon="-7.928746">
        <ele>3578.60009765625</ele>
        <time>2019-12-28T06:18:03.000Z</time>
      </trkpt>
      <trkpt lat="31.060682" lon="-7.928723">
        <ele>3579.40590884375</ele>
        <time>2019-12-28T06:18:15.000Z</time>
      </trkpt>
      <trkpt lat="31.060666" lon="-7.928703">
        <ele>3580</ele>
        <time>2019-12-28T06:18:20.000Z</time>
      </trkpt>
      <trkpt lat="31.060646" lon="-7.928708">
        <ele>3581</ele>
        <time>2019-12-28T06:18:28.000Z</time>
      </trkpt>
      <trkpt lat="31.060627" lon="-7.928697">
        <ele>3582.19995117188</ele>
        <time>2019-12-28T06:18:41.000Z</time>
      </trkpt>
      <trkpt lat="31.060627" lon="-7.928675">
        <ele>3582.60009765625</ele>
        <time>2019-12-28T06:18:45.000Z</time>
      </trkpt>
      <trkpt lat="31.06063" lon="-7.928654">
        <ele>3583</ele>
        <time>2019-12-28T06:18:49.000Z</time>
      </trkpt>
      <trkpt lat="31.060634" lon="-7.928629">
        <ele>3583.80604800312</ele>
        <time>2019-12-28T06:18:58.000Z</time>
      </trkpt>
      <trkpt lat="31.060634" lon="-7.928603">
        <ele>3585.39990234375</ele>
        <time>2019-12-28T06:19:14.000Z</time>
      </trkpt>
      <trkpt lat="31.06064" lon="-7.928582">
        <ele>3586.40590285284</ele>
        <time>2019-12-28T06:19:28.000Z</time>
      </trkpt>
      <trkpt lat="31.060646" lon="-7.928558">
        <ele>3587</ele>
        <time>2019-12-28T06:19:34.000Z</time>
      </trkpt>
      <trkpt lat="31.06063" lon="-7.928545">
        <ele>3587.39990234375</ele>
        <time>2019-12-28T06:19:38.000Z</time>
      </trkpt>
      <trkpt lat="31.06064" lon="-7.928523">
        <ele>3588</ele>
        <time>2019-12-28T06:19:45.000Z</time>
      </trkpt>
      <trkpt lat="31.06065" lon="-7.928503">
        <ele>3588.19995117188</ele>
        <time>2019-12-28T06:19:49.000Z</time>
      </trkpt>
      <trkpt lat="31.06063" lon="-7.92849">
        <ele>3588.80585416793</ele>
        <time>2019-12-28T06:19:55.000Z</time>
      </trkpt>
      <trkpt lat="31.060608" lon="-7.928487">
        <ele>3589.39990234375</ele>
        <time>2019-12-28T06:20:00.000Z</time>
      </trkpt>
      <trkpt lat="31.060602" lon="-7.928465">
        <ele>3590.80004882813</ele>
        <time>2019-12-28T06:20:15.000Z</time>
      </trkpt>
      <trkpt lat="31.060605" lon="-7.928443">
        <ele>3591.39990234375</ele>
        <time>2019-12-28T06:20:22.000Z</time>
      </trkpt>
      <trkpt lat="31.060605" lon="-7.928422">
        <ele>3592</ele>
        <time>2019-12-28T06:20:28.000Z</time>
      </trkpt>
      <trkpt lat="31.060611" lon="-7.9284">
        <ele>3592.39990234375</ele>
        <time>2019-12-28T06:20:32.000Z</time>
      </trkpt>
      <trkpt lat="31.060618" lon="-7.928374">
        <ele>3592.60590299605</ele>
        <time>2019-12-28T06:20:36.000Z</time>
      </trkpt>
      <trkpt lat="31.06063" lon="-7.928351">
        <ele>3593</ele>
        <time>2019-12-28T06:20:39.000Z</time>
      </trkpt>
      <trkpt lat="31.060627" lon="-7.928326">
        <ele>3593.20575071563</ele>
        <time>2019-12-28T06:20:42.000Z</time>
      </trkpt>
      <trkpt lat="31.060621" lon="-7.928302">
        <ele>3593.6058972</ele>
        <time>2019-12-28T06:20:46.000Z</time>
      </trkpt>
      <trkpt lat="31.060621" lon="-7.928277">
        <ele>3594.40570896875</ele>
        <time>2019-12-28T06:20:53.000Z</time>
      </trkpt>
      <trkpt lat="31.060611" lon="-7.928258">
        <ele>3594.80585416793</ele>
        <time>2019-12-28T06:20:57.000Z</time>
      </trkpt>
      <trkpt lat="31.060602" lon="-7.92824">
        <ele>3595.39990234375</ele>
        <time>2019-12-28T06:21:01.000Z</time>
      </trkpt>
      <trkpt lat="31.060592" lon="-7.928222">
        <ele>3595.80584837188</ele>
        <time>2019-12-28T06:21:06.000Z</time>
      </trkpt>
      <trkpt lat="31.060592" lon="-7.9282">
        <ele>3596.80584837188</ele>
        <time>2019-12-28T06:21:17.000Z</time>
      </trkpt>
      <trkpt lat="31.060611" lon="-7.928186">
        <ele>3597.40570896875</ele>
        <time>2019-12-28T06:21:24.000Z</time>
      </trkpt>
      <trkpt lat="31.060618" lon="-7.928162">
        <ele>3598</ele>
        <time>2019-12-28T06:21:31.000Z</time>
      </trkpt>
      <trkpt lat="31.060605" lon="-7.928145">
        <ele>3598.40570896875</ele>
        <time>2019-12-28T06:21:35.000Z</time>
      </trkpt>
      <trkpt lat="31.060589" lon="-7.928123">
        <ele>3599.19995117188</ele>
        <time>2019-12-28T06:21:40.000Z</time>
      </trkpt>
      <trkpt lat="31.060592" lon="-7.928102">
        <ele>3599.6058972</ele>
        <time>2019-12-28T06:21:44.000Z</time>
      </trkpt>
      <trkpt lat="31.060582" lon="-7.928078">
        <ele>3600.00579954375</ele>
        <time>2019-12-28T06:21:47.000Z</time>
      </trkpt>
      <trkpt lat="31.06056" lon="-7.928075">
        <ele>3600.60009765625</ele>
        <time>2019-12-28T06:21:51.000Z</time>
      </trkpt>
      <trkpt lat="31.060541" lon="-7.928066">
        <ele>3601.20575071563</ele>
        <time>2019-12-28T06:21:58.000Z</time>
      </trkpt>
      <trkpt lat="31.060528" lon="-7.928051">
        <ele>3601.60009765625</ele>
        <time>2019-12-28T06:22:01.000Z</time>
      </trkpt>
      <trkpt lat="31.060518" lon="-7.928032">
        <ele>3601.80584837188</ele>
        <time>2019-12-28T06:22:04.000Z</time>
      </trkpt>
      <trkpt lat="31.060506" lon="-7.928014">
        <ele>3602.20575071563</ele>
        <time>2019-12-28T06:22:08.000Z</time>
      </trkpt>
      <trkpt lat="31.060515" lon="-7.927995">
        <ele>3603</ele>
        <time>2019-12-28T06:22:19.000Z</time>
      </trkpt>
      <trkpt lat="31.060496" lon="-7.927974">
        <ele>3603.60009765625</ele>
        <time>2019-12-28T06:22:31.000Z</time>
      </trkpt>
      <trkpt lat="31.060493" lon="-7.927998">
        <ele>3603.39990234375</ele>
        <time>2019-12-28T06:22:39.000Z</time>
      </trkpt>
      <trkpt lat="31.060486" lon="-7.928018">
        <ele>3603</ele>
        <time>2019-12-28T06:23:00.000Z</time>
      </trkpt>
      <trkpt lat="31.060506" lon="-7.928014">
        <ele>3602.80004882813</ele>
        <time>2019-12-28T06:23:37.000Z</time>
      </trkpt>
      <trkpt lat="31.060512" lon="-7.927994">
        <ele>3602.60009765625</ele>
        <time>2019-12-28T06:24:28.000Z</time>
      </trkpt>
      <trkpt lat="31.060522" lon="-7.928012">
        <ele>3602.39990234375</ele>
        <time>2019-12-28T06:24:41.000Z</time>
      </trkpt>
      <trkpt lat="31.060531" lon="-7.92803">
        <ele>3602</ele>
        <time>2019-12-28T06:25:16.000Z</time>
      </trkpt>
      <trkpt lat="31.060525" lon="-7.928008">
        <ele>3602</ele>
        <time>2019-12-28T06:25:26.000Z</time>
      </trkpt>
      <trkpt lat="31.060509" lon="-7.92802">
        <ele>3602.00579954375</ele>
        <time>2019-12-28T06:25:30.000Z</time>
      </trkpt>
      <trkpt lat="31.060499" lon="-7.928038">
        <ele>3602.39990234375</ele>
        <time>2019-12-28T06:25:49.000Z</time>
      </trkpt>
      <trkpt lat="31.060502" lon="-7.928017">
        <ele>3601.80004882813</ele>
        <time>2019-12-28T06:26:46.000Z</time>
      </trkpt>
      <trkpt lat="31.060499" lon="-7.927995">
        <ele>3601.80004882813</ele>
        <time>2019-12-28T06:27:15.000Z</time>
      </trkpt>
      <trkpt lat="31.060493" lon="-7.927975">
        <ele>3601.80004882813</ele>
        <time>2019-12-28T06:27:25.000Z</time>
      </trkpt>
      <trkpt lat="31.060474" lon="-7.927969">
        <ele>3601.60009765625</ele>
        <time>2019-12-28T06:27:38.000Z</time>
      </trkpt>
      <trkpt lat="31.060467" lon="-7.927949">
        <ele>3601.39990234375</ele>
        <time>2019-12-28T06:27:57.000Z</time>
      </trkpt>
      <trkpt lat="31.060461" lon="-7.927969">
        <ele>3601.39990234375</ele>
        <time>2019-12-28T06:28:05.000Z</time>
      </trkpt>
      <trkpt lat="31.060451" lon="-7.92795">
        <ele>3600.60009765625</ele>
        <time>2019-12-28T06:29:11.000Z</time>
      </trkpt>
      <trkpt lat="31.060464" lon="-7.927965">
        <ele>3600.60009765625</ele>
        <time>2019-12-28T06:29:42.000Z</time>
      </trkpt>
      <trkpt lat="31.060477" lon="-7.92798">
        <ele>3600.60009765625</ele>
        <time>2019-12-28T06:29:56.000Z</time>
      </trkpt>
      <trkpt lat="31.060486" lon="-7.927998">
        <ele>3600.60009765625</ele>
        <time>2019-12-28T06:30:13.000Z</time>
      </trkpt>
      <trkpt lat="31.060506" lon="-7.928002">
        <ele>3600.80004882813</ele>
        <time>2019-12-28T06:30:32.000Z</time>
      </trkpt>
      <trkpt lat="31.060512" lon="-7.928022">
        <ele>3600.80004882813</ele>
        <time>2019-12-28T06:30:50.000Z</time>
      </trkpt>
      <trkpt lat="31.060496" lon="-7.928006">
        <ele>3600.80004882813</ele>
        <time>2019-12-28T06:31:18.000Z</time>
      </trkpt>
      <trkpt lat="31.060486" lon="-7.927986">
        <ele>3601.39990234375</ele>
        <time>2019-12-28T06:31:41.000Z</time>
      </trkpt>
      <trkpt lat="31.060467" lon="-7.927978">
        <ele>3601.60009765625</ele>
        <time>2019-12-28T06:31:46.000Z</time>
      </trkpt>
      <trkpt lat="31.060458" lon="-7.927997">
        <ele>3601.60009765625</ele>
        <time>2019-12-28T06:32:02.000Z</time>
      </trkpt>
      <trkpt lat="31.060474" lon="-7.927977">
        <ele>3601.60009765625</ele>
        <time>2019-12-28T06:32:46.000Z</time>
      </trkpt>
      <trkpt lat="31.060493" lon="-7.927965">
        <ele>3601.60009765625</ele>
        <time>2019-12-28T06:32:49.000Z</time>
      </trkpt>
      <trkpt lat="31.060502" lon="-7.92794">
        <ele>3601.60009765625</ele>
        <time>2019-12-28T06:32:53.000Z</time>
      </trkpt>
      <trkpt lat="31.060502" lon="-7.927915">
        <ele>3601.60009765625</ele>
        <time>2019-12-28T06:32:56.000Z</time>
      </trkpt>
      <trkpt lat="31.060509" lon="-7.92789">
        <ele>3601.80004882813</ele>
        <time>2019-12-28T06:32:59.000Z</time>
      </trkpt>
      <trkpt lat="31.060509" lon="-7.927865">
        <ele>3601.80004882813</ele>
        <time>2019-12-28T06:33:04.000Z</time>
      </trkpt>
      <trkpt lat="31.060496" lon="-7.927845">
        <ele>3602</ele>
        <time>2019-12-28T06:33:08.000Z</time>
      </trkpt>
      <trkpt lat="31.06049" lon="-7.927825">
        <ele>3602</ele>
        <time>2019-12-28T06:33:13.000Z</time>
      </trkpt>
      <trkpt lat="31.060486" lon="-7.927802">
        <ele>3602</ele>
        <time>2019-12-28T06:33:18.000Z</time>
      </trkpt>
      <trkpt lat="31.060493" lon="-7.927782">
        <ele>3602.19995117188</ele>
        <time>2019-12-28T06:33:28.000Z</time>
      </trkpt>
      <trkpt lat="31.060493" lon="-7.92776">
        <ele>3602.19995117188</ele>
        <time>2019-12-28T06:33:34.000Z</time>
      </trkpt>
      <trkpt lat="31.060499" lon="-7.927737">
        <ele>3602.60009765625</ele>
        <time>2019-12-28T06:33:40.000Z</time>
      </trkpt>
      <trkpt lat="31.060506" lon="-7.927717">
        <ele>3603</ele>
        <time>2019-12-28T06:33:45.000Z</time>
      </trkpt>
      <trkpt lat="31.060515" lon="-7.927697">
        <ele>3603.19995117188</ele>
        <time>2019-12-28T06:33:49.000Z</time>
      </trkpt>
      <trkpt lat="31.060512" lon="-7.927675">
        <ele>3603.40570896875</ele>
        <time>2019-12-28T06:33:53.000Z</time>
      </trkpt>
      <trkpt lat="31.060512" lon="-7.92765">
        <ele>3603.80004882813</ele>
        <time>2019-12-28T06:33:57.000Z</time>
      </trkpt>
      <trkpt lat="31.060509" lon="-7.927629">
        <ele>3603.80584837188</ele>
        <time>2019-12-28T06:34:01.000Z</time>
      </trkpt>
      <trkpt lat="31.060502" lon="-7.927606">
        <ele>3604.19995117188</ele>
        <time>2019-12-28T06:34:05.000Z</time>
      </trkpt>
      <trkpt lat="31.060502" lon="-7.927582">
        <ele>3604.60009765625</ele>
        <time>2019-12-28T06:34:11.000Z</time>
      </trkpt>
      <trkpt lat="31.060499" lon="-7.927558">
        <ele>3605.19995117188</ele>
        <time>2019-12-28T06:34:21.000Z</time>
      </trkpt>
      <trkpt lat="31.060496" lon="-7.927535">
        <ele>3605.40570896875</ele>
        <time>2019-12-28T06:34:25.000Z</time>
      </trkpt>
      <trkpt lat="31.060486" lon="-7.927512">
        <ele>3605.6058972</ele>
        <time>2019-12-28T06:34:30.000Z</time>
      </trkpt>
      <trkpt lat="31.060474" lon="-7.927493">
        <ele>3606</ele>
        <time>2019-12-28T06:34:35.000Z</time>
      </trkpt>
      <trkpt lat="31.060464" lon="-7.927473">
        <ele>3606.39990234375</ele>
        <time>2019-12-28T06:34:42.000Z</time>
      </trkpt>
      <trkpt lat="31.060458" lon="-7.927452">
        <ele>3606.80004882813</ele>
        <time>2019-12-28T06:34:48.000Z</time>
      </trkpt>
      <trkpt lat="31.060461" lon="-7.927425">
        <ele>3607.19995117188</ele>
        <time>2019-12-28T06:34:56.000Z</time>
      </trkpt>
      <trkpt lat="31.060461" lon="-7.927398">
        <ele>3607.39990234375</ele>
        <time>2019-12-28T06:35:03.000Z</time>
      </trkpt>
      <trkpt lat="31.060474" lon="-7.927383">
        <ele>3607.60009765625</ele>
        <time>2019-12-28T06:35:07.000Z</time>
      </trkpt>
      <trkpt lat="31.060486" lon="-7.927365">
        <ele>3607.80004882813</ele>
        <time>2019-12-28T06:35:10.000Z</time>
      </trkpt>
      <trkpt lat="31.060493" lon="-7.927345">
        <ele>3608</ele>
        <time>2019-12-28T06:35:14.000Z</time>
      </trkpt>
      <trkpt lat="31.060502" lon="-7.927323">
        <ele>3608.39990234375</ele>
        <time>2019-12-28T06:35:19.000Z</time>
      </trkpt>
      <trkpt lat="31.060512" lon="-7.927303">
        <ele>3608.80584837188</ele>
        <time>2019-12-28T06:35:24.000Z</time>
      </trkpt>
      <trkpt lat="31.060512" lon="-7.927278">
        <ele>3609.60009765625</ele>
        <time>2019-12-28T06:35:29.000Z</time>
      </trkpt>
      <trkpt lat="31.060515" lon="-7.927252">
        <ele>3610.19995117188</ele>
        <time>2019-12-28T06:35:34.000Z</time>
      </trkpt>
      <trkpt lat="31.060525" lon="-7.927234">
        <ele>3610.60009765625</ele>
        <time>2019-12-28T06:35:38.000Z</time>
      </trkpt>
      <trkpt lat="31.060522" lon="-7.927213">
        <ele>3611</ele>
        <time>2019-12-28T06:35:43.000Z</time>
      </trkpt>
      <trkpt lat="31.060518" lon="-7.927188">
        <ele>3611.60009765625</ele>
        <time>2019-12-28T06:35:52.000Z</time>
      </trkpt>
      <trkpt lat="31.060512" lon="-7.927168">
        <ele>3611.80584837188</ele>
        <time>2019-12-28T06:35:56.000Z</time>
      </trkpt>
      <trkpt lat="31.060493" lon="-7.927158">
        <ele>3612.39990234375</ele>
        <time>2019-12-28T06:36:03.000Z</time>
      </trkpt>
      <trkpt lat="31.060474" lon="-7.927152">
        <ele>3613.19995117188</ele>
        <time>2019-12-28T06:36:14.000Z</time>
      </trkpt>
      <trkpt lat="31.060477" lon="-7.927123">
        <ele>3614.20575071563</ele>
        <time>2019-12-28T06:36:26.000Z</time>
      </trkpt>
      <trkpt lat="31.06047" lon="-7.9271">
        <ele>3614.80004882813</ele>
        <time>2019-12-28T06:36:31.000Z</time>
      </trkpt>
      <trkpt lat="31.060464" lon="-7.927078">
        <ele>3615</ele>
        <time>2019-12-28T06:36:35.000Z</time>
      </trkpt>
      <trkpt lat="31.060467" lon="-7.92705">
        <ele>3615.40570896875</ele>
        <time>2019-12-28T06:36:40.000Z</time>
      </trkpt>
      <trkpt lat="31.060474" lon="-7.92702">
        <ele>3615.80604201952</ele>
        <time>2019-12-28T06:36:44.000Z</time>
      </trkpt>
      <trkpt lat="31.060474" lon="-7.926994">
        <ele>3616.20575071563</ele>
        <time>2019-12-28T06:36:49.000Z</time>
      </trkpt>
      <trkpt lat="31.060458" lon="-7.926975">
        <ele>3616.80004882813</ele>
        <time>2019-12-28T06:36:54.000Z</time>
      </trkpt>
      <trkpt lat="31.060442" lon="-7.92696">
        <ele>3617.19995117188</ele>
        <time>2019-12-28T06:37:00.000Z</time>
      </trkpt>
      <trkpt lat="31.060422" lon="-7.926955">
        <ele>3617.60009765625</ele>
        <time>2019-12-28T06:37:05.000Z</time>
      </trkpt>
      <trkpt lat="31.06041" lon="-7.926934">
        <ele>3617.80584837188</ele>
        <time>2019-12-28T06:37:10.000Z</time>
      </trkpt>
      <trkpt lat="31.060403" lon="-7.92691">
        <ele>3618.19995117188</ele>
        <time>2019-12-28T06:37:15.000Z</time>
      </trkpt>
      <trkpt lat="31.060384" lon="-7.926898">
        <ele>3618.40570896875</ele>
        <time>2019-12-28T06:37:20.000Z</time>
      </trkpt>
      <trkpt lat="31.060362" lon="-7.926883">
        <ele>3618.80584837188</ele>
        <time>2019-12-28T06:37:26.000Z</time>
      </trkpt>
      <trkpt lat="31.060346" lon="-7.92687">
        <ele>3619.19995117188</ele>
        <time>2019-12-28T06:37:30.000Z</time>
      </trkpt>
      <trkpt lat="31.060326" lon="-7.926852">
        <ele>3619.40570896875</ele>
        <time>2019-12-28T06:37:35.000Z</time>
      </trkpt>
      <trkpt lat="31.060314" lon="-7.92683">
        <ele>3620.19995117188</ele>
        <time>2019-12-28T06:37:43.000Z</time>
      </trkpt>
      <trkpt lat="31.06031" lon="-7.926805">
        <ele>3620.60009765625</ele>
        <time>2019-12-28T06:37:47.000Z</time>
      </trkpt>
      <trkpt lat="31.060291" lon="-7.926798">
        <ele>3621.00579954375</ele>
        <time>2019-12-28T06:37:51.000Z</time>
      </trkpt>
      <trkpt lat="31.060269" lon="-7.926798">
        <ele>3621.40570896875</ele>
        <time>2019-12-28T06:37:55.000Z</time>
      </trkpt>
      <trkpt lat="31.060246" lon="-7.926802">
        <ele>3621.80584837188</ele>
        <time>2019-12-28T06:37:59.000Z</time>
      </trkpt>
      <trkpt lat="31.060227" lon="-7.926793">
        <ele>3622.60009765625</ele>
        <time>2019-12-28T06:38:05.000Z</time>
      </trkpt>
      <trkpt lat="31.060214" lon="-7.926773">
        <ele>3622.80584837188</ele>
        <time>2019-12-28T06:38:09.000Z</time>
      </trkpt>
      <trkpt lat="31.060195" lon="-7.926758">
        <ele>3623.19995117188</ele>
        <time>2019-12-28T06:38:13.000Z</time>
      </trkpt>
      <trkpt lat="31.060182" lon="-7.926742">
        <ele>3623.40570896875</ele>
        <time>2019-12-28T06:38:18.000Z</time>
      </trkpt>
      <trkpt lat="31.06017" lon="-7.926722">
        <ele>3623.80004882813</ele>
        <time>2019-12-28T06:38:23.000Z</time>
      </trkpt>
      <trkpt lat="31.060157" lon="-7.926705">
        <ele>3624.00579954375</ele>
        <time>2019-12-28T06:38:28.000Z</time>
      </trkpt>
      <trkpt lat="31.060144" lon="-7.926686">
        <ele>3624.39990234375</ele>
        <time>2019-12-28T06:38:33.000Z</time>
      </trkpt>
      <trkpt lat="31.060128" lon="-7.926677">
        <ele>3624.60009765625</ele>
        <time>2019-12-28T06:38:36.000Z</time>
      </trkpt>
      <trkpt lat="31.060112" lon="-7.926666">
        <ele>3625</ele>
        <time>2019-12-28T06:38:43.000Z</time>
      </trkpt>
      <trkpt lat="31.060096" lon="-7.926651">
        <ele>3625.20594436327</ele>
        <time>2019-12-28T06:38:48.000Z</time>
      </trkpt>
      <trkpt lat="31.06008" lon="-7.926637">
        <ele>3625.60009765625</ele>
        <time>2019-12-28T06:38:55.000Z</time>
      </trkpt>
      <trkpt lat="31.060077" lon="-7.926614">
        <ele>3626</ele>
        <time>2019-12-28T06:39:02.000Z</time>
      </trkpt>
      <trkpt lat="31.060064" lon="-7.92659">
        <ele>3626.40570896875</ele>
        <time>2019-12-28T06:39:08.000Z</time>
      </trkpt>
      <trkpt lat="31.060054" lon="-7.92657">
        <ele>3627.20575071563</ele>
        <time>2019-12-28T06:39:15.000Z</time>
      </trkpt>
      <trkpt lat="31.060042" lon="-7.926546">
        <ele>3627.80584837188</ele>
        <time>2019-12-28T06:39:20.000Z</time>
      </trkpt>
      <trkpt lat="31.060042" lon="-7.926525">
        <ele>3628.6058972</ele>
        <time>2019-12-28T06:39:26.000Z</time>
      </trkpt>
      <trkpt lat="31.060038" lon="-7.926498">
        <ele>3629.40570896875</ele>
        <time>2019-12-28T06:39:32.000Z</time>
      </trkpt>
      <trkpt lat="31.060038" lon="-7.926477">
        <ele>3629.80584837188</ele>
        <time>2019-12-28T06:39:36.000Z</time>
      </trkpt>
      <trkpt lat="31.060048" lon="-7.926455">
        <ele>3630.6058972</ele>
        <time>2019-12-28T06:39:41.000Z</time>
      </trkpt>
      <trkpt lat="31.060054" lon="-7.92643">
        <ele>3631.20575071563</ele>
        <time>2019-12-28T06:39:46.000Z</time>
      </trkpt>
      <trkpt lat="31.060058" lon="-7.926407">
        <ele>3631.80584837188</ele>
        <time>2019-12-28T06:39:52.000Z</time>
      </trkpt>
      <trkpt lat="31.060058" lon="-7.926382">
        <ele>3632.60009765625</ele>
        <time>2019-12-28T06:39:58.000Z</time>
      </trkpt>
      <trkpt lat="31.060061" lon="-7.926357">
        <ele>3633.40570896875</ele>
        <time>2019-12-28T06:40:04.000Z</time>
      </trkpt>
      <trkpt lat="31.060064" lon="-7.926331">
        <ele>3635.00579954375</ele>
        <time>2019-12-28T06:40:10.000Z</time>
      </trkpt>
      <trkpt lat="31.06007" lon="-7.926306">
        <ele>3636</ele>
        <time>2019-12-28T06:40:18.000Z</time>
      </trkpt>
      <trkpt lat="31.060067" lon="-7.926285">
        <ele>3636.39990234375</ele>
        <time>2019-12-28T06:40:23.000Z</time>
      </trkpt>
      <trkpt lat="31.060064" lon="-7.926258">
        <ele>3637.00579954375</ele>
        <time>2019-12-28T06:40:30.000Z</time>
      </trkpt>
      <trkpt lat="31.060064" lon="-7.926234">
        <ele>3637.80004882813</ele>
        <time>2019-12-28T06:40:36.000Z</time>
      </trkpt>
      <trkpt lat="31.060051" lon="-7.926212">
        <ele>3638.6058972</ele>
        <time>2019-12-28T06:40:43.000Z</time>
      </trkpt>
      <trkpt lat="31.060045" lon="-7.926192">
        <ele>3639.19995117188</ele>
        <time>2019-12-28T06:40:47.000Z</time>
      </trkpt>
      <trkpt lat="31.060038" lon="-7.92617">
        <ele>3640.19995117188</ele>
        <time>2019-12-28T06:40:55.000Z</time>
      </trkpt>
      <trkpt lat="31.060029" lon="-7.92615">
        <ele>3641</ele>
        <time>2019-12-28T06:41:02.000Z</time>
      </trkpt>
      <trkpt lat="31.060026" lon="-7.926126">
        <ele>3642.39990234375</ele>
        <time>2019-12-28T06:41:13.000Z</time>
      </trkpt>
      <trkpt lat="31.060026" lon="-7.926103">
        <ele>3643.19995117188</ele>
        <time>2019-12-28T06:41:21.000Z</time>
      </trkpt>
      <trkpt lat="31.060026" lon="-7.926077">
        <ele>3643.60009765625</ele>
        <time>2019-12-28T06:41:25.000Z</time>
      </trkpt>
      <trkpt lat="31.06001" lon="-7.926062">
        <ele>3644.39990234375</ele>
        <time>2019-12-28T06:41:30.000Z</time>
      </trkpt>
      <trkpt lat="31.06" lon="-7.926042">
        <ele>3645.40570896875</ele>
        <time>2019-12-28T06:41:38.000Z</time>
      </trkpt>
      <trkpt lat="31.06" lon="-7.92602">
        <ele>3646.19995117188</ele>
        <time>2019-12-28T06:41:44.000Z</time>
      </trkpt>
      <trkpt lat="31.05999" lon="-7.926">
        <ele>3646.6058972</ele>
        <time>2019-12-28T06:41:49.000Z</time>
      </trkpt>
      <trkpt lat="31.059971" lon="-7.925985">
        <ele>3647.80004882813</ele>
        <time>2019-12-28T06:41:59.000Z</time>
      </trkpt>
      <trkpt lat="31.059974" lon="-7.925963">
        <ele>3648.6058972</ele>
        <time>2019-12-28T06:42:07.000Z</time>
      </trkpt>
      <trkpt lat="31.059974" lon="-7.92594">
        <ele>3649.60009765625</ele>
        <time>2019-12-28T06:42:16.000Z</time>
      </trkpt>
      <trkpt lat="31.059968" lon="-7.925917">
        <ele>3650.40570896875</ele>
        <time>2019-12-28T06:42:24.000Z</time>
      </trkpt>
      <trkpt lat="31.059965" lon="-7.925894">
        <ele>3651.20575651168</ele>
        <time>2019-12-28T06:42:30.000Z</time>
      </trkpt>
      <trkpt lat="31.059955" lon="-7.925872">
        <ele>3652.20575071563</ele>
        <time>2019-12-28T06:42:37.000Z</time>
      </trkpt>
      <trkpt lat="31.059949" lon="-7.92585">
        <ele>3652.6058972</ele>
        <time>2019-12-28T06:42:41.000Z</time>
      </trkpt>
      <trkpt lat="31.059936" lon="-7.925826">
        <ele>3653.6058972</ele>
        <time>2019-12-28T06:42:48.000Z</time>
      </trkpt>
      <trkpt lat="31.059923" lon="-7.925805">
        <ele>3654.6058972</ele>
        <time>2019-12-28T06:42:54.000Z</time>
      </trkpt>
      <trkpt lat="31.059914" lon="-7.925785">
        <ele>3655.60009765625</ele>
        <time>2019-12-28T06:42:59.000Z</time>
      </trkpt>
      <trkpt lat="31.059898" lon="-7.925775">
        <ele>3656.20575071563</ele>
        <time>2019-12-28T06:43:03.000Z</time>
      </trkpt>
      <trkpt lat="31.059891" lon="-7.925755">
        <ele>3657.00579954375</ele>
        <time>2019-12-28T06:43:08.000Z</time>
      </trkpt>
      <trkpt lat="31.059869" lon="-7.92576">
        <ele>3657.40570896875</ele>
        <time>2019-12-28T06:43:11.000Z</time>
      </trkpt>
      <trkpt lat="31.059846" lon="-7.92577">
        <ele>3658.20575071563</ele>
        <time>2019-12-28T06:43:17.000Z</time>
      </trkpt>
      <trkpt lat="31.059834" lon="-7.925754">
        <ele>3660.60009765625</ele>
        <time>2019-12-28T06:43:54.000Z</time>
      </trkpt>
      <trkpt lat="31.059827" lon="-7.92573">
        <ele>3660.6058972</ele>
        <time>2019-12-28T06:43:59.000Z</time>
      </trkpt>
      <trkpt lat="31.059821" lon="-7.925705">
        <ele>3661.40570896875</ele>
        <time>2019-12-28T06:44:05.000Z</time>
      </trkpt>
      <trkpt lat="31.059811" lon="-7.925683">
        <ele>3662.00579954375</ele>
        <time>2019-12-28T06:44:12.000Z</time>
      </trkpt>
      <trkpt lat="31.059808" lon="-7.925662">
        <ele>3662.60009765625</ele>
        <time>2019-12-28T06:44:17.000Z</time>
      </trkpt>
      <trkpt lat="31.059805" lon="-7.925638">
        <ele>3663</ele>
        <time>2019-12-28T06:44:22.000Z</time>
      </trkpt>
      <trkpt lat="31.059786" lon="-7.925635">
        <ele>3663.39990234375</ele>
        <time>2019-12-28T06:44:27.000Z</time>
      </trkpt>
      <trkpt lat="31.059773" lon="-7.92565">
        <ele>3664.20575071563</ele>
        <time>2019-12-28T06:44:37.000Z</time>
      </trkpt>
      <trkpt lat="31.059754" lon="-7.925645">
        <ele>3665.00579954375</ele>
        <time>2019-12-28T06:44:47.000Z</time>
      </trkpt>
      <trkpt lat="31.059747" lon="-7.925623">
        <ele>3665.40570896875</ele>
        <time>2019-12-28T06:44:55.000Z</time>
      </trkpt>
      <trkpt lat="31.059744" lon="-7.9256">
        <ele>3666.39990234375</ele>
        <time>2019-12-28T06:45:06.000Z</time>
      </trkpt>
      <trkpt lat="31.059722" lon="-7.925606">
        <ele>3667.39990234375</ele>
        <time>2019-12-28T06:45:19.000Z</time>
      </trkpt>
      <trkpt lat="31.059706" lon="-7.925595">
        <ele>3668.60009765625</ele>
        <time>2019-12-28T06:45:31.000Z</time>
      </trkpt>
      <trkpt lat="31.059722" lon="-7.925583">
        <ele>3670</ele>
        <time>2019-12-28T06:45:49.000Z</time>
      </trkpt>
      <trkpt lat="31.059728" lon="-7.925558">
        <ele>3670.80004882813</ele>
        <time>2019-12-28T06:45:59.000Z</time>
      </trkpt>
      <trkpt lat="31.059718" lon="-7.925538">
        <ele>3671.39990234375</ele>
        <time>2019-12-28T06:46:05.000Z</time>
      </trkpt>
      <trkpt lat="31.059709" lon="-7.925518">
        <ele>3671.80004882813</ele>
        <time>2019-12-28T06:46:09.000Z</time>
      </trkpt>
      <trkpt lat="31.059699" lon="-7.925497">
        <ele>3672.20575071563</ele>
        <time>2019-12-28T06:46:14.000Z</time>
      </trkpt>
      <trkpt lat="31.059696" lon="-7.925472">
        <ele>3673</ele>
        <time>2019-12-28T06:46:21.000Z</time>
      </trkpt>
      <trkpt lat="31.05969" lon="-7.925449">
        <ele>3674</ele>
        <time>2019-12-28T06:46:30.000Z</time>
      </trkpt>
      <trkpt lat="31.059686" lon="-7.925426">
        <ele>3675</ele>
        <time>2019-12-28T06:46:39.000Z</time>
      </trkpt>
      <trkpt lat="31.059696" lon="-7.925403">
        <ele>3675.40570896875</ele>
        <time>2019-12-28T06:46:43.000Z</time>
      </trkpt>
      <trkpt lat="31.059699" lon="-7.925382">
        <ele>3676.19995117188</ele>
        <time>2019-12-28T06:46:48.000Z</time>
      </trkpt>
      <trkpt lat="31.059699" lon="-7.92536">
        <ele>3676.80584837188</ele>
        <time>2019-12-28T06:46:54.000Z</time>
      </trkpt>
      <trkpt lat="31.059696" lon="-7.925338">
        <ele>3677.20575071563</ele>
        <time>2019-12-28T06:46:57.000Z</time>
      </trkpt>
      <trkpt lat="31.05968" lon="-7.925327">
        <ele>3677.80584837188</ele>
        <time>2019-12-28T06:47:03.000Z</time>
      </trkpt>
      <trkpt lat="31.059667" lon="-7.925311">
        <ele>3678.40570896875</ele>
        <time>2019-12-28T06:47:09.000Z</time>
      </trkpt>
      <trkpt lat="31.059658" lon="-7.925291">
        <ele>3679.60009765625</ele>
        <time>2019-12-28T06:47:22.000Z</time>
      </trkpt>
      <trkpt lat="31.059645" lon="-7.925266">
        <ele>3680.39990234375</ele>
        <time>2019-12-28T06:47:31.000Z</time>
      </trkpt>
      <trkpt lat="31.059642" lon="-7.925245">
        <ele>3680.80004882813</ele>
        <time>2019-12-28T06:47:35.000Z</time>
      </trkpt>
      <trkpt lat="31.059635" lon="-7.92522">
        <ele>3681.40570896875</ele>
        <time>2019-12-28T06:47:41.000Z</time>
      </trkpt>
      <trkpt lat="31.059626" lon="-7.925198">
        <ele>3682.00579954375</ele>
        <time>2019-12-28T06:47:46.000Z</time>
      </trkpt>
      <trkpt lat="31.05961" lon="-7.925189">
        <ele>3684.20575071563</ele>
        <time>2019-12-28T06:48:06.000Z</time>
      </trkpt>
      <trkpt lat="31.059603" lon="-7.925165">
        <ele>3685.39990234375</ele>
        <time>2019-12-28T06:48:27.000Z</time>
      </trkpt>
      <trkpt lat="31.05961" lon="-7.925142">
        <ele>3685.60009765625</ele>
        <time>2019-12-28T06:48:31.000Z</time>
      </trkpt>
      <trkpt lat="31.059613" lon="-7.925117">
        <ele>3689</ele>
        <time>2019-12-28T06:52:13.000Z</time>
      </trkpt>
      <trkpt lat="31.05961" lon="-7.925095">
        <ele>3689.20575071563</ele>
        <time>2019-12-28T06:52:17.000Z</time>
      </trkpt>
      <trkpt lat="31.0596" lon="-7.92507">
        <ele>3689.60009765625</ele>
        <time>2019-12-28T06:52:21.000Z</time>
      </trkpt>
      <trkpt lat="31.0596" lon="-7.925048">
        <ele>3690.00579954375</ele>
        <time>2019-12-28T06:52:26.000Z</time>
      </trkpt>
      <trkpt lat="31.0596" lon="-7.925025">
        <ele>3690.60009765625</ele>
        <time>2019-12-28T06:52:33.000Z</time>
      </trkpt>
      <trkpt lat="31.0596" lon="-7.925003">
        <ele>3691.00579954375</ele>
        <time>2019-12-28T06:52:39.000Z</time>
      </trkpt>
      <trkpt lat="31.059587" lon="-7.924988">
        <ele>3692</ele>
        <time>2019-12-28T06:52:48.000Z</time>
      </trkpt>
      <trkpt lat="31.059594" lon="-7.924968">
        <ele>3692.40570896875</ele>
        <time>2019-12-28T06:52:54.000Z</time>
      </trkpt>
      <trkpt lat="31.059584" lon="-7.924945">
        <ele>3693</ele>
        <time>2019-12-28T06:53:02.000Z</time>
      </trkpt>
      <trkpt lat="31.059562" lon="-7.924942">
        <ele>3693.40570896875</ele>
        <time>2019-12-28T06:53:09.000Z</time>
      </trkpt>
      <trkpt lat="31.059549" lon="-7.924922">
        <ele>3694</ele>
        <time>2019-12-28T06:53:15.000Z</time>
      </trkpt>
      <trkpt lat="31.059542" lon="-7.924902">
        <ele>3694.40570896875</ele>
        <time>2019-12-28T06:53:20.000Z</time>
      </trkpt>
      <trkpt lat="31.059549" lon="-7.92488">
        <ele>3694.80584837188</ele>
        <time>2019-12-28T06:53:24.000Z</time>
      </trkpt>
      <trkpt lat="31.059565" lon="-7.924866">
        <ele>3695.20575071563</ele>
        <time>2019-12-28T06:53:28.000Z</time>
      </trkpt>
      <trkpt lat="31.059578" lon="-7.924846">
        <ele>3695.6058972</ele>
        <time>2019-12-28T06:53:32.000Z</time>
      </trkpt>
      <trkpt lat="31.059594" lon="-7.924832">
        <ele>3696.20575071563</ele>
        <time>2019-12-28T06:53:37.000Z</time>
      </trkpt>
      <trkpt lat="31.05961" lon="-7.924818">
        <ele>3696.6058972</ele>
        <time>2019-12-28T06:53:40.000Z</time>
      </trkpt>
      <trkpt lat="31.0596" lon="-7.924795">
        <ele>3697.20575071563</ele>
        <time>2019-12-28T06:53:44.000Z</time>
      </trkpt>
      <trkpt lat="31.059581" lon="-7.924789">
        <ele>3697.80584837188</ele>
        <time>2019-12-28T06:53:48.000Z</time>
      </trkpt>
      <trkpt lat="31.059565" lon="-7.924775">
        <ele>3699.00579954375</ele>
        <time>2019-12-28T06:53:56.000Z</time>
      </trkpt>
      <trkpt lat="31.059549" lon="-7.924763">
        <ele>3699.39990234375</ele>
        <time>2019-12-28T06:53:59.000Z</time>
      </trkpt>
      <trkpt lat="31.059526" lon="-7.924757">
        <ele>3699.80004882813</ele>
        <time>2019-12-28T06:54:04.000Z</time>
      </trkpt>
      <trkpt lat="31.059514" lon="-7.924742">
        <ele>3700.00579954375</ele>
        <time>2019-12-28T06:54:08.000Z</time>
      </trkpt>
      <trkpt lat="31.05952" lon="-7.924718">
        <ele>3700.40570896875</ele>
        <time>2019-12-28T06:54:14.000Z</time>
      </trkpt>
      <trkpt lat="31.05952" lon="-7.924697">
        <ele>3701</ele>
        <time>2019-12-28T06:54:20.000Z</time>
      </trkpt>
      <trkpt lat="31.059498" lon="-7.924678">
        <ele>3701.80584837188</ele>
        <time>2019-12-28T06:54:28.000Z</time>
      </trkpt>
      <trkpt lat="31.059478" lon="-7.924677">
        <ele>3702.20575071563</ele>
        <time>2019-12-28T06:54:31.000Z</time>
      </trkpt>
      <trkpt lat="31.059459" lon="-7.924686">
        <ele>3702.80584837188</ele>
        <time>2019-12-28T06:54:35.000Z</time>
      </trkpt>
      <trkpt lat="31.05944" lon="-7.924693">
        <ele>3703.19995117188</ele>
        <time>2019-12-28T06:54:38.000Z</time>
      </trkpt>
      <trkpt lat="31.059424" lon="-7.924713">
        <ele>3703.60009765625</ele>
        <time>2019-12-28T06:54:44.000Z</time>
      </trkpt>
      <trkpt lat="31.059414" lon="-7.924686">
        <ele>3703.80004882813</ele>
        <time>2019-12-28T06:54:56.000Z</time>
      </trkpt>
      <trkpt lat="31.059408" lon="-7.924662">
        <ele>3704.19995117188</ele>
        <time>2019-12-28T06:55:02.000Z</time>
      </trkpt>
      <trkpt lat="31.059392" lon="-7.924643">
        <ele>3704.40570896875</ele>
        <time>2019-12-28T06:55:08.000Z</time>
      </trkpt>
      <trkpt lat="31.05937" lon="-7.92465">
        <ele>3705</ele>
        <time>2019-12-28T06:55:13.000Z</time>
      </trkpt>
      <trkpt lat="31.059354" lon="-7.92466">
        <ele>3705.20575071563</ele>
        <time>2019-12-28T06:55:17.000Z</time>
      </trkpt>
      <trkpt lat="31.059334" lon="-7.924657">
        <ele>3706.00579954375</ele>
        <time>2019-12-28T06:55:25.000Z</time>
      </trkpt>
      <trkpt lat="31.059322" lon="-7.92464">
        <ele>3707.19995117188</ele>
        <time>2019-12-28T06:55:34.000Z</time>
      </trkpt>
      <trkpt lat="31.059325" lon="-7.924617">
        <ele>3707.60009765625</ele>
        <time>2019-12-28T06:55:37.000Z</time>
      </trkpt>
      <trkpt lat="31.059325" lon="-7.924594">
        <ele>3708</ele>
        <time>2019-12-28T06:55:41.000Z</time>
      </trkpt>
      <trkpt lat="31.059302" lon="-7.924594">
        <ele>3708.40570896875</ele>
        <time>2019-12-28T06:55:45.000Z</time>
      </trkpt>
      <trkpt lat="31.059283" lon="-7.924602">
        <ele>3709.80584837188</ele>
        <time>2019-12-28T06:55:53.000Z</time>
      </trkpt>
      <trkpt lat="31.059261" lon="-7.924588">
        <ele>3711.00579954375</ele>
        <time>2019-12-28T06:56:01.000Z</time>
      </trkpt>
      <trkpt lat="31.059245" lon="-7.924578">
        <ele>3712.19995117188</ele>
        <time>2019-12-28T06:56:09.000Z</time>
      </trkpt>
      <trkpt lat="31.059232" lon="-7.924562">
        <ele>3712.80004882813</ele>
        <time>2019-12-28T06:56:16.000Z</time>
      </trkpt>
      <trkpt lat="31.059213" lon="-7.924571">
        <ele>3713.19995117188</ele>
        <time>2019-12-28T06:56:21.000Z</time>
      </trkpt>
      <trkpt lat="31.059194" lon="-7.924574">
        <ele>3713.80004882813</ele>
        <time>2019-12-28T06:56:28.000Z</time>
      </trkpt>
      <trkpt lat="31.059174" lon="-7.924566">
        <ele>3714.39990234375</ele>
        <time>2019-12-28T06:56:34.000Z</time>
      </trkpt>
      <trkpt lat="31.059165" lon="-7.924545">
        <ele>3715.00579954375</ele>
        <time>2019-12-28T06:56:40.000Z</time>
      </trkpt>
      <trkpt lat="31.059155" lon="-7.924526">
        <ele>3715.6058972</ele>
        <time>2019-12-28T06:56:44.000Z</time>
      </trkpt>
      <trkpt lat="31.059133" lon="-7.924523">
        <ele>3717.00579954375</ele>
        <time>2019-12-28T06:56:54.000Z</time>
      </trkpt>
      <trkpt lat="31.059117" lon="-7.924514">
        <ele>3717.6058972</ele>
        <time>2019-12-28T06:56:59.000Z</time>
      </trkpt>
      <trkpt lat="31.059098" lon="-7.924508">
        <ele>3718.19995117188</ele>
        <time>2019-12-28T06:57:03.000Z</time>
      </trkpt>
      <trkpt lat="31.059085" lon="-7.92449">
        <ele>3718.80584837188</ele>
        <time>2019-12-28T06:57:09.000Z</time>
      </trkpt>
      <trkpt lat="31.059072" lon="-7.924474">
        <ele>3719.60009765625</ele>
        <time>2019-12-28T06:57:15.000Z</time>
      </trkpt>
      <trkpt lat="31.059053" lon="-7.924466">
        <ele>3720.00579954375</ele>
        <time>2019-12-28T06:57:19.000Z</time>
      </trkpt>
      <trkpt lat="31.059037" lon="-7.924446">
        <ele>3721.20575071563</ele>
        <time>2019-12-28T06:57:27.000Z</time>
      </trkpt>
      <trkpt lat="31.059018" lon="-7.924452">
        <ele>3722.60009765625</ele>
        <time>2019-12-28T06:57:36.000Z</time>
      </trkpt>
      <trkpt lat="31.058995" lon="-7.92443">
        <ele>3723.20575071563</ele>
        <time>2019-12-28T06:57:41.000Z</time>
      </trkpt>
      <trkpt lat="31.058973" lon="-7.924429">
        <ele>3724.80004882813</ele>
        <time>2019-12-28T06:57:53.000Z</time>
      </trkpt>
      <trkpt lat="31.05897" lon="-7.924405">
        <ele>3725.80004882813</ele>
        <time>2019-12-28T06:58:01.000Z</time>
      </trkpt>
      <trkpt lat="31.058963" lon="-7.924383">
        <ele>3726.40570896875</ele>
        <time>2019-12-28T06:58:06.000Z</time>
      </trkpt>
      <trkpt lat="31.058954" lon="-7.924365">
        <ele>3727.60609683125</ele>
        <time>2019-12-28T06:58:15.000Z</time>
      </trkpt>
      <trkpt lat="31.058944" lon="-7.92434">
        <ele>3728.20575651168</ele>
        <time>2019-12-28T06:58:19.000Z</time>
      </trkpt>
      <trkpt lat="31.058934" lon="-7.924318">
        <ele>3728.80584837188</ele>
        <time>2019-12-28T06:58:25.000Z</time>
      </trkpt>
      <trkpt lat="31.058922" lon="-7.924298">
        <ele>3729.40570896875</ele>
        <time>2019-12-28T06:58:30.000Z</time>
      </trkpt>
      <trkpt lat="31.058915" lon="-7.924275">
        <ele>3730.00579954375</ele>
        <time>2019-12-28T06:58:35.000Z</time>
      </trkpt>
      <trkpt lat="31.058909" lon="-7.924251">
        <ele>3730.40590285284</ele>
        <time>2019-12-28T06:58:39.000Z</time>
      </trkpt>
      <trkpt lat="31.058899" lon="-7.924231">
        <ele>3730.80584837188</ele>
        <time>2019-12-28T06:58:43.000Z</time>
      </trkpt>
      <trkpt lat="31.058893" lon="-7.92421">
        <ele>3731.20575071563</ele>
        <time>2019-12-28T06:58:47.000Z</time>
      </trkpt>
      <trkpt lat="31.058886" lon="-7.924186">
        <ele>3731.80004882813</ele>
        <time>2019-12-28T06:58:52.000Z</time>
      </trkpt>
      <trkpt lat="31.058883" lon="-7.92416">
        <ele>3732.20575071563</ele>
        <time>2019-12-28T06:58:58.000Z</time>
      </trkpt>
      <trkpt lat="31.058877" lon="-7.92414">
        <ele>3732.80004882813</ele>
        <time>2019-12-28T06:59:04.000Z</time>
      </trkpt>
      <trkpt lat="31.058867" lon="-7.924122">
        <ele>3733.20575071563</ele>
        <time>2019-12-28T06:59:08.000Z</time>
      </trkpt>
      <trkpt lat="31.058858" lon="-7.924102">
        <ele>3734.00579954375</ele>
        <time>2019-12-28T06:59:12.000Z</time>
      </trkpt>
      <trkpt lat="31.058848" lon="-7.924078">
        <ele>3734.60009765625</ele>
        <time>2019-12-28T06:59:16.000Z</time>
      </trkpt>
      <trkpt lat="31.058845" lon="-7.924055">
        <ele>3735.19995117188</ele>
        <time>2019-12-28T06:59:23.000Z</time>
      </trkpt>
      <trkpt lat="31.058842" lon="-7.92403">
        <ele>3735.80004882813</ele>
        <time>2019-12-28T06:59:29.000Z</time>
      </trkpt>
      <trkpt lat="31.058832" lon="-7.92401">
        <ele>3736.19995117188</ele>
        <time>2019-12-28T06:59:34.000Z</time>
      </trkpt>
      <trkpt lat="31.058822" lon="-7.92399">
        <ele>3737.19995117188</ele>
        <time>2019-12-28T06:59:43.000Z</time>
      </trkpt>
      <trkpt lat="31.058822" lon="-7.923965">
        <ele>3737.80585416793</ele>
        <time>2019-12-28T06:59:48.000Z</time>
      </trkpt>
      <trkpt lat="31.058819" lon="-7.92394">
        <ele>3738.80585416793</ele>
        <time>2019-12-28T06:59:53.000Z</time>
      </trkpt>
      <trkpt lat="31.058822" lon="-7.923917">
        <ele>3739.61169674375</ele>
        <time>2019-12-28T06:59:57.000Z</time>
      </trkpt>
      <trkpt lat="31.058826" lon="-7.923895">
        <ele>3740.6058972</ele>
        <time>2019-12-28T07:00:01.000Z</time>
      </trkpt>
      <trkpt lat="31.058826" lon="-7.923874">
        <ele>3741.61169674375</ele>
        <time>2019-12-28T07:00:05.000Z</time>
      </trkpt>
      <trkpt lat="31.058826" lon="-7.923851">
        <ele>3742.61169674375</ele>
        <time>2019-12-28T07:00:09.000Z</time>
      </trkpt>
      <trkpt lat="31.058819" lon="-7.92383">
        <ele>3744.00579954375</ele>
        <time>2019-12-28T07:00:14.000Z</time>
      </trkpt>
      <trkpt lat="31.058816" lon="-7.923808">
        <ele>3745.00579954375</ele>
        <time>2019-12-28T07:00:18.000Z</time>
      </trkpt>
      <trkpt lat="31.058816" lon="-7.923786">
        <ele>3746.00579954375</ele>
        <time>2019-12-28T07:00:22.000Z</time>
      </trkpt>
      <trkpt lat="31.058816" lon="-7.923765">
        <ele>3746.80584837188</ele>
        <time>2019-12-28T07:00:26.000Z</time>
      </trkpt>
      <trkpt lat="31.058819" lon="-7.923743">
        <ele>3747.80584837188</ele>
        <time>2019-12-28T07:00:30.000Z</time>
      </trkpt>
      <trkpt lat="31.058819" lon="-7.923718">
        <ele>3748.6058972</ele>
        <time>2019-12-28T07:00:34.000Z</time>
      </trkpt>
      <trkpt lat="31.058819" lon="-7.923693">
        <ele>3749.80584837188</ele>
        <time>2019-12-28T07:00:39.000Z</time>
      </trkpt>
      <trkpt lat="31.058826" lon="-7.923666">
        <ele>3750.80585416793</ele>
        <time>2019-12-28T07:00:44.000Z</time>
      </trkpt>
      <trkpt lat="31.058829" lon="-7.923643">
        <ele>3752.00579954375</ele>
        <time>2019-12-28T07:00:49.000Z</time>
      </trkpt>
      <trkpt lat="31.058835" lon="-7.923618">
        <ele>3753.00579954375</ele>
        <time>2019-12-28T07:00:54.000Z</time>
      </trkpt>
      <trkpt lat="31.058842" lon="-7.923592">
        <ele>3754.20575071563</ele>
        <time>2019-12-28T07:00:59.000Z</time>
      </trkpt>
      <trkpt lat="31.058848" lon="-7.923571">
        <ele>3755.20594436327</ele>
        <time>2019-12-28T07:01:04.000Z</time>
      </trkpt>
      <trkpt lat="31.058845" lon="-7.923546">
        <ele>3756.20575071563</ele>
        <time>2019-12-28T07:01:10.000Z</time>
      </trkpt>
      <trkpt lat="31.058838" lon="-7.923525">
        <ele>3757.19995117188</ele>
        <time>2019-12-28T07:01:15.000Z</time>
      </trkpt>
      <trkpt lat="31.058838" lon="-7.923502">
        <ele>3758.20594436327</ele>
        <time>2019-12-28T07:01:21.000Z</time>
      </trkpt>
      <trkpt lat="31.058858" lon="-7.923491">
        <ele>3759</ele>
        <time>2019-12-28T07:01:25.000Z</time>
      </trkpt>
      <trkpt lat="31.058874" lon="-7.923474">
        <ele>3759.6058972</ele>
        <time>2019-12-28T07:01:29.000Z</time>
      </trkpt>
      <trkpt lat="31.058883" lon="-7.923454">
        <ele>3760.20575071563</ele>
        <time>2019-12-28T07:01:33.000Z</time>
      </trkpt>
      <trkpt lat="31.058883" lon="-7.923429">
        <ele>3760.80585416793</ele>
        <time>2019-12-28T07:01:37.000Z</time>
      </trkpt>
      <trkpt lat="31.058874" lon="-7.92341">
        <ele>3761.40590285284</ele>
        <time>2019-12-28T07:01:41.000Z</time>
      </trkpt>
      <trkpt lat="31.058854" lon="-7.923405">
        <ele>3762.20575071563</ele>
        <time>2019-12-28T07:01:46.000Z</time>
      </trkpt>
      <trkpt lat="31.058835" lon="-7.923406">
        <ele>3763.00579954375</ele>
        <time>2019-12-28T07:01:51.000Z</time>
      </trkpt>
      <trkpt lat="31.058829" lon="-7.923383">
        <ele>3764.20575071563</ele>
        <time>2019-12-28T07:01:59.000Z</time>
      </trkpt>
      <trkpt lat="31.058829" lon="-7.923362">
        <ele>3765.19995117188</ele>
        <time>2019-12-28T07:02:05.000Z</time>
      </trkpt>
      <trkpt lat="31.058826" lon="-7.92334">
        <ele>3765.80004882813</ele>
        <time>2019-12-28T07:02:09.000Z</time>
      </trkpt>
      <trkpt lat="31.058826" lon="-7.923318">
        <ele>3766.20595034687</ele>
        <time>2019-12-28T07:02:13.000Z</time>
      </trkpt>
      <trkpt lat="31.058819" lon="-7.923297">
        <ele>3767</ele>
        <time>2019-12-28T07:02:18.000Z</time>
      </trkpt>
      <trkpt lat="31.058813" lon="-7.923277">
        <ele>3767.80584837188</ele>
        <time>2019-12-28T07:02:24.000Z</time>
      </trkpt>
      <trkpt lat="31.0588" lon="-7.923254">
        <ele>3768.6058972</ele>
        <time>2019-12-28T07:02:29.000Z</time>
      </trkpt>
      <trkpt lat="31.058787" lon="-7.923238">
        <ele>3771.80584837188</ele>
        <time>2019-12-28T07:02:51.000Z</time>
      </trkpt>
      <trkpt lat="31.058787" lon="-7.923214">
        <ele>3773.60009765625</ele>
        <time>2019-12-28T07:03:27.000Z</time>
      </trkpt>
      <trkpt lat="31.058787" lon="-7.923185">
        <ele>3774.00579954375</ele>
        <time>2019-12-28T07:03:32.000Z</time>
      </trkpt>
      <trkpt lat="31.058784" lon="-7.92316">
        <ele>3774.60609084765</ele>
        <time>2019-12-28T07:03:37.000Z</time>
      </trkpt>
      <trkpt lat="31.058778" lon="-7.923137">
        <ele>3775.20595034687</ele>
        <time>2019-12-28T07:03:42.000Z</time>
      </trkpt>
      <trkpt lat="31.058774" lon="-7.923114">
        <ele>3776.00579954375</ele>
        <time>2019-12-28T07:03:47.000Z</time>
      </trkpt>
      <trkpt lat="31.058768" lon="-7.923088">
        <ele>3777.0058053398</ele>
        <time>2019-12-28T07:03:52.000Z</time>
      </trkpt>
      <trkpt lat="31.058768" lon="-7.923066">
        <ele>3777.80584837188</ele>
        <time>2019-12-28T07:03:56.000Z</time>
      </trkpt>
      <trkpt lat="31.058768" lon="-7.923045">
        <ele>3778.80004882813</ele>
        <time>2019-12-28T07:04:01.000Z</time>
      </trkpt>
      <trkpt lat="31.058771" lon="-7.923023">
        <ele>3781</ele>
        <time>2019-12-28T07:04:16.000Z</time>
      </trkpt>
      <trkpt lat="31.058784" lon="-7.923002">
        <ele>3781.40590285284</ele>
        <time>2019-12-28T07:04:20.000Z</time>
      </trkpt>
      <trkpt lat="31.058787" lon="-7.922978">
        <ele>3781.80584837188</ele>
        <time>2019-12-28T07:04:24.000Z</time>
      </trkpt>
      <trkpt lat="31.058794" lon="-7.922958">
        <ele>3782.39990234375</ele>
        <time>2019-12-28T07:04:28.000Z</time>
      </trkpt>
      <trkpt lat="31.058794" lon="-7.922934">
        <ele>3782.80604201952</ele>
        <time>2019-12-28T07:04:32.000Z</time>
      </trkpt>
      <trkpt lat="31.058787" lon="-7.922912">
        <ele>3783.39990234375</ele>
        <time>2019-12-28T07:04:36.000Z</time>
      </trkpt>
      <trkpt lat="31.058778" lon="-7.92289">
        <ele>3784</ele>
        <time>2019-12-28T07:04:41.000Z</time>
      </trkpt>
      <trkpt lat="31.058768" lon="-7.922871">
        <ele>3784.60009765625</ele>
        <time>2019-12-28T07:04:45.000Z</time>
      </trkpt>
      <trkpt lat="31.058749" lon="-7.922863">
        <ele>3785.20575071563</ele>
        <time>2019-12-28T07:04:50.000Z</time>
      </trkpt>
      <trkpt lat="31.05873" lon="-7.92287">
        <ele>3785.80584837188</ele>
        <time>2019-12-28T07:04:54.000Z</time>
      </trkpt>
      <trkpt lat="31.058714" lon="-7.922885">
        <ele>3786.6058972</ele>
        <time>2019-12-28T07:05:00.000Z</time>
      </trkpt>
      <trkpt lat="31.058694" lon="-7.92289">
        <ele>3787.20575071563</ele>
        <time>2019-12-28T07:05:05.000Z</time>
      </trkpt>
      <trkpt lat="31.058675" lon="-7.922885">
        <ele>3787.60609683125</ele>
        <time>2019-12-28T07:05:09.000Z</time>
      </trkpt>
      <trkpt lat="31.058659" lon="-7.922897">
        <ele>3788.20594436327</ele>
        <time>2019-12-28T07:05:14.000Z</time>
      </trkpt>
      <trkpt lat="31.058646" lon="-7.922882">
        <ele>3789.00579954375</ele>
        <time>2019-12-28T07:05:22.000Z</time>
      </trkpt>
      <trkpt lat="31.058646" lon="-7.92286">
        <ele>3789.6058972</ele>
        <time>2019-12-28T07:05:27.000Z</time>
      </trkpt>
      <trkpt lat="31.058646" lon="-7.922837">
        <ele>3790.20575071563</ele>
        <time>2019-12-28T07:05:32.000Z</time>
      </trkpt>
      <trkpt lat="31.05864" lon="-7.922815">
        <ele>3791.00579954375</ele>
        <time>2019-12-28T07:05:38.000Z</time>
      </trkpt>
      <trkpt lat="31.058624" lon="-7.922798">
        <ele>3791.80584837188</ele>
        <time>2019-12-28T07:05:43.000Z</time>
      </trkpt>
      <trkpt lat="31.058605" lon="-7.922797">
        <ele>3792.60009765625</ele>
        <time>2019-12-28T07:05:48.000Z</time>
      </trkpt>
      <trkpt lat="31.058586" lon="-7.922797">
        <ele>3793.20595034687</ele>
        <time>2019-12-28T07:05:53.000Z</time>
      </trkpt>
      <trkpt lat="31.058566" lon="-7.922803">
        <ele>3794.19995117188</ele>
        <time>2019-12-28T07:05:59.000Z</time>
      </trkpt>
      <trkpt lat="31.05855" lon="-7.922815">
        <ele>3795</ele>
        <time>2019-12-28T07:06:04.000Z</time>
      </trkpt>
      <trkpt lat="31.058531" lon="-7.922826">
        <ele>3796.00579954375</ele>
        <time>2019-12-28T07:06:10.000Z</time>
      </trkpt>
      <trkpt lat="31.058528" lon="-7.922803">
        <ele>3797.39990234375</ele>
        <time>2019-12-28T07:06:20.000Z</time>
      </trkpt>
      <trkpt lat="31.058528" lon="-7.92278">
        <ele>3797.80584837188</ele>
        <time>2019-12-28T07:06:25.000Z</time>
      </trkpt>
      <trkpt lat="31.058518" lon="-7.922758">
        <ele>3798.60009765625</ele>
        <time>2019-12-28T07:06:31.000Z</time>
      </trkpt>
      <trkpt lat="31.058506" lon="-7.922742">
        <ele>3799.00579954375</ele>
        <time>2019-12-28T07:06:37.000Z</time>
      </trkpt>
      <trkpt lat="31.05849" lon="-7.922731">
        <ele>3799.39990234375</ele>
        <time>2019-12-28T07:06:41.000Z</time>
      </trkpt>
      <trkpt lat="31.05847" lon="-7.922726">
        <ele>3799.80004882813</ele>
        <time>2019-12-28T07:06:45.000Z</time>
      </trkpt>
      <trkpt lat="31.058451" lon="-7.922723">
        <ele>3800.19995117188</ele>
        <time>2019-12-28T07:06:50.000Z</time>
      </trkpt>
      <trkpt lat="31.058432" lon="-7.922734">
        <ele>3801.60609683125</ele>
        <time>2019-12-28T07:07:03.000Z</time>
      </trkpt>
      <trkpt lat="31.058413" lon="-7.922745">
        <ele>3802.80004882813</ele>
        <time>2019-12-28T07:07:11.000Z</time>
      </trkpt>
      <trkpt lat="31.058394" lon="-7.922757">
        <ele>3803.19995117188</ele>
        <time>2019-12-28T07:07:15.000Z</time>
      </trkpt>
      <trkpt lat="31.058374" lon="-7.922762">
        <ele>3804.80584837188</ele>
        <time>2019-12-28T07:07:34.000Z</time>
      </trkpt>
      <trkpt lat="31.058368" lon="-7.92274">
        <ele>3805.6058972</ele>
        <time>2019-12-28T07:07:41.000Z</time>
      </trkpt>
      <trkpt lat="31.058358" lon="-7.922722">
        <ele>3806.20594436327</ele>
        <time>2019-12-28T07:07:46.000Z</time>
      </trkpt>
      <trkpt lat="31.058346" lon="-7.922706">
        <ele>3807.19995117188</ele>
        <time>2019-12-28T07:07:53.000Z</time>
      </trkpt>
      <trkpt lat="31.058333" lon="-7.922689">
        <ele>3807.60009765625</ele>
        <time>2019-12-28T07:07:58.000Z</time>
      </trkpt>
      <trkpt lat="31.058314" lon="-7.92268">
        <ele>3808</ele>
        <time>2019-12-28T07:08:02.000Z</time>
      </trkpt>
      <trkpt lat="31.058307" lon="-7.92266">
        <ele>3808.20535976285</ele>
        <time>2019-12-28T07:08:06.000Z</time>
      </trkpt>
      <trkpt lat="31.058294" lon="-7.922643">
        <ele>3808.60009765625</ele>
        <time>2019-12-28T07:08:09.000Z</time>
      </trkpt>
      <trkpt lat="31.058291" lon="-7.922618">
        <ele>3808.80004882813</ele>
        <time>2019-12-28T07:08:12.000Z</time>
      </trkpt>
      <trkpt lat="31.058282" lon="-7.9226">
        <ele>3809</ele>
        <time>2019-12-28T07:08:16.000Z</time>
      </trkpt>
      <trkpt lat="31.058262" lon="-7.922585">
        <ele>3809.40570896875</ele>
        <time>2019-12-28T07:08:22.000Z</time>
      </trkpt>
      <trkpt lat="31.058253" lon="-7.922566">
        <ele>3809.80004882813</ele>
        <time>2019-12-28T07:08:26.000Z</time>
      </trkpt>
      <trkpt lat="31.05824" lon="-7.922548">
        <ele>3810.20575651168</ele>
        <time>2019-12-28T07:08:31.000Z</time>
      </trkpt>
      <trkpt lat="31.058218" lon="-7.922545">
        <ele>3811.00579954375</ele>
        <time>2019-12-28T07:08:37.000Z</time>
      </trkpt>
      <trkpt lat="31.058202" lon="-7.922532">
        <ele>3811.60009765625</ele>
        <time>2019-12-28T07:08:42.000Z</time>
      </trkpt>
      <trkpt lat="31.058195" lon="-7.922511">
        <ele>3812</ele>
        <time>2019-12-28T07:08:46.000Z</time>
      </trkpt>
      <trkpt lat="31.058179" lon="-7.922498">
        <ele>3812.20575071563</ele>
        <time>2019-12-28T07:08:49.000Z</time>
      </trkpt>
      <trkpt lat="31.058163" lon="-7.92248">
        <ele>3812.60590299605</ele>
        <time>2019-12-28T07:08:55.000Z</time>
      </trkpt>
      <trkpt lat="31.05815" lon="-7.92246">
        <ele>3813.39990234375</ele>
        <time>2019-12-28T07:09:01.000Z</time>
      </trkpt>
      <trkpt lat="31.058134" lon="-7.92245">
        <ele>3814.00579954375</ele>
        <time>2019-12-28T07:09:07.000Z</time>
      </trkpt>
      <trkpt lat="31.058131" lon="-7.922425">
        <ele>3814.80584837188</ele>
        <time>2019-12-28T07:09:14.000Z</time>
      </trkpt>
      <trkpt lat="31.058122" lon="-7.922406">
        <ele>3815.60009765625</ele>
        <time>2019-12-28T07:09:18.000Z</time>
      </trkpt>
      <trkpt lat="31.058102" lon="-7.922398">
        <ele>3816.20594436327</ele>
        <time>2019-12-28T07:09:24.000Z</time>
      </trkpt>
      <trkpt lat="31.058083" lon="-7.922386">
        <ele>3816.80004882813</ele>
        <time>2019-12-28T07:09:29.000Z</time>
      </trkpt>
      <trkpt lat="31.058067" lon="-7.922374">
        <ele>3817.19995117188</ele>
        <time>2019-12-28T07:09:37.000Z</time>
      </trkpt>
      <trkpt lat="31.058048" lon="-7.922369">
        <ele>3817</ele>
        <time>2019-12-28T07:09:43.000Z</time>
      </trkpt>
      <trkpt lat="31.058032" lon="-7.922354">
        <ele>3816.79424928437</ele>
        <time>2019-12-28T07:09:47.000Z</time>
      </trkpt>
      <trkpt lat="31.058038" lon="-7.922334">
        <ele>3816.60009765625</ele>
        <time>2019-12-28T07:09:49.000Z</time>
      </trkpt>
      <trkpt lat="31.058035" lon="-7.922309">
        <ele>3816.80004882813</ele>
        <time>2019-12-28T07:09:53.000Z</time>
      </trkpt>
      <trkpt lat="31.058032" lon="-7.922285">
        <ele>3817</ele>
        <time>2019-12-28T07:09:57.000Z</time>
      </trkpt>
      <trkpt lat="31.058029" lon="-7.922263">
        <ele>3817.39990234375</ele>
        <time>2019-12-28T07:10:01.000Z</time>
      </trkpt>
      <trkpt lat="31.058032" lon="-7.922242">
        <ele>3817.60009765625</ele>
        <time>2019-12-28T07:10:04.000Z</time>
      </trkpt>
      <trkpt lat="31.058038" lon="-7.922222">
        <ele>3817.80004882813</ele>
        <time>2019-12-28T07:10:07.000Z</time>
      </trkpt>
      <trkpt lat="31.058038" lon="-7.9222">
        <ele>3818.20575071563</ele>
        <time>2019-12-28T07:10:11.000Z</time>
      </trkpt>
      <trkpt lat="31.058035" lon="-7.922178">
        <ele>3819</ele>
        <time>2019-12-28T07:10:15.000Z</time>
      </trkpt>
      <trkpt lat="31.058038" lon="-7.922154">
        <ele>3819.60009765625</ele>
        <time>2019-12-28T07:10:20.000Z</time>
      </trkpt>
      <trkpt lat="31.058032" lon="-7.922134">
        <ele>3820.40570896875</ele>
        <time>2019-12-28T07:10:26.000Z</time>
      </trkpt>
      <trkpt lat="31.058032" lon="-7.922108">
        <ele>3821.6058972</ele>
        <time>2019-12-28T07:10:31.000Z</time>
      </trkpt>
      <trkpt lat="31.058029" lon="-7.922086">
        <ele>3822.40570896875</ele>
        <time>2019-12-28T07:10:35.000Z</time>
      </trkpt>
      <trkpt lat="31.058029" lon="-7.922063">
        <ele>3823.40570896875</ele>
        <time>2019-12-28T07:10:40.000Z</time>
      </trkpt>
      <trkpt lat="31.058022" lon="-7.922043">
        <ele>3824.80584837188</ele>
        <time>2019-12-28T07:10:47.000Z</time>
      </trkpt>
      <trkpt lat="31.058026" lon="-7.922018">
        <ele>3825.80584837188</ele>
        <time>2019-12-28T07:10:52.000Z</time>
      </trkpt>
      <trkpt lat="31.058029" lon="-7.921995">
        <ele>3826.80604201952</ele>
        <time>2019-12-28T07:10:59.000Z</time>
      </trkpt>
      <trkpt lat="31.058022" lon="-7.921975">
        <ele>3828.00579954375</ele>
        <time>2019-12-28T07:11:11.000Z</time>
      </trkpt>
      <trkpt lat="31.058022" lon="-7.921954">
        <ele>3828.80584837188</ele>
        <time>2019-12-28T07:11:19.000Z</time>
      </trkpt>
      <trkpt lat="31.058022" lon="-7.92193">
        <ele>3829.40570896875</ele>
        <time>2019-12-28T07:11:25.000Z</time>
      </trkpt>
      <trkpt lat="31.058022" lon="-7.921906">
        <ele>3830.20594436327</ele>
        <time>2019-12-28T07:11:31.000Z</time>
      </trkpt>
      <trkpt lat="31.058019" lon="-7.921885">
        <ele>3833.39990234375</ele>
        <time>2019-12-28T07:12:05.000Z</time>
      </trkpt>
      <trkpt lat="31.058019" lon="-7.921857">
        <ele>3833.60009765625</ele>
        <time>2019-12-28T07:12:10.000Z</time>
      </trkpt>
      <trkpt lat="31.058013" lon="-7.921837">
        <ele>3833.80584837188</ele>
        <time>2019-12-28T07:12:14.000Z</time>
      </trkpt>
      <trkpt lat="31.057994" lon="-7.921832">
        <ele>3838.39990234375</ele>
        <time>2019-12-28T07:13:21.000Z</time>
      </trkpt>
      <trkpt lat="31.057987" lon="-7.921811">
        <ele>3838.80004882813</ele>
        <time>2019-12-28T07:13:29.000Z</time>
      </trkpt>
      <trkpt lat="31.057984" lon="-7.92179">
        <ele>3839</ele>
        <time>2019-12-28T07:13:34.000Z</time>
      </trkpt>
      <trkpt lat="31.057984" lon="-7.921766">
        <ele>3839.39990234375</ele>
        <time>2019-12-28T07:13:40.000Z</time>
      </trkpt>
      <trkpt lat="31.057974" lon="-7.921746">
        <ele>3839.80004882813</ele>
        <time>2019-12-28T07:13:45.000Z</time>
      </trkpt>
      <trkpt lat="31.057965" lon="-7.921726">
        <ele>3840.19995117188</ele>
        <time>2019-12-28T07:13:51.000Z</time>
      </trkpt>
      <trkpt lat="31.057968" lon="-7.921706">
        <ele>3840.80584837188</ele>
        <time>2019-12-28T07:13:56.000Z</time>
      </trkpt>
      <trkpt lat="31.057965" lon="-7.921683">
        <ele>3841.6058972</ele>
        <time>2019-12-28T07:14:01.000Z</time>
      </trkpt>
      <trkpt lat="31.057974" lon="-7.921663">
        <ele>3843.80004882813</ele>
        <time>2019-12-28T07:14:22.000Z</time>
      </trkpt>
      <trkpt lat="31.057994" lon="-7.921658">
        <ele>3844.39990234375</ele>
        <time>2019-12-28T07:15:03.000Z</time>
      </trkpt>
      <trkpt lat="31.05799" lon="-7.921635">
        <ele>3844.80004882813</ele>
        <time>2019-12-28T07:15:45.000Z</time>
      </trkpt>
      <trkpt lat="31.057981" lon="-7.921612">
        <ele>3845</ele>
        <time>2019-12-28T07:15:51.000Z</time>
      </trkpt>
      <trkpt lat="31.057974" lon="-7.921592">
        <ele>3845.39990234375</ele>
        <time>2019-12-28T07:15:56.000Z</time>
      </trkpt>
      <trkpt lat="31.057971" lon="-7.92157">
        <ele>3846.20575071563</ele>
        <time>2019-12-28T07:16:04.000Z</time>
      </trkpt>
      <trkpt lat="31.057971" lon="-7.921546">
        <ele>3847</ele>
        <time>2019-12-28T07:16:09.000Z</time>
      </trkpt>
      <trkpt lat="31.057971" lon="-7.921525">
        <ele>3848</ele>
        <time>2019-12-28T07:16:15.000Z</time>
      </trkpt>
      <trkpt lat="31.057965" lon="-7.921505">
        <ele>3849</ele>
        <time>2019-12-28T07:16:22.000Z</time>
      </trkpt>
      <trkpt lat="31.057946" lon="-7.921498">
        <ele>3850.40571477188</ele>
        <time>2019-12-28T07:16:31.000Z</time>
      </trkpt>
      <trkpt lat="31.057933" lon="-7.921483">
        <ele>3851.80585416793</ele>
        <time>2019-12-28T07:16:45.000Z</time>
      </trkpt>
      <trkpt lat="31.057914" lon="-7.921492">
        <ele>3852.39990234375</ele>
        <time>2019-12-28T07:16:51.000Z</time>
      </trkpt>
      <trkpt lat="31.057898" lon="-7.921505">
        <ele>3852.80584837188</ele>
        <time>2019-12-28T07:16:56.000Z</time>
      </trkpt>
      <trkpt lat="31.057878" lon="-7.921507">
        <ele>3853.6058972</ele>
        <time>2019-12-28T07:17:04.000Z</time>
      </trkpt>
      <trkpt lat="31.057878" lon="-7.92148">
        <ele>3854.6058972</ele>
        <time>2019-12-28T07:17:16.000Z</time>
      </trkpt>
      <trkpt lat="31.057885" lon="-7.92146">
        <ele>3855</ele>
        <time>2019-12-28T07:17:20.000Z</time>
      </trkpt>
      <trkpt lat="31.057885" lon="-7.921438">
        <ele>3856</ele>
        <time>2019-12-28T07:17:36.000Z</time>
      </trkpt>
      <trkpt lat="31.057891" lon="-7.921417">
        <ele>3856.20575071563</ele>
        <time>2019-12-28T07:17:40.000Z</time>
      </trkpt>
      <trkpt lat="31.057891" lon="-7.921394">
        <ele>3856.80004882813</ele>
        <time>2019-12-28T07:17:45.000Z</time>
      </trkpt>
      <trkpt lat="31.057891" lon="-7.921371">
        <ele>3857.60009765625</ele>
        <time>2019-12-28T07:17:51.000Z</time>
      </trkpt>
      <trkpt lat="31.057891" lon="-7.921346">
        <ele>3858.40571477188</ele>
        <time>2019-12-28T07:17:57.000Z</time>
      </trkpt>
      <trkpt lat="31.057888" lon="-7.92132">
        <ele>3859.40571477188</ele>
        <time>2019-12-28T07:18:03.000Z</time>
      </trkpt>
      <trkpt lat="31.057878" lon="-7.9213">
        <ele>3860.6058972</ele>
        <time>2019-12-28T07:18:10.000Z</time>
      </trkpt>
      <trkpt lat="31.057882" lon="-7.921278">
        <ele>3861.80584837188</ele>
        <time>2019-12-28T07:18:17.000Z</time>
      </trkpt>
      <trkpt lat="31.057882" lon="-7.921255">
        <ele>3863.20575071563</ele>
        <time>2019-12-28T07:18:25.000Z</time>
      </trkpt>
      <trkpt lat="31.057891" lon="-7.921237">
        <ele>3864.40570896875</ele>
        <time>2019-12-28T07:18:30.000Z</time>
      </trkpt>
      <trkpt lat="31.057901" lon="-7.921217">
        <ele>3865.19995117188</ele>
        <time>2019-12-28T07:18:34.000Z</time>
      </trkpt>
      <trkpt lat="31.057907" lon="-7.921197">
        <ele>3865.80004882813</ele>
        <time>2019-12-28T07:18:39.000Z</time>
      </trkpt>
      <trkpt lat="31.05792" lon="-7.921182">
        <ele>3866.39990234375</ele>
        <time>2019-12-28T07:18:44.000Z</time>
      </trkpt>
      <trkpt lat="31.05792" lon="-7.921158">
        <ele>3866.80585416793</ele>
        <time>2019-12-28T07:18:49.000Z</time>
      </trkpt>
      <trkpt lat="31.057923" lon="-7.921137">
        <ele>3867.20575071563</ele>
        <time>2019-12-28T07:18:53.000Z</time>
      </trkpt>
      <trkpt lat="31.057926" lon="-7.921114">
        <ele>3867.80584837188</ele>
        <time>2019-12-28T07:18:59.000Z</time>
      </trkpt>
      <trkpt lat="31.05793" lon="-7.92109">
        <ele>3868.80604201952</ele>
        <time>2019-12-28T07:19:07.000Z</time>
      </trkpt>
      <trkpt lat="31.057936" lon="-7.921068">
        <ele>3869.60009765625</ele>
        <time>2019-12-28T07:19:12.000Z</time>
      </trkpt>
      <trkpt lat="31.057942" lon="-7.921046">
        <ele>3870.20594436327</ele>
        <time>2019-12-28T07:19:17.000Z</time>
      </trkpt>
      <trkpt lat="31.057952" lon="-7.921025">
        <ele>3870.80584837188</ele>
        <time>2019-12-28T07:19:21.000Z</time>
      </trkpt>
      <trkpt lat="31.057962" lon="-7.921003">
        <ele>3871.6058972</ele>
        <time>2019-12-28T07:19:26.000Z</time>
      </trkpt>
      <trkpt lat="31.057946" lon="-7.920986">
        <ele>3872.40590285284</ele>
        <time>2019-12-28T07:19:30.000Z</time>
      </trkpt>
      <trkpt lat="31.057933" lon="-7.921003">
        <ele>3875.40590285284</ele>
        <time>2019-12-28T07:19:42.000Z</time>
      </trkpt>
      <trkpt lat="31.05792" lon="-7.921026">
        <ele>3876.40570896875</ele>
        <time>2019-12-28T07:19:47.000Z</time>
      </trkpt>
      <trkpt lat="31.057904" lon="-7.921043">
        <ele>3877.20595034687</ele>
        <time>2019-12-28T07:19:50.000Z</time>
      </trkpt>
      <trkpt lat="31.057907" lon="-7.921065">
        <ele>3878.0059931914</ele>
        <time>2019-12-28T07:19:54.000Z</time>
      </trkpt>
      <trkpt lat="31.057891" lon="-7.921075">
        <ele>3878.80004882813</ele>
        <time>2019-12-28T07:19:59.000Z</time>
      </trkpt>
      <trkpt lat="31.057869" lon="-7.92108">
        <ele>3879.60009765625</ele>
        <time>2019-12-28T07:20:09.000Z</time>
      </trkpt>
      <trkpt lat="31.057846" lon="-7.921085">
        <ele>3879.80584837188</ele>
        <time>2019-12-28T07:20:16.000Z</time>
      </trkpt>
      <trkpt lat="31.05783" lon="-7.9211">
        <ele>3880</ele>
        <time>2019-12-28T07:20:21.000Z</time>
      </trkpt>
      <trkpt lat="31.057814" lon="-7.92111">
        <ele>3880.19995117188</ele>
        <time>2019-12-28T07:20:26.000Z</time>
      </trkpt>
      <trkpt lat="31.057827" lon="-7.921091">
        <ele>3881.19995117188</ele>
        <time>2019-12-28T07:20:54.000Z</time>
      </trkpt>
      <trkpt lat="31.057834" lon="-7.92107">
        <ele>3881.20575071563</ele>
        <time>2019-12-28T07:20:58.000Z</time>
      </trkpt>
      <trkpt lat="31.057834" lon="-7.921046">
        <ele>3881.60009765625</ele>
        <time>2019-12-28T07:21:03.000Z</time>
      </trkpt>
      <trkpt lat="31.057818" lon="-7.921026">
        <ele>3882.20575071563</ele>
        <time>2019-12-28T07:21:08.000Z</time>
      </trkpt>
      <trkpt lat="31.057795" lon="-7.92103">
        <ele>3883.20575071563</ele>
        <time>2019-12-28T07:21:15.000Z</time>
      </trkpt>
      <trkpt lat="31.057776" lon="-7.92104">
        <ele>3883.60009765625</ele>
        <time>2019-12-28T07:21:20.000Z</time>
      </trkpt>
      <trkpt lat="31.057757" lon="-7.921043">
        <ele>3883.80584837188</ele>
        <time>2019-12-28T07:21:41.000Z</time>
      </trkpt>
      <trkpt lat="31.057741" lon="-7.921054">
        <ele>3884.19995117188</ele>
        <time>2019-12-28T07:21:47.000Z</time>
      </trkpt>
      <trkpt lat="31.057722" lon="-7.921057">
        <ele>3884.39990234375</ele>
        <time>2019-12-28T07:21:53.000Z</time>
      </trkpt>
      <trkpt lat="31.057702" lon="-7.921057">
        <ele>3884.40570896875</ele>
        <time>2019-12-28T07:21:57.000Z</time>
      </trkpt>
      <trkpt lat="31.057683" lon="-7.921055">
        <ele>3884.60009765625</ele>
        <time>2019-12-28T07:22:00.000Z</time>
      </trkpt>
      <trkpt lat="31.057664" lon="-7.921058">
        <ele>3884.80584837188</ele>
        <time>2019-12-28T07:22:04.000Z</time>
      </trkpt>
      <trkpt lat="31.057645" lon="-7.921062">
        <ele>3885.19995117188</ele>
        <time>2019-12-28T07:22:10.000Z</time>
      </trkpt>
      <trkpt lat="31.057626" lon="-7.921058">
        <ele>3885.39990234375</ele>
        <time>2019-12-28T07:22:13.000Z</time>
      </trkpt>
      <trkpt lat="31.057606" lon="-7.92106">
        <ele>3885.60009765625</ele>
        <time>2019-12-28T07:22:16.000Z</time>
      </trkpt>
      <trkpt lat="31.057587" lon="-7.92106">
        <ele>3885.80584837188</ele>
        <time>2019-12-28T07:22:20.000Z</time>
      </trkpt>
      <trkpt lat="31.057568" lon="-7.921062">
        <ele>3886.19995117188</ele>
        <time>2019-12-28T07:22:24.000Z</time>
      </trkpt>
      <trkpt lat="31.057555" lon="-7.921046">
        <ele>3886.39990234375</ele>
        <time>2019-12-28T07:22:32.000Z</time>
      </trkpt>
      <trkpt lat="31.057542" lon="-7.921026">
        <ele>3886.40570896875</ele>
        <time>2019-12-28T07:22:37.000Z</time>
      </trkpt>
      <trkpt lat="31.05752" lon="-7.921022">
        <ele>3886.80004882813</ele>
        <time>2019-12-28T07:22:41.000Z</time>
      </trkpt>
      <trkpt lat="31.057504" lon="-7.921034">
        <ele>3887</ele>
        <time>2019-12-28T07:22:46.000Z</time>
      </trkpt>
      <trkpt lat="31.057482" lon="-7.921035">
        <ele>3887.39990234375</ele>
        <time>2019-12-28T07:22:52.000Z</time>
      </trkpt>
      <trkpt lat="31.057462" lon="-7.921045">
        <ele>3887.80004882813</ele>
        <time>2019-12-28T07:22:57.000Z</time>
      </trkpt>
      <trkpt lat="31.057443" lon="-7.921037">
        <ele>3888.60609084765</ele>
        <time>2019-12-28T07:23:07.000Z</time>
      </trkpt>
      <trkpt lat="31.057424" lon="-7.92103">
        <ele>3889</ele>
        <time>2019-12-28T07:23:11.000Z</time>
      </trkpt>
      <trkpt lat="31.057408" lon="-7.921018">
        <ele>3889.39990234375</ele>
        <time>2019-12-28T07:23:14.000Z</time>
      </trkpt>
      <trkpt lat="31.057398" lon="-7.921">
        <ele>3890.00579954375</ele>
        <time>2019-12-28T07:23:20.000Z</time>
      </trkpt>
      <trkpt lat="31.057389" lon="-7.920982">
        <ele>3890.80584837188</ele>
        <time>2019-12-28T07:23:26.000Z</time>
      </trkpt>
      <trkpt lat="31.057376" lon="-7.920963">
        <ele>3892.00579954375</ele>
        <time>2019-12-28T07:23:34.000Z</time>
      </trkpt>
      <trkpt lat="31.05737" lon="-7.920943">
        <ele>3892.6058972</ele>
        <time>2019-12-28T07:23:38.000Z</time>
      </trkpt>
      <trkpt lat="31.057354" lon="-7.920929">
        <ele>3894.00579954375</ele>
        <time>2019-12-28T07:23:49.000Z</time>
      </trkpt>
      <trkpt lat="31.057334" lon="-7.920938">
        <ele>3895.60009765625</ele>
        <time>2019-12-28T07:24:25.000Z</time>
      </trkpt>
      <trkpt lat="31.057325" lon="-7.92092">
        <ele>3894.40570896875</ele>
        <time>2019-12-28T07:26:00.000Z</time>
      </trkpt>
      <trkpt lat="31.057338" lon="-7.9209">
        <ele>3894.80004882813</ele>
        <time>2019-12-28T07:27:25.000Z</time>
      </trkpt>
      <trkpt lat="31.057318" lon="-7.920902">
        <ele>3897.40570896875</ele>
        <time>2019-12-28T07:27:59.000Z</time>
      </trkpt>
      <trkpt lat="31.057328" lon="-7.920925">
        <ele>3898.80004882813</ele>
        <time>2019-12-28T07:28:29.000Z</time>
      </trkpt>
      <trkpt lat="31.057338" lon="-7.920946">
        <ele>3898.80004882813</ele>
        <time>2019-12-28T07:28:33.000Z</time>
      </trkpt>
      <trkpt lat="31.057354" lon="-7.920957">
        <ele>3898.39990234375</ele>
        <time>2019-12-28T07:29:17.000Z</time>
      </trkpt>
      <trkpt lat="31.057354" lon="-7.920934">
        <ele>3898.60009765625</ele>
        <time>2019-12-28T07:30:14.000Z</time>
      </trkpt>
      <trkpt lat="31.057363" lon="-7.920914">
        <ele>3898.990601975</ele>
        <time>2019-12-28T07:30:20.000Z</time>
      </trkpt>
      <trkpt lat="31.057366" lon="-7.920893">
        <ele>3899.19995117188</ele>
        <time>2019-12-28T07:30:23.000Z</time>
      </trkpt>
      <trkpt lat="31.057363" lon="-7.920866">
        <ele>3899.59068815625</ele>
        <time>2019-12-28T07:30:26.000Z</time>
      </trkpt>
      <trkpt lat="31.05735" lon="-7.920848">
        <ele>3900</ele>
        <time>2019-12-28T07:30:29.000Z</time>
      </trkpt>
      <trkpt lat="31.057325" lon="-7.920835">
        <ele>3900.79065080313</ele>
        <time>2019-12-28T07:30:33.000Z</time>
      </trkpt>
      <trkpt lat="31.057306" lon="-7.920823">
        <ele>3901.39048551523</ele>
        <time>2019-12-28T07:30:36.000Z</time>
      </trkpt>
      <trkpt lat="31.057286" lon="-7.920817">
        <ele>3902.19055314688</ele>
        <time>2019-12-28T07:30:41.000Z</time>
      </trkpt>
      <trkpt lat="31.057267" lon="-7.920814">
        <ele>3902.59068815625</ele>
        <time>2019-12-28T07:30:44.000Z</time>
      </trkpt>
      <trkpt lat="31.057254" lon="-7.920797">
        <ele>3903.19055314688</ele>
        <time>2019-12-28T07:30:49.000Z</time>
      </trkpt>
      <trkpt lat="31.057235" lon="-7.92079">
        <ele>3903.79065080313</ele>
        <time>2019-12-28T07:30:53.000Z</time>
      </trkpt>
      <trkpt lat="31.057219" lon="-7.920768">
        <ele>3904.79065080313</ele>
        <time>2019-12-28T07:30:59.000Z</time>
      </trkpt>
      <trkpt lat="31.057213" lon="-7.920747">
        <ele>3905.79065080313</ele>
        <time>2019-12-28T07:31:04.000Z</time>
      </trkpt>
      <trkpt lat="31.05721" lon="-7.920723">
        <ele>3906.79065080313</ele>
        <time>2019-12-28T07:31:09.000Z</time>
      </trkpt>
      <trkpt lat="31.057206" lon="-7.9207">
        <ele>3907.79065080313</ele>
        <time>2019-12-28T07:31:14.000Z</time>
      </trkpt>
      <trkpt lat="31.057194" lon="-7.920682">
        <ele>3908.79065080313</ele>
        <time>2019-12-28T07:31:19.000Z</time>
      </trkpt>
      <trkpt lat="31.057174" lon="-7.92068">
        <ele>3909.80004882813</ele>
        <time>2019-12-28T07:31:29.000Z</time>
      </trkpt>
      <trkpt lat="31.057155" lon="-7.920675">
        <ele>3909.80004882813</ele>
        <time>2019-12-28T07:31:44.000Z</time>
      </trkpt>
      <trkpt lat="31.057146" lon="-7.920655">
        <ele>3910</ele>
        <time>2019-12-28T07:31:51.000Z</time>
      </trkpt>
      <trkpt lat="31.05713" lon="-7.920638">
        <ele>3910</ele>
        <time>2019-12-28T07:31:56.000Z</time>
      </trkpt>
      <trkpt lat="31.057117" lon="-7.920623">
        <ele>3911.19055314688</ele>
        <time>2019-12-28T07:32:13.000Z</time>
      </trkpt>
      <trkpt lat="31.05711" lon="-7.9206">
        <ele>3911.59068815625</ele>
        <time>2019-12-28T07:32:19.000Z</time>
      </trkpt>
      <trkpt lat="31.057091" lon="-7.92059">
        <ele>3911.80004882813</ele>
        <time>2019-12-28T07:32:23.000Z</time>
      </trkpt>
      <trkpt lat="31.057072" lon="-7.920594">
        <ele>3912.18998410648</ele>
        <time>2019-12-28T07:32:27.000Z</time>
      </trkpt>
      <trkpt lat="31.057053" lon="-7.920602">
        <ele>3912.39990234375</ele>
        <time>2019-12-28T07:32:31.000Z</time>
      </trkpt>
      <trkpt lat="31.057034" lon="-7.920605">
        <ele>3912.79065080313</ele>
        <time>2019-12-28T07:32:35.000Z</time>
      </trkpt>
      <trkpt lat="31.057011" lon="-7.920605">
        <ele>3913.19995117188</ele>
        <time>2019-12-28T07:32:40.000Z</time>
      </trkpt>
      <trkpt lat="31.056992" lon="-7.920606">
        <ele>3913.79065080313</ele>
        <time>2019-12-28T07:32:46.000Z</time>
      </trkpt>
      <trkpt lat="31.056973" lon="-7.92061">
        <ele>3914.39050431875</ele>
        <time>2019-12-28T07:32:52.000Z</time>
      </trkpt>
      <trkpt lat="31.056957" lon="-7.9206">
        <ele>3915.59068815625</ele>
        <time>2019-12-28T07:33:05.000Z</time>
      </trkpt>
      <trkpt lat="31.056938" lon="-7.920595">
        <ele>3916</ele>
        <time>2019-12-28T07:33:17.000Z</time>
      </trkpt>
      <trkpt lat="31.056925" lon="-7.92058">
        <ele>3916.19995117188</ele>
        <time>2019-12-28T07:33:23.000Z</time>
      </trkpt>
      <trkpt lat="31.056912" lon="-7.92056">
        <ele>3916.19995117188</ele>
        <time>2019-12-28T07:33:31.000Z</time>
      </trkpt>
      <trkpt lat="31.056906" lon="-7.920538">
        <ele>3916.19995117188</ele>
        <time>2019-12-28T07:33:37.000Z</time>
      </trkpt>
      <trkpt lat="31.05689" lon="-7.920525">
        <ele>3916</ele>
        <time>2019-12-28T07:33:41.000Z</time>
      </trkpt>
      <trkpt lat="31.05688" lon="-7.920503">
        <ele>3916</ele>
        <time>2019-12-28T07:33:45.000Z</time>
      </trkpt>
      <trkpt lat="31.056861" lon="-7.920493">
        <ele>3916.19995117188</ele>
        <time>2019-12-28T07:33:50.000Z</time>
      </trkpt>
      <trkpt lat="31.056842" lon="-7.920483">
        <ele>3916.80004882813</ele>
        <time>2019-12-28T07:33:57.000Z</time>
      </trkpt>
      <trkpt lat="31.056822" lon="-7.920472">
        <ele>3917.39050431875</ele>
        <time>2019-12-28T07:34:03.000Z</time>
      </trkpt>
      <trkpt lat="31.056803" lon="-7.920466">
        <ele>3918</ele>
        <time>2019-12-28T07:34:10.000Z</time>
      </trkpt>
      <trkpt lat="31.056784" lon="-7.920465">
        <ele>3918.59068815625</ele>
        <time>2019-12-28T07:34:16.000Z</time>
      </trkpt>
      <trkpt lat="31.056768" lon="-7.920452">
        <ele>3918.990601975</ele>
        <time>2019-12-28T07:34:20.000Z</time>
      </trkpt>
      <trkpt lat="31.056762" lon="-7.920428">
        <ele>3919</ele>
        <time>2019-12-28T07:34:22.000Z</time>
      </trkpt>
      <trkpt lat="31.056762" lon="-7.920405">
        <ele>3919.39050431875</ele>
        <time>2019-12-28T07:34:27.000Z</time>
      </trkpt>
      <trkpt lat="31.056758" lon="-7.920382">
        <ele>3920</ele>
        <time>2019-12-28T07:34:35.000Z</time>
      </trkpt>
      <trkpt lat="31.056758" lon="-7.92036">
        <ele>3920.59068815625</ele>
        <time>2019-12-28T07:34:40.000Z</time>
      </trkpt>
      <trkpt lat="31.056755" lon="-7.920335">
        <ele>3921.19055314688</ele>
        <time>2019-12-28T07:34:46.000Z</time>
      </trkpt>
      <trkpt lat="31.056749" lon="-7.920312">
        <ele>3921.990601975</ele>
        <time>2019-12-28T07:34:53.000Z</time>
      </trkpt>
      <trkpt lat="31.056736" lon="-7.92029">
        <ele>3922.60009765625</ele>
        <time>2019-12-28T07:34:59.000Z</time>
      </trkpt>
      <trkpt lat="31.056733" lon="-7.920265">
        <ele>3923.19055314688</ele>
        <time>2019-12-28T07:35:05.000Z</time>
      </trkpt>
      <trkpt lat="31.056733" lon="-7.92024">
        <ele>3923.59068815625</ele>
        <time>2019-12-28T07:35:09.000Z</time>
      </trkpt>
      <trkpt lat="31.056733" lon="-7.920217">
        <ele>3923.990601975</ele>
        <time>2019-12-28T07:35:15.000Z</time>
      </trkpt>
      <trkpt lat="31.056746" lon="-7.9202">
        <ele>3924.19055314688</ele>
        <time>2019-12-28T07:35:18.000Z</time>
      </trkpt>
      <trkpt lat="31.056746" lon="-7.920177">
        <ele>3924.59068815625</ele>
        <time>2019-12-28T07:35:23.000Z</time>
      </trkpt>
      <trkpt lat="31.056749" lon="-7.920152">
        <ele>3924.990601975</ele>
        <time>2019-12-28T07:35:27.000Z</time>
      </trkpt>
      <trkpt lat="31.056742" lon="-7.920132">
        <ele>3925.19995117188</ele>
        <time>2019-12-28T07:35:30.000Z</time>
      </trkpt>
      <trkpt lat="31.056726" lon="-7.920118">
        <ele>3925.80004882813</ele>
        <time>2019-12-28T07:35:35.000Z</time>
      </trkpt>
      <trkpt lat="31.056704" lon="-7.920118">
        <ele>3926.79065080313</ele>
        <time>2019-12-28T07:35:40.000Z</time>
      </trkpt>
      <trkpt lat="31.056682" lon="-7.920123">
        <ele>3927.990601975</ele>
        <time>2019-12-28T07:35:47.000Z</time>
      </trkpt>
      <trkpt lat="31.056666" lon="-7.920135">
        <ele>3928.60009765625</ele>
        <time>2019-12-28T07:35:51.000Z</time>
      </trkpt>
      <trkpt lat="31.056646" lon="-7.920132">
        <ele>3929.59068815625</ele>
        <time>2019-12-28T07:35:56.000Z</time>
      </trkpt>
      <trkpt lat="31.05663" lon="-7.920117">
        <ele>3930.39990234375</ele>
        <time>2019-12-28T07:36:02.000Z</time>
      </trkpt>
      <trkpt lat="31.056614" lon="-7.920107">
        <ele>3931.19995117188</ele>
        <time>2019-12-28T07:36:08.000Z</time>
      </trkpt>
      <trkpt lat="31.056605" lon="-7.920088">
        <ele>3931.990601975</ele>
        <time>2019-12-28T07:36:15.000Z</time>
      </trkpt>
      <trkpt lat="31.056602" lon="-7.920065">
        <ele>3932.39990234375</ele>
        <time>2019-12-28T07:36:20.000Z</time>
      </trkpt>
      <trkpt lat="31.056592" lon="-7.920045">
        <ele>3932.80004882813</ele>
        <time>2019-12-28T07:36:24.000Z</time>
      </trkpt>
      <trkpt lat="31.056576" lon="-7.920034">
        <ele>3933.39050431875</ele>
        <time>2019-12-28T07:36:29.000Z</time>
      </trkpt>
      <trkpt lat="31.056557" lon="-7.920038">
        <ele>3934.19055314688</ele>
        <time>2019-12-28T07:36:40.000Z</time>
      </trkpt>
      <trkpt lat="31.056534" lon="-7.920038">
        <ele>3934.80004882813</ele>
        <time>2019-12-28T07:36:54.000Z</time>
      </trkpt>
      <trkpt lat="31.056512" lon="-7.920037">
        <ele>3935</ele>
        <time>2019-12-28T07:36:59.000Z</time>
      </trkpt>
      <trkpt lat="31.056493" lon="-7.920028">
        <ele>3935.19055314688</ele>
        <time>2019-12-28T07:37:05.000Z</time>
      </trkpt>
      <trkpt lat="31.056483" lon="-7.920006">
        <ele>3935.80004882813</ele>
        <time>2019-12-28T07:37:20.000Z</time>
      </trkpt>
      <trkpt lat="31.05647" lon="-7.919986">
        <ele>3936.19055314688</ele>
        <time>2019-12-28T07:37:24.000Z</time>
      </trkpt>
      <trkpt lat="31.05647" lon="-7.919962">
        <ele>3936.79065080313</ele>
        <time>2019-12-28T07:37:30.000Z</time>
      </trkpt>
      <trkpt lat="31.056467" lon="-7.919937">
        <ele>3937.19055314688</ele>
        <time>2019-12-28T07:37:34.000Z</time>
      </trkpt>
      <trkpt lat="31.056464" lon="-7.919906">
        <ele>3937.79065080313</ele>
        <time>2019-12-28T07:37:39.000Z</time>
      </trkpt>
      <trkpt lat="31.05647" lon="-7.919886">
        <ele>3938.19055314688</ele>
        <time>2019-12-28T07:37:43.000Z</time>
      </trkpt>
      <trkpt lat="31.056483" lon="-7.919865">
        <ele>3938.79065080313</ele>
        <time>2019-12-28T07:37:47.000Z</time>
      </trkpt>
      <trkpt lat="31.05649" lon="-7.919842">
        <ele>3939.19995117188</ele>
        <time>2019-12-28T07:37:50.000Z</time>
      </trkpt>
      <trkpt lat="31.05649" lon="-7.91982">
        <ele>3939.79065080313</ele>
        <time>2019-12-28T07:37:53.000Z</time>
      </trkpt>
      <trkpt lat="31.056474" lon="-7.919805">
        <ele>3940.39050431875</ele>
        <time>2019-12-28T07:37:57.000Z</time>
      </trkpt>
      <trkpt lat="31.056458" lon="-7.919793">
        <ele>3944</ele>
        <time>2019-12-28T07:38:46.000Z</time>
      </trkpt>
      <trkpt lat="31.056454" lon="-7.919766">
        <ele>3944.19055314688</ele>
        <time>2019-12-28T07:38:50.000Z</time>
      </trkpt>
      <trkpt lat="31.056454" lon="-7.919742">
        <ele>3944.39990234375</ele>
        <time>2019-12-28T07:38:54.000Z</time>
      </trkpt>
      <trkpt lat="31.056454" lon="-7.919715">
        <ele>3944.79065080313</ele>
        <time>2019-12-28T07:38:58.000Z</time>
      </trkpt>
      <trkpt lat="31.056451" lon="-7.919688">
        <ele>3945.39050431875</ele>
        <time>2019-12-28T07:39:02.000Z</time>
      </trkpt>
      <trkpt lat="31.056435" lon="-7.919678">
        <ele>3945.60009765625</ele>
        <time>2019-12-28T07:39:05.000Z</time>
      </trkpt>
      <trkpt lat="31.056416" lon="-7.919678">
        <ele>3946.39050431875</ele>
        <time>2019-12-28T07:39:09.000Z</time>
      </trkpt>
      <trkpt lat="31.0564" lon="-7.919668">
        <ele>3946.79065080313</ele>
        <time>2019-12-28T07:39:12.000Z</time>
      </trkpt>
      <trkpt lat="31.056381" lon="-7.919662">
        <ele>3947.59068815625</ele>
        <time>2019-12-28T07:39:15.000Z</time>
      </trkpt>
      <trkpt lat="31.056362" lon="-7.919662">
        <ele>3948.19055314688</ele>
        <time>2019-12-28T07:39:18.000Z</time>
      </trkpt>
      <trkpt lat="31.056339" lon="-7.919658">
        <ele>3948.79065080313</ele>
        <time>2019-12-28T07:39:21.000Z</time>
      </trkpt>
      <trkpt lat="31.056323" lon="-7.919646">
        <ele>3949.79065080313</ele>
        <time>2019-12-28T07:39:26.000Z</time>
      </trkpt>
      <trkpt lat="31.056314" lon="-7.919628">
        <ele>3950.59068815625</ele>
        <time>2019-12-28T07:39:30.000Z</time>
      </trkpt>
      <trkpt lat="31.05631" lon="-7.919606">
        <ele>3951.79065080313</ele>
        <time>2019-12-28T07:39:36.000Z</time>
      </trkpt>
      <trkpt lat="31.056317" lon="-7.919586">
        <ele>3952.79065080313</ele>
        <time>2019-12-28T07:39:42.000Z</time>
      </trkpt>
      <trkpt lat="31.056326" lon="-7.919566">
        <ele>3953.39050431875</ele>
        <time>2019-12-28T07:39:46.000Z</time>
      </trkpt>
      <trkpt lat="31.056326" lon="-7.919543">
        <ele>3953.990601975</ele>
        <time>2019-12-28T07:39:50.000Z</time>
      </trkpt>
      <trkpt lat="31.056317" lon="-7.919523">
        <ele>3954.59068815625</ele>
        <time>2019-12-28T07:39:54.000Z</time>
      </trkpt>
      <trkpt lat="31.056301" lon="-7.919512">
        <ele>3955.39050431875</ele>
        <time>2019-12-28T07:39:58.000Z</time>
      </trkpt>
      <trkpt lat="31.056285" lon="-7.9195">
        <ele>3956.19055314688</ele>
        <time>2019-12-28T07:40:03.000Z</time>
      </trkpt>
      <trkpt lat="31.056269" lon="-7.919489">
        <ele>3956.79065080313</ele>
        <time>2019-12-28T07:40:07.000Z</time>
      </trkpt>
      <trkpt lat="31.05625" lon="-7.91948">
        <ele>3957.59068815625</ele>
        <time>2019-12-28T07:40:12.000Z</time>
      </trkpt>
      <trkpt lat="31.056234" lon="-7.91947">
        <ele>3958.19055314688</ele>
        <time>2019-12-28T07:40:17.000Z</time>
      </trkpt>
      <trkpt lat="31.056214" lon="-7.919465">
        <ele>3958.60009765625</ele>
        <time>2019-12-28T07:40:22.000Z</time>
      </trkpt>
      <trkpt lat="31.056195" lon="-7.91946">
        <ele>3959</ele>
        <time>2019-12-28T07:40:26.000Z</time>
      </trkpt>
      <trkpt lat="31.056176" lon="-7.919452">
        <ele>3960</ele>
        <time>2019-12-28T07:40:37.000Z</time>
      </trkpt>
      <trkpt lat="31.056163" lon="-7.919437">
        <ele>3960.79065080313</ele>
        <time>2019-12-28T07:40:48.000Z</time>
      </trkpt>
      <trkpt lat="31.056166" lon="-7.919414">
        <ele>3961</ele>
        <time>2019-12-28T07:40:53.000Z</time>
      </trkpt>
      <trkpt lat="31.056166" lon="-7.919388">
        <ele>3961.19995117188</ele>
        <time>2019-12-28T07:40:58.000Z</time>
      </trkpt>
      <trkpt lat="31.05617" lon="-7.919362">
        <ele>3961.60009765625</ele>
        <time>2019-12-28T07:41:03.000Z</time>
      </trkpt>
      <trkpt lat="31.056176" lon="-7.919338">
        <ele>3961.80004882813</ele>
        <time>2019-12-28T07:41:08.000Z</time>
      </trkpt>
      <trkpt lat="31.056192" lon="-7.91932">
        <ele>3962.39990234375</ele>
        <time>2019-12-28T07:41:14.000Z</time>
      </trkpt>
      <trkpt lat="31.056195" lon="-7.919298">
        <ele>3962.80004882813</ele>
        <time>2019-12-28T07:41:18.000Z</time>
      </trkpt>
      <trkpt lat="31.056192" lon="-7.919274">
        <ele>3963.39050431875</ele>
        <time>2019-12-28T07:41:22.000Z</time>
      </trkpt>
      <trkpt lat="31.056182" lon="-7.919255">
        <ele>3963.80004882813</ele>
        <time>2019-12-28T07:41:26.000Z</time>
      </trkpt>
      <trkpt lat="31.056179" lon="-7.919234">
        <ele>3966</ele>
        <time>2019-12-28T07:41:48.000Z</time>
      </trkpt>
      <trkpt lat="31.056186" lon="-7.919212">
        <ele>3966.80004882813</ele>
        <time>2019-12-28T07:42:42.000Z</time>
      </trkpt>
      <trkpt lat="31.056195" lon="-7.919186">
        <ele>3966.990601975</ele>
        <time>2019-12-28T07:42:46.000Z</time>
      </trkpt>
      <trkpt lat="31.056205" lon="-7.919165">
        <ele>3967.19995117188</ele>
        <time>2019-12-28T07:42:50.000Z</time>
      </trkpt>
      <trkpt lat="31.056205" lon="-7.919143">
        <ele>3967.59068815625</ele>
        <time>2019-12-28T07:42:53.000Z</time>
      </trkpt>
      <trkpt lat="31.056205" lon="-7.919122">
        <ele>3967.990601975</ele>
        <time>2019-12-28T07:42:56.000Z</time>
      </trkpt>
      <trkpt lat="31.056192" lon="-7.919098">
        <ele>3968.59068815625</ele>
        <time>2019-12-28T07:43:00.000Z</time>
      </trkpt>
      <trkpt lat="31.056179" lon="-7.919077">
        <ele>3969.19995117188</ele>
        <time>2019-12-28T07:43:05.000Z</time>
      </trkpt>
      <trkpt lat="31.056163" lon="-7.919062">
        <ele>3969.990601975</ele>
        <time>2019-12-28T07:43:09.000Z</time>
      </trkpt>
      <trkpt lat="31.056147" lon="-7.919052">
        <ele>3970.59068815625</ele>
        <time>2019-12-28T07:43:12.000Z</time>
      </trkpt>
      <trkpt lat="31.056128" lon="-7.919037">
        <ele>3971.39050431875</ele>
        <time>2019-12-28T07:43:17.000Z</time>
      </trkpt>
      <trkpt lat="31.056109" lon="-7.919023">
        <ele>3972.19055314688</ele>
        <time>2019-12-28T07:43:22.000Z</time>
      </trkpt>
      <trkpt lat="31.05609" lon="-7.919015">
        <ele>3972.79065080313</ele>
        <time>2019-12-28T07:43:26.000Z</time>
      </trkpt>
      <trkpt lat="31.056077" lon="-7.919">
        <ele>3973.990601975</ele>
        <time>2019-12-28T07:43:34.000Z</time>
      </trkpt>
      <trkpt lat="31.05607" lon="-7.918975">
        <ele>3975.79065080313</ele>
        <time>2019-12-28T07:43:54.000Z</time>
      </trkpt>
      <trkpt lat="31.056061" lon="-7.918957">
        <ele>3976</ele>
        <time>2019-12-28T07:43:58.000Z</time>
      </trkpt>
      <trkpt lat="31.056074" lon="-7.918938">
        <ele>3976.59068815625</ele>
        <time>2019-12-28T07:44:04.000Z</time>
      </trkpt>
      <trkpt lat="31.056086" lon="-7.918922">
        <ele>3977</ele>
        <time>2019-12-28T07:44:09.000Z</time>
      </trkpt>
      <trkpt lat="31.056086" lon="-7.918898">
        <ele>3977.39990234375</ele>
        <time>2019-12-28T07:44:13.000Z</time>
      </trkpt>
      <trkpt lat="31.056067" lon="-7.91889">
        <ele>3978.19055314688</ele>
        <time>2019-12-28T07:44:18.000Z</time>
      </trkpt>
      <trkpt lat="31.056048" lon="-7.91888">
        <ele>3979.19055314688</ele>
        <time>2019-12-28T07:44:23.000Z</time>
      </trkpt>
      <trkpt lat="31.056035" lon="-7.918858">
        <ele>3981.19995117188</ele>
        <time>2019-12-28T07:44:36.000Z</time>
      </trkpt>
      <trkpt lat="31.056038" lon="-7.918837">
        <ele>3982.80004882813</ele>
        <time>2019-12-28T07:44:52.000Z</time>
      </trkpt>
      <trkpt lat="31.056029" lon="-7.918815">
        <ele>3983.39990234375</ele>
        <time>2019-12-28T07:45:03.000Z</time>
      </trkpt>
      <trkpt lat="31.056019" lon="-7.918795">
        <ele>3983.60009765625</ele>
        <time>2019-12-28T07:45:08.000Z</time>
      </trkpt>
      <trkpt lat="31.056019" lon="-7.918773">
        <ele>3984</ele>
        <time>2019-12-28T07:45:13.000Z</time>
      </trkpt>
      <trkpt lat="31.056029" lon="-7.918748">
        <ele>3984.60009765625</ele>
        <time>2019-12-28T07:45:19.000Z</time>
      </trkpt>
      <trkpt lat="31.056019" lon="-7.918725">
        <ele>3985.19055314688</ele>
        <time>2019-12-28T07:45:23.000Z</time>
      </trkpt>
      <trkpt lat="31.056006" lon="-7.918708">
        <ele>3985.80004882813</ele>
        <time>2019-12-28T07:45:28.000Z</time>
      </trkpt>
      <trkpt lat="31.055994" lon="-7.918692">
        <ele>3986.59068815625</ele>
        <time>2019-12-28T07:45:32.000Z</time>
      </trkpt>
      <trkpt lat="31.055994" lon="-7.91867">
        <ele>3987.19055314688</ele>
        <time>2019-12-28T07:45:37.000Z</time>
      </trkpt>
      <trkpt lat="31.056006" lon="-7.91865">
        <ele>3987.990601975</ele>
        <time>2019-12-28T07:45:43.000Z</time>
      </trkpt>
      <trkpt lat="31.056019" lon="-7.918628">
        <ele>3988.39990234375</ele>
        <time>2019-12-28T07:45:48.000Z</time>
      </trkpt>
      <trkpt lat="31.056035" lon="-7.918618">
        <ele>3989</ele>
        <time>2019-12-28T07:45:53.000Z</time>
      </trkpt>
      <trkpt lat="31.056054" lon="-7.918608">
        <ele>3989.39990234375</ele>
        <time>2019-12-28T07:45:57.000Z</time>
      </trkpt>
      <trkpt lat="31.056067" lon="-7.91859">
        <ele>3989.80004882813</ele>
        <time>2019-12-28T07:46:02.000Z</time>
      </trkpt>
      <trkpt lat="31.056083" lon="-7.918571">
        <ele>3990.39990234375</ele>
        <time>2019-12-28T07:46:08.000Z</time>
      </trkpt>
      <trkpt lat="31.056102" lon="-7.918562">
        <ele>3990.990601975</ele>
        <time>2019-12-28T07:46:12.000Z</time>
      </trkpt>
      <trkpt lat="31.056102" lon="-7.91854">
        <ele>3991.39990234375</ele>
        <time>2019-12-28T07:46:16.000Z</time>
      </trkpt>
      <trkpt lat="31.056093" lon="-7.918522">
        <ele>3991.80004882813</ele>
        <time>2019-12-28T07:46:20.000Z</time>
      </trkpt>
      <trkpt lat="31.056077" lon="-7.918506">
        <ele>3992.39042852823</ele>
        <time>2019-12-28T07:46:24.000Z</time>
      </trkpt>
      <trkpt lat="31.056061" lon="-7.918497">
        <ele>3993</ele>
        <time>2019-12-28T07:46:30.000Z</time>
      </trkpt>
      <trkpt lat="31.056051" lon="-7.918478">
        <ele>3993.39990234375</ele>
        <time>2019-12-28T07:46:34.000Z</time>
      </trkpt>
      <trkpt lat="31.056054" lon="-7.918455">
        <ele>3994</ele>
        <time>2019-12-28T07:46:40.000Z</time>
      </trkpt>
      <trkpt lat="31.05607" lon="-7.918443">
        <ele>3994.39990234375</ele>
        <time>2019-12-28T07:46:46.000Z</time>
      </trkpt>
      <trkpt lat="31.056086" lon="-7.91843">
        <ele>3994.60009765625</ele>
        <time>2019-12-28T07:46:51.000Z</time>
      </trkpt>
      <trkpt lat="31.056093" lon="-7.918408">
        <ele>3995</ele>
        <time>2019-12-28T07:46:57.000Z</time>
      </trkpt>
      <trkpt lat="31.056102" lon="-7.91839">
        <ele>3995.39050431875</ele>
        <time>2019-12-28T07:47:01.000Z</time>
      </trkpt>
      <trkpt lat="31.056093" lon="-7.91837">
        <ele>3996.39990234375</ele>
        <time>2019-12-28T07:47:18.000Z</time>
      </trkpt>
      <trkpt lat="31.05609" lon="-7.918392">
        <ele>3996.60009765625</ele>
        <time>2019-12-28T07:48:12.000Z</time>
      </trkpt>
      <trkpt lat="31.056093" lon="-7.918418">
        <ele>3997.39990234375</ele>
        <time>2019-12-28T07:51:08.000Z</time>
      </trkpt>
      <trkpt lat="31.056115" lon="-7.91842">
        <ele>3997.39990234375</ele>
        <time>2019-12-28T07:51:11.000Z</time>
      </trkpt>
      <trkpt lat="31.056134" lon="-7.918422">
        <ele>3997.39990234375</ele>
        <time>2019-12-28T07:51:13.000Z</time>
      </trkpt>
      <trkpt lat="31.056154" lon="-7.918432">
        <ele>3997.39990234375</ele>
        <time>2019-12-28T07:51:16.000Z</time>
      </trkpt>
      <trkpt lat="31.056173" lon="-7.918435">
        <ele>3997.39990234375</ele>
        <time>2019-12-28T07:51:19.000Z</time>
      </trkpt>
      <trkpt lat="31.056195" lon="-7.918446">
        <ele>3997.39990234375</ele>
        <time>2019-12-28T07:51:23.000Z</time>
      </trkpt>
      <trkpt lat="31.056218" lon="-7.918445">
        <ele>3997.39990234375</ele>
        <time>2019-12-28T07:51:26.000Z</time>
      </trkpt>
      <trkpt lat="31.056224" lon="-7.918422">
        <ele>3997.39990234375</ele>
        <time>2019-12-28T07:51:29.000Z</time>
      </trkpt>
      <trkpt lat="31.05623" lon="-7.918402">
        <ele>3997.60009765625</ele>
        <time>2019-12-28T07:51:35.000Z</time>
      </trkpt>
      <trkpt lat="31.05625" lon="-7.91841">
        <ele>3997.80004882813</ele>
        <time>2019-12-28T07:51:40.000Z</time>
      </trkpt>
      <trkpt lat="31.056272" lon="-7.918413">
        <ele>3998</ele>
        <time>2019-12-28T07:51:44.000Z</time>
      </trkpt>
      <trkpt lat="31.056291" lon="-7.918417">
        <ele>3998.19995117188</ele>
        <time>2019-12-28T07:51:48.000Z</time>
      </trkpt>
      <trkpt lat="31.056314" lon="-7.918412">
        <ele>3998.59068815625</ele>
        <time>2019-12-28T07:51:52.000Z</time>
      </trkpt>
      <trkpt lat="31.056333" lon="-7.918408">
        <ele>3998.80004882813</ele>
        <time>2019-12-28T07:51:56.000Z</time>
      </trkpt>
      <trkpt lat="31.056342" lon="-7.91839">
        <ele>3999</ele>
        <time>2019-12-28T07:51:59.000Z</time>
      </trkpt>
      <trkpt lat="31.056336" lon="-7.918366">
        <ele>3999.39990234375</ele>
        <time>2019-12-28T07:52:04.000Z</time>
      </trkpt>
      <trkpt lat="31.056323" lon="-7.918348">
        <ele>3999.60009765625</ele>
        <time>2019-12-28T07:52:08.000Z</time>
      </trkpt>
      <trkpt lat="31.056333" lon="-7.918327">
        <ele>3999.80004882813</ele>
        <time>2019-12-28T07:52:20.000Z</time>
      </trkpt>
      <trkpt lat="31.056339" lon="-7.918303">
        <ele>4000</ele>
        <time>2019-12-28T07:52:24.000Z</time>
      </trkpt>
      <trkpt lat="31.056326" lon="-7.918283">
        <ele>4000</ele>
        <time>2019-12-28T07:52:28.000Z</time>
      </trkpt>
      <trkpt lat="31.056346" lon="-7.91828">
        <ele>4000.39990234375</ele>
        <time>2019-12-28T07:52:36.000Z</time>
      </trkpt>
      <trkpt lat="31.056365" lon="-7.91829">
        <ele>4000.79065080313</ele>
        <time>2019-12-28T07:52:44.000Z</time>
      </trkpt>
      <trkpt lat="31.056374" lon="-7.918271">
        <ele>4001</ele>
        <time>2019-12-28T07:52:48.000Z</time>
      </trkpt>
      <trkpt lat="31.05639" lon="-7.918258">
        <ele>4001.39990234375</ele>
        <time>2019-12-28T07:52:55.000Z</time>
      </trkpt>
      <trkpt lat="31.0564" lon="-7.918235">
        <ele>4001.80004882813</ele>
        <time>2019-12-28T07:53:01.000Z</time>
      </trkpt>
      <trkpt lat="31.056426" lon="-7.918226">
        <ele>4002.60009765625</ele>
        <time>2019-12-28T07:53:12.000Z</time>
      </trkpt>
      <trkpt lat="31.056442" lon="-7.918214">
        <ele>4002.990601975</ele>
        <time>2019-12-28T07:53:16.000Z</time>
      </trkpt>
      <trkpt lat="31.056454" lon="-7.918192">
        <ele>4003.39990234375</ele>
        <time>2019-12-28T07:53:21.000Z</time>
      </trkpt>
      <trkpt lat="31.056438" lon="-7.918178">
        <ele>4003.79065080313</ele>
        <time>2019-12-28T07:53:25.000Z</time>
      </trkpt>
      <trkpt lat="31.056426" lon="-7.918162">
        <ele>4004.19995117188</ele>
        <time>2019-12-28T07:53:35.000Z</time>
      </trkpt>
      <trkpt lat="31.056413" lon="-7.918138">
        <ele>4004.60009765625</ele>
        <time>2019-12-28T07:53:39.000Z</time>
      </trkpt>
      <trkpt lat="31.056394" lon="-7.918126">
        <ele>4004.990601975</ele>
        <time>2019-12-28T07:53:42.000Z</time>
      </trkpt>
      <trkpt lat="31.056381" lon="-7.918106">
        <ele>4005.59068815625</ele>
        <time>2019-12-28T07:53:47.000Z</time>
      </trkpt>
      <trkpt lat="31.056365" lon="-7.91809">
        <ele>4006.19055314688</ele>
        <time>2019-12-28T07:53:51.000Z</time>
      </trkpt>
      <trkpt lat="31.056371" lon="-7.918066">
        <ele>4007.39050431875</ele>
        <time>2019-12-28T07:53:59.000Z</time>
      </trkpt>
      <trkpt lat="31.05639" lon="-7.918058">
        <ele>4009</ele>
        <time>2019-12-28T07:54:12.000Z</time>
      </trkpt>
      <trkpt lat="31.05641" lon="-7.918052">
        <ele>4009.990601975</ele>
        <time>2019-12-28T07:54:19.000Z</time>
      </trkpt>
      <trkpt lat="31.056432" lon="-7.918052">
        <ele>4010.60009765625</ele>
        <time>2019-12-28T07:54:25.000Z</time>
      </trkpt>
      <trkpt lat="31.056445" lon="-7.918034">
        <ele>4011.19055314688</ele>
        <time>2019-12-28T07:54:30.000Z</time>
      </trkpt>
      <trkpt lat="31.056464" lon="-7.91803">
        <ele>4011.79065080313</ele>
        <time>2019-12-28T07:54:35.000Z</time>
      </trkpt>
      <trkpt lat="31.056483" lon="-7.918025">
        <ele>4012.39050431875</ele>
        <time>2019-12-28T07:54:39.000Z</time>
      </trkpt>
      <trkpt lat="31.056483" lon="-7.918002">
        <ele>4012.990601975</ele>
        <time>2019-12-28T07:54:44.000Z</time>
      </trkpt>
      <trkpt lat="31.05647" lon="-7.917983">
        <ele>4013.39990234375</ele>
        <time>2019-12-28T07:54:48.000Z</time>
      </trkpt>
      <trkpt lat="31.056461" lon="-7.917965">
        <ele>4013.990601975</ele>
        <time>2019-12-28T07:54:53.000Z</time>
      </trkpt>
      <trkpt lat="31.056461" lon="-7.917942">
        <ele>4014.60009765625</ele>
        <time>2019-12-28T07:54:59.000Z</time>
      </trkpt>
      <trkpt lat="31.056461" lon="-7.917918">
        <ele>4015</ele>
        <time>2019-12-28T07:55:03.000Z</time>
      </trkpt>
      <trkpt lat="31.056454" lon="-7.917891">
        <ele>4015.79065080313</ele>
        <time>2019-12-28T07:55:09.000Z</time>
      </trkpt>
      <trkpt lat="31.056442" lon="-7.91787">
        <ele>4016.19995117188</ele>
        <time>2019-12-28T07:55:15.000Z</time>
      </trkpt>
      <trkpt lat="31.056435" lon="-7.91785">
        <ele>4016.59068815625</ele>
        <time>2019-12-28T07:55:20.000Z</time>
      </trkpt>
      <trkpt lat="31.056454" lon="-7.917837">
        <ele>4017.60009765625</ele>
        <time>2019-12-28T07:55:33.000Z</time>
      </trkpt>
      <trkpt lat="31.056464" lon="-7.917818">
        <ele>4018.80004882813</ele>
        <time>2019-12-28T07:55:58.000Z</time>
      </trkpt>
      <trkpt lat="31.056483" lon="-7.917814">
        <ele>4019.19995117188</ele>
        <time>2019-12-28T07:56:07.000Z</time>
      </trkpt>
      <trkpt lat="31.056499" lon="-7.917795">
        <ele>4019.60009765625</ele>
        <time>2019-12-28T07:56:11.000Z</time>
      </trkpt>
      <trkpt lat="31.056515" lon="-7.917785">
        <ele>4021.19055314688</ele>
        <time>2019-12-28T07:56:37.000Z</time>
      </trkpt>
      <trkpt lat="31.056534" lon="-7.917774">
        <ele>4021.19995117188</ele>
        <time>2019-12-28T07:56:41.000Z</time>
      </trkpt>
      <trkpt lat="31.05655" lon="-7.917763">
        <ele>4021.60009765625</ele>
        <time>2019-12-28T07:56:49.000Z</time>
      </trkpt>
      <trkpt lat="31.056573" lon="-7.917769">
        <ele>4022.19055314688</ele>
        <time>2019-12-28T07:56:56.000Z</time>
      </trkpt>
      <trkpt lat="31.056592" lon="-7.917762">
        <ele>4022.39990234375</ele>
        <time>2019-12-28T07:57:00.000Z</time>
      </trkpt>
      <trkpt lat="31.056611" lon="-7.91777">
        <ele>4022.990601975</ele>
        <time>2019-12-28T07:57:05.000Z</time>
      </trkpt>
      <trkpt lat="31.05663" lon="-7.91777">
        <ele>4023.39050431875</ele>
        <time>2019-12-28T07:57:09.000Z</time>
      </trkpt>
      <trkpt lat="31.05665" lon="-7.917765">
        <ele>4023.79065080313</ele>
        <time>2019-12-28T07:57:12.000Z</time>
      </trkpt>
      <trkpt lat="31.056669" lon="-7.917758">
        <ele>4024.19055314688</ele>
        <time>2019-12-28T07:57:15.000Z</time>
      </trkpt>
      <trkpt lat="31.056685" lon="-7.917743">
        <ele>4024.59068815625</ele>
        <time>2019-12-28T07:57:19.000Z</time>
      </trkpt>
      <trkpt lat="31.056704" lon="-7.917735">
        <ele>4025.19055314688</ele>
        <time>2019-12-28T07:57:24.000Z</time>
      </trkpt>
      <trkpt lat="31.056723" lon="-7.917723">
        <ele>4025.80004882813</ele>
        <time>2019-12-28T07:57:29.000Z</time>
      </trkpt>
      <trkpt lat="31.056739" lon="-7.917712">
        <ele>4026.39990234375</ele>
        <time>2019-12-28T07:57:33.000Z</time>
      </trkpt>
      <trkpt lat="31.056758" lon="-7.9177">
        <ele>4027.39050431875</ele>
        <time>2019-12-28T07:57:40.000Z</time>
      </trkpt>
      <trkpt lat="31.056778" lon="-7.917695">
        <ele>4028</ele>
        <time>2019-12-28T07:57:45.000Z</time>
      </trkpt>
      <trkpt lat="31.056797" lon="-7.917698">
        <ele>4028.59068815625</ele>
        <time>2019-12-28T07:57:49.000Z</time>
      </trkpt>
      <trkpt lat="31.056819" lon="-7.917703">
        <ele>4029</ele>
        <time>2019-12-28T07:57:53.000Z</time>
      </trkpt>
      <trkpt lat="31.056842" lon="-7.917698">
        <ele>4029.39990234375</ele>
        <time>2019-12-28T07:57:57.000Z</time>
      </trkpt>
      <trkpt lat="31.056861" lon="-7.917692">
        <ele>4029.80004882813</ele>
        <time>2019-12-28T07:58:00.000Z</time>
      </trkpt>
      <trkpt lat="31.05688" lon="-7.917686">
        <ele>4030.19995117188</ele>
        <time>2019-12-28T07:58:04.000Z</time>
      </trkpt>
      <trkpt lat="31.056899" lon="-7.917684">
        <ele>4031.39050431875</ele>
        <time>2019-12-28T07:58:15.000Z</time>
      </trkpt>
      <trkpt lat="31.056918" lon="-7.917678">
        <ele>4031.80004882813</ele>
        <time>2019-12-28T07:58:19.000Z</time>
      </trkpt>
      <trkpt lat="31.056934" lon="-7.917655">
        <ele>4032.39050431875</ele>
        <time>2019-12-28T07:58:23.000Z</time>
      </trkpt>
      <trkpt lat="31.056922" lon="-7.917638">
        <ele>4032.59068815625</ele>
        <time>2019-12-28T07:58:26.000Z</time>
      </trkpt>
      <trkpt lat="31.056938" lon="-7.917625">
        <ele>4033.39050431875</ele>
        <time>2019-12-28T07:58:34.000Z</time>
      </trkpt>
      <trkpt lat="31.05695" lon="-7.917605">
        <ele>4034.39990234375</ele>
        <time>2019-12-28T07:58:53.000Z</time>
      </trkpt>
      <trkpt lat="31.056973" lon="-7.917608">
        <ele>4035</ele>
        <time>2019-12-28T07:59:00.000Z</time>
      </trkpt>
      <trkpt lat="31.056989" lon="-7.917598">
        <ele>4035.39990234375</ele>
        <time>2019-12-28T07:59:05.000Z</time>
      </trkpt>
      <trkpt lat="31.057011" lon="-7.917587">
        <ele>4035.990601975</ele>
        <time>2019-12-28T07:59:09.000Z</time>
      </trkpt>
      <trkpt lat="31.057027" lon="-7.917574">
        <ele>4036.39050431875</ele>
        <time>2019-12-28T07:59:12.000Z</time>
      </trkpt>
      <trkpt lat="31.057027" lon="-7.91755">
        <ele>4037.19055314688</ele>
        <time>2019-12-28T07:59:16.000Z</time>
      </trkpt>
      <trkpt lat="31.057011" lon="-7.917528">
        <ele>4037.79065080313</ele>
        <time>2019-12-28T07:59:20.000Z</time>
      </trkpt>
      <trkpt lat="31.057002" lon="-7.917506">
        <ele>4038.19995117188</ele>
        <time>2019-12-28T07:59:24.000Z</time>
      </trkpt>
      <trkpt lat="31.056992" lon="-7.917486">
        <ele>4038.79065080313</ele>
        <time>2019-12-28T07:59:28.000Z</time>
      </trkpt>
      <trkpt lat="31.056982" lon="-7.917466">
        <ele>4039.19995117188</ele>
        <time>2019-12-28T07:59:32.000Z</time>
      </trkpt>
      <trkpt lat="31.056989" lon="-7.917446">
        <ele>4039.80004882813</ele>
        <time>2019-12-28T07:59:41.000Z</time>
      </trkpt>
      <trkpt lat="31.057008" lon="-7.917442">
        <ele>4040</ele>
        <time>2019-12-28T07:59:53.000Z</time>
      </trkpt>
      <trkpt lat="31.057027" lon="-7.917445">
        <ele>4040.39050431875</ele>
        <time>2019-12-28T07:59:58.000Z</time>
      </trkpt>
      <trkpt lat="31.057046" lon="-7.917454">
        <ele>4040.80004882813</ele>
        <time>2019-12-28T08:00:06.000Z</time>
      </trkpt>
      <trkpt lat="31.057066" lon="-7.917457">
        <ele>4041</ele>
        <time>2019-12-28T08:00:08.000Z</time>
      </trkpt>
      <trkpt lat="31.057082" lon="-7.917466">
        <ele>4041.39050431875</ele>
        <time>2019-12-28T08:00:12.000Z</time>
      </trkpt>
      <trkpt lat="31.057104" lon="-7.917466">
        <ele>4041.60009765625</ele>
        <time>2019-12-28T08:00:16.000Z</time>
      </trkpt>
      <trkpt lat="31.05713" lon="-7.917466">
        <ele>4039.39990234375</ele>
        <time>2019-12-28T08:01:04.000Z</time>
      </trkpt>
      <trkpt lat="31.057146" lon="-7.917454">
        <ele>4039.39990234375</ele>
        <time>2019-12-28T08:01:07.000Z</time>
      </trkpt>
      <trkpt lat="31.057168" lon="-7.91745">
        <ele>4039.19995117188</ele>
        <time>2019-12-28T08:01:19.000Z</time>
      </trkpt>
      <trkpt lat="31.057187" lon="-7.917446">
        <ele>4039.39990234375</ele>
        <time>2019-12-28T08:01:22.000Z</time>
      </trkpt>
      <trkpt lat="31.05721" lon="-7.917443">
        <ele>4039.39990234375</ele>
        <time>2019-12-28T08:01:26.000Z</time>
      </trkpt>
      <trkpt lat="31.057235" lon="-7.91745">
        <ele>4039.60009765625</ele>
        <time>2019-12-28T08:01:29.000Z</time>
      </trkpt>
      <trkpt lat="31.057254" lon="-7.917454">
        <ele>4039.60009765625</ele>
        <time>2019-12-28T08:01:33.000Z</time>
      </trkpt>
      <trkpt lat="31.057277" lon="-7.91746">
        <ele>4039.80004882813</ele>
        <time>2019-12-28T08:01:37.000Z</time>
      </trkpt>
      <trkpt lat="31.057296" lon="-7.917466">
        <ele>4040</ele>
        <time>2019-12-28T08:01:40.000Z</time>
      </trkpt>
      <trkpt lat="31.057315" lon="-7.91747">
        <ele>4040</ele>
        <time>2019-12-28T08:01:43.000Z</time>
      </trkpt>
      <trkpt lat="31.057338" lon="-7.917474">
        <ele>4040.19995117188</ele>
        <time>2019-12-28T08:01:46.000Z</time>
      </trkpt>
      <trkpt lat="31.057357" lon="-7.917466">
        <ele>4040.39990234375</ele>
        <time>2019-12-28T08:01:50.000Z</time>
      </trkpt>
      <trkpt lat="31.057376" lon="-7.917462">
        <ele>4040.60009765625</ele>
        <time>2019-12-28T08:01:55.000Z</time>
      </trkpt>
      <trkpt lat="31.057389" lon="-7.917445">
        <ele>4040.99022223674</ele>
        <time>2019-12-28T08:02:00.000Z</time>
      </trkpt>
      <trkpt lat="31.057402" lon="-7.917423">
        <ele>4041.39050431875</ele>
        <time>2019-12-28T08:02:05.000Z</time>
      </trkpt>
      <trkpt lat="31.057418" lon="-7.917414">
        <ele>4041.80004882813</ele>
        <time>2019-12-28T08:02:10.000Z</time>
      </trkpt>
      <trkpt lat="31.057437" lon="-7.917415">
        <ele>4042.59068815625</ele>
        <time>2019-12-28T08:02:17.000Z</time>
      </trkpt>
      <trkpt lat="31.057456" lon="-7.917405">
        <ele>4043.79065080313</ele>
        <time>2019-12-28T08:02:28.000Z</time>
      </trkpt>
      <trkpt lat="31.057469" lon="-7.917386">
        <ele>4044.59068815625</ele>
        <time>2019-12-28T08:02:37.000Z</time>
      </trkpt>
      <trkpt lat="31.057488" lon="-7.917378">
        <ele>4045.19995117188</ele>
        <time>2019-12-28T08:02:52.000Z</time>
      </trkpt>
      <trkpt lat="31.057507" lon="-7.917383">
        <ele>4045.59068815625</ele>
        <time>2019-12-28T08:02:59.000Z</time>
      </trkpt>
      <trkpt lat="31.057526" lon="-7.917389">
        <ele>4045.79065080313</ele>
        <time>2019-12-28T08:03:03.000Z</time>
      </trkpt>
      <trkpt lat="31.057546" lon="-7.917383">
        <ele>4046.19055314688</ele>
        <time>2019-12-28T08:03:09.000Z</time>
      </trkpt>
      <trkpt lat="31.057565" lon="-7.917377">
        <ele>4046.79065080313</ele>
        <time>2019-12-28T08:03:17.000Z</time>
      </trkpt>
      <trkpt lat="31.057574" lon="-7.917353">
        <ele>4047.19995117188</ele>
        <time>2019-12-28T08:03:24.000Z</time>
      </trkpt>
      <trkpt lat="31.057565" lon="-7.91733">
        <ele>4047.79065080313</ele>
        <time>2019-12-28T08:03:30.000Z</time>
      </trkpt>
      <trkpt lat="31.057584" lon="-7.91733">
        <ele>4049.60009765625</ele>
        <time>2019-12-28T08:04:05.000Z</time>
      </trkpt>
      <trkpt lat="31.057603" lon="-7.917332">
        <ele>4049.60009765625</ele>
        <time>2019-12-28T08:04:11.000Z</time>
      </trkpt>
      <trkpt lat="31.057622" lon="-7.917328">
        <ele>4049.80004882813</ele>
        <time>2019-12-28T08:04:16.000Z</time>
      </trkpt>
      <trkpt lat="31.057642" lon="-7.917327">
        <ele>4050.19055314688</ele>
        <time>2019-12-28T08:04:21.000Z</time>
      </trkpt>
      <trkpt lat="31.057664" lon="-7.91732">
        <ele>4051</ele>
        <time>2019-12-28T08:04:29.000Z</time>
      </trkpt>
      <trkpt lat="31.057683" lon="-7.91732">
        <ele>4051.59068815625</ele>
        <time>2019-12-28T08:04:33.000Z</time>
      </trkpt>
      <trkpt lat="31.057706" lon="-7.917323">
        <ele>4052.19055314688</ele>
        <time>2019-12-28T08:04:38.000Z</time>
      </trkpt>
      <trkpt lat="31.057725" lon="-7.91733">
        <ele>4052.60009765625</ele>
        <time>2019-12-28T08:04:42.000Z</time>
      </trkpt>
      <trkpt lat="31.057747" lon="-7.917327">
        <ele>4053.80004882813</ele>
        <time>2019-12-28T08:04:56.000Z</time>
      </trkpt>
      <trkpt lat="31.05777" lon="-7.91732">
        <ele>4054.39050431875</ele>
        <time>2019-12-28T08:05:02.000Z</time>
      </trkpt>
      <trkpt lat="31.057789" lon="-7.91732">
        <ele>4054.79065080313</ele>
        <time>2019-12-28T08:05:06.000Z</time>
      </trkpt>
      <trkpt lat="31.057808" lon="-7.917318">
        <ele>4055.19055314688</ele>
        <time>2019-12-28T08:05:11.000Z</time>
      </trkpt>
      <trkpt lat="31.057827" lon="-7.917314">
        <ele>4055.60009765625</ele>
        <time>2019-12-28T08:05:16.000Z</time>
      </trkpt>
      <trkpt lat="31.05783" lon="-7.91729">
        <ele>4056.19055314688</ele>
        <time>2019-12-28T08:05:22.000Z</time>
      </trkpt>
      <trkpt lat="31.05783" lon="-7.917268">
        <ele>4057.990601975</ele>
        <time>2019-12-28T08:05:35.000Z</time>
      </trkpt>
      <trkpt lat="31.05785" lon="-7.917267">
        <ele>4059.19055314688</ele>
        <time>2019-12-28T08:05:48.000Z</time>
      </trkpt>
      <trkpt lat="31.057872" lon="-7.917258">
        <ele>4059.60009765625</ele>
        <time>2019-12-28T08:05:58.000Z</time>
      </trkpt>
      <trkpt lat="31.057888" lon="-7.917247">
        <ele>4059.990601975</ele>
        <time>2019-12-28T08:06:05.000Z</time>
      </trkpt>
      <trkpt lat="31.057904" lon="-7.917231">
        <ele>4060.80004882813</ele>
        <time>2019-12-28T08:06:20.000Z</time>
      </trkpt>
      <trkpt lat="31.057923" lon="-7.917243">
        <ele>4061</ele>
        <time>2019-12-28T08:06:24.000Z</time>
      </trkpt>
      <trkpt lat="31.057942" lon="-7.91725">
        <ele>4061.38991539597</ele>
        <time>2019-12-28T08:06:28.000Z</time>
      </trkpt>
      <trkpt lat="31.057962" lon="-7.917251">
        <ele>4061.59066932977</ele>
        <time>2019-12-28T08:06:31.000Z</time>
      </trkpt>
      <trkpt lat="31.057981" lon="-7.917242">
        <ele>4061.80004882813</ele>
        <time>2019-12-28T08:06:35.000Z</time>
      </trkpt>
      <trkpt lat="31.058003" lon="-7.917235">
        <ele>4062</ele>
        <time>2019-12-28T08:06:40.000Z</time>
      </trkpt>
      <trkpt lat="31.058022" lon="-7.917245">
        <ele>4062.39050431875</ele>
        <time>2019-12-28T08:06:44.000Z</time>
      </trkpt>
      <trkpt lat="31.058042" lon="-7.917237">
        <ele>4062.39990234375</ele>
        <time>2019-12-28T08:06:47.000Z</time>
      </trkpt>
      <trkpt lat="31.058064" lon="-7.917238">
        <ele>4062.79065080313</ele>
        <time>2019-12-28T08:06:52.000Z</time>
      </trkpt>
      <trkpt lat="31.058083" lon="-7.917247">
        <ele>4063</ele>
        <time>2019-12-28T08:06:58.000Z</time>
      </trkpt>
      <trkpt lat="31.058102" lon="-7.917237">
        <ele>4063.39990234375</ele>
        <time>2019-12-28T08:07:04.000Z</time>
      </trkpt>
      <trkpt lat="31.058122" lon="-7.917238">
        <ele>4064</ele>
        <time>2019-12-28T08:07:10.000Z</time>
      </trkpt>
      <trkpt lat="31.058141" lon="-7.917238">
        <ele>4064.80004882813</ele>
        <time>2019-12-28T08:07:16.000Z</time>
      </trkpt>
      <trkpt lat="31.05816" lon="-7.917242">
        <ele>4065.39050431875</ele>
        <time>2019-12-28T08:07:20.000Z</time>
      </trkpt>
      <trkpt lat="31.058179" lon="-7.917234">
        <ele>4066.19055314688</ele>
        <time>2019-12-28T08:07:25.000Z</time>
      </trkpt>
      <trkpt lat="31.058198" lon="-7.917235">
        <ele>4067</ele>
        <time>2019-12-28T08:07:31.000Z</time>
      </trkpt>
      <trkpt lat="31.058214" lon="-7.917225">
        <ele>4069.39990234375</ele>
        <time>2019-12-28T08:07:48.000Z</time>
      </trkpt>
      <trkpt lat="31.058234" lon="-7.91722">
        <ele>4071.79065080313</ele>
        <time>2019-12-28T08:08:11.000Z</time>
      </trkpt>
      <trkpt lat="31.05825" lon="-7.917205">
        <ele>4072.39990234375</ele>
        <time>2019-12-28T08:08:18.000Z</time>
      </trkpt>
      <trkpt lat="31.058266" lon="-7.917194">
        <ele>4073.19995117188</ele>
        <time>2019-12-28T08:08:26.000Z</time>
      </trkpt>
      <trkpt lat="31.058272" lon="-7.917174">
        <ele>4074.990601975</ele>
        <time>2019-12-28T08:08:47.000Z</time>
      </trkpt>
      <trkpt lat="31.058291" lon="-7.917171">
        <ele>4075.39990234375</ele>
        <time>2019-12-28T08:08:58.000Z</time>
      </trkpt>
      <trkpt lat="31.05831" lon="-7.917165">
        <ele>4075.80004882813</ele>
        <time>2019-12-28T08:09:05.000Z</time>
      </trkpt>
      <trkpt lat="31.058326" lon="-7.917155">
        <ele>4076.80004882813</ele>
        <time>2019-12-28T08:09:24.000Z</time>
      </trkpt>
      <trkpt lat="31.058346" lon="-7.917158">
        <ele>4077.19995117188</ele>
        <time>2019-12-28T08:09:35.000Z</time>
      </trkpt>
      <trkpt lat="31.058362" lon="-7.917175">
        <ele>4077.39050431875</ele>
        <time>2019-12-28T08:09:39.000Z</time>
      </trkpt>
      <trkpt lat="31.058384" lon="-7.917165">
        <ele>4077.39990234375</ele>
        <time>2019-12-28T08:09:42.000Z</time>
      </trkpt>
      <trkpt lat="31.058397" lon="-7.91714">
        <ele>4077.80004882813</ele>
        <time>2019-12-28T08:09:48.000Z</time>
      </trkpt>
      <trkpt lat="31.0584" lon="-7.917118">
        <ele>4079.80004882813</ele>
        <time>2019-12-28T08:10:03.000Z</time>
      </trkpt>
      <trkpt lat="31.058413" lon="-7.917103">
        <ele>4082.39050431875</ele>
        <time>2019-12-28T08:10:23.000Z</time>
      </trkpt>
      <trkpt lat="31.058429" lon="-7.917094">
        <ele>4083.79065080313</ele>
        <time>2019-12-28T08:10:39.000Z</time>
      </trkpt>
      <trkpt lat="31.058445" lon="-7.91708">
        <ele>4085.39990234375</ele>
        <time>2019-12-28T08:15:18.000Z</time>
      </trkpt>
      <trkpt lat="31.058464" lon="-7.9171">
        <ele>4085.60009765625</ele>
        <time>2019-12-28T08:16:18.000Z</time>
      </trkpt>
      <trkpt lat="31.058486" lon="-7.91711">
        <ele>4085.60009765625</ele>
        <time>2019-12-28T08:16:23.000Z</time>
      </trkpt>
      <trkpt lat="31.058506" lon="-7.917109">
        <ele>4085.80004882813</ele>
        <time>2019-12-28T08:16:25.000Z</time>
      </trkpt>
      <trkpt lat="31.058528" lon="-7.917103">
        <ele>4086.60009765625</ele>
        <time>2019-12-28T08:16:37.000Z</time>
      </trkpt>
      <trkpt lat="31.058544" lon="-7.917092">
        <ele>4086.990601975</ele>
        <time>2019-12-28T08:16:41.000Z</time>
      </trkpt>
      <trkpt lat="31.05857" lon="-7.917082">
        <ele>4088</ele>
        <time>2019-12-28T08:16:55.000Z</time>
      </trkpt>
      <trkpt lat="31.058595" lon="-7.917077">
        <ele>4088.39990234375</ele>
        <time>2019-12-28T08:17:01.000Z</time>
      </trkpt>
      <trkpt lat="31.058621" lon="-7.917085">
        <ele>4088.60009765625</ele>
        <time>2019-12-28T08:17:06.000Z</time>
      </trkpt>
      <trkpt lat="31.05864" lon="-7.917089">
        <ele>4088.80004882813</ele>
        <time>2019-12-28T08:17:09.000Z</time>
      </trkpt>
      <trkpt lat="31.058659" lon="-7.917083">
        <ele>4088.80004882813</ele>
        <time>2019-12-28T08:17:12.000Z</time>
      </trkpt>
      <trkpt lat="31.058678" lon="-7.917094">
        <ele>4089</ele>
        <time>2019-12-28T08:17:16.000Z</time>
      </trkpt>
      <trkpt lat="31.058694" lon="-7.917105">
        <ele>4089.19995117188</ele>
        <time>2019-12-28T08:17:19.000Z</time>
      </trkpt>
      <trkpt lat="31.05871" lon="-7.917115">
        <ele>4089.39050431875</ele>
        <time>2019-12-28T08:17:21.000Z</time>
      </trkpt>
      <trkpt lat="31.05873" lon="-7.917114">
        <ele>4089.60009765625</ele>
        <time>2019-12-28T08:17:24.000Z</time>
      </trkpt>
      <trkpt lat="31.058749" lon="-7.917114">
        <ele>4089.80004882813</ele>
        <time>2019-12-28T08:17:27.000Z</time>
      </trkpt>
      <trkpt lat="31.058771" lon="-7.917112">
        <ele>4090.19055314688</ele>
        <time>2019-12-28T08:17:30.000Z</time>
      </trkpt>
      <trkpt lat="31.058794" lon="-7.917102">
        <ele>4090.59068815625</ele>
        <time>2019-12-28T08:17:33.000Z</time>
      </trkpt>
      <trkpt lat="31.05881" lon="-7.91709">
        <ele>4090.990601975</ele>
        <time>2019-12-28T08:17:36.000Z</time>
      </trkpt>
      <trkpt lat="31.058829" lon="-7.917095">
        <ele>4091.59068815625</ele>
        <time>2019-12-28T08:17:41.000Z</time>
      </trkpt>
      <trkpt lat="31.058848" lon="-7.917103">
        <ele>4091.79065080313</ele>
        <time>2019-12-28T08:17:43.000Z</time>
      </trkpt>
      <trkpt lat="31.058867" lon="-7.917115">
        <ele>4092</ele>
        <time>2019-12-28T08:17:45.000Z</time>
      </trkpt>
      <trkpt lat="31.05889" lon="-7.917129">
        <ele>4092.39990234375</ele>
        <time>2019-12-28T08:17:48.000Z</time>
      </trkpt>
      <trkpt lat="31.058909" lon="-7.917142">
        <ele>4092.990601975</ele>
        <time>2019-12-28T08:17:52.000Z</time>
      </trkpt>
      <trkpt lat="31.058928" lon="-7.917149">
        <ele>4093.19995117188</ele>
        <time>2019-12-28T08:17:56.000Z</time>
      </trkpt>
      <trkpt lat="31.058944" lon="-7.91716">
        <ele>4093.39990234375</ele>
        <time>2019-12-28T08:17:59.000Z</time>
      </trkpt>
      <trkpt lat="31.058963" lon="-7.917165">
        <ele>4093.39990234375</ele>
        <time>2019-12-28T08:18:01.000Z</time>
      </trkpt>
      <trkpt lat="31.058982" lon="-7.917163">
        <ele>4093.60009765625</ele>
        <time>2019-12-28T08:18:04.000Z</time>
      </trkpt>
      <trkpt lat="31.059002" lon="-7.917157">
        <ele>4093.60009765625</ele>
        <time>2019-12-28T08:18:07.000Z</time>
      </trkpt>
      <trkpt lat="31.059027" lon="-7.917165">
        <ele>4093.39990234375</ele>
        <time>2019-12-28T08:18:11.000Z</time>
      </trkpt>
      <trkpt lat="31.059046" lon="-7.917137">
        <ele>4093.19995117188</ele>
        <time>2019-12-28T08:18:15.000Z</time>
      </trkpt>
      <trkpt lat="31.059059" lon="-7.917122">
        <ele>4093</ele>
        <time>2019-12-28T08:18:18.000Z</time>
      </trkpt>
      <trkpt lat="31.059082" lon="-7.917106">
        <ele>4092.80004882813</ele>
        <time>2019-12-28T08:18:21.000Z</time>
      </trkpt>
      <trkpt lat="31.059104" lon="-7.917094">
        <ele>4092.60009765625</ele>
        <time>2019-12-28T08:18:27.000Z</time>
      </trkpt>
      <trkpt lat="31.059123" lon="-7.917085">
        <ele>4092.39990234375</ele>
        <time>2019-12-28T08:18:30.000Z</time>
      </trkpt>
      <trkpt lat="31.059139" lon="-7.91707">
        <ele>4092.19995117188</ele>
        <time>2019-12-28T08:18:32.000Z</time>
      </trkpt>
      <trkpt lat="31.059155" lon="-7.917054">
        <ele>4092</ele>
        <time>2019-12-28T08:18:35.000Z</time>
      </trkpt>
      <trkpt lat="31.059171" lon="-7.917035">
        <ele>4091.61006472165</ele>
        <time>2019-12-28T08:18:38.000Z</time>
      </trkpt>
      <trkpt lat="31.059184" lon="-7.917018">
        <ele>4091.20935858924</ele>
        <time>2019-12-28T08:18:42.000Z</time>
      </trkpt>
      <trkpt lat="31.059203" lon="-7.916998">
        <ele>4090.80004882813</ele>
        <time>2019-12-28T08:18:47.000Z</time>
      </trkpt>
      <trkpt lat="31.059216" lon="-7.91698">
        <ele>4090.39990234375</ele>
        <time>2019-12-28T08:18:50.000Z</time>
      </trkpt>
      <trkpt lat="31.059232" lon="-7.916966">
        <ele>4090</ele>
        <time>2019-12-28T08:18:53.000Z</time>
      </trkpt>
      <trkpt lat="31.059251" lon="-7.916957">
        <ele>4089.40931184375</ele>
        <time>2019-12-28T08:18:56.000Z</time>
      </trkpt>
      <trkpt lat="31.059264" lon="-7.91694">
        <ele>4089.009398025</ele>
        <time>2019-12-28T08:18:58.000Z</time>
      </trkpt>
      <trkpt lat="31.05928" lon="-7.91692">
        <ele>4088.60949568125</ele>
        <time>2019-12-28T08:19:01.000Z</time>
      </trkpt>
      <trkpt lat="31.059293" lon="-7.916903">
        <ele>4088.009398025</ele>
        <time>2019-12-28T08:19:04.000Z</time>
      </trkpt>
      <trkpt lat="31.059302" lon="-7.916883">
        <ele>4087.009398025</ele>
        <time>2019-12-28T08:19:08.000Z</time>
      </trkpt>
      <trkpt lat="31.059312" lon="-7.916865">
        <ele>4086.60949568125</ele>
        <time>2019-12-28T08:19:10.000Z</time>
      </trkpt>
      <trkpt lat="31.059322" lon="-7.916845">
        <ele>4085.80944685312</ele>
        <time>2019-12-28T08:19:14.000Z</time>
      </trkpt>
      <trkpt lat="31.059331" lon="-7.916826">
        <ele>4084.60949568125</ele>
        <time>2019-12-28T08:19:20.000Z</time>
      </trkpt>
      <trkpt lat="31.059341" lon="-7.916808">
        <ele>4084.20934919687</ele>
        <time>2019-12-28T08:19:23.000Z</time>
      </trkpt>
      <trkpt lat="31.05936" lon="-7.916797">
        <ele>4083.60949568125</ele>
        <time>2019-12-28T08:19:26.000Z</time>
      </trkpt>
      <trkpt lat="31.059382" lon="-7.916782">
        <ele>4083.009398025</ele>
        <time>2019-12-28T08:19:30.000Z</time>
      </trkpt>
      <trkpt lat="31.059395" lon="-7.916762">
        <ele>4082.60949568125</ele>
        <time>2019-12-28T08:19:33.000Z</time>
      </trkpt>
      <trkpt lat="31.059408" lon="-7.916743">
        <ele>4082.19995117188</ele>
        <time>2019-12-28T08:19:38.000Z</time>
      </trkpt>
      <trkpt lat="31.059424" lon="-7.916726">
        <ele>4081.80944685312</ele>
        <time>2019-12-28T08:19:42.000Z</time>
      </trkpt>
      <trkpt lat="31.05944" lon="-7.916717">
        <ele>4081.60949568125</ele>
        <time>2019-12-28T08:19:46.000Z</time>
      </trkpt>
      <trkpt lat="31.059456" lon="-7.916702">
        <ele>4081.60009765625</ele>
        <time>2019-12-28T08:19:50.000Z</time>
      </trkpt>
      <trkpt lat="31.059472" lon="-7.916692">
        <ele>4081.59068815625</ele>
        <time>2019-12-28T08:19:55.000Z</time>
      </trkpt>
      <trkpt lat="31.059491" lon="-7.91668">
        <ele>4081.60009765625</ele>
        <time>2019-12-28T08:19:59.000Z</time>
      </trkpt>
      <trkpt lat="31.05951" lon="-7.916678">
        <ele>4081.80004882813</ele>
        <time>2019-12-28T08:20:03.000Z</time>
      </trkpt>
      <trkpt lat="31.05953" lon="-7.916673">
        <ele>4081.990601975</ele>
        <time>2019-12-28T08:20:06.000Z</time>
      </trkpt>
      <trkpt lat="31.059549" lon="-7.916673">
        <ele>4082</ele>
        <time>2019-12-28T08:20:08.000Z</time>
      </trkpt>
      <trkpt lat="31.059568" lon="-7.916657">
        <ele>4082.39990234375</ele>
        <time>2019-12-28T08:20:12.000Z</time>
      </trkpt>
      <trkpt lat="31.059581" lon="-7.91664">
        <ele>4082.60009765625</ele>
        <time>2019-12-28T08:20:14.000Z</time>
      </trkpt>
      <trkpt lat="31.059594" lon="-7.916625">
        <ele>4082.80004882813</ele>
        <time>2019-12-28T08:20:17.000Z</time>
      </trkpt>
      <trkpt lat="31.059613" lon="-7.916614">
        <ele>4083.19995117188</ele>
        <time>2019-12-28T08:20:20.000Z</time>
      </trkpt>
      <trkpt lat="31.059629" lon="-7.916603">
        <ele>4083.39990234375</ele>
        <time>2019-12-28T08:20:23.000Z</time>
      </trkpt>
      <trkpt lat="31.059651" lon="-7.916598">
        <ele>4083.60009765625</ele>
        <time>2019-12-28T08:20:27.000Z</time>
      </trkpt>
      <trkpt lat="31.059674" lon="-7.916582">
        <ele>4083.990601975</ele>
        <time>2019-12-28T08:20:30.000Z</time>
      </trkpt>
      <trkpt lat="31.05969" lon="-7.91657">
        <ele>4084.19995117188</ele>
        <time>2019-12-28T08:20:34.000Z</time>
      </trkpt>
      <trkpt lat="31.059706" lon="-7.916558">
        <ele>4084.39990234375</ele>
        <time>2019-12-28T08:20:37.000Z</time>
      </trkpt>
      <trkpt lat="31.059725" lon="-7.916554">
        <ele>4084.60009765625</ele>
        <time>2019-12-28T08:20:42.000Z</time>
      </trkpt>
      <trkpt lat="31.059747" lon="-7.916543">
        <ele>4084.80004882813</ele>
        <time>2019-12-28T08:20:48.000Z</time>
      </trkpt>
      <trkpt lat="31.059757" lon="-7.916522">
        <ele>4085.59068815625</ele>
        <time>2019-12-28T08:20:58.000Z</time>
      </trkpt>
      <trkpt lat="31.059776" lon="-7.916523">
        <ele>4086</ele>
        <time>2019-12-28T08:21:04.000Z</time>
      </trkpt>
      <trkpt lat="31.059798" lon="-7.916526">
        <ele>4086.79065080313</ele>
        <time>2019-12-28T08:21:11.000Z</time>
      </trkpt>
      <trkpt lat="31.059821" lon="-7.91652">
        <ele>4087.39050431875</ele>
        <time>2019-12-28T08:21:17.000Z</time>
      </trkpt>
      <trkpt lat="31.059837" lon="-7.916508">
        <ele>4087.990601975</ele>
        <time>2019-12-28T08:21:21.000Z</time>
      </trkpt>
      <trkpt lat="31.059862" lon="-7.916495">
        <ele>4088.59068815625</ele>
        <time>2019-12-28T08:21:25.000Z</time>
      </trkpt>
      <trkpt lat="31.059882" lon="-7.916491">
        <ele>4089.19055314688</ele>
        <time>2019-12-28T08:21:29.000Z</time>
      </trkpt>
      <trkpt lat="31.059907" lon="-7.916486">
        <ele>4090.60009765625</ele>
        <time>2019-12-28T08:21:40.000Z</time>
      </trkpt>
      <trkpt lat="31.059926" lon="-7.916478">
        <ele>4091.79065080313</ele>
        <time>2019-12-28T08:21:47.000Z</time>
      </trkpt>
      <trkpt lat="31.059939" lon="-7.916463">
        <ele>4093.58129013125</ele>
        <time>2019-12-28T08:21:56.000Z</time>
      </trkpt>
      <trkpt lat="31.059955" lon="-7.916451">
        <ele>4095.39990234375</ele>
        <time>2019-12-28T08:22:10.000Z</time>
      </trkpt>
      <trkpt lat="31.059978" lon="-7.916454">
        <ele>4096.2001953125</ele>
        <time>2019-12-28T08:22:18.000Z</time>
      </trkpt>
      <trkpt lat="31.05999" lon="-7.916438">
        <ele>4097.2001953125</ele>
        <time>2019-12-28T08:22:30.000Z</time>
      </trkpt>
      <trkpt lat="31.060006" lon="-7.916429">
        <ele>4097.39990234375</ele>
        <time>2019-12-28T08:22:33.000Z</time>
      </trkpt>
      <trkpt lat="31.060026" lon="-7.916423">
        <ele>4097.7998046875</ele>
        <time>2019-12-28T08:22:38.000Z</time>
      </trkpt>
      <trkpt lat="31.060045" lon="-7.916422">
        <ele>4098.39990234375</ele>
        <time>2019-12-28T08:22:43.000Z</time>
      </trkpt>
      <trkpt lat="31.060064" lon="-7.916423">
        <ele>4099.59068815625</ele>
        <time>2019-12-28T08:22:53.000Z</time>
      </trkpt>
      <trkpt lat="31.060083" lon="-7.916411">
        <ele>4100.9905905</ele>
        <time>2019-12-28T08:23:01.000Z</time>
      </trkpt>
      <trkpt lat="31.060099" lon="-7.9164">
        <ele>4102</ele>
        <time>2019-12-28T08:23:08.000Z</time>
      </trkpt>
      <trkpt lat="31.060115" lon="-7.916386">
        <ele>4102.60009765625</ele>
        <time>2019-12-28T08:23:12.000Z</time>
      </trkpt>
      <trkpt lat="31.060122" lon="-7.916366">
        <ele>4104.1907858125</ele>
        <time>2019-12-28T08:23:22.000Z</time>
      </trkpt>
      <trkpt lat="31.060109" lon="-7.91635">
        <ele>4106.1907858125</ele>
        <time>2019-12-28T08:23:43.000Z</time>
      </trkpt>
      <trkpt lat="31.060128" lon="-7.916345">
        <ele>4106.60009765625</ele>
        <time>2019-12-28T08:23:58.000Z</time>
      </trkpt>
      <trkpt lat="31.060147" lon="-7.916335">
        <ele>4107.1907858125</ele>
        <time>2019-12-28T08:24:04.000Z</time>
      </trkpt>
      <trkpt lat="31.06016" lon="-7.916318">
        <ele>4107.39990234375</ele>
        <time>2019-12-28T08:24:07.000Z</time>
      </trkpt>
      <trkpt lat="31.060173" lon="-7.9163">
        <ele>4108</ele>
        <time>2019-12-28T08:24:12.000Z</time>
      </trkpt>
      <trkpt lat="31.060154" lon="-7.916297">
        <ele>4110.1907858125</ele>
        <time>2019-12-28T08:24:24.000Z</time>
      </trkpt>
      <trkpt lat="31.060131" lon="-7.916292">
        <ele>4110.7904181375</ele>
        <time>2019-12-28T08:24:27.000Z</time>
      </trkpt>
      <trkpt lat="31.060109" lon="-7.916297">
        <ele>4111.39051579375</ele>
        <time>2019-12-28T08:24:30.000Z</time>
      </trkpt>
      <trkpt lat="31.060096" lon="-7.916312">
        <ele>4112.7904181375</ele>
        <time>2019-12-28T08:24:37.000Z</time>
      </trkpt>
      <trkpt lat="31.060115" lon="-7.916303">
        <ele>4116.39013651915</ele>
        <time>2019-12-28T08:25:00.000Z</time>
      </trkpt>
      <trkpt lat="31.060134" lon="-7.916292">
        <ele>4117.39049701319</ele>
        <time>2019-12-28T08:25:05.000Z</time>
      </trkpt>
      <trkpt lat="31.06015" lon="-7.91628">
        <ele>4118.58130160625</ele>
        <time>2019-12-28T08:25:11.000Z</time>
      </trkpt>
      <trkpt lat="31.060166" lon="-7.916265">
        <ele>4119.7904181375</ele>
        <time>2019-12-28T08:25:17.000Z</time>
      </trkpt>
      <trkpt lat="31.060189" lon="-7.916253">
        <ele>4120.9905905</ele>
        <time>2019-12-28T08:25:21.000Z</time>
      </trkpt>
      <trkpt lat="31.060205" lon="-7.916237">
        <ele>4122.7904181375</ele>
        <time>2019-12-28T08:25:28.000Z</time>
      </trkpt>
      <trkpt lat="31.060224" lon="-7.916232">
        <ele>4123.9905905</ele>
        <time>2019-12-28T08:25:33.000Z</time>
      </trkpt>
      <trkpt lat="31.060243" lon="-7.916222">
        <ele>4125.1907858125</ele>
        <time>2019-12-28T08:25:38.000Z</time>
      </trkpt>
      <trkpt lat="31.060266" lon="-7.916208">
        <ele>4126</ele>
        <time>2019-12-28T08:25:43.000Z</time>
      </trkpt>
      <trkpt lat="31.060278" lon="-7.916191">
        <ele>4127.1907858125</ele>
        <time>2019-12-28T08:25:49.000Z</time>
      </trkpt>
      <trkpt lat="31.060294" lon="-7.916175">
        <ele>4127.59068815625</ele>
        <time>2019-12-28T08:25:52.000Z</time>
      </trkpt>
      <trkpt lat="31.060307" lon="-7.916157">
        <ele>4128.59068815625</ele>
        <time>2019-12-28T08:25:57.000Z</time>
      </trkpt>
      <trkpt lat="31.060314" lon="-7.916137">
        <ele>4129.39051579375</ele>
        <time>2019-12-28T08:26:01.000Z</time>
      </trkpt>
      <trkpt lat="31.060314" lon="-7.916114">
        <ele>4129.9905905</ele>
        <time>2019-12-28T08:26:05.000Z</time>
      </trkpt>
      <trkpt lat="31.06032" lon="-7.916088">
        <ele>4130.7904181375</ele>
        <time>2019-12-28T08:26:10.000Z</time>
      </trkpt>
      <trkpt lat="31.060339" lon="-7.916074">
        <ele>4131.59068815625</ele>
        <time>2019-12-28T08:26:15.000Z</time>
      </trkpt>
      <trkpt lat="31.060355" lon="-7.91605">
        <ele>4132.39051579375</ele>
        <time>2019-12-28T08:26:20.000Z</time>
      </trkpt>
      <trkpt lat="31.060368" lon="-7.91603">
        <ele>4132.7904181375</ele>
        <time>2019-12-28T08:26:23.000Z</time>
      </trkpt>
      <trkpt lat="31.060384" lon="-7.916006">
        <ele>4133.2001953125</ele>
        <time>2019-12-28T08:26:27.000Z</time>
      </trkpt>
      <trkpt lat="31.060394" lon="-7.915986">
        <ele>4133.60009765625</ele>
        <time>2019-12-28T08:26:30.000Z</time>
      </trkpt>
      <trkpt lat="31.060397" lon="-7.915965">
        <ele>4134.1907858125</ele>
        <time>2019-12-28T08:26:34.000Z</time>
      </trkpt>
      <trkpt lat="31.060413" lon="-7.915955">
        <ele>4134.9905905</ele>
        <time>2019-12-28T08:26:41.000Z</time>
      </trkpt>
      <trkpt lat="31.060429" lon="-7.915938">
        <ele>4135.59068815625</ele>
        <time>2019-12-28T08:26:45.000Z</time>
      </trkpt>
      <trkpt lat="31.060416" lon="-7.91592">
        <ele>4139.38390347561</ele>
        <time>2019-12-28T08:27:12.000Z</time>
      </trkpt>
      <trkpt lat="31.060403" lon="-7.915905">
        <ele>4139.7998046875</ele>
        <time>2019-12-28T08:27:17.000Z</time>
      </trkpt>
      <trkpt lat="31.060387" lon="-7.915894">
        <ele>4140.1907858125</ele>
        <time>2019-12-28T08:27:21.000Z</time>
      </trkpt>
      <trkpt lat="31.060374" lon="-7.915877">
        <ele>4140.60009765625</ele>
        <time>2019-12-28T08:27:25.000Z</time>
      </trkpt>
      <trkpt lat="31.060365" lon="-7.915857">
        <ele>4141.2001953125</ele>
        <time>2019-12-28T08:27:29.000Z</time>
      </trkpt>
      <trkpt lat="31.060358" lon="-7.915835">
        <ele>4141.9905905</ele>
        <time>2019-12-28T08:27:33.000Z</time>
      </trkpt>
      <trkpt lat="31.060355" lon="-7.915806">
        <ele>4142.7810086375</ele>
        <time>2019-12-28T08:27:37.000Z</time>
      </trkpt>
      <trkpt lat="31.060355" lon="-7.915782">
        <ele>4143.39051579375</ele>
        <time>2019-12-28T08:27:41.000Z</time>
      </trkpt>
      <trkpt lat="31.060352" lon="-7.91576">
        <ele>4143.9905905</ele>
        <time>2019-12-28T08:27:44.000Z</time>
      </trkpt>
      <trkpt lat="31.060355" lon="-7.915734">
        <ele>4144.7904181375</ele>
        <time>2019-12-28T08:27:48.000Z</time>
      </trkpt>
      <trkpt lat="31.060365" lon="-7.915709">
        <ele>4145.7810086375</ele>
        <time>2019-12-28T08:27:52.000Z</time>
      </trkpt>
      <trkpt lat="31.060368" lon="-7.915686">
        <ele>4146.39051579375</ele>
        <time>2019-12-28T08:27:55.000Z</time>
      </trkpt>
      <trkpt lat="31.060371" lon="-7.91566">
        <ele>4146.9905905</ele>
        <time>2019-12-28T08:27:59.000Z</time>
      </trkpt>
      <trkpt lat="31.060374" lon="-7.915637">
        <ele>4147.59068815625</ele>
        <time>2019-12-28T08:28:02.000Z</time>
      </trkpt>
      <trkpt lat="31.060368" lon="-7.915615">
        <ele>4148.1907858125</ele>
        <time>2019-12-28T08:28:05.000Z</time>
      </trkpt>
      <trkpt lat="31.060365" lon="-7.915592">
        <ele>4148.7904181375</ele>
        <time>2019-12-28T08:28:08.000Z</time>
      </trkpt>
      <trkpt lat="31.060358" lon="-7.915566">
        <ele>4149.39051579375</ele>
        <time>2019-12-28T08:28:12.000Z</time>
      </trkpt>
      <trkpt lat="31.060352" lon="-7.915543">
        <ele>4150.1907858125</ele>
        <time>2019-12-28T08:28:16.000Z</time>
      </trkpt>
      <trkpt lat="31.060346" lon="-7.91552">
        <ele>4150.7904181375</ele>
        <time>2019-12-28T08:28:20.000Z</time>
      </trkpt>
      <trkpt lat="31.060339" lon="-7.915497">
        <ele>4151.39051579375</ele>
        <time>2019-12-28T08:28:24.000Z</time>
      </trkpt>
      <trkpt lat="31.060326" lon="-7.915478">
        <ele>4152</ele>
        <time>2019-12-28T08:28:28.000Z</time>
      </trkpt>
      <trkpt lat="31.060314" lon="-7.915457">
        <ele>4152.7904181375</ele>
        <time>2019-12-28T08:28:32.000Z</time>
      </trkpt>
      <trkpt lat="31.060301" lon="-7.915438">
        <ele>4153.59068815625</ele>
        <time>2019-12-28T08:28:37.000Z</time>
      </trkpt>
      <trkpt lat="31.060285" lon="-7.915425">
        <ele>4154.1907858125</ele>
        <time>2019-12-28T08:28:40.000Z</time>
      </trkpt>
      <trkpt lat="31.060266" lon="-7.915417">
        <ele>4154.60009765625</ele>
        <time>2019-12-28T08:28:43.000Z</time>
      </trkpt>
      <trkpt lat="31.060253" lon="-7.915402">
        <ele>4155.39051579375</ele>
        <time>2019-12-28T08:28:47.000Z</time>
      </trkpt>
      <trkpt lat="31.060246" lon="-7.915378">
        <ele>4156.1907858125</ele>
        <time>2019-12-28T08:28:52.000Z</time>
      </trkpt>
      <trkpt lat="31.060243" lon="-7.915355">
        <ele>4156.7998046875</ele>
        <time>2019-12-28T08:28:56.000Z</time>
      </trkpt>
      <trkpt lat="31.060227" lon="-7.915335">
        <ele>4157.58130160625</ele>
        <time>2019-12-28T08:29:00.000Z</time>
      </trkpt>
      <trkpt lat="31.060208" lon="-7.915329">
        <ele>4157.98907632689</ele>
        <time>2019-12-28T08:29:03.000Z</time>
      </trkpt>
      <trkpt lat="31.060186" lon="-7.915329">
        <ele>4158.39051579375</ele>
        <time>2019-12-28T08:29:06.000Z</time>
      </trkpt>
      <trkpt lat="31.060166" lon="-7.915317">
        <ele>4158.9905905</ele>
        <time>2019-12-28T08:29:10.000Z</time>
      </trkpt>
      <trkpt lat="31.060154" lon="-7.915302">
        <ele>4159.60009765625</ele>
        <time>2019-12-28T08:29:14.000Z</time>
      </trkpt>
      <trkpt lat="31.06015" lon="-7.915275">
        <ele>4160.39049701319</ele>
        <time>2019-12-28T08:29:18.000Z</time>
      </trkpt>
      <trkpt lat="31.060154" lon="-7.915252">
        <ele>4160.9905905</ele>
        <time>2019-12-28T08:29:22.000Z</time>
      </trkpt>
      <trkpt lat="31.060147" lon="-7.915225">
        <ele>4161.59068815625</ele>
        <time>2019-12-28T08:29:26.000Z</time>
      </trkpt>
      <trkpt lat="31.060138" lon="-7.915205">
        <ele>4162.1907858125</ele>
        <time>2019-12-28T08:29:30.000Z</time>
      </trkpt>
      <trkpt lat="31.060125" lon="-7.915185">
        <ele>4162.7904181375</ele>
        <time>2019-12-28T08:29:34.000Z</time>
      </trkpt>
      <trkpt lat="31.060109" lon="-7.915168">
        <ele>4163.1907858125</ele>
        <time>2019-12-28T08:29:37.000Z</time>
      </trkpt>
      <trkpt lat="31.06009" lon="-7.91515">
        <ele>4163.59068815625</ele>
        <time>2019-12-28T08:29:40.000Z</time>
      </trkpt>
      <trkpt lat="31.06007" lon="-7.915137">
        <ele>4164.1907858125</ele>
        <time>2019-12-28T08:29:44.000Z</time>
      </trkpt>
      <trkpt lat="31.060058" lon="-7.915115">
        <ele>4164.7904181375</ele>
        <time>2019-12-28T08:29:48.000Z</time>
      </trkpt>
      <trkpt lat="31.060042" lon="-7.915103">
        <ele>4165.2001953125</ele>
        <time>2019-12-28T08:29:51.000Z</time>
      </trkpt>
      <trkpt lat="31.060019" lon="-7.915091">
        <ele>4165.9905905</ele>
        <time>2019-12-28T08:29:55.000Z</time>
      </trkpt>
      <trkpt lat="31.06001" lon="-7.91507">
        <ele>4166.7904181375</ele>
        <time>2019-12-28T08:30:00.000Z</time>
      </trkpt>
      <trkpt lat="31.06001" lon="-7.915049">
        <ele>4167.39051579375</ele>
        <time>2019-12-28T08:30:04.000Z</time>
      </trkpt>
      <trkpt lat="31.060003" lon="-7.915023">
        <ele>4167.9905905</ele>
        <time>2019-12-28T08:30:08.000Z</time>
      </trkpt>
      <trkpt lat="31.059984" lon="-7.915015">
        <ele>4168.39051579375</ele>
        <time>2019-12-28T08:30:11.000Z</time>
      </trkpt>
      <trkpt lat="31.059965" lon="-7.915009">
        <ele>4168.7904181375</ele>
        <time>2019-12-28T08:30:14.000Z</time>
      </trkpt>
      <trkpt lat="31.059946" lon="-7.914998">
        <ele>4169.1907858125</ele>
        <time>2019-12-28T08:30:17.000Z</time>
      </trkpt>
      <trkpt lat="31.059933" lon="-7.914978">
        <ele>4169.7904181375</ele>
        <time>2019-12-28T08:30:21.000Z</time>
      </trkpt>
      <trkpt lat="31.059917" lon="-7.914966">
        <ele>4170</ele>
        <time>2019-12-28T08:30:24.000Z</time>
      </trkpt>
      <trkpt lat="31.059894" lon="-7.914962">
        <ele>4170.39051579375</ele>
        <time>2019-12-28T08:30:27.000Z</time>
      </trkpt>
      <trkpt lat="31.059878" lon="-7.914952">
        <ele>4170.7904181375</ele>
        <time>2019-12-28T08:30:30.000Z</time>
      </trkpt>
      <trkpt lat="31.059869" lon="-7.914932">
        <ele>4171.39990234375</ele>
        <time>2019-12-28T08:30:36.000Z</time>
      </trkpt>
      <trkpt lat="31.059866" lon="-7.91491">
        <ele>4172.7904181375</ele>
        <time>2019-12-28T08:30:47.000Z</time>
      </trkpt>
      <trkpt lat="31.059878" lon="-7.914888">
        <ele>4174</ele>
        <time>2019-12-28T08:31:16.000Z</time>
      </trkpt>
      <trkpt lat="31.059888" lon="-7.914906">
        <ele>4174.7998046875</ele>
        <time>2019-12-28T08:33:21.000Z</time>
      </trkpt>
      <trkpt lat="31.059907" lon="-7.914893">
        <ele>4175</ele>
        <time>2019-12-28T08:33:33.000Z</time>
      </trkpt>
      <trkpt lat="31.059898" lon="-7.914873">
        <ele>4175.2001953125</ele>
        <time>2019-12-28T08:33:42.000Z</time>
      </trkpt>
      <trkpt lat="31.059878" lon="-7.91487">
        <ele>4176.2001953125</ele>
        <time>2019-12-28T08:34:24.000Z</time>
      </trkpt>
      <trkpt lat="31.059859" lon="-7.914872">
        <ele>4176.39051579375</ele>
        <time>2019-12-28T08:34:28.000Z</time>
      </trkpt>
      <trkpt lat="31.05984" lon="-7.914872">
        <ele>4176.7998046875</ele>
        <time>2019-12-28T08:34:39.000Z</time>
      </trkpt>
      <trkpt lat="31.059853" lon="-7.914892">
        <ele>4178</ele>
        <time>2019-12-28T08:36:40.000Z</time>
      </trkpt>
      <trkpt lat="31.059834" lon="-7.91489">
        <ele>4178.1907858125</ele>
        <time>2019-12-28T08:36:50.000Z</time>
      </trkpt>
      <trkpt lat="31.05985" lon="-7.914875">
        <ele>4178.9905905</ele>
        <time>2019-12-28T08:37:05.000Z</time>
      </trkpt>
      <trkpt lat="31.059856" lon="-7.914855">
        <ele>4179.59011842106</ele>
        <time>2019-12-28T08:37:15.000Z</time>
      </trkpt>
      <trkpt lat="31.059853" lon="-7.914833">
        <ele>4180.7998046875</ele>
        <time>2019-12-28T08:40:25.000Z</time>
      </trkpt>
      <trkpt lat="31.059834" lon="-7.914838">
        <ele>4181.2001953125</ele>
        <time>2019-12-28T08:40:32.000Z</time>
      </trkpt>
      <trkpt lat="31.059818" lon="-7.91482">
        <ele>4183.9905905</ele>
        <time>2019-12-28T08:41:21.000Z</time>
      </trkpt>
      <trkpt lat="31.059802" lon="-7.91481">
        <ele>4184.2001953125</ele>
        <time>2019-12-28T08:41:25.000Z</time>
      </trkpt>
      <trkpt lat="31.059789" lon="-7.914794">
        <ele>4186.39990234375</ele>
        <time>2019-12-28T08:43:11.000Z</time>
      </trkpt>
      <trkpt lat="31.059776" lon="-7.914778">
        <ele>4186.60009765625</ele>
        <time>2019-12-28T08:43:16.000Z</time>
      </trkpt>
      <trkpt lat="31.05977" lon="-7.914803">
        <ele>4188.7998046875</ele>
        <time>2019-12-28T08:44:40.000Z</time>
      </trkpt>
      <trkpt lat="31.05975" lon="-7.914812">
        <ele>4189</ele>
        <time>2019-12-28T08:44:45.000Z</time>
      </trkpt>
      <trkpt lat="31.059766" lon="-7.914823">
        <ele>4189.39990234375</ele>
        <time>2019-12-28T08:44:53.000Z</time>
      </trkpt>
      <trkpt lat="31.059786" lon="-7.914828">
        <ele>4190.39990234375</ele>
        <time>2019-12-28T08:45:06.000Z</time>
      </trkpt>
      <trkpt lat="31.059805" lon="-7.914827">
        <ele>4190.60009765625</ele>
        <time>2019-12-28T08:45:14.000Z</time>
      </trkpt>
      <trkpt lat="31.059808" lon="-7.914803">
        <ele>4190.7998046875</ele>
        <time>2019-12-28T08:45:20.000Z</time>
      </trkpt>
      <trkpt lat="31.059792" lon="-7.914791">
        <ele>4191.60009765625</ele>
        <time>2019-12-28T08:45:28.000Z</time>
      </trkpt>
      <trkpt lat="31.059779" lon="-7.914812">
        <ele>4192.2001953125</ele>
        <time>2019-12-28T08:45:42.000Z</time>
      </trkpt>
      <trkpt lat="31.059773" lon="-7.914832">
        <ele>4192.2001953125</ele>
        <time>2019-12-28T08:45:57.000Z</time>
      </trkpt>
      <trkpt lat="31.059747" lon="-7.914852">
        <ele>4192</ele>
        <time>2019-12-28T08:46:01.000Z</time>
      </trkpt>
      <trkpt lat="31.059731" lon="-7.914873">
        <ele>4192</ele>
        <time>2019-12-28T08:46:04.000Z</time>
      </trkpt>
      <trkpt lat="31.059734" lon="-7.914895">
        <ele>4191.7998046875</ele>
        <time>2019-12-28T08:46:12.000Z</time>
      </trkpt>
      <trkpt lat="31.059754" lon="-7.914909">
        <ele>4191.60009765625</ele>
        <time>2019-12-28T08:46:18.000Z</time>
      </trkpt>
      <trkpt lat="31.05977" lon="-7.914926">
        <ele>4191.2095818625</ele>
        <time>2019-12-28T08:46:24.000Z</time>
      </trkpt>
      <trkpt lat="31.059795" lon="-7.914937">
        <ele>4191.0094095</ele>
        <time>2019-12-28T08:46:28.000Z</time>
      </trkpt>
      <trkpt lat="31.059811" lon="-7.914922">
        <ele>4189.60948420625</ele>
        <time>2019-12-28T08:46:40.000Z</time>
      </trkpt>
      <trkpt lat="31.059827" lon="-7.9149">
        <ele>4189.39990234375</ele>
        <time>2019-12-28T08:46:43.000Z</time>
      </trkpt>
      <trkpt lat="31.059827" lon="-7.914878">
        <ele>4189.0094095</ele>
        <time>2019-12-28T08:46:46.000Z</time>
      </trkpt>
      <trkpt lat="31.059811" lon="-7.914897">
        <ele>4188.2001953125</ele>
        <time>2019-12-28T08:47:00.000Z</time>
      </trkpt>
      <trkpt lat="31.059789" lon="-7.914893">
        <ele>4188</ele>
        <time>2019-12-28T08:47:04.000Z</time>
      </trkpt>
      <trkpt lat="31.05977" lon="-7.91489">
        <ele>4187.60948420625</ele>
        <time>2019-12-28T08:47:08.000Z</time>
      </trkpt>
      <trkpt lat="31.059798" lon="-7.914906">
        <ele>4186.60009765625</ele>
        <time>2019-12-28T08:50:26.000Z</time>
      </trkpt>
      <trkpt lat="31.059824" lon="-7.914906">
        <ele>4186.60009765625</ele>
        <time>2019-12-28T08:50:28.000Z</time>
      </trkpt>
      <trkpt lat="31.059834" lon="-7.914888">
        <ele>4186.60009765625</ele>
        <time>2019-12-28T08:50:31.000Z</time>
      </trkpt>
      <trkpt lat="31.059811" lon="-7.914893">
        <ele>4186.39990234375</ele>
        <time>2019-12-28T08:50:39.000Z</time>
      </trkpt>
      <trkpt lat="31.059798" lon="-7.91491">
        <ele>4186.2001953125</ele>
        <time>2019-12-28T08:50:42.000Z</time>
      </trkpt>
      <trkpt lat="31.059776" lon="-7.914915">
        <ele>4186.2001953125</ele>
        <time>2019-12-28T08:50:45.000Z</time>
      </trkpt>
      <trkpt lat="31.05976" lon="-7.914897">
        <ele>4186.60009765625</ele>
        <time>2019-12-28T08:51:24.000Z</time>
      </trkpt>
      <trkpt lat="31.059776" lon="-7.914885">
        <ele>4187.2001953125</ele>
        <time>2019-12-28T08:52:46.000Z</time>
      </trkpt>
      <trkpt lat="31.059789" lon="-7.914903">
        <ele>4186.7998046875</ele>
        <time>2019-12-28T08:53:16.000Z</time>
      </trkpt>
      <trkpt lat="31.05977" lon="-7.914903">
        <ele>4186.39990234375</ele>
        <time>2019-12-28T08:53:33.000Z</time>
      </trkpt>
      <trkpt lat="31.059757" lon="-7.914918">
        <ele>4186.39990234375</ele>
        <time>2019-12-28T08:53:37.000Z</time>
      </trkpt>
      <trkpt lat="31.059766" lon="-7.914937">
        <ele>4186.2001953125</ele>
        <time>2019-12-28T08:53:42.000Z</time>
      </trkpt>
      <trkpt lat="31.059773" lon="-7.914957">
        <ele>4186.0094095</ele>
        <time>2019-12-28T08:53:46.000Z</time>
      </trkpt>
      <trkpt lat="31.059789" lon="-7.914966">
        <ele>4185.2095818625</ele>
        <time>2019-12-28T08:53:55.000Z</time>
      </trkpt>
      <trkpt lat="31.059779" lon="-7.914945">
        <ele>4184</ele>
        <time>2019-12-28T08:54:11.000Z</time>
      </trkpt>
      <trkpt lat="31.059779" lon="-7.914923">
        <ele>4183.0094095</ele>
        <time>2019-12-28T08:54:21.000Z</time>
      </trkpt>
      <trkpt lat="31.059798" lon="-7.91493">
        <ele>4182.0094095</ele>
        <time>2019-12-28T08:54:47.000Z</time>
      </trkpt>
      <trkpt lat="31.059792" lon="-7.91495">
        <ele>4181.60009765625</ele>
        <time>2019-12-28T08:55:16.000Z</time>
      </trkpt>
      <trkpt lat="31.059808" lon="-7.914937">
        <ele>4181.39990234375</ele>
        <time>2019-12-28T08:55:32.000Z</time>
      </trkpt>
      <trkpt lat="31.059798" lon="-7.914918">
        <ele>4180.7998046875</ele>
        <time>2019-12-28T08:55:53.000Z</time>
      </trkpt>
      <trkpt lat="31.059798" lon="-7.914897">
        <ele>4180.2001953125</ele>
        <time>2019-12-28T08:56:10.000Z</time>
      </trkpt>
      <trkpt lat="31.059776" lon="-7.914903">
        <ele>4179.60009765625</ele>
        <time>2019-12-28T09:02:51.000Z</time>
      </trkpt>
      <trkpt lat="31.059773" lon="-7.914926">
        <ele>4180.2001953125</ele>
        <time>2019-12-28T09:02:58.000Z</time>
      </trkpt>
      <trkpt lat="31.059792" lon="-7.914925">
        <ele>4181.60009765625</ele>
        <time>2019-12-28T09:03:26.000Z</time>
      </trkpt>
      <trkpt lat="31.059773" lon="-7.914937">
        <ele>4181.60009765625</ele>
        <time>2019-12-28T09:03:32.000Z</time>
      </trkpt>
      <trkpt lat="31.05977" lon="-7.914958">
        <ele>4181.9905905</ele>
        <time>2019-12-28T09:03:38.000Z</time>
      </trkpt>
      <trkpt lat="31.059792" lon="-7.914954">
        <ele>4182.39051579375</ele>
        <time>2019-12-28T09:03:45.000Z</time>
      </trkpt>
      <trkpt lat="31.059782" lon="-7.914929">
        <ele>4182.60009765625</ele>
        <time>2019-12-28T09:04:23.000Z</time>
      </trkpt>
      <trkpt lat="31.059773" lon="-7.914906">
        <ele>4182.39990234375</ele>
        <time>2019-12-28T09:04:34.000Z</time>
      </trkpt>
      <trkpt lat="31.057619" lon="-7.921062">
        <ele>3877.39990234375</ele>
        <time>2019-12-28T09:47:54.000Z</time>
      </trkpt>
      <trkpt lat="31.057638" lon="-7.921057">
        <ele>3877.39990234375</ele>
        <time>2019-12-28T09:47:59.000Z</time>
      </trkpt>
      <trkpt lat="31.057658" lon="-7.921051">
        <ele>3877.60009765625</ele>
        <time>2019-12-28T09:48:13.000Z</time>
      </trkpt>
      <trkpt lat="31.057677" lon="-7.921046">
        <ele>3877.60009765625</ele>
        <time>2019-12-28T09:48:23.000Z</time>
      </trkpt>
      <trkpt lat="31.057702" lon="-7.921045">
        <ele>3877.60009765625</ele>
        <time>2019-12-28T09:48:29.000Z</time>
      </trkpt>
      <trkpt lat="31.057725" lon="-7.921045">
        <ele>3877.60009765625</ele>
        <time>2019-12-28T09:48:32.000Z</time>
      </trkpt>
      <trkpt lat="31.057747" lon="-7.921048">
        <ele>3877.60009765625</ele>
        <time>2019-12-28T09:48:34.000Z</time>
      </trkpt>
      <trkpt lat="31.057763" lon="-7.921058">
        <ele>3877.80004882813</ele>
        <time>2019-12-28T09:48:37.000Z</time>
      </trkpt>
      <trkpt lat="31.05777" lon="-7.921078">
        <ele>3877.80004882813</ele>
        <time>2019-12-28T09:48:43.000Z</time>
      </trkpt>
      <trkpt lat="31.057763" lon="-7.921098">
        <ele>3877.80004882813</ele>
        <time>2019-12-28T09:48:50.000Z</time>
      </trkpt>
      <trkpt lat="31.057779" lon="-7.921108">
        <ele>3877.71487026875</ele>
        <time>2019-12-28T09:48:54.000Z</time>
      </trkpt>
      <trkpt lat="31.057798" lon="-7.921117">
        <ele>3877.60009765625</ele>
        <time>2019-12-28T09:49:00.000Z</time>
      </trkpt>
      <trkpt lat="31.057818" lon="-7.921111">
        <ele>3877.31472378438</ele>
        <time>2019-12-28T09:49:11.000Z</time>
      </trkpt>
      <trkpt lat="31.057843" lon="-7.921108">
        <ele>3877.19995117188</ele>
        <time>2019-12-28T09:49:15.000Z</time>
      </trkpt>
      <trkpt lat="31.057862" lon="-7.921107">
        <ele>3877.19995117188</ele>
        <time>2019-12-28T09:49:18.000Z</time>
      </trkpt>
      <trkpt lat="31.057885" lon="-7.921102">
        <ele>3877</ele>
        <time>2019-12-28T09:49:23.000Z</time>
      </trkpt>
      <trkpt lat="31.057907" lon="-7.921105">
        <ele>3876.80004882813</ele>
        <time>2019-12-28T09:49:31.000Z</time>
      </trkpt>
      <trkpt lat="31.057907" lon="-7.921082">
        <ele>3876.80004882813</ele>
        <time>2019-12-28T09:49:34.000Z</time>
      </trkpt>
      <trkpt lat="31.05792" lon="-7.921058">
        <ele>3876.71487026875</ele>
        <time>2019-12-28T09:49:37.000Z</time>
      </trkpt>
      <trkpt lat="31.057939" lon="-7.921048">
        <ele>3876.60009765625</ele>
        <time>2019-12-28T09:49:41.000Z</time>
      </trkpt>
      <trkpt lat="31.057955" lon="-7.921037">
        <ele>3876.19995117188</ele>
        <time>2019-12-28T09:49:46.000Z</time>
      </trkpt>
      <trkpt lat="31.057952" lon="-7.92106">
        <ele>3875.51481509375</ele>
        <time>2019-12-28T09:49:54.000Z</time>
      </trkpt>
      <trkpt lat="31.057949" lon="-7.921088">
        <ele>3875.1147726125</ele>
        <time>2019-12-28T09:49:58.000Z</time>
      </trkpt>
      <trkpt lat="31.057936" lon="-7.921114">
        <ele>3874.71487026875</ele>
        <time>2019-12-28T09:50:01.000Z</time>
      </trkpt>
      <trkpt lat="31.05793" lon="-7.921134">
        <ele>3874.39990234375</ele>
        <time>2019-12-28T09:50:03.000Z</time>
      </trkpt>
      <trkpt lat="31.057933" lon="-7.921158">
        <ele>3873.91482144063</ele>
        <time>2019-12-28T09:50:06.000Z</time>
      </trkpt>
      <trkpt lat="31.057926" lon="-7.921185">
        <ele>3873.51481509375</ele>
        <time>2019-12-28T09:50:09.000Z</time>
      </trkpt>
      <trkpt lat="31.057923" lon="-7.921213">
        <ele>3872.91482144063</ele>
        <time>2019-12-28T09:50:12.000Z</time>
      </trkpt>
      <trkpt lat="31.05792" lon="-7.921238">
        <ele>3872.31472378438</ele>
        <time>2019-12-28T09:50:15.000Z</time>
      </trkpt>
      <trkpt lat="31.05791" lon="-7.921265">
        <ele>3871.82964288125</ele>
        <time>2019-12-28T09:50:18.000Z</time>
      </trkpt>
      <trkpt lat="31.057901" lon="-7.921285">
        <ele>3871.42963653437</ele>
        <time>2019-12-28T09:50:20.000Z</time>
      </trkpt>
      <trkpt lat="31.057888" lon="-7.921303">
        <ele>3870.91482144063</ele>
        <time>2019-12-28T09:50:22.000Z</time>
      </trkpt>
      <trkpt lat="31.057882" lon="-7.921323">
        <ele>3870.31472378438</ele>
        <time>2019-12-28T09:50:25.000Z</time>
      </trkpt>
      <trkpt lat="31.057894" lon="-7.921343">
        <ele>3869.31472378438</ele>
        <time>2019-12-28T09:50:30.000Z</time>
      </trkpt>
      <trkpt lat="31.057901" lon="-7.921369">
        <ele>3868.91482144063</ele>
        <time>2019-12-28T09:50:32.000Z</time>
      </trkpt>
      <trkpt lat="31.057904" lon="-7.921395">
        <ele>3868.1147726125</ele>
        <time>2019-12-28T09:50:35.000Z</time>
      </trkpt>
      <trkpt lat="31.057904" lon="-7.921423">
        <ele>3867.71487026875</ele>
        <time>2019-12-28T09:50:37.000Z</time>
      </trkpt>
      <trkpt lat="31.05791" lon="-7.921448">
        <ele>3866.91482144063</ele>
        <time>2019-12-28T09:50:40.000Z</time>
      </trkpt>
      <trkpt lat="31.057904" lon="-7.921477">
        <ele>3865.91482144063</ele>
        <time>2019-12-28T09:50:44.000Z</time>
      </trkpt>
      <trkpt lat="31.057904" lon="-7.921503">
        <ele>3864.62958770625</ele>
        <time>2019-12-28T09:50:49.000Z</time>
      </trkpt>
      <trkpt lat="31.057904" lon="-7.921532">
        <ele>3863.51481509375</ele>
        <time>2019-12-28T09:50:52.000Z</time>
      </trkpt>
      <trkpt lat="31.057923" lon="-7.921538">
        <ele>3862.42963653437</ele>
        <time>2019-12-28T09:50:56.000Z</time>
      </trkpt>
      <trkpt lat="31.057942" lon="-7.921528">
        <ele>3861.31472378438</ele>
        <time>2019-12-28T09:50:59.000Z</time>
      </trkpt>
      <trkpt lat="31.057962" lon="-7.921535">
        <ele>3858.62958770625</ele>
        <time>2019-12-28T09:51:07.000Z</time>
      </trkpt>
      <trkpt lat="31.057981" lon="-7.921546">
        <ele>3857.42963653437</ele>
        <time>2019-12-28T09:51:11.000Z</time>
      </trkpt>
      <trkpt lat="31.057984" lon="-7.921568">
        <ele>3854.31472378438</ele>
        <time>2019-12-28T09:51:25.000Z</time>
      </trkpt>
      <trkpt lat="31.057984" lon="-7.921595">
        <ele>3853.71487026875</ele>
        <time>2019-12-28T09:51:28.000Z</time>
      </trkpt>
      <trkpt lat="31.057987" lon="-7.92162">
        <ele>3852.82964288125</ele>
        <time>2019-12-28T09:51:32.000Z</time>
      </trkpt>
      <trkpt lat="31.057987" lon="-7.921645">
        <ele>3852.229545225</ele>
        <time>2019-12-28T09:51:34.000Z</time>
      </trkpt>
      <trkpt lat="31.057987" lon="-7.921672">
        <ele>3851.42963653437</ele>
        <time>2019-12-28T09:51:37.000Z</time>
      </trkpt>
      <trkpt lat="31.057987" lon="-7.921694">
        <ele>3850.31472378438</ele>
        <time>2019-12-28T09:51:41.000Z</time>
      </trkpt>
      <trkpt lat="31.05799" lon="-7.921717">
        <ele>3849.71487026875</ele>
        <time>2019-12-28T09:51:44.000Z</time>
      </trkpt>
      <trkpt lat="31.057997" lon="-7.921742">
        <ele>3848.91482144063</ele>
        <time>2019-12-28T09:51:47.000Z</time>
      </trkpt>
      <trkpt lat="31.058003" lon="-7.921763">
        <ele>3848.1147726125</ele>
        <time>2019-12-28T09:51:50.000Z</time>
      </trkpt>
      <trkpt lat="31.058006" lon="-7.921786">
        <ele>3847.71487026875</ele>
        <time>2019-12-28T09:51:52.000Z</time>
      </trkpt>
      <trkpt lat="31.058013" lon="-7.921814">
        <ele>3846.91482144063</ele>
        <time>2019-12-28T09:51:55.000Z</time>
      </trkpt>
      <trkpt lat="31.058029" lon="-7.921825">
        <ele>3846.1147726125</ele>
        <time>2019-12-28T09:51:58.000Z</time>
      </trkpt>
      <trkpt lat="31.058016" lon="-7.921857">
        <ele>3845.1147726125</ele>
        <time>2019-12-28T09:52:02.000Z</time>
      </trkpt>
      <trkpt lat="31.058019" lon="-7.921885">
        <ele>3843.71487026875</ele>
        <time>2019-12-28T09:52:07.000Z</time>
      </trkpt>
      <trkpt lat="31.058016" lon="-7.921908">
        <ele>3842.91482144063</ele>
        <time>2019-12-28T09:52:10.000Z</time>
      </trkpt>
      <trkpt lat="31.058042" lon="-7.921908">
        <ele>3841.82964288125</ele>
        <time>2019-12-28T09:52:14.000Z</time>
      </trkpt>
      <trkpt lat="31.058054" lon="-7.921893">
        <ele>3838.91482144063</ele>
        <time>2019-12-28T09:52:25.000Z</time>
      </trkpt>
      <trkpt lat="31.058061" lon="-7.921913">
        <ele>3838.1147726125</ele>
        <time>2019-12-28T09:52:29.000Z</time>
      </trkpt>
      <trkpt lat="31.05807" lon="-7.92194">
        <ele>3837.51481509375</ele>
        <time>2019-12-28T09:52:32.000Z</time>
      </trkpt>
      <trkpt lat="31.05807" lon="-7.921962">
        <ele>3836.31472378438</ele>
        <time>2019-12-28T09:52:40.000Z</time>
      </trkpt>
      <trkpt lat="31.05807" lon="-7.921989">
        <ele>3835.80004882813</ele>
        <time>2019-12-28T09:52:44.000Z</time>
      </trkpt>
      <trkpt lat="31.058077" lon="-7.922009">
        <ele>3835.51481509375</ele>
        <time>2019-12-28T09:52:47.000Z</time>
      </trkpt>
      <trkpt lat="31.05808" lon="-7.922034">
        <ele>3835.19995117188</ele>
        <time>2019-12-28T09:52:50.000Z</time>
      </trkpt>
      <trkpt lat="31.058083" lon="-7.922062">
        <ele>3834.80004882813</ele>
        <time>2019-12-28T09:52:54.000Z</time>
      </trkpt>
      <trkpt lat="31.05809" lon="-7.922088">
        <ele>3834.31472378438</ele>
        <time>2019-12-28T09:52:57.000Z</time>
      </trkpt>
      <trkpt lat="31.058096" lon="-7.922114">
        <ele>3834.1147726125</ele>
        <time>2019-12-28T09:52:59.000Z</time>
      </trkpt>
      <trkpt lat="31.058096" lon="-7.922135">
        <ele>3833.91482144063</ele>
        <time>2019-12-28T09:53:01.000Z</time>
      </trkpt>
      <trkpt lat="31.058096" lon="-7.92216">
        <ele>3833.51481509375</ele>
        <time>2019-12-28T09:53:04.000Z</time>
      </trkpt>
      <trkpt lat="31.058102" lon="-7.922185">
        <ele>3833.19995117188</ele>
        <time>2019-12-28T09:53:06.000Z</time>
      </trkpt>
      <trkpt lat="31.058096" lon="-7.92221">
        <ele>3832.91482144063</ele>
        <time>2019-12-28T09:53:08.000Z</time>
      </trkpt>
      <trkpt lat="31.058086" lon="-7.922242">
        <ele>3832.51481509375</ele>
        <time>2019-12-28T09:53:10.000Z</time>
      </trkpt>
      <trkpt lat="31.058086" lon="-7.922272">
        <ele>3832.229545225</ele>
        <time>2019-12-28T09:53:12.000Z</time>
      </trkpt>
      <trkpt lat="31.058083" lon="-7.922302">
        <ele>3831.91482144063</ele>
        <time>2019-12-28T09:53:14.000Z</time>
      </trkpt>
      <trkpt lat="31.058083" lon="-7.92233">
        <ele>3831.51481509375</ele>
        <time>2019-12-28T09:53:16.000Z</time>
      </trkpt>
      <trkpt lat="31.05809" lon="-7.92236">
        <ele>3831.1147726125</ele>
        <time>2019-12-28T09:53:18.000Z</time>
      </trkpt>
      <trkpt lat="31.05809" lon="-7.922386">
        <ele>3830.71487026875</ele>
        <time>2019-12-28T09:53:20.000Z</time>
      </trkpt>
      <trkpt lat="31.058093" lon="-7.92241">
        <ele>3830.31472378438</ele>
        <time>2019-12-28T09:53:22.000Z</time>
      </trkpt>
      <trkpt lat="31.058106" lon="-7.92244">
        <ele>3829.51481509375</ele>
        <time>2019-12-28T09:53:25.000Z</time>
      </trkpt>
      <trkpt lat="31.058118" lon="-7.92246">
        <ele>3828.91482144063</ele>
        <time>2019-12-28T09:53:27.000Z</time>
      </trkpt>
      <trkpt lat="31.058131" lon="-7.922486">
        <ele>3828.42963653437</ele>
        <time>2019-12-28T09:53:29.000Z</time>
      </trkpt>
      <trkpt lat="31.058134" lon="-7.922508">
        <ele>3827.82964288125</ele>
        <time>2019-12-28T09:53:31.000Z</time>
      </trkpt>
      <trkpt lat="31.058141" lon="-7.922528">
        <ele>3827.229545225</ele>
        <time>2019-12-28T09:53:33.000Z</time>
      </trkpt>
      <trkpt lat="31.058157" lon="-7.922554">
        <ele>3826.62958770625</ele>
        <time>2019-12-28T09:53:35.000Z</time>
      </trkpt>
      <trkpt lat="31.058163" lon="-7.922575">
        <ele>3825.51481509375</ele>
        <time>2019-12-28T09:53:38.000Z</time>
      </trkpt>
      <trkpt lat="31.058179" lon="-7.922592">
        <ele>3824.82964288125</ele>
        <time>2019-12-28T09:53:40.000Z</time>
      </trkpt>
      <trkpt lat="31.058182" lon="-7.922622">
        <ele>3823.82964288125</ele>
        <time>2019-12-28T09:53:43.000Z</time>
      </trkpt>
      <trkpt lat="31.058195" lon="-7.92264">
        <ele>3823.14436666563</ele>
        <time>2019-12-28T09:53:45.000Z</time>
      </trkpt>
      <trkpt lat="31.058211" lon="-7.922657">
        <ele>3822.42963653437</ele>
        <time>2019-12-28T09:53:47.000Z</time>
      </trkpt>
      <trkpt lat="31.058227" lon="-7.922669">
        <ele>3821.229545225</ele>
        <time>2019-12-28T09:53:50.000Z</time>
      </trkpt>
      <trkpt lat="31.058246" lon="-7.92269">
        <ele>3820.229545225</ele>
        <time>2019-12-28T09:53:53.000Z</time>
      </trkpt>
      <trkpt lat="31.058269" lon="-7.922703">
        <ele>3819.54440914687</ele>
        <time>2019-12-28T09:53:55.000Z</time>
      </trkpt>
      <trkpt lat="31.058278" lon="-7.922734">
        <ele>3818.82964288125</ele>
        <time>2019-12-28T09:53:57.000Z</time>
      </trkpt>
      <trkpt lat="31.058291" lon="-7.922757">
        <ele>3817.74436031875</ele>
        <time>2019-12-28T09:54:00.000Z</time>
      </trkpt>
      <trkpt lat="31.05831" lon="-7.922765">
        <ele>3817.14436666563</ele>
        <time>2019-12-28T09:54:02.000Z</time>
      </trkpt>
      <trkpt lat="31.058333" lon="-7.922785">
        <ele>3815.62958770625</ele>
        <time>2019-12-28T09:54:06.000Z</time>
      </trkpt>
      <trkpt lat="31.058349" lon="-7.9228">
        <ele>3814.42963653437</ele>
        <time>2019-12-28T09:54:09.000Z</time>
      </trkpt>
      <trkpt lat="31.058358" lon="-7.922826">
        <ele>3813.229545225</ele>
        <time>2019-12-28T09:54:12.000Z</time>
      </trkpt>
      <trkpt lat="31.058381" lon="-7.922837">
        <ele>3812.1147726125</ele>
        <time>2019-12-28T09:54:15.000Z</time>
      </trkpt>
      <trkpt lat="31.0584" lon="-7.922843">
        <ele>3810.62958770625</ele>
        <time>2019-12-28T09:54:19.000Z</time>
      </trkpt>
      <trkpt lat="31.058422" lon="-7.922831">
        <ele>3808.91482144063</ele>
        <time>2019-12-28T09:54:23.000Z</time>
      </trkpt>
      <trkpt lat="31.058442" lon="-7.922825">
        <ele>3806.94441549375</ele>
        <time>2019-12-28T09:54:28.000Z</time>
      </trkpt>
      <trkpt lat="31.058464" lon="-7.92282">
        <ele>3806.229545225</ele>
        <time>2019-12-28T09:54:30.000Z</time>
      </trkpt>
      <trkpt lat="31.058486" lon="-7.922823">
        <ele>3805.344457975</ele>
        <time>2019-12-28T09:54:33.000Z</time>
      </trkpt>
      <trkpt lat="31.058502" lon="-7.922834">
        <ele>3804.71498497225</ele>
        <time>2019-12-28T09:54:35.000Z</time>
      </trkpt>
      <trkpt lat="31.058509" lon="-7.922855">
        <ele>3803.71487026875</ele>
        <time>2019-12-28T09:54:38.000Z</time>
      </trkpt>
      <trkpt lat="31.058512" lon="-7.922877">
        <ele>3803.1147726125</ele>
        <time>2019-12-28T09:54:40.000Z</time>
      </trkpt>
      <trkpt lat="31.058515" lon="-7.922903">
        <ele>3802.229545225</ele>
        <time>2019-12-28T09:54:43.000Z</time>
      </trkpt>
      <trkpt lat="31.058531" lon="-7.922918">
        <ele>3801.1147726125</ele>
        <time>2019-12-28T09:54:47.000Z</time>
      </trkpt>
      <trkpt lat="31.058554" lon="-7.922908">
        <ele>3800.62958770625</ele>
        <time>2019-12-28T09:54:49.000Z</time>
      </trkpt>
      <trkpt lat="31.05857" lon="-7.922897">
        <ele>3800.02959405313</ele>
        <time>2019-12-28T09:54:51.000Z</time>
      </trkpt>
      <trkpt lat="31.058595" lon="-7.922887">
        <ele>3799.42963653437</ele>
        <time>2019-12-28T09:54:54.000Z</time>
      </trkpt>
      <trkpt lat="31.058614" lon="-7.922878">
        <ele>3798.91482144063</ele>
        <time>2019-12-28T09:54:56.000Z</time>
      </trkpt>
      <trkpt lat="31.058634" lon="-7.922877">
        <ele>3798.51481509375</ele>
        <time>2019-12-28T09:54:58.000Z</time>
      </trkpt>
      <trkpt lat="31.058646" lon="-7.922897">
        <ele>3797.62958770625</ele>
        <time>2019-12-28T09:55:02.000Z</time>
      </trkpt>
      <trkpt lat="31.058653" lon="-7.922918">
        <ele>3796.82964288125</ele>
        <time>2019-12-28T09:55:05.000Z</time>
      </trkpt>
      <trkpt lat="31.058659" lon="-7.922945">
        <ele>3796.1147726125</ele>
        <time>2019-12-28T09:55:08.000Z</time>
      </trkpt>
      <trkpt lat="31.058685" lon="-7.922955">
        <ele>3795.229545225</ele>
        <time>2019-12-28T09:55:11.000Z</time>
      </trkpt>
      <trkpt lat="31.058704" lon="-7.922955">
        <ele>3794.02959405313</ele>
        <time>2019-12-28T09:55:15.000Z</time>
      </trkpt>
      <trkpt lat="31.05873" lon="-7.922943">
        <ele>3793.229545225</ele>
        <time>2019-12-28T09:55:18.000Z</time>
      </trkpt>
      <trkpt lat="31.058755" lon="-7.922942">
        <ele>3792.229545225</ele>
        <time>2019-12-28T09:55:21.000Z</time>
      </trkpt>
      <trkpt lat="31.058781" lon="-7.922934">
        <ele>3791.1147726125</ele>
        <time>2019-12-28T09:55:24.000Z</time>
      </trkpt>
      <trkpt lat="31.058803" lon="-7.922928">
        <ele>3789.91482144063</ele>
        <time>2019-12-28T09:55:28.000Z</time>
      </trkpt>
      <trkpt lat="31.05881" lon="-7.922953">
        <ele>3787.91482144063</ele>
        <time>2019-12-28T09:55:34.000Z</time>
      </trkpt>
      <trkpt lat="31.058822" lon="-7.922978">
        <ele>3787.02959405313</ele>
        <time>2019-12-28T09:55:38.000Z</time>
      </trkpt>
      <trkpt lat="31.058819" lon="-7.923002">
        <ele>3786.42963653437</ele>
        <time>2019-12-28T09:55:40.000Z</time>
      </trkpt>
      <trkpt lat="31.058819" lon="-7.923029">
        <ele>3785.62958770625</ele>
        <time>2019-12-28T09:55:44.000Z</time>
      </trkpt>
      <trkpt lat="31.058816" lon="-7.923052">
        <ele>3784.51481509375</ele>
        <time>2019-12-28T09:55:48.000Z</time>
      </trkpt>
      <trkpt lat="31.058816" lon="-7.923077">
        <ele>3783.71487026875</ele>
        <time>2019-12-28T09:55:52.000Z</time>
      </trkpt>
      <trkpt lat="31.058819" lon="-7.9231">
        <ele>3783.1147726125</ele>
        <time>2019-12-28T09:55:55.000Z</time>
      </trkpt>
      <trkpt lat="31.058819" lon="-7.923128">
        <ele>3782.71487026875</ele>
        <time>2019-12-28T09:55:58.000Z</time>
      </trkpt>
      <trkpt lat="31.058819" lon="-7.923157">
        <ele>3782.1147726125</ele>
        <time>2019-12-28T09:56:01.000Z</time>
      </trkpt>
      <trkpt lat="31.058826" lon="-7.923183">
        <ele>3781.51481509375</ele>
        <time>2019-12-28T09:56:04.000Z</time>
      </trkpt>
      <trkpt lat="31.058826" lon="-7.923208">
        <ele>3780.91482144063</ele>
        <time>2019-12-28T09:56:07.000Z</time>
      </trkpt>
      <trkpt lat="31.058835" lon="-7.923232">
        <ele>3780.31472378438</ele>
        <time>2019-12-28T09:56:10.000Z</time>
      </trkpt>
      <trkpt lat="31.058829" lon="-7.923252">
        <ele>3779.80004882813</ele>
        <time>2019-12-28T09:56:12.000Z</time>
      </trkpt>
      <trkpt lat="31.058835" lon="-7.923277">
        <ele>3779.31472378438</ele>
        <time>2019-12-28T09:56:15.000Z</time>
      </trkpt>
      <trkpt lat="31.058826" lon="-7.923305">
        <ele>3778.91482144063</ele>
        <time>2019-12-28T09:56:17.000Z</time>
      </trkpt>
      <trkpt lat="31.058845" lon="-7.923308">
        <ele>3778.42963653437</ele>
        <time>2019-12-28T09:56:19.000Z</time>
      </trkpt>
      <trkpt lat="31.058851" lon="-7.92333">
        <ele>3777.80004882813</ele>
        <time>2019-12-28T09:56:22.000Z</time>
      </trkpt>
      <trkpt lat="31.058864" lon="-7.923349">
        <ele>3776.82964288125</ele>
        <time>2019-12-28T09:56:26.000Z</time>
      </trkpt>
      <trkpt lat="31.058877" lon="-7.92337">
        <ele>3776.1147726125</ele>
        <time>2019-12-28T09:56:29.000Z</time>
      </trkpt>
      <trkpt lat="31.058874" lon="-7.923395">
        <ele>3775.42963653437</ele>
        <time>2019-12-28T09:56:32.000Z</time>
      </trkpt>
      <trkpt lat="31.058874" lon="-7.923418">
        <ele>3774.71487026875</ele>
        <time>2019-12-28T09:56:35.000Z</time>
      </trkpt>
      <trkpt lat="31.058877" lon="-7.923442">
        <ele>3774</ele>
        <time>2019-12-28T09:56:38.000Z</time>
      </trkpt>
      <trkpt lat="31.058896" lon="-7.923443">
        <ele>3773.31472378438</ele>
        <time>2019-12-28T09:56:41.000Z</time>
      </trkpt>
      <trkpt lat="31.058915" lon="-7.923443">
        <ele>3772.31472378438</ele>
        <time>2019-12-28T09:56:47.000Z</time>
      </trkpt>
      <trkpt lat="31.058934" lon="-7.923454">
        <ele>3771.51481509375</ele>
        <time>2019-12-28T09:56:53.000Z</time>
      </trkpt>
      <trkpt lat="31.058922" lon="-7.92348">
        <ele>3771</ele>
        <time>2019-12-28T09:56:56.000Z</time>
      </trkpt>
      <trkpt lat="31.058909" lon="-7.923503">
        <ele>3770.60009765625</ele>
        <time>2019-12-28T09:56:59.000Z</time>
      </trkpt>
      <trkpt lat="31.058886" lon="-7.923522">
        <ele>3770.31472378438</ele>
        <time>2019-12-28T09:57:02.000Z</time>
      </trkpt>
      <trkpt lat="31.05889" lon="-7.923546">
        <ele>3769.91482144063</ele>
        <time>2019-12-28T09:57:05.000Z</time>
      </trkpt>
      <trkpt lat="31.058896" lon="-7.92357">
        <ele>3769.51481509375</ele>
        <time>2019-12-28T09:57:08.000Z</time>
      </trkpt>
      <trkpt lat="31.058896" lon="-7.923598">
        <ele>3769.19995117188</ele>
        <time>2019-12-28T09:57:11.000Z</time>
      </trkpt>
      <trkpt lat="31.05889" lon="-7.923628">
        <ele>3768.80004882813</ele>
        <time>2019-12-28T09:57:14.000Z</time>
      </trkpt>
      <trkpt lat="31.058883" lon="-7.923653">
        <ele>3768.39990234375</ele>
        <time>2019-12-28T09:57:17.000Z</time>
      </trkpt>
      <trkpt lat="31.058886" lon="-7.92368">
        <ele>3768</ele>
        <time>2019-12-28T09:57:20.000Z</time>
      </trkpt>
      <trkpt lat="31.058886" lon="-7.923709">
        <ele>3767.60009765625</ele>
        <time>2019-12-28T09:57:23.000Z</time>
      </trkpt>
      <trkpt lat="31.058883" lon="-7.923737">
        <ele>3767.19995117188</ele>
        <time>2019-12-28T09:57:26.000Z</time>
      </trkpt>
      <trkpt lat="31.058874" lon="-7.923765">
        <ele>3766.80004882813</ele>
        <time>2019-12-28T09:57:28.000Z</time>
      </trkpt>
      <trkpt lat="31.058867" lon="-7.923797">
        <ele>3766.31472378438</ele>
        <time>2019-12-28T09:57:31.000Z</time>
      </trkpt>
      <trkpt lat="31.058867" lon="-7.923822">
        <ele>3765.51481509375</ele>
        <time>2019-12-28T09:57:34.000Z</time>
      </trkpt>
      <trkpt lat="31.05887" lon="-7.923843">
        <ele>3765.02959405313</ele>
        <time>2019-12-28T09:57:37.000Z</time>
      </trkpt>
      <trkpt lat="31.058877" lon="-7.923865">
        <ele>3764.1147726125</ele>
        <time>2019-12-28T09:57:41.000Z</time>
      </trkpt>
      <trkpt lat="31.05888" lon="-7.923888">
        <ele>3763.31472378438</ele>
        <time>2019-12-28T09:57:45.000Z</time>
      </trkpt>
      <trkpt lat="31.058883" lon="-7.92391">
        <ele>3762.62958770625</ele>
        <time>2019-12-28T09:57:48.000Z</time>
      </trkpt>
      <trkpt lat="31.05888" lon="-7.923937">
        <ele>3761.91482144063</ele>
        <time>2019-12-28T09:57:51.000Z</time>
      </trkpt>
      <trkpt lat="31.05888" lon="-7.923963">
        <ele>3761.31472378438</ele>
        <time>2019-12-28T09:57:54.000Z</time>
      </trkpt>
      <trkpt lat="31.058883" lon="-7.923985">
        <ele>3760.91482144063</ele>
        <time>2019-12-28T09:57:56.000Z</time>
      </trkpt>
      <trkpt lat="31.058883" lon="-7.924012">
        <ele>3760.51481509375</ele>
        <time>2019-12-28T09:57:58.000Z</time>
      </trkpt>
      <trkpt lat="31.058896" lon="-7.924032">
        <ele>3759.91482144063</ele>
        <time>2019-12-28T09:58:01.000Z</time>
      </trkpt>
      <trkpt lat="31.058909" lon="-7.924058">
        <ele>3759.31472378438</ele>
        <time>2019-12-28T09:58:04.000Z</time>
      </trkpt>
      <trkpt lat="31.058915" lon="-7.924085">
        <ele>3758.62958770625</ele>
        <time>2019-12-28T09:58:07.000Z</time>
      </trkpt>
      <trkpt lat="31.058918" lon="-7.924109">
        <ele>3757.91482144063</ele>
        <time>2019-12-28T09:58:10.000Z</time>
      </trkpt>
      <trkpt lat="31.058922" lon="-7.92413">
        <ele>3757.31472378438</ele>
        <time>2019-12-28T09:58:12.000Z</time>
      </trkpt>
      <trkpt lat="31.058925" lon="-7.924151">
        <ele>3756.91482144063</ele>
        <time>2019-12-28T09:58:14.000Z</time>
      </trkpt>
      <trkpt lat="31.058928" lon="-7.92418">
        <ele>3756.1147726125</ele>
        <time>2019-12-28T09:58:17.000Z</time>
      </trkpt>
      <trkpt lat="31.058931" lon="-7.924214">
        <ele>3755.31472378438</ele>
        <time>2019-12-28T09:58:20.000Z</time>
      </trkpt>
      <trkpt lat="31.058944" lon="-7.924231">
        <ele>3754.91482144063</ele>
        <time>2019-12-28T09:58:22.000Z</time>
      </trkpt>
      <trkpt lat="31.058954" lon="-7.924258">
        <ele>3754.31472378438</ele>
        <time>2019-12-28T09:58:25.000Z</time>
      </trkpt>
      <trkpt lat="31.058966" lon="-7.924278">
        <ele>3753.71487026875</ele>
        <time>2019-12-28T09:58:28.000Z</time>
      </trkpt>
      <trkpt lat="31.058973" lon="-7.924303">
        <ele>3753.1147726125</ele>
        <time>2019-12-28T09:58:31.000Z</time>
      </trkpt>
      <trkpt lat="31.058982" lon="-7.924322">
        <ele>3752.31472378438</ele>
        <time>2019-12-28T09:58:34.000Z</time>
      </trkpt>
      <trkpt lat="31.058992" lon="-7.924343">
        <ele>3751.51481509375</ele>
        <time>2019-12-28T09:58:37.000Z</time>
      </trkpt>
      <trkpt lat="31.059002" lon="-7.924366">
        <ele>3750.82964288125</ele>
        <time>2019-12-28T09:58:40.000Z</time>
      </trkpt>
      <trkpt lat="31.059014" lon="-7.924389">
        <ele>3750.02959405313</ele>
        <time>2019-12-28T09:58:43.000Z</time>
      </trkpt>
      <trkpt lat="31.059018" lon="-7.924415">
        <ele>3749.229545225</ele>
        <time>2019-12-28T09:58:46.000Z</time>
      </trkpt>
      <trkpt lat="31.059024" lon="-7.924437">
        <ele>3748.71487026875</ele>
        <time>2019-12-28T09:58:48.000Z</time>
      </trkpt>
      <trkpt lat="31.05904" lon="-7.924455">
        <ele>3747.02959405313</ele>
        <time>2019-12-28T09:58:54.000Z</time>
      </trkpt>
      <trkpt lat="31.059059" lon="-7.92447">
        <ele>3746.02959405313</ele>
        <time>2019-12-28T09:58:57.000Z</time>
      </trkpt>
      <trkpt lat="31.059082" lon="-7.924478">
        <ele>3744.82964288125</ele>
        <time>2019-12-28T09:59:01.000Z</time>
      </trkpt>
      <trkpt lat="31.059098" lon="-7.92449">
        <ele>3743.82964288125</ele>
        <time>2019-12-28T09:59:04.000Z</time>
      </trkpt>
      <trkpt lat="31.059123" lon="-7.924503">
        <ele>3742.91482144063</ele>
        <time>2019-12-28T09:59:07.000Z</time>
      </trkpt>
      <trkpt lat="31.059142" lon="-7.92451">
        <ele>3742.1147726125</ele>
        <time>2019-12-28T09:59:10.000Z</time>
      </trkpt>
      <trkpt lat="31.059158" lon="-7.924526">
        <ele>3741.31472378438</ele>
        <time>2019-12-28T09:59:13.000Z</time>
      </trkpt>
      <trkpt lat="31.059168" lon="-7.924545">
        <ele>3740.62958770625</ele>
        <time>2019-12-28T09:59:16.000Z</time>
      </trkpt>
      <trkpt lat="31.059181" lon="-7.92456">
        <ele>3739.42963653437</ele>
        <time>2019-12-28T09:59:20.000Z</time>
      </trkpt>
      <trkpt lat="31.059203" lon="-7.924563">
        <ele>3738.42963653437</ele>
        <time>2019-12-28T09:59:24.000Z</time>
      </trkpt>
      <trkpt lat="31.059187" lon="-7.924554">
        <ele>3733.60009765625</ele>
        <time>2019-12-28T10:01:41.000Z</time>
      </trkpt>
      <trkpt lat="31.0592" lon="-7.924577">
        <ele>3733.60009765625</ele>
        <time>2019-12-28T10:02:15.000Z</time>
      </trkpt>
      <trkpt lat="31.059216" lon="-7.924588">
        <ele>3733.39990234375</ele>
        <time>2019-12-28T10:02:17.000Z</time>
      </trkpt>
      <trkpt lat="31.059235" lon="-7.924578">
        <ele>3733.39990234375</ele>
        <time>2019-12-28T10:02:19.000Z</time>
      </trkpt>
      <trkpt lat="31.059254" lon="-7.924568">
        <ele>3733.39990234375</ele>
        <time>2019-12-28T10:02:21.000Z</time>
      </trkpt>
      <trkpt lat="31.059277" lon="-7.924577">
        <ele>3733.19995117188</ele>
        <time>2019-12-28T10:02:25.000Z</time>
      </trkpt>
      <trkpt lat="31.059296" lon="-7.92459">
        <ele>3733.19995117188</ele>
        <time>2019-12-28T10:02:28.000Z</time>
      </trkpt>
      <trkpt lat="31.059315" lon="-7.924614">
        <ele>3733</ele>
        <time>2019-12-28T10:02:31.000Z</time>
      </trkpt>
      <trkpt lat="31.059341" lon="-7.924623">
        <ele>3732.80004882813</ele>
        <time>2019-12-28T10:02:34.000Z</time>
      </trkpt>
      <trkpt lat="31.05936" lon="-7.924628">
        <ele>3732.71487026875</ele>
        <time>2019-12-28T10:02:36.000Z</time>
      </trkpt>
      <trkpt lat="31.059379" lon="-7.924635">
        <ele>3732.31472378438</ele>
        <time>2019-12-28T10:02:40.000Z</time>
      </trkpt>
      <trkpt lat="31.059398" lon="-7.92465">
        <ele>3731.91482144063</ele>
        <time>2019-12-28T10:02:43.000Z</time>
      </trkpt>
      <trkpt lat="31.059414" lon="-7.924668">
        <ele>3731.31472378438</ele>
        <time>2019-12-28T10:02:46.000Z</time>
      </trkpt>
      <trkpt lat="31.05943" lon="-7.924678">
        <ele>3730.91482144063</ele>
        <time>2019-12-28T10:02:48.000Z</time>
      </trkpt>
      <trkpt lat="31.05945" lon="-7.924692">
        <ele>3730.1147726125</ele>
        <time>2019-12-28T10:02:51.000Z</time>
      </trkpt>
      <trkpt lat="31.059469" lon="-7.924703">
        <ele>3729.31472378438</ele>
        <time>2019-12-28T10:02:54.000Z</time>
      </trkpt>
      <trkpt lat="31.059482" lon="-7.924722">
        <ele>3728.51481509375</ele>
        <time>2019-12-28T10:02:57.000Z</time>
      </trkpt>
      <trkpt lat="31.059501" lon="-7.92474">
        <ele>3727.62958770625</ele>
        <time>2019-12-28T10:03:00.000Z</time>
      </trkpt>
      <trkpt lat="31.059517" lon="-7.92476">
        <ele>3726.42963653437</ele>
        <time>2019-12-28T10:03:04.000Z</time>
      </trkpt>
      <trkpt lat="31.059533" lon="-7.924774">
        <ele>3725.229545225</ele>
        <time>2019-12-28T10:03:07.000Z</time>
      </trkpt>
      <trkpt lat="31.059549" lon="-7.924789">
        <ele>3724.14436666563</ele>
        <time>2019-12-28T10:03:10.000Z</time>
      </trkpt>
      <trkpt lat="31.059568" lon="-7.924803">
        <ele>3722.71487026875</ele>
        <time>2019-12-28T10:03:14.000Z</time>
      </trkpt>
      <trkpt lat="31.059587" lon="-7.924818">
        <ele>3721.31472378438</ele>
        <time>2019-12-28T10:03:18.000Z</time>
      </trkpt>
      <trkpt lat="31.0596" lon="-7.924834">
        <ele>3720.51481509375</ele>
        <time>2019-12-28T10:03:20.000Z</time>
      </trkpt>
      <trkpt lat="31.059619" lon="-7.924842">
        <ele>3719.91482144063</ele>
        <time>2019-12-28T10:03:22.000Z</time>
      </trkpt>
      <trkpt lat="31.059638" lon="-7.924849">
        <ele>3719.229545225</ele>
        <time>2019-12-28T10:03:24.000Z</time>
      </trkpt>
      <trkpt lat="31.059651" lon="-7.924869">
        <ele>3718.229545225</ele>
        <time>2019-12-28T10:03:27.000Z</time>
      </trkpt>
      <trkpt lat="31.059664" lon="-7.92489">
        <ele>3717.31472378438</ele>
        <time>2019-12-28T10:03:30.000Z</time>
      </trkpt>
      <trkpt lat="31.059677" lon="-7.924908">
        <ele>3716.51481509375</ele>
        <time>2019-12-28T10:03:33.000Z</time>
      </trkpt>
      <trkpt lat="31.059683" lon="-7.924928">
        <ele>3715.62958770625</ele>
        <time>2019-12-28T10:03:36.000Z</time>
      </trkpt>
      <trkpt lat="31.059696" lon="-7.92495">
        <ele>3714.62958770625</ele>
        <time>2019-12-28T10:03:39.000Z</time>
      </trkpt>
      <trkpt lat="31.059702" lon="-7.924971">
        <ele>3713.62958770625</ele>
        <time>2019-12-28T10:03:42.000Z</time>
      </trkpt>
      <trkpt lat="31.059693" lon="-7.925002">
        <ele>3712.71487026875</ele>
        <time>2019-12-28T10:03:45.000Z</time>
      </trkpt>
      <trkpt lat="31.059693" lon="-7.925023">
        <ele>3712.1147726125</ele>
        <time>2019-12-28T10:03:47.000Z</time>
      </trkpt>
      <trkpt lat="31.05969" lon="-7.925055">
        <ele>3711.02959405313</ele>
        <time>2019-12-28T10:03:51.000Z</time>
      </trkpt>
      <trkpt lat="31.05969" lon="-7.925077">
        <ele>3710.229545225</ele>
        <time>2019-12-28T10:03:54.000Z</time>
      </trkpt>
      <trkpt lat="31.05969" lon="-7.925102">
        <ele>3709.51481509375</ele>
        <time>2019-12-28T10:03:57.000Z</time>
      </trkpt>
      <trkpt lat="31.059683" lon="-7.925122">
        <ele>3708.71487026875</ele>
        <time>2019-12-28T10:04:00.000Z</time>
      </trkpt>
      <trkpt lat="31.059683" lon="-7.925145">
        <ele>3707.91482144063</ele>
        <time>2019-12-28T10:04:03.000Z</time>
      </trkpt>
      <trkpt lat="31.059683" lon="-7.925166">
        <ele>3707.02959405313</ele>
        <time>2019-12-28T10:04:06.000Z</time>
      </trkpt>
      <trkpt lat="31.059693" lon="-7.925186">
        <ele>3706.229545225</ele>
        <time>2019-12-28T10:04:09.000Z</time>
      </trkpt>
      <trkpt lat="31.059693" lon="-7.925208">
        <ele>3705.71487026875</ele>
        <time>2019-12-28T10:04:11.000Z</time>
      </trkpt>
      <trkpt lat="31.059699" lon="-7.925228">
        <ele>3704.91482144063</ele>
        <time>2019-12-28T10:04:14.000Z</time>
      </trkpt>
      <trkpt lat="31.059702" lon="-7.925254">
        <ele>3704.229545225</ele>
        <time>2019-12-28T10:04:17.000Z</time>
      </trkpt>
      <trkpt lat="31.059706" lon="-7.925277">
        <ele>3703.42963653437</ele>
        <time>2019-12-28T10:04:20.000Z</time>
      </trkpt>
      <trkpt lat="31.059706" lon="-7.9253">
        <ele>3702.51481509375</ele>
        <time>2019-12-28T10:04:23.000Z</time>
      </trkpt>
      <trkpt lat="31.059718" lon="-7.925317">
        <ele>3701.51481509375</ele>
        <time>2019-12-28T10:04:27.000Z</time>
      </trkpt>
      <trkpt lat="31.059731" lon="-7.925334">
        <ele>3700.51481509375</ele>
        <time>2019-12-28T10:04:31.000Z</time>
      </trkpt>
      <trkpt lat="31.059747" lon="-7.925355">
        <ele>3699.71487026875</ele>
        <time>2019-12-28T10:04:34.000Z</time>
      </trkpt>
      <trkpt lat="31.059766" lon="-7.92536">
        <ele>3698.91482144063</ele>
        <time>2019-12-28T10:04:37.000Z</time>
      </trkpt>
      <trkpt lat="31.059766" lon="-7.925386">
        <ele>3698.02959405313</ele>
        <time>2019-12-28T10:04:41.000Z</time>
      </trkpt>
      <trkpt lat="31.059766" lon="-7.925415">
        <ele>3697.31472378438</ele>
        <time>2019-12-28T10:04:44.000Z</time>
      </trkpt>
      <trkpt lat="31.05976" lon="-7.925438">
        <ele>3696.51481509375</ele>
        <time>2019-12-28T10:04:47.000Z</time>
      </trkpt>
      <trkpt lat="31.059766" lon="-7.92546">
        <ele>3696</ele>
        <time>2019-12-28T10:04:50.000Z</time>
      </trkpt>
      <trkpt lat="31.059776" lon="-7.925483">
        <ele>3695.31472378438</ele>
        <time>2019-12-28T10:04:53.000Z</time>
      </trkpt>
      <trkpt lat="31.059789" lon="-7.925503">
        <ele>3694.42963653437</ele>
        <time>2019-12-28T10:04:56.000Z</time>
      </trkpt>
      <trkpt lat="31.059802" lon="-7.925522">
        <ele>3693.42963653437</ele>
        <time>2019-12-28T10:04:59.000Z</time>
      </trkpt>
      <trkpt lat="31.059811" lon="-7.92554">
        <ele>3692.62958770625</ele>
        <time>2019-12-28T10:05:02.000Z</time>
      </trkpt>
      <trkpt lat="31.059821" lon="-7.925565">
        <ele>3691.91482144063</ele>
        <time>2019-12-28T10:05:05.000Z</time>
      </trkpt>
      <trkpt lat="31.059811" lon="-7.925586">
        <ele>3691.51481509375</ele>
        <time>2019-12-28T10:05:07.000Z</time>
      </trkpt>
      <trkpt lat="31.059808" lon="-7.92561">
        <ele>3690.91482144063</ele>
        <time>2019-12-28T10:05:10.000Z</time>
      </trkpt>
      <trkpt lat="31.059811" lon="-7.925635">
        <ele>3690.19995117188</ele>
        <time>2019-12-28T10:05:15.000Z</time>
      </trkpt>
      <trkpt lat="31.059827" lon="-7.925658">
        <ele>3689.51481509375</ele>
        <time>2019-12-28T10:05:19.000Z</time>
      </trkpt>
      <trkpt lat="31.059843" lon="-7.925668">
        <ele>3689.1147726125</ele>
        <time>2019-12-28T10:05:22.000Z</time>
      </trkpt>
      <trkpt lat="31.059866" lon="-7.925651">
        <ele>3688.31472378438</ele>
        <time>2019-12-28T10:05:26.000Z</time>
      </trkpt>
      <trkpt lat="31.059882" lon="-7.925674">
        <ele>3686.91482144063</ele>
        <time>2019-12-28T10:05:33.000Z</time>
      </trkpt>
      <trkpt lat="31.059891" lon="-7.925692">
        <ele>3685.91482144063</ele>
        <time>2019-12-28T10:05:38.000Z</time>
      </trkpt>
      <trkpt lat="31.059904" lon="-7.92571">
        <ele>3685.1147726125</ele>
        <time>2019-12-28T10:05:41.000Z</time>
      </trkpt>
      <trkpt lat="31.05992" lon="-7.925723">
        <ele>3684.31472378438</ele>
        <time>2019-12-28T10:05:45.000Z</time>
      </trkpt>
      <trkpt lat="31.05993" lon="-7.925745">
        <ele>3681.71487026875</ele>
        <time>2019-12-28T10:06:00.000Z</time>
      </trkpt>
      <trkpt lat="31.059949" lon="-7.925752">
        <ele>3680.60009765625</ele>
        <time>2019-12-28T10:07:36.000Z</time>
      </trkpt>
      <trkpt lat="31.059968" lon="-7.925748">
        <ele>3680.39990234375</ele>
        <time>2019-12-28T10:07:40.000Z</time>
      </trkpt>
      <trkpt lat="31.059987" lon="-7.925748">
        <ele>3679.80004882813</ele>
        <time>2019-12-28T10:08:10.000Z</time>
      </trkpt>
      <trkpt lat="31.05999" lon="-7.925772">
        <ele>3679.80004882813</ele>
        <time>2019-12-28T10:08:24.000Z</time>
      </trkpt>
      <trkpt lat="31.060003" lon="-7.92579">
        <ele>3679.80004882813</ele>
        <time>2019-12-28T10:08:29.000Z</time>
      </trkpt>
      <trkpt lat="31.06001" lon="-7.925812">
        <ele>3679.60009765625</ele>
        <time>2019-12-28T10:08:33.000Z</time>
      </trkpt>
      <trkpt lat="31.060022" lon="-7.925835">
        <ele>3679.39990234375</ele>
        <time>2019-12-28T10:08:38.000Z</time>
      </trkpt>
      <trkpt lat="31.060035" lon="-7.925855">
        <ele>3679.1147726125</ele>
        <time>2019-12-28T10:08:41.000Z</time>
      </trkpt>
      <trkpt lat="31.060038" lon="-7.925878">
        <ele>3678.80004882813</ele>
        <time>2019-12-28T10:08:44.000Z</time>
      </trkpt>
      <trkpt lat="31.060038" lon="-7.9259">
        <ele>3678.51481509375</ele>
        <time>2019-12-28T10:08:47.000Z</time>
      </trkpt>
      <trkpt lat="31.060038" lon="-7.925922">
        <ele>3678.1147726125</ele>
        <time>2019-12-28T10:08:50.000Z</time>
      </trkpt>
      <trkpt lat="31.060058" lon="-7.92593">
        <ele>3677.71487026875</ele>
        <time>2019-12-28T10:08:53.000Z</time>
      </trkpt>
      <trkpt lat="31.060051" lon="-7.925958">
        <ele>3676.91482144063</ele>
        <time>2019-12-28T10:08:58.000Z</time>
      </trkpt>
      <trkpt lat="31.060048" lon="-7.925985">
        <ele>3676.51481509375</ele>
        <time>2019-12-28T10:09:01.000Z</time>
      </trkpt>
      <trkpt lat="31.060064" lon="-7.926002">
        <ele>3676</ele>
        <time>2019-12-28T10:09:04.000Z</time>
      </trkpt>
      <trkpt lat="31.060077" lon="-7.92602">
        <ele>3675.31472378438</ele>
        <time>2019-12-28T10:09:08.000Z</time>
      </trkpt>
      <trkpt lat="31.060086" lon="-7.926047">
        <ele>3674.31472378438</ele>
        <time>2019-12-28T10:09:14.000Z</time>
      </trkpt>
      <trkpt lat="31.060093" lon="-7.926068">
        <ele>3673.80004882813</ele>
        <time>2019-12-28T10:09:17.000Z</time>
      </trkpt>
      <trkpt lat="31.060106" lon="-7.926088">
        <ele>3673.42963653437</ele>
        <time>2019-12-28T10:09:20.000Z</time>
      </trkpt>
      <trkpt lat="31.060115" lon="-7.926112">
        <ele>3672.39990234375</ele>
        <time>2019-12-28T10:09:24.000Z</time>
      </trkpt>
      <trkpt lat="31.060112" lon="-7.926133">
        <ele>3671.82964288125</ele>
        <time>2019-12-28T10:09:27.000Z</time>
      </trkpt>
      <trkpt lat="31.060109" lon="-7.926157">
        <ele>3671.1147726125</ele>
        <time>2019-12-28T10:09:30.000Z</time>
      </trkpt>
      <trkpt lat="31.060125" lon="-7.926174">
        <ele>3670.51481509375</ele>
        <time>2019-12-28T10:09:33.000Z</time>
      </trkpt>
      <trkpt lat="31.060131" lon="-7.926197">
        <ele>3669.71487026875</ele>
        <time>2019-12-28T10:09:37.000Z</time>
      </trkpt>
      <trkpt lat="31.060128" lon="-7.926222">
        <ele>3669.1147726125</ele>
        <time>2019-12-28T10:09:40.000Z</time>
      </trkpt>
      <trkpt lat="31.060131" lon="-7.926246">
        <ele>3668.39990234375</ele>
        <time>2019-12-28T10:09:44.000Z</time>
      </trkpt>
      <trkpt lat="31.060138" lon="-7.926269">
        <ele>3667.91482144063</ele>
        <time>2019-12-28T10:09:49.000Z</time>
      </trkpt>
      <trkpt lat="31.060147" lon="-7.926291">
        <ele>3667.1147726125</ele>
        <time>2019-12-28T10:09:54.000Z</time>
      </trkpt>
      <trkpt lat="31.060154" lon="-7.926317">
        <ele>3666.71487026875</ele>
        <time>2019-12-28T10:09:57.000Z</time>
      </trkpt>
      <trkpt lat="31.06016" lon="-7.926345">
        <ele>3666.1147726125</ele>
        <time>2019-12-28T10:10:01.000Z</time>
      </trkpt>
      <trkpt lat="31.060157" lon="-7.926367">
        <ele>3665.51481509375</ele>
        <time>2019-12-28T10:10:05.000Z</time>
      </trkpt>
      <trkpt lat="31.060163" lon="-7.926388">
        <ele>3664.80004882813</ele>
        <time>2019-12-28T10:10:09.000Z</time>
      </trkpt>
      <trkpt lat="31.06016" lon="-7.926415">
        <ele>3664.1147726125</ele>
        <time>2019-12-28T10:10:13.000Z</time>
      </trkpt>
      <trkpt lat="31.060154" lon="-7.92644">
        <ele>3663.80004882813</ele>
        <time>2019-12-28T10:10:15.000Z</time>
      </trkpt>
      <trkpt lat="31.060138" lon="-7.926466">
        <ele>3663.51481509375</ele>
        <time>2019-12-28T10:10:17.000Z</time>
      </trkpt>
      <trkpt lat="31.060134" lon="-7.926493">
        <ele>3663.1147726125</ele>
        <time>2019-12-28T10:10:19.000Z</time>
      </trkpt>
      <trkpt lat="31.060128" lon="-7.926518">
        <ele>3662.91482144063</ele>
        <time>2019-12-28T10:10:21.000Z</time>
      </trkpt>
      <trkpt lat="31.060131" lon="-7.92654">
        <ele>3662.51481509375</ele>
        <time>2019-12-28T10:10:23.000Z</time>
      </trkpt>
      <trkpt lat="31.060131" lon="-7.926562">
        <ele>3662.1147726125</ele>
        <time>2019-12-28T10:10:25.000Z</time>
      </trkpt>
      <trkpt lat="31.060134" lon="-7.926585">
        <ele>3661.62958770625</ele>
        <time>2019-12-28T10:10:28.000Z</time>
      </trkpt>
      <trkpt lat="31.06015" lon="-7.926606">
        <ele>3660.91482144063</ele>
        <time>2019-12-28T10:10:31.000Z</time>
      </trkpt>
      <trkpt lat="31.060157" lon="-7.926626">
        <ele>3660.31472378438</ele>
        <time>2019-12-28T10:10:34.000Z</time>
      </trkpt>
      <trkpt lat="31.06017" lon="-7.926648">
        <ele>3659.31472378438</ele>
        <time>2019-12-28T10:10:38.000Z</time>
      </trkpt>
      <trkpt lat="31.060176" lon="-7.926674">
        <ele>3658.51481509375</ele>
        <time>2019-12-28T10:10:41.000Z</time>
      </trkpt>
      <trkpt lat="31.060182" lon="-7.926695">
        <ele>3658.1147726125</ele>
        <time>2019-12-28T10:10:43.000Z</time>
      </trkpt>
      <trkpt lat="31.060198" lon="-7.926714">
        <ele>3657.51481509375</ele>
        <time>2019-12-28T10:10:45.000Z</time>
      </trkpt>
      <trkpt lat="31.060211" lon="-7.926734">
        <ele>3657.1147726125</ele>
        <time>2019-12-28T10:10:47.000Z</time>
      </trkpt>
      <trkpt lat="31.06023" lon="-7.926745">
        <ele>3656.51481509375</ele>
        <time>2019-12-28T10:10:49.000Z</time>
      </trkpt>
      <trkpt lat="31.060243" lon="-7.926762">
        <ele>3656.1147726125</ele>
        <time>2019-12-28T10:10:51.000Z</time>
      </trkpt>
      <trkpt lat="31.060259" lon="-7.926777">
        <ele>3655.51481509375</ele>
        <time>2019-12-28T10:10:53.000Z</time>
      </trkpt>
      <trkpt lat="31.060275" lon="-7.926786">
        <ele>3655.1147726125</ele>
        <time>2019-12-28T10:10:55.000Z</time>
      </trkpt>
      <trkpt lat="31.060298" lon="-7.926805">
        <ele>3654.31472378438</ele>
        <time>2019-12-28T10:10:58.000Z</time>
      </trkpt>
      <trkpt lat="31.060317" lon="-7.926818">
        <ele>3653.71487026875</ele>
        <time>2019-12-28T10:11:01.000Z</time>
      </trkpt>
      <trkpt lat="31.060339" lon="-7.926825">
        <ele>3653.31472378438</ele>
        <time>2019-12-28T10:11:03.000Z</time>
      </trkpt>
      <trkpt lat="31.060358" lon="-7.926828">
        <ele>3652.71487026875</ele>
        <time>2019-12-28T10:11:05.000Z</time>
      </trkpt>
      <trkpt lat="31.060378" lon="-7.926825">
        <ele>3652.02959405313</ele>
        <time>2019-12-28T10:11:08.000Z</time>
      </trkpt>
      <trkpt lat="31.060378" lon="-7.92686">
        <ele>3650.42963653437</ele>
        <time>2019-12-28T10:11:13.000Z</time>
      </trkpt>
      <trkpt lat="31.060381" lon="-7.92689">
        <ele>3648.62958770625</ele>
        <time>2019-12-28T10:11:17.000Z</time>
      </trkpt>
      <trkpt lat="31.060394" lon="-7.926906">
        <ele>3647.229545225</ele>
        <time>2019-12-28T10:11:20.000Z</time>
      </trkpt>
      <trkpt lat="31.060403" lon="-7.926932">
        <ele>3646.02959405313</ele>
        <time>2019-12-28T10:11:24.000Z</time>
      </trkpt>
      <trkpt lat="31.060426" lon="-7.926935">
        <ele>3645.1147726125</ele>
        <time>2019-12-28T10:11:28.000Z</time>
      </trkpt>
      <trkpt lat="31.060445" lon="-7.926935">
        <ele>3644.51481509375</ele>
        <time>2019-12-28T10:11:31.000Z</time>
      </trkpt>
      <trkpt lat="31.060464" lon="-7.926943">
        <ele>3643.51481509375</ele>
        <time>2019-12-28T10:11:36.000Z</time>
      </trkpt>
      <trkpt lat="31.060461" lon="-7.926969">
        <ele>3643.19995117188</ele>
        <time>2019-12-28T10:11:38.000Z</time>
      </trkpt>
      <trkpt lat="31.060474" lon="-7.926986">
        <ele>3642.71487026875</ele>
        <time>2019-12-28T10:11:41.000Z</time>
      </trkpt>
      <trkpt lat="31.060493" lon="-7.927002">
        <ele>3641.91482144063</ele>
        <time>2019-12-28T10:11:45.000Z</time>
      </trkpt>
      <trkpt lat="31.060512" lon="-7.927008">
        <ele>3641.31472378438</ele>
        <time>2019-12-28T10:11:48.000Z</time>
      </trkpt>
      <trkpt lat="31.060518" lon="-7.927028">
        <ele>3640.71487026875</ele>
        <time>2019-12-28T10:11:52.000Z</time>
      </trkpt>
      <trkpt lat="31.060515" lon="-7.927057">
        <ele>3640.19995117188</ele>
        <time>2019-12-28T10:11:55.000Z</time>
      </trkpt>
      <trkpt lat="31.060512" lon="-7.92708">
        <ele>3639.91482144063</ele>
        <time>2019-12-28T10:11:57.000Z</time>
      </trkpt>
      <trkpt lat="31.060512" lon="-7.927107">
        <ele>3639.39990234375</ele>
        <time>2019-12-28T10:12:00.000Z</time>
      </trkpt>
      <trkpt lat="31.060512" lon="-7.927138">
        <ele>3639</ele>
        <time>2019-12-28T10:12:03.000Z</time>
      </trkpt>
      <trkpt lat="31.060512" lon="-7.927162">
        <ele>3638.60009765625</ele>
        <time>2019-12-28T10:12:07.000Z</time>
      </trkpt>
      <trkpt lat="31.060512" lon="-7.927185">
        <ele>3638</ele>
        <time>2019-12-28T10:12:11.000Z</time>
      </trkpt>
      <trkpt lat="31.060525" lon="-7.9272">
        <ele>3637.60009765625</ele>
        <time>2019-12-28T10:12:14.000Z</time>
      </trkpt>
      <trkpt lat="31.060541" lon="-7.927217">
        <ele>3637.1147726125</ele>
        <time>2019-12-28T10:12:18.000Z</time>
      </trkpt>
      <trkpt lat="31.06056" lon="-7.92722">
        <ele>3636.71487026875</ele>
        <time>2019-12-28T10:12:22.000Z</time>
      </trkpt>
      <trkpt lat="31.06057" lon="-7.927238">
        <ele>3635.91482144063</ele>
        <time>2019-12-28T10:12:26.000Z</time>
      </trkpt>
      <trkpt lat="31.060563" lon="-7.92726">
        <ele>3635.02959405313</ele>
        <time>2019-12-28T10:12:30.000Z</time>
      </trkpt>
      <trkpt lat="31.06057" lon="-7.927282">
        <ele>3633.62958770625</ele>
        <time>2019-12-28T10:12:36.000Z</time>
      </trkpt>
      <trkpt lat="31.060576" lon="-7.927308">
        <ele>3632.19995117188</ele>
        <time>2019-12-28T10:12:42.000Z</time>
      </trkpt>
      <trkpt lat="31.060582" lon="-7.927328">
        <ele>3631.51481509375</ele>
        <time>2019-12-28T10:12:45.000Z</time>
      </trkpt>
      <trkpt lat="31.060576" lon="-7.927351">
        <ele>3630.82964288125</ele>
        <time>2019-12-28T10:12:48.000Z</time>
      </trkpt>
      <trkpt lat="31.060586" lon="-7.92737">
        <ele>3630.1147726125</ele>
        <time>2019-12-28T10:12:52.000Z</time>
      </trkpt>
      <trkpt lat="31.060563" lon="-7.927383">
        <ele>3629.31472378438</ele>
        <time>2019-12-28T10:12:56.000Z</time>
      </trkpt>
      <trkpt lat="31.06056" lon="-7.927405">
        <ele>3628.91482144063</ele>
        <time>2019-12-28T10:12:59.000Z</time>
      </trkpt>
      <trkpt lat="31.060566" lon="-7.927428">
        <ele>3628.31472378438</ele>
        <time>2019-12-28T10:13:02.000Z</time>
      </trkpt>
      <trkpt lat="31.060566" lon="-7.927452">
        <ele>3627.80004882813</ele>
        <time>2019-12-28T10:13:06.000Z</time>
      </trkpt>
      <trkpt lat="31.060576" lon="-7.927478">
        <ele>3627.31472378438</ele>
        <time>2019-12-28T10:13:10.000Z</time>
      </trkpt>
      <trkpt lat="31.060582" lon="-7.927498">
        <ele>3626.91482144063</ele>
        <time>2019-12-28T10:13:14.000Z</time>
      </trkpt>
      <trkpt lat="31.060595" lon="-7.927515">
        <ele>3626.60009765625</ele>
        <time>2019-12-28T10:13:17.000Z</time>
      </trkpt>
      <trkpt lat="31.060614" lon="-7.927525">
        <ele>3626.39990234375</ele>
        <time>2019-12-28T10:13:20.000Z</time>
      </trkpt>
      <trkpt lat="31.060611" lon="-7.927549">
        <ele>3625.91482144063</ele>
        <time>2019-12-28T10:13:25.000Z</time>
      </trkpt>
      <trkpt lat="31.060611" lon="-7.927572">
        <ele>3625.60009765625</ele>
        <time>2019-12-28T10:13:28.000Z</time>
      </trkpt>
      <trkpt lat="31.060608" lon="-7.927597">
        <ele>3625.39990234375</ele>
        <time>2019-12-28T10:13:30.000Z</time>
      </trkpt>
      <trkpt lat="31.060614" lon="-7.927618">
        <ele>3625.19995117188</ele>
        <time>2019-12-28T10:13:32.000Z</time>
      </trkpt>
      <trkpt lat="31.060621" lon="-7.927646">
        <ele>3625</ele>
        <time>2019-12-28T10:13:34.000Z</time>
      </trkpt>
      <trkpt lat="31.060627" lon="-7.927675">
        <ele>3624.80004882813</ele>
        <time>2019-12-28T10:13:36.000Z</time>
      </trkpt>
      <trkpt lat="31.06063" lon="-7.927698">
        <ele>3624.60009765625</ele>
        <time>2019-12-28T10:13:38.000Z</time>
      </trkpt>
      <trkpt lat="31.060624" lon="-7.92772">
        <ele>3624.1147726125</ele>
        <time>2019-12-28T10:13:42.000Z</time>
      </trkpt>
      <trkpt lat="31.060624" lon="-7.927745">
        <ele>3623.60009765625</ele>
        <time>2019-12-28T10:13:47.000Z</time>
      </trkpt>
      <trkpt lat="31.060624" lon="-7.927766">
        <ele>3623.31472378438</ele>
        <time>2019-12-28T10:13:50.000Z</time>
      </trkpt>
      <trkpt lat="31.060614" lon="-7.927785">
        <ele>3622.91482144063</ele>
        <time>2019-12-28T10:13:53.000Z</time>
      </trkpt>
      <trkpt lat="31.060598" lon="-7.927807">
        <ele>3622.51481509375</ele>
        <time>2019-12-28T10:13:56.000Z</time>
      </trkpt>
      <trkpt lat="31.060592" lon="-7.927827">
        <ele>3622.19995117188</ele>
        <time>2019-12-28T10:13:59.000Z</time>
      </trkpt>
      <trkpt lat="31.060592" lon="-7.927858">
        <ele>3621.71487026875</ele>
        <time>2019-12-28T10:14:02.000Z</time>
      </trkpt>
      <trkpt lat="31.060598" lon="-7.927882">
        <ele>3621.31472378438</ele>
        <time>2019-12-28T10:14:04.000Z</time>
      </trkpt>
      <trkpt lat="31.060611" lon="-7.927903">
        <ele>3620.71487026875</ele>
        <time>2019-12-28T10:14:07.000Z</time>
      </trkpt>
      <trkpt lat="31.060605" lon="-7.927929">
        <ele>3620.229545225</ele>
        <time>2019-12-28T10:14:09.000Z</time>
      </trkpt>
      <trkpt lat="31.060602" lon="-7.927955">
        <ele>3619.51481509375</ele>
        <time>2019-12-28T10:14:12.000Z</time>
      </trkpt>
      <trkpt lat="31.060595" lon="-7.927977">
        <ele>3619.02959405313</ele>
        <time>2019-12-28T10:14:14.000Z</time>
      </trkpt>
      <trkpt lat="31.060598" lon="-7.928003">
        <ele>3618.1147726125</ele>
        <time>2019-12-28T10:14:17.000Z</time>
      </trkpt>
      <trkpt lat="31.060595" lon="-7.928032">
        <ele>3617.51481509375</ele>
        <time>2019-12-28T10:14:20.000Z</time>
      </trkpt>
      <trkpt lat="31.060595" lon="-7.928062">
        <ele>3616.91482144063</ele>
        <time>2019-12-28T10:14:23.000Z</time>
      </trkpt>
      <trkpt lat="31.060614" lon="-7.928074">
        <ele>3616.31472378438</ele>
        <time>2019-12-28T10:14:25.000Z</time>
      </trkpt>
      <trkpt lat="31.060637" lon="-7.928082">
        <ele>3615.91490639808</ele>
        <time>2019-12-28T10:14:28.000Z</time>
      </trkpt>
      <trkpt lat="31.060662" lon="-7.928083">
        <ele>3615.39990234375</ele>
        <time>2019-12-28T10:14:30.000Z</time>
      </trkpt>
      <trkpt lat="31.060669" lon="-7.928103">
        <ele>3614.91482144063</ele>
        <time>2019-12-28T10:14:33.000Z</time>
      </trkpt>
      <trkpt lat="31.060662" lon="-7.92813">
        <ele>3614.51481509375</ele>
        <time>2019-12-28T10:14:36.000Z</time>
      </trkpt>
      <trkpt lat="31.060672" lon="-7.928154">
        <ele>3614</ele>
        <time>2019-12-28T10:14:39.000Z</time>
      </trkpt>
      <trkpt lat="31.060678" lon="-7.928177">
        <ele>3613.71487026875</ele>
        <time>2019-12-28T10:14:42.000Z</time>
      </trkpt>
      <trkpt lat="31.060672" lon="-7.928198">
        <ele>3612.31472378438</ele>
        <time>2019-12-28T10:14:52.000Z</time>
      </trkpt>
      <trkpt lat="31.060662" lon="-7.92822">
        <ele>3611.71487026875</ele>
        <time>2019-12-28T10:14:56.000Z</time>
      </trkpt>
      <trkpt lat="31.060672" lon="-7.928238">
        <ele>3610.91482144063</ele>
        <time>2019-12-28T10:15:04.000Z</time>
      </trkpt>
      <trkpt lat="31.060691" lon="-7.928252">
        <ele>3610.71487026875</ele>
        <time>2019-12-28T10:15:07.000Z</time>
      </trkpt>
      <trkpt lat="31.060701" lon="-7.928278">
        <ele>3610.39990234375</ele>
        <time>2019-12-28T10:15:10.000Z</time>
      </trkpt>
      <trkpt lat="31.060698" lon="-7.9283">
        <ele>3610.19995117188</ele>
        <time>2019-12-28T10:15:13.000Z</time>
      </trkpt>
      <trkpt lat="31.060714" lon="-7.928317">
        <ele>3610.1147726125</ele>
        <time>2019-12-28T10:15:16.000Z</time>
      </trkpt>
      <trkpt lat="31.060714" lon="-7.928342">
        <ele>3610</ele>
        <time>2019-12-28T10:15:19.000Z</time>
      </trkpt>
      <trkpt lat="31.06071" lon="-7.928363">
        <ele>3609.80004882813</ele>
        <time>2019-12-28T10:15:22.000Z</time>
      </trkpt>
      <trkpt lat="31.060701" lon="-7.928385">
        <ele>3609.71487026875</ele>
        <time>2019-12-28T10:15:24.000Z</time>
      </trkpt>
      <trkpt lat="31.060701" lon="-7.928408">
        <ele>3609.60009765625</ele>
        <time>2019-12-28T10:15:27.000Z</time>
      </trkpt>
      <trkpt lat="31.060694" lon="-7.928431">
        <ele>3609.39990234375</ele>
        <time>2019-12-28T10:15:31.000Z</time>
      </trkpt>
      <trkpt lat="31.060685" lon="-7.92845">
        <ele>3608.71487026875</ele>
        <time>2019-12-28T10:15:39.000Z</time>
      </trkpt>
      <trkpt lat="31.060685" lon="-7.928478">
        <ele>3608</ele>
        <time>2019-12-28T10:15:46.000Z</time>
      </trkpt>
      <trkpt lat="31.060698" lon="-7.928508">
        <ele>3607.71487026875</ele>
        <time>2019-12-28T10:15:49.000Z</time>
      </trkpt>
      <trkpt lat="31.060714" lon="-7.928522">
        <ele>3606.91482144063</ele>
        <time>2019-12-28T10:15:53.000Z</time>
      </trkpt>
      <trkpt lat="31.06071" lon="-7.928545">
        <ele>3606.1147726125</ele>
        <time>2019-12-28T10:15:57.000Z</time>
      </trkpt>
      <trkpt lat="31.060691" lon="-7.928562">
        <ele>3604.82964288125</ele>
        <time>2019-12-28T10:16:02.000Z</time>
      </trkpt>
      <trkpt lat="31.060691" lon="-7.928585">
        <ele>3604.02959405313</ele>
        <time>2019-12-28T10:16:05.000Z</time>
      </trkpt>
      <trkpt lat="31.060688" lon="-7.928609">
        <ele>3601.1147726125</ele>
        <time>2019-12-28T10:16:15.000Z</time>
      </trkpt>
      <trkpt lat="31.060685" lon="-7.928637">
        <ele>3599.51481509375</ele>
        <time>2019-12-28T10:16:22.000Z</time>
      </trkpt>
      <trkpt lat="31.060685" lon="-7.92866">
        <ele>3598.91482144063</ele>
        <time>2019-12-28T10:16:26.000Z</time>
      </trkpt>
      <trkpt lat="31.060685" lon="-7.928682">
        <ele>3598.1147726125</ele>
        <time>2019-12-28T10:16:32.000Z</time>
      </trkpt>
      <trkpt lat="31.060685" lon="-7.928706">
        <ele>3597.1147726125</ele>
        <time>2019-12-28T10:16:39.000Z</time>
      </trkpt>
      <trkpt lat="31.060685" lon="-7.92873">
        <ele>3595.80004882813</ele>
        <time>2019-12-28T10:16:50.000Z</time>
      </trkpt>
      <trkpt lat="31.060685" lon="-7.928754">
        <ele>3595.51481509375</ele>
        <time>2019-12-28T10:16:53.000Z</time>
      </trkpt>
      <trkpt lat="31.060704" lon="-7.928762">
        <ele>3595</ele>
        <time>2019-12-28T10:16:57.000Z</time>
      </trkpt>
      <trkpt lat="31.060723" lon="-7.928763">
        <ele>3594.71487026875</ele>
        <time>2019-12-28T10:17:02.000Z</time>
      </trkpt>
      <trkpt lat="31.060739" lon="-7.928774">
        <ele>3594.39990234375</ele>
        <time>2019-12-28T10:17:06.000Z</time>
      </trkpt>
      <trkpt lat="31.060739" lon="-7.928802">
        <ele>3594</ele>
        <time>2019-12-28T10:17:13.000Z</time>
      </trkpt>
      <trkpt lat="31.060762" lon="-7.928808">
        <ele>3593.71487026875</ele>
        <time>2019-12-28T10:17:17.000Z</time>
      </trkpt>
      <trkpt lat="31.060781" lon="-7.928794">
        <ele>3593.31472378438</ele>
        <time>2019-12-28T10:17:21.000Z</time>
      </trkpt>
      <trkpt lat="31.0608" lon="-7.928788">
        <ele>3590.62958770625</ele>
        <time>2019-12-28T10:17:28.000Z</time>
      </trkpt>
      <trkpt lat="31.060829" lon="-7.928788">
        <ele>3589.71487026875</ele>
        <time>2019-12-28T10:17:31.000Z</time>
      </trkpt>
      <trkpt lat="31.060851" lon="-7.928782">
        <ele>3588.91482144063</ele>
        <time>2019-12-28T10:17:34.000Z</time>
      </trkpt>
      <trkpt lat="31.06087" lon="-7.92878">
        <ele>3588.51481509375</ele>
        <time>2019-12-28T10:17:37.000Z</time>
      </trkpt>
      <trkpt lat="31.060893" lon="-7.928778">
        <ele>3588.1147726125</ele>
        <time>2019-12-28T10:17:40.000Z</time>
      </trkpt>
      <trkpt lat="31.060909" lon="-7.928791">
        <ele>3587.80004882813</ele>
        <time>2019-12-28T10:17:43.000Z</time>
      </trkpt>
      <trkpt lat="31.060918" lon="-7.928811">
        <ele>3587.31472378438</ele>
        <time>2019-12-28T10:17:48.000Z</time>
      </trkpt>
      <trkpt lat="31.060931" lon="-7.928834">
        <ele>3586.91482144063</ele>
        <time>2019-12-28T10:17:52.000Z</time>
      </trkpt>
      <trkpt lat="31.060938" lon="-7.928854">
        <ele>3586.31472378438</ele>
        <time>2019-12-28T10:17:57.000Z</time>
      </trkpt>
      <trkpt lat="31.060941" lon="-7.928875">
        <ele>3585.31472378438</ele>
        <time>2019-12-28T10:18:03.000Z</time>
      </trkpt>
      <trkpt lat="31.060944" lon="-7.928897">
        <ele>3584.60009765625</ele>
        <time>2019-12-28T10:18:08.000Z</time>
      </trkpt>
      <trkpt lat="31.06095" lon="-7.928918">
        <ele>3584.1147726125</ele>
        <time>2019-12-28T10:18:11.000Z</time>
      </trkpt>
      <trkpt lat="31.060963" lon="-7.928942">
        <ele>3583.71487026875</ele>
        <time>2019-12-28T10:18:13.000Z</time>
      </trkpt>
      <trkpt lat="31.060979" lon="-7.928957">
        <ele>3583.42963653437</ele>
        <time>2019-12-28T10:18:15.000Z</time>
      </trkpt>
      <trkpt lat="31.061002" lon="-7.928973">
        <ele>3582.91482144063</ele>
        <time>2019-12-28T10:18:18.000Z</time>
      </trkpt>
      <trkpt lat="31.061014" lon="-7.928994">
        <ele>3582.1147726125</ele>
        <time>2019-12-28T10:18:24.000Z</time>
      </trkpt>
      <trkpt lat="31.061027" lon="-7.929014">
        <ele>3581.60009765625</ele>
        <time>2019-12-28T10:18:27.000Z</time>
      </trkpt>
      <trkpt lat="31.061027" lon="-7.929038">
        <ele>3580.91482144063</ele>
        <time>2019-12-28T10:18:33.000Z</time>
      </trkpt>
      <trkpt lat="31.061027" lon="-7.92906">
        <ele>3580.39990234375</ele>
        <time>2019-12-28T10:18:37.000Z</time>
      </trkpt>
      <trkpt lat="31.061024" lon="-7.929082">
        <ele>3579.71487026875</ele>
        <time>2019-12-28T10:18:41.000Z</time>
      </trkpt>
      <trkpt lat="31.061027" lon="-7.929103">
        <ele>3579.31472378438</ele>
        <time>2019-12-28T10:18:44.000Z</time>
      </trkpt>
      <trkpt lat="31.061034" lon="-7.92913">
        <ele>3578.71487026875</ele>
        <time>2019-12-28T10:18:48.000Z</time>
      </trkpt>
      <trkpt lat="31.061034" lon="-7.929157">
        <ele>3577.51481509375</ele>
        <time>2019-12-28T10:18:54.000Z</time>
      </trkpt>
      <trkpt lat="31.061034" lon="-7.929182">
        <ele>3576.62958770625</ele>
        <time>2019-12-28T10:18:59.000Z</time>
      </trkpt>
      <trkpt lat="31.061037" lon="-7.929205">
        <ele>3575.71487026875</ele>
        <time>2019-12-28T10:19:03.000Z</time>
      </trkpt>
      <trkpt lat="31.061034" lon="-7.929228">
        <ele>3574.71487026875</ele>
        <time>2019-12-28T10:19:08.000Z</time>
      </trkpt>
      <trkpt lat="31.061027" lon="-7.929248">
        <ele>3573.91482144063</ele>
        <time>2019-12-28T10:19:12.000Z</time>
      </trkpt>
      <trkpt lat="31.061018" lon="-7.92927">
        <ele>3573.1147726125</ele>
        <time>2019-12-28T10:19:16.000Z</time>
      </trkpt>
      <trkpt lat="31.061024" lon="-7.929297">
        <ele>3572.51481509375</ele>
        <time>2019-12-28T10:19:19.000Z</time>
      </trkpt>
      <trkpt lat="31.06103" lon="-7.929323">
        <ele>3571.71487026875</ele>
        <time>2019-12-28T10:19:22.000Z</time>
      </trkpt>
      <trkpt lat="31.06104" lon="-7.929342">
        <ele>3571.31472378438</ele>
        <time>2019-12-28T10:19:24.000Z</time>
      </trkpt>
      <trkpt lat="31.061053" lon="-7.929357">
        <ele>3570.91482144063</ele>
        <time>2019-12-28T10:19:26.000Z</time>
      </trkpt>
      <trkpt lat="31.061066" lon="-7.929378">
        <ele>3570.1147726125</ele>
        <time>2019-12-28T10:19:29.000Z</time>
      </trkpt>
      <trkpt lat="31.061075" lon="-7.929398">
        <ele>3569.31472378438</ele>
        <time>2019-12-28T10:19:33.000Z</time>
      </trkpt>
      <trkpt lat="31.061082" lon="-7.92942">
        <ele>3568.31531602395</ele>
        <time>2019-12-28T10:19:37.000Z</time>
      </trkpt>
      <trkpt lat="31.061078" lon="-7.929443">
        <ele>3566.82964288125</ele>
        <time>2019-12-28T10:19:44.000Z</time>
      </trkpt>
      <trkpt lat="31.061088" lon="-7.929465">
        <ele>3565.91482144063</ele>
        <time>2019-12-28T10:19:48.000Z</time>
      </trkpt>
      <trkpt lat="31.061091" lon="-7.929491">
        <ele>3564.71487026875</ele>
        <time>2019-12-28T10:19:55.000Z</time>
      </trkpt>
      <trkpt lat="31.061098" lon="-7.929517">
        <ele>3563.31472378438</ele>
        <time>2019-12-28T10:20:03.000Z</time>
      </trkpt>
      <trkpt lat="31.061085" lon="-7.929535">
        <ele>3562.51481509375</ele>
        <time>2019-12-28T10:20:08.000Z</time>
      </trkpt>
      <trkpt lat="31.061072" lon="-7.92955">
        <ele>3561.91482144063</ele>
        <time>2019-12-28T10:20:12.000Z</time>
      </trkpt>
      <trkpt lat="31.061069" lon="-7.929572">
        <ele>3561.19995117188</ele>
        <time>2019-12-28T10:20:20.000Z</time>
      </trkpt>
      <trkpt lat="31.061053" lon="-7.929583">
        <ele>3560.91482144063</ele>
        <time>2019-12-28T10:20:23.000Z</time>
      </trkpt>
      <trkpt lat="31.061059" lon="-7.929608">
        <ele>3560.60009765625</ele>
        <time>2019-12-28T10:20:28.000Z</time>
      </trkpt>
      <trkpt lat="31.061059" lon="-7.92963">
        <ele>3560.19995117188</ele>
        <time>2019-12-28T10:20:34.000Z</time>
      </trkpt>
      <trkpt lat="31.061053" lon="-7.929653">
        <ele>3560.19995117188</ele>
        <time>2019-12-28T10:20:38.000Z</time>
      </trkpt>
      <trkpt lat="31.061053" lon="-7.929677">
        <ele>3560</ele>
        <time>2019-12-28T10:20:41.000Z</time>
      </trkpt>
      <trkpt lat="31.061037" lon="-7.929694">
        <ele>3560</ele>
        <time>2019-12-28T10:20:45.000Z</time>
      </trkpt>
      <trkpt lat="31.061021" lon="-7.92971">
        <ele>3559.80004882813</ele>
        <time>2019-12-28T10:20:48.000Z</time>
      </trkpt>
      <trkpt lat="31.061014" lon="-7.92973">
        <ele>3559.60009765625</ele>
        <time>2019-12-28T10:20:54.000Z</time>
      </trkpt>
      <trkpt lat="31.061018" lon="-7.929754">
        <ele>3559.19995117188</ele>
        <time>2019-12-28T10:21:00.000Z</time>
      </trkpt>
      <trkpt lat="31.061021" lon="-7.929777">
        <ele>3558.71487026875</ele>
        <time>2019-12-28T10:21:06.000Z</time>
      </trkpt>
      <trkpt lat="31.06104" lon="-7.929789">
        <ele>3558.1147726125</ele>
        <time>2019-12-28T10:21:12.000Z</time>
      </trkpt>
      <trkpt lat="31.061046" lon="-7.92981">
        <ele>3557.19995117188</ele>
        <time>2019-12-28T10:21:21.000Z</time>
      </trkpt>
      <trkpt lat="31.061069" lon="-7.929815">
        <ele>3556.31472378438</ele>
        <time>2019-12-28T10:21:29.000Z</time>
      </trkpt>
      <trkpt lat="31.061066" lon="-7.929837">
        <ele>3555.51481509375</ele>
        <time>2019-12-28T10:21:36.000Z</time>
      </trkpt>
      <trkpt lat="31.061056" lon="-7.929858">
        <ele>3554.51481509375</ele>
        <time>2019-12-28T10:21:42.000Z</time>
      </trkpt>
      <trkpt lat="31.061053" lon="-7.929882">
        <ele>3553.60009765625</ele>
        <time>2019-12-28T10:21:48.000Z</time>
      </trkpt>
      <trkpt lat="31.061062" lon="-7.9299">
        <ele>3552.91482144063</ele>
        <time>2019-12-28T10:21:52.000Z</time>
      </trkpt>
      <trkpt lat="31.061069" lon="-7.929925">
        <ele>3551.91482144063</ele>
        <time>2019-12-28T10:21:57.000Z</time>
      </trkpt>
      <trkpt lat="31.061072" lon="-7.929948">
        <ele>3551.51481509375</ele>
        <time>2019-12-28T10:21:59.000Z</time>
      </trkpt>
      <trkpt lat="31.061091" lon="-7.929955">
        <ele>3550.31472378438</ele>
        <time>2019-12-28T10:22:04.000Z</time>
      </trkpt>
      <trkpt lat="31.061107" lon="-7.929945">
        <ele>3549.71487026875</ele>
        <time>2019-12-28T10:22:07.000Z</time>
      </trkpt>
      <trkpt lat="31.061126" lon="-7.929948">
        <ele>3547</ele>
        <time>2019-12-28T10:22:18.000Z</time>
      </trkpt>
      <trkpt lat="31.061139" lon="-7.929963">
        <ele>3545.91482144063</ele>
        <time>2019-12-28T10:22:26.000Z</time>
      </trkpt>
      <trkpt lat="31.061139" lon="-7.929986">
        <ele>3544.91482144063</ele>
        <time>2019-12-28T10:22:37.000Z</time>
      </trkpt>
      <trkpt lat="31.061146" lon="-7.930006">
        <ele>3544.51481509375</ele>
        <time>2019-12-28T10:22:42.000Z</time>
      </trkpt>
      <trkpt lat="31.061155" lon="-7.930026">
        <ele>3543.19995117188</ele>
        <time>2019-12-28T10:22:53.000Z</time>
      </trkpt>
      <trkpt lat="31.061165" lon="-7.930049">
        <ele>3542.51481509375</ele>
        <time>2019-12-28T10:23:00.000Z</time>
      </trkpt>
      <trkpt lat="31.061187" lon="-7.93005">
        <ele>3541.19995117188</ele>
        <time>2019-12-28T10:23:13.000Z</time>
      </trkpt>
      <trkpt lat="31.0612" lon="-7.930065">
        <ele>3540.39990234375</ele>
        <time>2019-12-28T10:23:20.000Z</time>
      </trkpt>
      <trkpt lat="31.061187" lon="-7.930082">
        <ele>3539.60009765625</ele>
        <time>2019-12-28T10:23:28.000Z</time>
      </trkpt>
      <trkpt lat="31.061181" lon="-7.930103">
        <ele>3538.80004882813</ele>
        <time>2019-12-28T10:23:36.000Z</time>
      </trkpt>
      <trkpt lat="31.061197" lon="-7.930114">
        <ele>3538.1147726125</ele>
        <time>2019-12-28T10:23:42.000Z</time>
      </trkpt>
      <trkpt lat="31.061206" lon="-7.930134">
        <ele>3537.31472378438</ele>
        <time>2019-12-28T10:23:48.000Z</time>
      </trkpt>
      <trkpt lat="31.061219" lon="-7.930154">
        <ele>3536.19995117188</ele>
        <time>2019-12-28T10:23:57.000Z</time>
      </trkpt>
      <trkpt lat="31.061238" lon="-7.930146">
        <ele>3535.19995117188</ele>
        <time>2019-12-28T10:24:06.000Z</time>
      </trkpt>
      <trkpt lat="31.061261" lon="-7.930158">
        <ele>3534.71487026875</ele>
        <time>2019-12-28T10:24:11.000Z</time>
      </trkpt>
      <trkpt lat="31.061277" lon="-7.930168">
        <ele>3533.91482144063</ele>
        <time>2019-12-28T10:24:15.000Z</time>
      </trkpt>
      <trkpt lat="31.061267" lon="-7.930191">
        <ele>3532.91482144063</ele>
        <time>2019-12-28T10:24:21.000Z</time>
      </trkpt>
      <trkpt lat="31.061267" lon="-7.930217">
        <ele>3531.91482144063</ele>
        <time>2019-12-28T10:24:26.000Z</time>
      </trkpt>
      <trkpt lat="31.06127" lon="-7.930238">
        <ele>3531.1147726125</ele>
        <time>2019-12-28T10:24:31.000Z</time>
      </trkpt>
      <trkpt lat="31.06128" lon="-7.930258">
        <ele>3530.51481509375</ele>
        <time>2019-12-28T10:24:35.000Z</time>
      </trkpt>
      <trkpt lat="31.061299" lon="-7.930267">
        <ele>3529.71487026875</ele>
        <time>2019-12-28T10:24:41.000Z</time>
      </trkpt>
      <trkpt lat="31.061318" lon="-7.930255">
        <ele>3528.51481509375</ele>
        <time>2019-12-28T10:24:51.000Z</time>
      </trkpt>
      <trkpt lat="31.061334" lon="-7.93027">
        <ele>3527.229545225</ele>
        <time>2019-12-28T10:25:00.000Z</time>
      </trkpt>
      <trkpt lat="31.061331" lon="-7.930293">
        <ele>3525.71487026875</ele>
        <time>2019-12-28T10:25:07.000Z</time>
      </trkpt>
      <trkpt lat="31.061341" lon="-7.930315">
        <ele>3524.51481509375</ele>
        <time>2019-12-28T10:25:12.000Z</time>
      </trkpt>
      <trkpt lat="31.06135" lon="-7.930338">
        <ele>3523.60009765625</ele>
        <time>2019-12-28T10:25:17.000Z</time>
      </trkpt>
      <trkpt lat="31.061338" lon="-7.930355">
        <ele>3523.19995117188</ele>
        <time>2019-12-28T10:25:21.000Z</time>
      </trkpt>
      <trkpt lat="31.061347" lon="-7.930377">
        <ele>3522.80004882813</ele>
        <time>2019-12-28T10:25:27.000Z</time>
      </trkpt>
      <trkpt lat="31.061357" lon="-7.930398">
        <ele>3522</ele>
        <time>2019-12-28T10:25:34.000Z</time>
      </trkpt>
      <trkpt lat="31.061373" lon="-7.930409">
        <ele>3520.91482144063</ele>
        <time>2019-12-28T10:25:44.000Z</time>
      </trkpt>
      <trkpt lat="31.061395" lon="-7.93041">
        <ele>3520.1147726125</ele>
        <time>2019-12-28T10:25:51.000Z</time>
      </trkpt>
      <trkpt lat="31.061411" lon="-7.930398">
        <ele>3519.1147726125</ele>
        <time>2019-12-28T10:26:02.000Z</time>
      </trkpt>
      <trkpt lat="31.061411" lon="-7.930422">
        <ele>3517.91482144063</ele>
        <time>2019-12-28T10:26:13.000Z</time>
      </trkpt>
      <trkpt lat="31.061424" lon="-7.930437">
        <ele>3517.19995117188</ele>
        <time>2019-12-28T10:26:20.000Z</time>
      </trkpt>
      <trkpt lat="31.061443" lon="-7.930449">
        <ele>3516.51481509375</ele>
        <time>2019-12-28T10:26:28.000Z</time>
      </trkpt>
      <trkpt lat="31.06145" lon="-7.93047">
        <ele>3515.39990234375</ele>
        <time>2019-12-28T10:26:39.000Z</time>
      </trkpt>
      <trkpt lat="31.061462" lon="-7.93049">
        <ele>3514.60009765625</ele>
        <time>2019-12-28T10:26:46.000Z</time>
      </trkpt>
      <trkpt lat="31.061482" lon="-7.9305">
        <ele>3514</ele>
        <time>2019-12-28T10:26:51.000Z</time>
      </trkpt>
      <trkpt lat="31.061494" lon="-7.930515">
        <ele>3513</ele>
        <time>2019-12-28T10:27:00.000Z</time>
      </trkpt>
      <trkpt lat="31.061482" lon="-7.930531">
        <ele>3512.31472378438</ele>
        <time>2019-12-28T10:27:04.000Z</time>
      </trkpt>
      <trkpt lat="31.061488" lon="-7.930555">
        <ele>3511.71487026875</ele>
        <time>2019-12-28T10:27:08.000Z</time>
      </trkpt>
      <trkpt lat="31.061507" lon="-7.930562">
        <ele>3510.91482144063</ele>
        <time>2019-12-28T10:27:13.000Z</time>
      </trkpt>
      <trkpt lat="31.06153" lon="-7.930568">
        <ele>3510.39990234375</ele>
        <time>2019-12-28T10:27:18.000Z</time>
      </trkpt>
      <trkpt lat="31.061546" lon="-7.930555">
        <ele>3509.91482144063</ele>
        <time>2019-12-28T10:27:22.000Z</time>
      </trkpt>
      <trkpt lat="31.061549" lon="-7.930577">
        <ele>3508.71487026875</ele>
        <time>2019-12-28T10:27:32.000Z</time>
      </trkpt>
      <trkpt lat="31.061542" lon="-7.930602">
        <ele>3508.31472378438</ele>
        <time>2019-12-28T10:27:35.000Z</time>
      </trkpt>
      <trkpt lat="31.061546" lon="-7.930625">
        <ele>3507.71487026875</ele>
        <time>2019-12-28T10:27:40.000Z</time>
      </trkpt>
      <trkpt lat="31.061552" lon="-7.930647">
        <ele>3506.91482144063</ele>
        <time>2019-12-28T10:27:45.000Z</time>
      </trkpt>
      <trkpt lat="31.061574" lon="-7.930657">
        <ele>3506.31472378438</ele>
        <time>2019-12-28T10:27:48.000Z</time>
      </trkpt>
      <trkpt lat="31.06159" lon="-7.930668">
        <ele>3505.82964288125</ele>
        <time>2019-12-28T10:27:51.000Z</time>
      </trkpt>
      <trkpt lat="31.061597" lon="-7.930688">
        <ele>3505.31483848787</ele>
        <time>2019-12-28T10:27:54.000Z</time>
      </trkpt>
      <trkpt lat="31.061597" lon="-7.93071">
        <ele>3504.71487026875</ele>
        <time>2019-12-28T10:27:57.000Z</time>
      </trkpt>
      <trkpt lat="31.061603" lon="-7.93073">
        <ele>3504.1147726125</ele>
        <time>2019-12-28T10:28:00.000Z</time>
      </trkpt>
      <trkpt lat="31.06161" lon="-7.93075">
        <ele>3503.31472378438</ele>
        <time>2019-12-28T10:28:03.000Z</time>
      </trkpt>
      <trkpt lat="31.061629" lon="-7.930757">
        <ele>3502.39990234375</ele>
        <time>2019-12-28T10:28:07.000Z</time>
      </trkpt>
      <trkpt lat="31.061645" lon="-7.930769">
        <ele>3501.31472378438</ele>
        <time>2019-12-28T10:28:12.000Z</time>
      </trkpt>
      <trkpt lat="31.061661" lon="-7.930782">
        <ele>3500.31472378438</ele>
        <time>2019-12-28T10:28:17.000Z</time>
      </trkpt>
      <trkpt lat="31.061648" lon="-7.9308">
        <ele>3499.31472378438</ele>
        <time>2019-12-28T10:28:21.000Z</time>
      </trkpt>
      <trkpt lat="31.061654" lon="-7.930826">
        <ele>3498.31472378438</ele>
        <time>2019-12-28T10:28:25.000Z</time>
      </trkpt>
      <trkpt lat="31.061654" lon="-7.930848">
        <ele>3497.51481509375</ele>
        <time>2019-12-28T10:28:28.000Z</time>
      </trkpt>
      <trkpt lat="31.061654" lon="-7.930874">
        <ele>3496.91482144063</ele>
        <time>2019-12-28T10:28:32.000Z</time>
      </trkpt>
      <trkpt lat="31.061658" lon="-7.9309">
        <ele>3496.31472378438</ele>
        <time>2019-12-28T10:28:35.000Z</time>
      </trkpt>
      <trkpt lat="31.061674" lon="-7.930918">
        <ele>3495.60009765625</ele>
        <time>2019-12-28T10:28:39.000Z</time>
      </trkpt>
      <trkpt lat="31.061693" lon="-7.930935">
        <ele>3494.91482144063</ele>
        <time>2019-12-28T10:28:43.000Z</time>
      </trkpt>
      <trkpt lat="31.061712" lon="-7.930945">
        <ele>3494.51481509375</ele>
        <time>2019-12-28T10:28:46.000Z</time>
      </trkpt>
      <trkpt lat="31.061731" lon="-7.930955">
        <ele>3493.91482144063</ele>
        <time>2019-12-28T10:28:49.000Z</time>
      </trkpt>
      <trkpt lat="31.061738" lon="-7.93098">
        <ele>3492.91482144063</ele>
        <time>2019-12-28T10:28:54.000Z</time>
      </trkpt>
      <trkpt lat="31.061741" lon="-7.931002">
        <ele>3492.31472378438</ele>
        <time>2019-12-28T10:28:57.000Z</time>
      </trkpt>
      <trkpt lat="31.061754" lon="-7.931018">
        <ele>3491.71487026875</ele>
        <time>2019-12-28T10:29:00.000Z</time>
      </trkpt>
      <trkpt lat="31.061747" lon="-7.931042">
        <ele>3490.71487026875</ele>
        <time>2019-12-28T10:29:05.000Z</time>
      </trkpt>
      <trkpt lat="31.061757" lon="-7.93106">
        <ele>3490.1147726125</ele>
        <time>2019-12-28T10:29:08.000Z</time>
      </trkpt>
      <trkpt lat="31.061773" lon="-7.931075">
        <ele>3489.19995117188</ele>
        <time>2019-12-28T10:29:13.000Z</time>
      </trkpt>
      <trkpt lat="31.061763" lon="-7.931094">
        <ele>3488.31472378438</ele>
        <time>2019-12-28T10:29:18.000Z</time>
      </trkpt>
      <trkpt lat="31.061773" lon="-7.931118">
        <ele>3487.71487026875</ele>
        <time>2019-12-28T10:29:22.000Z</time>
      </trkpt>
      <trkpt lat="31.061782" lon="-7.931137">
        <ele>3487.1147726125</ele>
        <time>2019-12-28T10:29:25.000Z</time>
      </trkpt>
      <trkpt lat="31.061766" lon="-7.931157">
        <ele>3486.31472378438</ele>
        <time>2019-12-28T10:29:29.000Z</time>
      </trkpt>
      <trkpt lat="31.061763" lon="-7.931183">
        <ele>3485.91482144063</ele>
        <time>2019-12-28T10:29:32.000Z</time>
      </trkpt>
      <trkpt lat="31.06175" lon="-7.931198">
        <ele>3485.42963653437</ele>
        <time>2019-12-28T10:29:35.000Z</time>
      </trkpt>
      <trkpt lat="31.06175" lon="-7.931222">
        <ele>3484.91482144063</ele>
        <time>2019-12-28T10:29:38.000Z</time>
      </trkpt>
      <trkpt lat="31.061747" lon="-7.931245">
        <ele>3484.31472378438</ele>
        <time>2019-12-28T10:29:42.000Z</time>
      </trkpt>
      <trkpt lat="31.061731" lon="-7.931262">
        <ele>3483.39990234375</ele>
        <time>2019-12-28T10:29:47.000Z</time>
      </trkpt>
      <trkpt lat="31.061728" lon="-7.931285">
        <ele>3482.91482144063</ele>
        <time>2019-12-28T10:29:50.000Z</time>
      </trkpt>
      <trkpt lat="31.061738" lon="-7.931308">
        <ele>3482.31472378438</ele>
        <time>2019-12-28T10:29:54.000Z</time>
      </trkpt>
      <trkpt lat="31.061741" lon="-7.931332">
        <ele>3481.51481509375</ele>
        <time>2019-12-28T10:30:00.000Z</time>
      </trkpt>
      <trkpt lat="31.061747" lon="-7.931352">
        <ele>3480.60009765625</ele>
        <time>2019-12-28T10:30:07.000Z</time>
      </trkpt>
      <trkpt lat="31.061747" lon="-7.931374">
        <ele>3479.91482144063</ele>
        <time>2019-12-28T10:30:12.000Z</time>
      </trkpt>
      <trkpt lat="31.061734" lon="-7.931392">
        <ele>3479</ele>
        <time>2019-12-28T10:30:20.000Z</time>
      </trkpt>
      <trkpt lat="31.061741" lon="-7.931412">
        <ele>3478</ele>
        <time>2019-12-28T10:30:32.000Z</time>
      </trkpt>
      <trkpt lat="31.061744" lon="-7.931438">
        <ele>3477.71487026875</ele>
        <time>2019-12-28T10:30:38.000Z</time>
      </trkpt>
      <trkpt lat="31.061754" lon="-7.931457">
        <ele>3477.39990234375</ele>
        <time>2019-12-28T10:30:42.000Z</time>
      </trkpt>
      <trkpt lat="31.06176" lon="-7.93148">
        <ele>3476.91482144063</ele>
        <time>2019-12-28T10:30:47.000Z</time>
      </trkpt>
      <trkpt lat="31.061747" lon="-7.931498">
        <ele>3476.1147726125</ele>
        <time>2019-12-28T10:30:55.000Z</time>
      </trkpt>
      <trkpt lat="31.061738" lon="-7.931522">
        <ele>3475.1147726125</ele>
        <time>2019-12-28T10:31:03.000Z</time>
      </trkpt>
      <trkpt lat="31.061744" lon="-7.931546">
        <ele>3474.60009765625</ele>
        <time>2019-12-28T10:31:07.000Z</time>
      </trkpt>
      <trkpt lat="31.061757" lon="-7.931565">
        <ele>3473.91482144063</ele>
        <time>2019-12-28T10:31:12.000Z</time>
      </trkpt>
      <trkpt lat="31.061766" lon="-7.931585">
        <ele>3473.1147726125</ele>
        <time>2019-12-28T10:31:18.000Z</time>
      </trkpt>
      <trkpt lat="31.061782" lon="-7.931598">
        <ele>3472.71487026875</ele>
        <time>2019-12-28T10:31:21.000Z</time>
      </trkpt>
      <trkpt lat="31.061795" lon="-7.931614">
        <ele>3471.60009765625</ele>
        <time>2019-12-28T10:31:30.000Z</time>
      </trkpt>
      <trkpt lat="31.061795" lon="-7.931637">
        <ele>3470.51481509375</ele>
        <time>2019-12-28T10:31:38.000Z</time>
      </trkpt>
      <trkpt lat="31.061805" lon="-7.931658">
        <ele>3469.71487026875</ele>
        <time>2019-12-28T10:31:44.000Z</time>
      </trkpt>
      <trkpt lat="31.061808" lon="-7.931682">
        <ele>3469</ele>
        <time>2019-12-28T10:31:49.000Z</time>
      </trkpt>
      <trkpt lat="31.061811" lon="-7.931703">
        <ele>3468.31472378438</ele>
        <time>2019-12-28T10:31:54.000Z</time>
      </trkpt>
      <trkpt lat="31.061824" lon="-7.931718">
        <ele>3467.51481509375</ele>
        <time>2019-12-28T10:31:59.000Z</time>
      </trkpt>
      <trkpt lat="31.061811" lon="-7.931735">
        <ele>3466.71487026875</ele>
        <time>2019-12-28T10:32:05.000Z</time>
      </trkpt>
      <trkpt lat="31.061805" lon="-7.931755">
        <ele>3465.91482144063</ele>
        <time>2019-12-28T10:32:11.000Z</time>
      </trkpt>
      <trkpt lat="31.061805" lon="-7.931778">
        <ele>3464.80004882813</ele>
        <time>2019-12-28T10:32:18.000Z</time>
      </trkpt>
      <trkpt lat="31.061808" lon="-7.931803">
        <ele>3464.19995117188</ele>
        <time>2019-12-28T10:32:24.000Z</time>
      </trkpt>
      <trkpt lat="31.061814" lon="-7.931823">
        <ele>3463.80004882813</ele>
        <time>2019-12-28T10:32:28.000Z</time>
      </trkpt>
      <trkpt lat="31.061795" lon="-7.93185">
        <ele>3463.39990234375</ele>
        <time>2019-12-28T10:32:37.000Z</time>
      </trkpt>
      <trkpt lat="31.061795" lon="-7.931878">
        <ele>3463.19995117188</ele>
        <time>2019-12-28T10:32:41.000Z</time>
      </trkpt>
      <trkpt lat="31.061795" lon="-7.9319">
        <ele>3463.19995117188</ele>
        <time>2019-12-28T10:32:45.000Z</time>
      </trkpt>
      <trkpt lat="31.061795" lon="-7.931922">
        <ele>3463</ele>
        <time>2019-12-28T10:32:49.000Z</time>
      </trkpt>
      <trkpt lat="31.061795" lon="-7.931945">
        <ele>3463</ele>
        <time>2019-12-28T10:32:52.000Z</time>
      </trkpt>
      <trkpt lat="31.061798" lon="-7.93197">
        <ele>3462.80004882813</ele>
        <time>2019-12-28T10:32:56.000Z</time>
      </trkpt>
      <trkpt lat="31.061805" lon="-7.931991">
        <ele>3462.1147726125</ele>
        <time>2019-12-28T10:33:04.000Z</time>
      </trkpt>
      <trkpt lat="31.061798" lon="-7.932015">
        <ele>3461.1147726125</ele>
        <time>2019-12-28T10:33:11.000Z</time>
      </trkpt>
      <trkpt lat="31.061782" lon="-7.932025">
        <ele>3460.39990234375</ele>
        <time>2019-12-28T10:33:16.000Z</time>
      </trkpt>
      <trkpt lat="31.061763" lon="-7.932023">
        <ele>3459.1147726125</ele>
        <time>2019-12-28T10:33:24.000Z</time>
      </trkpt>
      <trkpt lat="31.061747" lon="-7.932038">
        <ele>3458.39990234375</ele>
        <time>2019-12-28T10:33:30.000Z</time>
      </trkpt>
      <trkpt lat="31.061738" lon="-7.93206">
        <ele>3457.80004882813</ele>
        <time>2019-12-28T10:33:36.000Z</time>
      </trkpt>
      <trkpt lat="31.061734" lon="-7.932082">
        <ele>3457.60009765625</ele>
        <time>2019-12-28T10:33:39.000Z</time>
      </trkpt>
      <trkpt lat="31.061722" lon="-7.932103">
        <ele>3457.1147726125</ele>
        <time>2019-12-28T10:33:44.000Z</time>
      </trkpt>
      <trkpt lat="31.061715" lon="-7.932123">
        <ele>3456.80004882813</ele>
        <time>2019-12-28T10:33:47.000Z</time>
      </trkpt>
      <trkpt lat="31.061706" lon="-7.932149">
        <ele>3456.39990234375</ele>
        <time>2019-12-28T10:33:51.000Z</time>
      </trkpt>
      <trkpt lat="31.061686" lon="-7.93217">
        <ele>3456</ele>
        <time>2019-12-28T10:33:54.000Z</time>
      </trkpt>
      <trkpt lat="31.061674" lon="-7.93219">
        <ele>3455.60009765625</ele>
        <time>2019-12-28T10:33:57.000Z</time>
      </trkpt>
      <trkpt lat="31.061674" lon="-7.932212">
        <ele>3454.91482144063</ele>
        <time>2019-12-28T10:34:01.000Z</time>
      </trkpt>
      <trkpt lat="31.06167" lon="-7.932238">
        <ele>3453.91482144063</ele>
        <time>2019-12-28T10:34:06.000Z</time>
      </trkpt>
      <trkpt lat="31.061664" lon="-7.932262">
        <ele>3453.1147726125</ele>
        <time>2019-12-28T10:34:10.000Z</time>
      </trkpt>
      <trkpt lat="31.061664" lon="-7.932285">
        <ele>3452.51481509375</ele>
        <time>2019-12-28T10:34:13.000Z</time>
      </trkpt>
      <trkpt lat="31.061667" lon="-7.93231">
        <ele>3451.91482144063</ele>
        <time>2019-12-28T10:34:16.000Z</time>
      </trkpt>
      <trkpt lat="31.061664" lon="-7.932334">
        <ele>3451.39990234375</ele>
        <time>2019-12-28T10:34:19.000Z</time>
      </trkpt>
      <trkpt lat="31.061664" lon="-7.93236">
        <ele>3450.91482144063</ele>
        <time>2019-12-28T10:34:22.000Z</time>
      </trkpt>
      <trkpt lat="31.061664" lon="-7.932383">
        <ele>3450.1147726125</ele>
        <time>2019-12-28T10:34:26.000Z</time>
      </trkpt>
      <trkpt lat="31.061661" lon="-7.932408">
        <ele>3448.19995117188</ele>
        <time>2019-12-28T10:34:38.000Z</time>
      </trkpt>
      <trkpt lat="31.061674" lon="-7.932426">
        <ele>3447.71487026875</ele>
        <time>2019-12-28T10:34:42.000Z</time>
      </trkpt>
      <trkpt lat="31.061693" lon="-7.932437">
        <ele>3446.91482144063</ele>
        <time>2019-12-28T10:34:46.000Z</time>
      </trkpt>
      <trkpt lat="31.061715" lon="-7.932446">
        <ele>3446.02959405313</ele>
        <time>2019-12-28T10:34:50.000Z</time>
      </trkpt>
      <trkpt lat="31.061734" lon="-7.932445">
        <ele>3445.31472378438</ele>
        <time>2019-12-28T10:34:53.000Z</time>
      </trkpt>
      <trkpt lat="31.061754" lon="-7.932457">
        <ele>3444.1147726125</ele>
        <time>2019-12-28T10:34:59.000Z</time>
      </trkpt>
      <trkpt lat="31.061773" lon="-7.93246">
        <ele>3443.1147726125</ele>
        <time>2019-12-28T10:35:03.000Z</time>
      </trkpt>
      <trkpt lat="31.061782" lon="-7.932478">
        <ele>3441.51481509375</ele>
        <time>2019-12-28T10:35:09.000Z</time>
      </trkpt>
      <trkpt lat="31.061786" lon="-7.9325">
        <ele>3440.51481509375</ele>
        <time>2019-12-28T10:35:13.000Z</time>
      </trkpt>
      <trkpt lat="31.061805" lon="-7.932502">
        <ele>3439.51481509375</ele>
        <time>2019-12-28T10:35:17.000Z</time>
      </trkpt>
      <trkpt lat="31.061824" lon="-7.932515">
        <ele>3438.31472378438</ele>
        <time>2019-12-28T10:35:22.000Z</time>
      </trkpt>
      <trkpt lat="31.061843" lon="-7.932515">
        <ele>3437.71487026875</ele>
        <time>2019-12-28T10:35:25.000Z</time>
      </trkpt>
      <trkpt lat="31.061866" lon="-7.932514">
        <ele>3437.1147726125</ele>
        <time>2019-12-28T10:35:28.000Z</time>
      </trkpt>
      <trkpt lat="31.061888" lon="-7.93251">
        <ele>3436.71487026875</ele>
        <time>2019-12-28T10:35:31.000Z</time>
      </trkpt>
      <trkpt lat="31.061907" lon="-7.932506">
        <ele>3436.31472378438</ele>
        <time>2019-12-28T10:35:34.000Z</time>
      </trkpt>
      <trkpt lat="31.061926" lon="-7.932509">
        <ele>3435.91482144063</ele>
        <time>2019-12-28T10:35:37.000Z</time>
      </trkpt>
      <trkpt lat="31.061946" lon="-7.932515">
        <ele>3435.51481509375</ele>
        <time>2019-12-28T10:35:40.000Z</time>
      </trkpt>
      <trkpt lat="31.061965" lon="-7.93251">
        <ele>3435.19995117188</ele>
        <time>2019-12-28T10:35:42.000Z</time>
      </trkpt>
      <trkpt lat="31.061981" lon="-7.9325">
        <ele>3434.91482144063</ele>
        <time>2019-12-28T10:35:44.000Z</time>
      </trkpt>
      <trkpt lat="31.062" lon="-7.932494">
        <ele>3434.42963653437</ele>
        <time>2019-12-28T10:35:47.000Z</time>
      </trkpt>
      <trkpt lat="31.062019" lon="-7.932494">
        <ele>3433.14436666563</ele>
        <time>2019-12-28T10:35:51.000Z</time>
      </trkpt>
      <trkpt lat="31.062038" lon="-7.93249">
        <ele>3431.1147726125</ele>
        <time>2019-12-28T10:35:57.000Z</time>
      </trkpt>
      <trkpt lat="31.062051" lon="-7.932506">
        <ele>3430.31472378438</ele>
        <time>2019-12-28T10:36:01.000Z</time>
      </trkpt>
      <trkpt lat="31.06207" lon="-7.932518">
        <ele>3429.7149552262</ele>
        <time>2019-12-28T10:36:05.000Z</time>
      </trkpt>
      <trkpt lat="31.06209" lon="-7.932518">
        <ele>3429.31472378438</ele>
        <time>2019-12-28T10:36:08.000Z</time>
      </trkpt>
      <trkpt lat="31.062106" lon="-7.932506">
        <ele>3429.1147726125</ele>
        <time>2019-12-28T10:36:10.000Z</time>
      </trkpt>
      <trkpt lat="31.062125" lon="-7.932494">
        <ele>3429</ele>
        <time>2019-12-28T10:36:12.000Z</time>
      </trkpt>
      <trkpt lat="31.062144" lon="-7.932482">
        <ele>3428.80004882813</ele>
        <time>2019-12-28T10:36:14.000Z</time>
      </trkpt>
      <trkpt lat="31.062163" lon="-7.932475">
        <ele>3428.71487026875</ele>
        <time>2019-12-28T10:36:16.000Z</time>
      </trkpt>
      <trkpt lat="31.062182" lon="-7.932472">
        <ele>3428.60009765625</ele>
        <time>2019-12-28T10:36:19.000Z</time>
      </trkpt>
      <trkpt lat="31.062202" lon="-7.932473">
        <ele>3428.39990234375</ele>
        <time>2019-12-28T10:36:21.000Z</time>
      </trkpt>
      <trkpt lat="31.062221" lon="-7.932472">
        <ele>3428.31472378438</ele>
        <time>2019-12-28T10:36:23.000Z</time>
      </trkpt>
      <trkpt lat="31.062243" lon="-7.93247">
        <ele>3427.91482144063</ele>
        <time>2019-12-28T10:36:26.000Z</time>
      </trkpt>
      <trkpt lat="31.062262" lon="-7.932475">
        <ele>3427.31472378438</ele>
        <time>2019-12-28T10:36:29.000Z</time>
      </trkpt>
      <trkpt lat="31.062282" lon="-7.932482">
        <ele>3426.51481509375</ele>
        <time>2019-12-28T10:36:33.000Z</time>
      </trkpt>
      <trkpt lat="31.062301" lon="-7.932494">
        <ele>3425.31472378438</ele>
        <time>2019-12-28T10:36:38.000Z</time>
      </trkpt>
      <trkpt lat="31.06232" lon="-7.932498">
        <ele>3424.42963653437</ele>
        <time>2019-12-28T10:36:41.000Z</time>
      </trkpt>
      <trkpt lat="31.062342" lon="-7.932498">
        <ele>3423.42963653437</ele>
        <time>2019-12-28T10:36:45.000Z</time>
      </trkpt>
      <trkpt lat="31.062362" lon="-7.932497">
        <ele>3422.91482144063</ele>
        <time>2019-12-28T10:36:48.000Z</time>
      </trkpt>
      <trkpt lat="31.062387" lon="-7.932497">
        <ele>3422.39990234375</ele>
        <time>2019-12-28T10:36:51.000Z</time>
      </trkpt>
      <trkpt lat="31.06241" lon="-7.932498">
        <ele>3422.19995117188</ele>
        <time>2019-12-28T10:36:54.000Z</time>
      </trkpt>
      <trkpt lat="31.062429" lon="-7.932502">
        <ele>3421.62958770625</ele>
        <time>2019-12-28T10:36:58.000Z</time>
      </trkpt>
      <trkpt lat="31.062435" lon="-7.932522">
        <ele>3419.82964288125</ele>
        <time>2019-12-28T10:37:05.000Z</time>
      </trkpt>
      <trkpt lat="31.062422" lon="-7.932542">
        <ele>3418.80004882813</ele>
        <time>2019-12-28T10:37:09.000Z</time>
      </trkpt>
      <trkpt lat="31.062429" lon="-7.932563">
        <ele>3417.91482144063</ele>
        <time>2019-12-28T10:37:13.000Z</time>
      </trkpt>
      <trkpt lat="31.062438" lon="-7.932589">
        <ele>3417.31472378438</ele>
        <time>2019-12-28T10:37:17.000Z</time>
      </trkpt>
      <trkpt lat="31.062461" lon="-7.932589">
        <ele>3416.80004882813</ele>
        <time>2019-12-28T10:37:20.000Z</time>
      </trkpt>
      <trkpt lat="31.062483" lon="-7.932595">
        <ele>3416.1147726125</ele>
        <time>2019-12-28T10:37:24.000Z</time>
      </trkpt>
      <trkpt lat="31.062502" lon="-7.932598">
        <ele>3415.91482144063</ele>
        <time>2019-12-28T10:37:26.000Z</time>
      </trkpt>
      <trkpt lat="31.062528" lon="-7.932586">
        <ele>3415.31472378438</ele>
        <time>2019-12-28T10:37:29.000Z</time>
      </trkpt>
      <trkpt lat="31.062547" lon="-7.932585">
        <ele>3414.91482144063</ele>
        <time>2019-12-28T10:37:32.000Z</time>
      </trkpt>
      <trkpt lat="31.062566" lon="-7.932585">
        <ele>3414.51481509375</ele>
        <time>2019-12-28T10:37:35.000Z</time>
      </trkpt>
      <trkpt lat="31.062586" lon="-7.932591">
        <ele>3413.91482144063</ele>
        <time>2019-12-28T10:37:40.000Z</time>
      </trkpt>
      <trkpt lat="31.062589" lon="-7.932615">
        <ele>3412.91482144063</ele>
        <time>2019-12-28T10:37:44.000Z</time>
      </trkpt>
      <trkpt lat="31.062589" lon="-7.93264">
        <ele>3411.51481509375</ele>
        <time>2019-12-28T10:37:50.000Z</time>
      </trkpt>
      <trkpt lat="31.062602" lon="-7.932662">
        <ele>3410.51481509375</ele>
        <time>2019-12-28T10:37:56.000Z</time>
      </trkpt>
      <trkpt lat="31.062611" lon="-7.93268">
        <ele>3409.91482144063</ele>
        <time>2019-12-28T10:37:59.000Z</time>
      </trkpt>
      <trkpt lat="31.06263" lon="-7.932685">
        <ele>3409.51481509375</ele>
        <time>2019-12-28T10:38:01.000Z</time>
      </trkpt>
      <trkpt lat="31.06265" lon="-7.932691">
        <ele>3409.1147726125</ele>
        <time>2019-12-28T10:38:04.000Z</time>
      </trkpt>
      <trkpt lat="31.062669" lon="-7.932694">
        <ele>3408.71487026875</ele>
        <time>2019-12-28T10:38:07.000Z</time>
      </trkpt>
      <trkpt lat="31.062688" lon="-7.932695">
        <ele>3408.31472378438</ele>
        <time>2019-12-28T10:38:10.000Z</time>
      </trkpt>
      <trkpt lat="31.06271" lon="-7.932695">
        <ele>3407.91482144063</ele>
        <time>2019-12-28T10:38:13.000Z</time>
      </trkpt>
      <trkpt lat="31.06273" lon="-7.932698">
        <ele>3407.31472378438</ele>
        <time>2019-12-28T10:38:17.000Z</time>
      </trkpt>
      <trkpt lat="31.062749" lon="-7.932691">
        <ele>3406.71487026875</ele>
        <time>2019-12-28T10:38:21.000Z</time>
      </trkpt>
      <trkpt lat="31.062768" lon="-7.932685">
        <ele>3406.19995117188</ele>
        <time>2019-12-28T10:38:25.000Z</time>
      </trkpt>
      <trkpt lat="31.062787" lon="-7.932688">
        <ele>3405.1147726125</ele>
        <time>2019-12-28T10:38:29.000Z</time>
      </trkpt>
      <trkpt lat="31.062787" lon="-7.932715">
        <ele>3403.39990234375</ele>
        <time>2019-12-28T10:38:35.000Z</time>
      </trkpt>
      <trkpt lat="31.062794" lon="-7.932737">
        <ele>3402.71487026875</ele>
        <time>2019-12-28T10:38:38.000Z</time>
      </trkpt>
      <trkpt lat="31.062803" lon="-7.93276">
        <ele>3402</ele>
        <time>2019-12-28T10:38:42.000Z</time>
      </trkpt>
      <trkpt lat="31.062819" lon="-7.932782">
        <ele>3401.3150927634</ele>
        <time>2019-12-28T10:38:46.000Z</time>
      </trkpt>
      <trkpt lat="31.062826" lon="-7.932802">
        <ele>3400.91482144063</ele>
        <time>2019-12-28T10:38:48.000Z</time>
      </trkpt>
      <trkpt lat="31.062816" lon="-7.932826">
        <ele>3400.51481509375</ele>
        <time>2019-12-28T10:38:50.000Z</time>
      </trkpt>
      <trkpt lat="31.062803" lon="-7.932842">
        <ele>3400.1147726125</ele>
        <time>2019-12-28T10:38:52.000Z</time>
      </trkpt>
      <trkpt lat="31.06279" lon="-7.932866">
        <ele>3399.51481509375</ele>
        <time>2019-12-28T10:38:55.000Z</time>
      </trkpt>
      <trkpt lat="31.062787" lon="-7.93289">
        <ele>3398.229545225</ele>
        <time>2019-12-28T10:38:59.000Z</time>
      </trkpt>
      <trkpt lat="31.062778" lon="-7.932914">
        <ele>3396.62958770625</ele>
        <time>2019-12-28T10:39:04.000Z</time>
      </trkpt>
      <trkpt lat="31.062768" lon="-7.932934">
        <ele>3395.71487026875</ele>
        <time>2019-12-28T10:39:07.000Z</time>
      </trkpt>
      <trkpt lat="31.062765" lon="-7.932965">
        <ele>3394.229545225</ele>
        <time>2019-12-28T10:39:12.000Z</time>
      </trkpt>
      <trkpt lat="31.062752" lon="-7.932982">
        <ele>3393.229545225</ele>
        <time>2019-12-28T10:39:15.000Z</time>
      </trkpt>
      <trkpt lat="31.062739" lon="-7.933">
        <ele>3392.1147726125</ele>
        <time>2019-12-28T10:39:18.000Z</time>
      </trkpt>
      <trkpt lat="31.06272" lon="-7.933014">
        <ele>3390.71487026875</ele>
        <time>2019-12-28T10:39:22.000Z</time>
      </trkpt>
      <trkpt lat="31.062704" lon="-7.933028">
        <ele>3389.62958770625</ele>
        <time>2019-12-28T10:39:25.000Z</time>
      </trkpt>
      <trkpt lat="31.062688" lon="-7.933038">
        <ele>3388.62958770625</ele>
        <time>2019-12-28T10:39:28.000Z</time>
      </trkpt>
      <trkpt lat="31.062672" lon="-7.93305">
        <ele>3387.62958770625</ele>
        <time>2019-12-28T10:39:31.000Z</time>
      </trkpt>
      <trkpt lat="31.062653" lon="-7.933067">
        <ele>3386.1147726125</ele>
        <time>2019-12-28T10:39:36.000Z</time>
      </trkpt>
      <trkpt lat="31.062627" lon="-7.933074">
        <ele>3385.02959405313</ele>
        <time>2019-12-28T10:39:40.000Z</time>
      </trkpt>
      <trkpt lat="31.062608" lon="-7.933077">
        <ele>3383.42963653437</ele>
        <time>2019-12-28T10:39:44.000Z</time>
      </trkpt>
      <trkpt lat="31.062586" lon="-7.933082">
        <ele>3382.31472378438</ele>
        <time>2019-12-28T10:39:47.000Z</time>
      </trkpt>
      <trkpt lat="31.062566" lon="-7.933083">
        <ele>3381.42963653437</ele>
        <time>2019-12-28T10:39:50.000Z</time>
      </trkpt>
      <trkpt lat="31.062557" lon="-7.933106">
        <ele>3379.91482144063</ele>
        <time>2019-12-28T10:39:54.000Z</time>
      </trkpt>
      <trkpt lat="31.062541" lon="-7.933123">
        <ele>3378.42963653437</ele>
        <time>2019-12-28T10:39:59.000Z</time>
      </trkpt>
      <trkpt lat="31.062518" lon="-7.933133">
        <ele>3377.31472378438</ele>
        <time>2019-12-28T10:40:03.000Z</time>
      </trkpt>
      <trkpt lat="31.062512" lon="-7.933153">
        <ele>3376.1147726125</ele>
        <time>2019-12-28T10:40:08.000Z</time>
      </trkpt>
      <trkpt lat="31.062506" lon="-7.933178">
        <ele>3375.31472378438</ele>
        <time>2019-12-28T10:40:12.000Z</time>
      </trkpt>
      <trkpt lat="31.062493" lon="-7.933198">
        <ele>3374.60009765625</ele>
        <time>2019-12-28T10:40:16.000Z</time>
      </trkpt>
      <trkpt lat="31.062477" lon="-7.933215">
        <ele>3373.91482144063</ele>
        <time>2019-12-28T10:40:20.000Z</time>
      </trkpt>
      <trkpt lat="31.062461" lon="-7.933235">
        <ele>3373.19995117188</ele>
        <time>2019-12-28T10:40:24.000Z</time>
      </trkpt>
      <trkpt lat="31.062467" lon="-7.93326">
        <ele>3372.51481509375</ele>
        <time>2019-12-28T10:40:28.000Z</time>
      </trkpt>
      <trkpt lat="31.062458" lon="-7.933282">
        <ele>3371.71487026875</ele>
        <time>2019-12-28T10:40:33.000Z</time>
      </trkpt>
      <trkpt lat="31.062451" lon="-7.933302">
        <ele>3371.31472378438</ele>
        <time>2019-12-28T10:40:36.000Z</time>
      </trkpt>
      <trkpt lat="31.062448" lon="-7.933331">
        <ele>3370.51481509375</ele>
        <time>2019-12-28T10:40:41.000Z</time>
      </trkpt>
      <trkpt lat="31.062451" lon="-7.93336">
        <ele>3369.91482144063</ele>
        <time>2019-12-28T10:40:44.000Z</time>
      </trkpt>
      <trkpt lat="31.062451" lon="-7.933387">
        <ele>3369.39990234375</ele>
        <time>2019-12-28T10:40:47.000Z</time>
      </trkpt>
      <trkpt lat="31.062461" lon="-7.933407">
        <ele>3369.1147726125</ele>
        <time>2019-12-28T10:40:49.000Z</time>
      </trkpt>
      <trkpt lat="31.062477" lon="-7.93343">
        <ele>3368.51481509375</ele>
        <time>2019-12-28T10:40:52.000Z</time>
      </trkpt>
      <trkpt lat="31.06248" lon="-7.93346">
        <ele>3368.1147726125</ele>
        <time>2019-12-28T10:40:55.000Z</time>
      </trkpt>
      <trkpt lat="31.062483" lon="-7.933486">
        <ele>3367.60009765625</ele>
        <time>2019-12-28T10:40:58.000Z</time>
      </trkpt>
      <trkpt lat="31.06248" lon="-7.933512">
        <ele>3367.1147726125</ele>
        <time>2019-12-28T10:41:01.000Z</time>
      </trkpt>
      <trkpt lat="31.062467" lon="-7.933532">
        <ele>3366.51481509375</ele>
        <time>2019-12-28T10:41:05.000Z</time>
      </trkpt>
      <trkpt lat="31.062458" lon="-7.933552">
        <ele>3366.1147726125</ele>
        <time>2019-12-28T10:41:08.000Z</time>
      </trkpt>
      <trkpt lat="31.062451" lon="-7.933575">
        <ele>3365.51481509375</ele>
        <time>2019-12-28T10:41:12.000Z</time>
      </trkpt>
      <trkpt lat="31.062454" lon="-7.933602">
        <ele>3365.31472378438</ele>
        <time>2019-12-28T10:41:14.000Z</time>
      </trkpt>
      <trkpt lat="31.062448" lon="-7.933623">
        <ele>3364.91482144063</ele>
        <time>2019-12-28T10:41:18.000Z</time>
      </trkpt>
      <trkpt lat="31.062448" lon="-7.933646">
        <ele>3364.31472378438</ele>
        <time>2019-12-28T10:41:23.000Z</time>
      </trkpt>
      <trkpt lat="31.062442" lon="-7.93367">
        <ele>3363.91482144063</ele>
        <time>2019-12-28T10:41:26.000Z</time>
      </trkpt>
      <trkpt lat="31.062445" lon="-7.9337">
        <ele>3363.39990234375</ele>
        <time>2019-12-28T10:41:31.000Z</time>
      </trkpt>
      <trkpt lat="31.062448" lon="-7.933725">
        <ele>3363.31472378438</ele>
        <time>2019-12-28T10:41:35.000Z</time>
      </trkpt>
      <trkpt lat="31.062429" lon="-7.933726">
        <ele>3363.1147726125</ele>
        <time>2019-12-28T10:41:40.000Z</time>
      </trkpt>
      <trkpt lat="31.062413" lon="-7.93374">
        <ele>3362.71487026875</ele>
        <time>2019-12-28T10:41:46.000Z</time>
      </trkpt>
      <trkpt lat="31.062413" lon="-7.933762">
        <ele>3362.39990234375</ele>
        <time>2019-12-28T10:41:53.000Z</time>
      </trkpt>
      <trkpt lat="31.0624" lon="-7.933777">
        <ele>3362.19995117188</ele>
        <time>2019-12-28T10:42:01.000Z</time>
      </trkpt>
      <trkpt lat="31.06239" lon="-7.933798">
        <ele>3362</ele>
        <time>2019-12-28T10:42:07.000Z</time>
      </trkpt>
      <trkpt lat="31.06239" lon="-7.933822">
        <ele>3361.80004882813</ele>
        <time>2019-12-28T10:42:11.000Z</time>
      </trkpt>
      <trkpt lat="31.062384" lon="-7.933842">
        <ele>3361.60009765625</ele>
        <time>2019-12-28T10:42:16.000Z</time>
      </trkpt>
      <trkpt lat="31.062368" lon="-7.933853">
        <ele>3361.19995117188</ele>
        <time>2019-12-28T10:42:24.000Z</time>
      </trkpt>
      <trkpt lat="31.062355" lon="-7.933873">
        <ele>3361</ele>
        <time>2019-12-28T10:42:29.000Z</time>
      </trkpt>
      <trkpt lat="31.062362" lon="-7.933894">
        <ele>3360.51481509375</ele>
        <time>2019-12-28T10:42:35.000Z</time>
      </trkpt>
      <trkpt lat="31.062362" lon="-7.93392">
        <ele>3359.91482144063</ele>
        <time>2019-12-28T10:42:41.000Z</time>
      </trkpt>
      <trkpt lat="31.062355" lon="-7.93394">
        <ele>3359.39990234375</ele>
        <time>2019-12-28T10:42:47.000Z</time>
      </trkpt>
      <trkpt lat="31.062352" lon="-7.933963">
        <ele>3359.1147726125</ele>
        <time>2019-12-28T10:42:51.000Z</time>
      </trkpt>
      <trkpt lat="31.062333" lon="-7.933971">
        <ele>3358.19995117188</ele>
        <time>2019-12-28T10:42:59.000Z</time>
      </trkpt>
      <trkpt lat="31.062314" lon="-7.933966">
        <ele>3357.19995117188</ele>
        <time>2019-12-28T10:43:07.000Z</time>
      </trkpt>
      <trkpt lat="31.062294" lon="-7.933958">
        <ele>3356.60009765625</ele>
        <time>2019-12-28T10:43:28.000Z</time>
      </trkpt>
      <trkpt lat="31.062278" lon="-7.933971">
        <ele>3356.60009765625</ele>
        <time>2019-12-28T10:43:37.000Z</time>
      </trkpt>
      <trkpt lat="31.062275" lon="-7.933994">
        <ele>3356.60009765625</ele>
        <time>2019-12-28T10:43:43.000Z</time>
      </trkpt>
      <trkpt lat="31.062278" lon="-7.934014">
        <ele>3356.39990234375</ele>
        <time>2019-12-28T10:43:56.000Z</time>
      </trkpt>
      <trkpt lat="31.062259" lon="-7.93401">
        <ele>3356.39990234375</ele>
        <time>2019-12-28T10:44:13.000Z</time>
      </trkpt>
      <trkpt lat="31.06224" lon="-7.934005">
        <ele>3356.39990234375</ele>
        <time>2019-12-28T10:44:28.000Z</time>
      </trkpt>
      <trkpt lat="31.062237" lon="-7.933983">
        <ele>3356.39990234375</ele>
        <time>2019-12-28T10:44:32.000Z</time>
      </trkpt>
      <trkpt lat="31.062218" lon="-7.933975">
        <ele>3356.19995117188</ele>
        <time>2019-12-28T10:44:49.000Z</time>
      </trkpt>
      <trkpt lat="31.062202" lon="-7.933991">
        <ele>3356.19995117188</ele>
        <time>2019-12-28T10:45:03.000Z</time>
      </trkpt>
      <trkpt lat="31.062189" lon="-7.934009">
        <ele>3356.19995117188</ele>
        <time>2019-12-28T10:45:08.000Z</time>
      </trkpt>
      <trkpt lat="31.062173" lon="-7.934022">
        <ele>3356.19995117188</ele>
        <time>2019-12-28T10:45:14.000Z</time>
      </trkpt>
      <trkpt lat="31.06216" lon="-7.934037">
        <ele>3356.19995117188</ele>
        <time>2019-12-28T10:45:17.000Z</time>
      </trkpt>
      <trkpt lat="31.062141" lon="-7.93405">
        <ele>3356.19995117188</ele>
        <time>2019-12-28T10:45:20.000Z</time>
      </trkpt>
      <trkpt lat="31.062128" lon="-7.934068">
        <ele>3356.14516519063</ele>
        <time>2019-12-28T10:45:25.000Z</time>
      </trkpt>
      <trkpt lat="31.062109" lon="-7.934082">
        <ele>3355.80004882813</ele>
        <time>2019-12-28T10:45:29.000Z</time>
      </trkpt>
      <trkpt lat="31.062096" lon="-7.934098">
        <ele>3355.60009765625</ele>
        <time>2019-12-28T10:45:32.000Z</time>
      </trkpt>
      <trkpt lat="31.062093" lon="-7.934123">
        <ele>3354.94521401875</ele>
        <time>2019-12-28T10:45:37.000Z</time>
      </trkpt>
      <trkpt lat="31.062083" lon="-7.934145">
        <ele>3353.94521401875</ele>
        <time>2019-12-28T10:45:43.000Z</time>
      </trkpt>
      <trkpt lat="31.06208" lon="-7.934167">
        <ele>3353</ele>
        <time>2019-12-28T10:45:48.000Z</time>
      </trkpt>
      <trkpt lat="31.062067" lon="-7.934183">
        <ele>3350.60009765625</ele>
        <time>2019-12-28T10:46:06.000Z</time>
      </trkpt>
      <trkpt lat="31.062054" lon="-7.934203">
        <ele>3350.39990234375</ele>
        <time>2019-12-28T10:46:14.000Z</time>
      </trkpt>
      <trkpt lat="31.062061" lon="-7.934226">
        <ele>3350.19995117188</ele>
        <time>2019-12-28T10:46:21.000Z</time>
      </trkpt>
      <trkpt lat="31.062051" lon="-7.934245">
        <ele>3350</ele>
        <time>2019-12-28T10:46:25.000Z</time>
      </trkpt>
      <trkpt lat="31.062045" lon="-7.934266">
        <ele>3349.60009765625</ele>
        <time>2019-12-28T10:46:30.000Z</time>
      </trkpt>
      <trkpt lat="31.062038" lon="-7.93429">
        <ele>3349.14516519063</ele>
        <time>2019-12-28T10:46:37.000Z</time>
      </trkpt>
      <trkpt lat="31.062029" lon="-7.93431">
        <ele>3348.60009765625</ele>
        <time>2019-12-28T10:46:42.000Z</time>
      </trkpt>
      <trkpt lat="31.062016" lon="-7.934328">
        <ele>3348.14516519063</ele>
        <time>2019-12-28T10:46:47.000Z</time>
      </trkpt>
      <trkpt lat="31.061997" lon="-7.934338">
        <ele>3347.54524478125</ele>
        <time>2019-12-28T10:46:51.000Z</time>
      </trkpt>
      <trkpt lat="31.061984" lon="-7.934363">
        <ele>3346.60009765625</ele>
        <time>2019-12-28T10:46:57.000Z</time>
      </trkpt>
      <trkpt lat="31.061981" lon="-7.934386">
        <ele>3345.94521401875</ele>
        <time>2019-12-28T10:47:01.000Z</time>
      </trkpt>
      <trkpt lat="31.061974" lon="-7.934408">
        <ele>3345.3451163625</ele>
        <time>2019-12-28T10:47:05.000Z</time>
      </trkpt>
      <trkpt lat="31.061971" lon="-7.934437">
        <ele>3344.54524478125</ele>
        <time>2019-12-28T10:47:09.000Z</time>
      </trkpt>
      <trkpt lat="31.061962" lon="-7.934455">
        <ele>3343.74526284688</ele>
        <time>2019-12-28T10:47:14.000Z</time>
      </trkpt>
      <trkpt lat="31.061955" lon="-7.934477">
        <ele>3342.94521401875</ele>
        <time>2019-12-28T10:47:20.000Z</time>
      </trkpt>
      <trkpt lat="31.061955" lon="-7.9345">
        <ele>3342.14516519063</ele>
        <time>2019-12-28T10:47:25.000Z</time>
      </trkpt>
      <trkpt lat="31.061952" lon="-7.934523">
        <ele>3341.54524478125</ele>
        <time>2019-12-28T10:47:29.000Z</time>
      </trkpt>
      <trkpt lat="31.061955" lon="-7.934545">
        <ele>3340.94521401875</ele>
        <time>2019-12-28T10:47:33.000Z</time>
      </trkpt>
      <trkpt lat="31.061974" lon="-7.93454">
        <ele>3340</ele>
        <time>2019-12-28T10:47:39.000Z</time>
      </trkpt>
      <trkpt lat="31.061981" lon="-7.93456">
        <ele>3337.3451163625</ele>
        <time>2019-12-28T10:47:54.000Z</time>
      </trkpt>
      <trkpt lat="31.061971" lon="-7.934578">
        <ele>3336.60009765625</ele>
        <time>2019-12-28T10:47:59.000Z</time>
      </trkpt>
      <trkpt lat="31.061968" lon="-7.934602">
        <ele>3335.39990234375</ele>
        <time>2019-12-28T10:48:08.000Z</time>
      </trkpt>
      <trkpt lat="31.061962" lon="-7.934623">
        <ele>3334.60009765625</ele>
        <time>2019-12-28T10:48:15.000Z</time>
      </trkpt>
      <trkpt lat="31.061971" lon="-7.934645">
        <ele>3333.80004882813</ele>
        <time>2019-12-28T10:48:20.000Z</time>
      </trkpt>
      <trkpt lat="31.061978" lon="-7.934669">
        <ele>3332.74526284688</ele>
        <time>2019-12-28T10:48:27.000Z</time>
      </trkpt>
      <trkpt lat="31.061994" lon="-7.934683">
        <ele>3331.60009765625</ele>
        <time>2019-12-28T10:48:35.000Z</time>
      </trkpt>
      <trkpt lat="31.062003" lon="-7.934703">
        <ele>3330.3451163625</ele>
        <time>2019-12-28T10:48:44.000Z</time>
      </trkpt>
      <trkpt lat="31.06199" lon="-7.934722">
        <ele>3329.94521401875</ele>
        <time>2019-12-28T10:48:46.000Z</time>
      </trkpt>
      <trkpt lat="31.061974" lon="-7.93474">
        <ele>3329.54524478125</ele>
        <time>2019-12-28T10:48:49.000Z</time>
      </trkpt>
      <trkpt lat="31.061974" lon="-7.934762">
        <ele>3328.74526284688</ele>
        <time>2019-12-28T10:48:55.000Z</time>
      </trkpt>
      <trkpt lat="31.061978" lon="-7.934786">
        <ele>3327.94521401875</ele>
        <time>2019-12-28T10:49:00.000Z</time>
      </trkpt>
      <trkpt lat="31.061974" lon="-7.934811">
        <ele>3326.94521401875</ele>
        <time>2019-12-28T10:49:06.000Z</time>
      </trkpt>
      <trkpt lat="31.061971" lon="-7.934832">
        <ele>3326.14516519063</ele>
        <time>2019-12-28T10:49:11.000Z</time>
      </trkpt>
      <trkpt lat="31.061962" lon="-7.934852">
        <ele>3325.39990234375</ele>
        <time>2019-12-28T10:49:15.000Z</time>
      </trkpt>
      <trkpt lat="31.061942" lon="-7.934868">
        <ele>3324.94521401875</ele>
        <time>2019-12-28T10:49:18.000Z</time>
      </trkpt>
      <trkpt lat="31.061926" lon="-7.934883">
        <ele>3324.54524478125</ele>
        <time>2019-12-28T10:49:21.000Z</time>
      </trkpt>
      <trkpt lat="31.061907" lon="-7.934902">
        <ele>3324</ele>
        <time>2019-12-28T10:49:24.000Z</time>
      </trkpt>
      <trkpt lat="31.061898" lon="-7.93492">
        <ele>3323.54524478125</ele>
        <time>2019-12-28T10:49:27.000Z</time>
      </trkpt>
      <trkpt lat="31.061891" lon="-7.93494">
        <ele>3323</ele>
        <time>2019-12-28T10:49:31.000Z</time>
      </trkpt>
      <trkpt lat="31.061885" lon="-7.934962">
        <ele>3322.19995117188</ele>
        <time>2019-12-28T10:49:36.000Z</time>
      </trkpt>
      <trkpt lat="31.061872" lon="-7.934977">
        <ele>3321.39990234375</ele>
        <time>2019-12-28T10:49:42.000Z</time>
      </trkpt>
      <trkpt lat="31.061866" lon="-7.934998">
        <ele>3320.54524478125</ele>
        <time>2019-12-28T10:49:48.000Z</time>
      </trkpt>
      <trkpt lat="31.061869" lon="-7.93502">
        <ele>3319.74526284688</ele>
        <time>2019-12-28T10:49:54.000Z</time>
      </trkpt>
      <trkpt lat="31.061856" lon="-7.93504">
        <ele>3319.14516519063</ele>
        <time>2019-12-28T10:49:58.000Z</time>
      </trkpt>
      <trkpt lat="31.061853" lon="-7.935062">
        <ele>3318.3451163625</ele>
        <time>2019-12-28T10:50:05.000Z</time>
      </trkpt>
      <trkpt lat="31.061837" lon="-7.935078">
        <ele>3317.74526284688</ele>
        <time>2019-12-28T10:50:09.000Z</time>
      </trkpt>
      <trkpt lat="31.061818" lon="-7.935094">
        <ele>3317.19995117188</ele>
        <time>2019-12-28T10:50:12.000Z</time>
      </trkpt>
      <trkpt lat="31.061805" lon="-7.935114">
        <ele>3316.54524478125</ele>
        <time>2019-12-28T10:50:16.000Z</time>
      </trkpt>
      <trkpt lat="31.061792" lon="-7.93513">
        <ele>3315.74531749064</ele>
        <time>2019-12-28T10:50:19.000Z</time>
      </trkpt>
      <trkpt lat="31.061782" lon="-7.935155">
        <ele>3314.3451163625</ele>
        <time>2019-12-28T10:50:24.000Z</time>
      </trkpt>
      <trkpt lat="31.06177" lon="-7.935177">
        <ele>3313.34526144027</ele>
        <time>2019-12-28T10:50:28.000Z</time>
      </trkpt>
      <trkpt lat="31.061763" lon="-7.935197">
        <ele>3312.54529949174</ele>
        <time>2019-12-28T10:50:32.000Z</time>
      </trkpt>
      <trkpt lat="31.061754" lon="-7.935218">
        <ele>3311.74526284688</ele>
        <time>2019-12-28T10:50:36.000Z</time>
      </trkpt>
      <trkpt lat="31.061744" lon="-7.935242">
        <ele>3311.19995117188</ele>
        <time>2019-12-28T10:50:40.000Z</time>
      </trkpt>
      <trkpt lat="31.061728" lon="-7.935262">
        <ele>3310.80004882813</ele>
        <time>2019-12-28T10:50:43.000Z</time>
      </trkpt>
      <trkpt lat="31.061718" lon="-7.935285">
        <ele>3310.3451163625</ele>
        <time>2019-12-28T10:50:46.000Z</time>
      </trkpt>
      <trkpt lat="31.061709" lon="-7.93531">
        <ele>3309.94521401875</ele>
        <time>2019-12-28T10:50:49.000Z</time>
      </trkpt>
      <trkpt lat="31.061725" lon="-7.935329">
        <ele>3309.3451163625</ele>
        <time>2019-12-28T10:50:52.000Z</time>
      </trkpt>
      <trkpt lat="31.061744" lon="-7.935325">
        <ele>3308.74526284688</ele>
        <time>2019-12-28T10:50:55.000Z</time>
      </trkpt>
      <trkpt lat="31.061763" lon="-7.935323">
        <ele>3308.3451163625</ele>
        <time>2019-12-28T10:50:57.000Z</time>
      </trkpt>
      <trkpt lat="31.061782" lon="-7.935318">
        <ele>3308</ele>
        <time>2019-12-28T10:50:59.000Z</time>
      </trkpt>
      <trkpt lat="31.061805" lon="-7.935306">
        <ele>3307.54524478125</ele>
        <time>2019-12-28T10:51:02.000Z</time>
      </trkpt>
      <trkpt lat="31.061824" lon="-7.9353">
        <ele>3307.3451163625</ele>
        <time>2019-12-28T10:51:04.000Z</time>
      </trkpt>
      <trkpt lat="31.061846" lon="-7.93529">
        <ele>3306.94521401875</ele>
        <time>2019-12-28T10:51:07.000Z</time>
      </trkpt>
      <trkpt lat="31.061853" lon="-7.93531">
        <ele>3305.60009765625</ele>
        <time>2019-12-28T10:51:15.000Z</time>
      </trkpt>
      <trkpt lat="31.061843" lon="-7.93533">
        <ele>3305.2355444</ele>
        <time>2019-12-28T10:51:17.000Z</time>
      </trkpt>
      <trkpt lat="31.061834" lon="-7.935349">
        <ele>3303.94521401875</ele>
        <time>2019-12-28T10:51:20.000Z</time>
      </trkpt>
      <trkpt lat="31.061821" lon="-7.93537">
        <ele>3302.8904280375</ele>
        <time>2019-12-28T10:51:23.000Z</time>
      </trkpt>
      <trkpt lat="31.061808" lon="-7.935385">
        <ele>3301.94521401875</ele>
        <time>2019-12-28T10:51:27.000Z</time>
      </trkpt>
      <trkpt lat="31.061792" lon="-7.935405">
        <ele>3301.3451163625</ele>
        <time>2019-12-28T10:51:30.000Z</time>
      </trkpt>
      <trkpt lat="31.061779" lon="-7.93542">
        <ele>3301</ele>
        <time>2019-12-28T10:51:32.000Z</time>
      </trkpt>
      <trkpt lat="31.061766" lon="-7.935437">
        <ele>3300.74526284688</ele>
        <time>2019-12-28T10:51:34.000Z</time>
      </trkpt>
      <trkpt lat="31.061754" lon="-7.935463">
        <ele>3300.3451163625</ele>
        <time>2019-12-28T10:51:37.000Z</time>
      </trkpt>
      <trkpt lat="31.061744" lon="-7.935486">
        <ele>3299.94521401875</ele>
        <time>2019-12-28T10:51:40.000Z</time>
      </trkpt>
      <trkpt lat="31.061728" lon="-7.9355">
        <ele>3299.74526284688</ele>
        <time>2019-12-28T10:51:42.000Z</time>
      </trkpt>
      <trkpt lat="31.061715" lon="-7.93552">
        <ele>3299.3451163625</ele>
        <time>2019-12-28T10:51:45.000Z</time>
      </trkpt>
      <trkpt lat="31.061706" lon="-7.935538">
        <ele>3298.94521401875</ele>
        <time>2019-12-28T10:51:48.000Z</time>
      </trkpt>
      <trkpt lat="31.061702" lon="-7.935562">
        <ele>3298.29033038125</ele>
        <time>2019-12-28T10:51:52.000Z</time>
      </trkpt>
      <trkpt lat="31.061686" lon="-7.935574">
        <ele>3297.74526284688</ele>
        <time>2019-12-28T10:51:55.000Z</time>
      </trkpt>
      <trkpt lat="31.061667" lon="-7.935585">
        <ele>3296.14516519063</ele>
        <time>2019-12-28T10:52:03.000Z</time>
      </trkpt>
      <trkpt lat="31.061658" lon="-7.93561">
        <ele>3295.54524478125</ele>
        <time>2019-12-28T10:52:06.000Z</time>
      </trkpt>
      <trkpt lat="31.061648" lon="-7.935633">
        <ele>3294.74526284688</ele>
        <time>2019-12-28T10:52:10.000Z</time>
      </trkpt>
      <trkpt lat="31.061642" lon="-7.935654">
        <ele>3293.74526284688</ele>
        <time>2019-12-28T10:52:14.000Z</time>
      </trkpt>
      <trkpt lat="31.061632" lon="-7.935672">
        <ele>3293.14516519063</ele>
        <time>2019-12-28T10:52:17.000Z</time>
      </trkpt>
      <trkpt lat="31.061626" lon="-7.935697">
        <ele>3291.94521401875</ele>
        <time>2019-12-28T10:52:22.000Z</time>
      </trkpt>
      <trkpt lat="31.061616" lon="-7.935718">
        <ele>3291.29033038125</ele>
        <time>2019-12-28T10:52:25.000Z</time>
      </trkpt>
      <trkpt lat="31.061606" lon="-7.935742">
        <ele>3290.29054873853</ele>
        <time>2019-12-28T10:52:29.000Z</time>
      </trkpt>
      <trkpt lat="31.0616" lon="-7.935762">
        <ele>3289.54524478125</ele>
        <time>2019-12-28T10:52:32.000Z</time>
      </trkpt>
      <trkpt lat="31.061594" lon="-7.935783">
        <ele>3288.74526284688</ele>
        <time>2019-12-28T10:52:35.000Z</time>
      </trkpt>
      <trkpt lat="31.061578" lon="-7.935802">
        <ele>3288.14516519063</ele>
        <time>2019-12-28T10:52:38.000Z</time>
      </trkpt>
      <trkpt lat="31.061565" lon="-7.935825">
        <ele>3287.29033038125</ele>
        <time>2019-12-28T10:52:42.000Z</time>
      </trkpt>
      <trkpt lat="31.061555" lon="-7.935848">
        <ele>3286.3451163625</ele>
        <time>2019-12-28T10:52:46.000Z</time>
      </trkpt>
      <trkpt lat="31.061546" lon="-7.93587">
        <ele>3284.94521401875</ele>
        <time>2019-12-28T10:52:53.000Z</time>
      </trkpt>
      <trkpt lat="31.061542" lon="-7.935894">
        <ele>3284.39990234375</ele>
        <time>2019-12-28T10:52:57.000Z</time>
      </trkpt>
      <trkpt lat="31.06153" lon="-7.935915">
        <ele>3284.19995117188</ele>
        <time>2019-12-28T10:53:00.000Z</time>
      </trkpt>
      <trkpt lat="31.06152" lon="-7.935937">
        <ele>3284</ele>
        <time>2019-12-28T10:53:03.000Z</time>
      </trkpt>
      <trkpt lat="31.06151" lon="-7.935955">
        <ele>3284</ele>
        <time>2019-12-28T10:53:06.000Z</time>
      </trkpt>
      <trkpt lat="31.061504" lon="-7.935978">
        <ele>3283.80004882813</ele>
        <time>2019-12-28T10:53:10.000Z</time>
      </trkpt>
      <trkpt lat="31.061488" lon="-7.936003">
        <ele>3283.80004882813</ele>
        <time>2019-12-28T10:53:13.000Z</time>
      </trkpt>
      <trkpt lat="31.061482" lon="-7.936023">
        <ele>3284</ele>
        <time>2019-12-28T10:53:16.000Z</time>
      </trkpt>
      <trkpt lat="31.061478" lon="-7.936045">
        <ele>3284</ele>
        <time>2019-12-28T10:53:19.000Z</time>
      </trkpt>
      <trkpt lat="31.061469" lon="-7.936074">
        <ele>3284.19995117188</ele>
        <time>2019-12-28T10:53:24.000Z</time>
      </trkpt>
      <trkpt lat="31.061459" lon="-7.9361">
        <ele>3284.19995117188</ele>
        <time>2019-12-28T10:53:27.000Z</time>
      </trkpt>
      <trkpt lat="31.061453" lon="-7.936128">
        <ele>3284.19995117188</ele>
        <time>2019-12-28T10:53:30.000Z</time>
      </trkpt>
      <trkpt lat="31.06145" lon="-7.936154">
        <ele>3284.19995117188</ele>
        <time>2019-12-28T10:53:33.000Z</time>
      </trkpt>
      <trkpt lat="31.061459" lon="-7.936174">
        <ele>3284.19995117188</ele>
        <time>2019-12-28T10:53:37.000Z</time>
      </trkpt>
      <trkpt lat="31.061466" lon="-7.936203">
        <ele>3283.94521401875</ele>
        <time>2019-12-28T10:53:46.000Z</time>
      </trkpt>
      <trkpt lat="31.061466" lon="-7.936225">
        <ele>3283.80004882813</ele>
        <time>2019-12-28T10:53:49.000Z</time>
      </trkpt>
      <trkpt lat="31.061462" lon="-7.93625">
        <ele>3283.60009765625</ele>
        <time>2019-12-28T10:53:53.000Z</time>
      </trkpt>
      <trkpt lat="31.061466" lon="-7.936278">
        <ele>3283.54524478125</ele>
        <time>2019-12-28T10:53:57.000Z</time>
      </trkpt>
      <trkpt lat="31.061466" lon="-7.936303">
        <ele>3283.3451163625</ele>
        <time>2019-12-28T10:54:00.000Z</time>
      </trkpt>
      <trkpt lat="31.061466" lon="-7.936326">
        <ele>3283.19995117188</ele>
        <time>2019-12-28T10:54:02.000Z</time>
      </trkpt>
      <trkpt lat="31.061466" lon="-7.936355">
        <ele>3283</ele>
        <time>2019-12-28T10:54:05.000Z</time>
      </trkpt>
      <trkpt lat="31.061475" lon="-7.936377">
        <ele>3282.54524478125</ele>
        <time>2019-12-28T10:54:10.000Z</time>
      </trkpt>
      <trkpt lat="31.061485" lon="-7.936405">
        <ele>3282.19995117188</ele>
        <time>2019-12-28T10:54:13.000Z</time>
      </trkpt>
      <trkpt lat="31.061488" lon="-7.93643">
        <ele>3281.94521401875</ele>
        <time>2019-12-28T10:54:16.000Z</time>
      </trkpt>
      <trkpt lat="31.061491" lon="-7.936452">
        <ele>3281.54524478125</ele>
        <time>2019-12-28T10:54:19.000Z</time>
      </trkpt>
      <trkpt lat="31.061498" lon="-7.936477">
        <ele>3281.19995117188</ele>
        <time>2019-12-28T10:54:22.000Z</time>
      </trkpt>
      <trkpt lat="31.061507" lon="-7.936495">
        <ele>3280.94521401875</ele>
        <time>2019-12-28T10:54:25.000Z</time>
      </trkpt>
      <trkpt lat="31.061514" lon="-7.936518">
        <ele>3280.60009765625</ele>
        <time>2019-12-28T10:54:28.000Z</time>
      </trkpt>
      <trkpt lat="31.06152" lon="-7.936543">
        <ele>3280.14516519063</ele>
        <time>2019-12-28T10:54:32.000Z</time>
      </trkpt>
      <trkpt lat="31.06153" lon="-7.936565">
        <ele>3279.74526284688</ele>
        <time>2019-12-28T10:54:35.000Z</time>
      </trkpt>
      <trkpt lat="31.061542" lon="-7.936583">
        <ele>3279.3451163625</ele>
        <time>2019-12-28T10:54:38.000Z</time>
      </trkpt>
      <trkpt lat="31.061542" lon="-7.936608">
        <ele>3279.14516519063</ele>
        <time>2019-12-28T10:54:40.000Z</time>
      </trkpt>
      <trkpt lat="31.061549" lon="-7.93663">
        <ele>3278.94521401875</ele>
        <time>2019-12-28T10:54:42.000Z</time>
      </trkpt>
      <trkpt lat="31.061555" lon="-7.936658">
        <ele>3278.60009765625</ele>
        <time>2019-12-28T10:54:45.000Z</time>
      </trkpt>
      <trkpt lat="31.061555" lon="-7.936683">
        <ele>3278.3451163625</ele>
        <time>2019-12-28T10:54:47.000Z</time>
      </trkpt>
      <trkpt lat="31.061555" lon="-7.936712">
        <ele>3278.14516519063</ele>
        <time>2019-12-28T10:54:49.000Z</time>
      </trkpt>
      <trkpt lat="31.061555" lon="-7.93674">
        <ele>3277.80004882813</ele>
        <time>2019-12-28T10:54:51.000Z</time>
      </trkpt>
      <trkpt lat="31.061555" lon="-7.936769">
        <ele>3277.54524478125</ele>
        <time>2019-12-28T10:54:53.000Z</time>
      </trkpt>
      <trkpt lat="31.061565" lon="-7.936795">
        <ele>3277.14516519063</ele>
        <time>2019-12-28T10:54:56.000Z</time>
      </trkpt>
      <trkpt lat="31.061584" lon="-7.936822">
        <ele>3276.74526284688</ele>
        <time>2019-12-28T10:54:59.000Z</time>
      </trkpt>
      <trkpt lat="31.061597" lon="-7.936837">
        <ele>3276.54524478125</ele>
        <time>2019-12-28T10:55:01.000Z</time>
      </trkpt>
      <trkpt lat="31.061619" lon="-7.936848">
        <ele>3276</ele>
        <time>2019-12-28T10:55:04.000Z</time>
      </trkpt>
      <trkpt lat="31.061638" lon="-7.936854">
        <ele>3275.74526284688</ele>
        <time>2019-12-28T10:55:06.000Z</time>
      </trkpt>
      <trkpt lat="31.061664" lon="-7.936857">
        <ele>3274.94521401875</ele>
        <time>2019-12-28T10:55:09.000Z</time>
      </trkpt>
      <trkpt lat="31.061683" lon="-7.936851">
        <ele>3274.3451163625</ele>
        <time>2019-12-28T10:55:11.000Z</time>
      </trkpt>
      <trkpt lat="31.061706" lon="-7.936828">
        <ele>3273.74526284688</ele>
        <time>2019-12-28T10:55:13.000Z</time>
      </trkpt>
      <trkpt lat="31.061718" lon="-7.93681">
        <ele>3273.14516519063</ele>
        <time>2019-12-28T10:55:15.000Z</time>
      </trkpt>
      <trkpt lat="31.061741" lon="-7.936805">
        <ele>3272.09037920938</ele>
        <time>2019-12-28T10:55:18.000Z</time>
      </trkpt>
      <trkpt lat="31.061757" lon="-7.936795">
        <ele>3271.34517100627</ele>
        <time>2019-12-28T10:55:20.000Z</time>
      </trkpt>
      <trkpt lat="31.061776" lon="-7.93677">
        <ele>3270.74526284688</ele>
        <time>2019-12-28T10:55:22.000Z</time>
      </trkpt>
      <trkpt lat="31.061792" lon="-7.936752">
        <ele>3269.8904280375</ele>
        <time>2019-12-28T10:55:25.000Z</time>
      </trkpt>
      <trkpt lat="31.061811" lon="-7.936762">
        <ele>3268.94521401875</ele>
        <time>2019-12-28T10:55:28.000Z</time>
      </trkpt>
      <trkpt lat="31.06183" lon="-7.93677">
        <ele>3268.09037920938</ele>
        <time>2019-12-28T10:55:30.000Z</time>
      </trkpt>
      <trkpt lat="31.061859" lon="-7.936765">
        <ele>3266.8904280375</ele>
        <time>2019-12-28T10:55:33.000Z</time>
      </trkpt>
      <trkpt lat="31.061882" lon="-7.936765">
        <ele>3266.09037920938</ele>
        <time>2019-12-28T10:55:35.000Z</time>
      </trkpt>
      <trkpt lat="31.061901" lon="-7.936758">
        <ele>3264.60009765625</ele>
        <time>2019-12-28T10:55:39.000Z</time>
      </trkpt>
      <trkpt lat="31.061923" lon="-7.936758">
        <ele>3261.03559322813</ele>
        <time>2019-12-28T10:55:45.000Z</time>
      </trkpt>
      <trkpt lat="31.061939" lon="-7.936749">
        <ele>3258.8355751625</ele>
        <time>2019-12-28T10:55:49.000Z</time>
      </trkpt>
      <trkpt lat="31.061955" lon="-7.936738">
        <ele>3257.09037920938</ele>
        <time>2019-12-28T10:55:52.000Z</time>
      </trkpt>
      <trkpt lat="31.061971" lon="-7.936725">
        <ele>3255.83601057296</ele>
        <time>2019-12-28T10:55:55.000Z</time>
      </trkpt>
      <trkpt lat="31.06199" lon="-7.93672">
        <ele>3254.39990234375</ele>
        <time>2019-12-28T10:55:59.000Z</time>
      </trkpt>
      <trkpt lat="31.062013" lon="-7.936723">
        <ele>3253.29033038125</ele>
        <time>2019-12-28T10:56:02.000Z</time>
      </trkpt>
      <trkpt lat="31.062035" lon="-7.93672">
        <ele>3251.8904280375</ele>
        <time>2019-12-28T10:56:05.000Z</time>
      </trkpt>
      <trkpt lat="31.062058" lon="-7.936723">
        <ele>3251.09037920938</ele>
        <time>2019-12-28T10:56:08.000Z</time>
      </trkpt>
      <trkpt lat="31.062064" lon="-7.936743">
        <ele>3249.27124798125</ele>
        <time>2019-12-28T10:56:11.000Z</time>
      </trkpt>
      <trkpt lat="31.06207" lon="-7.936785">
        <ele>3245.7260032</ele>
        <time>2019-12-28T10:56:15.000Z</time>
      </trkpt>
      <trkpt lat="31.062077" lon="-7.936814">
        <ele>3243.03559322813</ele>
        <time>2019-12-28T10:56:18.000Z</time>
      </trkpt>
      <trkpt lat="31.06209" lon="-7.936837">
        <ele>3240.8355751625</ele>
        <time>2019-12-28T10:56:22.000Z</time>
      </trkpt>
      <trkpt lat="31.062109" lon="-7.93685">
        <ele>3238.8904280375</ele>
        <time>2019-12-28T10:56:26.000Z</time>
      </trkpt>
      <trkpt lat="31.062131" lon="-7.93685">
        <ele>3237.54524478125</ele>
        <time>2019-12-28T10:56:30.000Z</time>
      </trkpt>
      <trkpt lat="31.06215" lon="-7.936846">
        <ele>3236.74526284688</ele>
        <time>2019-12-28T10:56:33.000Z</time>
      </trkpt>
      <trkpt lat="31.06217" lon="-7.936848">
        <ele>3235.74526284688</ele>
        <time>2019-12-28T10:56:38.000Z</time>
      </trkpt>
      <trkpt lat="31.062176" lon="-7.93689">
        <ele>3234.69040997187</ele>
        <time>2019-12-28T10:56:42.000Z</time>
      </trkpt>
      <trkpt lat="31.062179" lon="-7.936914">
        <ele>3233.80004882813</ele>
        <time>2019-12-28T10:56:44.000Z</time>
      </trkpt>
      <trkpt lat="31.062186" lon="-7.936934">
        <ele>3231.63562399062</ele>
        <time>2019-12-28T10:56:48.000Z</time>
      </trkpt>
      <trkpt lat="31.062202" lon="-7.936947">
        <ele>3228.4904588</ele>
        <time>2019-12-28T10:56:55.000Z</time>
      </trkpt>
      <trkpt lat="31.062221" lon="-7.936952">
        <ele>3226.60009765625</ele>
        <time>2019-12-28T10:57:00.000Z</time>
      </trkpt>
      <trkpt lat="31.06224" lon="-7.936982">
        <ele>3224.4904588</ele>
        <time>2019-12-28T10:57:07.000Z</time>
      </trkpt>
      <trkpt lat="31.062259" lon="-7.937002">
        <ele>3223.54524478125</ele>
        <time>2019-12-28T10:57:11.000Z</time>
      </trkpt>
      <trkpt lat="31.062272" lon="-7.93702">
        <ele>3222.54524478125</ele>
        <time>2019-12-28T10:57:15.000Z</time>
      </trkpt>
      <trkpt lat="31.062291" lon="-7.937029">
        <ele>3221.74526284688</ele>
        <time>2019-12-28T10:57:18.000Z</time>
      </trkpt>
      <trkpt lat="31.06231" lon="-7.937042">
        <ele>3220.80004882813</ele>
        <time>2019-12-28T10:57:21.000Z</time>
      </trkpt>
      <trkpt lat="31.062333" lon="-7.937054">
        <ele>3220.14516519063</ele>
        <time>2019-12-28T10:57:24.000Z</time>
      </trkpt>
      <trkpt lat="31.062352" lon="-7.937062">
        <ele>3219.54524478125</ele>
        <time>2019-12-28T10:57:27.000Z</time>
      </trkpt>
      <trkpt lat="31.062368" lon="-7.93708">
        <ele>3218.94521401875</ele>
        <time>2019-12-28T10:57:30.000Z</time>
      </trkpt>
      <trkpt lat="31.062387" lon="-7.937095">
        <ele>3217.8904280375</ele>
        <time>2019-12-28T10:57:34.000Z</time>
      </trkpt>
      <trkpt lat="31.06241" lon="-7.937103">
        <ele>3216.8904280375</ele>
        <time>2019-12-28T10:57:37.000Z</time>
      </trkpt>
      <trkpt lat="31.062419" lon="-7.937123">
        <ele>3216.14516519063</ele>
        <time>2019-12-28T10:57:39.000Z</time>
      </trkpt>
      <trkpt lat="31.062426" lon="-7.937146">
        <ele>3215.4904588</ele>
        <time>2019-12-28T10:57:41.000Z</time>
      </trkpt>
      <trkpt lat="31.062442" lon="-7.93716">
        <ele>3214.54524478125</ele>
        <time>2019-12-28T10:57:44.000Z</time>
      </trkpt>
      <trkpt lat="31.062458" lon="-7.93717">
        <ele>3213.94535909652</ele>
        <time>2019-12-28T10:57:46.000Z</time>
      </trkpt>
      <trkpt lat="31.06247" lon="-7.937194">
        <ele>3213.1453102684</ele>
        <time>2019-12-28T10:57:49.000Z</time>
      </trkpt>
      <trkpt lat="31.062493" lon="-7.937206">
        <ele>3212.39990234375</ele>
        <time>2019-12-28T10:57:53.000Z</time>
      </trkpt>
      <trkpt lat="31.062499" lon="-7.937228">
        <ele>3211.60009765625</ele>
        <time>2019-12-28T10:57:57.000Z</time>
      </trkpt>
      <trkpt lat="31.062496" lon="-7.937254">
        <ele>3210.74526284688</ele>
        <time>2019-12-28T10:58:02.000Z</time>
      </trkpt>
      <trkpt lat="31.062509" lon="-7.93727">
        <ele>3209.94521401875</ele>
        <time>2019-12-28T10:58:07.000Z</time>
      </trkpt>
      <trkpt lat="31.062528" lon="-7.937275">
        <ele>3208.94521401875</ele>
        <time>2019-12-28T10:58:13.000Z</time>
      </trkpt>
      <trkpt lat="31.062544" lon="-7.937288">
        <ele>3208</ele>
        <time>2019-12-28T10:58:21.000Z</time>
      </trkpt>
      <trkpt lat="31.062557" lon="-7.937303">
        <ele>3207.60009765625</ele>
        <time>2019-12-28T10:58:25.000Z</time>
      </trkpt>
      <trkpt lat="31.06256" lon="-7.937328">
        <ele>3207.19995117188</ele>
        <time>2019-12-28T10:58:30.000Z</time>
      </trkpt>
      <trkpt lat="31.062579" lon="-7.937323">
        <ele>3207</ele>
        <time>2019-12-28T10:58:33.000Z</time>
      </trkpt>
      <trkpt lat="31.062598" lon="-7.937335">
        <ele>3206.60009765625</ele>
        <time>2019-12-28T10:58:38.000Z</time>
      </trkpt>
      <trkpt lat="31.062608" lon="-7.937362">
        <ele>3206.39990234375</ele>
        <time>2019-12-28T10:58:42.000Z</time>
      </trkpt>
      <trkpt lat="31.062608" lon="-7.937389">
        <ele>3206.14516519063</ele>
        <time>2019-12-28T10:58:45.000Z</time>
      </trkpt>
      <trkpt lat="31.062611" lon="-7.937415">
        <ele>3205.80004882813</ele>
        <time>2019-12-28T10:58:48.000Z</time>
      </trkpt>
      <trkpt lat="31.062614" lon="-7.937437">
        <ele>3205.39990234375</ele>
        <time>2019-12-28T10:58:52.000Z</time>
      </trkpt>
      <trkpt lat="31.062611" lon="-7.937462">
        <ele>3205</ele>
        <time>2019-12-28T10:58:55.000Z</time>
      </trkpt>
      <trkpt lat="31.062611" lon="-7.937485">
        <ele>3204.80004882813</ele>
        <time>2019-12-28T10:58:57.000Z</time>
      </trkpt>
      <trkpt lat="31.062618" lon="-7.93751">
        <ele>3204.39990234375</ele>
        <time>2019-12-28T10:59:00.000Z</time>
      </trkpt>
      <trkpt lat="31.062624" lon="-7.937537">
        <ele>3203.94521401875</ele>
        <time>2019-12-28T10:59:03.000Z</time>
      </trkpt>
      <trkpt lat="31.062627" lon="-7.937558">
        <ele>3203.54524478125</ele>
        <time>2019-12-28T10:59:06.000Z</time>
      </trkpt>
      <trkpt lat="31.06264" lon="-7.937575">
        <ele>3202.94521401875</ele>
        <time>2019-12-28T10:59:10.000Z</time>
      </trkpt>
      <trkpt lat="31.06265" lon="-7.937595">
        <ele>3202.3451163625</ele>
        <time>2019-12-28T10:59:14.000Z</time>
      </trkpt>
      <trkpt lat="31.062666" lon="-7.937605">
        <ele>3201.74526284688</ele>
        <time>2019-12-28T10:59:18.000Z</time>
      </trkpt>
      <trkpt lat="31.062682" lon="-7.937615">
        <ele>3201</ele>
        <time>2019-12-28T10:59:24.000Z</time>
      </trkpt>
      <trkpt lat="31.062701" lon="-7.937614">
        <ele>3200</ele>
        <time>2019-12-28T10:59:31.000Z</time>
      </trkpt>
      <trkpt lat="31.06272" lon="-7.937607">
        <ele>3198.94521401875</ele>
        <time>2019-12-28T10:59:42.000Z</time>
      </trkpt>
      <trkpt lat="31.062714" lon="-7.937632">
        <ele>3198.54524478125</ele>
        <time>2019-12-28T10:59:45.000Z</time>
      </trkpt>
      <trkpt lat="31.062704" lon="-7.93765">
        <ele>3197.74526284688</ele>
        <time>2019-12-28T10:59:51.000Z</time>
      </trkpt>
      <trkpt lat="31.062694" lon="-7.93767">
        <ele>3196.60009765625</ele>
        <time>2019-12-28T11:00:03.000Z</time>
      </trkpt>
      <trkpt lat="31.062707" lon="-7.937685">
        <ele>3195.80004882813</ele>
        <time>2019-12-28T11:00:16.000Z</time>
      </trkpt>
      <trkpt lat="31.062707" lon="-7.937712">
        <ele>3195.60009765625</ele>
        <time>2019-12-28T11:00:35.000Z</time>
      </trkpt>
      <trkpt lat="31.06272" lon="-7.93773">
        <ele>3195.60009765625</ele>
        <time>2019-12-28T11:00:42.000Z</time>
      </trkpt>
      <trkpt lat="31.06271" lon="-7.937749">
        <ele>3195.39990234375</ele>
        <time>2019-12-28T11:00:49.000Z</time>
      </trkpt>
      <trkpt lat="31.062698" lon="-7.93777">
        <ele>3195.3451163625</ele>
        <time>2019-12-28T11:00:51.000Z</time>
      </trkpt>
      <trkpt lat="31.062698" lon="-7.937798">
        <ele>3195.19995117188</ele>
        <time>2019-12-28T11:00:53.000Z</time>
      </trkpt>
      <trkpt lat="31.062698" lon="-7.937823">
        <ele>3195.14516519063</ele>
        <time>2019-12-28T11:00:55.000Z</time>
      </trkpt>
      <trkpt lat="31.062704" lon="-7.937846">
        <ele>3195</ele>
        <time>2019-12-28T11:00:58.000Z</time>
      </trkpt>
      <trkpt lat="31.062726" lon="-7.93785">
        <ele>3194.80004882813</ele>
        <time>2019-12-28T11:01:02.000Z</time>
      </trkpt>
      <trkpt lat="31.062746" lon="-7.937843">
        <ele>3194.80004882813</ele>
        <time>2019-12-28T11:01:04.000Z</time>
      </trkpt>
      <trkpt lat="31.062768" lon="-7.937842">
        <ele>3194.80004882813</ele>
        <time>2019-12-28T11:01:07.000Z</time>
      </trkpt>
      <trkpt lat="31.062787" lon="-7.937843">
        <ele>3194.80004882813</ele>
        <time>2019-12-28T11:01:10.000Z</time>
      </trkpt>
      <trkpt lat="31.06281" lon="-7.937838">
        <ele>3194.80004882813</ele>
        <time>2019-12-28T11:01:13.000Z</time>
      </trkpt>
      <trkpt lat="31.062826" lon="-7.937822">
        <ele>3194.60009765625</ele>
        <time>2019-12-28T11:01:18.000Z</time>
      </trkpt>
      <trkpt lat="31.062845" lon="-7.937815">
        <ele>3194.60009765625</ele>
        <time>2019-12-28T11:01:21.000Z</time>
      </trkpt>
      <trkpt lat="31.062861" lon="-7.937803">
        <ele>3194.39990234375</ele>
        <time>2019-12-28T11:01:24.000Z</time>
      </trkpt>
      <trkpt lat="31.062886" lon="-7.937798">
        <ele>3194.19995117188</ele>
        <time>2019-12-28T11:01:27.000Z</time>
      </trkpt>
      <trkpt lat="31.062909" lon="-7.937797">
        <ele>3193.94521401875</ele>
        <time>2019-12-28T11:01:30.000Z</time>
      </trkpt>
      <trkpt lat="31.062928" lon="-7.937794">
        <ele>3193.54524478125</ele>
        <time>2019-12-28T11:01:33.000Z</time>
      </trkpt>
      <trkpt lat="31.06295" lon="-7.937798">
        <ele>3193.14516519063</ele>
        <time>2019-12-28T11:01:37.000Z</time>
      </trkpt>
      <trkpt lat="31.062973" lon="-7.937809">
        <ele>3192.74526284688</ele>
        <time>2019-12-28T11:01:40.000Z</time>
      </trkpt>
      <trkpt lat="31.062995" lon="-7.93781">
        <ele>3192.3451163625</ele>
        <time>2019-12-28T11:01:42.000Z</time>
      </trkpt>
      <trkpt lat="31.063018" lon="-7.937806">
        <ele>3192</ele>
        <time>2019-12-28T11:01:45.000Z</time>
      </trkpt>
      <trkpt lat="31.063043" lon="-7.937803">
        <ele>3191.54524478125</ele>
        <time>2019-12-28T11:01:48.000Z</time>
      </trkpt>
      <trkpt lat="31.063066" lon="-7.937806">
        <ele>3191.14516519063</ele>
        <time>2019-12-28T11:01:51.000Z</time>
      </trkpt>
      <trkpt lat="31.063088" lon="-7.937797">
        <ele>3190.74526284688</ele>
        <time>2019-12-28T11:01:54.000Z</time>
      </trkpt>
      <trkpt lat="31.06311" lon="-7.937795">
        <ele>3190.39990234375</ele>
        <time>2019-12-28T11:01:57.000Z</time>
      </trkpt>
      <trkpt lat="31.063133" lon="-7.937797">
        <ele>3189.94521401875</ele>
        <time>2019-12-28T11:02:01.000Z</time>
      </trkpt>
      <trkpt lat="31.063155" lon="-7.937803">
        <ele>3189.14516519063</ele>
        <time>2019-12-28T11:02:06.000Z</time>
      </trkpt>
      <trkpt lat="31.063174" lon="-7.937802">
        <ele>3188.74526284688</ele>
        <time>2019-12-28T11:02:09.000Z</time>
      </trkpt>
      <trkpt lat="31.063197" lon="-7.937798">
        <ele>3188.3451163625</ele>
        <time>2019-12-28T11:02:13.000Z</time>
      </trkpt>
      <trkpt lat="31.063216" lon="-7.937798">
        <ele>3188</ele>
        <time>2019-12-28T11:02:16.000Z</time>
      </trkpt>
      <trkpt lat="31.063238" lon="-7.937792">
        <ele>3187.60009765625</ele>
        <time>2019-12-28T11:02:19.000Z</time>
      </trkpt>
      <trkpt lat="31.063261" lon="-7.937785">
        <ele>3187.39990234375</ele>
        <time>2019-12-28T11:02:22.000Z</time>
      </trkpt>
      <trkpt lat="31.063283" lon="-7.937795">
        <ele>3187.14516519063</ele>
        <time>2019-12-28T11:02:24.000Z</time>
      </trkpt>
      <trkpt lat="31.063306" lon="-7.937803">
        <ele>3186.4904588</ele>
        <time>2019-12-28T11:02:27.000Z</time>
      </trkpt>
      <trkpt lat="31.063325" lon="-7.93781">
        <ele>3185.4904588</ele>
        <time>2019-12-28T11:02:30.000Z</time>
      </trkpt>
      <trkpt lat="31.063344" lon="-7.937823">
        <ele>3184.60009765625</ele>
        <time>2019-12-28T11:02:33.000Z</time>
      </trkpt>
      <trkpt lat="31.063366" lon="-7.937837">
        <ele>3183.74526284688</ele>
        <time>2019-12-28T11:02:36.000Z</time>
      </trkpt>
      <trkpt lat="31.063392" lon="-7.93784">
        <ele>3182.69040997187</ele>
        <time>2019-12-28T11:02:40.000Z</time>
      </trkpt>
      <trkpt lat="31.063414" lon="-7.937846">
        <ele>3181.74526284688</ele>
        <time>2019-12-28T11:02:44.000Z</time>
      </trkpt>
      <trkpt lat="31.063434" lon="-7.937842">
        <ele>3181.3451163625</ele>
        <time>2019-12-28T11:02:47.000Z</time>
      </trkpt>
      <trkpt lat="31.063453" lon="-7.937837">
        <ele>3180.74526284688</ele>
        <time>2019-12-28T11:02:52.000Z</time>
      </trkpt>
      <trkpt lat="31.063475" lon="-7.937834">
        <ele>3180.3451163625</ele>
        <time>2019-12-28T11:02:55.000Z</time>
      </trkpt>
      <trkpt lat="31.063494" lon="-7.937842">
        <ele>3179.54524478125</ele>
        <time>2019-12-28T11:03:00.000Z</time>
      </trkpt>
      <trkpt lat="31.06351" lon="-7.937854">
        <ele>3178.94521401875</ele>
        <time>2019-12-28T11:03:04.000Z</time>
      </trkpt>
      <trkpt lat="31.06353" lon="-7.937842">
        <ele>3178.36941473933</ele>
        <time>2019-12-28T11:03:07.000Z</time>
      </trkpt>
      <trkpt lat="31.063546" lon="-7.937823">
        <ele>3177.74526284688</ele>
        <time>2019-12-28T11:03:11.000Z</time>
      </trkpt>
      <trkpt lat="31.063555" lon="-7.937795">
        <ele>3177.3451163625</ele>
        <time>2019-12-28T11:03:14.000Z</time>
      </trkpt>
      <trkpt lat="31.063555" lon="-7.937774">
        <ele>3176.94521401875</ele>
        <time>2019-12-28T11:03:17.000Z</time>
      </trkpt>
      <trkpt lat="31.063565" lon="-7.937752">
        <ele>3176.60009765625</ele>
        <time>2019-12-28T11:03:20.000Z</time>
      </trkpt>
      <trkpt lat="31.063581" lon="-7.93774">
        <ele>3175.3451163625</ele>
        <time>2019-12-28T11:03:33.000Z</time>
      </trkpt>
      <trkpt lat="31.063603" lon="-7.937732">
        <ele>3173.60009765625</ele>
        <time>2019-12-28T11:03:50.000Z</time>
      </trkpt>
      <trkpt lat="31.063622" lon="-7.93773">
        <ele>3173.60009765625</ele>
        <time>2019-12-28T11:03:53.000Z</time>
      </trkpt>
      <trkpt lat="31.063642" lon="-7.93773">
        <ele>3173.60009765625</ele>
        <time>2019-12-28T11:03:56.000Z</time>
      </trkpt>
      <trkpt lat="31.063664" lon="-7.93771">
        <ele>3173.60009765625</ele>
        <time>2019-12-28T11:03:59.000Z</time>
      </trkpt>
      <trkpt lat="31.063683" lon="-7.937697">
        <ele>3173.54524478125</ele>
        <time>2019-12-28T11:04:02.000Z</time>
      </trkpt>
      <trkpt lat="31.063702" lon="-7.93769">
        <ele>3173.39990234375</ele>
        <time>2019-12-28T11:04:06.000Z</time>
      </trkpt>
      <trkpt lat="31.063722" lon="-7.937694">
        <ele>3173.39990234375</ele>
        <time>2019-12-28T11:04:09.000Z</time>
      </trkpt>
      <trkpt lat="31.063744" lon="-7.937698">
        <ele>3173.39990234375</ele>
        <time>2019-12-28T11:04:12.000Z</time>
      </trkpt>
      <trkpt lat="31.063773" lon="-7.937694">
        <ele>3173.19995117188</ele>
        <time>2019-12-28T11:04:16.000Z</time>
      </trkpt>
      <trkpt lat="31.063792" lon="-7.937692">
        <ele>3173.19995117188</ele>
        <time>2019-12-28T11:04:18.000Z</time>
      </trkpt>
      <trkpt lat="31.063811" lon="-7.937688">
        <ele>3173.19995117188</ele>
        <time>2019-12-28T11:04:20.000Z</time>
      </trkpt>
      <trkpt lat="31.063834" lon="-7.93769">
        <ele>3173.19995117188</ele>
        <time>2019-12-28T11:04:24.000Z</time>
      </trkpt>
      <trkpt lat="31.063853" lon="-7.9377">
        <ele>3173.19995117188</ele>
        <time>2019-12-28T11:04:26.000Z</time>
      </trkpt>
      <trkpt lat="31.063869" lon="-7.937717">
        <ele>3173.14516519063</ele>
        <time>2019-12-28T11:04:28.000Z</time>
      </trkpt>
      <trkpt lat="31.063878" lon="-7.93774">
        <ele>3173</ele>
        <time>2019-12-28T11:04:30.000Z</time>
      </trkpt>
      <trkpt lat="31.063888" lon="-7.93776">
        <ele>3173</ele>
        <time>2019-12-28T11:04:32.000Z</time>
      </trkpt>
      <trkpt lat="31.063901" lon="-7.937786">
        <ele>3172.94521401875</ele>
        <time>2019-12-28T11:04:35.000Z</time>
      </trkpt>
      <trkpt lat="31.063914" lon="-7.937812">
        <ele>3172.80004882813</ele>
        <time>2019-12-28T11:04:38.000Z</time>
      </trkpt>
      <trkpt lat="31.063933" lon="-7.937837">
        <ele>3172.80004882813</ele>
        <time>2019-12-28T11:04:41.000Z</time>
      </trkpt>
      <trkpt lat="31.063949" lon="-7.93786">
        <ele>3172.80004882813</ele>
        <time>2019-12-28T11:04:43.000Z</time>
      </trkpt>
      <trkpt lat="31.063958" lon="-7.937885">
        <ele>3172.60009765625</ele>
        <time>2019-12-28T11:04:45.000Z</time>
      </trkpt>
      <trkpt lat="31.063971" lon="-7.93791">
        <ele>3172.60009765625</ele>
        <time>2019-12-28T11:04:47.000Z</time>
      </trkpt>
      <trkpt lat="31.063987" lon="-7.937925">
        <ele>3172.60009765625</ele>
        <time>2019-12-28T11:04:49.000Z</time>
      </trkpt>
      <trkpt lat="31.064006" lon="-7.937926">
        <ele>3172.60009765625</ele>
        <time>2019-12-28T11:04:52.000Z</time>
      </trkpt>
      <trkpt lat="31.064019" lon="-7.937911">
        <ele>3172.39990234375</ele>
        <time>2019-12-28T11:04:54.000Z</time>
      </trkpt>
      <trkpt lat="31.064029" lon="-7.93788">
        <ele>3172.39990234375</ele>
        <time>2019-12-28T11:04:56.000Z</time>
      </trkpt>
      <trkpt lat="31.064032" lon="-7.937854">
        <ele>3172.39990234375</ele>
        <time>2019-12-28T11:04:58.000Z</time>
      </trkpt>
      <trkpt lat="31.064032" lon="-7.93783">
        <ele>3172.19995117188</ele>
        <time>2019-12-28T11:05:01.000Z</time>
      </trkpt>
      <trkpt lat="31.064022" lon="-7.937803">
        <ele>3172.14516519063</ele>
        <time>2019-12-28T11:05:04.000Z</time>
      </trkpt>
      <trkpt lat="31.064019" lon="-7.937775">
        <ele>3172</ele>
        <time>2019-12-28T11:05:07.000Z</time>
      </trkpt>
      <trkpt lat="31.06401" lon="-7.937757">
        <ele>3171.80004882813</ele>
        <time>2019-12-28T11:05:09.000Z</time>
      </trkpt>
      <trkpt lat="31.064" lon="-7.937738">
        <ele>3171.60009765625</ele>
        <time>2019-12-28T11:05:12.000Z</time>
      </trkpt>
      <trkpt lat="31.063994" lon="-7.937718">
        <ele>3171.39990234375</ele>
        <time>2019-12-28T11:05:17.000Z</time>
      </trkpt>
      <trkpt lat="31.063994" lon="-7.937697">
        <ele>3171.19995117188</ele>
        <time>2019-12-28T11:05:20.000Z</time>
      </trkpt>
      <trkpt lat="31.064003" lon="-7.937675">
        <ele>3170.80004882813</ele>
        <time>2019-12-28T11:05:25.000Z</time>
      </trkpt>
      <trkpt lat="31.064029" lon="-7.937667">
        <ele>3170.74526284688</ele>
        <time>2019-12-28T11:05:28.000Z</time>
      </trkpt>
      <trkpt lat="31.064048" lon="-7.937668">
        <ele>3170.60009765625</ele>
        <time>2019-12-28T11:05:31.000Z</time>
      </trkpt>
    </trkseg>
  </trk>
</gpx>
